<?xml version="1.0" encoding="UTF-8" standalone="no" ?>
<gpx xmlns="http://www.topografix.com/GPX/1/1" xmlns:xsi="http://www.w3.org/2001/XMLSchema-instance" xsi:schemaLocation="http://www.topografix.com/GPX/1/1 http://www.topografix.com/GPX/1/1/gpx.xsd" version="1.1" creator="VisuGPX - https://www.visugpx.com">
  <metadata>
    <name>ARQUES LA SEYNE SUR MER 1497 KM</name>
    <desc><![CDATA[Rando de Arques dans le Pas de Calais jusque La Seyne sur Mer dans le Var, 1497 km]]></desc>
  </metadata>
  <trk>
    <name><![CDATA[Randonnée du 29/06/2021 à 10:46]]></name>
    <extensions>
      <line xmlns="http://www.topografix.com/GPX/gpx_style/0/2">
        <color>0000FF</color>
        <width>4</width>
      </line>
    </extensions>
    <trkseg>
      <trkpt lat="50.74202" lon="2.29583">
        <ele>4</ele>
        <time>2021-06-29T10:46:43+02:00</time>
      </trkpt>
      <trkpt lat="50.73956" lon="2.29619">
        <ele>5</ele>
        <time>2021-06-29T10:46:48+02:00</time>
      </trkpt>
      <trkpt lat="50.73866" lon="2.29647">
        <ele>6</ele>
        <time>2021-06-29T10:46:53+02:00</time>
      </trkpt>
      <trkpt lat="50.73621" lon="2.29813">
        <ele>9</ele>
        <time>2021-06-29T10:46:58+02:00</time>
      </trkpt>
      <trkpt lat="50.73396" lon="2.30066">
        <ele>8</ele>
        <time>2021-06-29T10:47:03+02:00</time>
      </trkpt>
      <trkpt lat="50.73251" lon="2.30254">
        <ele>9</ele>
        <time>2021-06-29T10:47:08+02:00</time>
      </trkpt>
      <trkpt lat="50.7315" lon="2.30444">
        <ele>13</ele>
        <time>2021-06-29T10:47:13+02:00</time>
      </trkpt>
      <trkpt lat="50.73068" lon="2.30601">
        <ele>20</ele>
        <time>2021-06-29T10:47:18+02:00</time>
      </trkpt>
      <trkpt lat="50.73049" lon="2.30567">
        <ele>17</ele>
        <time>2021-06-29T10:47:23+02:00</time>
      </trkpt>
      <trkpt lat="50.72995" lon="2.30642">
        <ele>16</ele>
        <time>2021-06-29T10:47:28+02:00</time>
      </trkpt>
      <trkpt lat="50.7293" lon="2.30688">
        <ele>11</ele>
        <time>2021-06-29T10:47:33+02:00</time>
      </trkpt>
      <trkpt lat="50.7287" lon="2.30624">
        <ele>14</ele>
        <time>2021-06-29T10:47:38+02:00</time>
      </trkpt>
      <trkpt lat="50.72825" lon="2.30741">
        <ele>16</ele>
        <time>2021-06-29T10:47:43+02:00</time>
      </trkpt>
      <trkpt lat="50.72795" lon="2.30714">
        <ele>19</ele>
        <time>2021-06-29T10:47:48+02:00</time>
      </trkpt>
      <trkpt lat="50.72759" lon="2.30803">
        <ele>22</ele>
        <time>2021-06-29T10:47:53+02:00</time>
      </trkpt>
      <trkpt lat="50.72637" lon="2.30775">
        <ele>22</ele>
        <time>2021-06-29T10:47:58+02:00</time>
      </trkpt>
      <trkpt lat="50.72623" lon="2.30837">
        <ele>25</ele>
        <time>2021-06-29T10:48:03+02:00</time>
      </trkpt>
      <trkpt lat="50.72468" lon="2.31134">
        <ele>28</ele>
        <time>2021-06-29T10:48:08+02:00</time>
      </trkpt>
      <trkpt lat="50.7239" lon="2.31378">
        <ele>32</ele>
        <time>2021-06-29T10:48:13+02:00</time>
      </trkpt>
      <trkpt lat="50.72182" lon="2.31766">
        <ele>32</ele>
        <time>2021-06-29T10:48:18+02:00</time>
      </trkpt>
      <trkpt lat="50.72026" lon="2.32176">
        <ele>30</ele>
        <time>2021-06-29T10:48:23+02:00</time>
      </trkpt>
      <trkpt lat="50.71817" lon="2.32627">
        <ele>26</ele>
        <time>2021-06-29T10:48:28+02:00</time>
      </trkpt>
      <trkpt lat="50.71739" lon="2.3281">
        <ele>28</ele>
        <time>2021-06-29T10:48:33+02:00</time>
      </trkpt>
      <trkpt lat="50.71602" lon="2.33117">
        <ele>29</ele>
        <time>2021-06-29T10:48:38+02:00</time>
      </trkpt>
      <trkpt lat="50.71489" lon="2.3333">
        <ele>30</ele>
        <time>2021-06-29T10:48:43+02:00</time>
      </trkpt>
      <trkpt lat="50.71418" lon="2.33445">
        <ele>31</ele>
        <time>2021-06-29T10:48:48+02:00</time>
      </trkpt>
      <trkpt lat="50.7133" lon="2.33637">
        <ele>25</ele>
        <time>2021-06-29T10:48:53+02:00</time>
      </trkpt>
      <trkpt lat="50.71269" lon="2.33722">
        <ele>28</ele>
        <time>2021-06-29T10:48:58+02:00</time>
      </trkpt>
      <trkpt lat="50.71211" lon="2.33782">
        <ele>29</ele>
        <time>2021-06-29T10:49:03+02:00</time>
      </trkpt>
      <trkpt lat="50.71104" lon="2.33928">
        <ele>29</ele>
        <time>2021-06-29T10:49:08+02:00</time>
      </trkpt>
      <trkpt lat="50.71011" lon="2.34021">
        <ele>30</ele>
        <time>2021-06-29T10:49:13+02:00</time>
      </trkpt>
      <trkpt lat="50.7091" lon="2.34101">
        <ele>29</ele>
        <time>2021-06-29T10:49:18+02:00</time>
      </trkpt>
      <trkpt lat="50.70841" lon="2.34275">
        <ele>29</ele>
        <time>2021-06-29T10:49:23+02:00</time>
      </trkpt>
      <trkpt lat="50.70808" lon="2.34554">
        <ele>32</ele>
        <time>2021-06-29T10:49:28+02:00</time>
      </trkpt>
      <trkpt lat="50.70779" lon="2.35316">
        <ele>27</ele>
        <time>2021-06-29T10:49:33+02:00</time>
      </trkpt>
      <trkpt lat="50.70775" lon="2.35756">
        <ele>22</ele>
        <time>2021-06-29T10:49:38+02:00</time>
      </trkpt>
      <trkpt lat="50.70777" lon="2.36009">
        <ele>27</ele>
        <time>2021-06-29T10:49:43+02:00</time>
      </trkpt>
      <trkpt lat="50.70751" lon="2.36166">
        <ele>27</ele>
        <time>2021-06-29T10:49:48+02:00</time>
      </trkpt>
      <trkpt lat="50.70734" lon="2.36306">
        <ele>26</ele>
        <time>2021-06-29T10:49:53+02:00</time>
      </trkpt>
      <trkpt lat="50.70804" lon="2.36473">
        <ele>27</ele>
        <time>2021-06-29T10:49:58+02:00</time>
      </trkpt>
      <trkpt lat="50.70755" lon="2.366">
        <ele>28</ele>
        <time>2021-06-29T10:50:03+02:00</time>
      </trkpt>
      <trkpt lat="50.70679" lon="2.36691">
        <ele>27</ele>
        <time>2021-06-29T10:50:08+02:00</time>
      </trkpt>
      <trkpt lat="50.70613" lon="2.36732">
        <ele>27</ele>
        <time>2021-06-29T10:50:13+02:00</time>
      </trkpt>
      <trkpt lat="50.70546" lon="2.36825">
        <ele>26</ele>
        <time>2021-06-29T10:50:18+02:00</time>
      </trkpt>
      <trkpt lat="50.7048" lon="2.36894">
        <ele>25</ele>
        <time>2021-06-29T10:50:23+02:00</time>
      </trkpt>
      <trkpt lat="50.70459" lon="2.37007">
        <ele>26</ele>
        <time>2021-06-29T10:50:28+02:00</time>
      </trkpt>
      <trkpt lat="50.70363" lon="2.37074">
        <ele>28</ele>
        <time>2021-06-29T10:50:33+02:00</time>
      </trkpt>
      <trkpt lat="50.70232" lon="2.37221">
        <ele>29</ele>
        <time>2021-06-29T10:50:38+02:00</time>
      </trkpt>
      <trkpt lat="50.70146" lon="2.37243">
        <ele>26</ele>
        <time>2021-06-29T10:50:43+02:00</time>
      </trkpt>
      <trkpt lat="50.70082" lon="2.37288">
        <ele>24</ele>
        <time>2021-06-29T10:50:48+02:00</time>
      </trkpt>
      <trkpt lat="50.69974" lon="2.37326">
        <ele>24</ele>
        <time>2021-06-29T10:50:53+02:00</time>
      </trkpt>
      <trkpt lat="50.69783" lon="2.37494">
        <ele>21</ele>
        <time>2021-06-29T10:50:58+02:00</time>
      </trkpt>
      <trkpt lat="50.69747" lon="2.37474">
        <ele>22</ele>
        <time>2021-06-29T10:51:03+02:00</time>
      </trkpt>
      <trkpt lat="50.69533" lon="2.3768">
        <ele>21</ele>
        <time>2021-06-29T10:51:08+02:00</time>
      </trkpt>
      <trkpt lat="50.69454" lon="2.37783">
        <ele>21</ele>
        <time>2021-06-29T10:51:13+02:00</time>
      </trkpt>
      <trkpt lat="50.69426" lon="2.37859">
        <ele>22</ele>
        <time>2021-06-29T10:51:18+02:00</time>
      </trkpt>
      <trkpt lat="50.69202" lon="2.38108">
        <ele>23</ele>
        <time>2021-06-29T10:51:23+02:00</time>
      </trkpt>
      <trkpt lat="50.69113" lon="2.38263">
        <ele>24</ele>
        <time>2021-06-29T10:51:28+02:00</time>
      </trkpt>
      <trkpt lat="50.69083" lon="2.38419">
        <ele>26</ele>
        <time>2021-06-29T10:51:33+02:00</time>
      </trkpt>
      <trkpt lat="50.69017" lon="2.38566">
        <ele>25</ele>
        <time>2021-06-29T10:51:38+02:00</time>
      </trkpt>
      <trkpt lat="50.68993" lon="2.38664">
        <ele>24</ele>
        <time>2021-06-29T10:51:43+02:00</time>
      </trkpt>
      <trkpt lat="50.6897" lon="2.39084">
        <ele>23</ele>
        <time>2021-06-29T10:51:48+02:00</time>
      </trkpt>
      <trkpt lat="50.68963" lon="2.39345">
        <ele>22</ele>
        <time>2021-06-29T10:51:53+02:00</time>
      </trkpt>
      <trkpt lat="50.68926" lon="2.39492">
        <ele>23</ele>
        <time>2021-06-29T10:51:58+02:00</time>
      </trkpt>
      <trkpt lat="50.68876" lon="2.39511">
        <ele>23</ele>
        <time>2021-06-29T10:52:03+02:00</time>
      </trkpt>
      <trkpt lat="50.68807" lon="2.39422">
        <ele>24</ele>
        <time>2021-06-29T10:52:08+02:00</time>
      </trkpt>
      <trkpt lat="50.68683" lon="2.39387">
        <ele>22</ele>
        <time>2021-06-29T10:52:13+02:00</time>
      </trkpt>
      <trkpt lat="50.68597" lon="2.39494">
        <ele>21</ele>
        <time>2021-06-29T10:52:18+02:00</time>
      </trkpt>
      <trkpt lat="50.68555" lon="2.39529">
        <ele>22</ele>
        <time>2021-06-29T10:52:23+02:00</time>
      </trkpt>
      <trkpt lat="50.68487" lon="2.39632">
        <ele>21</ele>
        <time>2021-06-29T10:52:28+02:00</time>
      </trkpt>
      <trkpt lat="50.68217" lon="2.39791">
        <ele>23</ele>
        <time>2021-06-29T10:52:33+02:00</time>
      </trkpt>
      <trkpt lat="50.68023" lon="2.3988">
        <ele>24</ele>
        <time>2021-06-29T10:52:38+02:00</time>
      </trkpt>
      <trkpt lat="50.67708" lon="2.3987">
        <ele>29</ele>
        <time>2021-06-29T10:52:43+02:00</time>
      </trkpt>
      <trkpt lat="50.6762" lon="2.39848">
        <ele>29</ele>
        <time>2021-06-29T10:52:48+02:00</time>
      </trkpt>
      <trkpt lat="50.67443" lon="2.39912">
        <ele>28</ele>
        <time>2021-06-29T10:52:53+02:00</time>
      </trkpt>
      <trkpt lat="50.67202" lon="2.39942">
        <ele>28</ele>
        <time>2021-06-29T10:52:58+02:00</time>
      </trkpt>
      <trkpt lat="50.67086" lon="2.39967">
        <ele>28</ele>
        <time>2021-06-29T10:53:03+02:00</time>
      </trkpt>
      <trkpt lat="50.66971" lon="2.40048">
        <ele>24</ele>
        <time>2021-06-29T10:53:08+02:00</time>
      </trkpt>
      <trkpt lat="50.66862" lon="2.40056">
        <ele>22</ele>
        <time>2021-06-29T10:53:13+02:00</time>
      </trkpt>
      <trkpt lat="50.66772" lon="2.40202">
        <ele>20</ele>
        <time>2021-06-29T10:53:18+02:00</time>
      </trkpt>
      <trkpt lat="50.66694" lon="2.40212">
        <ele>21</ele>
        <time>2021-06-29T10:53:23+02:00</time>
      </trkpt>
      <trkpt lat="50.66666" lon="2.40242">
        <ele>21</ele>
        <time>2021-06-29T10:53:28+02:00</time>
      </trkpt>
      <trkpt lat="50.66613" lon="2.40482">
        <ele>21</ele>
        <time>2021-06-29T10:53:33+02:00</time>
      </trkpt>
      <trkpt lat="50.6646" lon="2.40448">
        <ele>21</ele>
        <time>2021-06-29T10:53:38+02:00</time>
      </trkpt>
      <trkpt lat="50.6631" lon="2.4043">
        <ele>21</ele>
        <time>2021-06-29T10:53:43+02:00</time>
      </trkpt>
      <trkpt lat="50.66149" lon="2.40427">
        <ele>24</ele>
        <time>2021-06-29T10:53:48+02:00</time>
      </trkpt>
      <trkpt lat="50.65977" lon="2.40427">
        <ele>21</ele>
        <time>2021-06-29T10:53:53+02:00</time>
      </trkpt>
      <trkpt lat="50.6574" lon="2.40488">
        <ele>22</ele>
        <time>2021-06-29T10:53:58+02:00</time>
      </trkpt>
      <trkpt lat="50.65063" lon="2.4078">
        <ele>20</ele>
        <time>2021-06-29T10:54:03+02:00</time>
      </trkpt>
      <trkpt lat="50.64854" lon="2.40759">
        <ele>22</ele>
        <time>2021-06-29T10:54:08+02:00</time>
      </trkpt>
      <trkpt lat="50.64458" lon="2.40538">
        <ele>21</ele>
        <time>2021-06-29T10:54:13+02:00</time>
      </trkpt>
      <trkpt lat="50.64428" lon="2.4056">
        <ele>20</ele>
        <time>2021-06-29T10:54:18+02:00</time>
      </trkpt>
      <trkpt lat="50.644" lon="2.40544">
        <ele>19</ele>
        <time>2021-06-29T10:54:23+02:00</time>
      </trkpt>
      <trkpt lat="50.6438" lon="2.40556">
        <ele>19</ele>
        <time>2021-06-29T10:54:28+02:00</time>
      </trkpt>
      <trkpt lat="50.64378" lon="2.40612">
        <ele>18</ele>
        <time>2021-06-29T10:54:33+02:00</time>
      </trkpt>
      <trkpt lat="50.64341" lon="2.40637">
        <ele>17</ele>
        <time>2021-06-29T10:54:38+02:00</time>
      </trkpt>
      <trkpt lat="50.64269" lon="2.40664">
        <ele>19</ele>
        <time>2021-06-29T10:54:43+02:00</time>
      </trkpt>
      <trkpt lat="50.64214" lon="2.40824">
        <ele>21</ele>
        <time>2021-06-29T10:54:48+02:00</time>
      </trkpt>
      <trkpt lat="50.64204" lon="2.40741">
        <ele>21</ele>
        <time>2021-06-29T10:54:53+02:00</time>
      </trkpt>
      <trkpt lat="50.64175" lon="2.40723">
        <ele>21</ele>
        <time>2021-06-29T10:54:58+02:00</time>
      </trkpt>
      <trkpt lat="50.6415" lon="2.40691">
        <ele>22</ele>
        <time>2021-06-29T10:55:03+02:00</time>
      </trkpt>
      <trkpt lat="50.64151" lon="2.40622">
        <ele>22</ele>
        <time>2021-06-29T10:55:08+02:00</time>
      </trkpt>
      <trkpt lat="50.64138" lon="2.40596">
        <ele>23</ele>
        <time>2021-06-29T10:55:13+02:00</time>
      </trkpt>
      <trkpt lat="50.64101" lon="2.40594">
        <ele>23</ele>
        <time>2021-06-29T10:55:18+02:00</time>
      </trkpt>
      <trkpt lat="50.64061" lon="2.40614">
        <ele>24</ele>
        <time>2021-06-29T10:55:23+02:00</time>
      </trkpt>
      <trkpt lat="50.63946" lon="2.41088">
        <ele>22</ele>
        <time>2021-06-29T10:55:28+02:00</time>
      </trkpt>
      <trkpt lat="50.63961" lon="2.41172">
        <ele>23</ele>
        <time>2021-06-29T10:55:33+02:00</time>
      </trkpt>
      <trkpt lat="50.63949" lon="2.41221">
        <ele>23</ele>
        <time>2021-06-29T10:55:38+02:00</time>
      </trkpt>
      <trkpt lat="50.63947" lon="2.41364">
        <ele>21</ele>
        <time>2021-06-29T10:55:43+02:00</time>
      </trkpt>
      <trkpt lat="50.63804" lon="2.41402">
        <ele>21</ele>
        <time>2021-06-29T10:55:48+02:00</time>
      </trkpt>
      <trkpt lat="50.6377" lon="2.41594">
        <ele>20</ele>
        <time>2021-06-29T10:55:53+02:00</time>
      </trkpt>
      <trkpt lat="50.63712" lon="2.41772">
        <ele>19</ele>
        <time>2021-06-29T10:55:58+02:00</time>
      </trkpt>
      <trkpt lat="50.63574" lon="2.4178">
        <ele>20</ele>
        <time>2021-06-29T10:56:03+02:00</time>
      </trkpt>
      <trkpt lat="50.63503" lon="2.41785">
        <ele>19</ele>
        <time>2021-06-29T10:56:08+02:00</time>
      </trkpt>
      <trkpt lat="50.6326" lon="2.41786">
        <ele>18</ele>
        <time>2021-06-29T10:56:13+02:00</time>
      </trkpt>
      <trkpt lat="50.62985" lon="2.41882">
        <ele>18</ele>
        <time>2021-06-29T10:56:18+02:00</time>
      </trkpt>
      <trkpt lat="50.62776" lon="2.41934">
        <ele>19</ele>
        <time>2021-06-29T10:56:23+02:00</time>
      </trkpt>
      <trkpt lat="50.62683" lon="2.41975">
        <ele>18</ele>
        <time>2021-06-29T10:56:28+02:00</time>
      </trkpt>
      <trkpt lat="50.62597" lon="2.42175">
        <ele>22</ele>
        <time>2021-06-29T10:56:33+02:00</time>
      </trkpt>
      <trkpt lat="50.62328" lon="2.42343">
        <ele>28</ele>
        <time>2021-06-29T10:56:38+02:00</time>
      </trkpt>
      <trkpt lat="50.62076" lon="2.42667">
        <ele>34</ele>
        <time>2021-06-29T10:56:43+02:00</time>
      </trkpt>
      <trkpt lat="50.61652" lon="2.43597">
        <ele>31</ele>
        <time>2021-06-29T10:56:48+02:00</time>
      </trkpt>
      <trkpt lat="50.6141" lon="2.441">
        <ele>33</ele>
        <time>2021-06-29T10:56:53+02:00</time>
      </trkpt>
      <trkpt lat="50.61182" lon="2.4441">
        <ele>34</ele>
        <time>2021-06-29T10:56:58+02:00</time>
      </trkpt>
      <trkpt lat="50.60762" lon="2.44471">
        <ele>21</ele>
        <time>2021-06-29T10:57:03+02:00</time>
      </trkpt>
      <trkpt lat="50.60564" lon="2.44552">
        <ele>19</ele>
        <time>2021-06-29T10:57:08+02:00</time>
      </trkpt>
      <trkpt lat="50.60298" lon="2.44658">
        <ele>19</ele>
        <time>2021-06-29T10:57:13+02:00</time>
      </trkpt>
      <trkpt lat="50.60088" lon="2.4472">
        <ele>17</ele>
        <time>2021-06-29T10:57:18+02:00</time>
      </trkpt>
      <trkpt lat="50.60029" lon="2.448">
        <ele>19</ele>
        <time>2021-06-29T10:57:23+02:00</time>
      </trkpt>
      <trkpt lat="50.59876" lon="2.45134">
        <ele>20</ele>
        <time>2021-06-29T10:57:28+02:00</time>
      </trkpt>
      <trkpt lat="50.59846" lon="2.45379">
        <ele>19</ele>
        <time>2021-06-29T10:57:33+02:00</time>
      </trkpt>
      <trkpt lat="50.59197" lon="2.45532">
        <ele>21</ele>
        <time>2021-06-29T10:57:38+02:00</time>
      </trkpt>
      <trkpt lat="50.59114" lon="2.45674">
        <ele>23</ele>
        <time>2021-06-29T10:57:43+02:00</time>
      </trkpt>
      <trkpt lat="50.58973" lon="2.45564">
        <ele>26</ele>
        <time>2021-06-29T10:57:48+02:00</time>
      </trkpt>
      <trkpt lat="50.58848" lon="2.45799">
        <ele>25</ele>
        <time>2021-06-29T10:57:53+02:00</time>
      </trkpt>
      <trkpt lat="50.58734" lon="2.45865">
        <ele>24</ele>
        <time>2021-06-29T10:57:58+02:00</time>
      </trkpt>
      <trkpt lat="50.58476" lon="2.45795">
        <ele>23</ele>
        <time>2021-06-29T10:58:03+02:00</time>
      </trkpt>
      <trkpt lat="50.58319" lon="2.45833">
        <ele>22</ele>
        <time>2021-06-29T10:58:08+02:00</time>
      </trkpt>
      <trkpt lat="50.58179" lon="2.45815">
        <ele>23</ele>
        <time>2021-06-29T10:58:13+02:00</time>
      </trkpt>
      <trkpt lat="50.57899" lon="2.46057">
        <ele>23</ele>
        <time>2021-06-29T10:58:18+02:00</time>
      </trkpt>
      <trkpt lat="50.57846" lon="2.46189">
        <ele>22</ele>
        <time>2021-06-29T10:58:23+02:00</time>
      </trkpt>
      <trkpt lat="50.57783" lon="2.46516">
        <ele>23</ele>
        <time>2021-06-29T10:58:28+02:00</time>
      </trkpt>
      <trkpt lat="50.57553" lon="2.46737">
        <ele>23</ele>
        <time>2021-06-29T10:58:33+02:00</time>
      </trkpt>
      <trkpt lat="50.57441" lon="2.46854">
        <ele>22</ele>
        <time>2021-06-29T10:58:38+02:00</time>
      </trkpt>
      <trkpt lat="50.57205" lon="2.47267">
        <ele>22</ele>
        <time>2021-06-29T10:58:43+02:00</time>
      </trkpt>
      <trkpt lat="50.57029" lon="2.47529">
        <ele>25</ele>
        <time>2021-06-29T10:58:48+02:00</time>
      </trkpt>
      <trkpt lat="50.56948" lon="2.47601">
        <ele>27</ele>
        <time>2021-06-29T10:58:53+02:00</time>
      </trkpt>
      <trkpt lat="50.56858" lon="2.47648">
        <ele>28</ele>
        <time>2021-06-29T10:58:58+02:00</time>
      </trkpt>
    </trkseg>
  </trk>
  <trk>
    <name><![CDATA[2 -LILLERS PARC HOLLAIN 25.2 KM]]></name>
    <extensions>
      <line xmlns="http://www.topografix.com/GPX/gpx_style/0/2">
        <color>00FF00</color>
        <width>4</width>
      </line>
    </extensions>
    <trkseg>
      <trkpt lat="50.56903" lon="2.4763">
        <ele>28</ele>
        <time>2021-10-05T09:32:39+02:00</time>
      </trkpt>
      <trkpt lat="50.56694" lon="2.47729">
        <ele>28</ele>
        <time>2021-10-05T09:32:44+02:00</time>
      </trkpt>
      <trkpt lat="50.56583" lon="2.47809">
        <ele>27</ele>
        <time>2021-10-05T09:32:49+02:00</time>
      </trkpt>
      <trkpt lat="50.56505" lon="2.47988">
        <ele>26</ele>
        <time>2021-10-05T09:32:54+02:00</time>
      </trkpt>
      <trkpt lat="50.56416" lon="2.48045">
        <ele>27</ele>
        <time>2021-10-05T09:32:59+02:00</time>
      </trkpt>
      <trkpt lat="50.56352" lon="2.48057">
        <ele>29</ele>
        <time>2021-10-05T09:33:04+02:00</time>
      </trkpt>
      <trkpt lat="50.56229" lon="2.48164">
        <ele>29</ele>
        <time>2021-10-05T09:33:09+02:00</time>
      </trkpt>
      <trkpt lat="50.56159" lon="2.48241">
        <ele>29</ele>
        <time>2021-10-05T09:33:14+02:00</time>
      </trkpt>
      <trkpt lat="50.56089" lon="2.48409">
        <ele>30</ele>
        <time>2021-10-05T09:33:19+02:00</time>
      </trkpt>
      <trkpt lat="50.56042" lon="2.48605">
        <ele>25</ele>
        <time>2021-10-05T09:33:24+02:00</time>
      </trkpt>
      <trkpt lat="50.5598" lon="2.48986">
        <ele>29</ele>
        <time>2021-10-05T09:33:29+02:00</time>
      </trkpt>
      <trkpt lat="50.55827" lon="2.49043">
        <ele>28</ele>
        <time>2021-10-05T09:33:34+02:00</time>
      </trkpt>
      <trkpt lat="50.55718" lon="2.49071">
        <ele>28</ele>
        <time>2021-10-05T09:33:39+02:00</time>
      </trkpt>
      <trkpt lat="50.55606" lon="2.49153">
        <ele>31</ele>
        <time>2021-10-05T09:33:44+02:00</time>
      </trkpt>
      <trkpt lat="50.55502" lon="2.4919">
        <ele>31</ele>
        <time>2021-10-05T09:33:49+02:00</time>
      </trkpt>
      <trkpt lat="50.55328" lon="2.49206">
        <ele>31</ele>
        <time>2021-10-05T09:33:54+02:00</time>
      </trkpt>
      <trkpt lat="50.5525" lon="2.49202">
        <ele>31</ele>
        <time>2021-10-05T09:33:59+02:00</time>
      </trkpt>
      <trkpt lat="50.55149" lon="2.49215">
        <ele>30</ele>
        <time>2021-10-05T09:34:04+02:00</time>
      </trkpt>
      <trkpt lat="50.55034" lon="2.49251">
        <ele>28</ele>
        <time>2021-10-05T09:34:09+02:00</time>
      </trkpt>
      <trkpt lat="50.54902" lon="2.4919">
        <ele>27</ele>
        <time>2021-10-05T09:34:14+02:00</time>
      </trkpt>
      <trkpt lat="50.54795" lon="2.49096">
        <ele>26</ele>
        <time>2021-10-05T09:34:19+02:00</time>
      </trkpt>
      <trkpt lat="50.54528" lon="2.49337">
        <ele>32</ele>
        <time>2021-10-05T09:34:24+02:00</time>
      </trkpt>
      <trkpt lat="50.54006" lon="2.49264">
        <ele>34</ele>
        <time>2021-10-05T09:34:29+02:00</time>
      </trkpt>
      <trkpt lat="50.53681" lon="2.49362">
        <ele>30</ele>
        <time>2021-10-05T09:34:34+02:00</time>
      </trkpt>
      <trkpt lat="50.53517" lon="2.49509">
        <ele>32</ele>
        <time>2021-10-05T09:34:39+02:00</time>
      </trkpt>
      <trkpt lat="50.53236" lon="2.49574">
        <ele>41</ele>
        <time>2021-10-05T09:34:44+02:00</time>
      </trkpt>
      <trkpt lat="50.53005" lon="2.49746">
        <ele>44</ele>
        <time>2021-10-05T09:34:49+02:00</time>
      </trkpt>
      <trkpt lat="50.5287" lon="2.49771">
        <ele>41</ele>
        <time>2021-10-05T09:34:54+02:00</time>
      </trkpt>
      <trkpt lat="50.52844" lon="2.49832">
        <ele>39</ele>
        <time>2021-10-05T09:34:59+02:00</time>
      </trkpt>
      <trkpt lat="50.52727" lon="2.49922">
        <ele>36</ele>
        <time>2021-10-05T09:35:04+02:00</time>
      </trkpt>
      <trkpt lat="50.52537" lon="2.50278">
        <ele>38</ele>
        <time>2021-10-05T09:35:09+02:00</time>
      </trkpt>
      <trkpt lat="50.52625" lon="2.50376">
        <ele>38</ele>
        <time>2021-10-05T09:35:14+02:00</time>
      </trkpt>
      <trkpt lat="50.52693" lon="2.50482">
        <ele>38</ele>
        <time>2021-10-05T09:35:19+02:00</time>
      </trkpt>
      <trkpt lat="50.52649" lon="2.50535">
        <ele>39</ele>
        <time>2021-10-05T09:35:24+02:00</time>
      </trkpt>
      <trkpt lat="50.52451" lon="2.50662">
        <ele>42</ele>
        <time>2021-10-05T09:35:29+02:00</time>
      </trkpt>
      <trkpt lat="50.52418" lon="2.50756">
        <ele>39</ele>
        <time>2021-10-05T09:35:34+02:00</time>
      </trkpt>
      <trkpt lat="50.52327" lon="2.51173">
        <ele>43</ele>
        <time>2021-10-05T09:35:39+02:00</time>
      </trkpt>
      <trkpt lat="50.52267" lon="2.51312">
        <ele>44</ele>
        <time>2021-10-05T09:35:44+02:00</time>
      </trkpt>
      <trkpt lat="50.52214" lon="2.51372">
        <ele>45</ele>
        <time>2021-10-05T09:35:49+02:00</time>
      </trkpt>
      <trkpt lat="50.5183" lon="2.50878">
        <ele>55</ele>
        <time>2021-10-05T09:35:54+02:00</time>
      </trkpt>
      <trkpt lat="50.51611" lon="2.50581">
        <ele>61</ele>
        <time>2021-10-05T09:35:59+02:00</time>
      </trkpt>
      <trkpt lat="50.51602" lon="2.5051">
        <ele>63</ele>
        <time>2021-10-05T09:36:04+02:00</time>
      </trkpt>
      <trkpt lat="50.51551" lon="2.50379">
        <ele>67</ele>
        <time>2021-10-05T09:36:09+02:00</time>
      </trkpt>
      <trkpt lat="50.5147" lon="2.50459">
        <ele>68</ele>
        <time>2021-10-05T09:36:14+02:00</time>
      </trkpt>
      <trkpt lat="50.51393" lon="2.50303">
        <ele>73</ele>
        <time>2021-10-05T09:36:19+02:00</time>
      </trkpt>
      <trkpt lat="50.51352" lon="2.50328">
        <ele>74</ele>
        <time>2021-10-05T09:36:24+02:00</time>
      </trkpt>
      <trkpt lat="50.51268" lon="2.50328">
        <ele>79</ele>
        <time>2021-10-05T09:36:29+02:00</time>
      </trkpt>
      <trkpt lat="50.51214" lon="2.50197">
        <ele>85</ele>
        <time>2021-10-05T09:36:34+02:00</time>
      </trkpt>
      <trkpt lat="50.51082" lon="2.50288">
        <ele>89</ele>
        <time>2021-10-05T09:36:39+02:00</time>
      </trkpt>
      <trkpt lat="50.51028" lon="2.50117">
        <ele>90</ele>
        <time>2021-10-05T09:36:44+02:00</time>
      </trkpt>
      <trkpt lat="50.50954" lon="2.50001">
        <ele>89</ele>
        <time>2021-10-05T09:36:49+02:00</time>
      </trkpt>
      <trkpt lat="50.50893" lon="2.50096">
        <ele>84</ele>
        <time>2021-10-05T09:36:54+02:00</time>
      </trkpt>
      <trkpt lat="50.50829" lon="2.49784">
        <ele>80</ele>
        <time>2021-10-05T09:36:59+02:00</time>
      </trkpt>
      <trkpt lat="50.50752" lon="2.49809">
        <ele>68</ele>
        <time>2021-10-05T09:37:04+02:00</time>
      </trkpt>
      <trkpt lat="50.50681" lon="2.49884">
        <ele>55</ele>
        <time>2021-10-05T09:37:09+02:00</time>
      </trkpt>
      <trkpt lat="50.50624" lon="2.49895">
        <ele>51</ele>
        <time>2021-10-05T09:37:14+02:00</time>
      </trkpt>
      <trkpt lat="50.50267" lon="2.50172">
        <ele>64</ele>
        <time>2021-10-05T09:37:19+02:00</time>
      </trkpt>
      <trkpt lat="50.50184" lon="2.50268">
        <ele>64</ele>
        <time>2021-10-05T09:37:24+02:00</time>
      </trkpt>
      <trkpt lat="50.50207" lon="2.50565">
        <ele>56</ele>
        <time>2021-10-05T09:37:29+02:00</time>
      </trkpt>
      <trkpt lat="50.5012" lon="2.50611">
        <ele>48</ele>
        <time>2021-10-05T09:37:34+02:00</time>
      </trkpt>
      <trkpt lat="50.50059" lon="2.50656">
        <ele>42</ele>
        <time>2021-10-05T09:37:39+02:00</time>
      </trkpt>
      <trkpt lat="50.50033" lon="2.50717">
        <ele>39</ele>
        <time>2021-10-05T09:37:44+02:00</time>
      </trkpt>
      <trkpt lat="50.50046" lon="2.50782">
        <ele>39</ele>
        <time>2021-10-05T09:37:49+02:00</time>
      </trkpt>
      <trkpt lat="50.50011" lon="2.50863">
        <ele>38</ele>
        <time>2021-10-05T09:37:54+02:00</time>
      </trkpt>
      <trkpt lat="50.49953" lon="2.50813">
        <ele>38</ele>
        <time>2021-10-05T09:37:59+02:00</time>
      </trkpt>
      <trkpt lat="50.49911" lon="2.50818">
        <ele>38</ele>
        <time>2021-10-05T09:38:04+02:00</time>
      </trkpt>
      <trkpt lat="50.4985" lon="2.50742">
        <ele>39</ele>
        <time>2021-10-05T09:38:09+02:00</time>
      </trkpt>
      <trkpt lat="50.49831" lon="2.50661">
        <ele>40</ele>
        <time>2021-10-05T09:38:14+02:00</time>
      </trkpt>
      <trkpt lat="50.49796" lon="2.50661">
        <ele>42</ele>
        <time>2021-10-05T09:38:19+02:00</time>
      </trkpt>
      <trkpt lat="50.49735" lon="2.5034">
        <ele>42</ele>
        <time>2021-10-05T09:38:24+02:00</time>
      </trkpt>
      <trkpt lat="50.49649" lon="2.5018">
        <ele>46</ele>
        <time>2021-10-05T09:38:29+02:00</time>
      </trkpt>
      <trkpt lat="50.4958" lon="2.50087">
        <ele>46</ele>
        <time>2021-10-05T09:38:34+02:00</time>
      </trkpt>
      <trkpt lat="50.49454" lon="2.50035">
        <ele>43</ele>
        <time>2021-10-05T09:38:39+02:00</time>
      </trkpt>
      <trkpt lat="50.49355" lon="2.4994">
        <ele>41</ele>
        <time>2021-10-05T09:38:44+02:00</time>
      </trkpt>
      <trkpt lat="50.49295" lon="2.50099">
        <ele>45</ele>
        <time>2021-10-05T09:38:49+02:00</time>
      </trkpt>
      <trkpt lat="50.49196" lon="2.50117">
        <ele>49</ele>
        <time>2021-10-05T09:38:54+02:00</time>
      </trkpt>
      <trkpt lat="50.48787" lon="2.50689">
        <ele>93</ele>
        <time>2021-10-05T09:38:59+02:00</time>
      </trkpt>
      <trkpt lat="50.48935" lon="2.51051">
        <ele>91</ele>
        <time>2021-10-05T09:39:04+02:00</time>
      </trkpt>
      <trkpt lat="50.48875" lon="2.51121">
        <ele>95</ele>
        <time>2021-10-05T09:39:09+02:00</time>
      </trkpt>
      <trkpt lat="50.48835" lon="2.5108">
        <ele>97</ele>
        <time>2021-10-05T09:39:14+02:00</time>
      </trkpt>
      <trkpt lat="50.48741" lon="2.51221">
        <ele>97</ele>
        <time>2021-10-05T09:39:19+02:00</time>
      </trkpt>
      <trkpt lat="50.48285" lon="2.51526">
        <ele>85</ele>
        <time>2021-10-05T09:39:24+02:00</time>
      </trkpt>
      <trkpt lat="50.48282" lon="2.51903">
        <ele>83</ele>
        <time>2021-10-05T09:39:29+02:00</time>
      </trkpt>
      <trkpt lat="50.48336" lon="2.52844">
        <ele>74</ele>
        <time>2021-10-05T09:39:34+02:00</time>
      </trkpt>
      <trkpt lat="50.48134" lon="2.52963">
        <ele>62</ele>
        <time>2021-10-05T09:39:39+02:00</time>
      </trkpt>
      <trkpt lat="50.47981" lon="2.52942">
        <ele>53</ele>
        <time>2021-10-05T09:39:44+02:00</time>
      </trkpt>
      <trkpt lat="50.47817" lon="2.53118">
        <ele>41</ele>
        <time>2021-10-05T09:39:49+02:00</time>
      </trkpt>
      <trkpt lat="50.47645" lon="2.5311">
        <ele>42</ele>
        <time>2021-10-05T09:39:54+02:00</time>
      </trkpt>
      <trkpt lat="50.47642" lon="2.53217">
        <ele>40</ele>
        <time>2021-10-05T09:39:59+02:00</time>
      </trkpt>
      <trkpt lat="50.47501" lon="2.53465">
        <ele>55</ele>
        <time>2021-10-05T09:40:04+02:00</time>
      </trkpt>
      <trkpt lat="50.47575" lon="2.53579">
        <ele>49</ele>
        <time>2021-10-05T09:40:09+02:00</time>
      </trkpt>
      <trkpt lat="50.47577" lon="2.53666">
        <ele>49</ele>
        <time>2021-10-05T09:40:14+02:00</time>
      </trkpt>
      <trkpt lat="50.47545" lon="2.53745">
        <ele>53</ele>
        <time>2021-10-05T09:40:19+02:00</time>
      </trkpt>
      <trkpt lat="50.47487" lon="2.53672">
        <ele>61</ele>
        <time>2021-10-05T09:40:24+02:00</time>
      </trkpt>
      <trkpt lat="50.47276" lon="2.53062">
        <ele>53</ele>
        <time>2021-10-05T09:40:29+02:00</time>
      </trkpt>
      <trkpt lat="50.47211" lon="2.52875">
        <ele>55</ele>
        <time>2021-10-05T09:40:34+02:00</time>
      </trkpt>
      <trkpt lat="50.47148" lon="2.5272">
        <ele>53</ele>
        <time>2021-10-05T09:40:39+02:00</time>
      </trkpt>
      <trkpt lat="50.47022" lon="2.52568">
        <ele>52</ele>
        <time>2021-10-05T09:40:44+02:00</time>
      </trkpt>
      <trkpt lat="50.46882" lon="2.52505">
        <ele>45</ele>
        <time>2021-10-05T09:40:49+02:00</time>
      </trkpt>
      <trkpt lat="50.46539" lon="2.52447">
        <ele>48</ele>
        <time>2021-10-05T09:40:54+02:00</time>
      </trkpt>
      <trkpt lat="50.46415" lon="2.52485">
        <ele>50</ele>
        <time>2021-10-05T09:40:59+02:00</time>
      </trkpt>
      <trkpt lat="50.45777" lon="2.52859">
        <ele>53</ele>
        <time>2021-10-05T09:41:04+02:00</time>
      </trkpt>
      <trkpt lat="50.45677" lon="2.52872">
        <ele>55</ele>
        <time>2021-10-05T09:41:09+02:00</time>
      </trkpt>
      <trkpt lat="50.45573" lon="2.5285">
        <ele>56</ele>
        <time>2021-10-05T09:41:14+02:00</time>
      </trkpt>
      <trkpt lat="50.45284" lon="2.52658">
        <ele>58</ele>
        <time>2021-10-05T09:41:19+02:00</time>
      </trkpt>
      <trkpt lat="50.45054" lon="2.52481">
        <ele>57</ele>
        <time>2021-10-05T09:41:24+02:00</time>
      </trkpt>
      <trkpt lat="50.44434" lon="2.53426">
        <ele>71</ele>
        <time>2021-10-05T09:41:29+02:00</time>
      </trkpt>
      <trkpt lat="50.44371" lon="2.53486">
        <ele>69</ele>
        <time>2021-10-05T09:41:34+02:00</time>
      </trkpt>
      <trkpt lat="50.4433" lon="2.5357">
        <ele>70</ele>
        <time>2021-10-05T09:41:39+02:00</time>
      </trkpt>
      <trkpt lat="50.44036" lon="2.54087">
        <ele>72</ele>
        <time>2021-10-05T09:41:44+02:00</time>
      </trkpt>
      <trkpt lat="50.44041" lon="2.54315">
        <ele>69</ele>
        <time>2021-10-05T09:41:49+02:00</time>
      </trkpt>
      <trkpt lat="50.44067" lon="2.54667">
        <ele>69</ele>
        <time>2021-10-05T09:41:54+02:00</time>
      </trkpt>
      <trkpt lat="50.43984" lon="2.54924">
        <ele>66</ele>
        <time>2021-10-05T09:41:59+02:00</time>
      </trkpt>
      <trkpt lat="50.44026" lon="2.55073">
        <ele>65</ele>
        <time>2021-10-05T09:42:04+02:00</time>
      </trkpt>
      <trkpt lat="50.44007" lon="2.55147">
        <ele>64</ele>
        <time>2021-10-05T09:42:09+02:00</time>
      </trkpt>
      <trkpt lat="50.43952" lon="2.5519">
        <ele>66</ele>
        <time>2021-10-05T09:42:14+02:00</time>
      </trkpt>
      <trkpt lat="50.43961" lon="2.55304">
        <ele>71</ele>
        <time>2021-10-05T09:42:19+02:00</time>
      </trkpt>
      <trkpt lat="50.44018" lon="2.55434">
        <ele>75</ele>
        <time>2021-10-05T09:42:24+02:00</time>
      </trkpt>
      <trkpt lat="50.44168" lon="2.55527">
        <ele>75</ele>
        <time>2021-10-05T09:42:29+02:00</time>
      </trkpt>
      <trkpt lat="50.43746" lon="2.56011">
        <ele>86</ele>
        <time>2021-10-05T09:42:34+02:00</time>
      </trkpt>
      <trkpt lat="50.43675" lon="2.5608">
        <ele>82</ele>
        <time>2021-10-05T09:42:39+02:00</time>
      </trkpt>
      <trkpt lat="50.43512" lon="2.56372">
        <ele>84</ele>
        <time>2021-10-05T09:42:44+02:00</time>
      </trkpt>
      <trkpt lat="50.43754" lon="2.56721">
        <ele>106</ele>
        <time>2021-10-05T09:42:49+02:00</time>
      </trkpt>
      <trkpt lat="50.43917" lon="2.57124">
        <ele>125</ele>
        <time>2021-10-05T09:42:54+02:00</time>
      </trkpt>
      <trkpt lat="50.43989" lon="2.57173">
        <ele>139</ele>
        <time>2021-10-05T09:42:59+02:00</time>
      </trkpt>
      <trkpt lat="50.44096" lon="2.57165">
        <ele>151</ele>
        <time>2021-10-05T09:43:04+02:00</time>
      </trkpt>
      <trkpt lat="50.44316" lon="2.57397">
        <ele>145</ele>
        <time>2021-10-05T09:43:09+02:00</time>
      </trkpt>
      <trkpt lat="50.4421" lon="2.57425">
        <ele>161</ele>
        <time>2021-10-05T09:43:14+02:00</time>
      </trkpt>
      <trkpt lat="50.44027" lon="2.57634">
        <ele>179</ele>
        <time>2021-10-05T09:43:19+02:00</time>
      </trkpt>
      <trkpt lat="50.43968" lon="2.5775">
        <ele>182</ele>
        <time>2021-10-05T09:43:24+02:00</time>
      </trkpt>
      <trkpt lat="50.43883" lon="2.57891">
        <ele>186</ele>
        <time>2021-10-05T09:43:29+02:00</time>
      </trkpt>
      <trkpt lat="50.43892" lon="2.57984">
        <ele>188</ele>
        <time>2021-10-05T09:43:34+02:00</time>
      </trkpt>
      <trkpt lat="50.43707" lon="2.5827">
        <ele>181</ele>
        <time>2021-10-05T09:43:39+02:00</time>
      </trkpt>
      <trkpt lat="50.43709" lon="2.58381">
        <ele>181</ele>
        <time>2021-10-05T09:43:44+02:00</time>
      </trkpt>
    </trkseg>
  </trk>
  <trk>
    <name><![CDATA[3 - Parc Hollain - Maroeuil 29.0 km]]></name>
    <extensions>
      <line xmlns="http://www.topografix.com/GPX/gpx_style/0/2">
        <color>FF0000</color>
        <width>4</width>
      </line>
    </extensions>
    <trkseg>
      <trkpt lat="50.43709" lon="2.58276">
        <ele>181</ele>
        <time>2021-10-05T10:43:35+02:00</time>
      </trkpt>
      <trkpt lat="50.43703" lon="2.58389">
        <ele>181</ele>
        <time>2021-10-05T10:43:40+02:00</time>
      </trkpt>
      <trkpt lat="50.43649" lon="2.58408">
        <ele>182</ele>
        <time>2021-10-05T10:43:45+02:00</time>
      </trkpt>
      <trkpt lat="50.43649" lon="2.58554">
        <ele>182</ele>
        <time>2021-10-05T10:43:50+02:00</time>
      </trkpt>
      <trkpt lat="50.43619" lon="2.58616">
        <ele>184</ele>
        <time>2021-10-05T10:43:55+02:00</time>
      </trkpt>
      <trkpt lat="50.4361" lon="2.58686">
        <ele>185</ele>
        <time>2021-10-05T10:44:00+02:00</time>
      </trkpt>
      <trkpt lat="50.43535" lon="2.58776">
        <ele>192</ele>
        <time>2021-10-05T10:44:05+02:00</time>
      </trkpt>
      <trkpt lat="50.43394" lon="2.58644">
        <ele>181</ele>
        <time>2021-10-05T10:44:10+02:00</time>
      </trkpt>
      <trkpt lat="50.4334" lon="2.587">
        <ele>175</ele>
        <time>2021-10-05T10:44:15+02:00</time>
      </trkpt>
      <trkpt lat="50.43232" lon="2.59087">
        <ele>161</ele>
        <time>2021-10-05T10:44:20+02:00</time>
      </trkpt>
      <trkpt lat="50.43287" lon="2.59235">
        <ele>158</ele>
        <time>2021-10-05T10:44:25+02:00</time>
      </trkpt>
      <trkpt lat="50.4325" lon="2.59483">
        <ele>144</ele>
        <time>2021-10-05T10:44:30+02:00</time>
      </trkpt>
      <trkpt lat="50.43256" lon="2.59646">
        <ele>146</ele>
        <time>2021-10-05T10:44:35+02:00</time>
      </trkpt>
      <trkpt lat="50.43152" lon="2.59621">
        <ele>140</ele>
        <time>2021-10-05T10:44:40+02:00</time>
      </trkpt>
      <trkpt lat="50.43088" lon="2.60042">
        <ele>173</ele>
        <time>2021-10-05T10:44:45+02:00</time>
      </trkpt>
      <trkpt lat="50.42808" lon="2.60186">
        <ele>164</ele>
        <time>2021-10-05T10:44:50+02:00</time>
      </trkpt>
      <trkpt lat="50.42736" lon="2.59727">
        <ele>126</ele>
        <time>2021-10-05T10:44:55+02:00</time>
      </trkpt>
      <trkpt lat="50.42556" lon="2.59634">
        <ele>107</ele>
        <time>2021-10-05T10:45:00+02:00</time>
      </trkpt>
      <trkpt lat="50.42474" lon="2.59682">
        <ele>112</ele>
        <time>2021-10-05T10:45:05+02:00</time>
      </trkpt>
      <trkpt lat="50.42446" lon="2.59865">
        <ele>124</ele>
        <time>2021-10-05T10:45:10+02:00</time>
      </trkpt>
      <trkpt lat="50.42444" lon="2.59974">
        <ele>129</ele>
        <time>2021-10-05T10:45:15+02:00</time>
      </trkpt>
      <trkpt lat="50.42394" lon="2.60128">
        <ele>144</ele>
        <time>2021-10-05T10:45:20+02:00</time>
      </trkpt>
      <trkpt lat="50.42405" lon="2.60183">
        <ele>152</ele>
        <time>2021-10-05T10:45:25+02:00</time>
      </trkpt>
      <trkpt lat="50.42343" lon="2.60279">
        <ele>165</ele>
        <time>2021-10-05T10:45:30+02:00</time>
      </trkpt>
      <trkpt lat="50.42239" lon="2.60199">
        <ele>160</ele>
        <time>2021-10-05T10:45:35+02:00</time>
      </trkpt>
      <trkpt lat="50.42184" lon="2.60218">
        <ele>164</ele>
        <time>2021-10-05T10:45:40+02:00</time>
      </trkpt>
      <trkpt lat="50.42128" lon="2.60437">
        <ele>184</ele>
        <time>2021-10-05T10:45:45+02:00</time>
      </trkpt>
      <trkpt lat="50.41995" lon="2.60703">
        <ele>183</ele>
        <time>2021-10-05T10:45:50+02:00</time>
      </trkpt>
      <trkpt lat="50.42034" lon="2.61082">
        <ele>179</ele>
        <time>2021-10-05T10:45:55+02:00</time>
      </trkpt>
      <trkpt lat="50.42044" lon="2.61147">
        <ele>174</ele>
        <time>2021-10-05T10:46:00+02:00</time>
      </trkpt>
      <trkpt lat="50.4166" lon="2.61237">
        <ele>160</ele>
        <time>2021-10-05T10:46:05+02:00</time>
      </trkpt>
      <trkpt lat="50.41541" lon="2.61201">
        <ele>157</ele>
        <time>2021-10-05T10:46:10+02:00</time>
      </trkpt>
      <trkpt lat="50.41277" lon="2.61972">
        <ele>153</ele>
        <time>2021-10-05T10:46:15+02:00</time>
      </trkpt>
      <trkpt lat="50.41101" lon="2.62287">
        <ele>160</ele>
        <time>2021-10-05T10:46:20+02:00</time>
      </trkpt>
      <trkpt lat="50.41082" lon="2.62367">
        <ele>161</ele>
        <time>2021-10-05T10:46:25+02:00</time>
      </trkpt>
      <trkpt lat="50.41105" lon="2.62428">
        <ele>161</ele>
        <time>2021-10-05T10:46:30+02:00</time>
      </trkpt>
      <trkpt lat="50.40996" lon="2.62589">
        <ele>163</ele>
        <time>2021-10-05T10:46:35+02:00</time>
      </trkpt>
      <trkpt lat="50.40929" lon="2.62769">
        <ele>166</ele>
        <time>2021-10-05T10:46:40+02:00</time>
      </trkpt>
      <trkpt lat="50.40949" lon="2.62971">
        <ele>166</ele>
        <time>2021-10-05T10:46:45+02:00</time>
      </trkpt>
      <trkpt lat="50.40937" lon="2.63167">
        <ele>166</ele>
        <time>2021-10-05T10:46:50+02:00</time>
      </trkpt>
      <trkpt lat="50.40878" lon="2.63337">
        <ele>163</ele>
        <time>2021-10-05T10:46:55+02:00</time>
      </trkpt>
      <trkpt lat="50.40644" lon="2.63649">
        <ele>158</ele>
        <time>2021-10-05T10:47:00+02:00</time>
      </trkpt>
      <trkpt lat="50.40634" lon="2.63909">
        <ele>158</ele>
        <time>2021-10-05T10:47:05+02:00</time>
      </trkpt>
      <trkpt lat="50.40583" lon="2.6416">
        <ele>159</ele>
        <time>2021-10-05T10:47:10+02:00</time>
      </trkpt>
      <trkpt lat="50.40603" lon="2.64507">
        <ele>161</ele>
        <time>2021-10-05T10:47:15+02:00</time>
      </trkpt>
      <trkpt lat="50.40484" lon="2.64831">
        <ele>161</ele>
        <time>2021-10-05T10:47:20+02:00</time>
      </trkpt>
      <trkpt lat="50.40476" lon="2.6495">
        <ele>160</ele>
        <time>2021-10-05T10:47:25+02:00</time>
      </trkpt>
      <trkpt lat="50.40345" lon="2.64989">
        <ele>161</ele>
        <time>2021-10-05T10:47:30+02:00</time>
      </trkpt>
      <trkpt lat="50.40366" lon="2.65188">
        <ele>157</ele>
        <time>2021-10-05T10:47:35+02:00</time>
      </trkpt>
      <trkpt lat="50.40515" lon="2.65387">
        <ele>149</ele>
        <time>2021-10-05T10:47:40+02:00</time>
      </trkpt>
      <trkpt lat="50.40538" lon="2.65538">
        <ele>147</ele>
        <time>2021-10-05T10:47:45+02:00</time>
      </trkpt>
      <trkpt lat="50.40732" lon="2.65837">
        <ele>146</ele>
        <time>2021-10-05T10:47:50+02:00</time>
      </trkpt>
      <trkpt lat="50.40722" lon="2.65981">
        <ele>146</ele>
        <time>2021-10-05T10:47:55+02:00</time>
      </trkpt>
      <trkpt lat="50.40556" lon="2.66155">
        <ele>143</ele>
        <time>2021-10-05T10:48:00+02:00</time>
      </trkpt>
      <trkpt lat="50.40417" lon="2.66383">
        <ele>139</ele>
        <time>2021-10-05T10:48:05+02:00</time>
      </trkpt>
      <trkpt lat="50.40374" lon="2.66621">
        <ele>140</ele>
        <time>2021-10-05T10:48:10+02:00</time>
      </trkpt>
      <trkpt lat="50.40745" lon="2.66845">
        <ele>154</ele>
        <time>2021-10-05T10:48:15+02:00</time>
      </trkpt>
      <trkpt lat="50.40573" lon="2.67793">
        <ele>161</ele>
        <time>2021-10-05T10:48:20+02:00</time>
      </trkpt>
      <trkpt lat="50.40515" lon="2.6778">
        <ele>157</ele>
        <time>2021-10-05T10:48:25+02:00</time>
      </trkpt>
      <trkpt lat="50.4048" lon="2.67931">
        <ele>161</ele>
        <time>2021-10-05T10:48:30+02:00</time>
      </trkpt>
      <trkpt lat="50.40487" lon="2.68175">
        <ele>165</ele>
        <time>2021-10-05T10:48:35+02:00</time>
      </trkpt>
      <trkpt lat="50.4046" lon="2.68365">
        <ele>161</ele>
        <time>2021-10-05T10:48:40+02:00</time>
      </trkpt>
      <trkpt lat="50.40306" lon="2.68326">
        <ele>154</ele>
        <time>2021-10-05T10:48:45+02:00</time>
      </trkpt>
      <trkpt lat="50.40188" lon="2.68346">
        <ele>148</ele>
        <time>2021-10-05T10:48:50+02:00</time>
      </trkpt>
      <trkpt lat="50.40044" lon="2.68436">
        <ele>139</ele>
        <time>2021-10-05T10:48:55+02:00</time>
      </trkpt>
      <trkpt lat="50.39981" lon="2.68455">
        <ele>135</ele>
        <time>2021-10-05T10:49:00+02:00</time>
      </trkpt>
      <trkpt lat="50.39864" lon="2.68538">
        <ele>124</ele>
        <time>2021-10-05T10:49:05+02:00</time>
      </trkpt>
      <trkpt lat="50.39878" lon="2.68786">
        <ele>126</ele>
        <time>2021-10-05T10:49:10+02:00</time>
      </trkpt>
      <trkpt lat="50.39821" lon="2.69065">
        <ele>118</ele>
        <time>2021-10-05T10:49:15+02:00</time>
      </trkpt>
      <trkpt lat="50.39778" lon="2.6921">
        <ele>117</ele>
        <time>2021-10-05T10:49:20+02:00</time>
      </trkpt>
      <trkpt lat="50.39749" lon="2.69476">
        <ele>110</ele>
        <time>2021-10-05T10:49:25+02:00</time>
      </trkpt>
      <trkpt lat="50.39706" lon="2.6957">
        <ele>108</ele>
        <time>2021-10-05T10:49:30+02:00</time>
      </trkpt>
      <trkpt lat="50.40378" lon="2.69711">
        <ele>182</ele>
        <time>2021-10-05T10:49:35+02:00</time>
      </trkpt>
      <trkpt lat="50.40323" lon="2.70023">
        <ele>189</ele>
        <time>2021-10-05T10:49:40+02:00</time>
      </trkpt>
      <trkpt lat="50.40284" lon="2.70347">
        <ele>178</ele>
        <time>2021-10-05T10:49:45+02:00</time>
      </trkpt>
      <trkpt lat="50.40278" lon="2.70553">
        <ele>180</ele>
        <time>2021-10-05T10:49:50+02:00</time>
      </trkpt>
      <trkpt lat="50.40198" lon="2.70858">
        <ele>179</ele>
        <time>2021-10-05T10:49:55+02:00</time>
      </trkpt>
      <trkpt lat="50.40083" lon="2.71144">
        <ele>175</ele>
        <time>2021-10-05T10:50:00+02:00</time>
      </trkpt>
      <trkpt lat="50.40022" lon="2.71369">
        <ele>175</ele>
        <time>2021-10-05T10:50:05+02:00</time>
      </trkpt>
      <trkpt lat="50.39979" lon="2.71391">
        <ele>171</ele>
        <time>2021-10-05T10:50:10+02:00</time>
      </trkpt>
      <trkpt lat="50.3994" lon="2.71574">
        <ele>169</ele>
        <time>2021-10-05T10:50:15+02:00</time>
      </trkpt>
      <trkpt lat="50.39962" lon="2.71751">
        <ele>167</ele>
        <time>2021-10-05T10:50:20+02:00</time>
      </trkpt>
      <trkpt lat="50.39899" lon="2.71789">
        <ele>155</ele>
        <time>2021-10-05T10:50:25+02:00</time>
      </trkpt>
      <trkpt lat="50.39596" lon="2.7169">
        <ele>127</ele>
        <time>2021-10-05T10:50:30+02:00</time>
      </trkpt>
      <trkpt lat="50.39452" lon="2.71687">
        <ele>110</ele>
        <time>2021-10-05T10:50:35+02:00</time>
      </trkpt>
      <trkpt lat="50.39385" lon="2.72124">
        <ele>91</ele>
        <time>2021-10-05T10:50:40+02:00</time>
      </trkpt>
      <trkpt lat="50.39377" lon="2.72326">
        <ele>92</ele>
        <time>2021-10-05T10:50:45+02:00</time>
      </trkpt>
      <trkpt lat="50.39323" lon="2.72686">
        <ele>86</ele>
        <time>2021-10-05T10:50:50+02:00</time>
      </trkpt>
      <trkpt lat="50.39348" lon="2.72843">
        <ele>87</ele>
        <time>2021-10-05T10:50:55+02:00</time>
      </trkpt>
      <trkpt lat="50.39403" lon="2.73116">
        <ele>94</ele>
        <time>2021-10-05T10:51:00+02:00</time>
      </trkpt>
      <trkpt lat="50.39635" lon="2.73463">
        <ele>98</ele>
        <time>2021-10-05T10:51:05+02:00</time>
      </trkpt>
      <trkpt lat="50.39463" lon="2.73794">
        <ele>92</ele>
        <time>2021-10-05T10:51:10+02:00</time>
      </trkpt>
      <trkpt lat="50.39338" lon="2.7391">
        <ele>88</ele>
        <time>2021-10-05T10:51:15+02:00</time>
      </trkpt>
      <trkpt lat="50.39135" lon="2.73993">
        <ele>76</ele>
        <time>2021-10-05T10:51:20+02:00</time>
      </trkpt>
      <trkpt lat="50.39147" lon="2.7417">
        <ele>74</ele>
        <time>2021-10-05T10:51:25+02:00</time>
      </trkpt>
      <trkpt lat="50.38818" lon="2.74292">
        <ele>84</ele>
        <time>2021-10-05T10:51:30+02:00</time>
      </trkpt>
      <trkpt lat="50.38592" lon="2.74424">
        <ele>96</ele>
        <time>2021-10-05T10:51:35+02:00</time>
      </trkpt>
      <trkpt lat="50.38467" lon="2.74266">
        <ele>107</ele>
        <time>2021-10-05T10:51:40+02:00</time>
      </trkpt>
      <trkpt lat="50.38279" lon="2.73916">
        <ele>112</ele>
        <time>2021-10-05T10:51:45+02:00</time>
      </trkpt>
      <trkpt lat="50.38168" lon="2.73772">
        <ele>116</ele>
        <time>2021-10-05T10:51:50+02:00</time>
      </trkpt>
      <trkpt lat="50.37972" lon="2.73241">
        <ele>118</ele>
        <time>2021-10-05T10:51:55+02:00</time>
      </trkpt>
      <trkpt lat="50.37892" lon="2.72943">
        <ele>126</ele>
        <time>2021-10-05T10:52:00+02:00</time>
      </trkpt>
      <trkpt lat="50.37773" lon="2.7266">
        <ele>132</ele>
        <time>2021-10-05T10:52:05+02:00</time>
      </trkpt>
      <trkpt lat="50.37718" lon="2.72454">
        <ele>135</ele>
        <time>2021-10-05T10:52:10+02:00</time>
      </trkpt>
      <trkpt lat="50.375" lon="2.7223">
        <ele>136</ele>
        <time>2021-10-05T10:52:15+02:00</time>
      </trkpt>
      <trkpt lat="50.37279" lon="2.71956">
        <ele>129</ele>
        <time>2021-10-05T10:52:20+02:00</time>
      </trkpt>
      <trkpt lat="50.37125" lon="2.71793">
        <ele>126</ele>
        <time>2021-10-05T10:52:25+02:00</time>
      </trkpt>
      <trkpt lat="50.37023" lon="2.71722">
        <ele>123</ele>
        <time>2021-10-05T10:52:30+02:00</time>
      </trkpt>
      <trkpt lat="50.36697" lon="2.71292">
        <ele>120</ele>
        <time>2021-10-05T10:52:35+02:00</time>
      </trkpt>
      <trkpt lat="50.36646" lon="2.71346">
        <ele>120</ele>
        <time>2021-10-05T10:52:40+02:00</time>
      </trkpt>
      <trkpt lat="50.36546" lon="2.715">
        <ele>132</ele>
        <time>2021-10-05T10:52:45+02:00</time>
      </trkpt>
      <trkpt lat="50.36449" lon="2.7152">
        <ele>133</ele>
        <time>2021-10-05T10:52:50+02:00</time>
      </trkpt>
      <trkpt lat="50.36289" lon="2.7161">
        <ele>129</ele>
        <time>2021-10-05T10:52:55+02:00</time>
      </trkpt>
      <trkpt lat="50.36068" lon="2.71619">
        <ele>110</ele>
        <time>2021-10-05T10:53:00+02:00</time>
      </trkpt>
      <trkpt lat="50.35691" lon="2.71825">
        <ele>104</ele>
        <time>2021-10-05T10:53:05+02:00</time>
      </trkpt>
      <trkpt lat="50.35627" lon="2.71699">
        <ele>104</ele>
        <time>2021-10-05T10:53:10+02:00</time>
      </trkpt>
      <trkpt lat="50.35547" lon="2.70822">
        <ele>98</ele>
        <time>2021-10-05T10:53:15+02:00</time>
      </trkpt>
      <trkpt lat="50.35627" lon="2.70681">
        <ele>101</ele>
        <time>2021-10-05T10:53:20+02:00</time>
      </trkpt>
      <trkpt lat="50.35406" lon="2.70302">
        <ele>101</ele>
        <time>2021-10-05T10:53:25+02:00</time>
      </trkpt>
      <trkpt lat="50.35254" lon="2.6975">
        <ele>112</ele>
        <time>2021-10-05T10:53:30+02:00</time>
      </trkpt>
      <trkpt lat="50.3516" lon="2.69451">
        <ele>135</ele>
        <time>2021-10-05T10:53:35+02:00</time>
      </trkpt>
      <trkpt lat="50.35029" lon="2.69258">
        <ele>135</ele>
        <time>2021-10-05T10:53:40+02:00</time>
      </trkpt>
      <trkpt lat="50.35062" lon="2.69004">
        <ele>118</ele>
        <time>2021-10-05T10:53:45+02:00</time>
      </trkpt>
      <trkpt lat="50.34994" lon="2.6894">
        <ele>112</ele>
        <time>2021-10-05T10:53:50+02:00</time>
      </trkpt>
      <trkpt lat="50.34914" lon="2.68728">
        <ele>95</ele>
        <time>2021-10-05T10:53:55+02:00</time>
      </trkpt>
      <trkpt lat="50.34937" lon="2.68686">
        <ele>91</ele>
        <time>2021-10-05T10:54:00+02:00</time>
      </trkpt>
      <trkpt lat="50.34898" lon="2.68654">
        <ele>87</ele>
        <time>2021-10-05T10:54:05+02:00</time>
      </trkpt>
      <trkpt lat="50.34623" lon="2.68603">
        <ele>79</ele>
        <time>2021-10-05T10:54:10+02:00</time>
      </trkpt>
      <trkpt lat="50.34543" lon="2.68596">
        <ele>77</ele>
        <time>2021-10-05T10:54:15+02:00</time>
      </trkpt>
      <trkpt lat="50.34529" lon="2.68673">
        <ele>78</ele>
        <time>2021-10-05T10:54:20+02:00</time>
      </trkpt>
      <trkpt lat="50.34469" lon="2.68632">
        <ele>77</ele>
        <time>2021-10-05T10:54:25+02:00</time>
      </trkpt>
      <trkpt lat="50.34465" lon="2.68683">
        <ele>77</ele>
        <time>2021-10-05T10:54:30+02:00</time>
      </trkpt>
      <trkpt lat="50.34283" lon="2.68738">
        <ele>83</ele>
        <time>2021-10-05T10:54:35+02:00</time>
      </trkpt>
      <trkpt lat="50.34174" lon="2.68705">
        <ele>78</ele>
        <time>2021-10-05T10:54:40+02:00</time>
      </trkpt>
      <trkpt lat="50.33994" lon="2.69117">
        <ele>79</ele>
        <time>2021-10-05T10:54:45+02:00</time>
      </trkpt>
      <trkpt lat="50.33875" lon="2.69162">
        <ele>74</ele>
        <time>2021-10-05T10:54:50+02:00</time>
      </trkpt>
      <trkpt lat="50.33903" lon="2.69287">
        <ele>80</ele>
        <time>2021-10-05T10:54:55+02:00</time>
      </trkpt>
      <trkpt lat="50.33862" lon="2.69422">
        <ele>94</ele>
        <time>2021-10-05T10:55:00+02:00</time>
      </trkpt>
      <trkpt lat="50.33895" lon="2.701">
        <ele>100</ele>
        <time>2021-10-05T10:55:05+02:00</time>
      </trkpt>
      <trkpt lat="50.33852" lon="2.70337">
        <ele>103</ele>
        <time>2021-10-05T10:55:10+02:00</time>
      </trkpt>
      <trkpt lat="50.3384" lon="2.70476">
        <ele>105</ele>
        <time>2021-10-05T10:55:15+02:00</time>
      </trkpt>
      <trkpt lat="50.33536" lon="2.70151">
        <ele>115</ele>
        <time>2021-10-05T10:55:20+02:00</time>
      </trkpt>
      <trkpt lat="50.33397" lon="2.70235">
        <ele>108</ele>
        <time>2021-10-05T10:55:25+02:00</time>
      </trkpt>
      <trkpt lat="50.33266" lon="2.70373">
        <ele>91</ele>
        <time>2021-10-05T10:55:30+02:00</time>
      </trkpt>
      <trkpt lat="50.33083" lon="2.70459">
        <ele>91</ele>
        <time>2021-10-05T10:55:35+02:00</time>
      </trkpt>
      <trkpt lat="50.33001" lon="2.70562">
        <ele>93</ele>
        <time>2021-10-05T10:55:40+02:00</time>
      </trkpt>
      <trkpt lat="50.32962" lon="2.70537">
        <ele>94</ele>
        <time>2021-10-05T10:55:45+02:00</time>
      </trkpt>
      <trkpt lat="50.32829" lon="2.70659">
        <ele>92</ele>
        <time>2021-10-05T10:55:50+02:00</time>
      </trkpt>
    </trkseg>
  </trk>
  <trk>
    <name><![CDATA[4-Maroeuil Bapaume 34.7 km]]></name>
    <extensions>
      <line xmlns="http://www.topografix.com/GPX/gpx_style/0/2">
        <color>00FFFF</color>
        <width>4</width>
      </line>
    </extensions>
    <trkseg>
      <trkpt lat="50.32891" lon="2.7064">
        <ele>94</ele>
        <time>2021-10-05T16:29:27+02:00</time>
      </trkpt>
      <trkpt lat="50.32803" lon="2.70651">
        <ele>90</ele>
        <time>2021-10-05T16:29:32+02:00</time>
      </trkpt>
      <trkpt lat="50.32541" lon="2.70536">
        <ele>78</ele>
        <time>2021-10-05T16:29:37+02:00</time>
      </trkpt>
      <trkpt lat="50.32478" lon="2.70465">
        <ele>73</ele>
        <time>2021-10-05T16:29:42+02:00</time>
      </trkpt>
      <trkpt lat="50.32415" lon="2.70651">
        <ele>73</ele>
        <time>2021-10-05T16:29:47+02:00</time>
      </trkpt>
      <trkpt lat="50.32249" lon="2.70506">
        <ele>66</ele>
        <time>2021-10-05T16:29:52+02:00</time>
      </trkpt>
      <trkpt lat="50.32198" lon="2.70665">
        <ele>64</ele>
        <time>2021-10-05T16:29:57+02:00</time>
      </trkpt>
      <trkpt lat="50.3207" lon="2.707">
        <ele>66</ele>
        <time>2021-10-05T16:30:02+02:00</time>
      </trkpt>
      <trkpt lat="50.3197" lon="2.70618">
        <ele>66</ele>
        <time>2021-10-05T16:30:07+02:00</time>
      </trkpt>
      <trkpt lat="50.31841" lon="2.70645">
        <ele>67</ele>
        <time>2021-10-05T16:30:12+02:00</time>
      </trkpt>
      <trkpt lat="50.31786" lon="2.70766">
        <ele>65</ele>
        <time>2021-10-05T16:30:17+02:00</time>
      </trkpt>
      <trkpt lat="50.31718" lon="2.70698">
        <ele>66</ele>
        <time>2021-10-05T16:30:22+02:00</time>
      </trkpt>
      <trkpt lat="50.31617" lon="2.70879">
        <ele>65</ele>
        <time>2021-10-05T16:30:27+02:00</time>
      </trkpt>
      <trkpt lat="50.31557" lon="2.70939">
        <ele>65</ele>
        <time>2021-10-05T16:30:32+02:00</time>
      </trkpt>
      <trkpt lat="50.31429" lon="2.71227">
        <ele>65</ele>
        <time>2021-10-05T16:30:37+02:00</time>
      </trkpt>
      <trkpt lat="50.31352" lon="2.71531">
        <ele>62</ele>
        <time>2021-10-05T16:30:42+02:00</time>
      </trkpt>
      <trkpt lat="50.31254" lon="2.71679">
        <ele>62</ele>
        <time>2021-10-05T16:30:47+02:00</time>
      </trkpt>
      <trkpt lat="50.31215" lon="2.71566">
        <ele>61</ele>
        <time>2021-10-05T16:30:52+02:00</time>
      </trkpt>
      <trkpt lat="50.31059" lon="2.715">
        <ele>61</ele>
        <time>2021-10-05T16:30:57+02:00</time>
      </trkpt>
      <trkpt lat="50.30959" lon="2.71576">
        <ele>63</ele>
        <time>2021-10-05T16:31:02+02:00</time>
      </trkpt>
      <trkpt lat="50.30857" lon="2.7181">
        <ele>62</ele>
        <time>2021-10-05T16:31:07+02:00</time>
      </trkpt>
      <trkpt lat="50.30801" lon="2.72004">
        <ele>63</ele>
        <time>2021-10-05T16:31:12+02:00</time>
      </trkpt>
      <trkpt lat="50.30705" lon="2.7292">
        <ele>81</ele>
        <time>2021-10-05T16:31:17+02:00</time>
      </trkpt>
      <trkpt lat="50.30588" lon="2.73454">
        <ele>84</ele>
        <time>2021-10-05T16:31:22+02:00</time>
      </trkpt>
      <trkpt lat="50.30564" lon="2.74046">
        <ele>76</ele>
        <time>2021-10-05T16:31:27+02:00</time>
      </trkpt>
      <trkpt lat="50.3052" lon="2.74189">
        <ele>68</ele>
        <time>2021-10-05T16:31:32+02:00</time>
      </trkpt>
      <trkpt lat="50.30607" lon="2.7438">
        <ele>62</ele>
        <time>2021-10-05T16:31:37+02:00</time>
      </trkpt>
      <trkpt lat="50.3069" lon="2.74453">
        <ele>60</ele>
        <time>2021-10-05T16:31:42+02:00</time>
      </trkpt>
      <trkpt lat="50.30671" lon="2.74493">
        <ele>58</ele>
        <time>2021-10-05T16:31:47+02:00</time>
      </trkpt>
      <trkpt lat="50.30453" lon="2.74801">
        <ele>62</ele>
        <time>2021-10-05T16:31:52+02:00</time>
      </trkpt>
      <trkpt lat="50.30182" lon="2.75152">
        <ele>58</ele>
        <time>2021-10-05T16:31:57+02:00</time>
      </trkpt>
      <trkpt lat="50.30012" lon="2.75275">
        <ele>58</ele>
        <time>2021-10-05T16:32:02+02:00</time>
      </trkpt>
      <trkpt lat="50.30142" lon="2.75569">
        <ele>59</ele>
        <time>2021-10-05T16:32:07+02:00</time>
      </trkpt>
      <trkpt lat="50.30108" lon="2.757">
        <ele>60</ele>
        <time>2021-10-05T16:32:12+02:00</time>
      </trkpt>
      <trkpt lat="50.30157" lon="2.75873">
        <ele>57</ele>
        <time>2021-10-05T16:32:17+02:00</time>
      </trkpt>
      <trkpt lat="50.30123" lon="2.75973">
        <ele>59</ele>
        <time>2021-10-05T16:32:22+02:00</time>
      </trkpt>
      <trkpt lat="50.30142" lon="2.76124">
        <ele>59</ele>
        <time>2021-10-05T16:32:27+02:00</time>
      </trkpt>
      <trkpt lat="50.30016" lon="2.76167">
        <ele>58</ele>
        <time>2021-10-05T16:32:32+02:00</time>
      </trkpt>
      <trkpt lat="50.2999" lon="2.76231">
        <ele>60</ele>
        <time>2021-10-05T16:32:37+02:00</time>
      </trkpt>
      <trkpt lat="50.29777" lon="2.76268">
        <ele>75</ele>
        <time>2021-10-05T16:32:42+02:00</time>
      </trkpt>
      <trkpt lat="50.29668" lon="2.76274">
        <ele>76</ele>
        <time>2021-10-05T16:32:47+02:00</time>
      </trkpt>
      <trkpt lat="50.29346" lon="2.76689">
        <ele>70</ele>
        <time>2021-10-05T16:32:52+02:00</time>
      </trkpt>
      <trkpt lat="50.29013" lon="2.77313">
        <ele>70</ele>
        <time>2021-10-05T16:32:57+02:00</time>
      </trkpt>
      <trkpt lat="50.28893" lon="2.77604">
        <ele>72</ele>
        <time>2021-10-05T16:33:02+02:00</time>
      </trkpt>
      <trkpt lat="50.28744" lon="2.78028">
        <ele>75</ele>
        <time>2021-10-05T16:33:07+02:00</time>
      </trkpt>
      <trkpt lat="50.28688" lon="2.78032">
        <ele>73</ele>
        <time>2021-10-05T16:33:12+02:00</time>
      </trkpt>
      <trkpt lat="50.28517" lon="2.77811">
        <ele>71</ele>
        <time>2021-10-05T16:33:17+02:00</time>
      </trkpt>
      <trkpt lat="50.2837" lon="2.77941">
        <ele>73</ele>
        <time>2021-10-05T16:33:22+02:00</time>
      </trkpt>
      <trkpt lat="50.28118" lon="2.78072">
        <ele>81</ele>
        <time>2021-10-05T16:33:27+02:00</time>
      </trkpt>
      <trkpt lat="50.27956" lon="2.78169">
        <ele>84</ele>
        <time>2021-10-05T16:33:32+02:00</time>
      </trkpt>
      <trkpt lat="50.27841" lon="2.78175">
        <ele>86</ele>
        <time>2021-10-05T16:33:37+02:00</time>
      </trkpt>
      <trkpt lat="50.27294" lon="2.78396">
        <ele>82</ele>
        <time>2021-10-05T16:33:42+02:00</time>
      </trkpt>
      <trkpt lat="50.26662" lon="2.78506">
        <ele>96</ele>
        <time>2021-10-05T16:33:47+02:00</time>
      </trkpt>
      <trkpt lat="50.26508" lon="2.78433">
        <ele>90</ele>
        <time>2021-10-05T16:33:52+02:00</time>
      </trkpt>
      <trkpt lat="50.26378" lon="2.78413">
        <ele>88</ele>
        <time>2021-10-05T16:33:57+02:00</time>
      </trkpt>
      <trkpt lat="50.25882" lon="2.78717">
        <ele>96</ele>
        <time>2021-10-05T16:34:02+02:00</time>
      </trkpt>
      <trkpt lat="50.25833" lon="2.78653">
        <ele>97</ele>
        <time>2021-10-05T16:34:07+02:00</time>
      </trkpt>
      <trkpt lat="50.2547" lon="2.7865">
        <ele>88</ele>
        <time>2021-10-05T16:34:12+02:00</time>
      </trkpt>
      <trkpt lat="50.25192" lon="2.7863">
        <ele>80</ele>
        <time>2021-10-05T16:34:17+02:00</time>
      </trkpt>
      <trkpt lat="50.24895" lon="2.78616">
        <ele>75</ele>
        <time>2021-10-05T16:34:22+02:00</time>
      </trkpt>
      <trkpt lat="50.24617" lon="2.78707">
        <ele>77</ele>
        <time>2021-10-05T16:34:27+02:00</time>
      </trkpt>
      <trkpt lat="50.24344" lon="2.78717">
        <ele>82</ele>
        <time>2021-10-05T16:34:32+02:00</time>
      </trkpt>
      <trkpt lat="50.24092" lon="2.78777">
        <ele>76</ele>
        <time>2021-10-05T16:34:37+02:00</time>
      </trkpt>
      <trkpt lat="50.23741" lon="2.78723">
        <ele>73</ele>
        <time>2021-10-05T16:34:42+02:00</time>
      </trkpt>
      <trkpt lat="50.236" lon="2.7879">
        <ele>76</ele>
        <time>2021-10-05T16:34:47+02:00</time>
      </trkpt>
      <trkpt lat="50.23504" lon="2.7884">
        <ele>78</ele>
        <time>2021-10-05T16:34:52+02:00</time>
      </trkpt>
      <trkpt lat="50.23156" lon="2.789">
        <ele>84</ele>
        <time>2021-10-05T16:34:57+02:00</time>
      </trkpt>
      <trkpt lat="50.2272" lon="2.78917">
        <ele>95</ele>
        <time>2021-10-05T16:35:02+02:00</time>
      </trkpt>
      <trkpt lat="50.22412" lon="2.78954">
        <ele>87</ele>
        <time>2021-10-05T16:35:07+02:00</time>
      </trkpt>
      <trkpt lat="50.22311" lon="2.79004">
        <ele>83</ele>
        <time>2021-10-05T16:35:12+02:00</time>
      </trkpt>
      <trkpt lat="50.2188" lon="2.79044">
        <ele>81</ele>
        <time>2021-10-05T16:35:17+02:00</time>
      </trkpt>
      <trkpt lat="50.21734" lon="2.78984">
        <ele>87</ele>
        <time>2021-10-05T16:35:22+02:00</time>
      </trkpt>
      <trkpt lat="50.21591" lon="2.79094">
        <ele>88</ele>
        <time>2021-10-05T16:35:27+02:00</time>
      </trkpt>
      <trkpt lat="50.21401" lon="2.79271">
        <ele>82</ele>
        <time>2021-10-05T16:35:32+02:00</time>
      </trkpt>
      <trkpt lat="50.21336" lon="2.79265">
        <ele>78</ele>
        <time>2021-10-05T16:35:37+02:00</time>
      </trkpt>
      <trkpt lat="50.21215" lon="2.79351">
        <ele>75</ele>
        <time>2021-10-05T16:35:42+02:00</time>
      </trkpt>
      <trkpt lat="50.21165" lon="2.79091">
        <ele>76</ele>
        <time>2021-10-05T16:35:47+02:00</time>
      </trkpt>
      <trkpt lat="50.2099" lon="2.79652">
        <ele>77</ele>
        <time>2021-10-05T16:35:52+02:00</time>
      </trkpt>
      <trkpt lat="50.20896" lon="2.7995">
        <ele>83</ele>
        <time>2021-10-05T16:35:57+02:00</time>
      </trkpt>
      <trkpt lat="50.20505" lon="2.80478">
        <ele>83</ele>
        <time>2021-10-05T16:36:02+02:00</time>
      </trkpt>
      <trkpt lat="50.20261" lon="2.80822">
        <ele>75</ele>
        <time>2021-10-05T16:36:07+02:00</time>
      </trkpt>
      <trkpt lat="50.2019" lon="2.81069">
        <ele>76</ele>
        <time>2021-10-05T16:36:12+02:00</time>
      </trkpt>
      <trkpt lat="50.20128" lon="2.81092">
        <ele>77</ele>
        <time>2021-10-05T16:36:17+02:00</time>
      </trkpt>
      <trkpt lat="50.19564" lon="2.8023">
        <ele>79</ele>
        <time>2021-10-05T16:36:22+02:00</time>
      </trkpt>
      <trkpt lat="50.19457" lon="2.80304">
        <ele>83</ele>
        <time>2021-10-05T16:36:27+02:00</time>
      </trkpt>
      <trkpt lat="50.18787" lon="2.80337">
        <ele>101</ele>
        <time>2021-10-05T16:36:32+02:00</time>
      </trkpt>
      <trkpt lat="50.18642" lon="2.80394">
        <ele>102</ele>
        <time>2021-10-05T16:36:37+02:00</time>
      </trkpt>
      <trkpt lat="50.18639" lon="2.80351">
        <ele>103</ele>
        <time>2021-10-05T16:36:42+02:00</time>
      </trkpt>
      <trkpt lat="50.18194" lon="2.80424">
        <ele>105</ele>
        <time>2021-10-05T16:36:47+02:00</time>
      </trkpt>
      <trkpt lat="50.18025" lon="2.80561">
        <ele>106</ele>
        <time>2021-10-05T16:36:52+02:00</time>
      </trkpt>
      <trkpt lat="50.17921" lon="2.80163">
        <ele>107</ele>
        <time>2021-10-05T16:36:57+02:00</time>
      </trkpt>
      <trkpt lat="50.17737" lon="2.8009">
        <ele>108</ele>
        <time>2021-10-05T16:37:02+02:00</time>
      </trkpt>
      <trkpt lat="50.17493" lon="2.7999">
        <ele>103</ele>
        <time>2021-10-05T16:37:07+02:00</time>
      </trkpt>
      <trkpt lat="50.17195" lon="2.7994">
        <ele>102</ele>
        <time>2021-10-05T16:37:12+02:00</time>
      </trkpt>
      <trkpt lat="50.16831" lon="2.79759">
        <ele>106</ele>
        <time>2021-10-05T16:37:17+02:00</time>
      </trkpt>
      <trkpt lat="50.16346" lon="2.79529">
        <ele>106</ele>
        <time>2021-10-05T16:37:22+02:00</time>
      </trkpt>
      <trkpt lat="50.16142" lon="2.79432">
        <ele>113</ele>
        <time>2021-10-05T16:37:27+02:00</time>
      </trkpt>
      <trkpt lat="50.16219" lon="2.79098">
        <ele>109</ele>
        <time>2021-10-05T16:37:32+02:00</time>
      </trkpt>
      <trkpt lat="50.16217" lon="2.78854">
        <ele>109</ele>
        <time>2021-10-05T16:37:37+02:00</time>
      </trkpt>
      <trkpt lat="50.1587" lon="2.79218">
        <ele>119</ele>
        <time>2021-10-05T16:37:42+02:00</time>
      </trkpt>
      <trkpt lat="50.155" lon="2.79472">
        <ele>108</ele>
        <time>2021-10-05T16:37:47+02:00</time>
      </trkpt>
      <trkpt lat="50.15376" lon="2.79519">
        <ele>107</ele>
        <time>2021-10-05T16:37:52+02:00</time>
      </trkpt>
      <trkpt lat="50.15256" lon="2.79736">
        <ele>114</ele>
        <time>2021-10-05T16:37:57+02:00</time>
      </trkpt>
      <trkpt lat="50.15224" lon="2.79702">
        <ele>115</ele>
        <time>2021-10-05T16:38:02+02:00</time>
      </trkpt>
      <trkpt lat="50.15001" lon="2.7992">
        <ele>112</ele>
        <time>2021-10-05T16:38:07+02:00</time>
      </trkpt>
      <trkpt lat="50.14783" lon="2.80033">
        <ele>105</ele>
        <time>2021-10-05T16:38:12+02:00</time>
      </trkpt>
      <trkpt lat="50.14601" lon="2.80277">
        <ele>108</ele>
        <time>2021-10-05T16:38:17+02:00</time>
      </trkpt>
      <trkpt lat="50.14719" lon="2.80484">
        <ele>105</ele>
        <time>2021-10-05T16:38:22+02:00</time>
      </trkpt>
      <trkpt lat="50.14444" lon="2.80895">
        <ele>104</ele>
        <time>2021-10-05T16:38:27+02:00</time>
      </trkpt>
      <trkpt lat="50.14265" lon="2.81209">
        <ele>101</ele>
        <time>2021-10-05T16:38:32+02:00</time>
      </trkpt>
      <trkpt lat="50.13873" lon="2.81988">
        <ele>100</ele>
        <time>2021-10-05T16:38:37+02:00</time>
      </trkpt>
      <trkpt lat="50.13714" lon="2.82182">
        <ele>110</ele>
        <time>2021-10-05T16:38:42+02:00</time>
      </trkpt>
      <trkpt lat="50.13594" lon="2.82415">
        <ele>118</ele>
        <time>2021-10-05T16:38:47+02:00</time>
      </trkpt>
      <trkpt lat="50.1344" lon="2.82542">
        <ele>119</ele>
        <time>2021-10-05T16:38:52+02:00</time>
      </trkpt>
      <trkpt lat="50.13352" lon="2.82643">
        <ele>119</ele>
        <time>2021-10-05T16:38:57+02:00</time>
      </trkpt>
      <trkpt lat="50.13277" lon="2.82686">
        <ele>120</ele>
        <time>2021-10-05T16:39:02+02:00</time>
      </trkpt>
      <trkpt lat="50.13342" lon="2.83281">
        <ele>121</ele>
        <time>2021-10-05T16:39:07+02:00</time>
      </trkpt>
      <trkpt lat="50.13288" lon="2.83324">
        <ele>120</ele>
        <time>2021-10-05T16:39:12+02:00</time>
      </trkpt>
      <trkpt lat="50.13232" lon="2.83331">
        <ele>119</ele>
        <time>2021-10-05T16:39:17+02:00</time>
      </trkpt>
      <trkpt lat="50.13136" lon="2.83318">
        <ele>114</ele>
        <time>2021-10-05T16:39:22+02:00</time>
      </trkpt>
      <trkpt lat="50.1302" lon="2.83341">
        <ele>109</ele>
        <time>2021-10-05T16:39:27+02:00</time>
      </trkpt>
      <trkpt lat="50.12898" lon="2.83201">
        <ele>103</ele>
        <time>2021-10-05T16:39:32+02:00</time>
      </trkpt>
      <trkpt lat="50.12763" lon="2.83164">
        <ele>103</ele>
        <time>2021-10-05T16:39:37+02:00</time>
      </trkpt>
      <trkpt lat="50.1263" lon="2.83257">
        <ele>106</ele>
        <time>2021-10-05T16:39:42+02:00</time>
      </trkpt>
      <trkpt lat="50.12258" lon="2.83705">
        <ele>103</ele>
        <time>2021-10-05T16:39:47+02:00</time>
      </trkpt>
      <trkpt lat="50.1214" lon="2.83759">
        <ele>106</ele>
        <time>2021-10-05T16:39:52+02:00</time>
      </trkpt>
      <trkpt lat="50.12054" lon="2.83889">
        <ele>109</ele>
        <time>2021-10-05T16:39:57+02:00</time>
      </trkpt>
      <trkpt lat="50.11677" lon="2.83922">
        <ele>109</ele>
        <time>2021-10-05T16:40:02+02:00</time>
      </trkpt>
      <trkpt lat="50.11354" lon="2.83769">
        <ele>110</ele>
        <time>2021-10-05T16:40:07+02:00</time>
      </trkpt>
      <trkpt lat="50.11144" lon="2.83739">
        <ele>112</ele>
        <time>2021-10-05T16:40:12+02:00</time>
      </trkpt>
      <trkpt lat="50.10959" lon="2.83789">
        <ele>114</ele>
        <time>2021-10-05T16:40:17+02:00</time>
      </trkpt>
      <trkpt lat="50.10872" lon="2.83789">
        <ele>114</ele>
        <time>2021-10-05T16:40:22+02:00</time>
      </trkpt>
      <trkpt lat="50.10788" lon="2.83852">
        <ele>115</ele>
        <time>2021-10-05T16:40:27+02:00</time>
      </trkpt>
      <trkpt lat="50.10764" lon="2.83986">
        <ele>115</ele>
        <time>2021-10-05T16:40:32+02:00</time>
      </trkpt>
      <trkpt lat="50.10578" lon="2.83795">
        <ele>112</ele>
        <time>2021-10-05T16:40:37+02:00</time>
      </trkpt>
      <trkpt lat="50.10451" lon="2.84123">
        <ele>116</ele>
        <time>2021-10-05T16:40:42+02:00</time>
      </trkpt>
      <trkpt lat="50.10409" lon="2.84026">
        <ele>117</ele>
        <time>2021-10-05T16:40:47+02:00</time>
      </trkpt>
      <trkpt lat="50.10357" lon="2.84166">
        <ele>118</ele>
        <time>2021-10-05T16:40:52+02:00</time>
      </trkpt>
      <trkpt lat="50.10349" lon="2.8431">
        <ele>117</ele>
        <time>2021-10-05T16:40:57+02:00</time>
      </trkpt>
      <trkpt lat="50.10233" lon="2.84454">
        <ele>123</ele>
        <time>2021-10-05T16:41:02+02:00</time>
      </trkpt>
      <trkpt lat="50.10275" lon="2.84535">
        <ele>122</ele>
        <time>2021-10-05T16:41:07+02:00</time>
      </trkpt>
      <trkpt lat="50.10279" lon="2.84637">
        <ele>122</ele>
        <time>2021-10-05T16:41:12+02:00</time>
      </trkpt>
      <trkpt lat="50.10423" lon="2.84634">
        <ele>121</ele>
        <time>2021-10-05T16:41:17+02:00</time>
      </trkpt>
      <trkpt lat="50.10461" lon="2.84677">
        <ele>121</ele>
        <time>2021-10-05T16:41:22+02:00</time>
      </trkpt>
      <trkpt lat="50.10492" lon="2.84754">
        <ele>121</ele>
        <time>2021-10-05T16:41:27+02:00</time>
      </trkpt>
    </trkseg>
  </trk>
  <trk>
    <name><![CDATA[Randonnée du 05/10/2021 à 16:53]]></name>
    <extensions>
      <line xmlns="http://www.topografix.com/GPX/gpx_style/0/2">
        <color>FFFF00</color>
        <width>4</width>
      </line>
    </extensions>
    <trkseg>
      <trkpt lat="50.10497" lon="2.84761">
        <ele>121</ele>
        <time>2021-10-05T17:14:34+02:00</time>
      </trkpt>
      <trkpt lat="50.10538" lon="2.84868">
        <ele>123</ele>
        <time>2021-10-05T17:14:39+02:00</time>
      </trkpt>
      <trkpt lat="50.10382" lon="2.84951">
        <ele>123</ele>
        <time>2021-10-05T17:14:44+02:00</time>
      </trkpt>
      <trkpt lat="50.1031" lon="2.84951">
        <ele>123</ele>
        <time>2021-10-05T17:14:49+02:00</time>
      </trkpt>
      <trkpt lat="50.10133" lon="2.85144">
        <ele>123</ele>
        <time>2021-10-05T17:14:54+02:00</time>
      </trkpt>
      <trkpt lat="50.09883" lon="2.85581">
        <ele>123</ele>
        <time>2021-10-05T17:14:59+02:00</time>
      </trkpt>
      <trkpt lat="50.09793" lon="2.85714">
        <ele>125</ele>
        <time>2021-10-05T17:15:04+02:00</time>
      </trkpt>
      <trkpt lat="50.09818" lon="2.86597">
        <ele>129</ele>
        <time>2021-10-05T17:15:09+02:00</time>
      </trkpt>
      <trkpt lat="50.09719" lon="2.87371">
        <ele>123</ele>
        <time>2021-10-05T17:15:14+02:00</time>
      </trkpt>
      <trkpt lat="50.09692" lon="2.87226">
        <ele>124</ele>
        <time>2021-10-05T17:15:19+02:00</time>
      </trkpt>
      <trkpt lat="50.09612" lon="2.87226">
        <ele>123</ele>
        <time>2021-10-05T17:15:24+02:00</time>
      </trkpt>
      <trkpt lat="50.09472" lon="2.87413">
        <ele>119</ele>
        <time>2021-10-05T17:15:29+02:00</time>
      </trkpt>
      <trkpt lat="50.09356" lon="2.87487">
        <ele>117</ele>
        <time>2021-10-05T17:15:34+02:00</time>
      </trkpt>
      <trkpt lat="50.09179" lon="2.87769">
        <ele>124</ele>
        <time>2021-10-05T17:15:39+02:00</time>
      </trkpt>
      <trkpt lat="50.08868" lon="2.88164">
        <ele>131</ele>
        <time>2021-10-05T17:15:44+02:00</time>
      </trkpt>
      <trkpt lat="50.08827" lon="2.88325">
        <ele>128</ele>
        <time>2021-10-05T17:15:49+02:00</time>
      </trkpt>
      <trkpt lat="50.08724" lon="2.88421">
        <ele>126</ele>
        <time>2021-10-05T17:15:54+02:00</time>
      </trkpt>
      <trkpt lat="50.08584" lon="2.88633">
        <ele>128</ele>
        <time>2021-10-05T17:15:59+02:00</time>
      </trkpt>
      <trkpt lat="50.08485" lon="2.89153">
        <ele>125</ele>
        <time>2021-10-05T17:16:04+02:00</time>
      </trkpt>
      <trkpt lat="50.08458" lon="2.89417">
        <ele>126</ele>
        <time>2021-10-05T17:16:09+02:00</time>
      </trkpt>
      <trkpt lat="50.08272" lon="2.89632">
        <ele>124</ele>
        <time>2021-10-05T17:16:14+02:00</time>
      </trkpt>
      <trkpt lat="50.08081" lon="2.89966">
        <ele>125</ele>
        <time>2021-10-05T17:16:19+02:00</time>
      </trkpt>
      <trkpt lat="50.08023" lon="2.90191">
        <ele>123</ele>
        <time>2021-10-05T17:16:24+02:00</time>
      </trkpt>
      <trkpt lat="50.08042" lon="2.90345">
        <ele>123</ele>
        <time>2021-10-05T17:16:29+02:00</time>
      </trkpt>
      <trkpt lat="50.08209" lon="2.90567">
        <ele>124</ele>
        <time>2021-10-05T17:16:34+02:00</time>
      </trkpt>
      <trkpt lat="50.08264" lon="2.90705">
        <ele>126</ele>
        <time>2021-10-05T17:16:39+02:00</time>
      </trkpt>
      <trkpt lat="50.08441" lon="2.90798">
        <ele>120</ele>
        <time>2021-10-05T17:16:44+02:00</time>
      </trkpt>
      <trkpt lat="50.08143" lon="2.91167">
        <ele>121</ele>
        <time>2021-10-05T17:16:49+02:00</time>
      </trkpt>
      <trkpt lat="50.08042" lon="2.9135">
        <ele>116</ele>
        <time>2021-10-05T17:16:54+02:00</time>
      </trkpt>
      <trkpt lat="50.07949" lon="2.91569">
        <ele>123</ele>
        <time>2021-10-05T17:16:59+02:00</time>
      </trkpt>
      <trkpt lat="50.07819" lon="2.91806">
        <ele>122</ele>
        <time>2021-10-05T17:17:04+02:00</time>
      </trkpt>
      <trkpt lat="50.07726" lon="2.92102">
        <ele>121</ele>
        <time>2021-10-05T17:17:09+02:00</time>
      </trkpt>
      <trkpt lat="50.0773" lon="2.92262">
        <ele>123</ele>
        <time>2021-10-05T17:17:14+02:00</time>
      </trkpt>
      <trkpt lat="50.07563" lon="2.92381">
        <ele>125</ele>
        <time>2021-10-05T17:17:19+02:00</time>
      </trkpt>
      <trkpt lat="50.07514" lon="2.92583">
        <ele>126</ele>
        <time>2021-10-05T17:17:24+02:00</time>
      </trkpt>
      <trkpt lat="50.07337" lon="2.92734">
        <ele>122</ele>
        <time>2021-10-05T17:17:29+02:00</time>
      </trkpt>
      <trkpt lat="50.07159" lon="2.92821">
        <ele>125</ele>
        <time>2021-10-05T17:17:34+02:00</time>
      </trkpt>
      <trkpt lat="50.07096" lon="2.9294">
        <ele>128</ele>
        <time>2021-10-05T17:17:39+02:00</time>
      </trkpt>
      <trkpt lat="50.06976" lon="2.92934">
        <ele>128</ele>
        <time>2021-10-05T17:17:44+02:00</time>
      </trkpt>
      <trkpt lat="50.06252" lon="2.92718">
        <ele>129</ele>
        <time>2021-10-05T17:17:49+02:00</time>
      </trkpt>
      <trkpt lat="50.06127" lon="2.92558">
        <ele>132</ele>
        <time>2021-10-05T17:17:54+02:00</time>
      </trkpt>
      <trkpt lat="50.06021" lon="2.92776">
        <ele>133</ele>
        <time>2021-10-05T17:17:59+02:00</time>
      </trkpt>
      <trkpt lat="50.05846" lon="2.93101">
        <ele>131</ele>
        <time>2021-10-05T17:18:04+02:00</time>
      </trkpt>
      <trkpt lat="50.05628" lon="2.92779">
        <ele>130</ele>
        <time>2021-10-05T17:18:09+02:00</time>
      </trkpt>
      <trkpt lat="50.05384" lon="2.92824">
        <ele>128</ele>
        <time>2021-10-05T17:18:14+02:00</time>
      </trkpt>
      <trkpt lat="50.0524" lon="2.92795">
        <ele>129</ele>
        <time>2021-10-05T17:18:19+02:00</time>
      </trkpt>
      <trkpt lat="50.04854" lon="2.92522">
        <ele>130</ele>
        <time>2021-10-05T17:18:24+02:00</time>
      </trkpt>
      <trkpt lat="50.04582" lon="2.92461">
        <ele>129</ele>
        <time>2021-10-05T17:18:29+02:00</time>
      </trkpt>
      <trkpt lat="50.04353" lon="2.92564">
        <ele>132</ele>
        <time>2021-10-05T17:18:34+02:00</time>
      </trkpt>
      <trkpt lat="50.04221" lon="2.92494">
        <ele>130</ele>
        <time>2021-10-05T17:18:39+02:00</time>
      </trkpt>
      <trkpt lat="50.0333" lon="2.92359">
        <ele>143</ele>
        <time>2021-10-05T17:18:44+02:00</time>
      </trkpt>
      <trkpt lat="50.03027" lon="2.92224">
        <ele>148</ele>
        <time>2021-10-05T17:18:49+02:00</time>
      </trkpt>
      <trkpt lat="50.02864" lon="2.92198">
        <ele>153</ele>
        <time>2021-10-05T17:18:54+02:00</time>
      </trkpt>
      <trkpt lat="50.02643" lon="2.9216">
        <ele>153</ele>
        <time>2021-10-05T17:18:59+02:00</time>
      </trkpt>
      <trkpt lat="50.02268" lon="2.91887">
        <ele>150</ele>
        <time>2021-10-05T17:19:04+02:00</time>
      </trkpt>
      <trkpt lat="50.01896" lon="2.91614">
        <ele>151</ele>
        <time>2021-10-05T17:19:09+02:00</time>
      </trkpt>
      <trkpt lat="50.01419" lon="2.91218">
        <ele>144</ele>
        <time>2021-10-05T17:19:14+02:00</time>
      </trkpt>
      <trkpt lat="50.01232" lon="2.91228">
        <ele>147</ele>
        <time>2021-10-05T17:19:19+02:00</time>
      </trkpt>
      <trkpt lat="50.01155" lon="2.91424">
        <ele>147</ele>
        <time>2021-10-05T17:19:24+02:00</time>
      </trkpt>
      <trkpt lat="50.01002" lon="2.91434">
        <ele>149</ele>
        <time>2021-10-05T17:19:29+02:00</time>
      </trkpt>
      <trkpt lat="50.00738" lon="2.91768">
        <ele>138</ele>
        <time>2021-10-05T17:19:34+02:00</time>
      </trkpt>
      <trkpt lat="50.00522" lon="2.92015">
        <ele>130</ele>
        <time>2021-10-05T17:19:39+02:00</time>
      </trkpt>
      <trkpt lat="50.00354" lon="2.9214">
        <ele>126</ele>
        <time>2021-10-05T17:19:44+02:00</time>
      </trkpt>
      <trkpt lat="50.00164" lon="2.92153">
        <ele>130</ele>
        <time>2021-10-05T17:19:49+02:00</time>
      </trkpt>
      <trkpt lat="49.99861" lon="2.92195">
        <ele>135</ele>
        <time>2021-10-05T17:19:54+02:00</time>
      </trkpt>
      <trkpt lat="49.99768" lon="2.92185">
        <ele>133</ele>
        <time>2021-10-05T17:19:59+02:00</time>
      </trkpt>
      <trkpt lat="49.99425" lon="2.92031">
        <ele>121</ele>
        <time>2021-10-05T17:20:04+02:00</time>
      </trkpt>
      <trkpt lat="49.99217" lon="2.9198">
        <ele>125</ele>
        <time>2021-10-05T17:20:09+02:00</time>
      </trkpt>
      <trkpt lat="49.99056" lon="2.91944">
        <ele>121</ele>
        <time>2021-10-05T17:20:14+02:00</time>
      </trkpt>
      <trkpt lat="49.98876" lon="2.9196">
        <ele>113</ele>
        <time>2021-10-05T17:20:19+02:00</time>
      </trkpt>
      <trkpt lat="49.98657" lon="2.9206">
        <ele>105</ele>
        <time>2021-10-05T17:20:24+02:00</time>
      </trkpt>
      <trkpt lat="49.98488" lon="2.92217">
        <ele>103</ele>
        <time>2021-10-05T17:20:29+02:00</time>
      </trkpt>
      <trkpt lat="49.98436" lon="2.92147">
        <ele>104</ele>
        <time>2021-10-05T17:20:34+02:00</time>
      </trkpt>
      <trkpt lat="49.98397" lon="2.92156">
        <ele>108</ele>
        <time>2021-10-05T17:20:39+02:00</time>
      </trkpt>
      <trkpt lat="49.98426" lon="2.92233">
        <ele>108</ele>
        <time>2021-10-05T17:20:44+02:00</time>
      </trkpt>
      <trkpt lat="49.98323" lon="2.92407">
        <ele>121</ele>
        <time>2021-10-05T17:20:49+02:00</time>
      </trkpt>
      <trkpt lat="49.98063" lon="2.92725">
        <ele>135</ele>
        <time>2021-10-05T17:20:54+02:00</time>
      </trkpt>
      <trkpt lat="49.97868" lon="2.92953">
        <ele>133</ele>
        <time>2021-10-05T17:20:59+02:00</time>
      </trkpt>
      <trkpt lat="49.97726" lon="2.92962">
        <ele>128</ele>
        <time>2021-10-05T17:21:04+02:00</time>
      </trkpt>
      <trkpt lat="49.97544" lon="2.92978">
        <ele>119</ele>
        <time>2021-10-05T17:21:09+02:00</time>
      </trkpt>
      <trkpt lat="49.97364" lon="2.93007">
        <ele>114</ele>
        <time>2021-10-05T17:21:14+02:00</time>
      </trkpt>
      <trkpt lat="49.96848" lon="2.93094">
        <ele>93</ele>
        <time>2021-10-05T17:21:19+02:00</time>
      </trkpt>
      <trkpt lat="49.96629" lon="2.93107">
        <ele>82</ele>
        <time>2021-10-05T17:21:24+02:00</time>
      </trkpt>
      <trkpt lat="49.96104" lon="2.9311">
        <ele>62</ele>
        <time>2021-10-05T17:21:29+02:00</time>
      </trkpt>
      <trkpt lat="49.96098" lon="2.93412">
        <ele>63</ele>
        <time>2021-10-05T17:21:34+02:00</time>
      </trkpt>
      <trkpt lat="49.96119" lon="2.93592">
        <ele>62</ele>
        <time>2021-10-05T17:21:39+02:00</time>
      </trkpt>
      <trkpt lat="49.96208" lon="2.93672">
        <ele>64</ele>
        <time>2021-10-05T17:21:44+02:00</time>
      </trkpt>
      <trkpt lat="49.9622" lon="2.93769">
        <ele>64</ele>
        <time>2021-10-05T17:21:49+02:00</time>
      </trkpt>
      <trkpt lat="49.96152" lon="2.93871">
        <ele>61</ele>
        <time>2021-10-05T17:21:54+02:00</time>
      </trkpt>
      <trkpt lat="49.96181" lon="2.94025">
        <ele>62</ele>
        <time>2021-10-05T17:21:59+02:00</time>
      </trkpt>
      <trkpt lat="49.96162" lon="2.94164">
        <ele>64</ele>
        <time>2021-10-05T17:22:04+02:00</time>
      </trkpt>
      <trkpt lat="49.96104" lon="2.94286">
        <ele>61</ele>
        <time>2021-10-05T17:22:09+02:00</time>
      </trkpt>
      <trkpt lat="49.95885" lon="2.94321">
        <ele>61</ele>
        <time>2021-10-05T17:22:14+02:00</time>
      </trkpt>
      <trkpt lat="49.95856" lon="2.94144">
        <ele>62</ele>
        <time>2021-10-05T17:22:19+02:00</time>
      </trkpt>
      <trkpt lat="49.95755" lon="2.94147">
        <ele>64</ele>
        <time>2021-10-05T17:22:24+02:00</time>
      </trkpt>
      <trkpt lat="49.95668" lon="2.94218">
        <ele>67</ele>
        <time>2021-10-05T17:22:29+02:00</time>
      </trkpt>
      <trkpt lat="49.95406" lon="2.94016">
        <ele>77</ele>
        <time>2021-10-05T17:22:34+02:00</time>
      </trkpt>
      <trkpt lat="49.95245" lon="2.93791">
        <ele>89</ele>
        <time>2021-10-05T17:22:39+02:00</time>
      </trkpt>
      <trkpt lat="49.95172" lon="2.93666">
        <ele>91</ele>
        <time>2021-10-05T17:22:44+02:00</time>
      </trkpt>
      <trkpt lat="49.95015" lon="2.93502">
        <ele>95</ele>
        <time>2021-10-05T17:22:49+02:00</time>
      </trkpt>
      <trkpt lat="49.94873" lon="2.93235">
        <ele>93</ele>
        <time>2021-10-05T17:22:54+02:00</time>
      </trkpt>
      <trkpt lat="49.94621" lon="2.93637">
        <ele>103</ele>
        <time>2021-10-05T17:22:59+02:00</time>
      </trkpt>
      <trkpt lat="49.94569" lon="2.93836">
        <ele>99</ele>
        <time>2021-10-05T17:23:04+02:00</time>
      </trkpt>
      <trkpt lat="49.94379" lon="2.93605">
        <ele>87</ele>
        <time>2021-10-05T17:23:09+02:00</time>
      </trkpt>
      <trkpt lat="49.94268" lon="2.93464">
        <ele>82</ele>
        <time>2021-10-05T17:23:14+02:00</time>
      </trkpt>
      <trkpt lat="49.94197" lon="2.93631">
        <ele>80</ele>
        <time>2021-10-05T17:23:19+02:00</time>
      </trkpt>
      <trkpt lat="49.94132" lon="2.93708">
        <ele>77</ele>
        <time>2021-10-05T17:23:24+02:00</time>
      </trkpt>
      <trkpt lat="49.94058" lon="2.93733">
        <ele>74</ele>
        <time>2021-10-05T17:23:29+02:00</time>
      </trkpt>
      <trkpt lat="49.94001" lon="2.93722">
        <ele>73</ele>
        <time>2021-10-05T17:23:34+02:00</time>
      </trkpt>
      <trkpt lat="49.93845" lon="2.93733">
        <ele>68</ele>
        <time>2021-10-05T17:23:39+02:00</time>
      </trkpt>
      <trkpt lat="49.93831" lon="2.936">
        <ele>71</ele>
        <time>2021-10-05T17:23:44+02:00</time>
      </trkpt>
      <trkpt lat="49.93764" lon="2.93592">
        <ele>68</ele>
        <time>2021-10-05T17:23:49+02:00</time>
      </trkpt>
      <trkpt lat="49.93714" lon="2.93615">
        <ele>66</ele>
        <time>2021-10-05T17:23:54+02:00</time>
      </trkpt>
      <trkpt lat="49.93676" lon="2.93655">
        <ele>64</ele>
        <time>2021-10-05T17:23:59+02:00</time>
      </trkpt>
      <trkpt lat="49.93562" lon="2.93856">
        <ele>58</ele>
        <time>2021-10-05T17:24:04+02:00</time>
      </trkpt>
      <trkpt lat="49.93488" lon="2.93901">
        <ele>55</ele>
        <time>2021-10-05T17:24:09+02:00</time>
      </trkpt>
      <trkpt lat="49.93322" lon="2.93916">
        <ele>54</ele>
        <time>2021-10-05T17:24:14+02:00</time>
      </trkpt>
      <trkpt lat="49.93412" lon="2.94121">
        <ele>55</ele>
        <time>2021-10-05T17:24:19+02:00</time>
      </trkpt>
    </trkseg>
  </trk>
  <trk>
    <name><![CDATA[6- Péronne St Quentin 32.6 km]]></name>
    <extensions>
      <line xmlns="http://www.topografix.com/GPX/gpx_style/0/2">
        <color>FF00FF</color>
        <width>4</width>
      </line>
    </extensions>
    <trkseg>
      <trkpt lat="49.93414" lon="2.94122">
        <ele>56</ele>
        <time>2021-10-05T17:55:45+02:00</time>
      </trkpt>
      <trkpt lat="49.93142" lon="2.9357">
        <ele>54</ele>
        <time>2021-10-05T17:55:50+02:00</time>
      </trkpt>
      <trkpt lat="49.93031" lon="2.93682">
        <ele>57</ele>
        <time>2021-10-05T17:55:55+02:00</time>
      </trkpt>
      <trkpt lat="49.92892" lon="2.9391">
        <ele>50</ele>
        <time>2021-10-05T17:56:00+02:00</time>
      </trkpt>
      <trkpt lat="49.92788" lon="2.9405">
        <ele>51</ele>
        <time>2021-10-05T17:56:05+02:00</time>
      </trkpt>
      <trkpt lat="49.92803" lon="2.94154">
        <ele>50</ele>
        <time>2021-10-05T17:56:10+02:00</time>
      </trkpt>
      <trkpt lat="49.92905" lon="2.9431">
        <ele>50</ele>
        <time>2021-10-05T17:56:15+02:00</time>
      </trkpt>
      <trkpt lat="49.92908" lon="2.94363">
        <ele>50</ele>
        <time>2021-10-05T17:56:20+02:00</time>
      </trkpt>
      <trkpt lat="49.92993" lon="2.94623">
        <ele>51</ele>
        <time>2021-10-05T17:56:25+02:00</time>
      </trkpt>
      <trkpt lat="49.92992" lon="2.94874">
        <ele>51</ele>
        <time>2021-10-05T17:56:30+02:00</time>
      </trkpt>
      <trkpt lat="49.92957" lon="2.95072">
        <ele>50</ele>
        <time>2021-10-05T17:56:35+02:00</time>
      </trkpt>
      <trkpt lat="49.92878" lon="2.95251">
        <ele>52</ele>
        <time>2021-10-05T17:56:40+02:00</time>
      </trkpt>
      <trkpt lat="49.92653" lon="2.9552">
        <ele>53</ele>
        <time>2021-10-05T17:56:45+02:00</time>
      </trkpt>
      <trkpt lat="49.92457" lon="2.95786">
        <ele>52</ele>
        <time>2021-10-05T17:56:50+02:00</time>
      </trkpt>
      <trkpt lat="49.9239" lon="2.95889">
        <ele>53</ele>
        <time>2021-10-05T17:56:55+02:00</time>
      </trkpt>
      <trkpt lat="49.92218" lon="2.9614">
        <ele>55</ele>
        <time>2021-10-05T17:57:00+02:00</time>
      </trkpt>
      <trkpt lat="49.92015" lon="2.96453">
        <ele>59</ele>
        <time>2021-10-05T17:57:05+02:00</time>
      </trkpt>
      <trkpt lat="49.91817" lon="2.9675">
        <ele>61</ele>
        <time>2021-10-05T17:57:10+02:00</time>
      </trkpt>
      <trkpt lat="49.91686" lon="2.96962">
        <ele>64</ele>
        <time>2021-10-05T17:57:15+02:00</time>
      </trkpt>
      <trkpt lat="49.91616" lon="2.97183">
        <ele>61</ele>
        <time>2021-10-05T17:57:20+02:00</time>
      </trkpt>
      <trkpt lat="49.91426" lon="2.98546">
        <ele>57</ele>
        <time>2021-10-05T17:57:25+02:00</time>
      </trkpt>
      <trkpt lat="49.91412" lon="2.98856">
        <ele>60</ele>
        <time>2021-10-05T17:57:30+02:00</time>
      </trkpt>
      <trkpt lat="49.91445" lon="2.99974">
        <ele>59</ele>
        <time>2021-10-05T17:57:35+02:00</time>
      </trkpt>
      <trkpt lat="49.91523" lon="3.00448">
        <ele>61</ele>
        <time>2021-10-05T17:57:40+02:00</time>
      </trkpt>
      <trkpt lat="49.91507" lon="3.00508">
        <ele>61</ele>
        <time>2021-10-05T17:57:45+02:00</time>
      </trkpt>
      <trkpt lat="49.91546" lon="3.00638">
        <ele>62</ele>
        <time>2021-10-05T17:57:50+02:00</time>
      </trkpt>
      <trkpt lat="49.91488" lon="3.00722">
        <ele>66</ele>
        <time>2021-10-05T17:57:55+02:00</time>
      </trkpt>
      <trkpt lat="49.91482" lon="3.00843">
        <ele>72</ele>
        <time>2021-10-05T17:58:00+02:00</time>
      </trkpt>
      <trkpt lat="49.91513" lon="3.00885">
        <ele>71</ele>
        <time>2021-10-05T17:58:05+02:00</time>
      </trkpt>
      <trkpt lat="49.91496" lon="3.00963">
        <ele>71</ele>
        <time>2021-10-05T17:58:10+02:00</time>
      </trkpt>
      <trkpt lat="49.91428" lon="3.01033">
        <ele>75</ele>
        <time>2021-10-05T17:58:15+02:00</time>
      </trkpt>
      <trkpt lat="49.91385" lon="3.01174">
        <ele>74</ele>
        <time>2021-10-05T17:58:20+02:00</time>
      </trkpt>
      <trkpt lat="49.91238" lon="3.01295">
        <ele>69</ele>
        <time>2021-10-05T17:58:25+02:00</time>
      </trkpt>
      <trkpt lat="49.91181" lon="3.01467">
        <ele>69</ele>
        <time>2021-10-05T17:58:30+02:00</time>
      </trkpt>
      <trkpt lat="49.91016" lon="3.01741">
        <ele>68</ele>
        <time>2021-10-05T17:58:35+02:00</time>
      </trkpt>
      <trkpt lat="49.90896" lon="3.02039">
        <ele>73</ele>
        <time>2021-10-05T17:58:40+02:00</time>
      </trkpt>
      <trkpt lat="49.90814" lon="3.0226">
        <ele>76</ele>
        <time>2021-10-05T17:58:45+02:00</time>
      </trkpt>
      <trkpt lat="49.90597" lon="3.02615">
        <ele>71</ele>
        <time>2021-10-05T17:58:50+02:00</time>
      </trkpt>
      <trkpt lat="49.90504" lon="3.02642">
        <ele>75</ele>
        <time>2021-10-05T17:58:55+02:00</time>
      </trkpt>
      <trkpt lat="49.90346" lon="3.0289">
        <ele>82</ele>
        <time>2021-10-05T17:59:00+02:00</time>
      </trkpt>
      <trkpt lat="49.90228" lon="3.02986">
        <ele>85</ele>
        <time>2021-10-05T17:59:05+02:00</time>
      </trkpt>
      <trkpt lat="49.90156" lon="3.03179">
        <ele>82</ele>
        <time>2021-10-05T17:59:10+02:00</time>
      </trkpt>
      <trkpt lat="49.89552" lon="3.04071">
        <ele>96</ele>
        <time>2021-10-05T17:59:15+02:00</time>
      </trkpt>
      <trkpt lat="49.89502" lon="3.04089">
        <ele>98</ele>
        <time>2021-10-05T17:59:20+02:00</time>
      </trkpt>
      <trkpt lat="49.89492" lon="3.04207">
        <ele>98</ele>
        <time>2021-10-05T17:59:25+02:00</time>
      </trkpt>
      <trkpt lat="49.89311" lon="3.04195">
        <ele>95</ele>
        <time>2021-10-05T17:59:30+02:00</time>
      </trkpt>
      <trkpt lat="49.89306" lon="3.04457">
        <ele>95</ele>
        <time>2021-10-05T17:59:35+02:00</time>
      </trkpt>
      <trkpt lat="49.89251" lon="3.04695">
        <ele>94</ele>
        <time>2021-10-05T17:59:40+02:00</time>
      </trkpt>
      <trkpt lat="49.89265" lon="3.05084">
        <ele>91</ele>
        <time>2021-10-05T17:59:45+02:00</time>
      </trkpt>
      <trkpt lat="49.89181" lon="3.05642">
        <ele>94</ele>
        <time>2021-10-05T17:59:50+02:00</time>
      </trkpt>
      <trkpt lat="49.89086" lon="3.05877">
        <ele>95</ele>
        <time>2021-10-05T17:59:55+02:00</time>
      </trkpt>
      <trkpt lat="49.89038" lon="3.06121">
        <ele>95</ele>
        <time>2021-10-05T18:00:00+02:00</time>
      </trkpt>
      <trkpt lat="49.89045" lon="3.06429">
        <ele>94</ele>
        <time>2021-10-05T18:00:05+02:00</time>
      </trkpt>
      <trkpt lat="49.88785" lon="3.06495">
        <ele>95</ele>
        <time>2021-10-05T18:00:10+02:00</time>
      </trkpt>
      <trkpt lat="49.88672" lon="3.06598">
        <ele>93</ele>
        <time>2021-10-05T18:00:15+02:00</time>
      </trkpt>
      <trkpt lat="49.88408" lon="3.06652">
        <ele>95</ele>
        <time>2021-10-05T18:00:20+02:00</time>
      </trkpt>
      <trkpt lat="49.88167" lon="3.06426">
        <ele>92</ele>
        <time>2021-10-05T18:00:25+02:00</time>
      </trkpt>
      <trkpt lat="49.87841" lon="3.0623">
        <ele>92</ele>
        <time>2021-10-05T18:00:30+02:00</time>
      </trkpt>
      <trkpt lat="49.87678" lon="3.06242">
        <ele>93</ele>
        <time>2021-10-05T18:00:35+02:00</time>
      </trkpt>
      <trkpt lat="49.87456" lon="3.06238">
        <ele>93</ele>
        <time>2021-10-05T18:00:40+02:00</time>
      </trkpt>
      <trkpt lat="49.87361" lon="3.06242">
        <ele>93</ele>
        <time>2021-10-05T18:00:45+02:00</time>
      </trkpt>
      <trkpt lat="49.87089" lon="3.06188">
        <ele>90</ele>
        <time>2021-10-05T18:00:50+02:00</time>
      </trkpt>
      <trkpt lat="49.8694" lon="3.06258">
        <ele>88</ele>
        <time>2021-10-05T18:00:55+02:00</time>
      </trkpt>
      <trkpt lat="49.86807" lon="3.06345">
        <ele>87</ele>
        <time>2021-10-05T18:01:00+02:00</time>
      </trkpt>
      <trkpt lat="49.86589" lon="3.06633">
        <ele>88</ele>
        <time>2021-10-05T18:01:05+02:00</time>
      </trkpt>
      <trkpt lat="49.8628" lon="3.06858">
        <ele>77</ele>
        <time>2021-10-05T18:01:10+02:00</time>
      </trkpt>
      <trkpt lat="49.86196" lon="3.07042">
        <ele>70</ele>
        <time>2021-10-05T18:01:15+02:00</time>
      </trkpt>
      <trkpt lat="49.86209" lon="3.073">
        <ele>67</ele>
        <time>2021-10-05T18:01:20+02:00</time>
      </trkpt>
      <trkpt lat="49.86239" lon="3.07474">
        <ele>63</ele>
        <time>2021-10-05T18:01:25+02:00</time>
      </trkpt>
      <trkpt lat="49.86202" lon="3.07711">
        <ele>66</ele>
        <time>2021-10-05T18:01:30+02:00</time>
      </trkpt>
      <trkpt lat="49.86252" lon="3.07949">
        <ele>72</ele>
        <time>2021-10-05T18:01:35+02:00</time>
      </trkpt>
      <trkpt lat="49.86138" lon="3.08003">
        <ele>82</ele>
        <time>2021-10-05T18:01:40+02:00</time>
      </trkpt>
      <trkpt lat="49.86012" lon="3.08438">
        <ele>93</ele>
        <time>2021-10-05T18:01:45+02:00</time>
      </trkpt>
      <trkpt lat="49.85838" lon="3.08562">
        <ele>96</ele>
        <time>2021-10-05T18:01:50+02:00</time>
      </trkpt>
      <trkpt lat="49.85954" lon="3.08615">
        <ele>96</ele>
        <time>2021-10-05T18:01:55+02:00</time>
      </trkpt>
      <trkpt lat="49.85909" lon="3.08893">
        <ele>95</ele>
        <time>2021-10-05T18:02:00+02:00</time>
      </trkpt>
      <trkpt lat="49.85838" lon="3.09379">
        <ele>99</ele>
        <time>2021-10-05T18:02:05+02:00</time>
      </trkpt>
      <trkpt lat="49.85745" lon="3.09479">
        <ele>99</ele>
        <time>2021-10-05T18:02:10+02:00</time>
      </trkpt>
      <trkpt lat="49.85751" lon="3.09734">
        <ele>96</ele>
        <time>2021-10-05T18:02:15+02:00</time>
      </trkpt>
      <trkpt lat="49.85507" lon="3.10735">
        <ele>96</ele>
        <time>2021-10-05T18:02:20+02:00</time>
      </trkpt>
      <trkpt lat="49.85382" lon="3.11451">
        <ele>93</ele>
        <time>2021-10-05T18:02:25+02:00</time>
      </trkpt>
      <trkpt lat="49.85326" lon="3.11749">
        <ele>92</ele>
        <time>2021-10-05T18:02:30+02:00</time>
      </trkpt>
      <trkpt lat="49.85324" lon="3.12757">
        <ele>91</ele>
        <time>2021-10-05T18:02:35+02:00</time>
      </trkpt>
      <trkpt lat="49.85486" lon="3.12801">
        <ele>85</ele>
        <time>2021-10-05T18:02:40+02:00</time>
      </trkpt>
      <trkpt lat="49.85626" lon="3.12938">
        <ele>84</ele>
        <time>2021-10-05T18:02:45+02:00</time>
      </trkpt>
      <trkpt lat="49.85758" lon="3.13139">
        <ele>76</ele>
        <time>2021-10-05T18:02:50+02:00</time>
      </trkpt>
      <trkpt lat="49.8574" lon="3.13263">
        <ele>74</ele>
        <time>2021-10-05T18:02:55+02:00</time>
      </trkpt>
      <trkpt lat="49.8579" lon="3.1329">
        <ele>73</ele>
        <time>2021-10-05T18:03:00+02:00</time>
      </trkpt>
      <trkpt lat="49.85674" lon="3.13387">
        <ele>78</ele>
        <time>2021-10-05T18:03:05+02:00</time>
      </trkpt>
      <trkpt lat="49.85604" lon="3.13598">
        <ele>90</ele>
        <time>2021-10-05T18:03:10+02:00</time>
      </trkpt>
      <trkpt lat="49.85453" lon="3.14612">
        <ele>95</ele>
        <time>2021-10-05T18:03:15+02:00</time>
      </trkpt>
      <trkpt lat="49.85464" lon="3.14796">
        <ele>92</ele>
        <time>2021-10-05T18:03:20+02:00</time>
      </trkpt>
      <trkpt lat="49.85466" lon="3.15653">
        <ele>97</ele>
        <time>2021-10-05T18:03:25+02:00</time>
      </trkpt>
      <trkpt lat="49.85596" lon="3.16068">
        <ele>103</ele>
        <time>2021-10-05T18:03:30+02:00</time>
      </trkpt>
      <trkpt lat="49.85589" lon="3.16403">
        <ele>108</ele>
        <time>2021-10-05T18:03:35+02:00</time>
      </trkpt>
      <trkpt lat="49.85535" lon="3.16567">
        <ele>117</ele>
        <time>2021-10-05T18:03:40+02:00</time>
      </trkpt>
      <trkpt lat="49.85602" lon="3.16728">
        <ele>119</ele>
        <time>2021-10-05T18:03:45+02:00</time>
      </trkpt>
      <trkpt lat="49.8544" lon="3.16959">
        <ele>131</ele>
        <time>2021-10-05T18:03:50+02:00</time>
      </trkpt>
      <trkpt lat="49.85348" lon="3.17016">
        <ele>138</ele>
        <time>2021-10-05T18:03:55+02:00</time>
      </trkpt>
      <trkpt lat="49.85296" lon="3.17157">
        <ele>136</ele>
        <time>2021-10-05T18:04:00+02:00</time>
      </trkpt>
      <trkpt lat="49.85246" lon="3.17137">
        <ele>138</ele>
        <time>2021-10-05T18:04:05+02:00</time>
      </trkpt>
      <trkpt lat="49.85177" lon="3.17163">
        <ele>130</ele>
        <time>2021-10-05T18:04:10+02:00</time>
      </trkpt>
      <trkpt lat="49.85032" lon="3.1715">
        <ele>127</ele>
        <time>2021-10-05T18:04:15+02:00</time>
      </trkpt>
      <trkpt lat="49.84814" lon="3.17358">
        <ele>113</ele>
        <time>2021-10-05T18:04:20+02:00</time>
      </trkpt>
      <trkpt lat="49.84672" lon="3.17672">
        <ele>111</ele>
        <time>2021-10-05T18:04:25+02:00</time>
      </trkpt>
      <trkpt lat="49.84342" lon="3.1794">
        <ele>98</ele>
        <time>2021-10-05T18:04:30+02:00</time>
      </trkpt>
      <trkpt lat="49.8408" lon="3.18074">
        <ele>97</ele>
        <time>2021-10-05T18:04:35+02:00</time>
      </trkpt>
      <trkpt lat="49.83374" lon="3.1876">
        <ele>102</ele>
        <time>2021-10-05T18:04:40+02:00</time>
      </trkpt>
      <trkpt lat="49.83316" lon="3.19293">
        <ele>105</ele>
        <time>2021-10-05T18:04:45+02:00</time>
      </trkpt>
      <trkpt lat="49.83324" lon="3.19443">
        <ele>104</ele>
        <time>2021-10-05T18:04:50+02:00</time>
      </trkpt>
      <trkpt lat="49.83301" lon="3.19624">
        <ele>103</ele>
        <time>2021-10-05T18:04:55+02:00</time>
      </trkpt>
      <trkpt lat="49.8327" lon="3.19755">
        <ele>102</ele>
        <time>2021-10-05T18:05:00+02:00</time>
      </trkpt>
      <trkpt lat="49.83342" lon="3.20066">
        <ele>103</ele>
        <time>2021-10-05T18:05:05+02:00</time>
      </trkpt>
      <trkpt lat="49.83452" lon="3.20352">
        <ele>103</ele>
        <time>2021-10-05T18:05:10+02:00</time>
      </trkpt>
      <trkpt lat="49.83491" lon="3.20579">
        <ele>104</ele>
        <time>2021-10-05T18:05:15+02:00</time>
      </trkpt>
      <trkpt lat="49.83606" lon="3.20858">
        <ele>106</ele>
        <time>2021-10-05T18:05:20+02:00</time>
      </trkpt>
      <trkpt lat="49.83675" lon="3.21181">
        <ele>110</ele>
        <time>2021-10-05T18:05:25+02:00</time>
      </trkpt>
      <trkpt lat="49.83982" lon="3.22248">
        <ele>118</ele>
        <time>2021-10-05T18:05:30+02:00</time>
      </trkpt>
      <trkpt lat="49.84054" lon="3.22574">
        <ele>120</ele>
        <time>2021-10-05T18:05:35+02:00</time>
      </trkpt>
      <trkpt lat="49.84135" lon="3.22935">
        <ele>118</ele>
        <time>2021-10-05T18:05:40+02:00</time>
      </trkpt>
      <trkpt lat="49.84252" lon="3.23704">
        <ele>115</ele>
        <time>2021-10-05T18:05:45+02:00</time>
      </trkpt>
      <trkpt lat="49.84298" lon="3.23873">
        <ele>113</ele>
        <time>2021-10-05T18:05:50+02:00</time>
      </trkpt>
      <trkpt lat="49.84426" lon="3.24726">
        <ele>114</ele>
        <time>2021-10-05T18:05:55+02:00</time>
      </trkpt>
      <trkpt lat="49.84798" lon="3.24738">
        <ele>115</ele>
        <time>2021-10-05T18:06:00+02:00</time>
      </trkpt>
      <trkpt lat="49.84953" lon="3.24805">
        <ele>112</ele>
        <time>2021-10-05T18:06:05+02:00</time>
      </trkpt>
      <trkpt lat="49.85112" lon="3.25087">
        <ele>99</ele>
        <time>2021-10-05T18:06:10+02:00</time>
      </trkpt>
      <trkpt lat="49.85191" lon="3.25246">
        <ele>94</ele>
        <time>2021-10-05T18:06:15+02:00</time>
      </trkpt>
      <trkpt lat="49.85201" lon="3.25371">
        <ele>92</ele>
        <time>2021-10-05T18:06:20+02:00</time>
      </trkpt>
      <trkpt lat="49.8536" lon="3.25628">
        <ele>82</ele>
        <time>2021-10-05T18:06:25+02:00</time>
      </trkpt>
      <trkpt lat="49.85437" lon="3.25953">
        <ele>81</ele>
        <time>2021-10-05T18:06:30+02:00</time>
      </trkpt>
      <trkpt lat="49.8547" lon="3.25926">
        <ele>81</ele>
        <time>2021-10-05T18:06:35+02:00</time>
      </trkpt>
    </trkseg>
  </trk>
  <trk>
    <name><![CDATA[7- ST QUENTIN TERGNIER 31.4 KM]]></name>
    <extensions>
      <line xmlns="http://www.topografix.com/GPX/gpx_style/0/2">
        <color>000088</color>
        <width>4</width>
      </line>
    </extensions>
    <trkseg>
      <trkpt lat="49.85469" lon="3.25928">
        <ele>81</ele>
        <time>2021-11-02T08:39:15+01:00</time>
      </trkpt>
      <trkpt lat="49.85436" lon="3.25955">
        <ele>81</ele>
        <time>2021-11-02T08:39:20+01:00</time>
      </trkpt>
      <trkpt lat="49.85373" lon="3.25654">
        <ele>82</ele>
        <time>2021-11-02T08:39:25+01:00</time>
      </trkpt>
      <trkpt lat="49.85198" lon="3.25366">
        <ele>92</ele>
        <time>2021-11-02T08:39:30+01:00</time>
      </trkpt>
      <trkpt lat="49.85192" lon="3.25249">
        <ele>94</ele>
        <time>2021-11-02T08:39:35+01:00</time>
      </trkpt>
      <trkpt lat="49.85096" lon="3.25007">
        <ele>99</ele>
        <time>2021-11-02T08:39:40+01:00</time>
      </trkpt>
      <trkpt lat="49.84945" lon="3.24786">
        <ele>112</ele>
        <time>2021-11-02T08:39:45+01:00</time>
      </trkpt>
      <trkpt lat="49.84681" lon="3.24717">
        <ele>115</ele>
        <time>2021-11-02T08:39:50+01:00</time>
      </trkpt>
      <trkpt lat="49.84422" lon="3.24715">
        <ele>114</ele>
        <time>2021-11-02T08:39:55+01:00</time>
      </trkpt>
      <trkpt lat="49.8456" lon="3.25686">
        <ele>112</ele>
        <time>2021-11-02T08:40:00+01:00</time>
      </trkpt>
      <trkpt lat="49.84348" lon="3.25788">
        <ele>114</ele>
        <time>2021-11-02T08:40:05+01:00</time>
      </trkpt>
      <trkpt lat="49.84218" lon="3.25722">
        <ele>115</ele>
        <time>2021-11-02T08:40:10+01:00</time>
      </trkpt>
      <trkpt lat="49.84119" lon="3.25832">
        <ele>116</ele>
        <time>2021-11-02T08:40:15+01:00</time>
      </trkpt>
      <trkpt lat="49.8399" lon="3.26216">
        <ele>108</ele>
        <time>2021-11-02T08:40:20+01:00</time>
      </trkpt>
      <trkpt lat="49.83766" lon="3.26647">
        <ele>89</ele>
        <time>2021-11-02T08:40:25+01:00</time>
      </trkpt>
      <trkpt lat="49.83731" lon="3.26661">
        <ele>87</ele>
        <time>2021-11-02T08:40:30+01:00</time>
      </trkpt>
      <trkpt lat="49.83662" lon="3.26822">
        <ele>80</ele>
        <time>2021-11-02T08:40:35+01:00</time>
      </trkpt>
      <trkpt lat="49.83599" lon="3.2684">
        <ele>78</ele>
        <time>2021-11-02T08:40:40+01:00</time>
      </trkpt>
      <trkpt lat="49.83502" lon="3.26848">
        <ele>73</ele>
        <time>2021-11-02T08:40:45+01:00</time>
      </trkpt>
      <trkpt lat="49.83469" lon="3.26694">
        <ele>73</ele>
        <time>2021-11-02T08:40:50+01:00</time>
      </trkpt>
      <trkpt lat="49.83429" lon="3.2661">
        <ele>73</ele>
        <time>2021-11-02T08:40:55+01:00</time>
      </trkpt>
      <trkpt lat="49.83281" lon="3.26504">
        <ele>72</ele>
        <time>2021-11-02T08:41:00+01:00</time>
      </trkpt>
      <trkpt lat="49.83104" lon="3.26267">
        <ele>74</ele>
        <time>2021-11-02T08:41:05+01:00</time>
      </trkpt>
      <trkpt lat="49.82967" lon="3.26168">
        <ele>72</ele>
        <time>2021-11-02T08:41:10+01:00</time>
      </trkpt>
      <trkpt lat="49.8283" lon="3.25905">
        <ele>75</ele>
        <time>2021-11-02T08:41:15+01:00</time>
      </trkpt>
      <trkpt lat="49.82774" lon="3.25967">
        <ele>73</ele>
        <time>2021-11-02T08:41:20+01:00</time>
      </trkpt>
      <trkpt lat="49.82729" lon="3.25803">
        <ele>73</ele>
        <time>2021-11-02T08:41:25+01:00</time>
      </trkpt>
      <trkpt lat="49.82632" lon="3.25532">
        <ele>74</ele>
        <time>2021-11-02T08:41:30+01:00</time>
      </trkpt>
      <trkpt lat="49.8235" lon="3.25291">
        <ele>74</ele>
        <time>2021-11-02T08:41:35+01:00</time>
      </trkpt>
      <trkpt lat="49.82265" lon="3.24729">
        <ele>75</ele>
        <time>2021-11-02T08:41:40+01:00</time>
      </trkpt>
      <trkpt lat="49.82093" lon="3.24444">
        <ele>73</ele>
        <time>2021-11-02T08:41:45+01:00</time>
      </trkpt>
      <trkpt lat="49.81758" lon="3.2429">
        <ele>78</ele>
        <time>2021-11-02T08:41:50+01:00</time>
      </trkpt>
      <trkpt lat="49.81511" lon="3.23768">
        <ele>74</ele>
        <time>2021-11-02T08:41:55+01:00</time>
      </trkpt>
      <trkpt lat="49.81263" lon="3.23567">
        <ele>76</ele>
        <time>2021-11-02T08:42:00+01:00</time>
      </trkpt>
      <trkpt lat="49.80952" lon="3.23092">
        <ele>73</ele>
        <time>2021-11-02T08:42:05+01:00</time>
      </trkpt>
      <trkpt lat="49.80777" lon="3.23015">
        <ele>72</ele>
        <time>2021-11-02T08:42:10+01:00</time>
      </trkpt>
      <trkpt lat="49.80702" lon="3.22877">
        <ele>72</ele>
        <time>2021-11-02T08:42:15+01:00</time>
      </trkpt>
      <trkpt lat="49.80598" lon="3.22716">
        <ele>70</ele>
        <time>2021-11-02T08:42:20+01:00</time>
      </trkpt>
      <trkpt lat="49.80532" lon="3.22537">
        <ele>70</ele>
        <time>2021-11-02T08:42:25+01:00</time>
      </trkpt>
      <trkpt lat="49.80237" lon="3.22259">
        <ele>73</ele>
        <time>2021-11-02T08:42:30+01:00</time>
      </trkpt>
      <trkpt lat="49.80098" lon="3.22208">
        <ele>71</ele>
        <time>2021-11-02T08:42:35+01:00</time>
      </trkpt>
      <trkpt lat="49.80006" lon="3.22058">
        <ele>72</ele>
        <time>2021-11-02T08:42:40+01:00</time>
      </trkpt>
      <trkpt lat="49.79959" lon="3.2185">
        <ele>73</ele>
        <time>2021-11-02T08:42:45+01:00</time>
      </trkpt>
      <trkpt lat="49.79954" lon="3.21602">
        <ele>73</ele>
        <time>2021-11-02T08:42:50+01:00</time>
      </trkpt>
      <trkpt lat="49.79877" lon="3.21302">
        <ele>72</ele>
        <time>2021-11-02T08:42:55+01:00</time>
      </trkpt>
      <trkpt lat="49.78931" lon="3.20959">
        <ele>72</ele>
        <time>2021-11-02T08:43:00+01:00</time>
      </trkpt>
      <trkpt lat="49.78598" lon="3.21138">
        <ele>72</ele>
        <time>2021-11-02T08:43:05+01:00</time>
      </trkpt>
      <trkpt lat="49.78518" lon="3.21079">
        <ele>72</ele>
        <time>2021-11-02T08:43:10+01:00</time>
      </trkpt>
      <trkpt lat="49.78488" lon="3.20955">
        <ele>71</ele>
        <time>2021-11-02T08:43:15+01:00</time>
      </trkpt>
      <trkpt lat="49.78157" lon="3.21214">
        <ele>72</ele>
        <time>2021-11-02T08:43:20+01:00</time>
      </trkpt>
      <trkpt lat="49.7802" lon="3.21141">
        <ele>70</ele>
        <time>2021-11-02T08:43:25+01:00</time>
      </trkpt>
      <trkpt lat="49.77936" lon="3.21211">
        <ele>72</ele>
        <time>2021-11-02T08:43:30+01:00</time>
      </trkpt>
      <trkpt lat="49.77683" lon="3.21536">
        <ele>89</ele>
        <time>2021-11-02T08:43:35+01:00</time>
      </trkpt>
      <trkpt lat="49.77568" lon="3.21788">
        <ele>87</ele>
        <time>2021-11-02T08:43:40+01:00</time>
      </trkpt>
      <trkpt lat="49.77464" lon="3.21916">
        <ele>77</ele>
        <time>2021-11-02T08:43:45+01:00</time>
      </trkpt>
      <trkpt lat="49.77317" lon="3.22106">
        <ele>75</ele>
        <time>2021-11-02T08:43:50+01:00</time>
      </trkpt>
      <trkpt lat="49.77136" lon="3.22376">
        <ele>83</ele>
        <time>2021-11-02T08:43:55+01:00</time>
      </trkpt>
      <trkpt lat="49.76987" lon="3.22632">
        <ele>89</ele>
        <time>2021-11-02T08:44:00+01:00</time>
      </trkpt>
      <trkpt lat="49.76725" lon="3.23136">
        <ele>91</ele>
        <time>2021-11-02T08:44:05+01:00</time>
      </trkpt>
      <trkpt lat="49.76605" lon="3.23249">
        <ele>92</ele>
        <time>2021-11-02T08:44:10+01:00</time>
      </trkpt>
      <trkpt lat="49.76513" lon="3.23421">
        <ele>92</ele>
        <time>2021-11-02T08:44:15+01:00</time>
      </trkpt>
      <trkpt lat="49.76305" lon="3.23614">
        <ele>90</ele>
        <time>2021-11-02T08:44:20+01:00</time>
      </trkpt>
      <trkpt lat="49.7598" lon="3.24162">
        <ele>85</ele>
        <time>2021-11-02T08:44:25+01:00</time>
      </trkpt>
      <trkpt lat="49.75592" lon="3.2379">
        <ele>84</ele>
        <time>2021-11-02T08:44:30+01:00</time>
      </trkpt>
      <trkpt lat="49.75312" lon="3.23574">
        <ele>84</ele>
        <time>2021-11-02T08:44:35+01:00</time>
      </trkpt>
      <trkpt lat="49.74927" lon="3.23534">
        <ele>78</ele>
        <time>2021-11-02T08:44:40+01:00</time>
      </trkpt>
      <trkpt lat="49.7474" lon="3.23541">
        <ele>75</ele>
        <time>2021-11-02T08:44:45+01:00</time>
      </trkpt>
      <trkpt lat="49.74618" lon="3.23614">
        <ele>74</ele>
        <time>2021-11-02T08:44:50+01:00</time>
      </trkpt>
      <trkpt lat="49.74544" lon="3.23454">
        <ele>73</ele>
        <time>2021-11-02T08:44:55+01:00</time>
      </trkpt>
      <trkpt lat="49.74497" lon="3.23238">
        <ele>73</ele>
        <time>2021-11-02T08:45:00+01:00</time>
      </trkpt>
      <trkpt lat="49.74433" lon="3.23224">
        <ele>71</ele>
        <time>2021-11-02T08:45:05+01:00</time>
      </trkpt>
      <trkpt lat="49.74382" lon="3.23165">
        <ele>71</ele>
        <time>2021-11-02T08:45:10+01:00</time>
      </trkpt>
      <trkpt lat="49.74424" lon="3.2307">
        <ele>75</ele>
        <time>2021-11-02T08:45:15+01:00</time>
      </trkpt>
      <trkpt lat="49.74256" lon="3.22782">
        <ele>74</ele>
        <time>2021-11-02T08:45:20+01:00</time>
      </trkpt>
      <trkpt lat="49.74167" lon="3.22522">
        <ele>72</ele>
        <time>2021-11-02T08:45:25+01:00</time>
      </trkpt>
      <trkpt lat="49.73931" lon="3.22741">
        <ele>68</ele>
        <time>2021-11-02T08:45:30+01:00</time>
      </trkpt>
      <trkpt lat="49.73973" lon="3.22891">
        <ele>67</ele>
        <time>2021-11-02T08:45:35+01:00</time>
      </trkpt>
      <trkpt lat="49.73839" lon="3.22979">
        <ele>67</ele>
        <time>2021-11-02T08:45:40+01:00</time>
      </trkpt>
      <trkpt lat="49.73789" lon="3.22807">
        <ele>68</ele>
        <time>2021-11-02T08:45:45+01:00</time>
      </trkpt>
      <trkpt lat="49.73659" lon="3.22822">
        <ele>67</ele>
        <time>2021-11-02T08:45:50+01:00</time>
      </trkpt>
      <trkpt lat="49.73125" lon="3.22957">
        <ele>74</ele>
        <time>2021-11-02T08:45:55+01:00</time>
      </trkpt>
      <trkpt lat="49.72781" lon="3.23238">
        <ele>71</ele>
        <time>2021-11-02T08:46:00+01:00</time>
      </trkpt>
      <trkpt lat="49.72547" lon="3.23355">
        <ele>70</ele>
        <time>2021-11-02T08:46:05+01:00</time>
      </trkpt>
      <trkpt lat="49.72348" lon="3.23366">
        <ele>71</ele>
        <time>2021-11-02T08:46:10+01:00</time>
      </trkpt>
      <trkpt lat="49.72311" lon="3.23428">
        <ele>70</ele>
        <time>2021-11-02T08:46:15+01:00</time>
      </trkpt>
      <trkpt lat="49.72332" lon="3.23753">
        <ele>71</ele>
        <time>2021-11-02T08:46:20+01:00</time>
      </trkpt>
      <trkpt lat="49.72287" lon="3.23848">
        <ele>72</ele>
        <time>2021-11-02T08:46:25+01:00</time>
      </trkpt>
      <trkpt lat="49.72098" lon="3.24016">
        <ele>72</ele>
        <time>2021-11-02T08:46:30+01:00</time>
      </trkpt>
      <trkpt lat="49.71994" lon="3.24586">
        <ele>77</ele>
        <time>2021-11-02T08:46:35+01:00</time>
      </trkpt>
      <trkpt lat="49.71968" lon="3.24955">
        <ele>78</ele>
        <time>2021-11-02T08:46:40+01:00</time>
      </trkpt>
      <trkpt lat="49.71992" lon="3.25529">
        <ele>76</ele>
        <time>2021-11-02T08:46:45+01:00</time>
      </trkpt>
      <trkpt lat="49.71841" lon="3.25507">
        <ele>76</ele>
        <time>2021-11-02T08:46:50+01:00</time>
      </trkpt>
      <trkpt lat="49.71805" lon="3.25423">
        <ele>74</ele>
        <time>2021-11-02T08:46:55+01:00</time>
      </trkpt>
      <trkpt lat="49.71456" lon="3.25448">
        <ele>69</ele>
        <time>2021-11-02T08:47:00+01:00</time>
      </trkpt>
      <trkpt lat="49.7138" lon="3.25514">
        <ele>69</ele>
        <time>2021-11-02T08:47:05+01:00</time>
      </trkpt>
      <trkpt lat="49.71101" lon="3.26201">
        <ele>64</ele>
        <time>2021-11-02T08:47:10+01:00</time>
      </trkpt>
      <trkpt lat="49.70986" lon="3.26427">
        <ele>69</ele>
        <time>2021-11-02T08:47:15+01:00</time>
      </trkpt>
      <trkpt lat="49.70771" lon="3.26745">
        <ele>64</ele>
        <time>2021-11-02T08:47:20+01:00</time>
      </trkpt>
      <trkpt lat="49.70437" lon="3.27202">
        <ele>67</ele>
        <time>2021-11-02T08:47:25+01:00</time>
      </trkpt>
      <trkpt lat="49.69944" lon="3.2718">
        <ele>65</ele>
        <time>2021-11-02T08:47:30+01:00</time>
      </trkpt>
      <trkpt lat="49.6984" lon="3.2722">
        <ele>64</ele>
        <time>2021-11-02T08:47:35+01:00</time>
      </trkpt>
      <trkpt lat="49.69204" lon="3.27976">
        <ele>60</ele>
        <time>2021-11-02T08:47:40+01:00</time>
      </trkpt>
      <trkpt lat="49.6892" lon="3.28349">
        <ele>58</ele>
        <time>2021-11-02T08:47:45+01:00</time>
      </trkpt>
      <trkpt lat="49.68762" lon="3.29035">
        <ele>56</ele>
        <time>2021-11-02T08:47:50+01:00</time>
      </trkpt>
      <trkpt lat="49.68592" lon="3.29164">
        <ele>55</ele>
        <time>2021-11-02T08:47:55+01:00</time>
      </trkpt>
      <trkpt lat="49.68162" lon="3.29001">
        <ele>57</ele>
        <time>2021-11-02T08:48:00+01:00</time>
      </trkpt>
      <trkpt lat="49.67709" lon="3.29164">
        <ele>61</ele>
        <time>2021-11-02T08:48:05+01:00</time>
      </trkpt>
      <trkpt lat="49.67359" lon="3.29413">
        <ele>59</ele>
        <time>2021-11-02T08:48:10+01:00</time>
      </trkpt>
      <trkpt lat="49.67209" lon="3.2952">
        <ele>60</ele>
        <time>2021-11-02T08:48:15+01:00</time>
      </trkpt>
      <trkpt lat="49.66843" lon="3.29602">
        <ele>57</ele>
        <time>2021-11-02T08:48:20+01:00</time>
      </trkpt>
      <trkpt lat="49.66748" lon="3.29718">
        <ele>57</ele>
        <time>2021-11-02T08:48:25+01:00</time>
      </trkpt>
      <trkpt lat="49.66707" lon="3.29658">
        <ele>58</ele>
        <time>2021-11-02T08:48:30+01:00</time>
      </trkpt>
      <trkpt lat="49.66432" lon="3.29816">
        <ele>58</ele>
        <time>2021-11-02T08:48:35+01:00</time>
      </trkpt>
      <trkpt lat="49.66246" lon="3.29855">
        <ele>57</ele>
        <time>2021-11-02T08:48:40+01:00</time>
      </trkpt>
      <trkpt lat="49.66136" lon="3.29827">
        <ele>57</ele>
        <time>2021-11-02T08:48:45+01:00</time>
      </trkpt>
      <trkpt lat="49.66027" lon="3.2982">
        <ele>58</ele>
        <time>2021-11-02T08:48:50+01:00</time>
      </trkpt>
      <trkpt lat="49.65764" lon="3.29768">
        <ele>54</ele>
        <time>2021-11-02T08:48:55+01:00</time>
      </trkpt>
      <trkpt lat="49.65779" lon="3.29517">
        <ele>55</ele>
        <time>2021-11-02T08:49:00+01:00</time>
      </trkpt>
      <trkpt lat="49.65852" lon="3.29514">
        <ele>56</ele>
        <time>2021-11-02T08:49:05+01:00</time>
      </trkpt>
      <trkpt lat="49.65837" lon="3.29483">
        <ele>56</ele>
        <time>2021-11-02T08:49:10+01:00</time>
      </trkpt>
      <trkpt lat="49.65789" lon="3.29328">
        <ele>55</ele>
        <time>2021-11-02T08:49:15+01:00</time>
      </trkpt>
      <trkpt lat="49.65696" lon="3.29057">
        <ele>53</ele>
        <time>2021-11-02T08:49:20+01:00</time>
      </trkpt>
      <trkpt lat="49.65716" lon="3.28951">
        <ele>52</ele>
        <time>2021-11-02T08:49:25+01:00</time>
      </trkpt>
      <trkpt lat="49.65703" lon="3.28861">
        <ele>52</ele>
        <time>2021-11-02T08:49:30+01:00</time>
      </trkpt>
    </trkseg>
  </trk>
  <trk>
    <name><![CDATA[8 - TERGNIER CESSIERES 28.5 KM]]></name>
    <extensions>
      <line xmlns="http://www.topografix.com/GPX/gpx_style/0/2">
        <color>008800</color>
        <width>4</width>
      </line>
    </extensions>
    <trkseg>
      <trkpt lat="49.6571" lon="3.2886">
        <ele>52</ele>
        <time>2021-11-02T08:52:33+01:00</time>
      </trkpt>
      <trkpt lat="49.657" lon="3.2906">
        <ele>53</ele>
        <time>2021-11-02T08:52:38+01:00</time>
      </trkpt>
      <trkpt lat="49.65839" lon="3.29495">
        <ele>56</ele>
        <time>2021-11-02T08:52:43+01:00</time>
      </trkpt>
      <trkpt lat="49.65775" lon="3.29519">
        <ele>55</ele>
        <time>2021-11-02T08:52:48+01:00</time>
      </trkpt>
      <trkpt lat="49.6576" lon="3.29772">
        <ele>54</ele>
        <time>2021-11-02T08:52:53+01:00</time>
      </trkpt>
      <trkpt lat="49.65761" lon="3.29965">
        <ele>54</ele>
        <time>2021-11-02T08:52:58+01:00</time>
      </trkpt>
      <trkpt lat="49.65646" lon="3.30167">
        <ele>55</ele>
        <time>2021-11-02T08:53:03+01:00</time>
      </trkpt>
      <trkpt lat="49.65668" lon="3.30281">
        <ele>53</ele>
        <time>2021-11-02T08:53:08+01:00</time>
      </trkpt>
      <trkpt lat="49.65375" lon="3.30367">
        <ele>50</ele>
        <time>2021-11-02T08:53:13+01:00</time>
      </trkpt>
      <trkpt lat="49.65126" lon="3.30433">
        <ele>49</ele>
        <time>2021-11-02T08:53:18+01:00</time>
      </trkpt>
      <trkpt lat="49.65064" lon="3.30472">
        <ele>49</ele>
        <time>2021-11-02T08:53:23+01:00</time>
      </trkpt>
      <trkpt lat="49.65164" lon="3.31549">
        <ele>50</ele>
        <time>2021-11-02T08:53:28+01:00</time>
      </trkpt>
      <trkpt lat="49.65225" lon="3.31525">
        <ele>48</ele>
        <time>2021-11-02T08:53:33+01:00</time>
      </trkpt>
      <trkpt lat="49.65076" lon="3.31676">
        <ele>48</ele>
        <time>2021-11-02T08:53:38+01:00</time>
      </trkpt>
      <trkpt lat="49.65104" lon="3.31699">
        <ele>48</ele>
        <time>2021-11-02T08:53:43+01:00</time>
      </trkpt>
      <trkpt lat="49.65132" lon="3.31663">
        <ele>50</ele>
        <time>2021-11-02T08:53:48+01:00</time>
      </trkpt>
      <trkpt lat="49.65149" lon="3.31688">
        <ele>50</ele>
        <time>2021-11-02T08:53:53+01:00</time>
      </trkpt>
      <trkpt lat="49.65236" lon="3.32545">
        <ele>53</ele>
        <time>2021-11-02T08:53:58+01:00</time>
      </trkpt>
      <trkpt lat="49.65201" lon="3.32639">
        <ele>52</ele>
        <time>2021-11-02T08:54:03+01:00</time>
      </trkpt>
      <trkpt lat="49.65225" lon="3.32922">
        <ele>49</ele>
        <time>2021-11-02T08:54:08+01:00</time>
      </trkpt>
      <trkpt lat="49.65282" lon="3.33081">
        <ele>47</ele>
        <time>2021-11-02T08:54:13+01:00</time>
      </trkpt>
      <trkpt lat="49.65376" lon="3.34064">
        <ele>49</ele>
        <time>2021-11-02T08:54:18+01:00</time>
      </trkpt>
      <trkpt lat="49.65514" lon="3.34641">
        <ele>49</ele>
        <time>2021-11-02T08:54:23+01:00</time>
      </trkpt>
      <trkpt lat="49.6565" lon="3.34761">
        <ele>52</ele>
        <time>2021-11-02T08:54:28+01:00</time>
      </trkpt>
      <trkpt lat="49.6617" lon="3.35122">
        <ele>50</ele>
        <time>2021-11-02T08:54:33+01:00</time>
      </trkpt>
      <trkpt lat="49.66222" lon="3.35602">
        <ele>51</ele>
        <time>2021-11-02T08:54:38+01:00</time>
      </trkpt>
      <trkpt lat="49.66375" lon="3.36304">
        <ele>51</ele>
        <time>2021-11-02T08:54:43+01:00</time>
      </trkpt>
      <trkpt lat="49.66386" lon="3.36611">
        <ele>52</ele>
        <time>2021-11-02T08:54:48+01:00</time>
      </trkpt>
      <trkpt lat="49.66357" lon="3.36718">
        <ele>52</ele>
        <time>2021-11-02T08:54:53+01:00</time>
      </trkpt>
      <trkpt lat="49.66256" lon="3.36697">
        <ele>51</ele>
        <time>2021-11-02T08:54:58+01:00</time>
      </trkpt>
      <trkpt lat="49.66188" lon="3.36851">
        <ele>50</ele>
        <time>2021-11-02T08:55:03+01:00</time>
      </trkpt>
      <trkpt lat="49.66131" lon="3.36828">
        <ele>51</ele>
        <time>2021-11-02T08:55:08+01:00</time>
      </trkpt>
      <trkpt lat="49.66017" lon="3.37098">
        <ele>52</ele>
        <time>2021-11-02T08:55:13+01:00</time>
      </trkpt>
      <trkpt lat="49.65996" lon="3.37261">
        <ele>52</ele>
        <time>2021-11-02T08:55:18+01:00</time>
      </trkpt>
      <trkpt lat="49.65951" lon="3.37272">
        <ele>52</ele>
        <time>2021-11-02T08:55:23+01:00</time>
      </trkpt>
      <trkpt lat="49.65869" lon="3.37261">
        <ele>53</ele>
        <time>2021-11-02T08:55:28+01:00</time>
      </trkpt>
      <trkpt lat="49.65571" lon="3.37579">
        <ele>50</ele>
        <time>2021-11-02T08:55:33+01:00</time>
      </trkpt>
      <trkpt lat="49.65399" lon="3.3746">
        <ele>51</ele>
        <time>2021-11-02T08:55:38+01:00</time>
      </trkpt>
      <trkpt lat="49.65309" lon="3.37262">
        <ele>49</ele>
        <time>2021-11-02T08:55:43+01:00</time>
      </trkpt>
      <trkpt lat="49.65199" lon="3.37097">
        <ele>50</ele>
        <time>2021-11-02T08:55:48+01:00</time>
      </trkpt>
      <trkpt lat="49.65155" lon="3.36964">
        <ele>48</ele>
        <time>2021-11-02T08:55:53+01:00</time>
      </trkpt>
      <trkpt lat="49.64987" lon="3.36876">
        <ele>48</ele>
        <time>2021-11-02T08:55:58+01:00</time>
      </trkpt>
      <trkpt lat="49.64829" lon="3.36706">
        <ele>50</ele>
        <time>2021-11-02T08:56:03+01:00</time>
      </trkpt>
      <trkpt lat="49.64786" lon="3.36616">
        <ele>51</ele>
        <time>2021-11-02T08:56:08+01:00</time>
      </trkpt>
      <trkpt lat="49.64655" lon="3.36419">
        <ele>52</ele>
        <time>2021-11-02T08:56:13+01:00</time>
      </trkpt>
      <trkpt lat="49.64473" lon="3.36725">
        <ele>77</ele>
        <time>2021-11-02T08:56:18+01:00</time>
      </trkpt>
      <trkpt lat="49.64218" lon="3.36913">
        <ele>83</ele>
        <time>2021-11-02T08:56:23+01:00</time>
      </trkpt>
      <trkpt lat="49.64036" lon="3.37218">
        <ele>86</ele>
        <time>2021-11-02T08:56:28+01:00</time>
      </trkpt>
      <trkpt lat="49.63929" lon="3.37188">
        <ele>85</ele>
        <time>2021-11-02T08:56:33+01:00</time>
      </trkpt>
      <trkpt lat="49.63792" lon="3.37693">
        <ele>92</ele>
        <time>2021-11-02T08:56:38+01:00</time>
      </trkpt>
      <trkpt lat="49.63732" lon="3.37687">
        <ele>92</ele>
        <time>2021-11-02T08:56:43+01:00</time>
      </trkpt>
      <trkpt lat="49.63663" lon="3.37811">
        <ele>95</ele>
        <time>2021-11-02T08:56:48+01:00</time>
      </trkpt>
      <trkpt lat="49.63576" lon="3.37858">
        <ele>97</ele>
        <time>2021-11-02T08:56:53+01:00</time>
      </trkpt>
      <trkpt lat="49.63648" lon="3.38046">
        <ele>101</ele>
        <time>2021-11-02T08:56:58+01:00</time>
      </trkpt>
      <trkpt lat="49.63351" lon="3.38568">
        <ele>99</ele>
        <time>2021-11-02T08:57:03+01:00</time>
      </trkpt>
      <trkpt lat="49.6337" lon="3.38973">
        <ele>101</ele>
        <time>2021-11-02T08:57:08+01:00</time>
      </trkpt>
      <trkpt lat="49.6315" lon="3.39302">
        <ele>102</ele>
        <time>2021-11-02T08:57:13+01:00</time>
      </trkpt>
      <trkpt lat="49.62796" lon="3.40042">
        <ele>94</ele>
        <time>2021-11-02T08:57:18+01:00</time>
      </trkpt>
      <trkpt lat="49.62754" lon="3.3993">
        <ele>92</ele>
        <time>2021-11-02T08:57:23+01:00</time>
      </trkpt>
      <trkpt lat="49.62553" lon="3.39842">
        <ele>92</ele>
        <time>2021-11-02T08:57:28+01:00</time>
      </trkpt>
      <trkpt lat="49.62576" lon="3.39666">
        <ele>94</ele>
        <time>2021-11-02T08:57:33+01:00</time>
      </trkpt>
      <trkpt lat="49.62519" lon="3.3966">
        <ele>93</ele>
        <time>2021-11-02T08:57:38+01:00</time>
      </trkpt>
      <trkpt lat="49.62519" lon="3.39589">
        <ele>94</ele>
        <time>2021-11-02T08:57:43+01:00</time>
      </trkpt>
      <trkpt lat="49.62036" lon="3.39184">
        <ele>109</ele>
        <time>2021-11-02T08:57:48+01:00</time>
      </trkpt>
      <trkpt lat="49.618" lon="3.39149">
        <ele>100</ele>
        <time>2021-11-02T08:57:53+01:00</time>
      </trkpt>
      <trkpt lat="49.61697" lon="3.39102">
        <ele>95</ele>
        <time>2021-11-02T08:57:58+01:00</time>
      </trkpt>
      <trkpt lat="49.61545" lon="3.39096">
        <ele>88</ele>
        <time>2021-11-02T08:58:03+01:00</time>
      </trkpt>
      <trkpt lat="49.61484" lon="3.38991">
        <ele>86</ele>
        <time>2021-11-02T08:58:08+01:00</time>
      </trkpt>
      <trkpt lat="49.61332" lon="3.38938">
        <ele>85</ele>
        <time>2021-11-02T08:58:13+01:00</time>
      </trkpt>
      <trkpt lat="49.61245" lon="3.3909">
        <ele>86</ele>
        <time>2021-11-02T08:58:18+01:00</time>
      </trkpt>
      <trkpt lat="49.61077" lon="3.39237">
        <ele>100</ele>
        <time>2021-11-02T08:58:23+01:00</time>
      </trkpt>
      <trkpt lat="49.61077" lon="3.39325">
        <ele>104</ele>
        <time>2021-11-02T08:58:28+01:00</time>
      </trkpt>
      <trkpt lat="49.60944" lon="3.39507">
        <ele>107</ele>
        <time>2021-11-02T08:58:33+01:00</time>
      </trkpt>
      <trkpt lat="49.6032" lon="3.3976">
        <ele>111</ele>
        <time>2021-11-02T08:58:38+01:00</time>
      </trkpt>
      <trkpt lat="49.59772" lon="3.39924">
        <ele>135</ele>
        <time>2021-11-02T08:58:43+01:00</time>
      </trkpt>
      <trkpt lat="49.59605" lon="3.39871">
        <ele>153</ele>
        <time>2021-11-02T08:58:48+01:00</time>
      </trkpt>
      <trkpt lat="49.58798" lon="3.4057">
        <ele>203</ele>
        <time>2021-11-02T08:58:53+01:00</time>
      </trkpt>
      <trkpt lat="49.58714" lon="3.41204">
        <ele>184</ele>
        <time>2021-11-02T08:58:58+01:00</time>
      </trkpt>
      <trkpt lat="49.58581" lon="3.41521">
        <ele>167</ele>
        <time>2021-11-02T08:59:03+01:00</time>
      </trkpt>
      <trkpt lat="49.58543" lon="3.41697">
        <ele>154</ele>
        <time>2021-11-02T08:59:08+01:00</time>
      </trkpt>
      <trkpt lat="49.5844" lon="3.41773">
        <ele>162</ele>
        <time>2021-11-02T08:59:13+01:00</time>
      </trkpt>
      <trkpt lat="49.58364" lon="3.41891">
        <ele>155</ele>
        <time>2021-11-02T08:59:18+01:00</time>
      </trkpt>
      <trkpt lat="49.58395" lon="3.41973">
        <ele>152</ele>
        <time>2021-11-02T08:59:23+01:00</time>
      </trkpt>
      <trkpt lat="49.58634" lon="3.41955">
        <ele>134</ele>
        <time>2021-11-02T08:59:28+01:00</time>
      </trkpt>
      <trkpt lat="49.58878" lon="3.42372">
        <ele>126</ele>
        <time>2021-11-02T08:59:33+01:00</time>
      </trkpt>
      <trkpt lat="49.58848" lon="3.42548">
        <ele>152</ele>
        <time>2021-11-02T08:59:38+01:00</time>
      </trkpt>
      <trkpt lat="49.5895" lon="3.42701">
        <ele>158</ele>
        <time>2021-11-02T08:59:43+01:00</time>
      </trkpt>
      <trkpt lat="49.58905" lon="3.42783">
        <ele>172</ele>
        <time>2021-11-02T08:59:48+01:00</time>
      </trkpt>
      <trkpt lat="49.5879" lon="3.42812">
        <ele>183</ele>
        <time>2021-11-02T08:59:53+01:00</time>
      </trkpt>
      <trkpt lat="49.5873" lon="3.43006">
        <ele>174</ele>
        <time>2021-11-02T08:59:58+01:00</time>
      </trkpt>
      <trkpt lat="49.58733" lon="3.43259">
        <ele>147</ele>
        <time>2021-11-02T09:00:03+01:00</time>
      </trkpt>
      <trkpt lat="49.58513" lon="3.43282">
        <ele>145</ele>
        <time>2021-11-02T09:00:08+01:00</time>
      </trkpt>
      <trkpt lat="49.58322" lon="3.43423">
        <ele>154</ele>
        <time>2021-11-02T09:00:13+01:00</time>
      </trkpt>
      <trkpt lat="49.58391" lon="3.43529">
        <ele>145</ele>
        <time>2021-11-02T09:00:18+01:00</time>
      </trkpt>
      <trkpt lat="49.58311" lon="3.43687">
        <ele>151</ele>
        <time>2021-11-02T09:00:23+01:00</time>
      </trkpt>
      <trkpt lat="49.58022" lon="3.43429">
        <ele>197</ele>
        <time>2021-11-02T09:00:28+01:00</time>
      </trkpt>
      <trkpt lat="49.57812" lon="3.4384">
        <ele>190</ele>
        <time>2021-11-02T09:00:33+01:00</time>
      </trkpt>
      <trkpt lat="49.579" lon="3.4401">
        <ele>187</ele>
        <time>2021-11-02T09:00:38+01:00</time>
      </trkpt>
      <trkpt lat="49.5785" lon="3.44086">
        <ele>196</ele>
        <time>2021-11-02T09:00:43+01:00</time>
      </trkpt>
      <trkpt lat="49.57759" lon="3.4401">
        <ele>200</ele>
        <time>2021-11-02T09:00:48+01:00</time>
      </trkpt>
      <trkpt lat="49.57572" lon="3.44139">
        <ele>200</ele>
        <time>2021-11-02T09:00:53+01:00</time>
      </trkpt>
      <trkpt lat="49.57424" lon="3.45055">
        <ele>200</ele>
        <time>2021-11-02T09:00:58+01:00</time>
      </trkpt>
      <trkpt lat="49.57306" lon="3.45161">
        <ele>193</ele>
        <time>2021-11-02T09:01:03+01:00</time>
      </trkpt>
      <trkpt lat="49.57397" lon="3.45401">
        <ele>187</ele>
        <time>2021-11-02T09:01:08+01:00</time>
      </trkpt>
      <trkpt lat="49.57302" lon="3.45566">
        <ele>183</ele>
        <time>2021-11-02T09:01:13+01:00</time>
      </trkpt>
      <trkpt lat="49.57158" lon="3.45583">
        <ele>175</ele>
        <time>2021-11-02T09:01:18+01:00</time>
      </trkpt>
      <trkpt lat="49.57059" lon="3.45701">
        <ele>170</ele>
        <time>2021-11-02T09:01:23+01:00</time>
      </trkpt>
      <trkpt lat="49.57055" lon="3.46006">
        <ele>177</ele>
        <time>2021-11-02T09:01:28+01:00</time>
      </trkpt>
      <trkpt lat="49.5688" lon="3.46188">
        <ele>181</ele>
        <time>2021-11-02T09:01:33+01:00</time>
      </trkpt>
      <trkpt lat="49.56773" lon="3.46399">
        <ele>192</ele>
        <time>2021-11-02T09:01:38+01:00</time>
      </trkpt>
      <trkpt lat="49.56564" lon="3.46587">
        <ele>193</ele>
        <time>2021-11-02T09:01:43+01:00</time>
      </trkpt>
      <trkpt lat="49.56548" lon="3.46746">
        <ele>191</ele>
        <time>2021-11-02T09:01:48+01:00</time>
      </trkpt>
      <trkpt lat="49.56697" lon="3.4728">
        <ele>184</ele>
        <time>2021-11-02T09:01:53+01:00</time>
      </trkpt>
      <trkpt lat="49.56598" lon="3.4762">
        <ele>187</ele>
        <time>2021-11-02T09:01:58+01:00</time>
      </trkpt>
      <trkpt lat="49.56434" lon="3.48002">
        <ele>181</ele>
        <time>2021-11-02T09:02:03+01:00</time>
      </trkpt>
      <trkpt lat="49.56289" lon="3.4843">
        <ele>146</ele>
        <time>2021-11-02T09:02:08+01:00</time>
      </trkpt>
      <trkpt lat="49.56297" lon="3.48554">
        <ele>129</ele>
        <time>2021-11-02T09:02:13+01:00</time>
      </trkpt>
      <trkpt lat="49.55981" lon="3.49064">
        <ele>110</ele>
        <time>2021-11-02T09:02:18+01:00</time>
      </trkpt>
      <trkpt lat="49.55753" lon="3.49393">
        <ele>106</ele>
        <time>2021-11-02T09:02:23+01:00</time>
      </trkpt>
      <trkpt lat="49.55863" lon="3.49528">
        <ele>105</ele>
        <time>2021-11-02T09:02:28+01:00</time>
      </trkpt>
      <trkpt lat="49.5592" lon="3.49634">
        <ele>109</ele>
        <time>2021-11-02T09:02:33+01:00</time>
      </trkpt>
    </trkseg>
  </trk>
  <trk>
    <name><![CDATA[9 - CESSIERES MARTIGNY COURPIERRE 22.9 KM]]></name>
    <extensions>
      <line xmlns="http://www.topografix.com/GPX/gpx_style/0/2">
        <color>880000</color>
        <width>4</width>
      </line>
    </extensions>
    <trkseg>
      <trkpt lat="49.55915" lon="3.49644">
        <ele>109</ele>
        <time>2021-10-18T13:54:06+02:00</time>
      </trkpt>
      <trkpt lat="49.55865" lon="3.49552">
        <ele>105</ele>
        <time>2021-10-18T13:54:11+02:00</time>
      </trkpt>
      <trkpt lat="49.55743" lon="3.49397">
        <ele>106</ele>
        <time>2021-10-18T13:54:16+02:00</time>
      </trkpt>
      <trkpt lat="49.55627" lon="3.49529">
        <ele>107</ele>
        <time>2021-10-18T13:54:21+02:00</time>
      </trkpt>
      <trkpt lat="49.55574" lon="3.49671">
        <ele>109</ele>
        <time>2021-10-18T13:54:26+02:00</time>
      </trkpt>
      <trkpt lat="49.55598" lon="3.49722">
        <ele>108</ele>
        <time>2021-10-18T13:54:31+02:00</time>
      </trkpt>
      <trkpt lat="49.55624" lon="3.50147">
        <ele>106</ele>
        <time>2021-10-18T13:54:36+02:00</time>
      </trkpt>
      <trkpt lat="49.55535" lon="3.50422">
        <ele>96</ele>
        <time>2021-10-18T13:54:41+02:00</time>
      </trkpt>
      <trkpt lat="49.55553" lon="3.50765">
        <ele>93</ele>
        <time>2021-10-18T13:54:46+02:00</time>
      </trkpt>
      <trkpt lat="49.55497" lon="3.51072">
        <ele>99</ele>
        <time>2021-10-18T13:54:51+02:00</time>
      </trkpt>
      <trkpt lat="49.55482" lon="3.51534">
        <ele>100</ele>
        <time>2021-10-18T13:54:56+02:00</time>
      </trkpt>
      <trkpt lat="49.55535" lon="3.52006">
        <ele>93</ele>
        <time>2021-10-18T13:55:01+02:00</time>
      </trkpt>
      <trkpt lat="49.5544" lon="3.52477">
        <ele>82</ele>
        <time>2021-10-18T13:55:06+02:00</time>
      </trkpt>
      <trkpt lat="49.5547" lon="3.52697">
        <ele>79</ele>
        <time>2021-10-18T13:55:11+02:00</time>
      </trkpt>
      <trkpt lat="49.55416" lon="3.52871">
        <ele>84</ele>
        <time>2021-10-18T13:55:16+02:00</time>
      </trkpt>
      <trkpt lat="49.55402" lon="3.5332">
        <ele>74</ele>
        <time>2021-10-18T13:55:21+02:00</time>
      </trkpt>
      <trkpt lat="49.55327" lon="3.53443">
        <ele>74</ele>
        <time>2021-10-18T13:55:26+02:00</time>
      </trkpt>
      <trkpt lat="49.55179" lon="3.53832">
        <ele>87</ele>
        <time>2021-10-18T13:55:31+02:00</time>
      </trkpt>
      <trkpt lat="49.55203" lon="3.53983">
        <ele>77</ele>
        <time>2021-10-18T13:55:36+02:00</time>
      </trkpt>
      <trkpt lat="49.552" lon="3.54276">
        <ele>71</ele>
        <time>2021-10-18T13:55:41+02:00</time>
      </trkpt>
      <trkpt lat="49.55244" lon="3.5489">
        <ele>77</ele>
        <time>2021-10-18T13:55:46+02:00</time>
      </trkpt>
      <trkpt lat="49.55182" lon="3.55077">
        <ele>73</ele>
        <time>2021-10-18T13:55:51+02:00</time>
      </trkpt>
      <trkpt lat="49.55271" lon="3.5586">
        <ele>69</ele>
        <time>2021-10-18T13:55:56+02:00</time>
      </trkpt>
      <trkpt lat="49.5555" lon="3.56712">
        <ele>68</ele>
        <time>2021-10-18T13:56:01+02:00</time>
      </trkpt>
      <trkpt lat="49.55384" lon="3.56808">
        <ele>67</ele>
        <time>2021-10-18T13:56:06+02:00</time>
      </trkpt>
      <trkpt lat="49.55241" lon="3.57018">
        <ele>68</ele>
        <time>2021-10-18T13:56:11+02:00</time>
      </trkpt>
      <trkpt lat="49.55289" lon="3.57252">
        <ele>68</ele>
        <time>2021-10-18T13:56:16+02:00</time>
      </trkpt>
      <trkpt lat="49.55351" lon="3.57343">
        <ele>67</ele>
        <time>2021-10-18T13:56:21+02:00</time>
      </trkpt>
      <trkpt lat="49.55443" lon="3.57371">
        <ele>67</ele>
        <time>2021-10-18T13:56:26+02:00</time>
      </trkpt>
      <trkpt lat="49.55672" lon="3.57847">
        <ele>73</ele>
        <time>2021-10-18T13:56:31+02:00</time>
      </trkpt>
      <trkpt lat="49.55657" lon="3.58026">
        <ele>70</ele>
        <time>2021-10-18T13:56:36+02:00</time>
      </trkpt>
      <trkpt lat="49.55764" lon="3.58346">
        <ele>81</ele>
        <time>2021-10-18T13:56:41+02:00</time>
      </trkpt>
      <trkpt lat="49.55844" lon="3.58332">
        <ele>81</ele>
        <time>2021-10-18T13:56:46+02:00</time>
      </trkpt>
      <trkpt lat="49.55909" lon="3.58529">
        <ele>83</ele>
        <time>2021-10-18T13:56:51+02:00</time>
      </trkpt>
      <trkpt lat="49.56171" lon="3.58886">
        <ele>81</ele>
        <time>2021-10-18T13:56:56+02:00</time>
      </trkpt>
      <trkpt lat="49.56384" lon="3.59069">
        <ele>77</ele>
        <time>2021-10-18T13:57:01+02:00</time>
      </trkpt>
      <trkpt lat="49.56471" lon="3.58973">
        <ele>75</ele>
        <time>2021-10-18T13:57:06+02:00</time>
      </trkpt>
      <trkpt lat="49.56515" lon="3.5912">
        <ele>78</ele>
        <time>2021-10-18T13:57:11+02:00</time>
      </trkpt>
      <trkpt lat="49.56426" lon="3.5917">
        <ele>81</ele>
        <time>2021-10-18T13:57:16+02:00</time>
      </trkpt>
      <trkpt lat="49.56438" lon="3.59239">
        <ele>82</ele>
        <time>2021-10-18T13:57:21+02:00</time>
      </trkpt>
      <trkpt lat="49.56533" lon="3.59284">
        <ele>82</ele>
        <time>2021-10-18T13:57:26+02:00</time>
      </trkpt>
      <trkpt lat="49.56773" lon="3.59898">
        <ele>93</ele>
        <time>2021-10-18T13:57:31+02:00</time>
      </trkpt>
      <trkpt lat="49.56429" lon="3.59834">
        <ele>120</ele>
        <time>2021-10-18T13:57:36+02:00</time>
      </trkpt>
      <trkpt lat="49.56283" lon="3.60031">
        <ele>132</ele>
        <time>2021-10-18T13:57:41+02:00</time>
      </trkpt>
      <trkpt lat="49.56138" lon="3.5993">
        <ele>119</ele>
        <time>2021-10-18T13:57:46+02:00</time>
      </trkpt>
      <trkpt lat="49.55924" lon="3.60076">
        <ele>101</ele>
        <time>2021-10-18T13:57:51+02:00</time>
      </trkpt>
      <trkpt lat="49.55814" lon="3.60131">
        <ele>91</ele>
        <time>2021-10-18T13:57:56+02:00</time>
      </trkpt>
      <trkpt lat="49.55737" lon="3.60259">
        <ele>90</ele>
        <time>2021-10-18T13:58:01+02:00</time>
      </trkpt>
      <trkpt lat="49.55461" lon="3.60644">
        <ele>88</ele>
        <time>2021-10-18T13:58:06+02:00</time>
      </trkpt>
      <trkpt lat="49.55345" lon="3.60676">
        <ele>85</ele>
        <time>2021-10-18T13:58:11+02:00</time>
      </trkpt>
      <trkpt lat="49.55232" lon="3.60818">
        <ele>85</ele>
        <time>2021-10-18T13:58:16+02:00</time>
      </trkpt>
      <trkpt lat="49.55072" lon="3.61028">
        <ele>81</ele>
        <time>2021-10-18T13:58:21+02:00</time>
      </trkpt>
      <trkpt lat="49.5503" lon="3.6112">
        <ele>78</ele>
        <time>2021-10-18T13:58:26+02:00</time>
      </trkpt>
      <trkpt lat="49.54971" lon="3.61802">
        <ele>72</ele>
        <time>2021-10-18T13:58:31+02:00</time>
      </trkpt>
      <trkpt lat="49.55015" lon="3.61917">
        <ele>72</ele>
        <time>2021-10-18T13:58:36+02:00</time>
      </trkpt>
      <trkpt lat="49.55134" lon="3.61976">
        <ele>75</ele>
        <time>2021-10-18T13:58:41+02:00</time>
      </trkpt>
      <trkpt lat="49.55235" lon="3.62164">
        <ele>77</ele>
        <time>2021-10-18T13:58:46+02:00</time>
      </trkpt>
      <trkpt lat="49.55315" lon="3.6253">
        <ele>72</ele>
        <time>2021-10-18T13:58:51+02:00</time>
      </trkpt>
      <trkpt lat="49.55479" lon="3.62878">
        <ele>73</ele>
        <time>2021-10-18T13:58:56+02:00</time>
      </trkpt>
      <trkpt lat="49.55315" lon="3.62878">
        <ele>71</ele>
        <time>2021-10-18T13:59:01+02:00</time>
      </trkpt>
      <trkpt lat="49.54864" lon="3.62974">
        <ele>68</ele>
        <time>2021-10-18T13:59:06+02:00</time>
      </trkpt>
      <trkpt lat="49.54594" lon="3.63111">
        <ele>68</ele>
        <time>2021-10-18T13:59:11+02:00</time>
      </trkpt>
      <trkpt lat="49.54757" lon="3.63368">
        <ele>69</ele>
        <time>2021-10-18T13:59:16+02:00</time>
      </trkpt>
      <trkpt lat="49.54831" lon="3.6361">
        <ele>67</ele>
        <time>2021-10-18T13:59:21+02:00</time>
      </trkpt>
      <trkpt lat="49.54817" lon="3.63821">
        <ele>68</ele>
        <time>2021-10-18T13:59:26+02:00</time>
      </trkpt>
      <trkpt lat="49.54686" lon="3.63981">
        <ele>67</ele>
        <time>2021-10-18T13:59:31+02:00</time>
      </trkpt>
      <trkpt lat="49.54389" lon="3.64132">
        <ele>66</ele>
        <time>2021-10-18T13:59:36+02:00</time>
      </trkpt>
      <trkpt lat="49.54368" lon="3.64311">
        <ele>66</ele>
        <time>2021-10-18T13:59:41+02:00</time>
      </trkpt>
      <trkpt lat="49.54255" lon="3.64681">
        <ele>66</ele>
        <time>2021-10-18T13:59:46+02:00</time>
      </trkpt>
      <trkpt lat="49.54187" lon="3.64759">
        <ele>68</ele>
        <time>2021-10-18T13:59:51+02:00</time>
      </trkpt>
      <trkpt lat="49.54205" lon="3.64851">
        <ele>66</ele>
        <time>2021-10-18T13:59:56+02:00</time>
      </trkpt>
      <trkpt lat="49.54276" lon="3.64974">
        <ele>71</ele>
        <time>2021-10-18T14:00:01+02:00</time>
      </trkpt>
      <trkpt lat="49.54193" lon="3.65098">
        <ele>72</ele>
        <time>2021-10-18T14:00:06+02:00</time>
      </trkpt>
      <trkpt lat="49.54071" lon="3.65437">
        <ele>74</ele>
        <time>2021-10-18T14:00:11+02:00</time>
      </trkpt>
      <trkpt lat="49.53949" lon="3.65533">
        <ele>77</ele>
        <time>2021-10-18T14:00:16+02:00</time>
      </trkpt>
      <trkpt lat="49.53931" lon="3.65624">
        <ele>82</ele>
        <time>2021-10-18T14:00:21+02:00</time>
      </trkpt>
      <trkpt lat="49.5378" lon="3.65702">
        <ele>83</ele>
        <time>2021-10-18T14:00:26+02:00</time>
      </trkpt>
      <trkpt lat="49.53715" lon="3.65812">
        <ele>85</ele>
        <time>2021-10-18T14:00:31+02:00</time>
      </trkpt>
      <trkpt lat="49.53596" lon="3.65835">
        <ele>84</ele>
        <time>2021-10-18T14:00:36+02:00</time>
      </trkpt>
      <trkpt lat="49.53536" lon="3.65936">
        <ele>83</ele>
        <time>2021-10-18T14:00:41+02:00</time>
      </trkpt>
      <trkpt lat="49.5326" lon="3.65931">
        <ele>82</ele>
        <time>2021-10-18T14:00:46+02:00</time>
      </trkpt>
      <trkpt lat="49.53183" lon="3.65977">
        <ele>84</ele>
        <time>2021-10-18T14:00:51+02:00</time>
      </trkpt>
      <trkpt lat="49.52981" lon="3.65945">
        <ele>81</ele>
        <time>2021-10-18T14:00:56+02:00</time>
      </trkpt>
      <trkpt lat="49.5274" lon="3.66096">
        <ele>81</ele>
        <time>2021-10-18T14:01:01+02:00</time>
      </trkpt>
      <trkpt lat="49.52559" lon="3.66288">
        <ele>84</ele>
        <time>2021-10-18T14:01:06+02:00</time>
      </trkpt>
      <trkpt lat="49.52437" lon="3.66458">
        <ele>86</ele>
        <time>2021-10-18T14:01:11+02:00</time>
      </trkpt>
      <trkpt lat="49.52247" lon="3.66613">
        <ele>89</ele>
        <time>2021-10-18T14:01:16+02:00</time>
      </trkpt>
      <trkpt lat="49.52128" lon="3.66636">
        <ele>90</ele>
        <time>2021-10-18T14:01:21+02:00</time>
      </trkpt>
      <trkpt lat="49.52057" lon="3.66673">
        <ele>91</ele>
        <time>2021-10-18T14:01:26+02:00</time>
      </trkpt>
      <trkpt lat="49.51908" lon="3.66636">
        <ele>105</ele>
        <time>2021-10-18T14:01:31+02:00</time>
      </trkpt>
      <trkpt lat="49.51688" lon="3.66764">
        <ele>121</ele>
        <time>2021-10-18T14:01:36+02:00</time>
      </trkpt>
      <trkpt lat="49.51528" lon="3.66838">
        <ele>137</ele>
        <time>2021-10-18T14:01:41+02:00</time>
      </trkpt>
      <trkpt lat="49.51427" lon="3.66915">
        <ele>146</ele>
        <time>2021-10-18T14:01:46+02:00</time>
      </trkpt>
      <trkpt lat="49.50556" lon="3.67391">
        <ele>171</ele>
        <time>2021-10-18T14:01:51+02:00</time>
      </trkpt>
      <trkpt lat="49.50407" lon="3.67492">
        <ele>177</ele>
        <time>2021-10-18T14:01:56+02:00</time>
      </trkpt>
      <trkpt lat="49.50342" lon="3.67547">
        <ele>179</ele>
        <time>2021-10-18T14:02:01+02:00</time>
      </trkpt>
      <trkpt lat="49.50086" lon="3.67643">
        <ele>188</ele>
        <time>2021-10-18T14:02:06+02:00</time>
      </trkpt>
      <trkpt lat="49.49976" lon="3.67735">
        <ele>193</ele>
        <time>2021-10-18T14:02:11+02:00</time>
      </trkpt>
      <trkpt lat="49.49545" lon="3.67781">
        <ele>178</ele>
        <time>2021-10-18T14:02:16+02:00</time>
      </trkpt>
      <trkpt lat="49.4936" lon="3.67863">
        <ele>169</ele>
        <time>2021-10-18T14:02:21+02:00</time>
      </trkpt>
      <trkpt lat="49.4923" lon="3.67918">
        <ele>163</ele>
        <time>2021-10-18T14:02:26+02:00</time>
      </trkpt>
      <trkpt lat="49.49179" lon="3.68064">
        <ele>153</ele>
        <time>2021-10-18T14:02:31+02:00</time>
      </trkpt>
      <trkpt lat="49.49117" lon="3.68023">
        <ele>147</ele>
        <time>2021-10-18T14:02:36+02:00</time>
      </trkpt>
      <trkpt lat="49.4906" lon="3.67886">
        <ele>148</ele>
        <time>2021-10-18T14:02:41+02:00</time>
      </trkpt>
      <trkpt lat="49.48989" lon="3.67927">
        <ele>137</ele>
        <time>2021-10-18T14:02:46+02:00</time>
      </trkpt>
      <trkpt lat="49.4903" lon="3.68051">
        <ele>134</ele>
        <time>2021-10-18T14:02:51+02:00</time>
      </trkpt>
      <trkpt lat="49.49053" lon="3.68105">
        <ele>134</ele>
        <time>2021-10-18T14:02:56+02:00</time>
      </trkpt>
    </trkseg>
  </trk>
  <trk>
    <name><![CDATA[10 - Martigny Courpierre Hermonville 34.6 km]]></name>
    <extensions>
      <line xmlns="http://www.topografix.com/GPX/gpx_style/0/2">
        <color>008888</color>
        <width>4</width>
      </line>
    </extensions>
    <trkseg>
      <trkpt lat="49.49037" lon="3.68077">
        <ele>133</ele>
      </trkpt>
      <trkpt lat="49.48984" lon="3.67924">
        <ele>137</ele>
      </trkpt>
      <trkpt lat="49.48921" lon="3.67946">
        <ele>132</ele>
      </trkpt>
      <trkpt lat="49.48851" lon="3.6793">
        <ele>128</ele>
      </trkpt>
      <trkpt lat="49.488" lon="3.68021">
        <ele>116</ele>
      </trkpt>
      <trkpt lat="49.48567" lon="3.6822">
        <ele>103</ele>
      </trkpt>
      <trkpt lat="49.48263" lon="3.68194">
        <ele>94</ele>
      </trkpt>
      <trkpt lat="49.48121" lon="3.68087">
        <ele>99</ele>
      </trkpt>
      <trkpt lat="49.47939" lon="3.68103">
        <ele>94</ele>
      </trkpt>
      <trkpt lat="49.47733" lon="3.6796">
        <ele>82</ele>
      </trkpt>
      <trkpt lat="49.4752" lon="3.67578">
        <ele>90</ele>
      </trkpt>
      <trkpt lat="49.47488" lon="3.67702">
        <ele>85</ele>
      </trkpt>
      <trkpt lat="49.4745" lon="3.67705">
        <ele>83</ele>
      </trkpt>
      <trkpt lat="49.47407" lon="3.67829">
        <ele>79</ele>
      </trkpt>
      <trkpt lat="49.47435" lon="3.67865">
        <ele>79</ele>
      </trkpt>
      <trkpt lat="49.47416" lon="3.67969">
        <ele>79</ele>
      </trkpt>
      <trkpt lat="49.47291" lon="3.68139">
        <ele>97</ele>
      </trkpt>
      <trkpt lat="49.47253" lon="3.68259">
        <ele>102</ele>
      </trkpt>
      <trkpt lat="49.47151" lon="3.68311">
        <ele>107</ele>
      </trkpt>
      <trkpt lat="49.47043" lon="3.68269">
        <ele>108</ele>
      </trkpt>
      <trkpt lat="49.46906" lon="3.68337">
        <ele>104</ele>
      </trkpt>
      <trkpt lat="49.46779" lon="3.68341">
        <ele>102</ele>
      </trkpt>
      <trkpt lat="49.46713" lon="3.68504">
        <ele>120</ele>
      </trkpt>
      <trkpt lat="49.46662" lon="3.68546">
        <ele>119</ele>
      </trkpt>
      <trkpt lat="49.46609" lon="3.68666">
        <ele>120</ele>
      </trkpt>
      <trkpt lat="49.46575" lon="3.68885">
        <ele>107</ele>
      </trkpt>
      <trkpt lat="49.46594" lon="3.69106">
        <ele>98</ele>
      </trkpt>
      <trkpt lat="49.46605" lon="3.69393">
        <ele>100</ele>
      </trkpt>
      <trkpt lat="49.4662" lon="3.6966">
        <ele>107</ele>
      </trkpt>
      <trkpt lat="49.46533" lon="3.69689">
        <ele>97</ele>
      </trkpt>
      <trkpt lat="49.46472" lon="3.69654">
        <ele>91</ele>
      </trkpt>
      <trkpt lat="49.46455" lon="3.69706">
        <ele>89</ele>
      </trkpt>
      <trkpt lat="49.46345" lon="3.69794">
        <ele>82</ele>
      </trkpt>
      <trkpt lat="49.46323" lon="3.70106">
        <ele>83</ele>
      </trkpt>
      <trkpt lat="49.46228" lon="3.70263">
        <ele>83</ele>
      </trkpt>
      <trkpt lat="49.46205" lon="3.70866">
        <ele>81</ele>
      </trkpt>
      <trkpt lat="49.46169" lon="3.71015">
        <ele>80</ele>
      </trkpt>
      <trkpt lat="49.46146" lon="3.71266">
        <ele>81</ele>
      </trkpt>
      <trkpt lat="49.46175" lon="3.71504">
        <ele>81</ele>
      </trkpt>
      <trkpt lat="49.46135" lon="3.71569">
        <ele>82</ele>
      </trkpt>
      <trkpt lat="49.46129" lon="3.71732">
        <ele>86</ele>
      </trkpt>
      <trkpt lat="49.45997" lon="3.71693">
        <ele>82</ele>
      </trkpt>
      <trkpt lat="49.45877" lon="3.72413">
        <ele>88</ele>
      </trkpt>
      <trkpt lat="49.45758" lon="3.72286">
        <ele>88</ele>
      </trkpt>
      <trkpt lat="49.45711" lon="3.72478">
        <ele>99</ele>
      </trkpt>
      <trkpt lat="49.45616" lon="3.72605">
        <ele>100</ele>
      </trkpt>
      <trkpt lat="49.45489" lon="3.73192">
        <ele>98</ele>
      </trkpt>
      <trkpt lat="49.45493" lon="3.73341">
        <ele>94</ele>
      </trkpt>
      <trkpt lat="49.45368" lon="3.74048">
        <ele>94</ele>
      </trkpt>
      <trkpt lat="49.45318" lon="3.74074">
        <ele>96</ele>
      </trkpt>
      <trkpt lat="49.45237" lon="3.74309">
        <ele>90</ele>
      </trkpt>
      <trkpt lat="49.45582" lon="3.7442">
        <ele>97</ele>
      </trkpt>
      <trkpt lat="49.45557" lon="3.74775">
        <ele>101</ele>
      </trkpt>
      <trkpt lat="49.45758" lon="3.76195">
        <ele>97</ele>
      </trkpt>
      <trkpt lat="49.45887" lon="3.76827">
        <ele>97</ele>
      </trkpt>
      <trkpt lat="49.45999" lon="3.78639">
        <ele>102</ele>
      </trkpt>
      <trkpt lat="49.45959" lon="3.78857">
        <ele>101</ele>
      </trkpt>
      <trkpt lat="49.46103" lon="3.7973">
        <ele>100</ele>
      </trkpt>
      <trkpt lat="49.46129" lon="3.80027">
        <ele>98</ele>
      </trkpt>
      <trkpt lat="49.46061" lon="3.80232">
        <ele>93</ele>
      </trkpt>
      <trkpt lat="49.46061" lon="3.80359">
        <ele>90</ele>
      </trkpt>
      <trkpt lat="49.46029" lon="3.80561">
        <ele>88</ele>
      </trkpt>
      <trkpt lat="49.4608" lon="3.80704">
        <ele>91</ele>
      </trkpt>
      <trkpt lat="49.4609" lon="3.81004">
        <ele>90</ele>
      </trkpt>
      <trkpt lat="49.46033" lon="3.81164">
        <ele>83</ele>
      </trkpt>
      <trkpt lat="49.46074" lon="3.81395">
        <ele>81</ele>
      </trkpt>
      <trkpt lat="49.46137" lon="3.81528">
        <ele>88</ele>
      </trkpt>
      <trkpt lat="49.46162" lon="3.82043">
        <ele>91</ele>
      </trkpt>
      <trkpt lat="49.46222" lon="3.8234">
        <ele>90</ele>
      </trkpt>
      <trkpt lat="49.46213" lon="3.82447">
        <ele>90</ele>
      </trkpt>
      <trkpt lat="49.46148" lon="3.82529">
        <ele>87</ele>
      </trkpt>
      <trkpt lat="49.4616" lon="3.82617">
        <ele>87</ele>
      </trkpt>
      <trkpt lat="49.46122" lon="3.82854">
        <ele>88</ele>
      </trkpt>
      <trkpt lat="49.4586" lon="3.84063">
        <ele>84</ele>
      </trkpt>
      <trkpt lat="49.45822" lon="3.8434">
        <ele>82</ele>
      </trkpt>
      <trkpt lat="49.45409" lon="3.85858">
        <ele>68</ele>
      </trkpt>
      <trkpt lat="49.45246" lon="3.86311">
        <ele>65</ele>
      </trkpt>
      <trkpt lat="49.45135" lon="3.86604">
        <ele>65</ele>
      </trkpt>
      <trkpt lat="49.44765" lon="3.87468">
        <ele>76</ele>
      </trkpt>
      <trkpt lat="49.44693" lon="3.87963">
        <ele>71</ele>
      </trkpt>
      <trkpt lat="49.4464" lon="3.88484">
        <ele>67</ele>
      </trkpt>
      <trkpt lat="49.44553" lon="3.88823">
        <ele>63</ele>
      </trkpt>
      <trkpt lat="49.44453" lon="3.88911">
        <ele>62</ele>
      </trkpt>
      <trkpt lat="49.44093" lon="3.89184">
        <ele>61</ele>
      </trkpt>
      <trkpt lat="49.44034" lon="3.89403">
        <ele>58</ele>
      </trkpt>
      <trkpt lat="49.43989" lon="3.895">
        <ele>58</ele>
      </trkpt>
      <trkpt lat="49.43992" lon="3.89634">
        <ele>61</ele>
      </trkpt>
      <trkpt lat="49.43934" lon="3.89761">
        <ele>58</ele>
      </trkpt>
      <trkpt lat="49.43913" lon="3.89833">
        <ele>57</ele>
      </trkpt>
      <trkpt lat="49.43947" lon="3.89908">
        <ele>58</ele>
      </trkpt>
      <trkpt lat="49.43888" lon="3.89963">
        <ele>57</ele>
      </trkpt>
      <trkpt lat="49.43767" lon="3.90041">
        <ele>58</ele>
      </trkpt>
      <trkpt lat="49.43682" lon="3.90191">
        <ele>57</ele>
      </trkpt>
      <trkpt lat="49.43682" lon="3.90286">
        <ele>58</ele>
      </trkpt>
      <trkpt lat="49.43526" lon="3.90338">
        <ele>58</ele>
      </trkpt>
      <trkpt lat="49.43352" lon="3.90572">
        <ele>59</ele>
      </trkpt>
      <trkpt lat="49.4314" lon="3.90602">
        <ele>57</ele>
      </trkpt>
      <trkpt lat="49.42945" lon="3.90608">
        <ele>57</ele>
      </trkpt>
      <trkpt lat="49.42816" lon="3.90546">
        <ele>57</ele>
      </trkpt>
      <trkpt lat="49.42606" lon="3.90471">
        <ele>56</ele>
      </trkpt>
      <trkpt lat="49.42519" lon="3.90406">
        <ele>56</ele>
      </trkpt>
      <trkpt lat="49.42439" lon="3.90211">
        <ele>55</ele>
      </trkpt>
      <trkpt lat="49.4214" lon="3.89937">
        <ele>54</ele>
      </trkpt>
      <trkpt lat="49.41559" lon="3.90334">
        <ele>67</ele>
      </trkpt>
      <trkpt lat="49.41065" lon="3.90481">
        <ele>54</ele>
      </trkpt>
      <trkpt lat="49.40747" lon="3.90478">
        <ele>54</ele>
      </trkpt>
      <trkpt lat="49.40421" lon="3.90471">
        <ele>54</ele>
      </trkpt>
      <trkpt lat="49.40334" lon="3.90044">
        <ele>54</ele>
      </trkpt>
      <trkpt lat="49.40205" lon="3.901">
        <ele>54</ele>
      </trkpt>
      <trkpt lat="49.40177" lon="3.89986">
        <ele>55</ele>
      </trkpt>
      <trkpt lat="49.39759" lon="3.9022">
        <ele>54</ele>
      </trkpt>
      <trkpt lat="49.3952" lon="3.9037">
        <ele>56</ele>
      </trkpt>
      <trkpt lat="49.39395" lon="3.90331">
        <ele>56</ele>
      </trkpt>
      <trkpt lat="49.38602" lon="3.90259">
        <ele>61</ele>
      </trkpt>
      <trkpt lat="49.38201" lon="3.90158">
        <ele>68</ele>
      </trkpt>
      <trkpt lat="49.3781" lon="3.89992">
        <ele>68</ele>
      </trkpt>
      <trkpt lat="49.37475" lon="3.89728">
        <ele>75</ele>
      </trkpt>
      <trkpt lat="49.37373" lon="3.89862">
        <ele>77</ele>
      </trkpt>
      <trkpt lat="49.37195" lon="3.89738">
        <ele>80</ele>
      </trkpt>
      <trkpt lat="49.37057" lon="3.89676">
        <ele>84</ele>
      </trkpt>
      <trkpt lat="49.36926" lon="3.89259">
        <ele>91</ele>
      </trkpt>
      <trkpt lat="49.36782" lon="3.89474">
        <ele>98</ele>
      </trkpt>
      <trkpt lat="49.36618" lon="3.89696">
        <ele>101</ele>
      </trkpt>
      <trkpt lat="49.36357" lon="3.89917">
        <ele>99</ele>
      </trkpt>
      <trkpt lat="49.36018" lon="3.90103">
        <ele>95</ele>
      </trkpt>
      <trkpt lat="49.35502" lon="3.91025">
        <ele>92</ele>
      </trkpt>
      <trkpt lat="49.34955" lon="3.91647">
        <ele>102</ele>
      </trkpt>
      <trkpt lat="49.34755" lon="3.91931">
        <ele>97</ele>
      </trkpt>
      <trkpt lat="49.34331" lon="3.91481">
        <ele>102</ele>
      </trkpt>
      <trkpt lat="49.34237" lon="3.91442">
        <ele>101</ele>
      </trkpt>
      <trkpt lat="49.34193" lon="3.91263">
        <ele>102</ele>
      </trkpt>
      <trkpt lat="49.34042" lon="3.91142">
        <ele>100</ele>
      </trkpt>
      <trkpt lat="49.33936" lon="3.90918">
        <ele>100</ele>
      </trkpt>
      <trkpt lat="49.33878" lon="3.90937">
        <ele>98</ele>
      </trkpt>
      <trkpt lat="49.33906" lon="3.91006">
        <ele>98</ele>
      </trkpt>
      <trkpt lat="49.339" lon="3.91046">
        <ele>98</ele>
      </trkpt>
    </trkseg>
  </trk>
  <trk>
    <name><![CDATA[11 Hermonville Reims 22.1 km]]></name>
    <extensions>
      <line xmlns="http://www.topografix.com/GPX/gpx_style/0/2">
        <color>888800</color>
        <width>4</width>
      </line>
    </extensions>
    <trkseg>
      <trkpt lat="49.33902" lon="3.91028">
        <ele>98</ele>
      </trkpt>
      <trkpt lat="49.33905" lon="3.91004">
        <ele>98</ele>
      </trkpt>
      <trkpt lat="49.33879" lon="3.90937">
        <ele>98</ele>
      </trkpt>
      <trkpt lat="49.33736" lon="3.91016">
        <ele>102</ele>
      </trkpt>
      <trkpt lat="49.33695" lon="3.9106">
        <ele>104</ele>
      </trkpt>
      <trkpt lat="49.33648" lon="3.9109">
        <ele>105</ele>
      </trkpt>
      <trkpt lat="49.33645" lon="3.91111">
        <ele>105</ele>
      </trkpt>
      <trkpt lat="49.33588" lon="3.91143">
        <ele>105</ele>
      </trkpt>
      <trkpt lat="49.33558" lon="3.91177">
        <ele>105</ele>
      </trkpt>
      <trkpt lat="49.33565" lon="3.91206">
        <ele>105</ele>
      </trkpt>
      <trkpt lat="49.33514" lon="3.91232">
        <ele>106</ele>
      </trkpt>
      <trkpt lat="49.33507" lon="3.91307">
        <ele>105</ele>
      </trkpt>
      <trkpt lat="49.33401" lon="3.91447">
        <ele>103</ele>
      </trkpt>
      <trkpt lat="49.33317" lon="3.91545">
        <ele>102</ele>
      </trkpt>
      <trkpt lat="49.33149" lon="3.91703">
        <ele>100</ele>
      </trkpt>
      <trkpt lat="49.32883" lon="3.91878">
        <ele>99</ele>
      </trkpt>
      <trkpt lat="49.32847" lon="3.91896">
        <ele>99</ele>
      </trkpt>
      <trkpt lat="49.32818" lon="3.91958">
        <ele>99</ele>
      </trkpt>
      <trkpt lat="49.32688" lon="3.91819">
        <ele>105</ele>
      </trkpt>
      <trkpt lat="49.32577" lon="3.92066">
        <ele>113</ele>
      </trkpt>
      <trkpt lat="49.32651" lon="3.92265">
        <ele>105</ele>
      </trkpt>
      <trkpt lat="49.32618" lon="3.93311">
        <ele>112</ele>
      </trkpt>
      <trkpt lat="49.32523" lon="3.93303">
        <ele>117</ele>
      </trkpt>
      <trkpt lat="49.32358" lon="3.93145">
        <ele>118</ele>
      </trkpt>
      <trkpt lat="49.32226" lon="3.93112">
        <ele>125</ele>
      </trkpt>
      <trkpt lat="49.3211" lon="3.92975">
        <ele>133</ele>
      </trkpt>
      <trkpt lat="49.31864" lon="3.93311">
        <ele>168</ele>
      </trkpt>
      <trkpt lat="49.31835" lon="3.93555">
        <ele>183</ele>
      </trkpt>
      <trkpt lat="49.31688" lon="3.93442">
        <ele>187</ele>
      </trkpt>
      <trkpt lat="49.31501" lon="3.93404">
        <ele>191</ele>
      </trkpt>
      <trkpt lat="49.31282" lon="3.93377">
        <ele>188</ele>
      </trkpt>
      <trkpt lat="49.30792" lon="3.93383">
        <ele>193</ele>
      </trkpt>
      <trkpt lat="49.30567" lon="3.93163">
        <ele>194</ele>
      </trkpt>
      <trkpt lat="49.3041" lon="3.93175">
        <ele>194</ele>
      </trkpt>
      <trkpt lat="49.30396" lon="3.93219">
        <ele>190</ele>
      </trkpt>
      <trkpt lat="49.30222" lon="3.93347">
        <ele>190</ele>
      </trkpt>
      <trkpt lat="49.30243" lon="3.93612">
        <ele>186</ele>
      </trkpt>
      <trkpt lat="49.30245" lon="3.93912">
        <ele>182</ele>
      </trkpt>
      <trkpt lat="49.30261" lon="3.94147">
        <ele>167</ele>
      </trkpt>
      <trkpt lat="49.30065" lon="3.9429">
        <ele>159</ele>
      </trkpt>
      <trkpt lat="49.29919" lon="3.94435">
        <ele>139</ele>
      </trkpt>
      <trkpt lat="49.29646" lon="3.9481">
        <ele>128</ele>
      </trkpt>
      <trkpt lat="49.29534" lon="3.94876">
        <ele>127</ele>
      </trkpt>
      <trkpt lat="49.2927" lon="3.95342">
        <ele>110</ele>
      </trkpt>
      <trkpt lat="49.29169" lon="3.95652">
        <ele>100</ele>
      </trkpt>
      <trkpt lat="49.29022" lon="3.95788">
        <ele>98</ele>
      </trkpt>
      <trkpt lat="49.28942" lon="3.95991">
        <ele>93</ele>
      </trkpt>
      <trkpt lat="49.2893" lon="3.9608">
        <ele>93</ele>
      </trkpt>
      <trkpt lat="49.28591" lon="3.96115">
        <ele>82</ele>
      </trkpt>
      <trkpt lat="49.28603" lon="3.96689">
        <ele>78</ele>
      </trkpt>
      <trkpt lat="49.285" lon="3.97498">
        <ele>74</ele>
      </trkpt>
      <trkpt lat="49.28356" lon="3.98081">
        <ele>74</ele>
      </trkpt>
      <trkpt lat="49.28354" lon="3.98259">
        <ele>76</ele>
      </trkpt>
      <trkpt lat="49.28164" lon="3.98274">
        <ele>72</ele>
      </trkpt>
      <trkpt lat="49.27755" lon="3.98536">
        <ele>72</ele>
      </trkpt>
      <trkpt lat="49.27798" lon="3.9864">
        <ele>71</ele>
      </trkpt>
      <trkpt lat="49.27732" lon="3.98747">
        <ele>71</ele>
      </trkpt>
      <trkpt lat="49.27672" lon="3.98869">
        <ele>70</ele>
      </trkpt>
      <trkpt lat="49.27417" lon="3.98943">
        <ele>75</ele>
      </trkpt>
      <trkpt lat="49.27394" lon="3.99006">
        <ele>75</ele>
      </trkpt>
      <trkpt lat="49.27101" lon="3.99116">
        <ele>76</ele>
      </trkpt>
      <trkpt lat="49.27058" lon="3.99568">
        <ele>74</ele>
      </trkpt>
      <trkpt lat="49.27058" lon="3.99696">
        <ele>74</ele>
      </trkpt>
      <trkpt lat="49.2689" lon="3.99713">
        <ele>75</ele>
      </trkpt>
      <trkpt lat="49.26833" lon="3.99681">
        <ele>75</ele>
      </trkpt>
      <trkpt lat="49.26771" lon="3.99731">
        <ele>76</ele>
      </trkpt>
      <trkpt lat="49.26564" lon="3.99865">
        <ele>76</ele>
      </trkpt>
      <trkpt lat="49.26337" lon="4.00204">
        <ele>78</ele>
      </trkpt>
      <trkpt lat="49.25834" lon="4.01007">
        <ele>74</ele>
      </trkpt>
      <trkpt lat="49.25184" lon="4.02066">
        <ele>79</ele>
      </trkpt>
      <trkpt lat="49.24836" lon="4.02559">
        <ele>76</ele>
      </trkpt>
      <trkpt lat="49.24559" lon="4.02958">
        <ele>78</ele>
      </trkpt>
      <trkpt lat="49.24171" lon="4.03523">
        <ele>81</ele>
      </trkpt>
      <trkpt lat="49.2352" lon="4.04227">
        <ele>83</ele>
      </trkpt>
      <trkpt lat="49.23394" lon="4.04427">
        <ele>81</ele>
      </trkpt>
      <trkpt lat="49.23136" lon="4.05381">
        <ele>84</ele>
      </trkpt>
      <trkpt lat="49.22864" lon="4.06571">
        <ele>85</ele>
      </trkpt>
      <trkpt lat="49.22751" lon="4.07053">
        <ele>84</ele>
      </trkpt>
      <trkpt lat="49.23007" lon="4.07197">
        <ele>87</ele>
      </trkpt>
      <trkpt lat="49.22998" lon="4.07365">
        <ele>87</ele>
      </trkpt>
      <trkpt lat="49.22664" lon="4.08488">
        <ele>85</ele>
      </trkpt>
      <trkpt lat="49.22732" lon="4.08607">
        <ele>87</ele>
      </trkpt>
      <trkpt lat="49.22923" lon="4.08761">
        <ele>90</ele>
      </trkpt>
      <trkpt lat="49.2302" lon="4.0883">
        <ele>95</ele>
      </trkpt>
      <trkpt lat="49.23075" lon="4.08676">
        <ele>96</ele>
      </trkpt>
    </trkseg>
  </trk>
  <trk>
    <name><![CDATA[13 - REIMS AMBONNAY 26.0 KM]]></name>
    <extensions>
      <line xmlns="http://www.topografix.com/GPX/gpx_style/0/2">
        <color>880088</color>
        <width>4</width>
      </line>
    </extensions>
    <trkseg>
      <trkpt lat="49.23079" lon="4.08674">
        <ele>96</ele>
      </trkpt>
      <trkpt lat="49.23026" lon="4.08854">
        <ele>95</ele>
      </trkpt>
      <trkpt lat="49.22861" lon="4.0871">
        <ele>89</ele>
      </trkpt>
      <trkpt lat="49.22726" lon="4.08615">
        <ele>87</ele>
      </trkpt>
      <trkpt lat="49.22667" lon="4.0853">
        <ele>85</ele>
      </trkpt>
      <trkpt lat="49.22656" lon="4.09128">
        <ele>88</ele>
      </trkpt>
      <trkpt lat="49.22488" lon="4.09677">
        <ele>86</ele>
      </trkpt>
      <trkpt lat="49.22253" lon="4.09502">
        <ele>83</ele>
      </trkpt>
      <trkpt lat="49.22144" lon="4.09821">
        <ele>83</ele>
      </trkpt>
      <trkpt lat="49.21891" lon="4.10366">
        <ele>84</ele>
      </trkpt>
      <trkpt lat="49.217" lon="4.10798">
        <ele>85</ele>
      </trkpt>
      <trkpt lat="49.21339" lon="4.11333">
        <ele>86</ele>
      </trkpt>
      <trkpt lat="49.21115" lon="4.1163">
        <ele>83</ele>
      </trkpt>
      <trkpt lat="49.20854" lon="4.12386">
        <ele>86</ele>
      </trkpt>
      <trkpt lat="49.20817" lon="4.12402">
        <ele>86</ele>
      </trkpt>
      <trkpt lat="49.20836" lon="4.12483">
        <ele>86</ele>
      </trkpt>
      <trkpt lat="49.20624" lon="4.13166">
        <ele>86</ele>
      </trkpt>
      <trkpt lat="49.20528" lon="4.13414">
        <ele>86</ele>
      </trkpt>
      <trkpt lat="49.20388" lon="4.13554">
        <ele>84</ele>
      </trkpt>
      <trkpt lat="49.19929" lon="4.13646">
        <ele>90</ele>
      </trkpt>
      <trkpt lat="49.19903" lon="4.13569">
        <ele>88</ele>
      </trkpt>
      <trkpt lat="49.19703" lon="4.13687">
        <ele>88</ele>
      </trkpt>
      <trkpt lat="49.19635" lon="4.13572">
        <ele>89</ele>
      </trkpt>
      <trkpt lat="49.19608" lon="4.13702">
        <ele>89</ele>
      </trkpt>
      <trkpt lat="49.19102" lon="4.13362">
        <ele>89</ele>
      </trkpt>
      <trkpt lat="49.18947" lon="4.13185">
        <ele>92</ele>
      </trkpt>
      <trkpt lat="49.18397" lon="4.12771">
        <ele>95</ele>
      </trkpt>
      <trkpt lat="49.18233" lon="4.12524">
        <ele>97</ele>
      </trkpt>
      <trkpt lat="49.17996" lon="4.12299">
        <ele>100</ele>
      </trkpt>
      <trkpt lat="49.17709" lon="4.12679">
        <ele>120</ele>
      </trkpt>
      <trkpt lat="49.17627" lon="4.12863">
        <ele>119</ele>
      </trkpt>
      <trkpt lat="49.17543" lon="4.12911">
        <ele>119</ele>
      </trkpt>
      <trkpt lat="49.1742" lon="4.13048">
        <ele>127</ele>
      </trkpt>
      <trkpt lat="49.17304" lon="4.1314">
        <ele>137</ele>
      </trkpt>
      <trkpt lat="49.16927" lon="4.13779">
        <ele>156</ele>
      </trkpt>
      <trkpt lat="49.16929" lon="4.13668">
        <ele>156</ele>
      </trkpt>
      <trkpt lat="49.16823" lon="4.13661">
        <ele>162</ele>
      </trkpt>
      <trkpt lat="49.16577" lon="4.13683">
        <ele>180</ele>
      </trkpt>
      <trkpt lat="49.16468" lon="4.13646">
        <ele>187</ele>
      </trkpt>
      <trkpt lat="49.16326" lon="4.13532">
        <ele>200</ele>
      </trkpt>
      <trkpt lat="49.16118" lon="4.13561">
        <ele>209</ele>
      </trkpt>
      <trkpt lat="49.16065" lon="4.13476">
        <ele>211</ele>
      </trkpt>
      <trkpt lat="49.16007" lon="4.13506">
        <ele>213</ele>
      </trkpt>
      <trkpt lat="49.1592" lon="4.13473">
        <ele>222</ele>
      </trkpt>
      <trkpt lat="49.1586" lon="4.13547">
        <ele>230</ele>
      </trkpt>
      <trkpt lat="49.15843" lon="4.1375">
        <ele>220</ele>
      </trkpt>
      <trkpt lat="49.15754" lon="4.13993">
        <ele>219</ele>
      </trkpt>
      <trkpt lat="49.15785" lon="4.14049">
        <ele>209</ele>
      </trkpt>
      <trkpt lat="49.15715" lon="4.1423">
        <ele>210</ele>
      </trkpt>
      <trkpt lat="49.15734" lon="4.14311">
        <ele>205</ele>
      </trkpt>
      <trkpt lat="49.15816" lon="4.14422">
        <ele>193</ele>
      </trkpt>
      <trkpt lat="49.15771" lon="4.14488">
        <ele>197</ele>
      </trkpt>
      <trkpt lat="49.15623" lon="4.15046">
        <ele>216</ele>
      </trkpt>
      <trkpt lat="49.15575" lon="4.15057">
        <ele>227</ele>
      </trkpt>
      <trkpt lat="49.15551" lon="4.15171">
        <ele>222</ele>
      </trkpt>
      <trkpt lat="49.15488" lon="4.15241">
        <ele>218</ele>
      </trkpt>
      <trkpt lat="49.15162" lon="4.15182">
        <ele>233</ele>
      </trkpt>
      <trkpt lat="49.14947" lon="4.153">
        <ele>233</ele>
      </trkpt>
      <trkpt lat="49.14875" lon="4.15455">
        <ele>238</ele>
      </trkpt>
      <trkpt lat="49.14913" lon="4.15695">
        <ele>222</ele>
      </trkpt>
      <trkpt lat="49.15017" lon="4.15843">
        <ele>206</ele>
      </trkpt>
      <trkpt lat="49.14995" lon="4.15954">
        <ele>205</ele>
      </trkpt>
      <trkpt lat="49.14949" lon="4.15983">
        <ele>204</ele>
      </trkpt>
      <trkpt lat="49.14858" lon="4.15946">
        <ele>208</ele>
      </trkpt>
      <trkpt lat="49.14742" lon="4.15965">
        <ele>210</ele>
      </trkpt>
      <trkpt lat="49.14611" lon="4.15887">
        <ele>222</ele>
      </trkpt>
      <trkpt lat="49.14515" lon="4.15943">
        <ele>223</ele>
      </trkpt>
      <trkpt lat="49.1443" lon="4.1612">
        <ele>211</ele>
      </trkpt>
      <trkpt lat="49.14334" lon="4.1622">
        <ele>208</ele>
      </trkpt>
      <trkpt lat="49.14285" lon="4.16364">
        <ele>214</ele>
      </trkpt>
      <trkpt lat="49.14283" lon="4.16504">
        <ele>217</ele>
      </trkpt>
      <trkpt lat="49.14213" lon="4.16755">
        <ele>203</ele>
      </trkpt>
      <trkpt lat="49.14227" lon="4.16929">
        <ele>199</ele>
      </trkpt>
      <trkpt lat="49.14114" lon="4.1708">
        <ele>196</ele>
      </trkpt>
      <trkpt lat="49.13933" lon="4.17135">
        <ele>199</ele>
      </trkpt>
      <trkpt lat="49.13841" lon="4.17228">
        <ele>198</ele>
      </trkpt>
      <trkpt lat="49.13672" lon="4.17316">
        <ele>208</ele>
      </trkpt>
      <trkpt lat="49.13636" lon="4.17468">
        <ele>205</ele>
      </trkpt>
      <trkpt lat="49.13672" lon="4.17903">
        <ele>197</ele>
      </trkpt>
      <trkpt lat="49.13616" lon="4.18029">
        <ele>193</ele>
      </trkpt>
      <trkpt lat="49.13495" lon="4.18095">
        <ele>197</ele>
      </trkpt>
      <trkpt lat="49.13447" lon="4.18686">
        <ele>180</ele>
      </trkpt>
      <trkpt lat="49.13392" lon="4.18756">
        <ele>176</ele>
      </trkpt>
      <trkpt lat="49.13085" lon="4.18886">
        <ele>176</ele>
      </trkpt>
      <trkpt lat="49.12932" lon="4.18863">
        <ele>187</ele>
      </trkpt>
      <trkpt lat="49.12819" lon="4.18941">
        <ele>192</ele>
      </trkpt>
      <trkpt lat="49.12684" lon="4.19096">
        <ele>190</ele>
      </trkpt>
      <trkpt lat="49.12575" lon="4.19055">
        <ele>191</ele>
      </trkpt>
      <trkpt lat="49.12483" lon="4.18889">
        <ele>197</ele>
      </trkpt>
      <trkpt lat="49.12374" lon="4.18819">
        <ele>201</ele>
      </trkpt>
      <trkpt lat="49.12285" lon="4.18719">
        <ele>205</ele>
      </trkpt>
      <trkpt lat="49.12174" lon="4.18775">
        <ele>204</ele>
      </trkpt>
      <trkpt lat="49.12145" lon="4.19078">
        <ele>196</ele>
      </trkpt>
      <trkpt lat="49.12072" lon="4.19181">
        <ele>199</ele>
      </trkpt>
      <trkpt lat="49.11821" lon="4.19203">
        <ele>198</ele>
      </trkpt>
      <trkpt lat="49.11744" lon="4.19299">
        <ele>189</ele>
      </trkpt>
      <trkpt lat="49.11753" lon="4.19439">
        <ele>195</ele>
      </trkpt>
      <trkpt lat="49.11794" lon="4.19639">
        <ele>187</ele>
      </trkpt>
      <trkpt lat="49.11736" lon="4.19757">
        <ele>189</ele>
      </trkpt>
      <trkpt lat="49.11565" lon="4.19827">
        <ele>184</ele>
      </trkpt>
      <trkpt lat="49.11642" lon="4.19905">
        <ele>185</ele>
      </trkpt>
      <trkpt lat="49.11577" lon="4.20119">
        <ele>188</ele>
      </trkpt>
      <trkpt lat="49.11316" lon="4.20108">
        <ele>186</ele>
      </trkpt>
      <trkpt lat="49.10651" lon="4.20521">
        <ele>154</ele>
      </trkpt>
      <trkpt lat="49.10576" lon="4.20491">
        <ele>150</ele>
      </trkpt>
      <trkpt lat="49.10515" lon="4.20107">
        <ele>150</ele>
      </trkpt>
      <trkpt lat="49.10106" lon="4.19821">
        <ele>143</ele>
      </trkpt>
      <trkpt lat="49.09919" lon="4.19723">
        <ele>135</ele>
      </trkpt>
      <trkpt lat="49.09725" lon="4.19602">
        <ele>133</ele>
      </trkpt>
      <trkpt lat="49.09481" lon="4.19053">
        <ele>129</ele>
      </trkpt>
      <trkpt lat="49.08834" lon="4.18159">
        <ele>126</ele>
      </trkpt>
      <trkpt lat="49.08245" lon="4.17567">
        <ele>100</ele>
      </trkpt>
      <trkpt lat="49.08112" lon="4.17704">
        <ele>99</ele>
      </trkpt>
      <trkpt lat="49.07939" lon="4.17485">
        <ele>98</ele>
      </trkpt>
      <trkpt lat="49.0786" lon="4.17342">
        <ele>99</ele>
      </trkpt>
      <trkpt lat="49.07801" lon="4.17255">
        <ele>101</ele>
      </trkpt>
      <trkpt lat="49.0775" lon="4.17157">
        <ele>102</ele>
      </trkpt>
      <trkpt lat="49.07738" lon="4.17183">
        <ele>102</ele>
      </trkpt>
    </trkseg>
  </trk>
  <trk>
    <name><![CDATA[14 - AMBONNAY ST MARTIN SUR LE PRE 22.2 KM]]></name>
    <extensions>
      <line xmlns="http://www.topografix.com/GPX/gpx_style/0/2">
        <color>0000FF</color>
        <width>4</width>
      </line>
    </extensions>
    <trkseg>
      <trkpt lat="49.07724" lon="4.17202">
        <ele>101</ele>
      </trkpt>
      <trkpt lat="49.07505" lon="4.17565">
        <ele>98</ele>
      </trkpt>
      <trkpt lat="49.07314" lon="4.17386">
        <ele>104</ele>
      </trkpt>
      <trkpt lat="49.06501" lon="4.17473">
        <ele>102</ele>
      </trkpt>
      <trkpt lat="49.0606" lon="4.17706">
        <ele>100</ele>
      </trkpt>
      <trkpt lat="49.05408" lon="4.17749">
        <ele>82</ele>
      </trkpt>
      <trkpt lat="49.04771" lon="4.17978">
        <ele>79</ele>
      </trkpt>
      <trkpt lat="49.04675" lon="4.1784">
        <ele>82</ele>
      </trkpt>
      <trkpt lat="49.04394" lon="4.17706">
        <ele>79</ele>
      </trkpt>
      <trkpt lat="49.04278" lon="4.17667">
        <ele>74</ele>
      </trkpt>
      <trkpt lat="49.04255" lon="4.17719">
        <ele>73</ele>
      </trkpt>
      <trkpt lat="49.04185" lon="4.17693">
        <ele>73</ele>
      </trkpt>
      <trkpt lat="49.04176" lon="4.17775">
        <ele>73</ele>
      </trkpt>
      <trkpt lat="49.03301" lon="4.19923">
        <ele>74</ele>
      </trkpt>
      <trkpt lat="49.02915" lon="4.20843">
        <ele>74</ele>
      </trkpt>
      <trkpt lat="49.02142" lon="4.22697">
        <ele>75</ele>
      </trkpt>
      <trkpt lat="49.02187" lon="4.22797">
        <ele>76</ele>
      </trkpt>
      <trkpt lat="49.02284" lon="4.23069">
        <ele>75</ele>
      </trkpt>
      <trkpt lat="49.0242" lon="4.23276">
        <ele>75</ele>
      </trkpt>
      <trkpt lat="49.02578" lon="4.23449">
        <ele>77</ele>
      </trkpt>
      <trkpt lat="49.02502" lon="4.23639">
        <ele>77</ele>
      </trkpt>
      <trkpt lat="49.02476" lon="4.2376">
        <ele>77</ele>
      </trkpt>
      <trkpt lat="49.02451" lon="4.24136">
        <ele>77</ele>
      </trkpt>
      <trkpt lat="49.02417" lon="4.24231">
        <ele>76</ele>
      </trkpt>
      <trkpt lat="49.02264" lon="4.24482">
        <ele>77</ele>
      </trkpt>
      <trkpt lat="49.02213" lon="4.24603">
        <ele>80</ele>
      </trkpt>
      <trkpt lat="49.02102" lon="4.25212">
        <ele>78</ele>
      </trkpt>
      <trkpt lat="49.02213" lon="4.25312">
        <ele>79</ele>
      </trkpt>
      <trkpt lat="49.02113" lon="4.25528">
        <ele>77</ele>
      </trkpt>
      <trkpt lat="49.02054" lon="4.25459">
        <ele>76</ele>
      </trkpt>
      <trkpt lat="49.02" lon="4.25454">
        <ele>75</ele>
      </trkpt>
      <trkpt lat="49.01941" lon="4.25381">
        <ele>75</ele>
      </trkpt>
      <trkpt lat="49.01785" lon="4.25355">
        <ele>77</ele>
      </trkpt>
      <trkpt lat="49.0172" lon="4.25385">
        <ele>77</ele>
      </trkpt>
      <trkpt lat="49.0168" lon="4.25338">
        <ele>78</ele>
      </trkpt>
      <trkpt lat="49.01221" lon="4.25277">
        <ele>77</ele>
      </trkpt>
      <trkpt lat="49.0113" lon="4.25355">
        <ele>75</ele>
      </trkpt>
      <trkpt lat="49.00929" lon="4.25826">
        <ele>77</ele>
      </trkpt>
      <trkpt lat="49.00543" lon="4.26759">
        <ele>77</ele>
      </trkpt>
      <trkpt lat="49.00767" lon="4.27006">
        <ele>79</ele>
      </trkpt>
      <trkpt lat="49.00569" lon="4.27144">
        <ele>76</ele>
      </trkpt>
      <trkpt lat="49.00385" lon="4.27541">
        <ele>76</ele>
      </trkpt>
      <trkpt lat="48.99982" lon="4.28185">
        <ele>76</ele>
      </trkpt>
      <trkpt lat="48.99897" lon="4.28458">
        <ele>76</ele>
      </trkpt>
      <trkpt lat="48.99457" lon="4.29538">
        <ele>79</ele>
      </trkpt>
      <trkpt lat="48.99389" lon="4.29555">
        <ele>78</ele>
      </trkpt>
      <trkpt lat="48.99353" lon="4.29642">
        <ele>78</ele>
      </trkpt>
      <trkpt lat="48.99296" lon="4.29849">
        <ele>78</ele>
      </trkpt>
      <trkpt lat="48.99077" lon="4.3029">
        <ele>76</ele>
      </trkpt>
      <trkpt lat="48.98802" lon="4.31003">
        <ele>78</ele>
      </trkpt>
      <trkpt lat="48.98737" lon="4.30947">
        <ele>78</ele>
      </trkpt>
      <trkpt lat="48.984" lon="4.31746">
        <ele>78</ele>
      </trkpt>
      <trkpt lat="48.98255" lon="4.32109">
        <ele>78</ele>
      </trkpt>
      <trkpt lat="48.98054" lon="4.32593">
        <ele>81</ele>
      </trkpt>
      <trkpt lat="48.97923" lon="4.32913">
        <ele>79</ele>
      </trkpt>
      <trkpt lat="48.97472" lon="4.33483">
        <ele>76</ele>
      </trkpt>
      <trkpt lat="48.9741" lon="4.33514">
        <ele>75</ele>
      </trkpt>
      <trkpt lat="48.9756" lon="4.33738">
        <ele>79</ele>
      </trkpt>
      <trkpt lat="48.97608" lon="4.33712">
        <ele>79</ele>
      </trkpt>
      <trkpt lat="48.97671" lon="4.33807">
        <ele>81</ele>
      </trkpt>
      <trkpt lat="48.97813" lon="4.33933">
        <ele>83</ele>
      </trkpt>
      <trkpt lat="48.98227" lon="4.34711">
        <ele>87</ele>
      </trkpt>
      <trkpt lat="48.97846" lon="4.35166">
        <ele>89</ele>
      </trkpt>
      <trkpt lat="48.97854" lon="4.35221">
        <ele>88</ele>
      </trkpt>
      <trkpt lat="48.97982" lon="4.35472">
        <ele>93</ele>
      </trkpt>
      <trkpt lat="48.98036" lon="4.35633">
        <ele>93</ele>
      </trkpt>
      <trkpt lat="48.9801" lon="4.35677">
        <ele>92</ele>
      </trkpt>
    </trkseg>
  </trk>
  <trk>
    <name><![CDATA[15 - St Martin sur le pré la chaussée sur Marne 27.2 km]]></name>
    <extensions>
      <line xmlns="http://www.topografix.com/GPX/gpx_style/0/2">
        <color>00FF00</color>
        <width>4</width>
      </line>
    </extensions>
    <trkseg>
      <trkpt lat="48.98009" lon="4.35678">
        <ele>92</ele>
        <time>2021-11-02T15:26:40+01:00</time>
      </trkpt>
      <trkpt lat="48.97944" lon="4.35669">
        <ele>89</ele>
        <time>2021-11-02T15:26:45+01:00</time>
      </trkpt>
      <trkpt lat="48.97864" lon="4.35525">
        <ele>88</ele>
        <time>2021-11-02T15:26:50+01:00</time>
      </trkpt>
      <trkpt lat="48.97476" lon="4.35827">
        <ele>90</ele>
        <time>2021-11-02T15:26:55+01:00</time>
      </trkpt>
      <trkpt lat="48.96382" lon="4.36671">
        <ele>89</ele>
        <time>2021-11-02T15:27:00+01:00</time>
      </trkpt>
      <trkpt lat="48.96276" lon="4.36622">
        <ele>89</ele>
        <time>2021-11-02T15:27:05+01:00</time>
      </trkpt>
      <trkpt lat="48.96231" lon="4.3664">
        <ele>87</ele>
        <time>2021-11-02T15:27:10+01:00</time>
      </trkpt>
      <trkpt lat="48.96065" lon="4.36148">
        <ele>85</ele>
        <time>2021-11-02T15:27:15+01:00</time>
      </trkpt>
      <trkpt lat="48.95967" lon="4.35958">
        <ele>82</ele>
        <time>2021-11-02T15:27:20+01:00</time>
      </trkpt>
      <trkpt lat="48.9592" lon="4.35836">
        <ele>82</ele>
        <time>2021-11-02T15:27:25+01:00</time>
      </trkpt>
      <trkpt lat="48.95671" lon="4.35593">
        <ele>83</ele>
        <time>2021-11-02T15:27:30+01:00</time>
      </trkpt>
      <trkpt lat="48.95597" lon="4.35534">
        <ele>84</ele>
        <time>2021-11-02T15:27:35+01:00</time>
      </trkpt>
      <trkpt lat="48.95523" lon="4.35579">
        <ele>86</ele>
        <time>2021-11-02T15:27:40+01:00</time>
      </trkpt>
      <trkpt lat="48.95461" lon="4.35245">
        <ele>83</ele>
        <time>2021-11-02T15:27:45+01:00</time>
      </trkpt>
      <trkpt lat="48.95111" lon="4.35403">
        <ele>80</ele>
        <time>2021-11-02T15:27:50+01:00</time>
      </trkpt>
      <trkpt lat="48.95013" lon="4.35502">
        <ele>80</ele>
        <time>2021-11-02T15:27:55+01:00</time>
      </trkpt>
      <trkpt lat="48.94806" lon="4.3562">
        <ele>84</ele>
        <time>2021-11-02T15:28:00+01:00</time>
      </trkpt>
      <trkpt lat="48.94195" lon="4.35358">
        <ele>84</ele>
        <time>2021-11-02T15:28:05+01:00</time>
      </trkpt>
      <trkpt lat="48.93988" lon="4.35353">
        <ele>83</ele>
        <time>2021-11-02T15:28:10+01:00</time>
      </trkpt>
      <trkpt lat="48.93715" lon="4.35574">
        <ele>81</ele>
        <time>2021-11-02T15:28:15+01:00</time>
      </trkpt>
      <trkpt lat="48.93531" lon="4.35547">
        <ele>82</ele>
        <time>2021-11-02T15:28:20+01:00</time>
      </trkpt>
      <trkpt lat="48.9349" lon="4.35611">
        <ele>81</ele>
        <time>2021-11-02T15:28:25+01:00</time>
      </trkpt>
      <trkpt lat="48.9343" lon="4.35561">
        <ele>80</ele>
        <time>2021-11-02T15:28:30+01:00</time>
      </trkpt>
      <trkpt lat="48.9319" lon="4.35728">
        <ele>81</ele>
        <time>2021-11-02T15:28:35+01:00</time>
      </trkpt>
      <trkpt lat="48.93054" lon="4.35917">
        <ele>81</ele>
        <time>2021-11-02T15:28:40+01:00</time>
      </trkpt>
      <trkpt lat="48.92683" lon="4.36251">
        <ele>81</ele>
        <time>2021-11-02T15:28:45+01:00</time>
      </trkpt>
      <trkpt lat="48.92309" lon="4.36856">
        <ele>80</ele>
        <time>2021-11-02T15:28:50+01:00</time>
      </trkpt>
      <trkpt lat="48.9206" lon="4.37186">
        <ele>80</ele>
        <time>2021-11-02T15:28:55+01:00</time>
      </trkpt>
      <trkpt lat="48.92016" lon="4.37425">
        <ele>80</ele>
        <time>2021-11-02T15:29:00+01:00</time>
      </trkpt>
      <trkpt lat="48.92203" lon="4.37714">
        <ele>79</ele>
        <time>2021-11-02T15:29:05+01:00</time>
      </trkpt>
      <trkpt lat="48.91948" lon="4.3817">
        <ele>84</ele>
        <time>2021-11-02T15:29:10+01:00</time>
      </trkpt>
      <trkpt lat="48.91885" lon="4.38061">
        <ele>81</ele>
        <time>2021-11-02T15:29:15+01:00</time>
      </trkpt>
      <trkpt lat="48.91805" lon="4.38197">
        <ele>84</ele>
        <time>2021-11-02T15:29:20+01:00</time>
      </trkpt>
      <trkpt lat="48.9177" lon="4.38147">
        <ele>83</ele>
        <time>2021-11-02T15:29:25+01:00</time>
      </trkpt>
      <trkpt lat="48.91426" lon="4.38445">
        <ele>82</ele>
        <time>2021-11-02T15:29:30+01:00</time>
      </trkpt>
      <trkpt lat="48.91491" lon="4.38562">
        <ele>81</ele>
        <time>2021-11-02T15:29:35+01:00</time>
      </trkpt>
      <trkpt lat="48.91429" lon="4.38761">
        <ele>82</ele>
        <time>2021-11-02T15:29:40+01:00</time>
      </trkpt>
      <trkpt lat="48.9109" lon="4.38995">
        <ele>81</ele>
        <time>2021-11-02T15:29:45+01:00</time>
      </trkpt>
      <trkpt lat="48.90835" lon="4.39357">
        <ele>84</ele>
        <time>2021-11-02T15:29:50+01:00</time>
      </trkpt>
      <trkpt lat="48.90883" lon="4.39451">
        <ele>82</ele>
        <time>2021-11-02T15:29:55+01:00</time>
      </trkpt>
      <trkpt lat="48.90634" lon="4.39867">
        <ele>83</ele>
        <time>2021-11-02T15:30:00+01:00</time>
      </trkpt>
      <trkpt lat="48.9077" lon="4.40164">
        <ele>82</ele>
        <time>2021-11-02T15:30:05+01:00</time>
      </trkpt>
      <trkpt lat="48.90758" lon="4.4071">
        <ele>83</ele>
        <time>2021-11-02T15:30:10+01:00</time>
      </trkpt>
      <trkpt lat="48.90423" lon="4.40977">
        <ele>81</ele>
        <time>2021-11-02T15:30:15+01:00</time>
      </trkpt>
      <trkpt lat="48.90479" lon="4.41117">
        <ele>83</ele>
        <time>2021-11-02T15:30:20+01:00</time>
      </trkpt>
      <trkpt lat="48.90126" lon="4.41442">
        <ele>82</ele>
        <time>2021-11-02T15:30:25+01:00</time>
      </trkpt>
      <trkpt lat="48.89978" lon="4.40999">
        <ele>83</ele>
        <time>2021-11-02T15:30:30+01:00</time>
      </trkpt>
      <trkpt lat="48.89687" lon="4.41252">
        <ele>85</ele>
        <time>2021-11-02T15:30:35+01:00</time>
      </trkpt>
      <trkpt lat="48.89494" lon="4.41351">
        <ele>83</ele>
        <time>2021-11-02T15:30:40+01:00</time>
      </trkpt>
      <trkpt lat="48.89488" lon="4.4141">
        <ele>83</ele>
        <time>2021-11-02T15:30:45+01:00</time>
      </trkpt>
      <trkpt lat="48.8934" lon="4.41478">
        <ele>86</ele>
        <time>2021-11-02T15:30:50+01:00</time>
      </trkpt>
      <trkpt lat="48.89379" lon="4.416">
        <ele>84</ele>
        <time>2021-11-02T15:30:55+01:00</time>
      </trkpt>
      <trkpt lat="48.89275" lon="4.41658">
        <ele>87</ele>
        <time>2021-11-02T15:31:00+01:00</time>
      </trkpt>
      <trkpt lat="48.89304" lon="4.41767">
        <ele>83</ele>
        <time>2021-11-02T15:31:05+01:00</time>
      </trkpt>
      <trkpt lat="48.89195" lon="4.41825">
        <ele>83</ele>
        <time>2021-11-02T15:31:10+01:00</time>
      </trkpt>
      <trkpt lat="48.89171" lon="4.41965">
        <ele>82</ele>
        <time>2021-11-02T15:31:15+01:00</time>
      </trkpt>
      <trkpt lat="48.8926" lon="4.42064">
        <ele>83</ele>
        <time>2021-11-02T15:31:20+01:00</time>
      </trkpt>
      <trkpt lat="48.8931" lon="4.42272">
        <ele>83</ele>
        <time>2021-11-02T15:31:25+01:00</time>
      </trkpt>
      <trkpt lat="48.89388" lon="4.42412">
        <ele>82</ele>
        <time>2021-11-02T15:31:30+01:00</time>
      </trkpt>
      <trkpt lat="48.88842" lon="4.42796">
        <ele>84</ele>
        <time>2021-11-02T15:31:35+01:00</time>
      </trkpt>
      <trkpt lat="48.88785" lon="4.42999">
        <ele>84</ele>
        <time>2021-11-02T15:31:40+01:00</time>
      </trkpt>
      <trkpt lat="48.88919" lon="4.43265">
        <ele>85</ele>
        <time>2021-11-02T15:31:45+01:00</time>
      </trkpt>
      <trkpt lat="48.88322" lon="4.43992">
        <ele>87</ele>
        <time>2021-11-02T15:31:50+01:00</time>
      </trkpt>
      <trkpt lat="48.88186" lon="4.44109">
        <ele>86</ele>
        <time>2021-11-02T15:31:55+01:00</time>
      </trkpt>
      <trkpt lat="48.88055" lon="4.44154">
        <ele>85</ele>
        <time>2021-11-02T15:32:00+01:00</time>
      </trkpt>
      <trkpt lat="48.87773" lon="4.44578">
        <ele>85</ele>
        <time>2021-11-02T15:32:05+01:00</time>
      </trkpt>
      <trkpt lat="48.87556" lon="4.44294">
        <ele>83</ele>
        <time>2021-11-02T15:32:10+01:00</time>
      </trkpt>
      <trkpt lat="48.87369" lon="4.44538">
        <ele>84</ele>
        <time>2021-11-02T15:32:15+01:00</time>
      </trkpt>
      <trkpt lat="48.87551" lon="4.44863">
        <ele>85</ele>
        <time>2021-11-02T15:32:20+01:00</time>
      </trkpt>
      <trkpt lat="48.87292" lon="4.45169">
        <ele>87</ele>
        <time>2021-11-02T15:32:25+01:00</time>
      </trkpt>
      <trkpt lat="48.87224" lon="4.45273">
        <ele>87</ele>
        <time>2021-11-02T15:32:30+01:00</time>
      </trkpt>
      <trkpt lat="48.87168" lon="4.45454">
        <ele>87</ele>
        <time>2021-11-02T15:32:35+01:00</time>
      </trkpt>
      <trkpt lat="48.86987" lon="4.45711">
        <ele>86</ele>
        <time>2021-11-02T15:32:40+01:00</time>
      </trkpt>
      <trkpt lat="48.86877" lon="4.45973">
        <ele>85</ele>
        <time>2021-11-02T15:32:45+01:00</time>
      </trkpt>
      <trkpt lat="48.86381" lon="4.4725">
        <ele>86</ele>
        <time>2021-11-02T15:32:50+01:00</time>
      </trkpt>
      <trkpt lat="48.8606" lon="4.47679">
        <ele>86</ele>
        <time>2021-11-02T15:32:55+01:00</time>
      </trkpt>
      <trkpt lat="48.85656" lon="4.4804">
        <ele>88</ele>
        <time>2021-11-02T15:33:00+01:00</time>
      </trkpt>
      <trkpt lat="48.85594" lon="4.47909">
        <ele>86</ele>
        <time>2021-11-02T15:33:05+01:00</time>
      </trkpt>
      <trkpt lat="48.85505" lon="4.47927">
        <ele>87</ele>
        <time>2021-11-02T15:33:10+01:00</time>
      </trkpt>
      <trkpt lat="48.85217" lon="4.47602">
        <ele>88</ele>
        <time>2021-11-02T15:33:15+01:00</time>
      </trkpt>
      <trkpt lat="48.84997" lon="4.47846">
        <ele>85</ele>
        <time>2021-11-02T15:33:20+01:00</time>
      </trkpt>
      <trkpt lat="48.84682" lon="4.47661">
        <ele>88</ele>
        <time>2021-11-02T15:33:25+01:00</time>
      </trkpt>
      <trkpt lat="48.84471" lon="4.48067">
        <ele>88</ele>
        <time>2021-11-02T15:33:30+01:00</time>
      </trkpt>
      <trkpt lat="48.84439" lon="4.48266">
        <ele>89</ele>
        <time>2021-11-02T15:33:35+01:00</time>
      </trkpt>
      <trkpt lat="48.84457" lon="4.48496">
        <ele>87</ele>
        <time>2021-11-02T15:33:40+01:00</time>
      </trkpt>
      <trkpt lat="48.84388" lon="4.48649">
        <ele>85</ele>
        <time>2021-11-02T15:33:45+01:00</time>
      </trkpt>
      <trkpt lat="48.84305" lon="4.49177">
        <ele>88</ele>
        <time>2021-11-02T15:33:50+01:00</time>
      </trkpt>
      <trkpt lat="48.83785" lon="4.50035">
        <ele>87</ele>
        <time>2021-11-02T15:33:55+01:00</time>
      </trkpt>
      <trkpt lat="48.83467" lon="4.50369">
        <ele>87</ele>
        <time>2021-11-02T15:34:00+01:00</time>
      </trkpt>
      <trkpt lat="48.83328" lon="4.50477">
        <ele>89</ele>
        <time>2021-11-02T15:34:05+01:00</time>
      </trkpt>
      <trkpt lat="48.83429" lon="4.50694">
        <ele>87</ele>
        <time>2021-11-02T15:34:10+01:00</time>
      </trkpt>
      <trkpt lat="48.83512" lon="4.51158">
        <ele>90</ele>
        <time>2021-11-02T15:34:15+01:00</time>
      </trkpt>
      <trkpt lat="48.83441" lon="4.51474">
        <ele>93</ele>
        <time>2021-11-02T15:34:20+01:00</time>
      </trkpt>
      <trkpt lat="48.83456" lon="4.51768">
        <ele>95</ele>
        <time>2021-11-02T15:34:25+01:00</time>
      </trkpt>
      <trkpt lat="48.83429" lon="4.51872">
        <ele>96</ele>
        <time>2021-11-02T15:34:30+01:00</time>
      </trkpt>
      <trkpt lat="48.83221" lon="4.5184">
        <ele>91</ele>
        <time>2021-11-02T15:34:35+01:00</time>
      </trkpt>
    </trkseg>
  </trk>
  <trk>
    <name><![CDATA[16 * La Chaussée sur Marne Vitry le François 21.5 km]]></name>
    <extensions>
      <line xmlns="http://www.topografix.com/GPX/gpx_style/0/2">
        <color>FF0000</color>
        <width>4</width>
      </line>
    </extensions>
    <trkseg>
      <trkpt lat="48.83207" lon="4.5185">
        <ele>91</ele>
        <time>2021-11-04T16:08:59+01:00</time>
      </trkpt>
      <trkpt lat="48.83059" lon="4.5196">
        <ele>92</ele>
        <time>2021-11-04T16:09:04+01:00</time>
      </trkpt>
      <trkpt lat="48.83014" lon="4.52039">
        <ele>97</ele>
        <time>2021-11-04T16:09:09+01:00</time>
      </trkpt>
      <trkpt lat="48.82984" lon="4.52306">
        <ele>95</ele>
        <time>2021-11-04T16:09:14+01:00</time>
      </trkpt>
      <trkpt lat="48.82988" lon="4.52519">
        <ele>92</ele>
        <time>2021-11-04T16:09:19+01:00</time>
      </trkpt>
      <trkpt lat="48.82945" lon="4.52646">
        <ele>93</ele>
        <time>2021-11-04T16:09:24+01:00</time>
      </trkpt>
      <trkpt lat="48.82886" lon="4.52726">
        <ele>94</ele>
        <time>2021-11-04T16:09:29+01:00</time>
      </trkpt>
      <trkpt lat="48.82811" lon="4.5295">
        <ele>94</ele>
        <time>2021-11-04T16:09:34+01:00</time>
      </trkpt>
      <trkpt lat="48.8279" lon="4.53233">
        <ele>93</ele>
        <time>2021-11-04T16:09:39+01:00</time>
      </trkpt>
      <trkpt lat="48.82762" lon="4.53588">
        <ele>98</ele>
        <time>2021-11-04T16:09:44+01:00</time>
      </trkpt>
      <trkpt lat="48.82723" lon="4.53667">
        <ele>101</ele>
        <time>2021-11-04T16:09:49+01:00</time>
      </trkpt>
      <trkpt lat="48.82693" lon="4.53715">
        <ele>101</ele>
        <time>2021-11-04T16:09:54+01:00</time>
      </trkpt>
      <trkpt lat="48.82693" lon="4.53823">
        <ele>98</ele>
        <time>2021-11-04T16:09:59+01:00</time>
      </trkpt>
      <trkpt lat="48.82615" lon="4.53866">
        <ele>102</ele>
        <time>2021-11-04T16:10:04+01:00</time>
      </trkpt>
      <trkpt lat="48.8251" lon="4.54237">
        <ele>97</ele>
        <time>2021-11-04T16:10:09+01:00</time>
      </trkpt>
      <trkpt lat="48.82449" lon="4.54455">
        <ele>98</ele>
        <time>2021-11-04T16:10:14+01:00</time>
      </trkpt>
      <trkpt lat="48.82406" lon="4.54611">
        <ele>100</ele>
        <time>2021-11-04T16:10:19+01:00</time>
      </trkpt>
      <trkpt lat="48.82305" lon="4.54844">
        <ele>98</ele>
        <time>2021-11-04T16:10:24+01:00</time>
      </trkpt>
      <trkpt lat="48.82277" lon="4.5502">
        <ele>97</ele>
        <time>2021-11-04T16:10:29+01:00</time>
      </trkpt>
      <trkpt lat="48.82012" lon="4.55638">
        <ele>96</ele>
        <time>2021-11-04T16:10:34+01:00</time>
      </trkpt>
      <trkpt lat="48.81933" lon="4.55867">
        <ele>99</ele>
        <time>2021-11-04T16:10:39+01:00</time>
      </trkpt>
      <trkpt lat="48.81917" lon="4.56026">
        <ele>98</ele>
        <time>2021-11-04T16:10:44+01:00</time>
      </trkpt>
      <trkpt lat="48.81889" lon="4.56239">
        <ele>101</ele>
        <time>2021-11-04T16:10:49+01:00</time>
      </trkpt>
      <trkpt lat="48.81829" lon="4.56406">
        <ele>103</ele>
        <time>2021-11-04T16:10:54+01:00</time>
      </trkpt>
      <trkpt lat="48.81784" lon="4.56744">
        <ele>101</ele>
        <time>2021-11-04T16:10:59+01:00</time>
      </trkpt>
      <trkpt lat="48.81525" lon="4.57634">
        <ele>103</ele>
        <time>2021-11-04T16:11:04+01:00</time>
      </trkpt>
      <trkpt lat="48.81732" lon="4.57861">
        <ele>99</ele>
        <time>2021-11-04T16:11:09+01:00</time>
      </trkpt>
      <trkpt lat="48.81508" lon="4.58516">
        <ele>101</ele>
        <time>2021-11-04T16:11:14+01:00</time>
      </trkpt>
      <trkpt lat="48.8139" lon="4.58896">
        <ele>102</ele>
        <time>2021-11-04T16:11:19+01:00</time>
      </trkpt>
      <trkpt lat="48.81334" lon="4.58987">
        <ele>103</ele>
        <time>2021-11-04T16:11:24+01:00</time>
      </trkpt>
      <trkpt lat="48.81269" lon="4.59035">
        <ele>103</ele>
        <time>2021-11-04T16:11:29+01:00</time>
      </trkpt>
      <trkpt lat="48.81218" lon="4.59179">
        <ele>103</ele>
        <time>2021-11-04T16:11:34+01:00</time>
      </trkpt>
      <trkpt lat="48.81134" lon="4.59313">
        <ele>104</ele>
        <time>2021-11-04T16:11:39+01:00</time>
      </trkpt>
      <trkpt lat="48.81073" lon="4.59545">
        <ele>103</ele>
        <time>2021-11-04T16:11:44+01:00</time>
      </trkpt>
      <trkpt lat="48.8105" lon="4.59625">
        <ele>105</ele>
        <time>2021-11-04T16:11:49+01:00</time>
      </trkpt>
      <trkpt lat="48.81052" lon="4.59783">
        <ele>105</ele>
        <time>2021-11-04T16:11:54+01:00</time>
      </trkpt>
      <trkpt lat="48.81019" lon="4.59806">
        <ele>106</ele>
        <time>2021-11-04T16:11:59+01:00</time>
      </trkpt>
      <trkpt lat="48.80951" lon="4.60155">
        <ele>109</ele>
        <time>2021-11-04T16:12:04+01:00</time>
      </trkpt>
      <trkpt lat="48.80899" lon="4.60299">
        <ele>110</ele>
        <time>2021-11-04T16:12:09+01:00</time>
      </trkpt>
      <trkpt lat="48.80873" lon="4.60277">
        <ele>111</ele>
        <time>2021-11-04T16:12:14+01:00</time>
      </trkpt>
      <trkpt lat="48.80819" lon="4.60348">
        <ele>110</ele>
        <time>2021-11-04T16:12:19+01:00</time>
      </trkpt>
      <trkpt lat="48.80731" lon="4.60299">
        <ele>112</ele>
        <time>2021-11-04T16:12:24+01:00</time>
      </trkpt>
      <trkpt lat="48.80695" lon="4.60682">
        <ele>116</ele>
        <time>2021-11-04T16:12:29+01:00</time>
      </trkpt>
      <trkpt lat="48.80654" lon="4.60736">
        <ele>117</ele>
        <time>2021-11-04T16:12:34+01:00</time>
      </trkpt>
      <trkpt lat="48.80578" lon="4.60756">
        <ele>120</ele>
        <time>2021-11-04T16:12:39+01:00</time>
      </trkpt>
      <trkpt lat="48.80419" lon="4.60685">
        <ele>117</ele>
        <time>2021-11-04T16:12:44+01:00</time>
      </trkpt>
      <trkpt lat="48.80292" lon="4.60742">
        <ele>113</ele>
        <time>2021-11-04T16:12:49+01:00</time>
      </trkpt>
      <trkpt lat="48.80195" lon="4.60827">
        <ele>114</ele>
        <time>2021-11-04T16:12:54+01:00</time>
      </trkpt>
      <trkpt lat="48.80141" lon="4.60952">
        <ele>115</ele>
        <time>2021-11-04T16:12:59+01:00</time>
      </trkpt>
      <trkpt lat="48.79724" lon="4.61317">
        <ele>114</ele>
        <time>2021-11-04T16:13:04+01:00</time>
      </trkpt>
      <trkpt lat="48.79743" lon="4.61368">
        <ele>113</ele>
        <time>2021-11-04T16:13:09+01:00</time>
      </trkpt>
      <trkpt lat="48.795" lon="4.6174">
        <ele>123</ele>
        <time>2021-11-04T16:13:14+01:00</time>
      </trkpt>
      <trkpt lat="48.79448" lon="4.61921">
        <ele>122</ele>
        <time>2021-11-04T16:13:19+01:00</time>
      </trkpt>
      <trkpt lat="48.79399" lon="4.61884">
        <ele>124</ele>
        <time>2021-11-04T16:13:24+01:00</time>
      </trkpt>
      <trkpt lat="48.79211" lon="4.6208">
        <ele>118</ele>
        <time>2021-11-04T16:13:29+01:00</time>
      </trkpt>
      <trkpt lat="48.79007" lon="4.61768">
        <ele>120</ele>
        <time>2021-11-04T16:13:34+01:00</time>
      </trkpt>
      <trkpt lat="48.78865" lon="4.6168">
        <ele>125</ele>
        <time>2021-11-04T16:13:39+01:00</time>
      </trkpt>
      <trkpt lat="48.78617" lon="4.61723">
        <ele>126</ele>
        <time>2021-11-04T16:13:44+01:00</time>
      </trkpt>
      <trkpt lat="48.78346" lon="4.61751">
        <ele>122</ele>
        <time>2021-11-04T16:13:49+01:00</time>
      </trkpt>
      <trkpt lat="48.78245" lon="4.6174">
        <ele>124</ele>
        <time>2021-11-04T16:13:54+01:00</time>
      </trkpt>
      <trkpt lat="48.78009" lon="4.61836">
        <ele>131</ele>
        <time>2021-11-04T16:13:59+01:00</time>
      </trkpt>
      <trkpt lat="48.77636" lon="4.62154">
        <ele>125</ele>
        <time>2021-11-04T16:14:04+01:00</time>
      </trkpt>
      <trkpt lat="48.77389" lon="4.62355">
        <ele>125</ele>
        <time>2021-11-04T16:14:09+01:00</time>
      </trkpt>
      <trkpt lat="48.77253" lon="4.62415">
        <ele>128</ele>
        <time>2021-11-04T16:14:14+01:00</time>
      </trkpt>
      <trkpt lat="48.7695" lon="4.62497">
        <ele>137</ele>
        <time>2021-11-04T16:14:19+01:00</time>
      </trkpt>
      <trkpt lat="48.76583" lon="4.62579">
        <ele>142</ele>
        <time>2021-11-04T16:14:24+01:00</time>
      </trkpt>
      <trkpt lat="48.76234" lon="4.62639">
        <ele>144</ele>
        <time>2021-11-04T16:14:29+01:00</time>
      </trkpt>
      <trkpt lat="48.76036" lon="4.62676">
        <ele>153</ele>
        <time>2021-11-04T16:14:34+01:00</time>
      </trkpt>
      <trkpt lat="48.75983" lon="4.62718">
        <ele>156</ele>
        <time>2021-11-04T16:14:39+01:00</time>
      </trkpt>
      <trkpt lat="48.75939" lon="4.62783">
        <ele>158</ele>
        <time>2021-11-04T16:14:44+01:00</time>
      </trkpt>
      <trkpt lat="48.75761" lon="4.62914">
        <ele>158</ele>
        <time>2021-11-04T16:14:49+01:00</time>
      </trkpt>
      <trkpt lat="48.75606" lon="4.62911">
        <ele>151</ele>
        <time>2021-11-04T16:14:54+01:00</time>
      </trkpt>
      <trkpt lat="48.7544" lon="4.62792">
        <ele>143</ele>
        <time>2021-11-04T16:14:59+01:00</time>
      </trkpt>
      <trkpt lat="48.75286" lon="4.62738">
        <ele>132</ele>
        <time>2021-11-04T16:15:04+01:00</time>
      </trkpt>
      <trkpt lat="48.75219" lon="4.62766">
        <ele>125</ele>
        <time>2021-11-04T16:15:09+01:00</time>
      </trkpt>
      <trkpt lat="48.74927" lon="4.62599">
        <ele>110</ele>
        <time>2021-11-04T16:15:14+01:00</time>
      </trkpt>
      <trkpt lat="48.74817" lon="4.62568">
        <ele>102</ele>
        <time>2021-11-04T16:15:19+01:00</time>
      </trkpt>
      <trkpt lat="48.74774" lon="4.62511">
        <ele>100</ele>
        <time>2021-11-04T16:15:24+01:00</time>
      </trkpt>
      <trkpt lat="48.74791" lon="4.62392">
        <ele>100</ele>
        <time>2021-11-04T16:15:29+01:00</time>
      </trkpt>
      <trkpt lat="48.74742" lon="4.62367">
        <ele>97</ele>
        <time>2021-11-04T16:15:34+01:00</time>
      </trkpt>
      <trkpt lat="48.74744" lon="4.62279">
        <ele>96</ele>
        <time>2021-11-04T16:15:39+01:00</time>
      </trkpt>
      <trkpt lat="48.74778" lon="4.62117">
        <ele>98</ele>
        <time>2021-11-04T16:15:44+01:00</time>
      </trkpt>
      <trkpt lat="48.74765" lon="4.62052">
        <ele>98</ele>
        <time>2021-11-04T16:15:49+01:00</time>
      </trkpt>
      <trkpt lat="48.74694" lon="4.61933">
        <ele>96</ele>
        <time>2021-11-04T16:15:54+01:00</time>
      </trkpt>
      <trkpt lat="48.74752" lon="4.61845">
        <ele>97</ele>
        <time>2021-11-04T16:15:59+01:00</time>
      </trkpt>
      <trkpt lat="48.74753" lon="4.61553">
        <ele>102</ele>
        <time>2021-11-04T16:16:04+01:00</time>
      </trkpt>
      <trkpt lat="48.74634" lon="4.61405">
        <ele>108</ele>
        <time>2021-11-04T16:16:09+01:00</time>
      </trkpt>
      <trkpt lat="48.74538" lon="4.61397">
        <ele>103</ele>
        <time>2021-11-04T16:16:14+01:00</time>
      </trkpt>
      <trkpt lat="48.74456" lon="4.61263">
        <ele>106</ele>
        <time>2021-11-04T16:16:19+01:00</time>
      </trkpt>
      <trkpt lat="48.74462" lon="4.61142">
        <ele>111</ele>
        <time>2021-11-04T16:16:24+01:00</time>
      </trkpt>
      <trkpt lat="48.74477" lon="4.61079">
        <ele>115</ele>
        <time>2021-11-04T16:16:29+01:00</time>
      </trkpt>
      <trkpt lat="48.7449" lon="4.60943">
        <ele>115</ele>
        <time>2021-11-04T16:16:34+01:00</time>
      </trkpt>
      <trkpt lat="48.7449" lon="4.6075">
        <ele>111</ele>
        <time>2021-11-04T16:16:39+01:00</time>
      </trkpt>
      <trkpt lat="48.74533" lon="4.606">
        <ele>113</ele>
        <time>2021-11-04T16:16:44+01:00</time>
      </trkpt>
      <trkpt lat="48.7454" lon="4.6022">
        <ele>110</ele>
        <time>2021-11-04T16:16:49+01:00</time>
      </trkpt>
      <trkpt lat="48.74527" lon="4.60104">
        <ele>104</ele>
        <time>2021-11-04T16:16:54+01:00</time>
      </trkpt>
      <trkpt lat="48.74456" lon="4.59437">
        <ele>100</ele>
        <time>2021-11-04T16:16:59+01:00</time>
      </trkpt>
      <trkpt lat="48.74383" lon="4.59392">
        <ele>96</ele>
        <time>2021-11-04T16:17:04+01:00</time>
      </trkpt>
      <trkpt lat="48.74421" lon="4.59344">
        <ele>98</ele>
        <time>2021-11-04T16:17:09+01:00</time>
      </trkpt>
      <trkpt lat="48.74475" lon="4.59327">
        <ele>104</ele>
        <time>2021-11-04T16:17:14+01:00</time>
      </trkpt>
      <trkpt lat="48.74501" lon="4.59151">
        <ele>104</ele>
        <time>2021-11-04T16:17:19+01:00</time>
      </trkpt>
      <trkpt lat="48.7455" lon="4.58992">
        <ele>105</ele>
        <time>2021-11-04T16:17:24+01:00</time>
      </trkpt>
      <trkpt lat="48.7458" lon="4.58655">
        <ele>104</ele>
        <time>2021-11-04T16:17:29+01:00</time>
      </trkpt>
      <trkpt lat="48.74499" lon="4.58624">
        <ele>97</ele>
        <time>2021-11-04T16:17:34+01:00</time>
      </trkpt>
      <trkpt lat="48.74415" lon="4.58539">
        <ele>95</ele>
        <time>2021-11-04T16:17:39+01:00</time>
      </trkpt>
      <trkpt lat="48.74323" lon="4.58519">
        <ele>96</ele>
        <time>2021-11-04T16:17:44+01:00</time>
      </trkpt>
      <trkpt lat="48.74303" lon="4.58465">
        <ele>95</ele>
        <time>2021-11-04T16:17:49+01:00</time>
      </trkpt>
      <trkpt lat="48.73616" lon="4.58451">
        <ele>97</ele>
        <time>2021-11-04T16:17:54+01:00</time>
      </trkpt>
      <trkpt lat="48.73637" lon="4.58159">
        <ele>97</ele>
        <time>2021-11-04T16:17:59+01:00</time>
      </trkpt>
      <trkpt lat="48.73501" lon="4.58074">
        <ele>96</ele>
        <time>2021-11-04T16:18:04+01:00</time>
      </trkpt>
      <trkpt lat="48.73362" lon="4.58091">
        <ele>96</ele>
        <time>2021-11-04T16:18:09+01:00</time>
      </trkpt>
      <trkpt lat="48.73263" lon="4.5815">
        <ele>97</ele>
        <time>2021-11-04T16:18:14+01:00</time>
      </trkpt>
      <trkpt lat="48.73216" lon="4.58136">
        <ele>97</ele>
        <time>2021-11-04T16:18:19+01:00</time>
      </trkpt>
      <trkpt lat="48.73055" lon="4.57971">
        <ele>97</ele>
        <time>2021-11-04T16:18:24+01:00</time>
      </trkpt>
      <trkpt lat="48.73031" lon="4.57889">
        <ele>96</ele>
        <time>2021-11-04T16:18:29+01:00</time>
      </trkpt>
      <trkpt lat="48.72829" lon="4.57761">
        <ele>98</ele>
        <time>2021-11-04T16:18:34+01:00</time>
      </trkpt>
      <trkpt lat="48.72714" lon="4.5812">
        <ele>98</ele>
        <time>2021-11-04T16:18:39+01:00</time>
      </trkpt>
      <trkpt lat="48.72653" lon="4.58341">
        <ele>102</ele>
        <time>2021-11-04T16:18:44+01:00</time>
      </trkpt>
      <trkpt lat="48.72616" lon="4.58463">
        <ele>103</ele>
        <time>2021-11-04T16:18:49+01:00</time>
      </trkpt>
      <trkpt lat="48.72571" lon="4.58431">
        <ele>103</ele>
        <time>2021-11-04T16:18:54+01:00</time>
      </trkpt>
      <trkpt lat="48.72557" lon="4.58495">
        <ele>103</ele>
        <time>2021-11-04T16:18:59+01:00</time>
      </trkpt>
      <trkpt lat="48.72499" lon="4.58462">
        <ele>103</ele>
        <time>2021-11-04T16:19:04+01:00</time>
      </trkpt>
    </trkseg>
  </trk>
  <trk>
    <name><![CDATA[17 - Vitry le Francois Drosnay 28.3 km]]></name>
    <extensions>
      <line xmlns="http://www.topografix.com/GPX/gpx_style/0/2">
        <color>00FFFF</color>
        <width>4</width>
      </line>
    </extensions>
    <trkseg>
      <trkpt lat="48.72492" lon="4.58458">
        <ele>103</ele>
        <time>2021-11-04T17:27:36+01:00</time>
      </trkpt>
      <trkpt lat="48.72554" lon="4.58502">
        <ele>103</ele>
        <time>2021-11-04T17:27:41+01:00</time>
      </trkpt>
      <trkpt lat="48.72574" lon="4.58437">
        <ele>103</ele>
        <time>2021-11-04T17:27:46+01:00</time>
      </trkpt>
      <trkpt lat="48.72615" lon="4.58461">
        <ele>103</ele>
        <time>2021-11-04T17:27:51+01:00</time>
      </trkpt>
      <trkpt lat="48.7271" lon="4.58141">
        <ele>98</ele>
        <time>2021-11-04T17:27:56+01:00</time>
      </trkpt>
      <trkpt lat="48.72888" lon="4.57539">
        <ele>98</ele>
        <time>2021-11-04T17:28:01+01:00</time>
      </trkpt>
      <trkpt lat="48.72951" lon="4.57331">
        <ele>96</ele>
        <time>2021-11-04T17:28:06+01:00</time>
      </trkpt>
      <trkpt lat="48.72942" lon="4.57172">
        <ele>94</ele>
        <time>2021-11-04T17:28:11+01:00</time>
      </trkpt>
      <trkpt lat="48.7298" lon="4.56932">
        <ele>97</ele>
        <time>2021-11-04T17:28:16+01:00</time>
      </trkpt>
      <trkpt lat="48.72989" lon="4.56614">
        <ele>97</ele>
        <time>2021-11-04T17:28:21+01:00</time>
      </trkpt>
      <trkpt lat="48.73028" lon="4.56371">
        <ele>95</ele>
        <time>2021-11-04T17:28:26+01:00</time>
      </trkpt>
      <trkpt lat="48.73019" lon="4.56296">
        <ele>95</ele>
        <time>2021-11-04T17:28:31+01:00</time>
      </trkpt>
      <trkpt lat="48.72727" lon="4.56427">
        <ele>96</ele>
        <time>2021-11-04T17:28:36+01:00</time>
      </trkpt>
      <trkpt lat="48.7269" lon="4.55899">
        <ele>95</ele>
        <time>2021-11-04T17:28:41+01:00</time>
      </trkpt>
      <trkpt lat="48.72575" lon="4.55483">
        <ele>98</ele>
        <time>2021-11-04T17:28:46+01:00</time>
      </trkpt>
      <trkpt lat="48.72569" lon="4.55269">
        <ele>102</ele>
        <time>2021-11-04T17:28:51+01:00</time>
      </trkpt>
      <trkpt lat="48.72436" lon="4.54811">
        <ele>108</ele>
        <time>2021-11-04T17:28:56+01:00</time>
      </trkpt>
      <trkpt lat="48.72202" lon="4.54939">
        <ele>115</ele>
        <time>2021-11-04T17:29:01+01:00</time>
      </trkpt>
      <trkpt lat="48.72048" lon="4.54869">
        <ele>115</ele>
        <time>2021-11-04T17:29:06+01:00</time>
      </trkpt>
      <trkpt lat="48.7192" lon="4.54886">
        <ele>117</ele>
        <time>2021-11-04T17:29:11+01:00</time>
      </trkpt>
      <trkpt lat="48.71789" lon="4.54764">
        <ele>121</ele>
        <time>2021-11-04T17:29:16+01:00</time>
      </trkpt>
      <trkpt lat="48.71427" lon="4.54509">
        <ele>122</ele>
        <time>2021-11-04T17:29:21+01:00</time>
      </trkpt>
      <trkpt lat="48.71219" lon="4.54556">
        <ele>119</ele>
        <time>2021-11-04T17:29:26+01:00</time>
      </trkpt>
      <trkpt lat="48.71105" lon="4.54554">
        <ele>115</ele>
        <time>2021-11-04T17:29:31+01:00</time>
      </trkpt>
      <trkpt lat="48.70732" lon="4.54493">
        <ele>105</ele>
        <time>2021-11-04T17:29:36+01:00</time>
      </trkpt>
      <trkpt lat="48.70705" lon="4.54692">
        <ele>104</ele>
        <time>2021-11-04T17:29:41+01:00</time>
      </trkpt>
      <trkpt lat="48.70659" lon="4.5482">
        <ele>101</ele>
        <time>2021-11-04T17:29:46+01:00</time>
      </trkpt>
      <trkpt lat="48.70481" lon="4.54819">
        <ele>99</ele>
        <time>2021-11-04T17:29:51+01:00</time>
      </trkpt>
      <trkpt lat="48.70351" lon="4.54757">
        <ele>102</ele>
        <time>2021-11-04T17:29:56+01:00</time>
      </trkpt>
      <trkpt lat="48.70353" lon="4.54178">
        <ele>107</ele>
        <time>2021-11-04T17:30:01+01:00</time>
      </trkpt>
      <trkpt lat="48.70332" lon="4.53947">
        <ele>112</ele>
        <time>2021-11-04T17:30:06+01:00</time>
      </trkpt>
      <trkpt lat="48.7019" lon="4.53924">
        <ele>116</ele>
        <time>2021-11-04T17:30:11+01:00</time>
      </trkpt>
      <trkpt lat="48.70038" lon="4.54022">
        <ele>104</ele>
        <time>2021-11-04T17:30:16+01:00</time>
      </trkpt>
      <trkpt lat="48.69867" lon="4.54087">
        <ele>102</ele>
        <time>2021-11-04T17:30:21+01:00</time>
      </trkpt>
      <trkpt lat="48.6963" lon="4.54126">
        <ele>103</ele>
        <time>2021-11-04T17:30:26+01:00</time>
      </trkpt>
      <trkpt lat="48.69476" lon="4.54124">
        <ele>106</ele>
        <time>2021-11-04T17:30:31+01:00</time>
      </trkpt>
      <trkpt lat="48.69517" lon="4.54406">
        <ele>103</ele>
        <time>2021-11-04T17:30:36+01:00</time>
      </trkpt>
      <trkpt lat="48.69546" lon="4.54572">
        <ele>101</ele>
        <time>2021-11-04T17:30:41+01:00</time>
      </trkpt>
      <trkpt lat="48.6957" lon="4.5491">
        <ele>101</ele>
        <time>2021-11-04T17:30:46+01:00</time>
      </trkpt>
      <trkpt lat="48.69651" lon="4.55221">
        <ele>102</ele>
        <time>2021-11-04T17:30:51+01:00</time>
      </trkpt>
      <trkpt lat="48.69697" lon="4.55548">
        <ele>101</ele>
        <time>2021-11-04T17:30:56+01:00</time>
      </trkpt>
      <trkpt lat="48.69337" lon="4.55649">
        <ele>124</ele>
        <time>2021-11-04T17:31:01+01:00</time>
      </trkpt>
      <trkpt lat="48.6923" lon="4.55958">
        <ele>127</ele>
        <time>2021-11-04T17:31:06+01:00</time>
      </trkpt>
      <trkpt lat="48.69115" lon="4.56178">
        <ele>138</ele>
        <time>2021-11-04T17:31:11+01:00</time>
      </trkpt>
      <trkpt lat="48.68985" lon="4.56098">
        <ele>148</ele>
        <time>2021-11-04T17:31:16+01:00</time>
      </trkpt>
      <trkpt lat="48.6887" lon="4.56056">
        <ele>148</ele>
        <time>2021-11-04T17:31:21+01:00</time>
      </trkpt>
      <trkpt lat="48.68608" lon="4.56015">
        <ele>122</ele>
        <time>2021-11-04T17:31:26+01:00</time>
      </trkpt>
      <trkpt lat="48.68454" lon="4.56072">
        <ele>114</ele>
        <time>2021-11-04T17:31:31+01:00</time>
      </trkpt>
      <trkpt lat="48.683" lon="4.56085">
        <ele>120</ele>
        <time>2021-11-04T17:31:36+01:00</time>
      </trkpt>
      <trkpt lat="48.67995" lon="4.56202">
        <ele>145</ele>
        <time>2021-11-04T17:31:41+01:00</time>
      </trkpt>
      <trkpt lat="48.67751" lon="4.56474">
        <ele>144</ele>
        <time>2021-11-04T17:31:46+01:00</time>
      </trkpt>
      <trkpt lat="48.67649" lon="4.56461">
        <ele>144</ele>
        <time>2021-11-04T17:31:51+01:00</time>
      </trkpt>
      <trkpt lat="48.67645" lon="4.56425">
        <ele>144</ele>
        <time>2021-11-04T17:31:56+01:00</time>
      </trkpt>
      <trkpt lat="48.67361" lon="4.56814">
        <ele>142</ele>
        <time>2021-11-04T17:32:01+01:00</time>
      </trkpt>
      <trkpt lat="48.67248" lon="4.56905">
        <ele>143</ele>
        <time>2021-11-04T17:32:06+01:00</time>
      </trkpt>
      <trkpt lat="48.66958" lon="4.57029">
        <ele>155</ele>
        <time>2021-11-04T17:32:11+01:00</time>
      </trkpt>
      <trkpt lat="48.66806" lon="4.57203">
        <ele>139</ele>
        <time>2021-11-04T17:32:16+01:00</time>
      </trkpt>
      <trkpt lat="48.67082" lon="4.58007">
        <ele>121</ele>
        <time>2021-11-04T17:32:21+01:00</time>
      </trkpt>
      <trkpt lat="48.67225" lon="4.58306">
        <ele>105</ele>
        <time>2021-11-04T17:32:26+01:00</time>
      </trkpt>
      <trkpt lat="48.67363" lon="4.58568">
        <ele>100</ele>
        <time>2021-11-04T17:32:31+01:00</time>
      </trkpt>
      <trkpt lat="48.6734" lon="4.58695">
        <ele>99</ele>
        <time>2021-11-04T17:32:36+01:00</time>
      </trkpt>
      <trkpt lat="48.67388" lon="4.58902">
        <ele>100</ele>
        <time>2021-11-04T17:32:41+01:00</time>
      </trkpt>
      <trkpt lat="48.67172" lon="4.59185">
        <ele>99</ele>
        <time>2021-11-04T17:32:46+01:00</time>
      </trkpt>
      <trkpt lat="48.66953" lon="4.59437">
        <ele>101</ele>
        <time>2021-11-04T17:32:51+01:00</time>
      </trkpt>
      <trkpt lat="48.66837" lon="4.59639">
        <ele>102</ele>
        <time>2021-11-04T17:32:56+01:00</time>
      </trkpt>
      <trkpt lat="48.66509" lon="4.59995">
        <ele>103</ele>
        <time>2021-11-04T17:33:01+01:00</time>
      </trkpt>
      <trkpt lat="48.66314" lon="4.60254">
        <ele>102</ele>
        <time>2021-11-04T17:33:06+01:00</time>
      </trkpt>
      <trkpt lat="48.66215" lon="4.60295">
        <ele>103</ele>
        <time>2021-11-04T17:33:11+01:00</time>
      </trkpt>
      <trkpt lat="48.66059" lon="4.60443">
        <ele>102</ele>
        <time>2021-11-04T17:33:16+01:00</time>
      </trkpt>
      <trkpt lat="48.66019" lon="4.6042">
        <ele>100</ele>
        <time>2021-11-04T17:33:21+01:00</time>
      </trkpt>
      <trkpt lat="48.65875" lon="4.60594">
        <ele>101</ele>
        <time>2021-11-04T17:33:26+01:00</time>
      </trkpt>
      <trkpt lat="48.6563" lon="4.60866">
        <ele>102</ele>
        <time>2021-11-04T17:33:31+01:00</time>
      </trkpt>
      <trkpt lat="48.65558" lon="4.61201">
        <ele>103</ele>
        <time>2021-11-04T17:33:36+01:00</time>
      </trkpt>
      <trkpt lat="48.65491" lon="4.61325">
        <ele>102</ele>
        <time>2021-11-04T17:33:41+01:00</time>
      </trkpt>
      <trkpt lat="48.65435" lon="4.61393">
        <ele>105</ele>
        <time>2021-11-04T17:33:46+01:00</time>
      </trkpt>
      <trkpt lat="48.65311" lon="4.61699">
        <ele>109</ele>
        <time>2021-11-04T17:33:51+01:00</time>
      </trkpt>
      <trkpt lat="48.65171" lon="4.61831">
        <ele>111</ele>
        <time>2021-11-04T17:33:56+01:00</time>
      </trkpt>
      <trkpt lat="48.65128" lon="4.61504">
        <ele>118</ele>
        <time>2021-11-04T17:34:01+01:00</time>
      </trkpt>
      <trkpt lat="48.65048" lon="4.61152">
        <ele>119</ele>
        <time>2021-11-04T17:34:06+01:00</time>
      </trkpt>
      <trkpt lat="48.6482" lon="4.61489">
        <ele>119</ele>
        <time>2021-11-04T17:34:11+01:00</time>
      </trkpt>
      <trkpt lat="48.6465" lon="4.61712">
        <ele>117</ele>
        <time>2021-11-04T17:34:16+01:00</time>
      </trkpt>
      <trkpt lat="48.64364" lon="4.62283">
        <ele>108</ele>
        <time>2021-11-04T17:34:21+01:00</time>
      </trkpt>
      <trkpt lat="48.64149" lon="4.62568">
        <ele>105</ele>
        <time>2021-11-04T17:34:26+01:00</time>
      </trkpt>
      <trkpt lat="48.64055" lon="4.62623">
        <ele>108</ele>
        <time>2021-11-04T17:34:31+01:00</time>
      </trkpt>
      <trkpt lat="48.63892" lon="4.62812">
        <ele>110</ele>
        <time>2021-11-04T17:34:36+01:00</time>
      </trkpt>
      <trkpt lat="48.63769" lon="4.63012">
        <ele>106</ele>
        <time>2021-11-04T17:34:41+01:00</time>
      </trkpt>
      <trkpt lat="48.63705" lon="4.63336">
        <ele>107</ele>
        <time>2021-11-04T17:34:46+01:00</time>
      </trkpt>
      <trkpt lat="48.6357" lon="4.63531">
        <ele>107</ele>
        <time>2021-11-04T17:34:51+01:00</time>
      </trkpt>
      <trkpt lat="48.63493" lon="4.63676">
        <ele>111</ele>
        <time>2021-11-04T17:34:56+01:00</time>
      </trkpt>
      <trkpt lat="48.63179" lon="4.63858">
        <ele>117</ele>
        <time>2021-11-04T17:35:01+01:00</time>
      </trkpt>
      <trkpt lat="48.63043" lon="4.63985">
        <ele>116</ele>
        <time>2021-11-04T17:35:06+01:00</time>
      </trkpt>
      <trkpt lat="48.62968" lon="4.6426">
        <ele>114</ele>
        <time>2021-11-04T17:35:11+01:00</time>
      </trkpt>
      <trkpt lat="48.62879" lon="4.6441">
        <ele>111</ele>
        <time>2021-11-04T17:35:16+01:00</time>
      </trkpt>
      <trkpt lat="48.62706" lon="4.6455">
        <ele>107</ele>
        <time>2021-11-04T17:35:21+01:00</time>
      </trkpt>
      <trkpt lat="48.62709" lon="4.64701">
        <ele>106</ele>
        <time>2021-11-04T17:35:26+01:00</time>
      </trkpt>
      <trkpt lat="48.6261" lon="4.64833">
        <ele>109</ele>
        <time>2021-11-04T17:35:31+01:00</time>
      </trkpt>
      <trkpt lat="48.62148" lon="4.64717">
        <ele>113</ele>
        <time>2021-11-04T17:35:36+01:00</time>
      </trkpt>
      <trkpt lat="48.61768" lon="4.6446">
        <ele>114</ele>
        <time>2021-11-04T17:35:41+01:00</time>
      </trkpt>
      <trkpt lat="48.61297" lon="4.64314">
        <ele>112</ele>
        <time>2021-11-04T17:35:46+01:00</time>
      </trkpt>
      <trkpt lat="48.60877" lon="4.63902">
        <ele>108</ele>
        <time>2021-11-04T17:35:51+01:00</time>
      </trkpt>
      <trkpt lat="48.60656" lon="4.63825">
        <ele>112</ele>
        <time>2021-11-04T17:35:56+01:00</time>
      </trkpt>
      <trkpt lat="48.60429" lon="4.63396">
        <ele>113</ele>
        <time>2021-11-04T17:36:01+01:00</time>
      </trkpt>
      <trkpt lat="48.60003" lon="4.62923">
        <ele>112</ele>
        <time>2021-11-04T17:36:06+01:00</time>
      </trkpt>
      <trkpt lat="48.59606" lon="4.62752">
        <ele>115</ele>
        <time>2021-11-04T17:36:11+01:00</time>
      </trkpt>
      <trkpt lat="48.59055" lon="4.62606">
        <ele>135</ele>
        <time>2021-11-04T17:36:16+01:00</time>
      </trkpt>
      <trkpt lat="48.58584" lon="4.62657">
        <ele>137</ele>
        <time>2021-11-04T17:36:21+01:00</time>
      </trkpt>
      <trkpt lat="48.58351" lon="4.62597">
        <ele>135</ele>
        <time>2021-11-04T17:36:26+01:00</time>
      </trkpt>
      <trkpt lat="48.58107" lon="4.62271">
        <ele>133</ele>
        <time>2021-11-04T17:36:31+01:00</time>
      </trkpt>
      <trkpt lat="48.5792" lon="4.62142">
        <ele>134</ele>
        <time>2021-11-04T17:36:36+01:00</time>
      </trkpt>
      <trkpt lat="48.57766" lon="4.61645">
        <ele>134</ele>
        <time>2021-11-04T17:36:41+01:00</time>
      </trkpt>
      <trkpt lat="48.57625" lon="4.61513">
        <ele>131</ele>
        <time>2021-11-04T17:36:46+01:00</time>
      </trkpt>
      <trkpt lat="48.57564" lon="4.61422">
        <ele>132</ele>
        <time>2021-11-04T17:36:51+01:00</time>
      </trkpt>
      <trkpt lat="48.57487" lon="4.61354">
        <ele>135</ele>
        <time>2021-11-04T17:36:56+01:00</time>
      </trkpt>
    </trkseg>
  </trk>
  <trk>
    <name><![CDATA[18 - Drosnay Villeret 18.5 km]]></name>
    <extensions>
      <line xmlns="http://www.topografix.com/GPX/gpx_style/0/2">
        <color>FFFF00</color>
        <width>4</width>
      </line>
    </extensions>
    <trkseg>
      <trkpt lat="48.57493" lon="4.61331">
        <ele>135</ele>
        <time>2021-11-05T11:10:32+01:00</time>
      </trkpt>
      <trkpt lat="48.57423" lon="4.61727">
        <ele>135</ele>
        <time>2021-11-05T11:10:37+01:00</time>
      </trkpt>
      <trkpt lat="48.57362" lon="4.62504">
        <ele>132</ele>
        <time>2021-11-05T11:10:42+01:00</time>
      </trkpt>
      <trkpt lat="48.56969" lon="4.63083">
        <ele>131</ele>
        <time>2021-11-05T11:10:47+01:00</time>
      </trkpt>
      <trkpt lat="48.56253" lon="4.63753">
        <ele>129</ele>
        <time>2021-11-05T11:10:52+01:00</time>
      </trkpt>
      <trkpt lat="48.55447" lon="4.6488">
        <ele>133</ele>
        <time>2021-11-05T11:10:57+01:00</time>
      </trkpt>
      <trkpt lat="48.55447" lon="4.65108">
        <ele>132</ele>
        <time>2021-11-05T11:11:02+01:00</time>
      </trkpt>
      <trkpt lat="48.55074" lon="4.65657">
        <ele>129</ele>
        <time>2021-11-05T11:11:07+01:00</time>
      </trkpt>
      <trkpt lat="48.54963" lon="4.66083">
        <ele>125</ele>
        <time>2021-11-05T11:11:12+01:00</time>
      </trkpt>
      <trkpt lat="48.54257" lon="4.67103">
        <ele>131</ele>
        <time>2021-11-05T11:11:17+01:00</time>
      </trkpt>
      <trkpt lat="48.54066" lon="4.6753">
        <ele>129</ele>
        <time>2021-11-05T11:11:22+01:00</time>
      </trkpt>
      <trkpt lat="48.53733" lon="4.67408">
        <ele>119</ele>
        <time>2021-11-05T11:11:27+01:00</time>
      </trkpt>
      <trkpt lat="48.53773" lon="4.67027">
        <ele>120</ele>
        <time>2021-11-05T11:11:32+01:00</time>
      </trkpt>
      <trkpt lat="48.53128" lon="4.66905">
        <ele>126</ele>
        <time>2021-11-05T11:11:37+01:00</time>
      </trkpt>
      <trkpt lat="48.52634" lon="4.65672">
        <ele>120</ele>
        <time>2021-11-05T11:11:42+01:00</time>
      </trkpt>
      <trkpt lat="48.5225" lon="4.65428">
        <ele>124</ele>
        <time>2021-11-05T11:11:47+01:00</time>
      </trkpt>
      <trkpt lat="48.51857" lon="4.65459">
        <ele>125</ele>
        <time>2021-11-05T11:11:52+01:00</time>
      </trkpt>
      <trkpt lat="48.51161" lon="4.636">
        <ele>134</ele>
        <time>2021-11-05T11:11:57+01:00</time>
      </trkpt>
      <trkpt lat="48.50899" lon="4.63189">
        <ele>141</ele>
        <time>2021-11-05T11:12:02+01:00</time>
      </trkpt>
      <trkpt lat="48.5107" lon="4.6223">
        <ele>128</ele>
        <time>2021-11-05T11:12:07+01:00</time>
      </trkpt>
      <trkpt lat="48.5105" lon="4.61864">
        <ele>129</ele>
        <time>2021-11-05T11:12:12+01:00</time>
      </trkpt>
      <trkpt lat="48.51302" lon="4.61209">
        <ele>133</ele>
        <time>2021-11-05T11:12:17+01:00</time>
      </trkpt>
      <trkpt lat="48.50798" lon="4.60692">
        <ele>123</ele>
        <time>2021-11-05T11:12:22+01:00</time>
      </trkpt>
      <trkpt lat="48.50132" lon="4.60387">
        <ele>121</ele>
        <time>2021-11-05T11:12:27+01:00</time>
      </trkpt>
      <trkpt lat="48.49274" lon="4.61011">
        <ele>115</ele>
        <time>2021-11-05T11:12:32+01:00</time>
      </trkpt>
      <trkpt lat="48.4887" lon="4.61499">
        <ele>117</ele>
        <time>2021-11-05T11:12:37+01:00</time>
      </trkpt>
      <trkpt lat="48.48396" lon="4.61057">
        <ele>116</ele>
        <time>2021-11-05T11:12:42+01:00</time>
      </trkpt>
      <trkpt lat="48.48163" lon="4.60646">
        <ele>117</ele>
        <time>2021-11-05T11:12:47+01:00</time>
      </trkpt>
      <trkpt lat="48.47892" lon="4.59689">
        <ele>113</ele>
        <time>2021-11-05T11:12:52+01:00</time>
      </trkpt>
      <trkpt lat="48.47861" lon="4.59576">
        <ele>112</ele>
        <time>2021-11-05T11:12:57+01:00</time>
      </trkpt>
      <trkpt lat="48.47857" lon="4.59371">
        <ele>114</ele>
        <time>2021-11-05T11:13:02+01:00</time>
      </trkpt>
      <trkpt lat="48.47796" lon="4.59208">
        <ele>114</ele>
        <time>2021-11-05T11:13:07+01:00</time>
      </trkpt>
      <trkpt lat="48.4776" lon="4.59075">
        <ele>114</ele>
        <time>2021-11-05T11:13:12+01:00</time>
      </trkpt>
    </trkseg>
  </trk>
  <trk>
    <name><![CDATA[19 - VILLERET AMANCE 27.1 KM]]></name>
    <extensions>
      <line xmlns="http://www.topografix.com/GPX/gpx_style/0/2">
        <color>FF00FF</color>
        <width>4</width>
      </line>
    </extensions>
    <trkseg>
      <trkpt lat="48.47758" lon="4.59073">
        <ele>114</ele>
      </trkpt>
      <trkpt lat="48.47753" lon="4.58984">
        <ele>115</ele>
      </trkpt>
      <trkpt lat="48.47545" lon="4.5898">
        <ele>112</ele>
      </trkpt>
      <trkpt lat="48.4709" lon="4.59153">
        <ele>111</ele>
      </trkpt>
      <trkpt lat="48.46856" lon="4.59157">
        <ele>112</ele>
      </trkpt>
      <trkpt lat="48.46509" lon="4.5896">
        <ele>112</ele>
      </trkpt>
      <trkpt lat="48.46387" lon="4.5898">
        <ele>114</ele>
      </trkpt>
      <trkpt lat="48.4612" lon="4.59044">
        <ele>113</ele>
      </trkpt>
      <trkpt lat="48.46046" lon="4.59024">
        <ele>113</ele>
      </trkpt>
      <trkpt lat="48.45995" lon="4.58972">
        <ele>113</ele>
      </trkpt>
      <trkpt lat="48.45865" lon="4.58944">
        <ele>115</ele>
      </trkpt>
      <trkpt lat="48.45827" lon="4.58892">
        <ele>116</ele>
      </trkpt>
      <trkpt lat="48.45564" lon="4.59069">
        <ele>119</ele>
      </trkpt>
      <trkpt lat="48.45489" lon="4.58759">
        <ele>118</ele>
      </trkpt>
      <trkpt lat="48.44887" lon="4.58169">
        <ele>117</ele>
      </trkpt>
      <trkpt lat="48.44729" lon="4.58205">
        <ele>117</ele>
      </trkpt>
      <trkpt lat="48.44671" lon="4.5802">
        <ele>116</ele>
      </trkpt>
      <trkpt lat="48.44612" lon="4.5808">
        <ele>117</ele>
      </trkpt>
      <trkpt lat="48.44447" lon="4.5712">
        <ele>114</ele>
      </trkpt>
      <trkpt lat="48.4441" lon="4.56855">
        <ele>114</ele>
      </trkpt>
      <trkpt lat="48.4352" lon="4.55011">
        <ele>115</ele>
      </trkpt>
      <trkpt lat="48.43418" lon="4.54432">
        <ele>117</ele>
      </trkpt>
      <trkpt lat="48.43381" lon="4.54348">
        <ele>117</ele>
      </trkpt>
      <trkpt lat="48.43037" lon="4.53906">
        <ele>122</ele>
      </trkpt>
      <trkpt lat="48.42792" lon="4.53906">
        <ele>116</ele>
      </trkpt>
      <trkpt lat="48.42333" lon="4.53673">
        <ele>115</ele>
      </trkpt>
      <trkpt lat="48.41568" lon="4.53416">
        <ele>120</ele>
      </trkpt>
      <trkpt lat="48.39787" lon="4.53078">
        <ele>122</ele>
      </trkpt>
      <trkpt lat="48.39706" lon="4.52952">
        <ele>123</ele>
      </trkpt>
      <trkpt lat="48.39636" lon="4.52813">
        <ele>123</ele>
      </trkpt>
      <trkpt lat="48.39474" lon="4.52362">
        <ele>122</ele>
      </trkpt>
      <trkpt lat="48.39425" lon="4.52337">
        <ele>122</ele>
      </trkpt>
      <trkpt lat="48.39241" lon="4.52008">
        <ele>143</ele>
      </trkpt>
      <trkpt lat="48.39125" lon="4.51752">
        <ele>143</ele>
      </trkpt>
      <trkpt lat="48.39017" lon="4.51654">
        <ele>142</ele>
      </trkpt>
      <trkpt lat="48.38961" lon="4.51675">
        <ele>141</ele>
      </trkpt>
      <trkpt lat="48.38912" lon="4.51573">
        <ele>141</ele>
      </trkpt>
      <trkpt lat="48.38917" lon="4.51488">
        <ele>145</ele>
      </trkpt>
      <trkpt lat="48.38845" lon="4.51357">
        <ele>146</ele>
      </trkpt>
      <trkpt lat="48.38782" lon="4.51187">
        <ele>147</ele>
      </trkpt>
      <trkpt lat="48.38734" lon="4.51174">
        <ele>144</ele>
      </trkpt>
      <trkpt lat="48.38682" lon="4.51081">
        <ele>146</ele>
      </trkpt>
      <trkpt lat="48.38218" lon="4.51288">
        <ele>137</ele>
      </trkpt>
      <trkpt lat="48.38145" lon="4.51227">
        <ele>134</ele>
      </trkpt>
      <trkpt lat="48.38075" lon="4.51431">
        <ele>131</ele>
      </trkpt>
      <trkpt lat="48.3808" lon="4.5154">
        <ele>135</ele>
      </trkpt>
      <trkpt lat="48.3784" lon="4.51744">
        <ele>130</ele>
      </trkpt>
      <trkpt lat="48.37686" lon="4.51906">
        <ele>129</ele>
      </trkpt>
      <trkpt lat="48.37575" lon="4.52093">
        <ele>125</ele>
      </trkpt>
      <trkpt lat="48.37513" lon="4.5226">
        <ele>123</ele>
      </trkpt>
      <trkpt lat="48.37405" lon="4.52366">
        <ele>123</ele>
      </trkpt>
      <trkpt lat="48.37092" lon="4.51793">
        <ele>141</ele>
      </trkpt>
      <trkpt lat="48.36994" lon="4.51703">
        <ele>151</ele>
      </trkpt>
      <trkpt lat="48.36897" lon="4.51601">
        <ele>153</ele>
      </trkpt>
      <trkpt lat="48.368" lon="4.5178">
        <ele>158</ele>
      </trkpt>
      <trkpt lat="48.36716" lon="4.51638">
        <ele>153</ele>
      </trkpt>
      <trkpt lat="48.36586" lon="4.51858">
        <ele>153</ele>
      </trkpt>
      <trkpt lat="48.36594" lon="4.51931">
        <ele>154</ele>
      </trkpt>
      <trkpt lat="48.3643" lon="4.52012">
        <ele>146</ele>
      </trkpt>
      <trkpt lat="48.36305" lon="4.52179">
        <ele>143</ele>
      </trkpt>
      <trkpt lat="48.3613" lon="4.52354">
        <ele>141</ele>
      </trkpt>
      <trkpt lat="48.35922" lon="4.52443">
        <ele>137</ele>
      </trkpt>
      <trkpt lat="48.35854" lon="4.52403">
        <ele>138</ele>
      </trkpt>
      <trkpt lat="48.35816" lon="4.52415">
        <ele>138</ele>
      </trkpt>
      <trkpt lat="48.35757" lon="4.5248">
        <ele>139</ele>
      </trkpt>
      <trkpt lat="48.3547" lon="4.52512">
        <ele>136</ele>
      </trkpt>
      <trkpt lat="48.35192" lon="4.52789">
        <ele>134</ele>
      </trkpt>
      <trkpt lat="48.35192" lon="4.52923">
        <ele>129</ele>
      </trkpt>
      <trkpt lat="48.35168" lon="4.53021">
        <ele>128</ele>
      </trkpt>
      <trkpt lat="48.35095" lon="4.53041">
        <ele>128</ele>
      </trkpt>
      <trkpt lat="48.34862" lon="4.53025">
        <ele>128</ele>
      </trkpt>
      <trkpt lat="48.34889" lon="4.53151">
        <ele>127</ele>
      </trkpt>
      <trkpt lat="48.34892" lon="4.53342">
        <ele>128</ele>
      </trkpt>
      <trkpt lat="48.34746" lon="4.53696">
        <ele>131</ele>
      </trkpt>
      <trkpt lat="48.3447" lon="4.53956">
        <ele>130</ele>
      </trkpt>
      <trkpt lat="48.343" lon="4.54147">
        <ele>129</ele>
      </trkpt>
      <trkpt lat="48.33533" lon="4.54533">
        <ele>132</ele>
      </trkpt>
      <trkpt lat="48.33522" lon="4.5483">
        <ele>131</ele>
      </trkpt>
      <trkpt lat="48.33497" lon="4.54977">
        <ele>133</ele>
      </trkpt>
      <trkpt lat="48.33351" lon="4.54903">
        <ele>134</ele>
      </trkpt>
      <trkpt lat="48.33265" lon="4.55017">
        <ele>135</ele>
      </trkpt>
      <trkpt lat="48.33203" lon="4.5503">
        <ele>134</ele>
      </trkpt>
      <trkpt lat="48.33184" lon="4.55099">
        <ele>133</ele>
      </trkpt>
      <trkpt lat="48.33227" lon="4.55184">
        <ele>133</ele>
      </trkpt>
      <trkpt lat="48.33005" lon="4.55473">
        <ele>137</ele>
      </trkpt>
      <trkpt lat="48.32808" lon="4.55387">
        <ele>136</ele>
      </trkpt>
      <trkpt lat="48.32665" lon="4.55241">
        <ele>131</ele>
      </trkpt>
      <trkpt lat="48.32627" lon="4.55188">
        <ele>130</ele>
      </trkpt>
      <trkpt lat="48.32638" lon="4.5492">
        <ele>131</ele>
      </trkpt>
      <trkpt lat="48.32546" lon="4.54737">
        <ele>133</ele>
      </trkpt>
      <trkpt lat="48.32608" lon="4.54562">
        <ele>131</ele>
      </trkpt>
      <trkpt lat="48.32381" lon="4.54367">
        <ele>139</ele>
      </trkpt>
      <trkpt lat="48.32237" lon="4.54456">
        <ele>140</ele>
      </trkpt>
      <trkpt lat="48.31772" lon="4.53806">
        <ele>142</ele>
      </trkpt>
      <trkpt lat="48.3167" lon="4.53765">
        <ele>142</ele>
      </trkpt>
      <trkpt lat="48.31505" lon="4.53452">
        <ele>147</ele>
      </trkpt>
      <trkpt lat="48.31296" lon="4.53289">
        <ele>168</ele>
      </trkpt>
      <trkpt lat="48.3105" lon="4.53098">
        <ele>177</ele>
      </trkpt>
      <trkpt lat="48.30507" lon="4.5274">
        <ele>185</ele>
      </trkpt>
      <trkpt lat="48.30431" lon="4.52744">
        <ele>187</ele>
      </trkpt>
      <trkpt lat="48.30298" lon="4.52557">
        <ele>185</ele>
      </trkpt>
      <trkpt lat="48.30279" lon="4.525">
        <ele>182</ele>
      </trkpt>
      <trkpt lat="48.30074" lon="4.52305">
        <ele>179</ele>
      </trkpt>
      <trkpt lat="48.2987" lon="4.5196">
        <ele>163</ele>
      </trkpt>
      <trkpt lat="48.29758" lon="4.51729">
        <ele>156</ele>
      </trkpt>
    </trkseg>
  </trk>
  <trk>
    <name><![CDATA[20 - AMANCE BAR SUR AUBE 24.9 KM]]></name>
    <extensions>
      <line xmlns="http://www.topografix.com/GPX/gpx_style/0/2">
        <color>000088</color>
        <width>4</width>
      </line>
    </extensions>
    <trkseg>
      <trkpt lat="48.29782" lon="4.51738">
        <ele>156</ele>
      </trkpt>
      <trkpt lat="48.29622" lon="4.51653">
        <ele>156</ele>
      </trkpt>
      <trkpt lat="48.29434" lon="4.51617">
        <ele>161</ele>
      </trkpt>
      <trkpt lat="48.29169" lon="4.51515">
        <ele>165</ele>
      </trkpt>
      <trkpt lat="48.28893" lon="4.51776">
        <ele>170</ele>
      </trkpt>
      <trkpt lat="48.28757" lon="4.51909">
        <ele>174</ele>
      </trkpt>
      <trkpt lat="48.28447" lon="4.52052">
        <ele>202</ele>
      </trkpt>
      <trkpt lat="48.28215" lon="4.52149">
        <ele>220</ele>
      </trkpt>
      <trkpt lat="48.28" lon="4.52257">
        <ele>212</ele>
      </trkpt>
      <trkpt lat="48.27823" lon="4.52328">
        <ele>212</ele>
      </trkpt>
      <trkpt lat="48.27687" lon="4.52462">
        <ele>214</ele>
      </trkpt>
      <trkpt lat="48.27503" lon="4.52543">
        <ele>220</ele>
      </trkpt>
      <trkpt lat="48.27309" lon="4.52733">
        <ele>223</ele>
      </trkpt>
      <trkpt lat="48.27128" lon="4.52641">
        <ele>224</ele>
      </trkpt>
      <trkpt lat="48.26886" lon="4.52282">
        <ele>221</ele>
      </trkpt>
      <trkpt lat="48.26699" lon="4.52513">
        <ele>216</ele>
      </trkpt>
      <trkpt lat="48.26334" lon="4.52728">
        <ele>212</ele>
      </trkpt>
      <trkpt lat="48.26314" lon="4.52897">
        <ele>205</ele>
      </trkpt>
      <trkpt lat="48.26178" lon="4.53204">
        <ele>202</ele>
      </trkpt>
      <trkpt lat="48.26038" lon="4.53833">
        <ele>197</ele>
      </trkpt>
      <trkpt lat="48.25912" lon="4.54519">
        <ele>208</ele>
      </trkpt>
      <trkpt lat="48.25622" lon="4.55057">
        <ele>214</ele>
      </trkpt>
      <trkpt lat="48.2582" lon="4.55702">
        <ele>218</ele>
      </trkpt>
      <trkpt lat="48.25714" lon="4.56285">
        <ele>217</ele>
      </trkpt>
      <trkpt lat="48.25547" lon="4.56776">
        <ele>224</ele>
      </trkpt>
      <trkpt lat="48.25506" lon="4.57283">
        <ele>227</ele>
      </trkpt>
      <trkpt lat="48.25707" lon="4.57391">
        <ele>224</ele>
      </trkpt>
      <trkpt lat="48.2582" lon="4.57575">
        <ele>223</ele>
      </trkpt>
      <trkpt lat="48.25803" lon="4.57882">
        <ele>226</ele>
      </trkpt>
      <trkpt lat="48.26004" lon="4.57923">
        <ele>224</ele>
      </trkpt>
      <trkpt lat="48.26167" lon="4.58036">
        <ele>226</ele>
      </trkpt>
      <trkpt lat="48.26556" lon="4.58588">
        <ele>228</ele>
      </trkpt>
      <trkpt lat="48.26331" lon="4.59208">
        <ele>216</ele>
      </trkpt>
      <trkpt lat="48.26338" lon="4.59279">
        <ele>214</ele>
      </trkpt>
      <trkpt lat="48.26266" lon="4.59366">
        <ele>209</ele>
      </trkpt>
      <trkpt lat="48.26386" lon="4.59776">
        <ele>214</ele>
      </trkpt>
      <trkpt lat="48.26205" lon="4.59914">
        <ele>219</ele>
      </trkpt>
      <trkpt lat="48.2644" lon="4.60411">
        <ele>201</ele>
      </trkpt>
      <trkpt lat="48.26433" lon="4.60738">
        <ele>191</ele>
      </trkpt>
      <trkpt lat="48.26491" lon="4.61015">
        <ele>178</ele>
      </trkpt>
      <trkpt lat="48.26478" lon="4.61363">
        <ele>159</ele>
      </trkpt>
      <trkpt lat="48.2659" lon="4.61583">
        <ele>154</ele>
      </trkpt>
      <trkpt lat="48.26645" lon="4.61808">
        <ele>151</ele>
      </trkpt>
      <trkpt lat="48.26532" lon="4.621">
        <ele>157</ele>
      </trkpt>
      <trkpt lat="48.26348" lon="4.62202">
        <ele>196</ele>
      </trkpt>
      <trkpt lat="48.26089" lon="4.62023">
        <ele>218</ele>
      </trkpt>
      <trkpt lat="48.26106" lon="4.61941">
        <ele>218</ele>
      </trkpt>
      <trkpt lat="48.25728" lon="4.617">
        <ele>230</ele>
      </trkpt>
      <trkpt lat="48.25605" lon="4.6189">
        <ele>248</ele>
      </trkpt>
      <trkpt lat="48.25455" lon="4.62048">
        <ele>255</ele>
      </trkpt>
      <trkpt lat="48.25496" lon="4.62161">
        <ele>259</ele>
      </trkpt>
      <trkpt lat="48.25472" lon="4.62253">
        <ele>262</ele>
      </trkpt>
      <trkpt lat="48.25418" lon="4.62356">
        <ele>267</ele>
      </trkpt>
      <trkpt lat="48.25408" lon="4.6253">
        <ele>268</ele>
      </trkpt>
      <trkpt lat="48.25288" lon="4.62739">
        <ele>268</ele>
      </trkpt>
      <trkpt lat="48.25057" lon="4.6298">
        <ele>269</ele>
      </trkpt>
      <trkpt lat="48.25138" lon="4.63169">
        <ele>265</ele>
      </trkpt>
      <trkpt lat="48.25067" lon="4.63579">
        <ele>266</ele>
      </trkpt>
      <trkpt lat="48.24944" lon="4.63712">
        <ele>264</ele>
      </trkpt>
      <trkpt lat="48.24784" lon="4.6407">
        <ele>278</ele>
      </trkpt>
      <trkpt lat="48.24477" lon="4.63978">
        <ele>269</ele>
      </trkpt>
      <trkpt lat="48.24477" lon="4.63912">
        <ele>270</ele>
      </trkpt>
      <trkpt lat="48.24368" lon="4.63866">
        <ele>258</ele>
      </trkpt>
      <trkpt lat="48.24348" lon="4.63804">
        <ele>256</ele>
      </trkpt>
      <trkpt lat="48.24184" lon="4.63773">
        <ele>243</ele>
      </trkpt>
      <trkpt lat="48.23973" lon="4.63651">
        <ele>230</ele>
      </trkpt>
      <trkpt lat="48.23853" lon="4.63681">
        <ele>218</ele>
      </trkpt>
      <trkpt lat="48.23826" lon="4.6384">
        <ele>222</ele>
      </trkpt>
      <trkpt lat="48.23666" lon="4.64101">
        <ele>207</ele>
      </trkpt>
      <trkpt lat="48.23625" lon="4.6405">
        <ele>206</ele>
      </trkpt>
      <trkpt lat="48.23676" lon="4.63973">
        <ele>202</ele>
      </trkpt>
      <trkpt lat="48.23529" lon="4.63804">
        <ele>213</ele>
      </trkpt>
      <trkpt lat="48.23362" lon="4.6383">
        <ele>228</ele>
      </trkpt>
      <trkpt lat="48.2311" lon="4.63953">
        <ele>245</ele>
      </trkpt>
      <trkpt lat="48.2297" lon="4.64214">
        <ele>262</ele>
      </trkpt>
      <trkpt lat="48.22769" lon="4.64408">
        <ele>276</ele>
      </trkpt>
      <trkpt lat="48.22619" lon="4.64393">
        <ele>280</ele>
      </trkpt>
      <trkpt lat="48.2266" lon="4.64551">
        <ele>282</ele>
      </trkpt>
      <trkpt lat="48.22513" lon="4.64669">
        <ele>291</ele>
      </trkpt>
      <trkpt lat="48.2237" lon="4.64644">
        <ele>294</ele>
      </trkpt>
      <trkpt lat="48.22145" lon="4.65979">
        <ele>298</ele>
      </trkpt>
      <trkpt lat="48.222" lon="4.66502">
        <ele>309</ele>
      </trkpt>
      <trkpt lat="48.22749" lon="4.67674">
        <ele>303</ele>
      </trkpt>
      <trkpt lat="48.22827" lon="4.68175">
        <ele>277</ele>
      </trkpt>
      <trkpt lat="48.2294" lon="4.68196">
        <ele>273</ele>
      </trkpt>
      <trkpt lat="48.22991" lon="4.68324">
        <ele>264</ele>
      </trkpt>
      <trkpt lat="48.23049" lon="4.68923">
        <ele>191</ele>
      </trkpt>
      <trkpt lat="48.23175" lon="4.69153">
        <ele>172</ele>
      </trkpt>
      <trkpt lat="48.23127" lon="4.69383">
        <ele>171</ele>
      </trkpt>
      <trkpt lat="48.23148" lon="4.69629">
        <ele>168</ele>
      </trkpt>
      <trkpt lat="48.23124" lon="4.69762">
        <ele>167</ele>
      </trkpt>
      <trkpt lat="48.23069" lon="4.6988">
        <ele>167</ele>
      </trkpt>
      <trkpt lat="48.2298" lon="4.70325">
        <ele>170</ele>
      </trkpt>
      <trkpt lat="48.23059" lon="4.70422">
        <ele>166</ele>
      </trkpt>
      <trkpt lat="48.23114" lon="4.70435">
        <ele>166</ele>
      </trkpt>
      <trkpt lat="48.23115" lon="4.70482">
        <ele>166</ele>
      </trkpt>
      <trkpt lat="48.23129" lon="4.70557">
        <ele>166</ele>
      </trkpt>
      <trkpt lat="48.23112" lon="4.70623">
        <ele>167</ele>
      </trkpt>
      <trkpt lat="48.23046" lon="4.70796">
        <ele>166</ele>
      </trkpt>
      <trkpt lat="48.23074" lon="4.71077">
        <ele>166</ele>
      </trkpt>
    </trkseg>
  </trk>
  <trk>
    <name><![CDATA[21 - BAR SUR AUBE MARANVILLE 24.2 KM]]></name>
    <extensions>
      <line xmlns="http://www.topografix.com/GPX/gpx_style/0/2">
        <color>008800</color>
        <width>4</width>
      </line>
    </extensions>
    <trkseg>
      <trkpt lat="48.23082" lon="4.71083">
        <ele>166</ele>
        <time>2021-11-05T15:19:54+01:00</time>
      </trkpt>
      <trkpt lat="48.23052" lon="4.7089">
        <ele>166</ele>
        <time>2021-11-05T15:19:59+01:00</time>
      </trkpt>
      <trkpt lat="48.23052" lon="4.70781">
        <ele>166</ele>
        <time>2021-11-05T15:20:04+01:00</time>
      </trkpt>
      <trkpt lat="48.23128" lon="4.70578">
        <ele>167</ele>
        <time>2021-11-05T15:20:09+01:00</time>
      </trkpt>
      <trkpt lat="48.23127" lon="4.70515">
        <ele>166</ele>
        <time>2021-11-05T15:20:14+01:00</time>
      </trkpt>
      <trkpt lat="48.23109" lon="4.70467">
        <ele>165</ele>
        <time>2021-11-05T15:20:19+01:00</time>
      </trkpt>
      <trkpt lat="48.23115" lon="4.70433">
        <ele>166</ele>
        <time>2021-11-05T15:20:24+01:00</time>
      </trkpt>
      <trkpt lat="48.23065" lon="4.70424">
        <ele>166</ele>
        <time>2021-11-05T15:20:29+01:00</time>
      </trkpt>
      <trkpt lat="48.22986" lon="4.70327">
        <ele>169</ele>
        <time>2021-11-05T15:20:34+01:00</time>
      </trkpt>
      <trkpt lat="48.22906" lon="4.70234">
        <ele>182</ele>
        <time>2021-11-05T15:20:39+01:00</time>
      </trkpt>
      <trkpt lat="48.22781" lon="4.70137">
        <ele>199</ele>
        <time>2021-11-05T15:20:44+01:00</time>
      </trkpt>
      <trkpt lat="48.22676" lon="4.70064">
        <ele>214</ele>
        <time>2021-11-05T15:20:49+01:00</time>
      </trkpt>
      <trkpt lat="48.22548" lon="4.69942">
        <ele>230</ele>
        <time>2021-11-05T15:20:54+01:00</time>
      </trkpt>
      <trkpt lat="48.22464" lon="4.69934">
        <ele>247</ele>
        <time>2021-11-05T15:20:59+01:00</time>
      </trkpt>
      <trkpt lat="48.22447" lon="4.70047">
        <ele>246</ele>
        <time>2021-11-05T15:21:04+01:00</time>
      </trkpt>
      <trkpt lat="48.2222" lon="4.69898">
        <ele>302</ele>
        <time>2021-11-05T15:21:09+01:00</time>
      </trkpt>
      <trkpt lat="48.21932" lon="4.69883">
        <ele>310</ele>
        <time>2021-11-05T15:21:14+01:00</time>
      </trkpt>
      <trkpt lat="48.21929" lon="4.69682">
        <ele>309</ele>
        <time>2021-11-05T15:21:19+01:00</time>
      </trkpt>
      <trkpt lat="48.21874" lon="4.69692">
        <ele>314</ele>
        <time>2021-11-05T15:21:24+01:00</time>
      </trkpt>
      <trkpt lat="48.21602" lon="4.69646">
        <ele>319</ele>
        <time>2021-11-05T15:21:29+01:00</time>
      </trkpt>
      <trkpt lat="48.21482" lon="4.69733">
        <ele>320</ele>
        <time>2021-11-05T15:21:34+01:00</time>
      </trkpt>
      <trkpt lat="48.21379" lon="4.69841">
        <ele>324</ele>
        <time>2021-11-05T15:21:39+01:00</time>
      </trkpt>
      <trkpt lat="48.21266" lon="4.69841">
        <ele>327</ele>
        <time>2021-11-05T15:21:44+01:00</time>
      </trkpt>
      <trkpt lat="48.2116" lon="4.69883">
        <ele>333</ele>
        <time>2021-11-05T15:21:49+01:00</time>
      </trkpt>
      <trkpt lat="48.20847" lon="4.69903">
        <ele>340</ele>
        <time>2021-11-05T15:21:54+01:00</time>
      </trkpt>
      <trkpt lat="48.20731" lon="4.69919">
        <ele>342</ele>
        <time>2021-11-05T15:21:59+01:00</time>
      </trkpt>
      <trkpt lat="48.20607" lon="4.69965">
        <ele>339</ele>
        <time>2021-11-05T15:22:04+01:00</time>
      </trkpt>
      <trkpt lat="48.20391" lon="4.69949">
        <ele>343</ele>
        <time>2021-11-05T15:22:09+01:00</time>
      </trkpt>
      <trkpt lat="48.20175" lon="4.69908">
        <ele>346</ele>
        <time>2021-11-05T15:22:14+01:00</time>
      </trkpt>
      <trkpt lat="48.19979" lon="4.69883">
        <ele>350</ele>
        <time>2021-11-05T15:22:19+01:00</time>
      </trkpt>
      <trkpt lat="48.19635" lon="4.69924">
        <ele>343</ele>
        <time>2021-11-05T15:22:24+01:00</time>
      </trkpt>
      <trkpt lat="48.19333" lon="4.70078">
        <ele>337</ele>
        <time>2021-11-05T15:22:29+01:00</time>
      </trkpt>
      <trkpt lat="48.1934" lon="4.70511">
        <ele>336</ele>
        <time>2021-11-05T15:22:34+01:00</time>
      </trkpt>
      <trkpt lat="48.19409" lon="4.70985">
        <ele>311</ele>
        <time>2021-11-05T15:22:39+01:00</time>
      </trkpt>
      <trkpt lat="48.19488" lon="4.7133">
        <ele>276</ele>
        <time>2021-11-05T15:22:44+01:00</time>
      </trkpt>
      <trkpt lat="48.19405" lon="4.7149">
        <ele>261</ele>
        <time>2021-11-05T15:22:49+01:00</time>
      </trkpt>
      <trkpt lat="48.19385" lon="4.71804">
        <ele>237</ele>
        <time>2021-11-05T15:22:54+01:00</time>
      </trkpt>
      <trkpt lat="48.19288" lon="4.71951">
        <ele>224</ele>
        <time>2021-11-05T15:22:59+01:00</time>
      </trkpt>
      <trkpt lat="48.19295" lon="4.72174">
        <ele>220</ele>
        <time>2021-11-05T15:23:04+01:00</time>
      </trkpt>
      <trkpt lat="48.19217" lon="4.7222">
        <ele>220</ele>
        <time>2021-11-05T15:23:09+01:00</time>
      </trkpt>
      <trkpt lat="48.19131" lon="4.72336">
        <ele>226</ele>
        <time>2021-11-05T15:23:14+01:00</time>
      </trkpt>
      <trkpt lat="48.18998" lon="4.72461">
        <ele>234</ele>
        <time>2021-11-05T15:23:19+01:00</time>
      </trkpt>
      <trkpt lat="48.18843" lon="4.72679">
        <ele>262</ele>
        <time>2021-11-05T15:23:24+01:00</time>
      </trkpt>
      <trkpt lat="48.18698" lon="4.7273">
        <ele>256</ele>
        <time>2021-11-05T15:23:29+01:00</time>
      </trkpt>
      <trkpt lat="48.18633" lon="4.728">
        <ele>249</ele>
        <time>2021-11-05T15:23:34+01:00</time>
      </trkpt>
      <trkpt lat="48.18556" lon="4.73018">
        <ele>240</ele>
        <time>2021-11-05T15:23:39+01:00</time>
      </trkpt>
      <trkpt lat="48.18308" lon="4.73398">
        <ele>244</ele>
        <time>2021-11-05T15:23:44+01:00</time>
      </trkpt>
      <trkpt lat="48.18017" lon="4.73667">
        <ele>251</ele>
        <time>2021-11-05T15:23:49+01:00</time>
      </trkpt>
      <trkpt lat="48.17835" lon="4.73913">
        <ele>291</ele>
        <time>2021-11-05T15:23:54+01:00</time>
      </trkpt>
      <trkpt lat="48.17637" lon="4.7408">
        <ele>290</ele>
        <time>2021-11-05T15:23:59+01:00</time>
      </trkpt>
      <trkpt lat="48.16954" lon="4.74859">
        <ele>272</ele>
        <time>2021-11-05T15:24:04+01:00</time>
      </trkpt>
      <trkpt lat="48.16143" lon="4.75777">
        <ele>287</ele>
        <time>2021-11-05T15:24:09+01:00</time>
      </trkpt>
      <trkpt lat="48.15849" lon="4.75647">
        <ele>291</ele>
        <time>2021-11-05T15:24:14+01:00</time>
      </trkpt>
      <trkpt lat="48.15722" lon="4.75736">
        <ele>291</ele>
        <time>2021-11-05T15:24:19+01:00</time>
      </trkpt>
      <trkpt lat="48.15661" lon="4.75972">
        <ele>287</ele>
        <time>2021-11-05T15:24:24+01:00</time>
      </trkpt>
      <trkpt lat="48.15534" lon="4.76093">
        <ele>284</ele>
        <time>2021-11-05T15:24:29+01:00</time>
      </trkpt>
      <trkpt lat="48.15558" lon="4.7645">
        <ele>270</ele>
        <time>2021-11-05T15:24:34+01:00</time>
      </trkpt>
      <trkpt lat="48.15255" lon="4.76552">
        <ele>259</ele>
        <time>2021-11-05T15:24:39+01:00</time>
      </trkpt>
      <trkpt lat="48.15166" lon="4.767">
        <ele>252</ele>
        <time>2021-11-05T15:24:44+01:00</time>
      </trkpt>
      <trkpt lat="48.14958" lon="4.769">
        <ele>243</ele>
        <time>2021-11-05T15:24:49+01:00</time>
      </trkpt>
      <trkpt lat="48.14791" lon="4.76886">
        <ele>234</ele>
        <time>2021-11-05T15:24:54+01:00</time>
      </trkpt>
      <trkpt lat="48.14655" lon="4.76946">
        <ele>219</ele>
        <time>2021-11-05T15:24:59+01:00</time>
      </trkpt>
      <trkpt lat="48.1455" lon="4.77322">
        <ele>214</ele>
        <time>2021-11-05T15:25:04+01:00</time>
      </trkpt>
      <trkpt lat="48.14612" lon="4.77869">
        <ele>208</ele>
        <time>2021-11-05T15:25:09+01:00</time>
      </trkpt>
      <trkpt lat="48.14534" lon="4.77948">
        <ele>196</ele>
        <time>2021-11-05T15:25:14+01:00</time>
      </trkpt>
      <trkpt lat="48.14432" lon="4.78096">
        <ele>196</ele>
        <time>2021-11-05T15:25:19+01:00</time>
      </trkpt>
      <trkpt lat="48.14448" lon="4.78235">
        <ele>199</ele>
        <time>2021-11-05T15:25:24+01:00</time>
      </trkpt>
      <trkpt lat="48.1451" lon="4.78296">
        <ele>194</ele>
        <time>2021-11-05T15:25:29+01:00</time>
      </trkpt>
      <trkpt lat="48.14578" lon="4.78616">
        <ele>192</ele>
        <time>2021-11-05T15:25:34+01:00</time>
      </trkpt>
      <trkpt lat="48.1454" lon="4.78648">
        <ele>197</ele>
        <time>2021-11-05T15:25:39+01:00</time>
      </trkpt>
      <trkpt lat="48.1454" lon="4.78968">
        <ele>195</ele>
        <time>2021-11-05T15:25:44+01:00</time>
      </trkpt>
      <trkpt lat="48.1459" lon="4.79297">
        <ele>189</ele>
        <time>2021-11-05T15:25:49+01:00</time>
      </trkpt>
      <trkpt lat="48.14426" lon="4.7978">
        <ele>189</ele>
        <time>2021-11-05T15:25:54+01:00</time>
      </trkpt>
      <trkpt lat="48.14333" lon="4.80253">
        <ele>198</ele>
        <time>2021-11-05T15:25:59+01:00</time>
      </trkpt>
      <trkpt lat="48.14311" lon="4.80383">
        <ele>205</ele>
        <time>2021-11-05T15:26:04+01:00</time>
      </trkpt>
      <trkpt lat="48.14073" lon="4.80378">
        <ele>194</ele>
        <time>2021-11-05T15:26:09+01:00</time>
      </trkpt>
      <trkpt lat="48.13949" lon="4.80434">
        <ele>208</ele>
        <time>2021-11-05T15:26:14+01:00</time>
      </trkpt>
      <trkpt lat="48.13909" lon="4.80457">
        <ele>214</ele>
        <time>2021-11-05T15:26:19+01:00</time>
      </trkpt>
      <trkpt lat="48.13299" lon="4.80703">
        <ele>291</ele>
        <time>2021-11-05T15:26:24+01:00</time>
      </trkpt>
      <trkpt lat="48.13225" lon="4.80907">
        <ele>295</ele>
        <time>2021-11-05T15:26:29+01:00</time>
      </trkpt>
      <trkpt lat="48.13098" lon="4.81078">
        <ele>299</ele>
        <time>2021-11-05T15:26:34+01:00</time>
      </trkpt>
      <trkpt lat="48.13015" lon="4.81407">
        <ele>311</ele>
        <time>2021-11-05T15:26:39+01:00</time>
      </trkpt>
      <trkpt lat="48.1286" lon="4.81649">
        <ele>309</ele>
        <time>2021-11-05T15:26:44+01:00</time>
      </trkpt>
      <trkpt lat="48.12724" lon="4.8176">
        <ele>306</ele>
        <time>2021-11-05T15:26:49+01:00</time>
      </trkpt>
      <trkpt lat="48.12591" lon="4.82098">
        <ele>303</ele>
        <time>2021-11-05T15:26:54+01:00</time>
      </trkpt>
      <trkpt lat="48.12934" lon="4.8291">
        <ele>239</ele>
        <time>2021-11-05T15:26:59+01:00</time>
      </trkpt>
      <trkpt lat="48.13049" lon="4.83263">
        <ele>273</ele>
        <time>2021-11-05T15:27:04+01:00</time>
      </trkpt>
      <trkpt lat="48.1334" lon="4.8393">
        <ele>314</ele>
        <time>2021-11-05T15:27:09+01:00</time>
      </trkpt>
      <trkpt lat="48.12978" lon="4.83559">
        <ele>304</ele>
        <time>2021-11-05T15:27:14+01:00</time>
      </trkpt>
      <trkpt lat="48.12947" lon="4.83745">
        <ele>305</ele>
        <time>2021-11-05T15:27:19+01:00</time>
      </trkpt>
      <trkpt lat="48.12851" lon="4.84083">
        <ele>316</ele>
        <time>2021-11-05T15:27:24+01:00</time>
      </trkpt>
      <trkpt lat="48.12913" lon="4.84454">
        <ele>330</ele>
        <time>2021-11-05T15:27:29+01:00</time>
      </trkpt>
      <trkpt lat="48.12603" lon="4.84505">
        <ele>326</ele>
        <time>2021-11-05T15:27:34+01:00</time>
      </trkpt>
      <trkpt lat="48.12649" lon="4.85679">
        <ele>336</ele>
        <time>2021-11-05T15:27:39+01:00</time>
      </trkpt>
      <trkpt lat="48.12763" lon="4.85816">
        <ele>327</ele>
        <time>2021-11-05T15:27:44+01:00</time>
      </trkpt>
      <trkpt lat="48.12903" lon="4.86159">
        <ele>280</ele>
        <time>2021-11-05T15:27:49+01:00</time>
      </trkpt>
      <trkpt lat="48.13049" lon="4.86318">
        <ele>255</ele>
        <time>2021-11-05T15:27:54+01:00</time>
      </trkpt>
      <trkpt lat="48.13293" lon="4.86151">
        <ele>234</ele>
        <time>2021-11-05T15:27:59+01:00</time>
      </trkpt>
      <trkpt lat="48.13604" lon="4.86085">
        <ele>204</ele>
        <time>2021-11-05T15:28:04+01:00</time>
      </trkpt>
      <trkpt lat="48.13631" lon="4.86029">
        <ele>203</ele>
        <time>2021-11-05T15:28:09+01:00</time>
      </trkpt>
    </trkseg>
  </trk>
  <trk>
    <name><![CDATA[22 - MARANVILLE SEMOUTIERS 34.2 KM]]></name>
    <extensions>
      <line xmlns="http://www.topografix.com/GPX/gpx_style/0/2">
        <color>880000</color>
        <width>4</width>
      </line>
    </extensions>
    <trkseg>
      <trkpt lat="48.13633" lon="4.86012">
        <ele>203</ele>
        <time>2021-11-05T17:09:37+01:00</time>
      </trkpt>
      <trkpt lat="48.13599" lon="4.86083">
        <ele>204</ele>
        <time>2021-11-05T17:09:42+01:00</time>
      </trkpt>
      <trkpt lat="48.13294" lon="4.86154">
        <ele>233</ele>
        <time>2021-11-05T17:09:47+01:00</time>
      </trkpt>
      <trkpt lat="48.13053" lon="4.86321">
        <ele>254</ele>
        <time>2021-11-05T17:09:52+01:00</time>
      </trkpt>
      <trkpt lat="48.12979" lon="4.86271">
        <ele>264</ele>
        <time>2021-11-05T17:09:57+01:00</time>
      </trkpt>
      <trkpt lat="48.1283" lon="4.85956">
        <ele>306</ele>
        <time>2021-11-05T17:10:02+01:00</time>
      </trkpt>
      <trkpt lat="48.12736" lon="4.85775">
        <ele>330</ele>
        <time>2021-11-05T17:10:07+01:00</time>
      </trkpt>
      <trkpt lat="48.1266" lon="4.85888">
        <ele>323</ele>
        <time>2021-11-05T17:10:12+01:00</time>
      </trkpt>
      <trkpt lat="48.12546" lon="4.85973">
        <ele>312</ele>
        <time>2021-11-05T17:10:17+01:00</time>
      </trkpt>
      <trkpt lat="48.12444" lon="4.85895">
        <ele>313</ele>
        <time>2021-11-05T17:10:22+01:00</time>
      </trkpt>
      <trkpt lat="48.12115" lon="4.85247">
        <ele>336</ele>
        <time>2021-11-05T17:10:27+01:00</time>
      </trkpt>
      <trkpt lat="48.12037" lon="4.85247">
        <ele>340</ele>
        <time>2021-11-05T17:10:32+01:00</time>
      </trkpt>
      <trkpt lat="48.11999" lon="4.85374">
        <ele>339</ele>
        <time>2021-11-05T17:10:37+01:00</time>
      </trkpt>
      <trkpt lat="48.12006" lon="4.86069">
        <ele>322</ele>
        <time>2021-11-05T17:10:42+01:00</time>
      </trkpt>
      <trkpt lat="48.11971" lon="4.86122">
        <ele>323</ele>
        <time>2021-11-05T17:10:47+01:00</time>
      </trkpt>
      <trkpt lat="48.11831" lon="4.86147">
        <ele>325</ele>
        <time>2021-11-05T17:10:52+01:00</time>
      </trkpt>
      <trkpt lat="48.11777" lon="4.86239">
        <ele>308</ele>
        <time>2021-11-05T17:10:57+01:00</time>
      </trkpt>
      <trkpt lat="48.11689" lon="4.86654">
        <ele>265</ele>
        <time>2021-11-05T17:11:02+01:00</time>
      </trkpt>
      <trkpt lat="48.1164" lon="4.86612">
        <ele>263</ele>
        <time>2021-11-05T17:11:07+01:00</time>
      </trkpt>
      <trkpt lat="48.1155" lon="4.86339">
        <ele>259</ele>
        <time>2021-11-05T17:11:12+01:00</time>
      </trkpt>
      <trkpt lat="48.11476" lon="4.86424">
        <ele>250</ele>
        <time>2021-11-05T17:11:17+01:00</time>
      </trkpt>
      <trkpt lat="48.11422" lon="4.8669">
        <ele>237</ele>
        <time>2021-11-05T17:11:22+01:00</time>
      </trkpt>
      <trkpt lat="48.11358" lon="4.86899">
        <ele>229</ele>
        <time>2021-11-05T17:11:27+01:00</time>
      </trkpt>
      <trkpt lat="48.11197" lon="4.87087">
        <ele>216</ele>
        <time>2021-11-05T17:11:32+01:00</time>
      </trkpt>
      <trkpt lat="48.11083" lon="4.8719">
        <ele>215</ele>
        <time>2021-11-05T17:11:37+01:00</time>
      </trkpt>
      <trkpt lat="48.11069" lon="4.87262">
        <ele>212</ele>
        <time>2021-11-05T17:11:42+01:00</time>
      </trkpt>
      <trkpt lat="48.10955" lon="4.87299">
        <ele>213</ele>
        <time>2021-11-05T17:11:47+01:00</time>
      </trkpt>
      <trkpt lat="48.10875" lon="4.87416">
        <ele>219</ele>
        <time>2021-11-05T17:11:52+01:00</time>
      </trkpt>
      <trkpt lat="48.10956" lon="4.87553">
        <ele>212</ele>
        <time>2021-11-05T17:11:57+01:00</time>
      </trkpt>
      <trkpt lat="48.10939" lon="4.87675">
        <ele>213</ele>
        <time>2021-11-05T17:12:02+01:00</time>
      </trkpt>
      <trkpt lat="48.11211" lon="4.8804">
        <ele>205</ele>
        <time>2021-11-05T17:12:07+01:00</time>
      </trkpt>
      <trkpt lat="48.11348" lon="4.88323">
        <ele>205</ele>
        <time>2021-11-05T17:12:12+01:00</time>
      </trkpt>
      <trkpt lat="48.11471" lon="4.88744">
        <ele>205</ele>
        <time>2021-11-05T17:12:17+01:00</time>
      </trkpt>
      <trkpt lat="48.1122" lon="4.88841">
        <ele>205</ele>
        <time>2021-11-05T17:12:22+01:00</time>
      </trkpt>
      <trkpt lat="48.11055" lon="4.88992">
        <ele>205</ele>
        <time>2021-11-05T17:12:27+01:00</time>
      </trkpt>
      <trkpt lat="48.10866" lon="4.89309">
        <ele>208</ele>
        <time>2021-11-05T17:12:32+01:00</time>
      </trkpt>
      <trkpt lat="48.10817" lon="4.89482">
        <ele>210</ele>
        <time>2021-11-05T17:12:37+01:00</time>
      </trkpt>
      <trkpt lat="48.10641" lon="4.89621">
        <ele>208</ele>
        <time>2021-11-05T17:12:42+01:00</time>
      </trkpt>
      <trkpt lat="48.10736" lon="4.89887">
        <ele>228</ele>
        <time>2021-11-05T17:12:47+01:00</time>
      </trkpt>
      <trkpt lat="48.10837" lon="4.90335">
        <ele>262</ele>
        <time>2021-11-05T17:12:52+01:00</time>
      </trkpt>
      <trkpt lat="48.10839" lon="4.9047">
        <ele>272</ele>
        <time>2021-11-05T17:12:57+01:00</time>
      </trkpt>
      <trkpt lat="48.10802" lon="4.90578">
        <ele>274</ele>
        <time>2021-11-05T17:13:02+01:00</time>
      </trkpt>
      <trkpt lat="48.1077" lon="4.91047">
        <ele>292</ele>
        <time>2021-11-05T17:13:07+01:00</time>
      </trkpt>
      <trkpt lat="48.10616" lon="4.9137">
        <ele>285</ele>
        <time>2021-11-05T17:13:12+01:00</time>
      </trkpt>
      <trkpt lat="48.10551" lon="4.91542">
        <ele>285</ele>
        <time>2021-11-05T17:13:17+01:00</time>
      </trkpt>
      <trkpt lat="48.10327" lon="4.9182">
        <ele>293</ele>
        <time>2021-11-05T17:13:22+01:00</time>
      </trkpt>
      <trkpt lat="48.10186" lon="4.91952">
        <ele>291</ele>
        <time>2021-11-05T17:13:27+01:00</time>
      </trkpt>
      <trkpt lat="48.09942" lon="4.92376">
        <ele>290</ele>
        <time>2021-11-05T17:13:32+01:00</time>
      </trkpt>
      <trkpt lat="48.09845" lon="4.92499">
        <ele>297</ele>
        <time>2021-11-05T17:13:37+01:00</time>
      </trkpt>
      <trkpt lat="48.09649" lon="4.92649">
        <ele>305</ele>
        <time>2021-11-05T17:13:42+01:00</time>
      </trkpt>
      <trkpt lat="48.09429" lon="4.93037">
        <ele>290</ele>
        <time>2021-11-05T17:13:47+01:00</time>
      </trkpt>
      <trkpt lat="48.09037" lon="4.92515">
        <ele>267</ele>
        <time>2021-11-05T17:13:52+01:00</time>
      </trkpt>
      <trkpt lat="48.08305" lon="4.92397">
        <ele>213</ele>
        <time>2021-11-05T17:13:57+01:00</time>
      </trkpt>
      <trkpt lat="48.08242" lon="4.92643">
        <ele>216</ele>
        <time>2021-11-05T17:14:02+01:00</time>
      </trkpt>
      <trkpt lat="48.08061" lon="4.92572">
        <ele>214</ele>
        <time>2021-11-05T17:14:07+01:00</time>
      </trkpt>
      <trkpt lat="48.07882" lon="4.92907">
        <ele>213</ele>
        <time>2021-11-05T17:14:12+01:00</time>
      </trkpt>
      <trkpt lat="48.06627" lon="4.9141">
        <ele>231</ele>
        <time>2021-11-05T17:14:17+01:00</time>
      </trkpt>
      <trkpt lat="48.06501" lon="4.91237">
        <ele>219</ele>
        <time>2021-11-05T17:14:22+01:00</time>
      </trkpt>
      <trkpt lat="48.06361" lon="4.91299">
        <ele>217</ele>
        <time>2021-11-05T17:14:27+01:00</time>
      </trkpt>
      <trkpt lat="48.06324" lon="4.91552">
        <ele>222</ele>
        <time>2021-11-05T17:14:32+01:00</time>
      </trkpt>
      <trkpt lat="48.06155" lon="4.91473">
        <ele>218</ele>
        <time>2021-11-05T17:14:37+01:00</time>
      </trkpt>
      <trkpt lat="48.05606" lon="4.91354">
        <ele>217</ele>
        <time>2021-11-05T17:14:42+01:00</time>
      </trkpt>
      <trkpt lat="48.05361" lon="4.91422">
        <ele>220</ele>
        <time>2021-11-05T17:14:47+01:00</time>
      </trkpt>
      <trkpt lat="48.05154" lon="4.91549">
        <ele>226</ele>
        <time>2021-11-05T17:14:52+01:00</time>
      </trkpt>
      <trkpt lat="48.04954" lon="4.9163">
        <ele>226</ele>
        <time>2021-11-05T17:14:57+01:00</time>
      </trkpt>
      <trkpt lat="48.04756" lon="4.9162">
        <ele>222</ele>
        <time>2021-11-05T17:15:02+01:00</time>
      </trkpt>
      <trkpt lat="48.04184" lon="4.91859">
        <ele>233</ele>
        <time>2021-11-05T17:15:07+01:00</time>
      </trkpt>
      <trkpt lat="48.04116" lon="4.91829">
        <ele>235</ele>
        <time>2021-11-05T17:15:12+01:00</time>
      </trkpt>
      <trkpt lat="48.03984" lon="4.91883">
        <ele>238</ele>
        <time>2021-11-05T17:15:17+01:00</time>
      </trkpt>
      <trkpt lat="48.04141" lon="4.92467">
        <ele>243</ele>
        <time>2021-11-05T17:15:22+01:00</time>
      </trkpt>
      <trkpt lat="48.04148" lon="4.93059">
        <ele>252</ele>
        <time>2021-11-05T17:15:27+01:00</time>
      </trkpt>
      <trkpt lat="48.04255" lon="4.93327">
        <ele>253</ele>
        <time>2021-11-05T17:15:32+01:00</time>
      </trkpt>
      <trkpt lat="48.04317" lon="4.93617">
        <ele>255</ele>
        <time>2021-11-05T17:15:37+01:00</time>
      </trkpt>
      <trkpt lat="48.04368" lon="4.94225">
        <ele>263</ele>
        <time>2021-11-05T17:15:42+01:00</time>
      </trkpt>
      <trkpt lat="48.04572" lon="4.95241">
        <ele>271</ele>
        <time>2021-11-05T17:15:47+01:00</time>
      </trkpt>
      <trkpt lat="48.04085" lon="4.95524">
        <ele>275</ele>
        <time>2021-11-05T17:15:52+01:00</time>
      </trkpt>
      <trkpt lat="48.04051" lon="4.96255">
        <ele>287</ele>
        <time>2021-11-05T17:15:57+01:00</time>
      </trkpt>
      <trkpt lat="48.04815" lon="4.96797">
        <ele>280</ele>
        <time>2021-11-05T17:16:02+01:00</time>
      </trkpt>
      <trkpt lat="48.04439" lon="4.98091">
        <ele>299</ele>
        <time>2021-11-05T17:16:07+01:00</time>
      </trkpt>
      <trkpt lat="48.04273" lon="4.97886">
        <ele>295</ele>
        <time>2021-11-05T17:16:12+01:00</time>
      </trkpt>
      <trkpt lat="48.04212" lon="4.98398">
        <ele>310</ele>
        <time>2021-11-05T17:16:17+01:00</time>
      </trkpt>
      <trkpt lat="48.03457" lon="4.98319">
        <ele>308</ele>
        <time>2021-11-05T17:16:22+01:00</time>
      </trkpt>
      <trkpt lat="48.03335" lon="4.99164">
        <ele>313</ele>
        <time>2021-11-05T17:16:27+01:00</time>
      </trkpt>
      <trkpt lat="48.03451" lon="4.99194">
        <ele>315</ele>
        <time>2021-11-05T17:16:32+01:00</time>
      </trkpt>
      <trkpt lat="48.03006" lon="5.02128">
        <ele>333</ele>
        <time>2021-11-05T17:16:37+01:00</time>
      </trkpt>
      <trkpt lat="48.02784" lon="5.04906">
        <ele>344</ele>
        <time>2021-11-05T17:16:42+01:00</time>
      </trkpt>
      <trkpt lat="48.02739" lon="5.05012">
        <ele>338</ele>
        <time>2021-11-05T17:16:47+01:00</time>
      </trkpt>
      <trkpt lat="48.02957" lon="5.05148">
        <ele>335</ele>
        <time>2021-11-05T17:16:52+01:00</time>
      </trkpt>
      <trkpt lat="48.03085" lon="5.05122">
        <ele>337</ele>
        <time>2021-11-05T17:16:57+01:00</time>
      </trkpt>
      <trkpt lat="48.03426" lon="5.05866">
        <ele>338</ele>
        <time>2021-11-05T17:17:02+01:00</time>
      </trkpt>
      <trkpt lat="48.03811" lon="5.05769">
        <ele>333</ele>
        <time>2021-11-05T17:17:07+01:00</time>
      </trkpt>
      <trkpt lat="48.04826" lon="5.05753">
        <ele>327</ele>
        <time>2021-11-05T17:17:12+01:00</time>
      </trkpt>
      <trkpt lat="48.05067" lon="5.05889">
        <ele>325</ele>
        <time>2021-11-05T17:17:17+01:00</time>
      </trkpt>
      <trkpt lat="48.05568" lon="5.06593">
        <ele>319</ele>
        <time>2021-11-05T17:17:22+01:00</time>
      </trkpt>
      <trkpt lat="48.05501" lon="5.06773">
        <ele>320</ele>
        <time>2021-11-05T17:17:27+01:00</time>
      </trkpt>
      <trkpt lat="48.05434" lon="5.06854">
        <ele>317</ele>
        <time>2021-11-05T17:17:32+01:00</time>
      </trkpt>
    </trkseg>
  </trk>
  <trk>
    <name><![CDATA[23 - SEMOUTIERS LEFFONDS 17.8 KM]]></name>
    <extensions>
      <line xmlns="http://www.topografix.com/GPX/gpx_style/0/2">
        <color>008888</color>
        <width>4</width>
      </line>
    </extensions>
    <trkseg>
      <trkpt lat="48.05333" lon="5.07039">
        <ele>321</ele>
        <time>2021-11-06T10:12:06+01:00</time>
      </trkpt>
      <trkpt lat="48.05588" lon="5.0652">
        <ele>319</ele>
        <time>2021-11-06T10:12:11+01:00</time>
      </trkpt>
      <trkpt lat="48.04915" lon="5.05726">
        <ele>325</ele>
        <time>2021-11-06T10:12:16+01:00</time>
      </trkpt>
      <trkpt lat="48.04139" lon="5.0565">
        <ele>334</ele>
        <time>2021-11-06T10:12:21+01:00</time>
      </trkpt>
      <trkpt lat="48.03445" lon="5.05787">
        <ele>338</ele>
        <time>2021-11-06T10:12:26+01:00</time>
      </trkpt>
      <trkpt lat="48.02884" lon="5.05955">
        <ele>337</ele>
        <time>2021-11-06T10:12:31+01:00</time>
      </trkpt>
      <trkpt lat="48.0221" lon="5.05925">
        <ele>341</ele>
        <time>2021-11-06T10:12:36+01:00</time>
      </trkpt>
      <trkpt lat="48.01229" lon="5.07115">
        <ele>342</ele>
        <time>2021-11-06T10:12:41+01:00</time>
      </trkpt>
      <trkpt lat="48.00956" lon="5.0629">
        <ele>346</ele>
        <time>2021-11-06T10:12:46+01:00</time>
      </trkpt>
      <trkpt lat="48.00482" lon="5.06533">
        <ele>358</ele>
        <time>2021-11-06T10:12:51+01:00</time>
      </trkpt>
      <trkpt lat="48.00493" lon="5.06604">
        <ele>358</ele>
        <time>2021-11-06T10:12:56+01:00</time>
      </trkpt>
      <trkpt lat="48.00236" lon="5.06723">
        <ele>369</ele>
        <time>2021-11-06T10:13:01+01:00</time>
      </trkpt>
      <trkpt lat="47.99318" lon="5.06962">
        <ele>364</ele>
        <time>2021-11-06T10:13:06+01:00</time>
      </trkpt>
      <trkpt lat="47.9934" lon="5.07095">
        <ele>363</ele>
        <time>2021-11-06T10:13:11+01:00</time>
      </trkpt>
      <trkpt lat="47.98813" lon="5.07209">
        <ele>362</ele>
        <time>2021-11-06T10:13:16+01:00</time>
      </trkpt>
      <trkpt lat="47.98849" lon="5.07639">
        <ele>368</ele>
        <time>2021-11-06T10:13:21+01:00</time>
      </trkpt>
      <trkpt lat="47.98702" lon="5.0759">
        <ele>368</ele>
        <time>2021-11-06T10:13:26+01:00</time>
      </trkpt>
      <trkpt lat="47.98259" lon="5.09118">
        <ele>361</ele>
        <time>2021-11-06T10:13:31+01:00</time>
      </trkpt>
      <trkpt lat="47.97841" lon="5.10651">
        <ele>388</ele>
        <time>2021-11-06T10:13:36+01:00</time>
      </trkpt>
      <trkpt lat="47.97845" lon="5.11209">
        <ele>387</ele>
        <time>2021-11-06T10:13:41+01:00</time>
      </trkpt>
      <trkpt lat="47.97962" lon="5.115">
        <ele>380</ele>
        <time>2021-11-06T10:13:46+01:00</time>
      </trkpt>
      <trkpt lat="47.97889" lon="5.11993">
        <ele>378</ele>
        <time>2021-11-06T10:13:51+01:00</time>
      </trkpt>
      <trkpt lat="47.97896" lon="5.12118">
        <ele>379</ele>
        <time>2021-11-06T10:13:56+01:00</time>
      </trkpt>
      <trkpt lat="47.97863" lon="5.12217">
        <ele>379</ele>
        <time>2021-11-06T10:14:01+01:00</time>
      </trkpt>
      <trkpt lat="47.97907" lon="5.12403">
        <ele>377</ele>
        <time>2021-11-06T10:14:06+01:00</time>
      </trkpt>
      <trkpt lat="47.97969" lon="5.12776">
        <ele>371</ele>
        <time>2021-11-06T10:14:11+01:00</time>
      </trkpt>
      <trkpt lat="47.97852" lon="5.13438">
        <ele>385</ele>
        <time>2021-11-06T10:14:16+01:00</time>
      </trkpt>
      <trkpt lat="47.97845" lon="5.13624">
        <ele>390</ele>
        <time>2021-11-06T10:14:21+01:00</time>
      </trkpt>
      <trkpt lat="47.97779" lon="5.13794">
        <ele>397</ele>
        <time>2021-11-06T10:14:26+01:00</time>
      </trkpt>
      <trkpt lat="47.97757" lon="5.14407">
        <ele>405</ele>
        <time>2021-11-06T10:14:31+01:00</time>
      </trkpt>
      <trkpt lat="47.97643" lon="5.15174">
        <ele>399</ele>
        <time>2021-11-06T10:14:36+01:00</time>
      </trkpt>
      <trkpt lat="47.97482" lon="5.15591">
        <ele>390</ele>
        <time>2021-11-06T10:14:41+01:00</time>
      </trkpt>
      <trkpt lat="47.97182" lon="5.15367">
        <ele>395</ele>
        <time>2021-11-06T10:14:46+01:00</time>
      </trkpt>
      <trkpt lat="47.96993" lon="5.15357">
        <ele>393</ele>
        <time>2021-11-06T10:14:51+01:00</time>
      </trkpt>
      <trkpt lat="47.97007" lon="5.15559">
        <ele>387</ele>
        <time>2021-11-06T10:14:56+01:00</time>
      </trkpt>
      <trkpt lat="47.97125" lon="5.15751">
        <ele>387</ele>
        <time>2021-11-06T10:15:01+01:00</time>
      </trkpt>
      <trkpt lat="47.97099" lon="5.16085">
        <ele>354</ele>
        <time>2021-11-06T10:15:06+01:00</time>
      </trkpt>
      <trkpt lat="47.97029" lon="5.16296">
        <ele>363</ele>
        <time>2021-11-06T10:15:11+01:00</time>
      </trkpt>
      <trkpt lat="47.96985" lon="5.16427">
        <ele>372</ele>
        <time>2021-11-06T10:15:16+01:00</time>
      </trkpt>
      <trkpt lat="47.97073" lon="5.16584">
        <ele>367</ele>
        <time>2021-11-06T10:15:21+01:00</time>
      </trkpt>
      <trkpt lat="47.97024" lon="5.16668">
        <ele>367</ele>
        <time>2021-11-06T10:15:26+01:00</time>
      </trkpt>
    </trkseg>
  </trk>
  <trk>
    <name><![CDATA[24 - LEFFONDS AUBERIVE 27.6 KM]]></name>
    <extensions>
      <line xmlns="http://www.topografix.com/GPX/gpx_style/0/2">
        <color>888800</color>
        <width>4</width>
      </line>
    </extensions>
    <trkseg>
      <trkpt lat="47.96988" lon="5.167">
        <ele>367</ele>
      </trkpt>
      <trkpt lat="47.96869" lon="5.16833">
        <ele>364</ele>
      </trkpt>
      <trkpt lat="47.96743" lon="5.16154">
        <ele>380</ele>
      </trkpt>
      <trkpt lat="47.96392" lon="5.15523">
        <ele>391</ele>
      </trkpt>
      <trkpt lat="47.96276" lon="5.15542">
        <ele>396</ele>
      </trkpt>
      <trkpt lat="47.95779" lon="5.14858">
        <ele>421</ele>
      </trkpt>
      <trkpt lat="47.95728" lon="5.14434">
        <ele>426</ele>
      </trkpt>
      <trkpt lat="47.95482" lon="5.139">
        <ele>418</ele>
      </trkpt>
      <trkpt lat="47.9537" lon="5.13693">
        <ele>414</ele>
      </trkpt>
      <trkpt lat="47.95224" lon="5.13158">
        <ele>401</ele>
      </trkpt>
      <trkpt lat="47.94841" lon="5.12161">
        <ele>390</ele>
      </trkpt>
      <trkpt lat="47.94673" lon="5.11747">
        <ele>387</ele>
      </trkpt>
      <trkpt lat="47.94595" lon="5.11">
        <ele>376</ele>
      </trkpt>
      <trkpt lat="47.94605" lon="5.10533">
        <ele>369</ele>
      </trkpt>
      <trkpt lat="47.94476" lon="5.1049">
        <ele>372</ele>
      </trkpt>
      <trkpt lat="47.94357" lon="5.10182">
        <ele>370</ele>
      </trkpt>
      <trkpt lat="47.94163" lon="5.10201">
        <ele>373</ele>
      </trkpt>
      <trkpt lat="47.93892" lon="5.10114">
        <ele>373</ele>
      </trkpt>
      <trkpt lat="47.93198" lon="5.09604">
        <ele>383</ele>
      </trkpt>
      <trkpt lat="47.92737" lon="5.09098">
        <ele>407</ele>
      </trkpt>
      <trkpt lat="47.92472" lon="5.08814">
        <ele>415</ele>
      </trkpt>
      <trkpt lat="47.92001" lon="5.08496">
        <ele>413</ele>
      </trkpt>
      <trkpt lat="47.91827" lon="5.08352">
        <ele>410</ele>
      </trkpt>
      <trkpt lat="47.91233" lon="5.0812">
        <ele>394</ele>
      </trkpt>
      <trkpt lat="47.91123" lon="5.08164">
        <ele>392</ele>
      </trkpt>
      <trkpt lat="47.91055" lon="5.08087">
        <ele>385</ele>
      </trkpt>
      <trkpt lat="47.90936" lon="5.07605">
        <ele>350</ele>
      </trkpt>
      <trkpt lat="47.90971" lon="5.0748">
        <ele>340</ele>
      </trkpt>
      <trkpt lat="47.90862" lon="5.07557">
        <ele>326</ele>
      </trkpt>
      <trkpt lat="47.90797" lon="5.0773">
        <ele>324</ele>
      </trkpt>
      <trkpt lat="47.90609" lon="5.07295">
        <ele>301</ele>
      </trkpt>
      <trkpt lat="47.90407" lon="5.07629">
        <ele>301</ele>
      </trkpt>
      <trkpt lat="47.90004" lon="5.07718">
        <ele>301</ele>
      </trkpt>
      <trkpt lat="47.89757" lon="5.07874">
        <ele>309</ele>
      </trkpt>
      <trkpt lat="47.89451" lon="5.08443">
        <ele>316</ele>
      </trkpt>
      <trkpt lat="47.89271" lon="5.0871">
        <ele>317</ele>
      </trkpt>
      <trkpt lat="47.88793" lon="5.08777">
        <ele>331</ele>
      </trkpt>
      <trkpt lat="47.88733" lon="5.08878">
        <ele>334</ele>
      </trkpt>
      <trkpt lat="47.88554" lon="5.08733">
        <ele>342</ele>
      </trkpt>
      <trkpt lat="47.88352" lon="5.08276">
        <ele>338</ele>
      </trkpt>
      <trkpt lat="47.87769" lon="5.08075">
        <ele>378</ele>
      </trkpt>
      <trkpt lat="47.87619" lon="5.07652">
        <ele>389</ele>
      </trkpt>
      <trkpt lat="47.87328" lon="5.0744">
        <ele>406</ele>
      </trkpt>
      <trkpt lat="47.87059" lon="5.06994">
        <ele>427</ele>
      </trkpt>
      <trkpt lat="47.86685" lon="5.06994">
        <ele>432</ele>
      </trkpt>
      <trkpt lat="47.86019" lon="5.07206">
        <ele>437</ele>
      </trkpt>
      <trkpt lat="47.85503" lon="5.07596">
        <ele>436</ele>
      </trkpt>
      <trkpt lat="47.85099" lon="5.07239">
        <ele>439</ele>
      </trkpt>
      <trkpt lat="47.8489" lon="5.0676">
        <ele>426</ele>
      </trkpt>
      <trkpt lat="47.84613" lon="5.06481">
        <ele>406</ele>
      </trkpt>
      <trkpt lat="47.84478" lon="5.0608">
        <ele>414</ele>
      </trkpt>
      <trkpt lat="47.84201" lon="5.06414">
        <ele>374</ele>
      </trkpt>
      <trkpt lat="47.83753" lon="5.06314">
        <ele>340</ele>
      </trkpt>
      <trkpt lat="47.83566" lon="5.05645">
        <ele>309</ele>
      </trkpt>
      <trkpt lat="47.82832" lon="5.06303">
        <ele>313</ele>
      </trkpt>
      <trkpt lat="47.82578" lon="5.06715">
        <ele>314</ele>
      </trkpt>
      <trkpt lat="47.82241" lon="5.06604">
        <ele>317</ele>
      </trkpt>
      <trkpt lat="47.81837" lon="5.06738">
        <ele>317</ele>
      </trkpt>
      <trkpt lat="47.81448" lon="5.06515">
        <ele>325</ele>
      </trkpt>
      <trkpt lat="47.81201" lon="5.0657">
        <ele>329</ele>
      </trkpt>
      <trkpt lat="47.81051" lon="5.06381">
        <ele>332</ele>
      </trkpt>
      <trkpt lat="47.8037" lon="5.06247">
        <ele>336</ele>
      </trkpt>
      <trkpt lat="47.7982" lon="5.06137">
        <ele>334</ele>
      </trkpt>
      <trkpt lat="47.79335" lon="5.05848">
        <ele>335</ele>
      </trkpt>
      <trkpt lat="47.79197" lon="5.05803">
        <ele>334</ele>
      </trkpt>
      <trkpt lat="47.79157" lon="5.05667">
        <ele>333</ele>
      </trkpt>
      <trkpt lat="47.79113" lon="5.05623">
        <ele>338</ele>
      </trkpt>
      <trkpt lat="47.79003" lon="5.05678">
        <ele>336</ele>
      </trkpt>
      <trkpt lat="47.78911" lon="5.05844">
        <ele>340</ele>
      </trkpt>
      <trkpt lat="47.78863" lon="5.05928">
        <ele>336</ele>
      </trkpt>
      <trkpt lat="47.78812" lon="5.05975">
        <ele>337</ele>
      </trkpt>
      <trkpt lat="47.78821" lon="5.06025">
        <ele>335</ele>
      </trkpt>
      <trkpt lat="47.78776" lon="5.0606">
        <ele>336</ele>
      </trkpt>
      <trkpt lat="47.78756" lon="5.06152">
        <ele>337</ele>
      </trkpt>
      <trkpt lat="47.78746" lon="5.06244">
        <ele>341</ele>
      </trkpt>
      <trkpt lat="47.78755" lon="5.06256">
        <ele>341</ele>
      </trkpt>
      <trkpt lat="47.78843" lon="5.06157">
        <ele>334</ele>
      </trkpt>
      <trkpt lat="47.78855" lon="5.06179">
        <ele>335</ele>
      </trkpt>
    </trkseg>
  </trk>
  <trk>
    <name><![CDATA[25 - AUBERIVE IF SUR TILLE 37.5 KM]]></name>
    <extensions>
      <line xmlns="http://www.topografix.com/GPX/gpx_style/0/2">
        <color>880088</color>
        <width>4</width>
      </line>
    </extensions>
    <trkseg>
      <trkpt lat="47.78574" lon="5.06095">
        <ele>345</ele>
      </trkpt>
      <trkpt lat="47.78615" lon="5.0591">
        <ele>341</ele>
      </trkpt>
      <trkpt lat="47.78413" lon="5.05563">
        <ele>342</ele>
      </trkpt>
      <trkpt lat="47.78249" lon="5.05514">
        <ele>345</ele>
      </trkpt>
      <trkpt lat="47.78183" lon="5.05456">
        <ele>347</ele>
      </trkpt>
      <trkpt lat="47.77917" lon="5.05431">
        <ele>357</ele>
      </trkpt>
      <trkpt lat="47.7772" lon="5.05345">
        <ele>351</ele>
      </trkpt>
      <trkpt lat="47.77648" lon="5.05332">
        <ele>354</ele>
      </trkpt>
      <trkpt lat="47.77587" lon="5.0527">
        <ele>362</ele>
      </trkpt>
      <trkpt lat="47.77426" lon="5.05291">
        <ele>375</ele>
      </trkpt>
      <trkpt lat="47.77309" lon="5.05274">
        <ele>386</ele>
      </trkpt>
      <trkpt lat="47.77182" lon="5.05345">
        <ele>384</ele>
      </trkpt>
      <trkpt lat="47.77165" lon="5.05213">
        <ele>404</ele>
      </trkpt>
      <trkpt lat="47.77027" lon="5.05221">
        <ele>415</ele>
      </trkpt>
      <trkpt lat="47.76891" lon="5.05258">
        <ele>423</ele>
      </trkpt>
      <trkpt lat="47.76741" lon="5.05204">
        <ele>431</ele>
      </trkpt>
      <trkpt lat="47.76583" lon="5.05109">
        <ele>428</ele>
      </trkpt>
      <trkpt lat="47.76472" lon="5.05014">
        <ele>434</ele>
      </trkpt>
      <trkpt lat="47.76408" lon="5.05039">
        <ele>429</ele>
      </trkpt>
      <trkpt lat="47.76289" lon="5.05241">
        <ele>409</ele>
      </trkpt>
      <trkpt lat="47.76131" lon="5.05299">
        <ele>406</ele>
      </trkpt>
      <trkpt lat="47.75587" lon="5.05175">
        <ele>412</ele>
      </trkpt>
      <trkpt lat="47.75373" lon="5.05175">
        <ele>414</ele>
      </trkpt>
      <trkpt lat="47.75335" lon="5.0508">
        <ele>432</ele>
      </trkpt>
      <trkpt lat="47.75212" lon="5.05035">
        <ele>421</ele>
      </trkpt>
      <trkpt lat="47.75165" lon="5.05113">
        <ele>407</ele>
      </trkpt>
      <trkpt lat="47.75176" lon="5.05151">
        <ele>404</ele>
      </trkpt>
      <trkpt lat="47.7521" lon="5.05312">
        <ele>405</ele>
      </trkpt>
      <trkpt lat="47.75243" lon="5.05431">
        <ele>404</ele>
      </trkpt>
      <trkpt lat="47.75151" lon="5.0558">
        <ele>438</ele>
      </trkpt>
      <trkpt lat="47.7516" lon="5.0591">
        <ele>400</ele>
      </trkpt>
      <trkpt lat="47.74519" lon="5.06195">
        <ele>464</ele>
      </trkpt>
      <trkpt lat="47.74502" lon="5.06471">
        <ele>472</ele>
      </trkpt>
      <trkpt lat="47.74535" lon="5.06545">
        <ele>472</ele>
      </trkpt>
      <trkpt lat="47.74222" lon="5.06797">
        <ele>468</ele>
      </trkpt>
      <trkpt lat="47.74119" lon="5.06752">
        <ele>463</ele>
      </trkpt>
      <trkpt lat="47.74042" lon="5.06793">
        <ele>462</ele>
      </trkpt>
      <trkpt lat="47.74003" lon="5.06904">
        <ele>459</ele>
      </trkpt>
      <trkpt lat="47.73947" lon="5.06723">
        <ele>463</ele>
      </trkpt>
      <trkpt lat="47.73772" lon="5.06921">
        <ele>454</ele>
      </trkpt>
      <trkpt lat="47.73678" lon="5.06913">
        <ele>441</ele>
      </trkpt>
      <trkpt lat="47.73506" lon="5.06673">
        <ele>413</ele>
      </trkpt>
      <trkpt lat="47.73465" lon="5.06643">
        <ele>410</ele>
      </trkpt>
      <trkpt lat="47.73452" lon="5.06704">
        <ele>402</ele>
      </trkpt>
      <trkpt lat="47.73411" lon="5.06704">
        <ele>397</ele>
      </trkpt>
      <trkpt lat="47.73381" lon="5.06795">
        <ele>399</ele>
      </trkpt>
      <trkpt lat="47.73418" lon="5.07056">
        <ele>408</ele>
      </trkpt>
      <trkpt lat="47.73354" lon="5.07239">
        <ele>416</ele>
      </trkpt>
      <trkpt lat="47.73276" lon="5.07299">
        <ele>430</ele>
      </trkpt>
      <trkpt lat="47.73217" lon="5.07299">
        <ele>437</ele>
      </trkpt>
      <trkpt lat="47.72989" lon="5.07211">
        <ele>462</ele>
      </trkpt>
      <trkpt lat="47.72844" lon="5.07245">
        <ele>469</ele>
      </trkpt>
      <trkpt lat="47.72766" lon="5.07313">
        <ele>470</ele>
      </trkpt>
      <trkpt lat="47.72686" lon="5.07299">
        <ele>472</ele>
      </trkpt>
      <trkpt lat="47.72623" lon="5.07364">
        <ele>473</ele>
      </trkpt>
      <trkpt lat="47.72481" lon="5.07337">
        <ele>482</ele>
      </trkpt>
      <trkpt lat="47.72399" lon="5.0735">
        <ele>486</ele>
      </trkpt>
      <trkpt lat="47.72233" lon="5.0712">
        <ele>486</ele>
      </trkpt>
      <trkpt lat="47.72122" lon="5.06991">
        <ele>482</ele>
      </trkpt>
      <trkpt lat="47.72062" lon="5.06991">
        <ele>481</ele>
      </trkpt>
      <trkpt lat="47.72151" lon="5.06683">
        <ele>480</ele>
      </trkpt>
      <trkpt lat="47.72153" lon="5.06466">
        <ele>480</ele>
      </trkpt>
      <trkpt lat="47.72078" lon="5.06138">
        <ele>479</ele>
      </trkpt>
      <trkpt lat="47.72024" lon="5.06155">
        <ele>481</ele>
      </trkpt>
      <trkpt lat="47.71949" lon="5.06481">
        <ele>468</ele>
      </trkpt>
      <trkpt lat="47.71678" lon="5.07052">
        <ele>440</ele>
      </trkpt>
      <trkpt lat="47.71554" lon="5.07077">
        <ele>427</ele>
      </trkpt>
      <trkpt lat="47.71473" lon="5.07133">
        <ele>424</ele>
      </trkpt>
      <trkpt lat="47.71187" lon="5.07185">
        <ele>404</ele>
      </trkpt>
      <trkpt lat="47.71019" lon="5.07446">
        <ele>389</ele>
      </trkpt>
      <trkpt lat="47.70858" lon="5.07434">
        <ele>379</ele>
      </trkpt>
      <trkpt lat="47.70684" lon="5.07331">
        <ele>383</ele>
      </trkpt>
      <trkpt lat="47.7056" lon="5.07253">
        <ele>383</ele>
      </trkpt>
      <trkpt lat="47.70439" lon="5.07155">
        <ele>381</ele>
      </trkpt>
      <trkpt lat="47.703" lon="5.06781">
        <ele>375</ele>
      </trkpt>
      <trkpt lat="47.70196" lon="5.06597">
        <ele>373</ele>
      </trkpt>
      <trkpt lat="47.70006" lon="5.06369">
        <ele>369</ele>
      </trkpt>
      <trkpt lat="47.69743" lon="5.06215">
        <ele>373</ele>
      </trkpt>
      <trkpt lat="47.69596" lon="5.06219">
        <ele>371</ele>
      </trkpt>
      <trkpt lat="47.69422" lon="5.06301">
        <ele>365</ele>
      </trkpt>
      <trkpt lat="47.6931" lon="5.06331">
        <ele>358</ele>
      </trkpt>
      <trkpt lat="47.6918" lon="5.06318">
        <ele>362</ele>
      </trkpt>
      <trkpt lat="47.68986" lon="5.0621">
        <ele>363</ele>
      </trkpt>
      <trkpt lat="47.68709" lon="5.0618">
        <ele>358</ele>
      </trkpt>
      <trkpt lat="47.68454" lon="5.0624">
        <ele>351</ele>
      </trkpt>
      <trkpt lat="47.68293" lon="5.06429">
        <ele>355</ele>
      </trkpt>
      <trkpt lat="47.68085" lon="5.06404">
        <ele>352</ele>
      </trkpt>
      <trkpt lat="47.67963" lon="5.06404">
        <ele>349</ele>
      </trkpt>
      <trkpt lat="47.67903" lon="5.06425">
        <ele>350</ele>
      </trkpt>
      <trkpt lat="47.67859" lon="5.06335">
        <ele>343</ele>
      </trkpt>
      <trkpt lat="47.67631" lon="5.06313">
        <ele>339</ele>
      </trkpt>
      <trkpt lat="47.67408" lon="5.06335">
        <ele>338</ele>
      </trkpt>
      <trkpt lat="47.67189" lon="5.06481">
        <ele>335</ele>
      </trkpt>
      <trkpt lat="47.66992" lon="5.06682">
        <ele>334</ele>
      </trkpt>
      <trkpt lat="47.66877" lon="5.06764">
        <ele>332</ele>
      </trkpt>
      <trkpt lat="47.66698" lon="5.06871">
        <ele>330</ele>
      </trkpt>
      <trkpt lat="47.6651" lon="5.06914">
        <ele>328</ele>
      </trkpt>
      <trkpt lat="47.66391" lon="5.06876">
        <ele>329</ele>
      </trkpt>
      <trkpt lat="47.66255" lon="5.06953">
        <ele>328</ele>
      </trkpt>
      <trkpt lat="47.66096" lon="5.06919">
        <ele>323</ele>
      </trkpt>
      <trkpt lat="47.65507" lon="5.07331">
        <ele>321</ele>
      </trkpt>
      <trkpt lat="47.65388" lon="5.07425">
        <ele>321</ele>
      </trkpt>
      <trkpt lat="47.6527" lon="5.07434">
        <ele>319</ele>
      </trkpt>
      <trkpt lat="47.65151" lon="5.07511">
        <ele>318</ele>
      </trkpt>
      <trkpt lat="47.6494" lon="5.07837">
        <ele>324</ele>
      </trkpt>
      <trkpt lat="47.64793" lon="5.07966">
        <ele>315</ele>
      </trkpt>
      <trkpt lat="47.6457" lon="5.08069">
        <ele>314</ele>
      </trkpt>
      <trkpt lat="47.64457" lon="5.07936">
        <ele>313</ele>
      </trkpt>
      <trkpt lat="47.64298" lon="5.07897">
        <ele>315</ele>
      </trkpt>
      <trkpt lat="47.64159" lon="5.07717">
        <ele>313</ele>
      </trkpt>
      <trkpt lat="47.64061" lon="5.07798">
        <ele>311</ele>
      </trkpt>
      <trkpt lat="47.63616" lon="5.07558">
        <ele>309</ele>
      </trkpt>
      <trkpt lat="47.6328" lon="5.07228">
        <ele>307</ele>
      </trkpt>
      <trkpt lat="47.62919" lon="5.06824">
        <ele>312</ele>
      </trkpt>
      <trkpt lat="47.62725" lon="5.0667">
        <ele>311</ele>
      </trkpt>
      <trkpt lat="47.62546" lon="5.06489">
        <ele>303</ele>
      </trkpt>
      <trkpt lat="47.62413" lon="5.06558">
        <ele>308</ele>
      </trkpt>
      <trkpt lat="47.6217" lon="5.06807">
        <ele>318</ele>
      </trkpt>
      <trkpt lat="47.62103" lon="5.06983">
        <ele>319</ele>
      </trkpt>
      <trkpt lat="47.61909" lon="5.07129">
        <ele>320</ele>
      </trkpt>
      <trkpt lat="47.61704" lon="5.07288">
        <ele>322</ele>
      </trkpt>
      <trkpt lat="47.61467" lon="5.07562">
        <ele>312</ele>
      </trkpt>
      <trkpt lat="47.61368" lon="5.07549">
        <ele>311</ele>
      </trkpt>
      <trkpt lat="47.61198" lon="5.07631">
        <ele>312</ele>
      </trkpt>
      <trkpt lat="47.60897" lon="5.07888">
        <ele>315</ele>
      </trkpt>
      <trkpt lat="47.60741" lon="5.07996">
        <ele>316</ele>
      </trkpt>
      <trkpt lat="47.60657" lon="5.08129">
        <ele>318</ele>
      </trkpt>
      <trkpt lat="47.60561" lon="5.08262">
        <ele>320</ele>
      </trkpt>
      <trkpt lat="47.60474" lon="5.08283">
        <ele>315</ele>
      </trkpt>
      <trkpt lat="47.60312" lon="5.08154">
        <ele>309</ele>
      </trkpt>
      <trkpt lat="47.60121" lon="5.08167">
        <ele>305</ele>
      </trkpt>
      <trkpt lat="47.60014" lon="5.0821">
        <ele>300</ele>
      </trkpt>
      <trkpt lat="47.59945" lon="5.08275">
        <ele>297</ele>
      </trkpt>
      <trkpt lat="47.59777" lon="5.08047">
        <ele>295</ele>
      </trkpt>
      <trkpt lat="47.59627" lon="5.08021">
        <ele>302</ele>
      </trkpt>
      <trkpt lat="47.59161" lon="5.08146">
        <ele>307</ele>
      </trkpt>
      <trkpt lat="47.58686" lon="5.08506">
        <ele>303</ele>
      </trkpt>
      <trkpt lat="47.58506" lon="5.08807">
        <ele>292</ele>
      </trkpt>
      <trkpt lat="47.5826" lon="5.09103">
        <ele>302</ele>
      </trkpt>
      <trkpt lat="47.58116" lon="5.09279">
        <ele>303</ele>
      </trkpt>
      <trkpt lat="47.58046" lon="5.09472">
        <ele>298</ele>
      </trkpt>
      <trkpt lat="47.57884" lon="5.09678">
        <ele>296</ele>
      </trkpt>
      <trkpt lat="47.57728" lon="5.09824">
        <ele>294</ele>
      </trkpt>
      <trkpt lat="47.57375" lon="5.10382">
        <ele>291</ele>
      </trkpt>
      <trkpt lat="47.57169" lon="5.10734">
        <ele>289</ele>
      </trkpt>
      <trkpt lat="47.57039" lon="5.11073">
        <ele>295</ele>
      </trkpt>
      <trkpt lat="47.56871" lon="5.11287">
        <ele>293</ele>
      </trkpt>
      <trkpt lat="47.56622" lon="5.11412">
        <ele>292</ele>
      </trkpt>
      <trkpt lat="47.56457" lon="5.11553">
        <ele>292</ele>
      </trkpt>
      <trkpt lat="47.56271" lon="5.11622">
        <ele>290</ele>
      </trkpt>
      <trkpt lat="47.56014" lon="5.11468">
        <ele>287</ele>
      </trkpt>
      <trkpt lat="47.55895" lon="5.11571">
        <ele>281</ele>
      </trkpt>
      <trkpt lat="47.55712" lon="5.11635">
        <ele>279</ele>
      </trkpt>
      <trkpt lat="47.55498" lon="5.11841">
        <ele>276</ele>
      </trkpt>
      <trkpt lat="47.55075" lon="5.11948">
        <ele>280</ele>
      </trkpt>
      <trkpt lat="47.54539" lon="5.1233">
        <ele>274</ele>
      </trkpt>
      <trkpt lat="47.54032" lon="5.12794">
        <ele>299</ele>
      </trkpt>
      <trkpt lat="47.52552" lon="5.11036">
        <ele>275</ele>
      </trkpt>
      <trkpt lat="47.52486" lon="5.10807">
        <ele>274</ele>
      </trkpt>
      <trkpt lat="47.52219" lon="5.10914">
        <ele>279</ele>
      </trkpt>
      <trkpt lat="47.52071" lon="5.10921">
        <ele>282</ele>
      </trkpt>
      <trkpt lat="47.51631" lon="5.10953">
        <ele>300</ele>
      </trkpt>
      <trkpt lat="47.51626" lon="5.11056">
        <ele>302</ele>
      </trkpt>
      <trkpt lat="47.51509" lon="5.11034">
        <ele>311</ele>
      </trkpt>
    </trkseg>
  </trk>
  <trk>
    <name><![CDATA[26 - IS SUR TILLE AHUY 24.7 KM]]></name>
    <extensions>
      <line xmlns="http://www.topografix.com/GPX/gpx_style/0/2">
        <color>0000FF</color>
        <width>4</width>
      </line>
    </extensions>
    <trkseg>
      <trkpt lat="47.524" lon="5.11268">
        <ele>276</ele>
        <time>2021-11-10T14:49:22+01:00</time>
      </trkpt>
      <trkpt lat="47.52356" lon="5.1125">
        <ele>278</ele>
        <time>2021-11-10T14:49:27+01:00</time>
      </trkpt>
      <trkpt lat="47.52273" lon="5.11296">
        <ele>282</ele>
        <time>2021-11-10T14:49:32+01:00</time>
      </trkpt>
      <trkpt lat="47.52225" lon="5.11229">
        <ele>283</ele>
        <time>2021-11-10T14:49:37+01:00</time>
      </trkpt>
      <trkpt lat="47.5219" lon="5.11209">
        <ele>283</ele>
        <time>2021-11-10T14:49:42+01:00</time>
      </trkpt>
      <trkpt lat="47.52139" lon="5.11232">
        <ele>284</ele>
        <time>2021-11-10T14:49:47+01:00</time>
      </trkpt>
      <trkpt lat="47.52082" lon="5.1117">
        <ele>284</ele>
        <time>2021-11-10T14:49:52+01:00</time>
      </trkpt>
      <trkpt lat="47.51987" lon="5.11029">
        <ele>284</ele>
        <time>2021-11-10T14:49:57+01:00</time>
      </trkpt>
      <trkpt lat="47.51953" lon="5.10944">
        <ele>285</ele>
        <time>2021-11-10T14:50:02+01:00</time>
      </trkpt>
      <trkpt lat="47.51457" lon="5.10967">
        <ele>311</ele>
        <time>2021-11-10T14:50:07+01:00</time>
      </trkpt>
      <trkpt lat="47.51314" lon="5.10947">
        <ele>315</ele>
        <time>2021-11-10T14:50:12+01:00</time>
      </trkpt>
      <trkpt lat="47.50692" lon="5.10375">
        <ele>338</ele>
        <time>2021-11-10T14:50:17+01:00</time>
      </trkpt>
      <trkpt lat="47.49825" lon="5.09362">
        <ele>350</ele>
        <time>2021-11-10T14:50:22+01:00</time>
      </trkpt>
      <trkpt lat="47.47975" lon="5.08458">
        <ele>312</ele>
        <time>2021-11-10T14:50:27+01:00</time>
      </trkpt>
      <trkpt lat="47.48018" lon="5.08246">
        <ele>318</ele>
        <time>2021-11-10T14:50:32+01:00</time>
      </trkpt>
      <trkpt lat="47.47771" lon="5.08221">
        <ele>315</ele>
        <time>2021-11-10T14:50:37+01:00</time>
      </trkpt>
      <trkpt lat="47.47035" lon="5.07918">
        <ele>325</ele>
        <time>2021-11-10T14:50:42+01:00</time>
      </trkpt>
      <trkpt lat="47.46575" lon="5.07645">
        <ele>333</ele>
        <time>2021-11-10T14:50:47+01:00</time>
      </trkpt>
      <trkpt lat="47.44901" lon="5.05907">
        <ele>322</ele>
        <time>2021-11-10T14:50:52+01:00</time>
      </trkpt>
      <trkpt lat="47.44679" lon="5.05839">
        <ele>317</ele>
        <time>2021-11-10T14:50:57+01:00</time>
      </trkpt>
      <trkpt lat="47.44323" lon="5.05665">
        <ele>315</ele>
        <time>2021-11-10T14:51:02+01:00</time>
      </trkpt>
      <trkpt lat="47.43453" lon="5.05436">
        <ele>315</ele>
        <time>2021-11-10T14:51:07+01:00</time>
      </trkpt>
      <trkpt lat="47.42955" lon="5.05412">
        <ele>306</ele>
        <time>2021-11-10T14:51:12+01:00</time>
      </trkpt>
      <trkpt lat="47.43038" lon="5.05261">
        <ele>306</ele>
        <time>2021-11-10T14:51:17+01:00</time>
      </trkpt>
      <trkpt lat="47.42592" lon="5.04904">
        <ele>294</ele>
        <time>2021-11-10T14:51:22+01:00</time>
      </trkpt>
      <trkpt lat="47.42499" lon="5.04391">
        <ele>303</ele>
        <time>2021-11-10T14:51:27+01:00</time>
      </trkpt>
      <trkpt lat="47.41737" lon="5.03246">
        <ele>308</ele>
        <time>2021-11-10T14:51:32+01:00</time>
      </trkpt>
      <trkpt lat="47.41173" lon="5.02284">
        <ele>317</ele>
        <time>2021-11-10T14:51:37+01:00</time>
      </trkpt>
      <trkpt lat="47.40947" lon="5.02067">
        <ele>320</ele>
        <time>2021-11-10T14:51:42+01:00</time>
      </trkpt>
      <trkpt lat="47.4087" lon="5.01931">
        <ele>322</ele>
        <time>2021-11-10T14:51:47+01:00</time>
      </trkpt>
      <trkpt lat="47.40699" lon="5.01888">
        <ele>313</ele>
        <time>2021-11-10T14:51:52+01:00</time>
      </trkpt>
      <trkpt lat="47.4061" lon="5.01739">
        <ele>308</ele>
        <time>2021-11-10T14:51:57+01:00</time>
      </trkpt>
      <trkpt lat="47.40445" lon="5.01835">
        <ele>298</ele>
        <time>2021-11-10T14:52:02+01:00</time>
      </trkpt>
      <trkpt lat="47.40409" lon="5.01785">
        <ele>295</ele>
        <time>2021-11-10T14:52:07+01:00</time>
      </trkpt>
      <trkpt lat="47.40356" lon="5.0181">
        <ele>294</ele>
        <time>2021-11-10T14:52:12+01:00</time>
      </trkpt>
      <trkpt lat="47.40342" lon="5.01763">
        <ele>293</ele>
        <time>2021-11-10T14:52:17+01:00</time>
      </trkpt>
      <trkpt lat="47.40286" lon="5.01756">
        <ele>292</ele>
        <time>2021-11-10T14:52:22+01:00</time>
      </trkpt>
      <trkpt lat="47.40197" lon="5.01639">
        <ele>292</ele>
        <time>2021-11-10T14:52:27+01:00</time>
      </trkpt>
      <trkpt lat="47.40112" lon="5.01614">
        <ele>294</ele>
        <time>2021-11-10T14:52:32+01:00</time>
      </trkpt>
      <trkpt lat="47.39883" lon="5.01853">
        <ele>292</ele>
        <time>2021-11-10T14:52:37+01:00</time>
      </trkpt>
      <trkpt lat="47.39734" lon="5.02002">
        <ele>292</ele>
        <time>2021-11-10T14:52:42+01:00</time>
      </trkpt>
      <trkpt lat="47.39594" lon="5.02002">
        <ele>289</ele>
        <time>2021-11-10T14:52:47+01:00</time>
      </trkpt>
      <trkpt lat="47.39502" lon="5.02077">
        <ele>288</ele>
        <time>2021-11-10T14:52:52+01:00</time>
      </trkpt>
      <trkpt lat="47.39475" lon="5.02598">
        <ele>284</ele>
        <time>2021-11-10T14:52:57+01:00</time>
      </trkpt>
      <trkpt lat="47.39379" lon="5.02694">
        <ele>284</ele>
        <time>2021-11-10T14:53:02+01:00</time>
      </trkpt>
      <trkpt lat="47.39263" lon="5.0274">
        <ele>285</ele>
        <time>2021-11-10T14:53:07+01:00</time>
      </trkpt>
      <trkpt lat="47.38756" lon="5.0258">
        <ele>283</ele>
        <time>2021-11-10T14:53:12+01:00</time>
      </trkpt>
      <trkpt lat="47.38461" lon="5.02569">
        <ele>276</ele>
        <time>2021-11-10T14:53:17+01:00</time>
      </trkpt>
      <trkpt lat="47.38297" lon="5.02512">
        <ele>277</ele>
        <time>2021-11-10T14:53:22+01:00</time>
      </trkpt>
      <trkpt lat="47.38326" lon="5.02455">
        <ele>277</ele>
        <time>2021-11-10T14:53:27+01:00</time>
      </trkpt>
      <trkpt lat="47.38372" lon="5.02412">
        <ele>277</ele>
        <time>2021-11-10T14:53:32+01:00</time>
      </trkpt>
      <trkpt lat="47.38312" lon="5.0222">
        <ele>285</ele>
        <time>2021-11-10T14:53:37+01:00</time>
      </trkpt>
      <trkpt lat="47.38119" lon="5.02027">
        <ele>295</ele>
        <time>2021-11-10T14:53:42+01:00</time>
      </trkpt>
      <trkpt lat="47.37897" lon="5.01985">
        <ele>302</ele>
        <time>2021-11-10T14:53:47+01:00</time>
      </trkpt>
      <trkpt lat="47.37795" lon="5.01903">
        <ele>307</ele>
        <time>2021-11-10T14:53:52+01:00</time>
      </trkpt>
      <trkpt lat="47.37686" lon="5.01903">
        <ele>306</ele>
        <time>2021-11-10T14:53:57+01:00</time>
      </trkpt>
      <trkpt lat="47.37602" lon="5.01888">
        <ele>308</ele>
        <time>2021-11-10T14:54:02+01:00</time>
      </trkpt>
      <trkpt lat="47.3753" lon="5.01945">
        <ele>306</ele>
        <time>2021-11-10T14:54:07+01:00</time>
      </trkpt>
      <trkpt lat="47.37418" lon="5.01992">
        <ele>306</ele>
        <time>2021-11-10T14:54:12+01:00</time>
      </trkpt>
      <trkpt lat="47.37187" lon="5.01992">
        <ele>304</ele>
        <time>2021-11-10T14:54:17+01:00</time>
      </trkpt>
      <trkpt lat="47.36933" lon="5.02074">
        <ele>282</ele>
        <time>2021-11-10T14:54:22+01:00</time>
      </trkpt>
      <trkpt lat="47.36887" lon="5.0233">
        <ele>277</ele>
        <time>2021-11-10T14:54:27+01:00</time>
      </trkpt>
      <trkpt lat="47.36767" lon="5.02427">
        <ele>273</ele>
        <time>2021-11-10T14:54:32+01:00</time>
      </trkpt>
      <trkpt lat="47.36721" lon="5.02509">
        <ele>273</ele>
        <time>2021-11-10T14:54:37+01:00</time>
      </trkpt>
      <trkpt lat="47.36709" lon="5.02437">
        <ele>274</ele>
        <time>2021-11-10T14:54:42+01:00</time>
      </trkpt>
      <trkpt lat="47.36651" lon="5.02444">
        <ele>276</ele>
        <time>2021-11-10T14:54:47+01:00</time>
      </trkpt>
      <trkpt lat="47.36453" lon="5.02288">
        <ele>274</ele>
        <time>2021-11-10T14:54:52+01:00</time>
      </trkpt>
      <trkpt lat="47.36276" lon="5.02256">
        <ele>273</ele>
        <time>2021-11-10T14:54:57+01:00</time>
      </trkpt>
      <trkpt lat="47.35704" lon="5.02195">
        <ele>278</ele>
        <time>2021-11-10T14:55:02+01:00</time>
      </trkpt>
      <trkpt lat="47.3552" lon="5.02095">
        <ele>283</ele>
        <time>2021-11-10T14:55:07+01:00</time>
      </trkpt>
      <trkpt lat="47.35308" lon="5.02134">
        <ele>284</ele>
        <time>2021-11-10T14:55:12+01:00</time>
      </trkpt>
      <trkpt lat="47.3538" lon="5.0228">
        <ele>282</ele>
        <time>2021-11-10T14:55:17+01:00</time>
      </trkpt>
      <trkpt lat="47.35467" lon="5.02416">
        <ele>279</ele>
        <time>2021-11-10T14:55:22+01:00</time>
      </trkpt>
      <trkpt lat="47.35409" lon="5.02484">
        <ele>280</ele>
        <time>2021-11-10T14:55:27+01:00</time>
      </trkpt>
      <trkpt lat="47.35371" lon="5.02708">
        <ele>271</ele>
        <time>2021-11-10T14:55:32+01:00</time>
      </trkpt>
      <trkpt lat="47.35315" lon="5.03061">
        <ele>264</ele>
        <time>2021-11-10T14:55:37+01:00</time>
      </trkpt>
      <trkpt lat="47.35561" lon="5.03097">
        <ele>265</ele>
        <time>2021-11-10T14:55:42+01:00</time>
      </trkpt>
      <trkpt lat="47.35564" lon="5.03496">
        <ele>259</ele>
        <time>2021-11-10T14:55:47+01:00</time>
      </trkpt>
      <trkpt lat="47.35586" lon="5.03642">
        <ele>260</ele>
        <time>2021-11-10T14:55:52+01:00</time>
      </trkpt>
      <trkpt lat="47.35508" lon="5.0376">
        <ele>258</ele>
        <time>2021-11-10T14:55:57+01:00</time>
      </trkpt>
      <trkpt lat="47.35474" lon="5.03767">
        <ele>259</ele>
        <time>2021-11-10T14:56:02+01:00</time>
      </trkpt>
    </trkseg>
  </trk>
  <trk>
    <name><![CDATA[27 - AHUY CHAMEREY 23.8 KM]]></name>
    <extensions>
      <line xmlns="http://www.topografix.com/GPX/gpx_style/0/2">
        <color>00FF00</color>
        <width>4</width>
      </line>
    </extensions>
    <trkseg>
      <trkpt lat="47.35482" lon="5.03763">
        <ele>258</ele>
        <time>2021-11-10T15:33:02+01:00</time>
      </trkpt>
      <trkpt lat="47.35519" lon="5.0375">
        <ele>258</ele>
        <time>2021-11-10T15:33:07+01:00</time>
      </trkpt>
      <trkpt lat="47.35551" lon="5.03672">
        <ele>259</ele>
        <time>2021-11-10T15:33:12+01:00</time>
      </trkpt>
      <trkpt lat="47.35581" lon="5.03645">
        <ele>260</ele>
        <time>2021-11-10T15:33:17+01:00</time>
      </trkpt>
      <trkpt lat="47.35567" lon="5.03476">
        <ele>259</ele>
        <time>2021-11-10T15:33:22+01:00</time>
      </trkpt>
      <trkpt lat="47.35556" lon="5.03107">
        <ele>264</ele>
        <time>2021-11-10T15:33:27+01:00</time>
      </trkpt>
      <trkpt lat="47.35095" lon="5.02985">
        <ele>268</ele>
        <time>2021-11-10T15:33:32+01:00</time>
      </trkpt>
      <trkpt lat="47.34921" lon="5.02789">
        <ele>276</ele>
        <time>2021-11-10T15:33:37+01:00</time>
      </trkpt>
      <trkpt lat="47.34737" lon="5.02688">
        <ele>280</ele>
        <time>2021-11-10T15:33:42+01:00</time>
      </trkpt>
      <trkpt lat="47.34696" lon="5.02667">
        <ele>283</ele>
        <time>2021-11-10T15:33:47+01:00</time>
      </trkpt>
      <trkpt lat="47.34669" lon="5.026">
        <ele>284</ele>
        <time>2021-11-10T15:33:52+01:00</time>
      </trkpt>
      <trkpt lat="47.34559" lon="5.02518">
        <ele>287</ele>
        <time>2021-11-10T15:33:57+01:00</time>
      </trkpt>
      <trkpt lat="47.34543" lon="5.02231">
        <ele>295</ele>
        <time>2021-11-10T15:34:02+01:00</time>
      </trkpt>
      <trkpt lat="47.34485" lon="5.02136">
        <ele>300</ele>
        <time>2021-11-10T15:34:07+01:00</time>
      </trkpt>
      <trkpt lat="47.34428" lon="5.01991">
        <ele>304</ele>
        <time>2021-11-10T15:34:12+01:00</time>
      </trkpt>
      <trkpt lat="47.34339" lon="5.01926">
        <ele>299</ele>
        <time>2021-11-10T15:34:17+01:00</time>
      </trkpt>
      <trkpt lat="47.3408" lon="5.01801">
        <ele>283</ele>
        <time>2021-11-10T15:34:22+01:00</time>
      </trkpt>
      <trkpt lat="47.34231" lon="5.01345">
        <ele>300</ele>
        <time>2021-11-10T15:34:27+01:00</time>
      </trkpt>
      <trkpt lat="47.34348" lon="5.01179">
        <ele>303</ele>
        <time>2021-11-10T15:34:32+01:00</time>
      </trkpt>
      <trkpt lat="47.34522" lon="5.01061">
        <ele>301</ele>
        <time>2021-11-10T15:34:37+01:00</time>
      </trkpt>
      <trkpt lat="47.34492" lon="5.01023">
        <ele>299</ele>
        <time>2021-11-10T15:34:42+01:00</time>
      </trkpt>
      <trkpt lat="47.34538" lon="5.00814">
        <ele>302</ele>
        <time>2021-11-10T15:34:47+01:00</time>
      </trkpt>
      <trkpt lat="47.34545" lon="5.00665">
        <ele>310</ele>
        <time>2021-11-10T15:34:52+01:00</time>
      </trkpt>
      <trkpt lat="47.3446" lon="5.00482">
        <ele>320</ele>
        <time>2021-11-10T15:34:57+01:00</time>
      </trkpt>
      <trkpt lat="47.34401" lon="5.0035">
        <ele>326</ele>
        <time>2021-11-10T15:35:02+01:00</time>
      </trkpt>
      <trkpt lat="47.34295" lon="5.00266">
        <ele>327</ele>
        <time>2021-11-10T15:35:07+01:00</time>
      </trkpt>
      <trkpt lat="47.34329" lon="5.00205">
        <ele>330</ele>
        <time>2021-11-10T15:35:12+01:00</time>
      </trkpt>
      <trkpt lat="47.34382" lon="5.00066">
        <ele>336</ele>
        <time>2021-11-10T15:35:17+01:00</time>
      </trkpt>
      <trkpt lat="47.34265" lon="4.99887">
        <ele>338</ele>
        <time>2021-11-10T15:35:22+01:00</time>
      </trkpt>
      <trkpt lat="47.34206" lon="4.99765">
        <ele>340</ele>
        <time>2021-11-10T15:35:27+01:00</time>
      </trkpt>
      <trkpt lat="47.34121" lon="4.99684">
        <ele>341</ele>
        <time>2021-11-10T15:35:32+01:00</time>
      </trkpt>
      <trkpt lat="47.34215" lon="4.99535">
        <ele>345</ele>
        <time>2021-11-10T15:35:37+01:00</time>
      </trkpt>
      <trkpt lat="47.34339" lon="4.99359">
        <ele>346</ele>
        <time>2021-11-10T15:35:42+01:00</time>
      </trkpt>
      <trkpt lat="47.34437" lon="4.99237">
        <ele>349</ele>
        <time>2021-11-10T15:35:47+01:00</time>
      </trkpt>
      <trkpt lat="47.34501" lon="4.98879">
        <ele>348</ele>
        <time>2021-11-10T15:35:52+01:00</time>
      </trkpt>
      <trkpt lat="47.34572" lon="4.98547">
        <ele>360</ele>
        <time>2021-11-10T15:35:57+01:00</time>
      </trkpt>
      <trkpt lat="47.3441" lon="4.9848">
        <ele>354</ele>
        <time>2021-11-10T15:36:02+01:00</time>
      </trkpt>
      <trkpt lat="47.34323" lon="4.98382">
        <ele>354</ele>
        <time>2021-11-10T15:36:07+01:00</time>
      </trkpt>
      <trkpt lat="47.343" lon="4.98256">
        <ele>356</ele>
        <time>2021-11-10T15:36:12+01:00</time>
      </trkpt>
      <trkpt lat="47.34323" lon="4.98114">
        <ele>358</ele>
        <time>2021-11-10T15:36:17+01:00</time>
      </trkpt>
      <trkpt lat="47.34407" lon="4.97996">
        <ele>363</ele>
        <time>2021-11-10T15:36:22+01:00</time>
      </trkpt>
      <trkpt lat="47.34508" lon="4.97813">
        <ele>367</ele>
        <time>2021-11-10T15:36:27+01:00</time>
      </trkpt>
      <trkpt lat="47.34623" lon="4.97783">
        <ele>365</ele>
        <time>2021-11-10T15:36:32+01:00</time>
      </trkpt>
      <trkpt lat="47.34616" lon="4.97654">
        <ele>354</ele>
        <time>2021-11-10T15:36:37+01:00</time>
      </trkpt>
      <trkpt lat="47.34327" lon="4.97367">
        <ele>305</ele>
        <time>2021-11-10T15:36:42+01:00</time>
      </trkpt>
      <trkpt lat="47.34279" lon="4.97258">
        <ele>292</ele>
        <time>2021-11-10T15:36:47+01:00</time>
      </trkpt>
      <trkpt lat="47.3421" lon="4.9716">
        <ele>277</ele>
        <time>2021-11-10T15:36:52+01:00</time>
      </trkpt>
      <trkpt lat="47.34265" lon="4.96826">
        <ele>279</ele>
        <time>2021-11-10T15:36:57+01:00</time>
      </trkpt>
      <trkpt lat="47.34288" lon="4.96623">
        <ele>265</ele>
        <time>2021-11-10T15:37:02+01:00</time>
      </trkpt>
      <trkpt lat="47.34284" lon="4.96494">
        <ele>267</ele>
        <time>2021-11-10T15:37:07+01:00</time>
      </trkpt>
      <trkpt lat="47.34284" lon="4.96415">
        <ele>275</ele>
        <time>2021-11-10T15:37:12+01:00</time>
      </trkpt>
      <trkpt lat="47.3432" lon="4.96225">
        <ele>305</ele>
        <time>2021-11-10T15:37:17+01:00</time>
      </trkpt>
      <trkpt lat="47.34297" lon="4.962">
        <ele>295</ele>
        <time>2021-11-10T15:37:22+01:00</time>
      </trkpt>
      <trkpt lat="47.34358" lon="4.96104">
        <ele>304</ele>
        <time>2021-11-10T15:37:27+01:00</time>
      </trkpt>
      <trkpt lat="47.34373" lon="4.96009">
        <ele>307</ele>
        <time>2021-11-10T15:37:32+01:00</time>
      </trkpt>
      <trkpt lat="47.34321" lon="4.95946">
        <ele>306</ele>
        <time>2021-11-10T15:37:37+01:00</time>
      </trkpt>
      <trkpt lat="47.34304" lon="4.9578">
        <ele>313</ele>
        <time>2021-11-10T15:37:42+01:00</time>
      </trkpt>
      <trkpt lat="47.34289" lon="4.95675">
        <ele>305</ele>
        <time>2021-11-10T15:37:47+01:00</time>
      </trkpt>
      <trkpt lat="47.34314" lon="4.95501">
        <ele>299</ele>
        <time>2021-11-10T15:37:52+01:00</time>
      </trkpt>
      <trkpt lat="47.34299" lon="4.95417">
        <ele>284</ele>
        <time>2021-11-10T15:37:57+01:00</time>
      </trkpt>
      <trkpt lat="47.3431" lon="4.95306">
        <ele>308</ele>
        <time>2021-11-10T15:38:02+01:00</time>
      </trkpt>
      <trkpt lat="47.34304" lon="4.95261">
        <ele>321</ele>
        <time>2021-11-10T15:38:07+01:00</time>
      </trkpt>
      <trkpt lat="47.34343" lon="4.95221">
        <ele>338</ele>
        <time>2021-11-10T15:38:12+01:00</time>
      </trkpt>
      <trkpt lat="47.3429" lon="4.95144">
        <ele>344</ele>
        <time>2021-11-10T15:38:17+01:00</time>
      </trkpt>
      <trkpt lat="47.34249" lon="4.95129">
        <ele>338</ele>
        <time>2021-11-10T15:38:22+01:00</time>
      </trkpt>
      <trkpt lat="47.34199" lon="4.95039">
        <ele>333</ele>
        <time>2021-11-10T15:38:27+01:00</time>
      </trkpt>
      <trkpt lat="47.34189" lon="4.94927">
        <ele>335</ele>
        <time>2021-11-10T15:38:32+01:00</time>
      </trkpt>
      <trkpt lat="47.34213" lon="4.94856">
        <ele>340</ele>
        <time>2021-11-10T15:38:37+01:00</time>
      </trkpt>
      <trkpt lat="47.34178" lon="4.94734">
        <ele>337</ele>
        <time>2021-11-10T15:38:42+01:00</time>
      </trkpt>
      <trkpt lat="47.34078" lon="4.94629">
        <ele>330</ele>
        <time>2021-11-10T15:38:47+01:00</time>
      </trkpt>
      <trkpt lat="47.33966" lon="4.94505">
        <ele>323</ele>
        <time>2021-11-10T15:38:52+01:00</time>
      </trkpt>
      <trkpt lat="47.33926" lon="4.94388">
        <ele>310</ele>
        <time>2021-11-10T15:38:57+01:00</time>
      </trkpt>
      <trkpt lat="47.33895" lon="4.94234">
        <ele>269</ele>
        <time>2021-11-10T15:39:02+01:00</time>
      </trkpt>
      <trkpt lat="47.33762" lon="4.94358">
        <ele>270</ele>
        <time>2021-11-10T15:39:07+01:00</time>
      </trkpt>
      <trkpt lat="47.33644" lon="4.94054">
        <ele>283</ele>
        <time>2021-11-10T15:39:12+01:00</time>
      </trkpt>
      <trkpt lat="47.33494" lon="4.93725">
        <ele>317</ele>
        <time>2021-11-10T15:39:17+01:00</time>
      </trkpt>
      <trkpt lat="47.33309" lon="4.93308">
        <ele>353</ele>
        <time>2021-11-10T15:39:22+01:00</time>
      </trkpt>
      <trkpt lat="47.33075" lon="4.92948">
        <ele>350</ele>
        <time>2021-11-10T15:39:27+01:00</time>
      </trkpt>
      <trkpt lat="47.33093" lon="4.92871">
        <ele>350</ele>
        <time>2021-11-10T15:39:32+01:00</time>
      </trkpt>
      <trkpt lat="47.32967" lon="4.92675">
        <ele>306</ele>
        <time>2021-11-10T15:39:37+01:00</time>
      </trkpt>
      <trkpt lat="47.33089" lon="4.92572">
        <ele>319</ele>
        <time>2021-11-10T15:39:42+01:00</time>
      </trkpt>
      <trkpt lat="47.33044" lon="4.92356">
        <ele>360</ele>
        <time>2021-11-10T15:39:47+01:00</time>
      </trkpt>
      <trkpt lat="47.32877" lon="4.92526">
        <ele>352</ele>
        <time>2021-11-10T15:39:52+01:00</time>
      </trkpt>
      <trkpt lat="47.32632" lon="4.92186">
        <ele>350</ele>
        <time>2021-11-10T15:39:57+01:00</time>
      </trkpt>
      <trkpt lat="47.32685" lon="4.9214">
        <ele>356</ele>
        <time>2021-11-10T15:40:02+01:00</time>
      </trkpt>
      <trkpt lat="47.32678" lon="4.91981">
        <ele>353</ele>
        <time>2021-11-10T15:40:07+01:00</time>
      </trkpt>
      <trkpt lat="47.32566" lon="4.91862">
        <ele>331</ele>
        <time>2021-11-10T15:40:12+01:00</time>
      </trkpt>
      <trkpt lat="47.32451" lon="4.91631">
        <ele>293</ele>
        <time>2021-11-10T15:40:17+01:00</time>
      </trkpt>
      <trkpt lat="47.32349" lon="4.91639">
        <ele>283</ele>
        <time>2021-11-10T15:40:22+01:00</time>
      </trkpt>
      <trkpt lat="47.32341" lon="4.91576">
        <ele>287</ele>
        <time>2021-11-10T15:40:27+01:00</time>
      </trkpt>
      <trkpt lat="47.32424" lon="4.91525">
        <ele>300</ele>
        <time>2021-11-10T15:40:32+01:00</time>
      </trkpt>
      <trkpt lat="47.32354" lon="4.91524">
        <ele>297</ele>
        <time>2021-11-10T15:40:37+01:00</time>
      </trkpt>
      <trkpt lat="47.32426" lon="4.91448">
        <ele>316</ele>
        <time>2021-11-10T15:40:42+01:00</time>
      </trkpt>
      <trkpt lat="47.32416" lon="4.91363">
        <ele>328</ele>
        <time>2021-11-10T15:40:47+01:00</time>
      </trkpt>
      <trkpt lat="47.32338" lon="4.91313">
        <ele>314</ele>
        <time>2021-11-10T15:40:52+01:00</time>
      </trkpt>
      <trkpt lat="47.32372" lon="4.91129">
        <ele>323</ele>
        <time>2021-11-10T15:40:57+01:00</time>
      </trkpt>
      <trkpt lat="47.32271" lon="4.90998">
        <ele>303</ele>
        <time>2021-11-10T15:41:02+01:00</time>
      </trkpt>
      <trkpt lat="47.32292" lon="4.90833">
        <ele>307</ele>
        <time>2021-11-10T15:41:07+01:00</time>
      </trkpt>
      <trkpt lat="47.32328" lon="4.90718">
        <ele>309</ele>
        <time>2021-11-10T15:41:12+01:00</time>
      </trkpt>
      <trkpt lat="47.32263" lon="4.90745">
        <ele>300</ele>
        <time>2021-11-10T15:41:17+01:00</time>
      </trkpt>
      <trkpt lat="47.32202" lon="4.90707">
        <ele>292</ele>
        <time>2021-11-10T15:41:22+01:00</time>
      </trkpt>
      <trkpt lat="47.32149" lon="4.90778">
        <ele>283</ele>
        <time>2021-11-10T15:41:27+01:00</time>
      </trkpt>
      <trkpt lat="47.32052" lon="4.90796">
        <ele>270</ele>
        <time>2021-11-10T15:41:32+01:00</time>
      </trkpt>
      <trkpt lat="47.32006" lon="4.90765">
        <ele>267</ele>
        <time>2021-11-10T15:41:37+01:00</time>
      </trkpt>
      <trkpt lat="47.31959" lon="4.90734">
        <ele>266</ele>
        <time>2021-11-10T15:41:42+01:00</time>
      </trkpt>
      <trkpt lat="47.31843" lon="4.90922">
        <ele>262</ele>
        <time>2021-11-10T15:41:47+01:00</time>
      </trkpt>
      <trkpt lat="47.31842" lon="4.91054">
        <ele>261</ele>
        <time>2021-11-10T15:41:52+01:00</time>
      </trkpt>
      <trkpt lat="47.31733" lon="4.91103">
        <ele>263</ele>
        <time>2021-11-10T15:41:57+01:00</time>
      </trkpt>
      <trkpt lat="47.31773" lon="4.91196">
        <ele>265</ele>
        <time>2021-11-10T15:42:02+01:00</time>
      </trkpt>
      <trkpt lat="47.31729" lon="4.91261">
        <ele>267</ele>
        <time>2021-11-10T15:42:07+01:00</time>
      </trkpt>
      <trkpt lat="47.31611" lon="4.91229">
        <ele>272</ele>
        <time>2021-11-10T15:42:12+01:00</time>
      </trkpt>
      <trkpt lat="47.31517" lon="4.91112">
        <ele>285</ele>
        <time>2021-11-10T15:42:17+01:00</time>
      </trkpt>
      <trkpt lat="47.3135" lon="4.91139">
        <ele>296</ele>
        <time>2021-11-10T15:42:22+01:00</time>
      </trkpt>
      <trkpt lat="47.31229" lon="4.91143">
        <ele>304</ele>
        <time>2021-11-10T15:42:27+01:00</time>
      </trkpt>
      <trkpt lat="47.31076" lon="4.91007">
        <ele>324</ele>
        <time>2021-11-10T15:42:32+01:00</time>
      </trkpt>
      <trkpt lat="47.30886" lon="4.90924">
        <ele>332</ele>
        <time>2021-11-10T15:42:37+01:00</time>
      </trkpt>
      <trkpt lat="47.30354" lon="4.90924">
        <ele>344</ele>
        <time>2021-11-10T15:42:42+01:00</time>
      </trkpt>
      <trkpt lat="47.30517" lon="4.90503">
        <ele>411</ele>
        <time>2021-11-10T15:42:47+01:00</time>
      </trkpt>
      <trkpt lat="47.30428" lon="4.90477">
        <ele>420</ele>
        <time>2021-11-10T15:42:52+01:00</time>
      </trkpt>
      <trkpt lat="47.30414" lon="4.90325">
        <ele>454</ele>
        <time>2021-11-10T15:42:57+01:00</time>
      </trkpt>
      <trkpt lat="47.30383" lon="4.90194">
        <ele>502</ele>
        <time>2021-11-10T15:43:02+01:00</time>
      </trkpt>
      <trkpt lat="47.30322" lon="4.9013">
        <ele>527</ele>
        <time>2021-11-10T15:43:07+01:00</time>
      </trkpt>
      <trkpt lat="47.30186" lon="4.90029">
        <ele>542</ele>
        <time>2021-11-10T15:43:12+01:00</time>
      </trkpt>
      <trkpt lat="47.29918" lon="4.90019">
        <ele>552</ele>
        <time>2021-11-10T15:43:17+01:00</time>
      </trkpt>
      <trkpt lat="47.29803" lon="4.90064">
        <ele>555</ele>
        <time>2021-11-10T15:43:22+01:00</time>
      </trkpt>
      <trkpt lat="47.29689" lon="4.90108">
        <ele>560</ele>
        <time>2021-11-10T15:43:27+01:00</time>
      </trkpt>
      <trkpt lat="47.29363" lon="4.90307">
        <ele>575</ele>
        <time>2021-11-10T15:43:32+01:00</time>
      </trkpt>
      <trkpt lat="47.29272" lon="4.90309">
        <ele>569</ele>
        <time>2021-11-10T15:43:37+01:00</time>
      </trkpt>
      <trkpt lat="47.29177" lon="4.90411">
        <ele>564</ele>
        <time>2021-11-10T15:43:42+01:00</time>
      </trkpt>
      <trkpt lat="47.29048" lon="4.90334">
        <ele>559</ele>
        <time>2021-11-10T15:43:47+01:00</time>
      </trkpt>
      <trkpt lat="47.28886" lon="4.90308">
        <ele>540</ele>
        <time>2021-11-10T15:43:52+01:00</time>
      </trkpt>
      <trkpt lat="47.2852" lon="4.90125">
        <ele>538</ele>
        <time>2021-11-10T15:43:57+01:00</time>
      </trkpt>
      <trkpt lat="47.28264" lon="4.89905">
        <ele>540</ele>
        <time>2021-11-10T15:44:02+01:00</time>
      </trkpt>
      <trkpt lat="47.28118" lon="4.89677">
        <ele>540</ele>
        <time>2021-11-10T15:44:07+01:00</time>
      </trkpt>
      <trkpt lat="47.27984" lon="4.89587">
        <ele>536</ele>
        <time>2021-11-10T15:44:12+01:00</time>
      </trkpt>
      <trkpt lat="47.27782" lon="4.89682">
        <ele>518</ele>
        <time>2021-11-10T15:44:17+01:00</time>
      </trkpt>
      <trkpt lat="47.27656" lon="4.89687">
        <ele>507</ele>
        <time>2021-11-10T15:44:22+01:00</time>
      </trkpt>
      <trkpt lat="47.27517" lon="4.89652">
        <ele>510</ele>
        <time>2021-11-10T15:44:27+01:00</time>
      </trkpt>
      <trkpt lat="47.27352" lon="4.89748">
        <ele>522</ele>
        <time>2021-11-10T15:44:32+01:00</time>
      </trkpt>
      <trkpt lat="47.27212" lon="4.89956">
        <ele>540</ele>
        <time>2021-11-10T15:44:37+01:00</time>
      </trkpt>
      <trkpt lat="47.27048" lon="4.90045">
        <ele>546</ele>
        <time>2021-11-10T15:44:42+01:00</time>
      </trkpt>
      <trkpt lat="47.2667" lon="4.8995">
        <ele>552</ele>
        <time>2021-11-10T15:44:47+01:00</time>
      </trkpt>
      <trkpt lat="47.26406" lon="4.8993">
        <ele>550</ele>
        <time>2021-11-10T15:44:52+01:00</time>
      </trkpt>
      <trkpt lat="47.2626" lon="4.9002">
        <ele>544</ele>
        <time>2021-11-10T15:44:57+01:00</time>
      </trkpt>
      <trkpt lat="47.26215" lon="4.90193">
        <ele>559</ele>
        <time>2021-11-10T15:45:02+01:00</time>
      </trkpt>
      <trkpt lat="47.26045" lon="4.90329">
        <ele>569</ele>
        <time>2021-11-10T15:45:07+01:00</time>
      </trkpt>
      <trkpt lat="47.25604" lon="4.9042">
        <ele>556</ele>
        <time>2021-11-10T15:45:12+01:00</time>
      </trkpt>
      <trkpt lat="47.25677" lon="4.90543">
        <ele>534</ele>
        <time>2021-11-10T15:45:17+01:00</time>
      </trkpt>
      <trkpt lat="47.25596" lon="4.90829">
        <ele>505</ele>
        <time>2021-11-10T15:45:22+01:00</time>
      </trkpt>
    </trkseg>
  </trk>
  <trk>
    <name><![CDATA[28 - CHAMEREY MAREY LES FUSSEY 26.1 KM]]></name>
    <extensions>
      <line xmlns="http://www.topografix.com/GPX/gpx_style/0/2">
        <color>FF0000</color>
        <width>4</width>
      </line>
    </extensions>
    <trkseg>
      <trkpt lat="47.25636" lon="4.9075">
        <ele>510</ele>
        <time>2021-11-10T16:38:06+01:00</time>
      </trkpt>
      <trkpt lat="47.25466" lon="4.9138">
        <ele>505</ele>
        <time>2021-11-10T16:38:11+01:00</time>
      </trkpt>
      <trkpt lat="47.25427" lon="4.92055">
        <ele>532</ele>
        <time>2021-11-10T16:38:16+01:00</time>
      </trkpt>
      <trkpt lat="47.25506" lon="4.9248">
        <ele>539</ele>
        <time>2021-11-10T16:38:21+01:00</time>
      </trkpt>
      <trkpt lat="47.25457" lon="4.92934">
        <ele>532</ele>
        <time>2021-11-10T16:38:26+01:00</time>
      </trkpt>
      <trkpt lat="47.25121" lon="4.92892">
        <ele>526</ele>
        <time>2021-11-10T16:38:31+01:00</time>
      </trkpt>
      <trkpt lat="47.24489" lon="4.92464">
        <ele>536</ele>
        <time>2021-11-10T16:38:36+01:00</time>
      </trkpt>
      <trkpt lat="47.24041" lon="4.92418">
        <ele>520</ele>
        <time>2021-11-10T16:38:41+01:00</time>
      </trkpt>
      <trkpt lat="47.23845" lon="4.92146">
        <ele>515</ele>
        <time>2021-11-10T16:38:46+01:00</time>
      </trkpt>
      <trkpt lat="47.23629" lon="4.91943">
        <ele>499</ele>
        <time>2021-11-10T16:38:51+01:00</time>
      </trkpt>
      <trkpt lat="47.23331" lon="4.91382">
        <ele>491</ele>
        <time>2021-11-10T16:38:56+01:00</time>
      </trkpt>
      <trkpt lat="47.2313" lon="4.90943">
        <ele>497</ele>
        <time>2021-11-10T16:39:01+01:00</time>
      </trkpt>
      <trkpt lat="47.23126" lon="4.90642">
        <ele>497</ele>
        <time>2021-11-10T16:39:06+01:00</time>
      </trkpt>
      <trkpt lat="47.22608" lon="4.90428">
        <ele>464</ele>
        <time>2021-11-10T16:39:11+01:00</time>
      </trkpt>
      <trkpt lat="47.22655" lon="4.90249">
        <ele>460</ele>
        <time>2021-11-10T16:39:16+01:00</time>
      </trkpt>
      <trkpt lat="47.22565" lon="4.90052">
        <ele>453</ele>
        <time>2021-11-10T16:39:21+01:00</time>
      </trkpt>
      <trkpt lat="47.22494" lon="4.89977">
        <ele>448</ele>
        <time>2021-11-10T16:39:26+01:00</time>
      </trkpt>
      <trkpt lat="47.22408" lon="4.89532">
        <ele>444</ele>
        <time>2021-11-10T16:39:31+01:00</time>
      </trkpt>
      <trkpt lat="47.22203" lon="4.89387">
        <ele>434</ele>
        <time>2021-11-10T16:39:36+01:00</time>
      </trkpt>
      <trkpt lat="47.22152" lon="4.89277">
        <ele>428</ele>
        <time>2021-11-10T16:39:41+01:00</time>
      </trkpt>
      <trkpt lat="47.22046" lon="4.89231">
        <ele>422</ele>
        <time>2021-11-10T16:39:46+01:00</time>
      </trkpt>
      <trkpt lat="47.22019" lon="4.89115">
        <ele>418</ele>
        <time>2021-11-10T16:39:51+01:00</time>
      </trkpt>
      <trkpt lat="47.21846" lon="4.89052">
        <ele>414</ele>
        <time>2021-11-10T16:39:56+01:00</time>
      </trkpt>
      <trkpt lat="47.21422" lon="4.88404">
        <ele>391</ele>
        <time>2021-11-10T16:40:01+01:00</time>
      </trkpt>
      <trkpt lat="47.21276" lon="4.88438">
        <ele>387</ele>
        <time>2021-11-10T16:40:06+01:00</time>
      </trkpt>
      <trkpt lat="47.2117" lon="4.88398">
        <ele>379</ele>
        <time>2021-11-10T16:40:11+01:00</time>
      </trkpt>
      <trkpt lat="47.21017" lon="4.88491">
        <ele>377</ele>
        <time>2021-11-10T16:40:16+01:00</time>
      </trkpt>
      <trkpt lat="47.20934" lon="4.88375">
        <ele>375</ele>
        <time>2021-11-10T16:40:21+01:00</time>
      </trkpt>
      <trkpt lat="47.20718" lon="4.88346">
        <ele>371</ele>
        <time>2021-11-10T16:40:26+01:00</time>
      </trkpt>
      <trkpt lat="47.20663" lon="4.88462">
        <ele>368</ele>
        <time>2021-11-10T16:40:31+01:00</time>
      </trkpt>
      <trkpt lat="47.20345" lon="4.88224">
        <ele>363</ele>
        <time>2021-11-10T16:40:36+01:00</time>
      </trkpt>
      <trkpt lat="47.20212" lon="4.88201">
        <ele>362</ele>
        <time>2021-11-10T16:40:41+01:00</time>
      </trkpt>
      <trkpt lat="47.2007" lon="4.8808">
        <ele>355</ele>
        <time>2021-11-10T16:40:46+01:00</time>
      </trkpt>
      <trkpt lat="47.19878" lon="4.88155">
        <ele>350</ele>
        <time>2021-11-10T16:40:51+01:00</time>
      </trkpt>
      <trkpt lat="47.19736" lon="4.88039">
        <ele>347</ele>
        <time>2021-11-10T16:40:56+01:00</time>
      </trkpt>
      <trkpt lat="47.19559" lon="4.88167">
        <ele>340</ele>
        <time>2021-11-10T16:41:01+01:00</time>
      </trkpt>
      <trkpt lat="47.19382" lon="4.88404">
        <ele>337</ele>
        <time>2021-11-10T16:41:06+01:00</time>
      </trkpt>
      <trkpt lat="47.19225" lon="4.88496">
        <ele>332</ele>
        <time>2021-11-10T16:41:11+01:00</time>
      </trkpt>
      <trkpt lat="47.19304" lon="4.8867">
        <ele>342</ele>
        <time>2021-11-10T16:41:16+01:00</time>
      </trkpt>
      <trkpt lat="47.19426" lon="4.88687">
        <ele>339</ele>
        <time>2021-11-10T16:41:21+01:00</time>
      </trkpt>
      <trkpt lat="47.19386" lon="4.88757">
        <ele>344</ele>
        <time>2021-11-10T16:41:26+01:00</time>
      </trkpt>
      <trkpt lat="47.19449" lon="4.88809">
        <ele>347</ele>
        <time>2021-11-10T16:41:31+01:00</time>
      </trkpt>
      <trkpt lat="47.19398" lon="4.88942">
        <ele>362</ele>
        <time>2021-11-10T16:41:36+01:00</time>
      </trkpt>
      <trkpt lat="47.19343" lon="4.88872">
        <ele>359</ele>
        <time>2021-11-10T16:41:41+01:00</time>
      </trkpt>
      <trkpt lat="47.19272" lon="4.88918">
        <ele>365</ele>
        <time>2021-11-10T16:41:46+01:00</time>
      </trkpt>
      <trkpt lat="47.19092" lon="4.88976">
        <ele>380</ele>
        <time>2021-11-10T16:41:51+01:00</time>
      </trkpt>
      <trkpt lat="47.19013" lon="4.89231">
        <ele>392</ele>
        <time>2021-11-10T16:41:56+01:00</time>
      </trkpt>
      <trkpt lat="47.18883" lon="4.89283">
        <ele>401</ele>
        <time>2021-11-10T16:42:01+01:00</time>
      </trkpt>
      <trkpt lat="47.1873" lon="4.89491">
        <ele>417</ele>
        <time>2021-11-10T16:42:06+01:00</time>
      </trkpt>
      <trkpt lat="47.18333" lon="4.8926">
        <ele>422</ele>
        <time>2021-11-10T16:42:11+01:00</time>
      </trkpt>
      <trkpt lat="47.1807" lon="4.89011">
        <ele>459</ele>
        <time>2021-11-10T16:42:16+01:00</time>
      </trkpt>
      <trkpt lat="47.17948" lon="4.89011">
        <ele>481</ele>
        <time>2021-11-10T16:42:21+01:00</time>
      </trkpt>
      <trkpt lat="47.17869" lon="4.88872">
        <ele>491</ele>
        <time>2021-11-10T16:42:26+01:00</time>
      </trkpt>
      <trkpt lat="47.17468" lon="4.88652">
        <ele>476</ele>
        <time>2021-11-10T16:42:31+01:00</time>
      </trkpt>
      <trkpt lat="47.17134" lon="4.88514">
        <ele>423</ele>
        <time>2021-11-10T16:42:36+01:00</time>
      </trkpt>
      <trkpt lat="47.17268" lon="4.8834">
        <ele>404</ele>
        <time>2021-11-10T16:42:41+01:00</time>
      </trkpt>
      <trkpt lat="47.17433" lon="4.8819">
        <ele>372</ele>
        <time>2021-11-10T16:42:46+01:00</time>
      </trkpt>
      <trkpt lat="47.17543" lon="4.88016">
        <ele>346</ele>
        <time>2021-11-10T16:42:51+01:00</time>
      </trkpt>
      <trkpt lat="47.17684" lon="4.87958">
        <ele>324</ele>
        <time>2021-11-10T16:42:56+01:00</time>
      </trkpt>
      <trkpt lat="47.17751" lon="4.87889">
        <ele>311</ele>
        <time>2021-11-10T16:43:01+01:00</time>
      </trkpt>
      <trkpt lat="47.17857" lon="4.87698">
        <ele>326</ele>
        <time>2021-11-10T16:43:06+01:00</time>
      </trkpt>
      <trkpt lat="47.17779" lon="4.87559">
        <ele>340</ele>
        <time>2021-11-10T16:43:11+01:00</time>
      </trkpt>
      <trkpt lat="47.17735" lon="4.87299">
        <ele>368</ele>
        <time>2021-11-10T16:43:16+01:00</time>
      </trkpt>
      <trkpt lat="47.17783" lon="4.86426">
        <ele>409</ele>
        <time>2021-11-10T16:43:21+01:00</time>
      </trkpt>
      <trkpt lat="47.17731" lon="4.86304">
        <ele>415</ele>
        <time>2021-11-10T16:43:26+01:00</time>
      </trkpt>
      <trkpt lat="47.17731" lon="4.86056">
        <ele>410</ele>
        <time>2021-11-10T16:43:31+01:00</time>
      </trkpt>
      <trkpt lat="47.17775" lon="4.85894">
        <ele>411</ele>
        <time>2021-11-10T16:43:36+01:00</time>
      </trkpt>
      <trkpt lat="47.17763" lon="4.85755">
        <ele>404</ele>
        <time>2021-11-10T16:43:41+01:00</time>
      </trkpt>
      <trkpt lat="47.17889" lon="4.855">
        <ele>408</ele>
        <time>2021-11-10T16:43:46+01:00</time>
      </trkpt>
      <trkpt lat="47.17767" lon="4.85414">
        <ele>377</ele>
        <time>2021-11-10T16:43:51+01:00</time>
      </trkpt>
      <trkpt lat="47.1761" lon="4.85483">
        <ele>374</ele>
        <time>2021-11-10T16:43:56+01:00</time>
      </trkpt>
      <trkpt lat="47.17154" lon="4.8524">
        <ele>409</ele>
        <time>2021-11-10T16:44:01+01:00</time>
      </trkpt>
      <trkpt lat="47.17016" lon="4.85286">
        <ele>416</ele>
        <time>2021-11-10T16:44:06+01:00</time>
      </trkpt>
      <trkpt lat="47.17008" lon="4.85211">
        <ele>421</ele>
        <time>2021-11-10T16:44:11+01:00</time>
      </trkpt>
      <trkpt lat="47.1687" lon="4.85165">
        <ele>412</ele>
        <time>2021-11-10T16:44:16+01:00</time>
      </trkpt>
      <trkpt lat="47.1678" lon="4.85246">
        <ele>405</ele>
        <time>2021-11-10T16:44:21+01:00</time>
      </trkpt>
      <trkpt lat="47.16792" lon="4.8535">
        <ele>405</ele>
        <time>2021-11-10T16:44:26+01:00</time>
      </trkpt>
      <trkpt lat="47.16654" lon="4.85344">
        <ele>388</ele>
        <time>2021-11-10T16:44:31+01:00</time>
      </trkpt>
      <trkpt lat="47.16548" lon="4.85252">
        <ele>379</ele>
        <time>2021-11-10T16:44:36+01:00</time>
      </trkpt>
      <trkpt lat="47.16406" lon="4.85321">
        <ele>386</ele>
        <time>2021-11-10T16:44:41+01:00</time>
      </trkpt>
      <trkpt lat="47.16222" lon="4.85292">
        <ele>402</ele>
        <time>2021-11-10T16:44:46+01:00</time>
      </trkpt>
      <trkpt lat="47.16108" lon="4.85327">
        <ele>418</ele>
        <time>2021-11-10T16:44:51+01:00</time>
      </trkpt>
      <trkpt lat="47.15946" lon="4.85217">
        <ele>411</ele>
        <time>2021-11-10T16:44:56+01:00</time>
      </trkpt>
      <trkpt lat="47.15923" lon="4.8502">
        <ele>408</ele>
        <time>2021-11-10T16:45:01+01:00</time>
      </trkpt>
      <trkpt lat="47.15805" lon="4.84905">
        <ele>393</ele>
        <time>2021-11-10T16:45:06+01:00</time>
      </trkpt>
      <trkpt lat="47.15742" lon="4.85124">
        <ele>379</ele>
        <time>2021-11-10T16:45:11+01:00</time>
      </trkpt>
      <trkpt lat="47.15526" lon="4.85078">
        <ele>364</ele>
        <time>2021-11-10T16:45:16+01:00</time>
      </trkpt>
      <trkpt lat="47.15156" lon="4.85234">
        <ele>382</ele>
        <time>2021-11-10T16:45:21+01:00</time>
      </trkpt>
      <trkpt lat="47.15073" lon="4.85153">
        <ele>405</ele>
        <time>2021-11-10T16:45:26+01:00</time>
      </trkpt>
      <trkpt lat="47.14975" lon="4.85211">
        <ele>411</ele>
        <time>2021-11-10T16:45:31+01:00</time>
      </trkpt>
      <trkpt lat="47.149" lon="4.85142">
        <ele>433</ele>
        <time>2021-11-10T16:45:36+01:00</time>
      </trkpt>
      <trkpt lat="47.14798" lon="4.85229">
        <ele>437</ele>
        <time>2021-11-10T16:45:41+01:00</time>
      </trkpt>
      <trkpt lat="47.14527" lon="4.85292">
        <ele>440</ele>
        <time>2021-11-10T16:45:46+01:00</time>
      </trkpt>
      <trkpt lat="47.14397" lon="4.85223">
        <ele>429</ele>
        <time>2021-11-10T16:45:51+01:00</time>
      </trkpt>
      <trkpt lat="47.14094" lon="4.84818">
        <ele>368</ele>
        <time>2021-11-10T16:45:56+01:00</time>
      </trkpt>
      <trkpt lat="47.13978" lon="4.84779">
        <ele>351</ele>
        <time>2021-11-10T16:46:01+01:00</time>
      </trkpt>
      <trkpt lat="47.13983" lon="4.8465">
        <ele>347</ele>
        <time>2021-11-10T16:46:06+01:00</time>
      </trkpt>
      <trkpt lat="47.13928" lon="4.84526">
        <ele>336</ele>
        <time>2021-11-10T16:46:11+01:00</time>
      </trkpt>
      <trkpt lat="47.13948" lon="4.8444">
        <ele>337</ele>
        <time>2021-11-10T16:46:16+01:00</time>
      </trkpt>
      <trkpt lat="47.1389" lon="4.84345">
        <ele>334</ele>
        <time>2021-11-10T16:46:21+01:00</time>
      </trkpt>
      <trkpt lat="47.13865" lon="4.84438">
        <ele>330</ele>
        <time>2021-11-10T16:46:26+01:00</time>
      </trkpt>
      <trkpt lat="47.13792" lon="4.84444">
        <ele>331</ele>
        <time>2021-11-10T16:46:31+01:00</time>
      </trkpt>
      <trkpt lat="47.13743" lon="4.84564">
        <ele>336</ele>
        <time>2021-11-10T16:46:36+01:00</time>
      </trkpt>
      <trkpt lat="47.13681" lon="4.84446">
        <ele>351</ele>
        <time>2021-11-10T16:46:41+01:00</time>
      </trkpt>
      <trkpt lat="47.13592" lon="4.84348">
        <ele>360</ele>
        <time>2021-11-10T16:46:46+01:00</time>
      </trkpt>
      <trkpt lat="47.13391" lon="4.84393">
        <ele>389</ele>
        <time>2021-11-10T16:46:51+01:00</time>
      </trkpt>
      <trkpt lat="47.13303" lon="4.84431">
        <ele>407</ele>
        <time>2021-11-10T16:46:56+01:00</time>
      </trkpt>
      <trkpt lat="47.13198" lon="4.84373">
        <ele>421</ele>
        <time>2021-11-10T16:47:01+01:00</time>
      </trkpt>
      <trkpt lat="47.1314" lon="4.84378">
        <ele>429</ele>
        <time>2021-11-10T16:47:06+01:00</time>
      </trkpt>
      <trkpt lat="47.1308" lon="4.8441">
        <ele>435</ele>
        <time>2021-11-10T16:47:11+01:00</time>
      </trkpt>
      <trkpt lat="47.12908" lon="4.84371">
        <ele>429</ele>
        <time>2021-11-10T16:47:16+01:00</time>
      </trkpt>
      <trkpt lat="47.12849" lon="4.84375">
        <ele>427</ele>
        <time>2021-11-10T16:47:21+01:00</time>
      </trkpt>
      <trkpt lat="47.12779" lon="4.84337">
        <ele>430</ele>
        <time>2021-11-10T16:47:26+01:00</time>
      </trkpt>
      <trkpt lat="47.12756" lon="4.84403">
        <ele>430</ele>
        <time>2021-11-10T16:47:31+01:00</time>
      </trkpt>
      <trkpt lat="47.12683" lon="4.84444">
        <ele>433</ele>
        <time>2021-11-10T16:47:36+01:00</time>
      </trkpt>
      <trkpt lat="47.12576" lon="4.84504">
        <ele>432</ele>
        <time>2021-11-10T16:47:41+01:00</time>
      </trkpt>
      <trkpt lat="47.12398" lon="4.84515">
        <ele>438</ele>
        <time>2021-11-10T16:47:46+01:00</time>
      </trkpt>
      <trkpt lat="47.12397" lon="4.84463">
        <ele>442</ele>
        <time>2021-11-10T16:47:51+01:00</time>
      </trkpt>
      <trkpt lat="47.12249" lon="4.84494">
        <ele>443</ele>
        <time>2021-11-10T16:47:56+01:00</time>
      </trkpt>
      <trkpt lat="47.12211" lon="4.84616">
        <ele>440</ele>
        <time>2021-11-10T16:48:01+01:00</time>
      </trkpt>
      <trkpt lat="47.1211" lon="4.85047">
        <ele>427</ele>
        <time>2021-11-10T16:48:06+01:00</time>
      </trkpt>
      <trkpt lat="47.12035" lon="4.85266">
        <ele>422</ele>
        <time>2021-11-10T16:48:11+01:00</time>
      </trkpt>
      <trkpt lat="47.12078" lon="4.85459">
        <ele>413</ele>
        <time>2021-11-10T16:48:16+01:00</time>
      </trkpt>
      <trkpt lat="47.12005" lon="4.85721">
        <ele>409</ele>
        <time>2021-11-10T16:48:21+01:00</time>
      </trkpt>
      <trkpt lat="47.11944" lon="4.85809">
        <ele>408</ele>
        <time>2021-11-10T16:48:26+01:00</time>
      </trkpt>
      <trkpt lat="47.11829" lon="4.86101">
        <ele>399</ele>
        <time>2021-11-10T16:48:31+01:00</time>
      </trkpt>
      <trkpt lat="47.11786" lon="4.86322">
        <ele>392</ele>
        <time>2021-11-10T16:48:36+01:00</time>
      </trkpt>
      <trkpt lat="47.11749" lon="4.86383">
        <ele>388</ele>
        <time>2021-11-10T16:48:41+01:00</time>
      </trkpt>
    </trkseg>
  </trk>
  <trk>
    <name><![CDATA[29 - MAREY LES FUSSEY ORCHES 26.7 KM]]></name>
    <extensions>
      <line xmlns="http://www.topografix.com/GPX/gpx_style/0/2">
        <color>00FFFF</color>
        <width>4</width>
      </line>
    </extensions>
    <trkseg>
      <trkpt lat="47.1176" lon="4.86369">
        <ele>389</ele>
        <time>2021-11-10T17:54:02+01:00</time>
      </trkpt>
      <trkpt lat="47.11679" lon="4.86484">
        <ele>386</ele>
        <time>2021-11-10T17:54:07+01:00</time>
      </trkpt>
      <trkpt lat="47.1166" lon="4.86562">
        <ele>388</ele>
        <time>2021-11-10T17:54:12+01:00</time>
      </trkpt>
      <trkpt lat="47.11455" lon="4.86459">
        <ele>407</ele>
        <time>2021-11-10T17:54:17+01:00</time>
      </trkpt>
      <trkpt lat="47.11225" lon="4.86239">
        <ele>425</ele>
        <time>2021-11-10T17:54:22+01:00</time>
      </trkpt>
      <trkpt lat="47.11026" lon="4.85884">
        <ele>426</ele>
        <time>2021-11-10T17:54:27+01:00</time>
      </trkpt>
      <trkpt lat="47.10855" lon="4.85981">
        <ele>420</ele>
        <time>2021-11-10T17:54:32+01:00</time>
      </trkpt>
      <trkpt lat="47.10673" lon="4.8595">
        <ele>412</ele>
        <time>2021-11-10T17:54:37+01:00</time>
      </trkpt>
      <trkpt lat="47.10554" lon="4.85835">
        <ele>405</ele>
        <time>2021-11-10T17:54:42+01:00</time>
      </trkpt>
      <trkpt lat="47.10415" lon="4.85766">
        <ele>394</ele>
        <time>2021-11-10T17:54:47+01:00</time>
      </trkpt>
      <trkpt lat="47.10336" lon="4.85692">
        <ele>393</ele>
        <time>2021-11-10T17:54:52+01:00</time>
      </trkpt>
      <trkpt lat="47.10066" lon="4.85372">
        <ele>390</ele>
        <time>2021-11-10T17:54:57+01:00</time>
      </trkpt>
      <trkpt lat="47.10243" lon="4.85353">
        <ele>364</ele>
        <time>2021-11-10T17:55:02+01:00</time>
      </trkpt>
      <trkpt lat="47.10174" lon="4.85309">
        <ele>364</ele>
        <time>2021-11-10T17:55:07+01:00</time>
      </trkpt>
      <trkpt lat="47.09958" lon="4.85101">
        <ele>357</ele>
        <time>2021-11-10T17:55:12+01:00</time>
      </trkpt>
      <trkpt lat="47.09744" lon="4.84896">
        <ele>354</ele>
        <time>2021-11-10T17:55:17+01:00</time>
      </trkpt>
      <trkpt lat="47.09522" lon="4.8471">
        <ele>353</ele>
        <time>2021-11-10T17:55:22+01:00</time>
      </trkpt>
      <trkpt lat="47.09433" lon="4.84688">
        <ele>352</ele>
        <time>2021-11-10T17:55:27+01:00</time>
      </trkpt>
      <trkpt lat="47.09078" lon="4.84679">
        <ele>344</ele>
        <time>2021-11-10T17:55:32+01:00</time>
      </trkpt>
      <trkpt lat="47.08881" lon="4.84704">
        <ele>333</ele>
        <time>2021-11-10T17:55:37+01:00</time>
      </trkpt>
      <trkpt lat="47.08763" lon="4.84645">
        <ele>325</ele>
        <time>2021-11-10T17:55:42+01:00</time>
      </trkpt>
      <trkpt lat="47.08557" lon="4.84704">
        <ele>309</ele>
        <time>2021-11-10T17:55:47+01:00</time>
      </trkpt>
      <trkpt lat="47.08329" lon="4.84878">
        <ele>300</ele>
        <time>2021-11-10T17:55:52+01:00</time>
      </trkpt>
      <trkpt lat="47.08244" lon="4.84862">
        <ele>296</ele>
        <time>2021-11-10T17:55:57+01:00</time>
      </trkpt>
      <trkpt lat="47.08119" lon="4.84906">
        <ele>290</ele>
        <time>2021-11-10T17:56:02+01:00</time>
      </trkpt>
      <trkpt lat="47.07984" lon="4.84943">
        <ele>280</ele>
        <time>2021-11-10T17:56:07+01:00</time>
      </trkpt>
      <trkpt lat="47.07908" lon="4.85008">
        <ele>276</ele>
        <time>2021-11-10T17:56:12+01:00</time>
      </trkpt>
      <trkpt lat="47.07804" lon="4.85132">
        <ele>273</ele>
        <time>2021-11-10T17:56:17+01:00</time>
      </trkpt>
      <trkpt lat="47.07679" lon="4.85117">
        <ele>270</ele>
        <time>2021-11-10T17:56:22+01:00</time>
      </trkpt>
      <trkpt lat="47.0748" lon="4.84974">
        <ele>262</ele>
        <time>2021-11-10T17:56:27+01:00</time>
      </trkpt>
      <trkpt lat="47.07317" lon="4.84999">
        <ele>260</ele>
        <time>2021-11-10T17:56:32+01:00</time>
      </trkpt>
      <trkpt lat="47.07197" lon="4.84822">
        <ele>261</ele>
        <time>2021-11-10T17:56:37+01:00</time>
      </trkpt>
      <trkpt lat="47.07116" lon="4.84812">
        <ele>264</ele>
        <time>2021-11-10T17:56:42+01:00</time>
      </trkpt>
      <trkpt lat="47.07059" lon="4.8475">
        <ele>269</ele>
        <time>2021-11-10T17:56:47+01:00</time>
      </trkpt>
      <trkpt lat="47.0697" lon="4.84697">
        <ele>272</ele>
        <time>2021-11-10T17:56:52+01:00</time>
      </trkpt>
      <trkpt lat="47.06867" lon="4.84551">
        <ele>281</ele>
        <time>2021-11-10T17:56:57+01:00</time>
      </trkpt>
      <trkpt lat="47.06744" lon="4.84464">
        <ele>283</ele>
        <time>2021-11-10T17:57:02+01:00</time>
      </trkpt>
      <trkpt lat="47.06592" lon="4.84328">
        <ele>282</ele>
        <time>2021-11-10T17:57:07+01:00</time>
      </trkpt>
      <trkpt lat="47.06501" lon="4.84306">
        <ele>275</ele>
        <time>2021-11-10T17:57:12+01:00</time>
      </trkpt>
      <trkpt lat="47.06409" lon="4.84175">
        <ele>271</ele>
        <time>2021-11-10T17:57:17+01:00</time>
      </trkpt>
      <trkpt lat="47.06376" lon="4.83905">
        <ele>269</ele>
        <time>2021-11-10T17:57:22+01:00</time>
      </trkpt>
      <trkpt lat="47.06426" lon="4.83747">
        <ele>274</ele>
        <time>2021-11-10T17:57:27+01:00</time>
      </trkpt>
      <trkpt lat="47.06465" lon="4.83299">
        <ele>272</ele>
        <time>2021-11-10T17:57:32+01:00</time>
      </trkpt>
      <trkpt lat="47.06486" lon="4.82532">
        <ele>284</ele>
        <time>2021-11-10T17:57:37+01:00</time>
      </trkpt>
      <trkpt lat="47.06369" lon="4.82075">
        <ele>267</ele>
        <time>2021-11-10T17:57:42+01:00</time>
      </trkpt>
      <trkpt lat="47.06287" lon="4.81985">
        <ele>265</ele>
        <time>2021-11-10T17:57:47+01:00</time>
      </trkpt>
      <trkpt lat="47.06299" lon="4.81839">
        <ele>265</ele>
        <time>2021-11-10T17:57:52+01:00</time>
      </trkpt>
      <trkpt lat="47.0634" lon="4.81702">
        <ele>265</ele>
        <time>2021-11-10T17:57:57+01:00</time>
      </trkpt>
      <trkpt lat="47.06064" lon="4.81485">
        <ele>276</ele>
        <time>2021-11-10T17:58:02+01:00</time>
      </trkpt>
      <trkpt lat="47.0595" lon="4.8146">
        <ele>292</ele>
        <time>2021-11-10T17:58:07+01:00</time>
      </trkpt>
      <trkpt lat="47.0595" lon="4.81419">
        <ele>299</ele>
        <time>2021-11-10T17:58:12+01:00</time>
      </trkpt>
      <trkpt lat="47.05887" lon="4.81397">
        <ele>310</ele>
        <time>2021-11-10T17:58:17+01:00</time>
      </trkpt>
      <trkpt lat="47.05925" lon="4.80872">
        <ele>333</ele>
        <time>2021-11-10T17:58:22+01:00</time>
      </trkpt>
      <trkpt lat="47.05899" lon="4.80549">
        <ele>347</ele>
        <time>2021-11-10T17:58:27+01:00</time>
      </trkpt>
      <trkpt lat="47.05813" lon="4.79785">
        <ele>374</ele>
        <time>2021-11-10T17:58:32+01:00</time>
      </trkpt>
      <trkpt lat="47.05832" lon="4.79328">
        <ele>386</ele>
        <time>2021-11-10T17:58:37+01:00</time>
      </trkpt>
      <trkpt lat="47.06111" lon="4.77914">
        <ele>447</ele>
        <time>2021-11-10T17:58:42+01:00</time>
      </trkpt>
      <trkpt lat="47.06079" lon="4.77961">
        <ele>446</ele>
        <time>2021-11-10T17:58:47+01:00</time>
      </trkpt>
      <trkpt lat="47.06035" lon="4.77886">
        <ele>442</ele>
        <time>2021-11-10T17:58:52+01:00</time>
      </trkpt>
      <trkpt lat="47.05853" lon="4.77743">
        <ele>436</ele>
        <time>2021-11-10T17:58:57+01:00</time>
      </trkpt>
      <trkpt lat="47.05722" lon="4.77591">
        <ele>430</ele>
        <time>2021-11-10T17:59:02+01:00</time>
      </trkpt>
      <trkpt lat="47.05734" lon="4.77445">
        <ele>427</ele>
        <time>2021-11-10T17:59:07+01:00</time>
      </trkpt>
      <trkpt lat="47.05605" lon="4.7728">
        <ele>420</ele>
        <time>2021-11-10T17:59:12+01:00</time>
      </trkpt>
      <trkpt lat="47.05472" lon="4.77156">
        <ele>412</ele>
        <time>2021-11-10T17:59:17+01:00</time>
      </trkpt>
      <trkpt lat="47.05302" lon="4.77103">
        <ele>403</ele>
        <time>2021-11-10T17:59:22+01:00</time>
      </trkpt>
      <trkpt lat="47.05214" lon="4.77072">
        <ele>397</ele>
        <time>2021-11-10T17:59:27+01:00</time>
      </trkpt>
      <trkpt lat="47.05163" lon="4.77038">
        <ele>397</ele>
        <time>2021-11-10T17:59:32+01:00</time>
      </trkpt>
      <trkpt lat="47.05203" lon="4.76936">
        <ele>402</ele>
        <time>2021-11-10T17:59:37+01:00</time>
      </trkpt>
      <trkpt lat="47.05239" lon="4.76494">
        <ele>427</ele>
        <time>2021-11-10T17:59:42+01:00</time>
      </trkpt>
      <trkpt lat="47.05192" lon="4.7632">
        <ele>431</ele>
        <time>2021-11-10T17:59:47+01:00</time>
      </trkpt>
      <trkpt lat="47.05281" lon="4.76199">
        <ele>428</ele>
        <time>2021-11-10T17:59:52+01:00</time>
      </trkpt>
      <trkpt lat="47.05247" lon="4.76013">
        <ele>422</ele>
        <time>2021-11-10T17:59:57+01:00</time>
      </trkpt>
      <trkpt lat="47.05192" lon="4.75929">
        <ele>412</ele>
        <time>2021-11-10T18:00:02+01:00</time>
      </trkpt>
      <trkpt lat="47.05019" lon="4.75823">
        <ele>388</ele>
        <time>2021-11-10T18:00:07+01:00</time>
      </trkpt>
      <trkpt lat="47.0505" lon="4.75745">
        <ele>384</ele>
        <time>2021-11-10T18:00:12+01:00</time>
      </trkpt>
      <trkpt lat="47.0494" lon="4.75649">
        <ele>358</ele>
        <time>2021-11-10T18:00:17+01:00</time>
      </trkpt>
      <trkpt lat="47.05036" lon="4.75413">
        <ele>368</ele>
        <time>2021-11-10T18:00:22+01:00</time>
      </trkpt>
      <trkpt lat="47.05032" lon="4.75388">
        <ele>366</ele>
        <time>2021-11-10T18:00:27+01:00</time>
      </trkpt>
      <trkpt lat="47.04985" lon="4.75388">
        <ele>363</ele>
        <time>2021-11-10T18:00:32+01:00</time>
      </trkpt>
      <trkpt lat="47.04965" lon="4.75431">
        <ele>367</ele>
        <time>2021-11-10T18:00:37+01:00</time>
      </trkpt>
      <trkpt lat="47.04922" lon="4.75394">
        <ele>385</ele>
        <time>2021-11-10T18:00:42+01:00</time>
      </trkpt>
      <trkpt lat="47.04888" lon="4.75354">
        <ele>405</ele>
        <time>2021-11-10T18:00:47+01:00</time>
      </trkpt>
      <trkpt lat="47.04879" lon="4.75423">
        <ele>400</ele>
        <time>2021-11-10T18:00:52+01:00</time>
      </trkpt>
      <trkpt lat="47.04783" lon="4.75349">
        <ele>444</ele>
        <time>2021-11-10T18:00:57+01:00</time>
      </trkpt>
      <trkpt lat="47.04548" lon="4.75084">
        <ele>457</ele>
        <time>2021-11-10T18:01:02+01:00</time>
      </trkpt>
      <trkpt lat="47.04598" lon="4.74817">
        <ele>429</ele>
        <time>2021-11-10T18:01:07+01:00</time>
      </trkpt>
      <trkpt lat="47.04416" lon="4.74778">
        <ele>426</ele>
        <time>2021-11-10T18:01:12+01:00</time>
      </trkpt>
      <trkpt lat="47.0425" lon="4.74796">
        <ele>421</ele>
        <time>2021-11-10T18:01:17+01:00</time>
      </trkpt>
      <trkpt lat="47.03983" lon="4.74676">
        <ele>409</ele>
        <time>2021-11-10T18:01:22+01:00</time>
      </trkpt>
      <trkpt lat="47.03609" lon="4.74292">
        <ele>385</ele>
        <time>2021-11-10T18:01:27+01:00</time>
      </trkpt>
      <trkpt lat="47.03529" lon="4.7432">
        <ele>387</ele>
        <time>2021-11-10T18:01:32+01:00</time>
      </trkpt>
      <trkpt lat="47.03566" lon="4.74239">
        <ele>389</ele>
        <time>2021-11-10T18:01:37+01:00</time>
      </trkpt>
      <trkpt lat="47.036" lon="4.73955">
        <ele>405</ele>
        <time>2021-11-10T18:01:42+01:00</time>
      </trkpt>
      <trkpt lat="47.03488" lon="4.73777">
        <ele>408</ele>
        <time>2021-11-10T18:01:47+01:00</time>
      </trkpt>
      <trkpt lat="47.03376" lon="4.73722">
        <ele>404</ele>
        <time>2021-11-10T18:01:52+01:00</time>
      </trkpt>
      <trkpt lat="47.03247" lon="4.73617">
        <ele>402</ele>
        <time>2021-11-10T18:01:57+01:00</time>
      </trkpt>
      <trkpt lat="47.03132" lon="4.73575">
        <ele>397</ele>
        <time>2021-11-10T18:02:02+01:00</time>
      </trkpt>
      <trkpt lat="47.031" lon="4.73437">
        <ele>390</ele>
        <time>2021-11-10T18:02:07+01:00</time>
      </trkpt>
      <trkpt lat="47.02955" lon="4.73236">
        <ele>376</ele>
        <time>2021-11-10T18:02:12+01:00</time>
      </trkpt>
      <trkpt lat="47.02809" lon="4.72951">
        <ele>355</ele>
        <time>2021-11-10T18:02:17+01:00</time>
      </trkpt>
      <trkpt lat="47.02683" lon="4.72708">
        <ele>340</ele>
        <time>2021-11-10T18:02:22+01:00</time>
      </trkpt>
      <trkpt lat="47.02588" lon="4.72551">
        <ele>349</ele>
        <time>2021-11-10T18:02:27+01:00</time>
      </trkpt>
      <trkpt lat="47.02415" lon="4.72472">
        <ele>367</ele>
        <time>2021-11-10T18:02:32+01:00</time>
      </trkpt>
      <trkpt lat="47.02355" lon="4.72417">
        <ele>377</ele>
        <time>2021-11-10T18:02:37+01:00</time>
      </trkpt>
      <trkpt lat="47.02143" lon="4.72276">
        <ele>388</ele>
        <time>2021-11-10T18:02:42+01:00</time>
      </trkpt>
      <trkpt lat="47.01792" lon="4.72033">
        <ele>383</ele>
        <time>2021-11-10T18:02:47+01:00</time>
      </trkpt>
      <trkpt lat="47.0172" lon="4.72365">
        <ele>407</ele>
        <time>2021-11-10T18:02:52+01:00</time>
      </trkpt>
      <trkpt lat="47.01629" lon="4.72441">
        <ele>408</ele>
        <time>2021-11-10T18:02:57+01:00</time>
      </trkpt>
      <trkpt lat="47.01613" lon="4.72535">
        <ele>413</ele>
        <time>2021-11-10T18:03:02+01:00</time>
      </trkpt>
      <trkpt lat="47.01642" lon="4.72663">
        <ele>426</ele>
        <time>2021-11-10T18:03:07+01:00</time>
      </trkpt>
      <trkpt lat="47.01595" lon="4.72768">
        <ele>421</ele>
        <time>2021-11-10T18:03:12+01:00</time>
      </trkpt>
      <trkpt lat="47.01496" lon="4.72817">
        <ele>401</ele>
        <time>2021-11-10T18:03:17+01:00</time>
      </trkpt>
      <trkpt lat="47.01399" lon="4.72953">
        <ele>362</ele>
        <time>2021-11-10T18:03:22+01:00</time>
      </trkpt>
      <trkpt lat="47.01314" lon="4.7282">
        <ele>355</ele>
        <time>2021-11-10T18:03:27+01:00</time>
      </trkpt>
      <trkpt lat="47.01326" lon="4.72647">
        <ele>358</ele>
        <time>2021-11-10T18:03:32+01:00</time>
      </trkpt>
      <trkpt lat="47.01389" lon="4.72527">
        <ele>360</ele>
        <time>2021-11-10T18:03:37+01:00</time>
      </trkpt>
      <trkpt lat="47.01391" lon="4.7243">
        <ele>363</ele>
        <time>2021-11-10T18:03:42+01:00</time>
      </trkpt>
      <trkpt lat="47.01316" lon="4.7243">
        <ele>379</ele>
        <time>2021-11-10T18:03:47+01:00</time>
      </trkpt>
      <trkpt lat="47.01134" lon="4.72206">
        <ele>428</ele>
        <time>2021-11-10T18:03:52+01:00</time>
      </trkpt>
      <trkpt lat="47.01064" lon="4.72038">
        <ele>446</ele>
        <time>2021-11-10T18:03:57+01:00</time>
      </trkpt>
      <trkpt lat="47.00991" lon="4.71976">
        <ele>454</ele>
        <time>2021-11-10T18:04:02+01:00</time>
      </trkpt>
      <trkpt lat="47.00989" lon="4.71871">
        <ele>454</ele>
        <time>2021-11-10T18:04:07+01:00</time>
      </trkpt>
      <trkpt lat="47.00644" lon="4.71573">
        <ele>427</ele>
        <time>2021-11-10T18:04:12+01:00</time>
      </trkpt>
      <trkpt lat="47.00424" lon="4.71497">
        <ele>418</ele>
        <time>2021-11-10T18:04:17+01:00</time>
      </trkpt>
      <trkpt lat="47.00289" lon="4.71414">
        <ele>413</ele>
        <time>2021-11-10T18:04:22+01:00</time>
      </trkpt>
      <trkpt lat="46.99866" lon="4.7092">
        <ele>355</ele>
        <time>2021-11-10T18:04:27+01:00</time>
      </trkpt>
      <trkpt lat="46.99854" lon="4.70714">
        <ele>353</ele>
        <time>2021-11-10T18:04:32+01:00</time>
      </trkpt>
      <trkpt lat="46.99316" lon="4.70439">
        <ele>402</ele>
        <time>2021-11-10T18:04:37+01:00</time>
      </trkpt>
      <trkpt lat="46.98878" lon="4.70149">
        <ele>402</ele>
        <time>2021-11-10T18:04:42+01:00</time>
      </trkpt>
      <trkpt lat="46.99016" lon="4.69898">
        <ele>411</ele>
        <time>2021-11-10T18:04:47+01:00</time>
      </trkpt>
      <trkpt lat="46.99005" lon="4.69819">
        <ele>416</ele>
        <time>2021-11-10T18:04:52+01:00</time>
      </trkpt>
      <trkpt lat="46.99013" lon="4.69724">
        <ele>426</ele>
        <time>2021-11-10T18:04:57+01:00</time>
      </trkpt>
      <trkpt lat="46.9895" lon="4.69576">
        <ele>437</ele>
        <time>2021-11-10T18:05:02+01:00</time>
      </trkpt>
      <trkpt lat="46.98877" lon="4.69207">
        <ele>455</ele>
        <time>2021-11-10T18:05:07+01:00</time>
      </trkpt>
      <trkpt lat="46.98891" lon="4.69138">
        <ele>465</ele>
        <time>2021-11-10T18:05:12+01:00</time>
      </trkpt>
      <trkpt lat="46.98881" lon="4.69057">
        <ele>469</ele>
        <time>2021-11-10T18:05:17+01:00</time>
      </trkpt>
      <trkpt lat="46.98863" lon="4.6901">
        <ele>468</ele>
        <time>2021-11-10T18:05:22+01:00</time>
      </trkpt>
      <trkpt lat="46.9885" lon="4.68898">
        <ele>476</ele>
        <time>2021-11-10T18:05:27+01:00</time>
      </trkpt>
      <trkpt lat="46.98883" lon="4.68908">
        <ele>483</ele>
        <time>2021-11-10T18:05:32+01:00</time>
      </trkpt>
      <trkpt lat="46.98921" lon="4.68877">
        <ele>495</ele>
        <time>2021-11-10T18:05:37+01:00</time>
      </trkpt>
      <trkpt lat="46.98946" lon="4.68892">
        <ele>503</ele>
        <time>2021-11-10T18:05:42+01:00</time>
      </trkpt>
      <trkpt lat="46.98968" lon="4.6897">
        <ele>504</ele>
        <time>2021-11-10T18:05:47+01:00</time>
      </trkpt>
      <trkpt lat="46.99" lon="4.69039">
        <ele>509</ele>
        <time>2021-11-10T18:05:52+01:00</time>
      </trkpt>
    </trkseg>
  </trk>
  <trk>
    <name><![CDATA[30 - ORCHES ALUZE 25.8 KM]]></name>
    <extensions>
      <line xmlns="http://www.topografix.com/GPX/gpx_style/0/2">
        <color>FFFF00</color>
        <width>4</width>
      </line>
    </extensions>
    <trkseg>
      <trkpt lat="46.99306" lon="4.69243">
        <ele>531</ele>
        <time>2021-11-15T11:43:39+01:00</time>
      </trkpt>
      <trkpt lat="46.99223" lon="4.69373">
        <ele>521</ele>
        <time>2021-11-15T11:43:44+01:00</time>
      </trkpt>
      <trkpt lat="46.99212" lon="4.693">
        <ele>529</ele>
        <time>2021-11-15T11:43:49+01:00</time>
      </trkpt>
      <trkpt lat="46.9911" lon="4.69223">
        <ele>526</ele>
        <time>2021-11-15T11:43:54+01:00</time>
      </trkpt>
      <trkpt lat="46.99049" lon="4.69049">
        <ele>524</ele>
        <time>2021-11-15T11:43:59+01:00</time>
      </trkpt>
      <trkpt lat="46.98961" lon="4.68757">
        <ele>518</ele>
        <time>2021-11-15T11:44:04+01:00</time>
      </trkpt>
      <trkpt lat="46.989" lon="4.68599">
        <ele>513</ele>
        <time>2021-11-15T11:44:09+01:00</time>
      </trkpt>
      <trkpt lat="46.98936" lon="4.68436">
        <ele>518</ele>
        <time>2021-11-15T11:44:14+01:00</time>
      </trkpt>
      <trkpt lat="46.99002" lon="4.68278">
        <ele>531</ele>
        <time>2021-11-15T11:44:19+01:00</time>
      </trkpt>
      <trkpt lat="46.98961" lon="4.68108">
        <ele>545</ele>
        <time>2021-11-15T11:44:24+01:00</time>
      </trkpt>
      <trkpt lat="46.98886" lon="4.68209">
        <ele>536</ele>
        <time>2021-11-15T11:44:29+01:00</time>
      </trkpt>
      <trkpt lat="46.98822" lon="4.6838">
        <ele>520</ele>
        <time>2021-11-15T11:44:34+01:00</time>
      </trkpt>
      <trkpt lat="46.988" lon="4.68424">
        <ele>515</ele>
        <time>2021-11-15T11:44:39+01:00</time>
      </trkpt>
      <trkpt lat="46.98681" lon="4.68538">
        <ele>515</ele>
        <time>2021-11-15T11:44:44+01:00</time>
      </trkpt>
      <trkpt lat="46.98538" lon="4.68611">
        <ele>528</ele>
        <time>2021-11-15T11:44:49+01:00</time>
      </trkpt>
      <trkpt lat="46.98421" lon="4.68712">
        <ele>530</ele>
        <time>2021-11-15T11:44:54+01:00</time>
      </trkpt>
      <trkpt lat="46.98325" lon="4.68724">
        <ele>534</ele>
        <time>2021-11-15T11:44:59+01:00</time>
      </trkpt>
      <trkpt lat="46.98247" lon="4.68676">
        <ele>537</ele>
        <time>2021-11-15T11:45:04+01:00</time>
      </trkpt>
      <trkpt lat="46.98192" lon="4.68603">
        <ele>534</ele>
        <time>2021-11-15T11:45:09+01:00</time>
      </trkpt>
      <trkpt lat="46.98344" lon="4.68246">
        <ele>562</ele>
        <time>2021-11-15T11:45:14+01:00</time>
      </trkpt>
      <trkpt lat="46.97896" lon="4.67476">
        <ele>553</ele>
        <time>2021-11-15T11:45:19+01:00</time>
      </trkpt>
      <trkpt lat="46.97921" lon="4.67419">
        <ele>555</ele>
        <time>2021-11-15T11:45:24+01:00</time>
      </trkpt>
      <trkpt lat="46.97888" lon="4.67281">
        <ele>556</ele>
        <time>2021-11-15T11:45:29+01:00</time>
      </trkpt>
      <trkpt lat="46.97777" lon="4.67293">
        <ele>554</ele>
        <time>2021-11-15T11:45:34+01:00</time>
      </trkpt>
      <trkpt lat="46.97758" lon="4.672">
        <ele>554</ele>
        <time>2021-11-15T11:45:39+01:00</time>
      </trkpt>
      <trkpt lat="46.97713" lon="4.67123">
        <ele>551</ele>
        <time>2021-11-15T11:45:44+01:00</time>
      </trkpt>
      <trkpt lat="46.97708" lon="4.66928">
        <ele>548</ele>
        <time>2021-11-15T11:45:49+01:00</time>
      </trkpt>
      <trkpt lat="46.97522" lon="4.67042">
        <ele>538</ele>
        <time>2021-11-15T11:45:54+01:00</time>
      </trkpt>
      <trkpt lat="46.97434" lon="4.67176">
        <ele>538</ele>
        <time>2021-11-15T11:45:59+01:00</time>
      </trkpt>
      <trkpt lat="46.97298" lon="4.6733">
        <ele>540</ele>
        <time>2021-11-15T11:46:04+01:00</time>
      </trkpt>
      <trkpt lat="46.97257" lon="4.67297">
        <ele>541</ele>
        <time>2021-11-15T11:46:09+01:00</time>
      </trkpt>
      <trkpt lat="46.97196" lon="4.6737">
        <ele>540</ele>
        <time>2021-11-15T11:46:14+01:00</time>
      </trkpt>
      <trkpt lat="46.97022" lon="4.67305">
        <ele>540</ele>
        <time>2021-11-15T11:46:19+01:00</time>
      </trkpt>
      <trkpt lat="46.96964" lon="4.67208">
        <ele>546</ele>
        <time>2021-11-15T11:46:24+01:00</time>
      </trkpt>
      <trkpt lat="46.9716" lon="4.66624">
        <ele>534</ele>
        <time>2021-11-15T11:46:29+01:00</time>
      </trkpt>
      <trkpt lat="46.96903" lon="4.66604">
        <ele>541</ele>
        <time>2021-11-15T11:46:34+01:00</time>
      </trkpt>
      <trkpt lat="46.96717" lon="4.66543">
        <ele>543</ele>
        <time>2021-11-15T11:46:39+01:00</time>
      </trkpt>
      <trkpt lat="46.96789" lon="4.66458">
        <ele>545</ele>
        <time>2021-11-15T11:46:44+01:00</time>
      </trkpt>
      <trkpt lat="46.97011" lon="4.65538">
        <ele>510</ele>
        <time>2021-11-15T11:46:49+01:00</time>
      </trkpt>
      <trkpt lat="46.969" lon="4.65538">
        <ele>509</ele>
        <time>2021-11-15T11:46:54+01:00</time>
      </trkpt>
      <trkpt lat="46.96939" lon="4.65461">
        <ele>492</ele>
        <time>2021-11-15T11:46:59+01:00</time>
      </trkpt>
      <trkpt lat="46.96917" lon="4.65379">
        <ele>475</ele>
        <time>2021-11-15T11:47:04+01:00</time>
      </trkpt>
      <trkpt lat="46.96582" lon="4.65327">
        <ele>502</ele>
        <time>2021-11-15T11:47:09+01:00</time>
      </trkpt>
      <trkpt lat="46.96493" lon="4.65148">
        <ele>463</ele>
        <time>2021-11-15T11:47:14+01:00</time>
      </trkpt>
      <trkpt lat="46.96388" lon="4.64755">
        <ele>397</ele>
        <time>2021-11-15T11:47:19+01:00</time>
      </trkpt>
      <trkpt lat="46.96319" lon="4.64674">
        <ele>386</ele>
        <time>2021-11-15T11:47:24+01:00</time>
      </trkpt>
      <trkpt lat="46.963" lon="4.64561">
        <ele>372</ele>
        <time>2021-11-15T11:47:29+01:00</time>
      </trkpt>
      <trkpt lat="46.9625" lon="4.64467">
        <ele>360</ele>
        <time>2021-11-15T11:47:34+01:00</time>
      </trkpt>
      <trkpt lat="46.96211" lon="4.64245">
        <ele>346</ele>
        <time>2021-11-15T11:47:39+01:00</time>
      </trkpt>
      <trkpt lat="46.96156" lon="4.6427">
        <ele>344</ele>
        <time>2021-11-15T11:47:44+01:00</time>
      </trkpt>
      <trkpt lat="46.96015" lon="4.64213">
        <ele>342</ele>
        <time>2021-11-15T11:47:49+01:00</time>
      </trkpt>
      <trkpt lat="46.95984" lon="4.64274">
        <ele>344</ele>
        <time>2021-11-15T11:47:54+01:00</time>
      </trkpt>
      <trkpt lat="46.95852" lon="4.64201">
        <ele>340</ele>
        <time>2021-11-15T11:47:59+01:00</time>
      </trkpt>
      <trkpt lat="46.95724" lon="4.64039">
        <ele>339</ele>
        <time>2021-11-15T11:48:04+01:00</time>
      </trkpt>
      <trkpt lat="46.95489" lon="4.63848">
        <ele>330</ele>
        <time>2021-11-15T11:48:09+01:00</time>
      </trkpt>
      <trkpt lat="46.95478" lon="4.63812">
        <ele>330</ele>
        <time>2021-11-15T11:48:14+01:00</time>
      </trkpt>
      <trkpt lat="46.95384" lon="4.63735">
        <ele>329</ele>
        <time>2021-11-15T11:48:19+01:00</time>
      </trkpt>
      <trkpt lat="46.95334" lon="4.63641">
        <ele>330</ele>
        <time>2021-11-15T11:48:24+01:00</time>
      </trkpt>
      <trkpt lat="46.95351" lon="4.63572">
        <ele>330</ele>
        <time>2021-11-15T11:48:29+01:00</time>
      </trkpt>
      <trkpt lat="46.9524" lon="4.63431">
        <ele>329</ele>
        <time>2021-11-15T11:48:34+01:00</time>
      </trkpt>
      <trkpt lat="46.95176" lon="4.63451">
        <ele>328</ele>
        <time>2021-11-15T11:48:39+01:00</time>
      </trkpt>
      <trkpt lat="46.94645" lon="4.64416">
        <ele>365</ele>
        <time>2021-11-15T11:48:44+01:00</time>
      </trkpt>
      <trkpt lat="46.94291" lon="4.64817">
        <ele>374</ele>
        <time>2021-11-15T11:48:49+01:00</time>
      </trkpt>
      <trkpt lat="46.94186" lon="4.64878">
        <ele>368</ele>
        <time>2021-11-15T11:48:54+01:00</time>
      </trkpt>
      <trkpt lat="46.94105" lon="4.65012">
        <ele>367</ele>
        <time>2021-11-15T11:48:59+01:00</time>
      </trkpt>
      <trkpt lat="46.93945" lon="4.65178">
        <ele>375</ele>
        <time>2021-11-15T11:49:04+01:00</time>
      </trkpt>
      <trkpt lat="46.9387" lon="4.65239">
        <ele>376</ele>
        <time>2021-11-15T11:49:09+01:00</time>
      </trkpt>
      <trkpt lat="46.93676" lon="4.65693">
        <ele>398</ele>
        <time>2021-11-15T11:49:14+01:00</time>
      </trkpt>
      <trkpt lat="46.93444" lon="4.66009">
        <ele>433</ele>
        <time>2021-11-15T11:49:19+01:00</time>
      </trkpt>
      <trkpt lat="46.93291" lon="4.66098">
        <ele>449</ele>
        <time>2021-11-15T11:49:24+01:00</time>
      </trkpt>
      <trkpt lat="46.93211" lon="4.66196">
        <ele>457</ele>
        <time>2021-11-15T11:49:29+01:00</time>
      </trkpt>
      <trkpt lat="46.93051" lon="4.66402">
        <ele>452</ele>
        <time>2021-11-15T11:49:34+01:00</time>
      </trkpt>
      <trkpt lat="46.9297" lon="4.66447">
        <ele>453</ele>
        <time>2021-11-15T11:49:39+01:00</time>
      </trkpt>
      <trkpt lat="46.92931" lon="4.66532">
        <ele>453</ele>
        <time>2021-11-15T11:49:44+01:00</time>
      </trkpt>
      <trkpt lat="46.92751" lon="4.66621">
        <ele>450</ele>
        <time>2021-11-15T11:49:49+01:00</time>
      </trkpt>
      <trkpt lat="46.9256" lon="4.66508">
        <ele>443</ele>
        <time>2021-11-15T11:49:54+01:00</time>
      </trkpt>
      <trkpt lat="46.92494" lon="4.66504">
        <ele>445</ele>
        <time>2021-11-15T11:49:59+01:00</time>
      </trkpt>
      <trkpt lat="46.92433" lon="4.66715">
        <ele>460</ele>
        <time>2021-11-15T11:50:04+01:00</time>
      </trkpt>
      <trkpt lat="46.92444" lon="4.66885">
        <ele>463</ele>
        <time>2021-11-15T11:50:09+01:00</time>
      </trkpt>
      <trkpt lat="46.92505" lon="4.6712">
        <ele>457</ele>
        <time>2021-11-15T11:50:14+01:00</time>
      </trkpt>
      <trkpt lat="46.92475" lon="4.6729">
        <ele>456</ele>
        <time>2021-11-15T11:50:19+01:00</time>
      </trkpt>
      <trkpt lat="46.92397" lon="4.67375">
        <ele>458</ele>
        <time>2021-11-15T11:50:24+01:00</time>
      </trkpt>
      <trkpt lat="46.92386" lon="4.67448">
        <ele>459</ele>
        <time>2021-11-15T11:50:29+01:00</time>
      </trkpt>
      <trkpt lat="46.92328" lon="4.67554">
        <ele>459</ele>
        <time>2021-11-15T11:50:34+01:00</time>
      </trkpt>
      <trkpt lat="46.9227" lon="4.67688">
        <ele>435</ele>
        <time>2021-11-15T11:50:39+01:00</time>
      </trkpt>
      <trkpt lat="46.92267" lon="4.67927">
        <ele>432</ele>
        <time>2021-11-15T11:50:44+01:00</time>
      </trkpt>
      <trkpt lat="46.92148" lon="4.68">
        <ele>399</ele>
        <time>2021-11-15T11:50:49+01:00</time>
      </trkpt>
      <trkpt lat="46.92048" lon="4.68109">
        <ele>381</ele>
        <time>2021-11-15T11:50:54+01:00</time>
      </trkpt>
      <trkpt lat="46.91907" lon="4.68215">
        <ele>359</ele>
        <time>2021-11-15T11:50:59+01:00</time>
      </trkpt>
      <trkpt lat="46.91774" lon="4.68438">
        <ele>339</ele>
        <time>2021-11-15T11:51:04+01:00</time>
      </trkpt>
      <trkpt lat="46.91719" lon="4.68454">
        <ele>327</ele>
        <time>2021-11-15T11:51:09+01:00</time>
      </trkpt>
      <trkpt lat="46.91688" lon="4.68409">
        <ele>319</ele>
        <time>2021-11-15T11:51:14+01:00</time>
      </trkpt>
      <trkpt lat="46.91666" lon="4.68462">
        <ele>316</ele>
        <time>2021-11-15T11:51:19+01:00</time>
      </trkpt>
      <trkpt lat="46.91638" lon="4.68389">
        <ele>308</ele>
        <time>2021-11-15T11:51:24+01:00</time>
      </trkpt>
      <trkpt lat="46.91594" lon="4.68417">
        <ele>301</ele>
        <time>2021-11-15T11:51:29+01:00</time>
      </trkpt>
      <trkpt lat="46.91475" lon="4.68356">
        <ele>281</ele>
        <time>2021-11-15T11:51:34+01:00</time>
      </trkpt>
      <trkpt lat="46.91428" lon="4.68328">
        <ele>275</ele>
        <time>2021-11-15T11:51:39+01:00</time>
      </trkpt>
      <trkpt lat="46.91245" lon="4.68434">
        <ele>262</ele>
        <time>2021-11-15T11:51:44+01:00</time>
      </trkpt>
      <trkpt lat="46.91035" lon="4.68628">
        <ele>245</ele>
        <time>2021-11-15T11:51:49+01:00</time>
      </trkpt>
      <trkpt lat="46.90893" lon="4.68847">
        <ele>231</ele>
        <time>2021-11-15T11:51:54+01:00</time>
      </trkpt>
      <trkpt lat="46.90766" lon="4.68993">
        <ele>226</ele>
        <time>2021-11-15T11:51:59+01:00</time>
      </trkpt>
      <trkpt lat="46.90713" lon="4.69277">
        <ele>216</ele>
        <time>2021-11-15T11:52:04+01:00</time>
      </trkpt>
      <trkpt lat="46.90783" lon="4.69463">
        <ele>215</ele>
        <time>2021-11-15T11:52:09+01:00</time>
      </trkpt>
      <trkpt lat="46.90666" lon="4.69532">
        <ele>213</ele>
        <time>2021-11-15T11:52:14+01:00</time>
      </trkpt>
      <trkpt lat="46.90511" lon="4.69581">
        <ele>214</ele>
        <time>2021-11-15T11:52:19+01:00</time>
      </trkpt>
      <trkpt lat="46.90436" lon="4.69484">
        <ele>217</ele>
        <time>2021-11-15T11:52:24+01:00</time>
      </trkpt>
      <trkpt lat="46.90312" lon="4.69419">
        <ele>222</ele>
        <time>2021-11-15T11:52:29+01:00</time>
      </trkpt>
      <trkpt lat="46.90187" lon="4.6919">
        <ele>221</ele>
        <time>2021-11-15T11:52:34+01:00</time>
      </trkpt>
      <trkpt lat="46.90136" lon="4.6924">
        <ele>226</ele>
        <time>2021-11-15T11:52:39+01:00</time>
      </trkpt>
      <trkpt lat="46.8989" lon="4.69015">
        <ele>230</ele>
        <time>2021-11-15T11:52:44+01:00</time>
      </trkpt>
      <trkpt lat="46.89699" lon="4.695">
        <ele>284</ele>
        <time>2021-11-15T11:52:49+01:00</time>
      </trkpt>
      <trkpt lat="46.89449" lon="4.6965">
        <ele>343</ele>
        <time>2021-11-15T11:52:54+01:00</time>
      </trkpt>
      <trkpt lat="46.89212" lon="4.69564">
        <ele>368</ele>
        <time>2021-11-15T11:52:59+01:00</time>
      </trkpt>
      <trkpt lat="46.89095" lon="4.69368">
        <ele>367</ele>
        <time>2021-11-15T11:53:04+01:00</time>
      </trkpt>
      <trkpt lat="46.88803" lon="4.69419">
        <ele>396</ele>
        <time>2021-11-15T11:53:09+01:00</time>
      </trkpt>
      <trkpt lat="46.88692" lon="4.69225">
        <ele>403</ele>
        <time>2021-11-15T11:53:14+01:00</time>
      </trkpt>
      <trkpt lat="46.887" lon="4.69115">
        <ele>391</ele>
        <time>2021-11-15T11:53:19+01:00</time>
      </trkpt>
      <trkpt lat="46.8854" lon="4.69053">
        <ele>409</ele>
        <time>2021-11-15T11:53:24+01:00</time>
      </trkpt>
      <trkpt lat="46.88384" lon="4.68898">
        <ele>421</ele>
        <time>2021-11-15T11:53:29+01:00</time>
      </trkpt>
      <trkpt lat="46.88177" lon="4.68668">
        <ele>422</ele>
        <time>2021-11-15T11:53:34+01:00</time>
      </trkpt>
      <trkpt lat="46.88023" lon="4.68583">
        <ele>425</ele>
        <time>2021-11-15T11:53:39+01:00</time>
      </trkpt>
      <trkpt lat="46.8805" lon="4.68748">
        <ele>414</ele>
        <time>2021-11-15T11:53:44+01:00</time>
      </trkpt>
      <trkpt lat="46.87953" lon="4.68655">
        <ele>411</ele>
        <time>2021-11-15T11:53:49+01:00</time>
      </trkpt>
      <trkpt lat="46.87895" lon="4.68507">
        <ele>424</ele>
        <time>2021-11-15T11:53:54+01:00</time>
      </trkpt>
      <trkpt lat="46.87744" lon="4.68417">
        <ele>420</ele>
        <time>2021-11-15T11:53:59+01:00</time>
      </trkpt>
      <trkpt lat="46.87542" lon="4.68364">
        <ele>404</ele>
        <time>2021-11-15T11:54:04+01:00</time>
      </trkpt>
      <trkpt lat="46.87377" lon="4.68399">
        <ele>373</ele>
        <time>2021-11-15T11:54:09+01:00</time>
      </trkpt>
      <trkpt lat="46.87198" lon="4.68391">
        <ele>353</ele>
        <time>2021-11-15T11:54:14+01:00</time>
      </trkpt>
      <trkpt lat="46.87013" lon="4.68467">
        <ele>327</ele>
        <time>2021-11-15T11:54:19+01:00</time>
      </trkpt>
      <trkpt lat="46.86815" lon="4.68475">
        <ele>323</ele>
        <time>2021-11-15T11:54:24+01:00</time>
      </trkpt>
      <trkpt lat="46.86711" lon="4.68427">
        <ele>325</ele>
        <time>2021-11-15T11:54:29+01:00</time>
      </trkpt>
      <trkpt lat="46.86658" lon="4.68776">
        <ele>326</ele>
        <time>2021-11-15T11:54:34+01:00</time>
      </trkpt>
      <trkpt lat="46.86476" lon="4.68812">
        <ele>347</ele>
        <time>2021-11-15T11:54:39+01:00</time>
      </trkpt>
      <trkpt lat="46.86326" lon="4.68881">
        <ele>362</ele>
        <time>2021-11-15T11:54:44+01:00</time>
      </trkpt>
      <trkpt lat="46.86183" lon="4.69086">
        <ele>372</ele>
        <time>2021-11-15T11:54:49+01:00</time>
      </trkpt>
      <trkpt lat="46.86095" lon="4.69263">
        <ele>379</ele>
        <time>2021-11-15T11:54:54+01:00</time>
      </trkpt>
      <trkpt lat="46.85997" lon="4.69346">
        <ele>384</ele>
        <time>2021-11-15T11:54:59+01:00</time>
      </trkpt>
      <trkpt lat="46.85625" lon="4.69107">
        <ele>397</ele>
        <time>2021-11-15T11:55:04+01:00</time>
      </trkpt>
      <trkpt lat="46.8537" lon="4.69005">
        <ele>399</ele>
        <time>2021-11-15T11:55:09+01:00</time>
      </trkpt>
      <trkpt lat="46.85113" lon="4.68867">
        <ele>390</ele>
        <time>2021-11-15T11:55:14+01:00</time>
      </trkpt>
      <trkpt lat="46.85111" lon="4.68678">
        <ele>385</ele>
        <time>2021-11-15T11:55:19+01:00</time>
      </trkpt>
      <trkpt lat="46.85071" lon="4.6867">
        <ele>385</ele>
        <time>2021-11-15T11:55:24+01:00</time>
      </trkpt>
      <trkpt lat="46.84993" lon="4.68688">
        <ele>384</ele>
        <time>2021-11-15T11:55:29+01:00</time>
      </trkpt>
      <trkpt lat="46.84924" lon="4.68682">
        <ele>384</ele>
        <time>2021-11-15T11:55:34+01:00</time>
      </trkpt>
      <trkpt lat="46.84883" lon="4.68637">
        <ele>382</ele>
        <time>2021-11-15T11:55:39+01:00</time>
      </trkpt>
      <trkpt lat="46.84824" lon="4.68613">
        <ele>383</ele>
        <time>2021-11-15T11:55:44+01:00</time>
      </trkpt>
      <trkpt lat="46.84818" lon="4.68643">
        <ele>383</ele>
        <time>2021-11-15T11:55:49+01:00</time>
      </trkpt>
      <trkpt lat="46.84789" lon="4.68656">
        <ele>382</ele>
        <time>2021-11-15T11:55:54+01:00</time>
      </trkpt>
    </trkseg>
  </trk>
  <trk>
    <name><![CDATA[31 - ALUZE SASSANGY 21.7 KM]]></name>
    <extensions>
      <line xmlns="http://www.topografix.com/GPX/gpx_style/0/2">
        <color>FF00FF</color>
        <width>4</width>
      </line>
    </extensions>
    <trkseg>
      <trkpt lat="46.8479" lon="4.68656">
        <ele>382</ele>
        <time>2021-11-15T12:15:54+01:00</time>
      </trkpt>
      <trkpt lat="46.84774" lon="4.68653">
        <ele>382</ele>
        <time>2021-11-15T12:15:59+01:00</time>
      </trkpt>
      <trkpt lat="46.84757" lon="4.6869">
        <ele>380</ele>
        <time>2021-11-15T12:16:04+01:00</time>
      </trkpt>
      <trkpt lat="46.84756" lon="4.6878">
        <ele>372</ele>
        <time>2021-11-15T12:16:09+01:00</time>
      </trkpt>
      <trkpt lat="46.84684" lon="4.68771">
        <ele>367</ele>
        <time>2021-11-15T12:16:14+01:00</time>
      </trkpt>
      <trkpt lat="46.84647" lon="4.68819">
        <ele>359</ele>
        <time>2021-11-15T12:16:19+01:00</time>
      </trkpt>
      <trkpt lat="46.84596" lon="4.68933">
        <ele>341</ele>
        <time>2021-11-15T12:16:24+01:00</time>
      </trkpt>
      <trkpt lat="46.84625" lon="4.6906">
        <ele>327</ele>
        <time>2021-11-15T12:16:29+01:00</time>
      </trkpt>
      <trkpt lat="46.84581" lon="4.691">
        <ele>325</ele>
        <time>2021-11-15T12:16:34+01:00</time>
      </trkpt>
      <trkpt lat="46.84542" lon="4.69123">
        <ele>319</ele>
        <time>2021-11-15T12:16:39+01:00</time>
      </trkpt>
      <trkpt lat="46.84481" lon="4.69105">
        <ele>314</ele>
        <time>2021-11-15T12:16:44+01:00</time>
      </trkpt>
      <trkpt lat="46.84399" lon="4.69121">
        <ele>303</ele>
        <time>2021-11-15T12:16:49+01:00</time>
      </trkpt>
      <trkpt lat="46.84337" lon="4.69171">
        <ele>295</ele>
        <time>2021-11-15T12:16:54+01:00</time>
      </trkpt>
      <trkpt lat="46.84317" lon="4.69217">
        <ele>291</ele>
        <time>2021-11-15T12:16:59+01:00</time>
      </trkpt>
      <trkpt lat="46.84304" lon="4.69266">
        <ele>289</ele>
        <time>2021-11-15T12:17:04+01:00</time>
      </trkpt>
      <trkpt lat="46.8427" lon="4.69277">
        <ele>289</ele>
        <time>2021-11-15T12:17:09+01:00</time>
      </trkpt>
      <trkpt lat="46.84137" lon="4.69242">
        <ele>299</ele>
        <time>2021-11-15T12:17:14+01:00</time>
      </trkpt>
      <trkpt lat="46.84036" lon="4.69265">
        <ele>310</ele>
        <time>2021-11-15T12:17:19+01:00</time>
      </trkpt>
      <trkpt lat="46.83951" lon="4.69284">
        <ele>319</ele>
        <time>2021-11-15T12:17:24+01:00</time>
      </trkpt>
      <trkpt lat="46.83882" lon="4.69347">
        <ele>324</ele>
        <time>2021-11-15T12:17:29+01:00</time>
      </trkpt>
      <trkpt lat="46.83745" lon="4.69512">
        <ele>315</ele>
        <time>2021-11-15T12:17:34+01:00</time>
      </trkpt>
      <trkpt lat="46.8371" lon="4.69583">
        <ele>308</ele>
        <time>2021-11-15T12:17:39+01:00</time>
      </trkpt>
      <trkpt lat="46.83697" lon="4.69637">
        <ele>303</ele>
        <time>2021-11-15T12:17:44+01:00</time>
      </trkpt>
      <trkpt lat="46.83646" lon="4.69692">
        <ele>290</ele>
        <time>2021-11-15T12:17:49+01:00</time>
      </trkpt>
      <trkpt lat="46.83609" lon="4.69756">
        <ele>282</ele>
        <time>2021-11-15T12:17:54+01:00</time>
      </trkpt>
      <trkpt lat="46.83456" lon="4.69837">
        <ele>277</ele>
        <time>2021-11-15T12:17:59+01:00</time>
      </trkpt>
      <trkpt lat="46.83484" lon="4.69944">
        <ele>275</ele>
        <time>2021-11-15T12:18:04+01:00</time>
      </trkpt>
      <trkpt lat="46.83466" lon="4.69929">
        <ele>278</ele>
        <time>2021-11-15T12:18:09+01:00</time>
      </trkpt>
      <trkpt lat="46.83421" lon="4.6981">
        <ele>280</ele>
        <time>2021-11-15T12:18:14+01:00</time>
      </trkpt>
      <trkpt lat="46.83315" lon="4.6967">
        <ele>280</ele>
        <time>2021-11-15T12:18:19+01:00</time>
      </trkpt>
      <trkpt lat="46.83283" lon="4.69752">
        <ele>289</ele>
        <time>2021-11-15T12:18:24+01:00</time>
      </trkpt>
      <trkpt lat="46.83251" lon="4.69899">
        <ele>297</ele>
        <time>2021-11-15T12:18:29+01:00</time>
      </trkpt>
      <trkpt lat="46.83055" lon="4.70377">
        <ele>322</ele>
        <time>2021-11-15T12:18:34+01:00</time>
      </trkpt>
      <trkpt lat="46.8298" lon="4.70536">
        <ele>329</ele>
        <time>2021-11-15T12:18:39+01:00</time>
      </trkpt>
      <trkpt lat="46.82948" lon="4.70649">
        <ele>327</ele>
        <time>2021-11-15T12:18:44+01:00</time>
      </trkpt>
      <trkpt lat="46.82789" lon="4.70664">
        <ele>331</ele>
        <time>2021-11-15T12:18:49+01:00</time>
      </trkpt>
      <trkpt lat="46.82736" lon="4.70724">
        <ele>331</ele>
        <time>2021-11-15T12:18:54+01:00</time>
      </trkpt>
      <trkpt lat="46.8266" lon="4.70862">
        <ele>328</ele>
        <time>2021-11-15T12:18:59+01:00</time>
      </trkpt>
      <trkpt lat="46.82561" lon="4.70932">
        <ele>320</ele>
        <time>2021-11-15T12:19:04+01:00</time>
      </trkpt>
      <trkpt lat="46.82461" lon="4.71047">
        <ele>315</ele>
        <time>2021-11-15T12:19:09+01:00</time>
      </trkpt>
      <trkpt lat="46.82405" lon="4.7117">
        <ele>321</ele>
        <time>2021-11-15T12:19:14+01:00</time>
      </trkpt>
      <trkpt lat="46.82383" lon="4.71291">
        <ele>307</ele>
        <time>2021-11-15T12:19:19+01:00</time>
      </trkpt>
      <trkpt lat="46.82198" lon="4.7123">
        <ele>294</ele>
        <time>2021-11-15T12:19:24+01:00</time>
      </trkpt>
      <trkpt lat="46.82005" lon="4.71181">
        <ele>288</ele>
        <time>2021-11-15T12:19:29+01:00</time>
      </trkpt>
      <trkpt lat="46.81896" lon="4.71093">
        <ele>289</ele>
        <time>2021-11-15T12:19:34+01:00</time>
      </trkpt>
      <trkpt lat="46.81717" lon="4.71017">
        <ele>275</ele>
        <time>2021-11-15T12:19:39+01:00</time>
      </trkpt>
      <trkpt lat="46.81614" lon="4.71045">
        <ele>262</ele>
        <time>2021-11-15T12:19:44+01:00</time>
      </trkpt>
      <trkpt lat="46.81585" lon="4.71088">
        <ele>257</ele>
        <time>2021-11-15T12:19:49+01:00</time>
      </trkpt>
      <trkpt lat="46.81554" lon="4.71176">
        <ele>253</ele>
        <time>2021-11-15T12:19:54+01:00</time>
      </trkpt>
      <trkpt lat="46.81581" lon="4.71243">
        <ele>251</ele>
        <time>2021-11-15T12:19:59+01:00</time>
      </trkpt>
      <trkpt lat="46.81552" lon="4.71311">
        <ele>247</ele>
        <time>2021-11-15T12:20:04+01:00</time>
      </trkpt>
      <trkpt lat="46.81527" lon="4.71398">
        <ele>242</ele>
        <time>2021-11-15T12:20:09+01:00</time>
      </trkpt>
      <trkpt lat="46.81548" lon="4.71408">
        <ele>243</ele>
        <time>2021-11-15T12:20:14+01:00</time>
      </trkpt>
      <trkpt lat="46.81501" lon="4.71483">
        <ele>239</ele>
        <time>2021-11-15T12:20:19+01:00</time>
      </trkpt>
      <trkpt lat="46.81452" lon="4.71581">
        <ele>234</ele>
        <time>2021-11-15T12:20:24+01:00</time>
      </trkpt>
      <trkpt lat="46.81315" lon="4.71727">
        <ele>230</ele>
        <time>2021-11-15T12:20:29+01:00</time>
      </trkpt>
      <trkpt lat="46.81193" lon="4.71834">
        <ele>221</ele>
        <time>2021-11-15T12:20:34+01:00</time>
      </trkpt>
      <trkpt lat="46.81193" lon="4.71905">
        <ele>218</ele>
        <time>2021-11-15T12:20:39+01:00</time>
      </trkpt>
      <trkpt lat="46.81094" lon="4.71982">
        <ele>218</ele>
        <time>2021-11-15T12:20:44+01:00</time>
      </trkpt>
      <trkpt lat="46.81098" lon="4.72067">
        <ele>220</ele>
        <time>2021-11-15T12:20:49+01:00</time>
      </trkpt>
      <trkpt lat="46.81044" lon="4.7201">
        <ele>224</ele>
        <time>2021-11-15T12:20:54+01:00</time>
      </trkpt>
      <trkpt lat="46.80978" lon="4.72009">
        <ele>232</ele>
        <time>2021-11-15T12:20:59+01:00</time>
      </trkpt>
      <trkpt lat="46.80848" lon="4.71927">
        <ele>240</ele>
        <time>2021-11-15T12:21:04+01:00</time>
      </trkpt>
      <trkpt lat="46.80524" lon="4.71776">
        <ele>269</ele>
        <time>2021-11-15T12:21:09+01:00</time>
      </trkpt>
      <trkpt lat="46.80472" lon="4.71751">
        <ele>276</ele>
        <time>2021-11-15T12:21:14+01:00</time>
      </trkpt>
      <trkpt lat="46.80371" lon="4.71668">
        <ele>286</ele>
        <time>2021-11-15T12:21:19+01:00</time>
      </trkpt>
      <trkpt lat="46.80136" lon="4.71642">
        <ele>308</ele>
        <time>2021-11-15T12:21:24+01:00</time>
      </trkpt>
      <trkpt lat="46.79861" lon="4.71565">
        <ele>343</ele>
        <time>2021-11-15T12:21:29+01:00</time>
      </trkpt>
      <trkpt lat="46.79777" lon="4.71565">
        <ele>352</ele>
        <time>2021-11-15T12:21:34+01:00</time>
      </trkpt>
      <trkpt lat="46.79675" lon="4.71541">
        <ele>353</ele>
        <time>2021-11-15T12:21:39+01:00</time>
      </trkpt>
      <trkpt lat="46.79695" lon="4.71367">
        <ele>361</ele>
        <time>2021-11-15T12:21:44+01:00</time>
      </trkpt>
      <trkpt lat="46.79627" lon="4.71319">
        <ele>366</ele>
        <time>2021-11-15T12:21:49+01:00</time>
      </trkpt>
      <trkpt lat="46.79574" lon="4.71245">
        <ele>372</ele>
        <time>2021-11-15T12:21:54+01:00</time>
      </trkpt>
      <trkpt lat="46.79534" lon="4.71149">
        <ele>377</ele>
        <time>2021-11-15T12:21:59+01:00</time>
      </trkpt>
      <trkpt lat="46.79513" lon="4.71054">
        <ele>380</ele>
        <time>2021-11-15T12:22:04+01:00</time>
      </trkpt>
      <trkpt lat="46.79547" lon="4.70971">
        <ele>379</ele>
        <time>2021-11-15T12:22:09+01:00</time>
      </trkpt>
      <trkpt lat="46.79586" lon="4.70918">
        <ele>378</ele>
        <time>2021-11-15T12:22:14+01:00</time>
      </trkpt>
      <trkpt lat="46.79523" lon="4.70857">
        <ele>379</ele>
        <time>2021-11-15T12:22:19+01:00</time>
      </trkpt>
      <trkpt lat="46.79317" lon="4.70779">
        <ele>396</ele>
        <time>2021-11-15T12:22:24+01:00</time>
      </trkpt>
      <trkpt lat="46.79132" lon="4.70659">
        <ele>408</ele>
        <time>2021-11-15T12:22:29+01:00</time>
      </trkpt>
      <trkpt lat="46.79037" lon="4.70635">
        <ele>413</ele>
        <time>2021-11-15T12:22:34+01:00</time>
      </trkpt>
      <trkpt lat="46.7896" lon="4.70605">
        <ele>417</ele>
        <time>2021-11-15T12:22:39+01:00</time>
      </trkpt>
      <trkpt lat="46.78869" lon="4.7064">
        <ele>423</ele>
        <time>2021-11-15T12:22:44+01:00</time>
      </trkpt>
      <trkpt lat="46.78765" lon="4.70727">
        <ele>429</ele>
        <time>2021-11-15T12:22:49+01:00</time>
      </trkpt>
      <trkpt lat="46.78685" lon="4.70833">
        <ele>434</ele>
        <time>2021-11-15T12:22:54+01:00</time>
      </trkpt>
      <trkpt lat="46.78645" lon="4.70868">
        <ele>434</ele>
        <time>2021-11-15T12:22:59+01:00</time>
      </trkpt>
      <trkpt lat="46.78564" lon="4.70886">
        <ele>432</ele>
        <time>2021-11-15T12:23:04+01:00</time>
      </trkpt>
      <trkpt lat="46.78431" lon="4.70903">
        <ele>422</ele>
        <time>2021-11-15T12:23:09+01:00</time>
      </trkpt>
      <trkpt lat="46.78378" lon="4.70842">
        <ele>413</ele>
        <time>2021-11-15T12:23:14+01:00</time>
      </trkpt>
      <trkpt lat="46.78318" lon="4.70735">
        <ele>406</ele>
        <time>2021-11-15T12:23:19+01:00</time>
      </trkpt>
      <trkpt lat="46.78266" lon="4.70685">
        <ele>401</ele>
        <time>2021-11-15T12:23:24+01:00</time>
      </trkpt>
      <trkpt lat="46.78223" lon="4.70666">
        <ele>395</ele>
        <time>2021-11-15T12:23:29+01:00</time>
      </trkpt>
      <trkpt lat="46.78184" lon="4.70631">
        <ele>392</ele>
        <time>2021-11-15T12:23:34+01:00</time>
      </trkpt>
      <trkpt lat="46.7813" lon="4.70631">
        <ele>383</ele>
        <time>2021-11-15T12:23:39+01:00</time>
      </trkpt>
      <trkpt lat="46.78052" lon="4.70642">
        <ele>372</ele>
        <time>2021-11-15T12:23:44+01:00</time>
      </trkpt>
      <trkpt lat="46.7792" lon="4.70559">
        <ele>376</ele>
        <time>2021-11-15T12:23:49+01:00</time>
      </trkpt>
      <trkpt lat="46.77858" lon="4.7057">
        <ele>373</ele>
        <time>2021-11-15T12:23:54+01:00</time>
      </trkpt>
      <trkpt lat="46.77774" lon="4.70572">
        <ele>368</ele>
        <time>2021-11-15T12:23:59+01:00</time>
      </trkpt>
      <trkpt lat="46.77753" lon="4.70594">
        <ele>366</ele>
        <time>2021-11-15T12:24:04+01:00</time>
      </trkpt>
      <trkpt lat="46.77703" lon="4.70602">
        <ele>365</ele>
        <time>2021-11-15T12:24:09+01:00</time>
      </trkpt>
      <trkpt lat="46.77583" lon="4.70694">
        <ele>362</ele>
        <time>2021-11-15T12:24:14+01:00</time>
      </trkpt>
      <trkpt lat="46.7749" lon="4.70722">
        <ele>348</ele>
        <time>2021-11-15T12:24:19+01:00</time>
      </trkpt>
      <trkpt lat="46.77408" lon="4.70751">
        <ele>329</ele>
        <time>2021-11-15T12:24:24+01:00</time>
      </trkpt>
      <trkpt lat="46.77342" lon="4.70718">
        <ele>314</ele>
        <time>2021-11-15T12:24:29+01:00</time>
      </trkpt>
      <trkpt lat="46.77327" lon="4.70579">
        <ele>305</ele>
        <time>2021-11-15T12:24:34+01:00</time>
      </trkpt>
      <trkpt lat="46.77298" lon="4.70542">
        <ele>297</ele>
        <time>2021-11-15T12:24:39+01:00</time>
      </trkpt>
      <trkpt lat="46.77306" lon="4.70431">
        <ele>294</ele>
        <time>2021-11-15T12:24:44+01:00</time>
      </trkpt>
      <trkpt lat="46.77245" lon="4.70271">
        <ele>282</ele>
        <time>2021-11-15T12:24:49+01:00</time>
      </trkpt>
      <trkpt lat="46.7723" lon="4.70176">
        <ele>279</ele>
        <time>2021-11-15T12:24:54+01:00</time>
      </trkpt>
      <trkpt lat="46.77247" lon="4.69751">
        <ele>271</ele>
        <time>2021-11-15T12:24:59+01:00</time>
      </trkpt>
      <trkpt lat="46.77194" lon="4.69703">
        <ele>268</ele>
        <time>2021-11-15T12:25:04+01:00</time>
      </trkpt>
      <trkpt lat="46.7722" lon="4.69459">
        <ele>274</ele>
        <time>2021-11-15T12:25:09+01:00</time>
      </trkpt>
      <trkpt lat="46.77202" lon="4.69396">
        <ele>276</ele>
        <time>2021-11-15T12:25:14+01:00</time>
      </trkpt>
      <trkpt lat="46.77102" lon="4.69376">
        <ele>284</ele>
        <time>2021-11-15T12:25:19+01:00</time>
      </trkpt>
      <trkpt lat="46.77071" lon="4.69461">
        <ele>282</ele>
        <time>2021-11-15T12:25:24+01:00</time>
      </trkpt>
      <trkpt lat="46.76923" lon="4.69422">
        <ele>296</ele>
        <time>2021-11-15T12:25:29+01:00</time>
      </trkpt>
      <trkpt lat="46.76825" lon="4.69424">
        <ele>312</ele>
        <time>2021-11-15T12:25:34+01:00</time>
      </trkpt>
      <trkpt lat="46.76793" lon="4.69391">
        <ele>320</ele>
        <time>2021-11-15T12:25:39+01:00</time>
      </trkpt>
      <trkpt lat="46.76713" lon="4.69443">
        <ele>343</ele>
        <time>2021-11-15T12:25:44+01:00</time>
      </trkpt>
      <trkpt lat="46.76685" lon="4.69504">
        <ele>351</ele>
        <time>2021-11-15T12:25:49+01:00</time>
      </trkpt>
      <trkpt lat="46.7668" lon="4.6969">
        <ele>355</ele>
        <time>2021-11-15T12:25:54+01:00</time>
      </trkpt>
      <trkpt lat="46.76664" lon="4.69762">
        <ele>358</ele>
        <time>2021-11-15T12:25:59+01:00</time>
      </trkpt>
      <trkpt lat="46.76626" lon="4.69744">
        <ele>362</ele>
        <time>2021-11-15T12:26:04+01:00</time>
      </trkpt>
      <trkpt lat="46.76423" lon="4.69424">
        <ele>396</ele>
        <time>2021-11-15T12:26:09+01:00</time>
      </trkpt>
      <trkpt lat="46.76369" lon="4.69424">
        <ele>391</ele>
        <time>2021-11-15T12:26:14+01:00</time>
      </trkpt>
      <trkpt lat="46.76321" lon="4.69452">
        <ele>383</ele>
        <time>2021-11-15T12:26:19+01:00</time>
      </trkpt>
      <trkpt lat="46.76132" lon="4.69441">
        <ele>365</ele>
        <time>2021-11-15T12:26:24+01:00</time>
      </trkpt>
      <trkpt lat="46.76075" lon="4.69452">
        <ele>355</ele>
        <time>2021-11-15T12:26:29+01:00</time>
      </trkpt>
      <trkpt lat="46.76012" lon="4.69395">
        <ele>344</ele>
        <time>2021-11-15T12:26:34+01:00</time>
      </trkpt>
      <trkpt lat="46.75946" lon="4.69239">
        <ele>330</ele>
        <time>2021-11-15T12:26:39+01:00</time>
      </trkpt>
      <trkpt lat="46.75921" lon="4.69191">
        <ele>323</ele>
        <time>2021-11-15T12:26:44+01:00</time>
      </trkpt>
      <trkpt lat="46.75893" lon="4.68993">
        <ele>312</ele>
        <time>2021-11-15T12:26:49+01:00</time>
      </trkpt>
      <trkpt lat="46.75855" lon="4.68877">
        <ele>302</ele>
        <time>2021-11-15T12:26:54+01:00</time>
      </trkpt>
      <trkpt lat="46.75767" lon="4.68788">
        <ele>297</ele>
        <time>2021-11-15T12:26:59+01:00</time>
      </trkpt>
      <trkpt lat="46.75736" lon="4.6881">
        <ele>296</ele>
        <time>2021-11-15T12:27:04+01:00</time>
      </trkpt>
      <trkpt lat="46.75607" lon="4.68746">
        <ele>295</ele>
        <time>2021-11-15T12:27:09+01:00</time>
      </trkpt>
      <trkpt lat="46.75509" lon="4.68725">
        <ele>282</ele>
        <time>2021-11-15T12:27:14+01:00</time>
      </trkpt>
      <trkpt lat="46.7549" lon="4.68657">
        <ele>277</ele>
        <time>2021-11-15T12:27:19+01:00</time>
      </trkpt>
      <trkpt lat="46.75481" lon="4.68602">
        <ele>274</ele>
        <time>2021-11-15T12:27:24+01:00</time>
      </trkpt>
      <trkpt lat="46.75401" lon="4.68626">
        <ele>266</ele>
        <time>2021-11-15T12:27:29+01:00</time>
      </trkpt>
      <trkpt lat="46.75286" lon="4.68644">
        <ele>258</ele>
        <time>2021-11-15T12:27:34+01:00</time>
      </trkpt>
      <trkpt lat="46.75146" lon="4.68546">
        <ele>268</ele>
        <time>2021-11-15T12:27:39+01:00</time>
      </trkpt>
      <trkpt lat="46.75115" lon="4.68609">
        <ele>266</ele>
        <time>2021-11-15T12:27:44+01:00</time>
      </trkpt>
      <trkpt lat="46.74994" lon="4.68592">
        <ele>269</ele>
        <time>2021-11-15T12:27:49+01:00</time>
      </trkpt>
      <trkpt lat="46.74934" lon="4.68557">
        <ele>270</ele>
        <time>2021-11-15T12:27:54+01:00</time>
      </trkpt>
      <trkpt lat="46.74873" lon="4.68469">
        <ele>272</ele>
        <time>2021-11-15T12:27:59+01:00</time>
      </trkpt>
      <trkpt lat="46.74894" lon="4.68439">
        <ele>275</ele>
        <time>2021-11-15T12:28:04+01:00</time>
      </trkpt>
      <trkpt lat="46.74812" lon="4.6828">
        <ele>276</ele>
        <time>2021-11-15T12:28:09+01:00</time>
      </trkpt>
      <trkpt lat="46.74807" lon="4.68134">
        <ele>279</ele>
        <time>2021-11-15T12:28:14+01:00</time>
      </trkpt>
      <trkpt lat="46.74869" lon="4.67997">
        <ele>288</ele>
        <time>2021-11-15T12:28:19+01:00</time>
      </trkpt>
      <trkpt lat="46.74858" lon="4.67914">
        <ele>292</ele>
        <time>2021-11-15T12:28:24+01:00</time>
      </trkpt>
      <trkpt lat="46.74714" lon="4.67426">
        <ele>313</ele>
        <time>2021-11-15T12:28:29+01:00</time>
      </trkpt>
      <trkpt lat="46.74681" lon="4.67354">
        <ele>319</ele>
        <time>2021-11-15T12:28:34+01:00</time>
      </trkpt>
      <trkpt lat="46.74649" lon="4.67213">
        <ele>333</ele>
        <time>2021-11-15T12:28:39+01:00</time>
      </trkpt>
      <trkpt lat="46.74643" lon="4.67165">
        <ele>335</ele>
        <time>2021-11-15T12:28:44+01:00</time>
      </trkpt>
      <trkpt lat="46.74672" lon="4.67125">
        <ele>333</ele>
        <time>2021-11-15T12:28:49+01:00</time>
      </trkpt>
      <trkpt lat="46.74564" lon="4.66938">
        <ele>335</ele>
        <time>2021-11-15T12:28:54+01:00</time>
      </trkpt>
      <trkpt lat="46.74586" lon="4.66423">
        <ele>318</ele>
        <time>2021-11-15T12:28:59+01:00</time>
      </trkpt>
      <trkpt lat="46.74537" lon="4.66329">
        <ele>317</ele>
        <time>2021-11-15T12:29:04+01:00</time>
      </trkpt>
      <trkpt lat="46.74501" lon="4.6625">
        <ele>319</ele>
        <time>2021-11-15T12:29:09+01:00</time>
      </trkpt>
      <trkpt lat="46.74483" lon="4.66012">
        <ele>318</ele>
        <time>2021-11-15T12:29:14+01:00</time>
      </trkpt>
      <trkpt lat="46.74411" lon="4.65995">
        <ele>324</ele>
        <time>2021-11-15T12:29:19+01:00</time>
      </trkpt>
      <trkpt lat="46.74404" lon="4.6582">
        <ele>330</ele>
        <time>2021-11-15T12:29:24+01:00</time>
      </trkpt>
      <trkpt lat="46.74379" lon="4.65744">
        <ele>338</ele>
        <time>2021-11-15T12:29:29+01:00</time>
      </trkpt>
      <trkpt lat="46.74352" lon="4.65564">
        <ele>349</ele>
        <time>2021-11-15T12:29:34+01:00</time>
      </trkpt>
      <trkpt lat="46.74298" lon="4.65526">
        <ele>354</ele>
        <time>2021-11-15T12:29:39+01:00</time>
      </trkpt>
      <trkpt lat="46.74209" lon="4.65443">
        <ele>357</ele>
        <time>2021-11-15T12:29:44+01:00</time>
      </trkpt>
      <trkpt lat="46.74129" lon="4.65402">
        <ele>360</ele>
        <time>2021-11-15T12:29:49+01:00</time>
      </trkpt>
      <trkpt lat="46.73985" lon="4.6526">
        <ele>359</ele>
        <time>2021-11-15T12:29:54+01:00</time>
      </trkpt>
      <trkpt lat="46.73912" lon="4.6524">
        <ele>363</ele>
        <time>2021-11-15T12:29:59+01:00</time>
      </trkpt>
      <trkpt lat="46.73827" lon="4.65303">
        <ele>375</ele>
        <time>2021-11-15T12:30:04+01:00</time>
      </trkpt>
      <trkpt lat="46.7382" lon="4.6524">
        <ele>369</ele>
        <time>2021-11-15T12:30:09+01:00</time>
      </trkpt>
      <trkpt lat="46.73748" lon="4.65124">
        <ele>360</ele>
        <time>2021-11-15T12:30:14+01:00</time>
      </trkpt>
      <trkpt lat="46.73741" lon="4.6505">
        <ele>354</ele>
        <time>2021-11-15T12:30:19+01:00</time>
      </trkpt>
      <trkpt lat="46.73595" lon="4.6488">
        <ele>345</ele>
        <time>2021-11-15T12:30:24+01:00</time>
      </trkpt>
      <trkpt lat="46.73459" lon="4.64645">
        <ele>341</ele>
        <time>2021-11-15T12:30:29+01:00</time>
      </trkpt>
      <trkpt lat="46.73296" lon="4.64501">
        <ele>343</ele>
        <time>2021-11-15T12:30:34+01:00</time>
      </trkpt>
      <trkpt lat="46.73105" lon="4.64404">
        <ele>330</ele>
        <time>2021-11-15T12:30:39+01:00</time>
      </trkpt>
      <trkpt lat="46.72994" lon="4.64455">
        <ele>327</ele>
        <time>2021-11-15T12:30:44+01:00</time>
      </trkpt>
      <trkpt lat="46.7294" lon="4.64556">
        <ele>331</ele>
        <time>2021-11-15T12:30:49+01:00</time>
      </trkpt>
      <trkpt lat="46.72884" lon="4.64566">
        <ele>328</ele>
        <time>2021-11-15T12:30:54+01:00</time>
      </trkpt>
      <trkpt lat="46.72835" lon="4.6454">
        <ele>326</ele>
        <time>2021-11-15T12:30:59+01:00</time>
      </trkpt>
      <trkpt lat="46.72826" lon="4.64524">
        <ele>326</ele>
        <time>2021-11-15T12:31:04+01:00</time>
      </trkpt>
      <trkpt lat="46.7284" lon="4.64423">
        <ele>321</ele>
        <time>2021-11-15T12:31:09+01:00</time>
      </trkpt>
      <trkpt lat="46.72789" lon="4.64179">
        <ele>325</ele>
        <time>2021-11-15T12:31:14+01:00</time>
      </trkpt>
      <trkpt lat="46.72739" lon="4.64058">
        <ele>326</ele>
        <time>2021-11-15T12:31:19+01:00</time>
      </trkpt>
      <trkpt lat="46.72663" lon="4.63951">
        <ele>329</ele>
        <time>2021-11-15T12:31:24+01:00</time>
      </trkpt>
      <trkpt lat="46.72584" lon="4.63904">
        <ele>336</ele>
        <time>2021-11-15T12:31:29+01:00</time>
      </trkpt>
      <trkpt lat="46.72489" lon="4.63792">
        <ele>335</ele>
        <time>2021-11-15T12:31:34+01:00</time>
      </trkpt>
      <trkpt lat="46.72381" lon="4.63719">
        <ele>342</ele>
        <time>2021-11-15T12:31:39+01:00</time>
      </trkpt>
      <trkpt lat="46.72335" lon="4.63715">
        <ele>346</ele>
        <time>2021-11-15T12:31:44+01:00</time>
      </trkpt>
      <trkpt lat="46.72289" lon="4.63737">
        <ele>350</ele>
        <time>2021-11-15T12:31:49+01:00</time>
      </trkpt>
      <trkpt lat="46.72199" lon="4.63813">
        <ele>350</ele>
        <time>2021-11-15T12:31:54+01:00</time>
      </trkpt>
      <trkpt lat="46.72137" lon="4.63845">
        <ele>348</ele>
        <time>2021-11-15T12:31:59+01:00</time>
      </trkpt>
      <trkpt lat="46.72079" lon="4.63893">
        <ele>345</ele>
        <time>2021-11-15T12:32:04+01:00</time>
      </trkpt>
      <trkpt lat="46.71993" lon="4.63811">
        <ele>334</ele>
        <time>2021-11-15T12:32:09+01:00</time>
      </trkpt>
      <trkpt lat="46.71926" lon="4.63763">
        <ele>328</ele>
        <time>2021-11-15T12:32:14+01:00</time>
      </trkpt>
      <trkpt lat="46.71902" lon="4.6372">
        <ele>325</ele>
        <time>2021-11-15T12:32:19+01:00</time>
      </trkpt>
      <trkpt lat="46.71873" lon="4.6371">
        <ele>323</ele>
        <time>2021-11-15T12:32:24+01:00</time>
      </trkpt>
    </trkseg>
  </trk>
  <trk>
    <name><![CDATA[32 - SASSANGY MALAY 24.8 KM]]></name>
    <extensions>
      <line xmlns="http://www.topografix.com/GPX/gpx_style/0/2">
        <color>000088</color>
        <width>4</width>
      </line>
    </extensions>
    <trkseg>
      <trkpt lat="46.71867" lon="4.6371">
        <ele>322</ele>
        <time>2021-11-15T14:52:09+01:00</time>
      </trkpt>
      <trkpt lat="46.71905" lon="4.6372">
        <ele>325</ele>
        <time>2021-11-15T14:52:14+01:00</time>
      </trkpt>
      <trkpt lat="46.71928" lon="4.63768">
        <ele>328</ele>
        <time>2021-11-15T14:52:19+01:00</time>
      </trkpt>
      <trkpt lat="46.71848" lon="4.63905">
        <ele>318</ele>
        <time>2021-11-15T14:52:24+01:00</time>
      </trkpt>
      <trkpt lat="46.7175" lon="4.63727">
        <ele>312</ele>
        <time>2021-11-15T14:52:29+01:00</time>
      </trkpt>
      <trkpt lat="46.71686" lon="4.63686">
        <ele>306</ele>
        <time>2021-11-15T14:52:34+01:00</time>
      </trkpt>
      <trkpt lat="46.71587" lon="4.6372">
        <ele>296</ele>
        <time>2021-11-15T14:52:39+01:00</time>
      </trkpt>
      <trkpt lat="46.71507" lon="4.63809">
        <ele>290</ele>
        <time>2021-11-15T14:52:44+01:00</time>
      </trkpt>
      <trkpt lat="46.71235" lon="4.63905">
        <ele>292</ele>
        <time>2021-11-15T14:52:49+01:00</time>
      </trkpt>
      <trkpt lat="46.71105" lon="4.64245">
        <ele>308</ele>
        <time>2021-11-15T14:52:54+01:00</time>
      </trkpt>
      <trkpt lat="46.71079" lon="4.63915">
        <ele>303</ele>
        <time>2021-11-15T14:52:59+01:00</time>
      </trkpt>
      <trkpt lat="46.70863" lon="4.64423">
        <ele>345</ele>
        <time>2021-11-15T14:53:04+01:00</time>
      </trkpt>
      <trkpt lat="46.70741" lon="4.64625">
        <ele>367</ele>
        <time>2021-11-15T14:53:09+01:00</time>
      </trkpt>
      <trkpt lat="46.70492" lon="4.6514">
        <ele>392</ele>
        <time>2021-11-15T14:53:14+01:00</time>
      </trkpt>
      <trkpt lat="46.70437" lon="4.65345">
        <ele>390</ele>
        <time>2021-11-15T14:53:19+01:00</time>
      </trkpt>
      <trkpt lat="46.70454" lon="4.65452">
        <ele>384</ele>
        <time>2021-11-15T14:53:24+01:00</time>
      </trkpt>
      <trkpt lat="46.70517" lon="4.66018">
        <ele>377</ele>
        <time>2021-11-15T14:53:29+01:00</time>
      </trkpt>
      <trkpt lat="46.70482" lon="4.6634">
        <ele>373</ele>
        <time>2021-11-15T14:53:34+01:00</time>
      </trkpt>
      <trkpt lat="46.70447" lon="4.6646">
        <ele>375</ele>
        <time>2021-11-15T14:53:39+01:00</time>
      </trkpt>
      <trkpt lat="46.70477" lon="4.66635">
        <ele>370</ele>
        <time>2021-11-15T14:53:44+01:00</time>
      </trkpt>
      <trkpt lat="46.7043" lon="4.66779">
        <ele>374</ele>
        <time>2021-11-15T14:53:49+01:00</time>
      </trkpt>
      <trkpt lat="46.70365" lon="4.66817">
        <ele>379</ele>
        <time>2021-11-15T14:53:54+01:00</time>
      </trkpt>
      <trkpt lat="46.70202" lon="4.66988">
        <ele>388</ele>
        <time>2021-11-15T14:53:59+01:00</time>
      </trkpt>
      <trkpt lat="46.69908" lon="4.67077">
        <ele>392</ele>
        <time>2021-11-15T14:54:04+01:00</time>
      </trkpt>
      <trkpt lat="46.6984" lon="4.67016">
        <ele>397</ele>
        <time>2021-11-15T14:54:09+01:00</time>
      </trkpt>
      <trkpt lat="46.69779" lon="4.66882">
        <ele>402</ele>
        <time>2021-11-15T14:54:14+01:00</time>
      </trkpt>
      <trkpt lat="46.69466" lon="4.667">
        <ele>400</ele>
        <time>2021-11-15T14:54:19+01:00</time>
      </trkpt>
      <trkpt lat="46.69334" lon="4.66583">
        <ele>401</ele>
        <time>2021-11-15T14:54:24+01:00</time>
      </trkpt>
      <trkpt lat="46.69243" lon="4.6658">
        <ele>400</ele>
        <time>2021-11-15T14:54:29+01:00</time>
      </trkpt>
      <trkpt lat="46.69137" lon="4.66542">
        <ele>400</ele>
        <time>2021-11-15T14:54:34+01:00</time>
      </trkpt>
      <trkpt lat="46.68814" lon="4.66292">
        <ele>384</ele>
        <time>2021-11-15T14:54:39+01:00</time>
      </trkpt>
      <trkpt lat="46.68706" lon="4.66371">
        <ele>388</ele>
        <time>2021-11-15T14:54:44+01:00</time>
      </trkpt>
      <trkpt lat="46.6852" lon="4.66511">
        <ele>397</ele>
        <time>2021-11-15T14:54:49+01:00</time>
      </trkpt>
      <trkpt lat="46.68382" lon="4.66525">
        <ele>395</ele>
        <time>2021-11-15T14:54:54+01:00</time>
      </trkpt>
      <trkpt lat="46.68132" lon="4.66481">
        <ele>392</ele>
        <time>2021-11-15T14:54:59+01:00</time>
      </trkpt>
      <trkpt lat="46.67913" lon="4.6658">
        <ele>407</ele>
        <time>2021-11-15T14:55:04+01:00</time>
      </trkpt>
      <trkpt lat="46.67751" lon="4.66604">
        <ele>418</ele>
        <time>2021-11-15T14:55:09+01:00</time>
      </trkpt>
      <trkpt lat="46.67542" lon="4.66511">
        <ele>420</ele>
        <time>2021-11-15T14:55:14+01:00</time>
      </trkpt>
      <trkpt lat="46.67332" lon="4.66398">
        <ele>410</ele>
        <time>2021-11-15T14:55:19+01:00</time>
      </trkpt>
      <trkpt lat="46.67208" lon="4.66347">
        <ele>412</ele>
        <time>2021-11-15T14:55:24+01:00</time>
      </trkpt>
      <trkpt lat="46.67047" lon="4.66522">
        <ele>410</ele>
        <time>2021-11-15T14:55:29+01:00</time>
      </trkpt>
      <trkpt lat="46.67012" lon="4.66611">
        <ele>399</ele>
        <time>2021-11-15T14:55:34+01:00</time>
      </trkpt>
      <trkpt lat="46.66897" lon="4.6671">
        <ele>387</ele>
        <time>2021-11-15T14:55:39+01:00</time>
      </trkpt>
      <trkpt lat="46.66815" lon="4.667">
        <ele>386</ele>
        <time>2021-11-15T14:55:44+01:00</time>
      </trkpt>
      <trkpt lat="46.66553" lon="4.66583">
        <ele>384</ele>
        <time>2021-11-15T14:55:49+01:00</time>
      </trkpt>
      <trkpt lat="46.66464" lon="4.66601">
        <ele>382</ele>
        <time>2021-11-15T14:55:54+01:00</time>
      </trkpt>
      <trkpt lat="46.66219" lon="4.66508">
        <ele>382</ele>
        <time>2021-11-15T14:55:59+01:00</time>
      </trkpt>
      <trkpt lat="46.66151" lon="4.66539">
        <ele>374</ele>
        <time>2021-11-15T14:56:04+01:00</time>
      </trkpt>
      <trkpt lat="46.66026" lon="4.66501">
        <ele>372</ele>
        <time>2021-11-15T14:56:09+01:00</time>
      </trkpt>
      <trkpt lat="46.65941" lon="4.66443">
        <ele>368</ele>
        <time>2021-11-15T14:56:14+01:00</time>
      </trkpt>
      <trkpt lat="46.65802" lon="4.66251">
        <ele>365</ele>
        <time>2021-11-15T14:56:19+01:00</time>
      </trkpt>
      <trkpt lat="46.65734" lon="4.66223">
        <ele>366</ele>
        <time>2021-11-15T14:56:24+01:00</time>
      </trkpt>
      <trkpt lat="46.65682" lon="4.66179">
        <ele>373</ele>
        <time>2021-11-15T14:56:29+01:00</time>
      </trkpt>
      <trkpt lat="46.65581" lon="4.66158">
        <ele>359</ele>
        <time>2021-11-15T14:56:34+01:00</time>
      </trkpt>
      <trkpt lat="46.65478" lon="4.65997">
        <ele>360</ele>
        <time>2021-11-15T14:56:39+01:00</time>
      </trkpt>
      <trkpt lat="46.65416" lon="4.6585">
        <ele>353</ele>
        <time>2021-11-15T14:56:44+01:00</time>
      </trkpt>
      <trkpt lat="46.65384" lon="4.65723">
        <ele>346</ele>
        <time>2021-11-15T14:56:49+01:00</time>
      </trkpt>
      <trkpt lat="46.65372" lon="4.65503">
        <ele>330</ele>
        <time>2021-11-15T14:56:54+01:00</time>
      </trkpt>
      <trkpt lat="46.65261" lon="4.65435">
        <ele>314</ele>
        <time>2021-11-15T14:56:59+01:00</time>
      </trkpt>
      <trkpt lat="46.65146" lon="4.65448">
        <ele>300</ele>
        <time>2021-11-15T14:57:04+01:00</time>
      </trkpt>
      <trkpt lat="46.65021" lon="4.65479">
        <ele>285</ele>
        <time>2021-11-15T14:57:09+01:00</time>
      </trkpt>
      <trkpt lat="46.64868" lon="4.65417">
        <ele>293</ele>
        <time>2021-11-15T14:57:14+01:00</time>
      </trkpt>
      <trkpt lat="46.64724" lon="4.65634">
        <ele>300</ele>
        <time>2021-11-15T14:57:19+01:00</time>
      </trkpt>
      <trkpt lat="46.64621" lon="4.65743">
        <ele>307</ele>
        <time>2021-11-15T14:57:24+01:00</time>
      </trkpt>
      <trkpt lat="46.64498" lon="4.65836">
        <ele>318</ele>
        <time>2021-11-15T14:57:29+01:00</time>
      </trkpt>
      <trkpt lat="46.64244" lon="4.65928">
        <ele>340</ele>
        <time>2021-11-15T14:57:34+01:00</time>
      </trkpt>
      <trkpt lat="46.64089" lon="4.65887">
        <ele>338</ele>
        <time>2021-11-15T14:57:39+01:00</time>
      </trkpt>
      <trkpt lat="46.64025" lon="4.65935">
        <ele>337</ele>
        <time>2021-11-15T14:57:44+01:00</time>
      </trkpt>
      <trkpt lat="46.63995" lon="4.65946">
        <ele>337</ele>
        <time>2021-11-15T14:57:49+01:00</time>
      </trkpt>
      <trkpt lat="46.63811" lon="4.65887">
        <ele>348</ele>
        <time>2021-11-15T14:57:54+01:00</time>
      </trkpt>
      <trkpt lat="46.63618" lon="4.65946">
        <ele>344</ele>
        <time>2021-11-15T14:57:59+01:00</time>
      </trkpt>
      <trkpt lat="46.63568" lon="4.66045">
        <ele>339</ele>
        <time>2021-11-15T14:58:04+01:00</time>
      </trkpt>
      <trkpt lat="46.63439" lon="4.66076">
        <ele>323</ele>
        <time>2021-11-15T14:58:09+01:00</time>
      </trkpt>
      <trkpt lat="46.63385" lon="4.66148">
        <ele>317</ele>
        <time>2021-11-15T14:58:14+01:00</time>
      </trkpt>
      <trkpt lat="46.63208" lon="4.66247">
        <ele>309</ele>
        <time>2021-11-15T14:58:19+01:00</time>
      </trkpt>
      <trkpt lat="46.63095" lon="4.66395">
        <ele>311</ele>
        <time>2021-11-15T14:58:24+01:00</time>
      </trkpt>
      <trkpt lat="46.62951" lon="4.66522">
        <ele>323</ele>
        <time>2021-11-15T14:58:29+01:00</time>
      </trkpt>
      <trkpt lat="46.62822" lon="4.66614">
        <ele>329</ele>
        <time>2021-11-15T14:58:34+01:00</time>
      </trkpt>
      <trkpt lat="46.62754" lon="4.66645">
        <ele>335</ele>
        <time>2021-11-15T14:58:39+01:00</time>
      </trkpt>
      <trkpt lat="46.62438" lon="4.66662">
        <ele>338</ele>
        <time>2021-11-15T14:58:44+01:00</time>
      </trkpt>
      <trkpt lat="46.62254" lon="4.66652">
        <ele>326</ele>
        <time>2021-11-15T14:58:49+01:00</time>
      </trkpt>
      <trkpt lat="46.62113" lon="4.66621">
        <ele>324</ele>
        <time>2021-11-15T14:58:54+01:00</time>
      </trkpt>
      <trkpt lat="46.61979" lon="4.66621">
        <ele>311</ele>
        <time>2021-11-15T14:58:59+01:00</time>
      </trkpt>
      <trkpt lat="46.61887" lon="4.66655">
        <ele>301</ele>
        <time>2021-11-15T14:59:04+01:00</time>
      </trkpt>
      <trkpt lat="46.61818" lon="4.66642">
        <ele>293</ele>
        <time>2021-11-15T14:59:09+01:00</time>
      </trkpt>
      <trkpt lat="46.6159" lon="4.66529">
        <ele>267</ele>
        <time>2021-11-15T14:59:14+01:00</time>
      </trkpt>
      <trkpt lat="46.61515" lon="4.6646">
        <ele>254</ele>
        <time>2021-11-15T14:59:19+01:00</time>
      </trkpt>
      <trkpt lat="46.61442" lon="4.66511">
        <ele>249</ele>
        <time>2021-11-15T14:59:24+01:00</time>
      </trkpt>
      <trkpt lat="46.61427" lon="4.66467">
        <ele>245</ele>
        <time>2021-11-15T14:59:29+01:00</time>
      </trkpt>
      <trkpt lat="46.61385" lon="4.66474">
        <ele>243</ele>
        <time>2021-11-15T14:59:34+01:00</time>
      </trkpt>
      <trkpt lat="46.61352" lon="4.66261">
        <ele>232</ele>
        <time>2021-11-15T14:59:39+01:00</time>
      </trkpt>
      <trkpt lat="46.61173" lon="4.66251">
        <ele>225</ele>
        <time>2021-11-15T14:59:44+01:00</time>
      </trkpt>
      <trkpt lat="46.60989" lon="4.66309">
        <ele>223</ele>
        <time>2021-11-15T14:59:49+01:00</time>
      </trkpt>
      <trkpt lat="46.60933" lon="4.66354">
        <ele>222</ele>
        <time>2021-11-15T14:59:54+01:00</time>
      </trkpt>
      <trkpt lat="46.60874" lon="4.66364">
        <ele>220</ele>
        <time>2021-11-15T14:59:59+01:00</time>
      </trkpt>
      <trkpt lat="46.60711" lon="4.66439">
        <ele>219</ele>
        <time>2021-11-15T15:00:04+01:00</time>
      </trkpt>
      <trkpt lat="46.60667" lon="4.66501">
        <ele>222</ele>
        <time>2021-11-15T15:00:09+01:00</time>
      </trkpt>
      <trkpt lat="46.60584" lon="4.66463">
        <ele>219</ele>
        <time>2021-11-15T15:00:14+01:00</time>
      </trkpt>
      <trkpt lat="46.60546" lon="4.66505">
        <ele>220</ele>
        <time>2021-11-15T15:00:19+01:00</time>
      </trkpt>
      <trkpt lat="46.60429" lon="4.66436">
        <ele>216</ele>
        <time>2021-11-15T15:00:24+01:00</time>
      </trkpt>
      <trkpt lat="46.60327" lon="4.66433">
        <ele>213</ele>
        <time>2021-11-15T15:00:29+01:00</time>
      </trkpt>
      <trkpt lat="46.60259" lon="4.66302">
        <ele>210</ele>
        <time>2021-11-15T15:00:34+01:00</time>
      </trkpt>
      <trkpt lat="46.60193" lon="4.66213">
        <ele>215</ele>
        <time>2021-11-15T15:00:39+01:00</time>
      </trkpt>
      <trkpt lat="46.60014" lon="4.66306">
        <ele>222</ele>
        <time>2021-11-15T15:00:44+01:00</time>
      </trkpt>
      <trkpt lat="46.59924" lon="4.66309">
        <ele>231</ele>
        <time>2021-11-15T15:00:49+01:00</time>
      </trkpt>
      <trkpt lat="46.59832" lon="4.66247">
        <ele>242</ele>
        <time>2021-11-15T15:00:54+01:00</time>
      </trkpt>
      <trkpt lat="46.59691" lon="4.66124">
        <ele>245</ele>
        <time>2021-11-15T15:00:59+01:00</time>
      </trkpt>
      <trkpt lat="46.59604" lon="4.66083">
        <ele>240</ele>
        <time>2021-11-15T15:01:04+01:00</time>
      </trkpt>
      <trkpt lat="46.59514" lon="4.65952">
        <ele>238</ele>
        <time>2021-11-15T15:01:09+01:00</time>
      </trkpt>
      <trkpt lat="46.59425" lon="4.65767">
        <ele>240</ele>
        <time>2021-11-15T15:01:14+01:00</time>
      </trkpt>
      <trkpt lat="46.59321" lon="4.6587">
        <ele>232</ele>
        <time>2021-11-15T15:01:19+01:00</time>
      </trkpt>
      <trkpt lat="46.59184" lon="4.65846">
        <ele>228</ele>
        <time>2021-11-15T15:01:24+01:00</time>
      </trkpt>
      <trkpt lat="46.59102" lon="4.65767">
        <ele>226</ele>
        <time>2021-11-15T15:01:29+01:00</time>
      </trkpt>
      <trkpt lat="46.58953" lon="4.65682">
        <ele>217</ele>
        <time>2021-11-15T15:01:34+01:00</time>
      </trkpt>
      <trkpt lat="46.58887" lon="4.65599">
        <ele>212</ele>
        <time>2021-11-15T15:01:39+01:00</time>
      </trkpt>
      <trkpt lat="46.58741" lon="4.65555">
        <ele>207</ele>
        <time>2021-11-15T15:01:44+01:00</time>
      </trkpt>
      <trkpt lat="46.58555" lon="4.65476">
        <ele>217</ele>
        <time>2021-11-15T15:01:49+01:00</time>
      </trkpt>
      <trkpt lat="46.58355" lon="4.65489">
        <ele>236</ele>
        <time>2021-11-15T15:01:54+01:00</time>
      </trkpt>
      <trkpt lat="46.58088" lon="4.65472">
        <ele>247</ele>
        <time>2021-11-15T15:01:59+01:00</time>
      </trkpt>
      <trkpt lat="46.57905" lon="4.654">
        <ele>246</ele>
        <time>2021-11-15T15:02:04+01:00</time>
      </trkpt>
      <trkpt lat="46.57824" lon="4.65328">
        <ele>248</ele>
        <time>2021-11-15T15:02:09+01:00</time>
      </trkpt>
      <trkpt lat="46.57775" lon="4.6526">
        <ele>251</ele>
        <time>2021-11-15T15:02:14+01:00</time>
      </trkpt>
      <trkpt lat="46.57721" lon="4.65232">
        <ele>251</ele>
        <time>2021-11-15T15:02:19+01:00</time>
      </trkpt>
      <trkpt lat="46.57679" lon="4.65398">
        <ele>245</ele>
        <time>2021-11-15T15:02:24+01:00</time>
      </trkpt>
      <trkpt lat="46.5748" lon="4.6543">
        <ele>236</ele>
        <time>2021-11-15T15:02:29+01:00</time>
      </trkpt>
      <trkpt lat="46.57429" lon="4.65563">
        <ele>228</ele>
        <time>2021-11-15T15:02:34+01:00</time>
      </trkpt>
      <trkpt lat="46.57278" lon="4.65674">
        <ele>217</ele>
        <time>2021-11-15T15:02:39+01:00</time>
      </trkpt>
      <trkpt lat="46.571" lon="4.65927">
        <ele>209</ele>
        <time>2021-11-15T15:02:44+01:00</time>
      </trkpt>
      <trkpt lat="46.57148" lon="4.65996">
        <ele>210</ele>
        <time>2021-11-15T15:02:49+01:00</time>
      </trkpt>
      <trkpt lat="46.57059" lon="4.66102">
        <ele>201</ele>
        <time>2021-11-15T15:02:54+01:00</time>
      </trkpt>
      <trkpt lat="46.57081" lon="4.66157">
        <ele>199</ele>
        <time>2021-11-15T15:02:59+01:00</time>
      </trkpt>
      <trkpt lat="46.56968" lon="4.663">
        <ele>196</ele>
        <time>2021-11-15T15:03:04+01:00</time>
      </trkpt>
      <trkpt lat="46.56831" lon="4.66323">
        <ele>199</ele>
        <time>2021-11-15T15:03:09+01:00</time>
      </trkpt>
      <trkpt lat="46.56746" lon="4.66415">
        <ele>198</ele>
        <time>2021-11-15T15:03:14+01:00</time>
      </trkpt>
      <trkpt lat="46.56613" lon="4.67009">
        <ele>196</ele>
        <time>2021-11-15T15:03:19+01:00</time>
      </trkpt>
      <trkpt lat="46.56534" lon="4.6716">
        <ele>196</ele>
        <time>2021-11-15T15:03:24+01:00</time>
      </trkpt>
      <trkpt lat="46.56515" lon="4.67565">
        <ele>197</ele>
        <time>2021-11-15T15:03:29+01:00</time>
      </trkpt>
      <trkpt lat="46.56487" lon="4.67846">
        <ele>202</ele>
        <time>2021-11-15T15:03:34+01:00</time>
      </trkpt>
      <trkpt lat="46.56468" lon="4.67994">
        <ele>203</ele>
        <time>2021-11-15T15:03:39+01:00</time>
      </trkpt>
      <trkpt lat="46.56559" lon="4.68113">
        <ele>205</ele>
        <time>2021-11-15T15:03:44+01:00</time>
      </trkpt>
      <trkpt lat="46.56718" lon="4.68251">
        <ele>205</ele>
        <time>2021-11-15T15:03:49+01:00</time>
      </trkpt>
      <trkpt lat="46.56676" lon="4.6838">
        <ele>206</ele>
        <time>2021-11-15T15:03:54+01:00</time>
      </trkpt>
      <trkpt lat="46.56581" lon="4.68651">
        <ele>209</ele>
        <time>2021-11-15T15:03:59+01:00</time>
      </trkpt>
      <trkpt lat="46.5758" lon="4.69445">
        <ele>208</ele>
        <time>2021-11-15T15:04:04+01:00</time>
      </trkpt>
    </trkseg>
  </trk>
  <trk>
    <name><![CDATA[33 - MALAY CLUNY 20.4 KM]]></name>
    <extensions>
      <line xmlns="http://www.topografix.com/GPX/gpx_style/0/2">
        <color>008800</color>
        <width>4</width>
      </line>
    </extensions>
    <trkseg>
      <trkpt lat="46.57575" lon="4.69438">
        <ele>208</ele>
        <time>2021-11-15T16:10:50+01:00</time>
      </trkpt>
      <trkpt lat="46.57002" lon="4.68989">
        <ele>205</ele>
        <time>2021-11-15T16:10:55+01:00</time>
      </trkpt>
      <trkpt lat="46.5657" lon="4.68648">
        <ele>209</ele>
        <time>2021-11-15T16:11:00+01:00</time>
      </trkpt>
      <trkpt lat="46.56019" lon="4.68231">
        <ele>211</ele>
        <time>2021-11-15T16:11:05+01:00</time>
      </trkpt>
      <trkpt lat="46.55762" lon="4.68239">
        <ele>211</ele>
        <time>2021-11-15T16:11:10+01:00</time>
      </trkpt>
      <trkpt lat="46.55808" lon="4.67564">
        <ele>208</ele>
        <time>2021-11-15T16:11:15+01:00</time>
      </trkpt>
      <trkpt lat="46.5568" lon="4.6752">
        <ele>205</ele>
        <time>2021-11-15T16:11:20+01:00</time>
      </trkpt>
      <trkpt lat="46.55634" lon="4.67504">
        <ele>204</ele>
        <time>2021-11-15T16:11:25+01:00</time>
      </trkpt>
      <trkpt lat="46.55631" lon="4.67417">
        <ele>203</ele>
        <time>2021-11-15T16:11:30+01:00</time>
      </trkpt>
      <trkpt lat="46.55557" lon="4.67301">
        <ele>201</ele>
        <time>2021-11-15T16:11:35+01:00</time>
      </trkpt>
      <trkpt lat="46.55429" lon="4.66745">
        <ele>198</ele>
        <time>2021-11-15T16:11:40+01:00</time>
      </trkpt>
      <trkpt lat="46.55472" lon="4.66523">
        <ele>199</ele>
        <time>2021-11-15T16:11:45+01:00</time>
      </trkpt>
      <trkpt lat="46.55306" lon="4.66471">
        <ele>199</ele>
        <time>2021-11-15T16:11:50+01:00</time>
      </trkpt>
      <trkpt lat="46.55071" lon="4.66606">
        <ele>200</ele>
        <time>2021-11-15T16:11:55+01:00</time>
      </trkpt>
      <trkpt lat="46.5491" lon="4.66598">
        <ele>200</ele>
        <time>2021-11-15T16:12:00+01:00</time>
      </trkpt>
      <trkpt lat="46.54721" lon="4.66547">
        <ele>201</ele>
        <time>2021-11-15T16:12:05+01:00</time>
      </trkpt>
      <trkpt lat="46.54721" lon="4.66471">
        <ele>201</ele>
        <time>2021-11-15T16:12:10+01:00</time>
      </trkpt>
      <trkpt lat="46.54776" lon="4.66289">
        <ele>200</ele>
        <time>2021-11-15T16:12:15+01:00</time>
      </trkpt>
      <trkpt lat="46.54664" lon="4.66217">
        <ele>200</ele>
        <time>2021-11-15T16:12:20+01:00</time>
      </trkpt>
      <trkpt lat="46.54536" lon="4.65911">
        <ele>200</ele>
        <time>2021-11-15T16:12:25+01:00</time>
      </trkpt>
      <trkpt lat="46.5438" lon="4.65812">
        <ele>201</ele>
        <time>2021-11-15T16:12:30+01:00</time>
      </trkpt>
      <trkpt lat="46.53948" lon="4.65391">
        <ele>202</ele>
        <time>2021-11-15T16:12:35+01:00</time>
      </trkpt>
      <trkpt lat="46.53913" lon="4.65276">
        <ele>201</ele>
        <time>2021-11-15T16:12:40+01:00</time>
      </trkpt>
      <trkpt lat="46.53648" lon="4.64994">
        <ele>202</ele>
        <time>2021-11-15T16:12:45+01:00</time>
      </trkpt>
      <trkpt lat="46.53574" lon="4.64831">
        <ele>203</ele>
        <time>2021-11-15T16:12:50+01:00</time>
      </trkpt>
      <trkpt lat="46.53517" lon="4.6474">
        <ele>208</ele>
        <time>2021-11-15T16:12:55+01:00</time>
      </trkpt>
      <trkpt lat="46.53511" lon="4.64652">
        <ele>210</ele>
        <time>2021-11-15T16:13:00+01:00</time>
      </trkpt>
      <trkpt lat="46.53314" lon="4.64569">
        <ele>218</ele>
        <time>2021-11-15T16:13:05+01:00</time>
      </trkpt>
      <trkpt lat="46.53243" lon="4.64537">
        <ele>221</ele>
        <time>2021-11-15T16:13:10+01:00</time>
      </trkpt>
      <trkpt lat="46.5317" lon="4.64362">
        <ele>226</ele>
        <time>2021-11-15T16:13:15+01:00</time>
      </trkpt>
      <trkpt lat="46.53107" lon="4.64311">
        <ele>227</ele>
        <time>2021-11-15T16:13:20+01:00</time>
      </trkpt>
      <trkpt lat="46.53014" lon="4.64247">
        <ele>228</ele>
        <time>2021-11-15T16:13:25+01:00</time>
      </trkpt>
      <trkpt lat="46.52888" lon="4.64227">
        <ele>233</ele>
        <time>2021-11-15T16:13:30+01:00</time>
      </trkpt>
      <trkpt lat="46.52691" lon="4.64176">
        <ele>242</ele>
        <time>2021-11-15T16:13:35+01:00</time>
      </trkpt>
      <trkpt lat="46.52634" lon="4.64112">
        <ele>247</ele>
        <time>2021-11-15T16:13:40+01:00</time>
      </trkpt>
      <trkpt lat="46.52344" lon="4.64001">
        <ele>262</ele>
        <time>2021-11-15T16:13:45+01:00</time>
      </trkpt>
      <trkpt lat="46.52257" lon="4.64029">
        <ele>264</ele>
        <time>2021-11-15T16:13:50+01:00</time>
      </trkpt>
      <trkpt lat="46.5212" lon="4.64005">
        <ele>273</ele>
        <time>2021-11-15T16:13:55+01:00</time>
      </trkpt>
      <trkpt lat="46.52022" lon="4.64025">
        <ele>281</ele>
        <time>2021-11-15T16:14:00+01:00</time>
      </trkpt>
      <trkpt lat="46.51746" lon="4.63909">
        <ele>297</ele>
        <time>2021-11-15T16:14:05+01:00</time>
      </trkpt>
      <trkpt lat="46.51492" lon="4.63894">
        <ele>297</ele>
        <time>2021-11-15T16:14:10+01:00</time>
      </trkpt>
      <trkpt lat="46.51366" lon="4.63933">
        <ele>293</ele>
        <time>2021-11-15T16:14:15+01:00</time>
      </trkpt>
      <trkpt lat="46.51347" lon="4.63826">
        <ele>292</ele>
        <time>2021-11-15T16:14:20+01:00</time>
      </trkpt>
      <trkpt lat="46.51256" lon="4.63858">
        <ele>286</ele>
        <time>2021-11-15T16:14:25+01:00</time>
      </trkpt>
      <trkpt lat="46.50923" lon="4.63985">
        <ele>270</ele>
        <time>2021-11-15T16:14:30+01:00</time>
      </trkpt>
      <trkpt lat="46.50838" lon="4.64052">
        <ele>266</ele>
        <time>2021-11-15T16:14:35+01:00</time>
      </trkpt>
      <trkpt lat="46.50313" lon="4.64156">
        <ele>262</ele>
        <time>2021-11-15T16:14:40+01:00</time>
      </trkpt>
      <trkpt lat="46.5025" lon="4.64199">
        <ele>264</ele>
        <time>2021-11-15T16:14:45+01:00</time>
      </trkpt>
      <trkpt lat="46.50032" lon="4.6408">
        <ele>269</ele>
        <time>2021-11-15T16:14:50+01:00</time>
      </trkpt>
      <trkpt lat="46.50015" lon="4.64279">
        <ele>283</ele>
        <time>2021-11-15T16:14:55+01:00</time>
      </trkpt>
      <trkpt lat="46.49821" lon="4.64259">
        <ele>306</ele>
        <time>2021-11-15T16:15:00+01:00</time>
      </trkpt>
      <trkpt lat="46.49425" lon="4.64267">
        <ele>343</ele>
        <time>2021-11-15T16:15:05+01:00</time>
      </trkpt>
      <trkpt lat="46.49162" lon="4.64358">
        <ele>354</ele>
        <time>2021-11-15T16:15:10+01:00</time>
      </trkpt>
      <trkpt lat="46.49023" lon="4.6443">
        <ele>352</ele>
        <time>2021-11-15T16:15:15+01:00</time>
      </trkpt>
      <trkpt lat="46.4882" lon="4.64418">
        <ele>353</ele>
        <time>2021-11-15T16:15:20+01:00</time>
      </trkpt>
      <trkpt lat="46.48645" lon="4.64473">
        <ele>360</ele>
        <time>2021-11-15T16:15:25+01:00</time>
      </trkpt>
      <trkpt lat="46.48388" lon="4.64521">
        <ele>365</ele>
        <time>2021-11-15T16:15:30+01:00</time>
      </trkpt>
      <trkpt lat="46.48211" lon="4.64589">
        <ele>366</ele>
        <time>2021-11-15T16:15:35+01:00</time>
      </trkpt>
      <trkpt lat="46.48008" lon="4.6466">
        <ele>371</ele>
        <time>2021-11-15T16:15:40+01:00</time>
      </trkpt>
      <trkpt lat="46.47819" lon="4.64787">
        <ele>362</ele>
        <time>2021-11-15T16:15:45+01:00</time>
      </trkpt>
      <trkpt lat="46.47814" lon="4.6472">
        <ele>363</ele>
        <time>2021-11-15T16:15:50+01:00</time>
      </trkpt>
      <trkpt lat="46.47705" lon="4.64732">
        <ele>359</ele>
        <time>2021-11-15T16:15:55+01:00</time>
      </trkpt>
      <trkpt lat="46.47546" lon="4.64744">
        <ele>356</ele>
        <time>2021-11-15T16:16:00+01:00</time>
      </trkpt>
      <trkpt lat="46.47374" lon="4.64823">
        <ele>358</ele>
        <time>2021-11-15T16:16:05+01:00</time>
      </trkpt>
      <trkpt lat="46.47302" lon="4.64843">
        <ele>352</ele>
        <time>2021-11-15T16:16:10+01:00</time>
      </trkpt>
      <trkpt lat="46.47341" lon="4.65081">
        <ele>340</ele>
        <time>2021-11-15T16:16:15+01:00</time>
      </trkpt>
      <trkpt lat="46.47401" lon="4.65228">
        <ele>328</ele>
        <time>2021-11-15T16:16:20+01:00</time>
      </trkpt>
      <trkpt lat="46.47401" lon="4.65347">
        <ele>317</ele>
        <time>2021-11-15T16:16:25+01:00</time>
      </trkpt>
      <trkpt lat="46.47352" lon="4.65347">
        <ele>313</ele>
        <time>2021-11-15T16:16:30+01:00</time>
      </trkpt>
      <trkpt lat="46.47292" lon="4.65296">
        <ele>311</ele>
        <time>2021-11-15T16:16:35+01:00</time>
      </trkpt>
      <trkpt lat="46.47133" lon="4.65455">
        <ele>301</ele>
        <time>2021-11-15T16:16:40+01:00</time>
      </trkpt>
      <trkpt lat="46.47043" lon="4.65645">
        <ele>305</ele>
        <time>2021-11-15T16:16:45+01:00</time>
      </trkpt>
      <trkpt lat="46.46993" lon="4.65609">
        <ele>314</ele>
        <time>2021-11-15T16:16:50+01:00</time>
      </trkpt>
      <trkpt lat="46.46857" lon="4.65685">
        <ele>313</ele>
        <time>2021-11-15T16:16:55+01:00</time>
      </trkpt>
      <trkpt lat="46.46692" lon="4.65669">
        <ele>314</ele>
        <time>2021-11-15T16:17:00+01:00</time>
      </trkpt>
      <trkpt lat="46.46578" lon="4.65613">
        <ele>306</ele>
        <time>2021-11-15T16:17:05+01:00</time>
      </trkpt>
      <trkpt lat="46.46446" lon="4.65613">
        <ele>291</ele>
        <time>2021-11-15T16:17:10+01:00</time>
      </trkpt>
      <trkpt lat="46.46501" lon="4.65717">
        <ele>292</ele>
        <time>2021-11-15T16:17:15+01:00</time>
      </trkpt>
      <trkpt lat="46.46517" lon="4.65832">
        <ele>288</ele>
        <time>2021-11-15T16:17:20+01:00</time>
      </trkpt>
      <trkpt lat="46.46539" lon="4.65899">
        <ele>286</ele>
        <time>2021-11-15T16:17:25+01:00</time>
      </trkpt>
      <trkpt lat="46.46498" lon="4.6607">
        <ele>273</ele>
        <time>2021-11-15T16:17:30+01:00</time>
      </trkpt>
      <trkpt lat="46.46471" lon="4.65967">
        <ele>277</ele>
        <time>2021-11-15T16:17:35+01:00</time>
      </trkpt>
      <trkpt lat="46.46342" lon="4.66015">
        <ele>281</ele>
        <time>2021-11-15T16:17:40+01:00</time>
      </trkpt>
      <trkpt lat="46.46173" lon="4.66026">
        <ele>282</ele>
        <time>2021-11-15T16:17:45+01:00</time>
      </trkpt>
      <trkpt lat="46.46071" lon="4.6607">
        <ele>266</ele>
        <time>2021-11-15T16:17:50+01:00</time>
      </trkpt>
      <trkpt lat="46.45973" lon="4.66066">
        <ele>257</ele>
        <time>2021-11-15T16:17:55+01:00</time>
      </trkpt>
      <trkpt lat="46.45907" lon="4.66098">
        <ele>264</ele>
        <time>2021-11-15T16:18:00+01:00</time>
      </trkpt>
      <trkpt lat="46.45861" lon="4.6605">
        <ele>271</ele>
        <time>2021-11-15T16:18:05+01:00</time>
      </trkpt>
      <trkpt lat="46.45743" lon="4.66058">
        <ele>283</ele>
        <time>2021-11-15T16:18:10+01:00</time>
      </trkpt>
      <trkpt lat="46.4574" lon="4.65995">
        <ele>284</ele>
        <time>2021-11-15T16:18:15+01:00</time>
      </trkpt>
      <trkpt lat="46.45631" lon="4.66058">
        <ele>286</ele>
        <time>2021-11-15T16:18:20+01:00</time>
      </trkpt>
      <trkpt lat="46.45379" lon="4.66162">
        <ele>267</ele>
        <time>2021-11-15T16:18:25+01:00</time>
      </trkpt>
      <trkpt lat="46.45231" lon="4.66273">
        <ele>267</ele>
        <time>2021-11-15T16:18:30+01:00</time>
      </trkpt>
      <trkpt lat="46.45095" lon="4.66388">
        <ele>280</ele>
        <time>2021-11-15T16:18:35+01:00</time>
      </trkpt>
      <trkpt lat="46.44991" lon="4.66432">
        <ele>279</ele>
        <time>2021-11-15T16:18:40+01:00</time>
      </trkpt>
      <trkpt lat="46.447" lon="4.66352">
        <ele>261</ele>
        <time>2021-11-15T16:18:45+01:00</time>
      </trkpt>
      <trkpt lat="46.44599" lon="4.66277">
        <ele>251</ele>
        <time>2021-11-15T16:18:50+01:00</time>
      </trkpt>
      <trkpt lat="46.4443" lon="4.66114">
        <ele>236</ele>
        <time>2021-11-15T16:18:55+01:00</time>
      </trkpt>
      <trkpt lat="46.44326" lon="4.66034">
        <ele>233</ele>
        <time>2021-11-15T16:19:00+01:00</time>
      </trkpt>
      <trkpt lat="46.44232" lon="4.65876">
        <ele>245</ele>
        <time>2021-11-15T16:19:05+01:00</time>
      </trkpt>
      <trkpt lat="46.4409" lon="4.658">
        <ele>248</ele>
        <time>2021-11-15T16:19:10+01:00</time>
      </trkpt>
      <trkpt lat="46.43981" lon="4.65764">
        <ele>251</ele>
        <time>2021-11-15T16:19:15+01:00</time>
      </trkpt>
      <trkpt lat="46.43827" lon="4.658">
        <ele>252</ele>
        <time>2021-11-15T16:19:20+01:00</time>
      </trkpt>
      <trkpt lat="46.43663" lon="4.65785">
        <ele>254</ele>
        <time>2021-11-15T16:19:25+01:00</time>
      </trkpt>
      <trkpt lat="46.43595" lon="4.65707">
        <ele>255</ele>
        <time>2021-11-15T16:19:30+01:00</time>
      </trkpt>
      <trkpt lat="46.43477" lon="4.65654">
        <ele>248</ele>
        <time>2021-11-15T16:19:35+01:00</time>
      </trkpt>
      <trkpt lat="46.43418" lon="4.65755">
        <ele>244</ele>
        <time>2021-11-15T16:19:40+01:00</time>
      </trkpt>
      <trkpt lat="46.43384" lon="4.65785">
        <ele>245</ele>
        <time>2021-11-15T16:19:45+01:00</time>
      </trkpt>
      <trkpt lat="46.43327" lon="4.65913">
        <ele>241</ele>
        <time>2021-11-15T16:19:50+01:00</time>
      </trkpt>
      <trkpt lat="46.43265" lon="4.6601">
        <ele>240</ele>
        <time>2021-11-15T16:19:55+01:00</time>
      </trkpt>
      <trkpt lat="46.43233" lon="4.66115">
        <ele>239</ele>
        <time>2021-11-15T16:20:00+01:00</time>
      </trkpt>
    </trkseg>
  </trk>
  <trk>
    <name><![CDATA[34 - CLUNY TRAMAYES 19.5 KM]]></name>
    <extensions>
      <line xmlns="http://www.topografix.com/GPX/gpx_style/0/2">
        <color>880000</color>
        <width>4</width>
      </line>
    </extensions>
    <trkseg>
      <trkpt lat="46.43224" lon="4.66119">
        <ele>239</ele>
        <time>2021-11-15T16:44:36+01:00</time>
      </trkpt>
      <trkpt lat="46.43255" lon="4.66023">
        <ele>240</ele>
        <time>2021-11-15T16:44:41+01:00</time>
      </trkpt>
      <trkpt lat="46.43298" lon="4.65947">
        <ele>241</ele>
        <time>2021-11-15T16:44:46+01:00</time>
      </trkpt>
      <trkpt lat="46.43362" lon="4.65812">
        <ele>245</ele>
        <time>2021-11-15T16:44:51+01:00</time>
      </trkpt>
      <trkpt lat="46.43274" lon="4.65774">
        <ele>252</ele>
        <time>2021-11-15T16:44:56+01:00</time>
      </trkpt>
      <trkpt lat="46.43198" lon="4.65621">
        <ele>267</ele>
        <time>2021-11-15T16:45:01+01:00</time>
      </trkpt>
      <trkpt lat="46.43109" lon="4.65497">
        <ele>278</ele>
        <time>2021-11-15T16:45:06+01:00</time>
      </trkpt>
      <trkpt lat="46.43074" lon="4.65393">
        <ele>279</ele>
        <time>2021-11-15T16:45:11+01:00</time>
      </trkpt>
      <trkpt lat="46.43" lon="4.65355">
        <ele>279</ele>
        <time>2021-11-15T16:45:16+01:00</time>
      </trkpt>
      <trkpt lat="46.42842" lon="4.65227">
        <ele>277</ele>
        <time>2021-11-15T16:45:21+01:00</time>
      </trkpt>
      <trkpt lat="46.42685" lon="4.65057">
        <ele>272</ele>
        <time>2021-11-15T16:45:26+01:00</time>
      </trkpt>
      <trkpt lat="46.42628" lon="4.6477">
        <ele>278</ele>
        <time>2021-11-15T16:45:31+01:00</time>
      </trkpt>
      <trkpt lat="46.4254" lon="4.64463">
        <ele>269</ele>
        <time>2021-11-15T16:45:36+01:00</time>
      </trkpt>
      <trkpt lat="46.42556" lon="4.64172">
        <ele>280</ele>
        <time>2021-11-15T16:45:41+01:00</time>
      </trkpt>
      <trkpt lat="46.42559" lon="4.64002">
        <ele>290</ele>
        <time>2021-11-15T16:45:46+01:00</time>
      </trkpt>
      <trkpt lat="46.42499" lon="4.63881">
        <ele>294</ele>
        <time>2021-11-15T16:45:51+01:00</time>
      </trkpt>
      <trkpt lat="46.42389" lon="4.63785">
        <ele>308</ele>
        <time>2021-11-15T16:45:56+01:00</time>
      </trkpt>
      <trkpt lat="46.42318" lon="4.63733">
        <ele>315</ele>
        <time>2021-11-15T16:46:01+01:00</time>
      </trkpt>
      <trkpt lat="46.42218" lon="4.63639">
        <ele>315</ele>
        <time>2021-11-15T16:46:06+01:00</time>
      </trkpt>
      <trkpt lat="46.42024" lon="4.63269">
        <ele>322</ele>
        <time>2021-11-15T16:46:11+01:00</time>
      </trkpt>
      <trkpt lat="46.41855" lon="4.63224">
        <ele>313</ele>
        <time>2021-11-15T16:46:16+01:00</time>
      </trkpt>
      <trkpt lat="46.41822" lon="4.63117">
        <ele>312</ele>
        <time>2021-11-15T16:46:21+01:00</time>
      </trkpt>
      <trkpt lat="46.41838" lon="4.63017">
        <ele>317</ele>
        <time>2021-11-15T16:46:26+01:00</time>
      </trkpt>
      <trkpt lat="46.41805" lon="4.6284">
        <ele>338</ele>
        <time>2021-11-15T16:46:31+01:00</time>
      </trkpt>
      <trkpt lat="46.41657" lon="4.62536">
        <ele>364</ele>
        <time>2021-11-15T16:46:36+01:00</time>
      </trkpt>
      <trkpt lat="46.41571" lon="4.62463">
        <ele>368</ele>
        <time>2021-11-15T16:46:41+01:00</time>
      </trkpt>
      <trkpt lat="46.41509" lon="4.62384">
        <ele>360</ele>
        <time>2021-11-15T16:46:46+01:00</time>
      </trkpt>
      <trkpt lat="46.41483" lon="4.62318">
        <ele>354</ele>
        <time>2021-11-15T16:46:51+01:00</time>
      </trkpt>
      <trkpt lat="46.41357" lon="4.62349">
        <ele>347</ele>
        <time>2021-11-15T16:46:56+01:00</time>
      </trkpt>
      <trkpt lat="46.41223" lon="4.62328">
        <ele>335</ele>
        <time>2021-11-15T16:47:01+01:00</time>
      </trkpt>
      <trkpt lat="46.41094" lon="4.62384">
        <ele>333</ele>
        <time>2021-11-15T16:47:06+01:00</time>
      </trkpt>
      <trkpt lat="46.41047" lon="4.62435">
        <ele>335</ele>
        <time>2021-11-15T16:47:11+01:00</time>
      </trkpt>
      <trkpt lat="46.40873" lon="4.62418">
        <ele>330</ele>
        <time>2021-11-15T16:47:16+01:00</time>
      </trkpt>
      <trkpt lat="46.40734" lon="4.62477">
        <ele>318</ele>
        <time>2021-11-15T16:47:21+01:00</time>
      </trkpt>
      <trkpt lat="46.40677" lon="4.62522">
        <ele>317</ele>
        <time>2021-11-15T16:47:26+01:00</time>
      </trkpt>
      <trkpt lat="46.40577" lon="4.62567">
        <ele>317</ele>
        <time>2021-11-15T16:47:31+01:00</time>
      </trkpt>
      <trkpt lat="46.40546" lon="4.6264">
        <ele>323</ele>
        <time>2021-11-15T16:47:36+01:00</time>
      </trkpt>
      <trkpt lat="46.40412" lon="4.62664">
        <ele>324</ele>
        <time>2021-11-15T16:47:41+01:00</time>
      </trkpt>
      <trkpt lat="46.40276" lon="4.62595">
        <ele>320</ele>
        <time>2021-11-15T16:47:46+01:00</time>
      </trkpt>
      <trkpt lat="46.40057" lon="4.6266">
        <ele>308</ele>
        <time>2021-11-15T16:47:51+01:00</time>
      </trkpt>
      <trkpt lat="46.39957" lon="4.62615">
        <ele>291</ele>
        <time>2021-11-15T16:47:56+01:00</time>
      </trkpt>
      <trkpt lat="46.39871" lon="4.62557">
        <ele>278</ele>
        <time>2021-11-15T16:48:01+01:00</time>
      </trkpt>
      <trkpt lat="46.39818" lon="4.62601">
        <ele>270</ele>
        <time>2021-11-15T16:48:06+01:00</time>
      </trkpt>
      <trkpt lat="46.39759" lon="4.62681">
        <ele>266</ele>
        <time>2021-11-15T16:48:11+01:00</time>
      </trkpt>
      <trkpt lat="46.39568" lon="4.62321">
        <ele>260</ele>
        <time>2021-11-15T16:48:16+01:00</time>
      </trkpt>
      <trkpt lat="46.39553" lon="4.6211">
        <ele>268</ele>
        <time>2021-11-15T16:48:21+01:00</time>
      </trkpt>
      <trkpt lat="46.39501" lon="4.62031">
        <ele>263</ele>
        <time>2021-11-15T16:48:26+01:00</time>
      </trkpt>
      <trkpt lat="46.39169" lon="4.61806">
        <ele>255</ele>
        <time>2021-11-15T16:48:31+01:00</time>
      </trkpt>
      <trkpt lat="46.391" lon="4.61789">
        <ele>254</ele>
        <time>2021-11-15T16:48:36+01:00</time>
      </trkpt>
      <trkpt lat="46.38964" lon="4.6164">
        <ele>260</ele>
        <time>2021-11-15T16:48:41+01:00</time>
      </trkpt>
      <trkpt lat="46.38823" lon="4.6192">
        <ele>263</ele>
        <time>2021-11-15T16:48:46+01:00</time>
      </trkpt>
      <trkpt lat="46.38785" lon="4.61958">
        <ele>264</ele>
        <time>2021-11-15T16:48:51+01:00</time>
      </trkpt>
      <trkpt lat="46.38726" lon="4.62083">
        <ele>270</ele>
        <time>2021-11-15T16:48:56+01:00</time>
      </trkpt>
      <trkpt lat="46.38678" lon="4.62041">
        <ele>271</ele>
        <time>2021-11-15T16:49:01+01:00</time>
      </trkpt>
      <trkpt lat="46.38649" lon="4.62124">
        <ele>279</ele>
        <time>2021-11-15T16:49:06+01:00</time>
      </trkpt>
      <trkpt lat="46.38718" lon="4.62193">
        <ele>277</ele>
        <time>2021-11-15T16:49:11+01:00</time>
      </trkpt>
      <trkpt lat="46.38904" lon="4.62591">
        <ele>292</ele>
        <time>2021-11-15T16:49:16+01:00</time>
      </trkpt>
      <trkpt lat="46.38873" lon="4.62695">
        <ele>308</ele>
        <time>2021-11-15T16:49:21+01:00</time>
      </trkpt>
      <trkpt lat="46.38854" lon="4.62899">
        <ele>310</ele>
        <time>2021-11-15T16:49:26+01:00</time>
      </trkpt>
      <trkpt lat="46.3878" lon="4.62823">
        <ele>324</ele>
        <time>2021-11-15T16:49:31+01:00</time>
      </trkpt>
      <trkpt lat="46.3868" lon="4.62698">
        <ele>342</ele>
        <time>2021-11-15T16:49:36+01:00</time>
      </trkpt>
      <trkpt lat="46.3852" lon="4.6256">
        <ele>356</ele>
        <time>2021-11-15T16:49:41+01:00</time>
      </trkpt>
      <trkpt lat="46.38272" lon="4.6255">
        <ele>372</ele>
        <time>2021-11-15T16:49:46+01:00</time>
      </trkpt>
      <trkpt lat="46.37981" lon="4.62387">
        <ele>405</ele>
        <time>2021-11-15T16:49:51+01:00</time>
      </trkpt>
      <trkpt lat="46.37917" lon="4.62301">
        <ele>414</ele>
        <time>2021-11-15T16:49:56+01:00</time>
      </trkpt>
      <trkpt lat="46.37929" lon="4.62103">
        <ele>418</ele>
        <time>2021-11-15T16:50:01+01:00</time>
      </trkpt>
      <trkpt lat="46.378" lon="4.61875">
        <ele>437</ele>
        <time>2021-11-15T16:50:06+01:00</time>
      </trkpt>
      <trkpt lat="46.37721" lon="4.61671">
        <ele>449</ele>
        <time>2021-11-15T16:50:11+01:00</time>
      </trkpt>
      <trkpt lat="46.37637" lon="4.61605">
        <ele>446</ele>
        <time>2021-11-15T16:50:16+01:00</time>
      </trkpt>
      <trkpt lat="46.37291" lon="4.61584">
        <ele>455</ele>
        <time>2021-11-15T16:50:21+01:00</time>
      </trkpt>
      <trkpt lat="46.37096" lon="4.61501">
        <ele>459</ele>
        <time>2021-11-15T16:50:26+01:00</time>
      </trkpt>
      <trkpt lat="46.3705" lon="4.61429">
        <ele>454</ele>
        <time>2021-11-15T16:50:31+01:00</time>
      </trkpt>
      <trkpt lat="46.36921" lon="4.61332">
        <ele>448</ele>
        <time>2021-11-15T16:50:36+01:00</time>
      </trkpt>
      <trkpt lat="46.36687" lon="4.60979">
        <ele>451</ele>
        <time>2021-11-15T16:50:41+01:00</time>
      </trkpt>
      <trkpt lat="46.36582" lon="4.60889">
        <ele>479</ele>
        <time>2021-11-15T16:50:46+01:00</time>
      </trkpt>
      <trkpt lat="46.36473" lon="4.60661">
        <ele>488</ele>
        <time>2021-11-15T16:50:51+01:00</time>
      </trkpt>
      <trkpt lat="46.36389" lon="4.60623">
        <ele>488</ele>
        <time>2021-11-15T16:50:56+01:00</time>
      </trkpt>
      <trkpt lat="46.3621" lon="4.60554">
        <ele>483</ele>
        <time>2021-11-15T16:51:01+01:00</time>
      </trkpt>
      <trkpt lat="46.3611" lon="4.60564">
        <ele>483</ele>
        <time>2021-11-15T16:51:06+01:00</time>
      </trkpt>
      <trkpt lat="46.36055" lon="4.60567">
        <ele>487</ele>
        <time>2021-11-15T16:51:11+01:00</time>
      </trkpt>
      <trkpt lat="46.36041" lon="4.60637">
        <ele>489</ele>
        <time>2021-11-15T16:51:16+01:00</time>
      </trkpt>
      <trkpt lat="46.35828" lon="4.60585">
        <ele>522</ele>
        <time>2021-11-15T16:51:21+01:00</time>
      </trkpt>
      <trkpt lat="46.35656" lon="4.60395">
        <ele>540</ele>
        <time>2021-11-15T16:51:26+01:00</time>
      </trkpt>
      <trkpt lat="46.35506" lon="4.60294">
        <ele>549</ele>
        <time>2021-11-15T16:51:31+01:00</time>
      </trkpt>
      <trkpt lat="46.35355" lon="4.60273">
        <ele>556</ele>
        <time>2021-11-15T16:51:36+01:00</time>
      </trkpt>
      <trkpt lat="46.35241" lon="4.60173">
        <ele>559</ele>
        <time>2021-11-15T16:51:41+01:00</time>
      </trkpt>
      <trkpt lat="46.35157" lon="4.60187">
        <ele>564</ele>
        <time>2021-11-15T16:51:46+01:00</time>
      </trkpt>
      <trkpt lat="46.34904" lon="4.60017">
        <ele>591</ele>
        <time>2021-11-15T16:51:51+01:00</time>
      </trkpt>
      <trkpt lat="46.34856" lon="4.59948">
        <ele>587</ele>
        <time>2021-11-15T16:51:56+01:00</time>
      </trkpt>
      <trkpt lat="46.34677" lon="4.59768">
        <ele>578</ele>
        <time>2021-11-15T16:52:01+01:00</time>
      </trkpt>
      <trkpt lat="46.34524" lon="4.59723">
        <ele>570</ele>
        <time>2021-11-15T16:52:06+01:00</time>
      </trkpt>
      <trkpt lat="46.34422" lon="4.59627">
        <ele>567</ele>
        <time>2021-11-15T16:52:11+01:00</time>
      </trkpt>
      <trkpt lat="46.34336" lon="4.59499">
        <ele>566</ele>
        <time>2021-11-15T16:52:16+01:00</time>
      </trkpt>
      <trkpt lat="46.34238" lon="4.59471">
        <ele>558</ele>
        <time>2021-11-15T16:52:21+01:00</time>
      </trkpt>
      <trkpt lat="46.34104" lon="4.59519">
        <ele>553</ele>
        <time>2021-11-15T16:52:26+01:00</time>
      </trkpt>
      <trkpt lat="46.33863" lon="4.59495">
        <ele>555</ele>
        <time>2021-11-15T16:52:31+01:00</time>
      </trkpt>
      <trkpt lat="46.33765" lon="4.59454">
        <ele>556</ele>
        <time>2021-11-15T16:52:36+01:00</time>
      </trkpt>
      <trkpt lat="46.33557" lon="4.59481">
        <ele>564</ele>
        <time>2021-11-15T16:52:41+01:00</time>
      </trkpt>
      <trkpt lat="46.33412" lon="4.59398">
        <ele>561</ele>
        <time>2021-11-15T16:52:46+01:00</time>
      </trkpt>
      <trkpt lat="46.33321" lon="4.59346">
        <ele>555</ele>
        <time>2021-11-15T16:52:51+01:00</time>
      </trkpt>
      <trkpt lat="46.33254" lon="4.59239">
        <ele>552</ele>
        <time>2021-11-15T16:52:56+01:00</time>
      </trkpt>
      <trkpt lat="46.33118" lon="4.5925">
        <ele>555</ele>
        <time>2021-11-15T16:53:01+01:00</time>
      </trkpt>
      <trkpt lat="46.33017" lon="4.59194">
        <ele>556</ele>
        <time>2021-11-15T16:53:06+01:00</time>
      </trkpt>
      <trkpt lat="46.32951" lon="4.59229">
        <ele>556</ele>
        <time>2021-11-15T16:53:11+01:00</time>
      </trkpt>
      <trkpt lat="46.32879" lon="4.59163">
        <ele>554</ele>
        <time>2021-11-15T16:53:16+01:00</time>
      </trkpt>
      <trkpt lat="46.32743" lon="4.59167">
        <ele>549</ele>
        <time>2021-11-15T16:53:21+01:00</time>
      </trkpt>
      <trkpt lat="46.32611" lon="4.59198">
        <ele>545</ele>
        <time>2021-11-15T16:53:26+01:00</time>
      </trkpt>
      <trkpt lat="46.3253" lon="4.5916">
        <ele>550</ele>
        <time>2021-11-15T16:53:31+01:00</time>
      </trkpt>
      <trkpt lat="46.32332" lon="4.59215">
        <ele>553</ele>
        <time>2021-11-15T16:53:36+01:00</time>
      </trkpt>
      <trkpt lat="46.32272" lon="4.59301">
        <ele>546</ele>
        <time>2021-11-15T16:53:41+01:00</time>
      </trkpt>
      <trkpt lat="46.32184" lon="4.59343">
        <ele>542</ele>
        <time>2021-11-15T16:53:46+01:00</time>
      </trkpt>
      <trkpt lat="46.32105" lon="4.59267">
        <ele>555</ele>
        <time>2021-11-15T16:53:51+01:00</time>
      </trkpt>
      <trkpt lat="46.31985" lon="4.5907">
        <ele>551</ele>
        <time>2021-11-15T16:53:56+01:00</time>
      </trkpt>
      <trkpt lat="46.31899" lon="4.59049">
        <ele>534</ele>
        <time>2021-11-15T16:54:01+01:00</time>
      </trkpt>
      <trkpt lat="46.31778" lon="4.59111">
        <ele>530</ele>
        <time>2021-11-15T16:54:06+01:00</time>
      </trkpt>
      <trkpt lat="46.31529" lon="4.59218">
        <ele>528</ele>
        <time>2021-11-15T16:54:11+01:00</time>
      </trkpt>
      <trkpt lat="46.31431" lon="4.59308">
        <ele>532</ele>
        <time>2021-11-15T16:54:16+01:00</time>
      </trkpt>
      <trkpt lat="46.31393" lon="4.59471">
        <ele>527</ele>
        <time>2021-11-15T16:54:21+01:00</time>
      </trkpt>
      <trkpt lat="46.31374" lon="4.59699">
        <ele>513</ele>
        <time>2021-11-15T16:54:26+01:00</time>
      </trkpt>
      <trkpt lat="46.31235" lon="4.5982">
        <ele>504</ele>
        <time>2021-11-15T16:54:31+01:00</time>
      </trkpt>
      <trkpt lat="46.31189" lon="4.59858">
        <ele>499</ele>
        <time>2021-11-15T16:54:36+01:00</time>
      </trkpt>
      <trkpt lat="46.31106" lon="4.59881">
        <ele>495</ele>
        <time>2021-11-15T16:54:41+01:00</time>
      </trkpt>
      <trkpt lat="46.31035" lon="4.59922">
        <ele>485</ele>
        <time>2021-11-15T16:54:46+01:00</time>
      </trkpt>
      <trkpt lat="46.30885" lon="4.59935">
        <ele>477</ele>
        <time>2021-11-15T16:54:51+01:00</time>
      </trkpt>
      <trkpt lat="46.30798" lon="4.59987">
        <ele>470</ele>
        <time>2021-11-15T16:54:56+01:00</time>
      </trkpt>
      <trkpt lat="46.3077" lon="4.60052">
        <ele>466</ele>
        <time>2021-11-15T16:55:01+01:00</time>
      </trkpt>
      <trkpt lat="46.30749" lon="4.60219">
        <ele>466</ele>
        <time>2021-11-15T16:55:06+01:00</time>
      </trkpt>
      <trkpt lat="46.30682" lon="4.60255">
        <ele>468</ele>
        <time>2021-11-15T16:55:11+01:00</time>
      </trkpt>
      <trkpt lat="46.30651" lon="4.60238">
        <ele>468</ele>
        <time>2021-11-15T16:55:16+01:00</time>
      </trkpt>
    </trkseg>
  </trk>
  <trk>
    <name><![CDATA[35 - TRAMAYES PREPIERES 23.6 KM]]></name>
    <extensions>
      <line xmlns="http://www.topografix.com/GPX/gpx_style/0/2">
        <color>008888</color>
        <width>4</width>
      </line>
    </extensions>
    <trkseg>
      <trkpt lat="46.30768" lon="4.60053">
        <ele>466</ele>
        <time>2021-11-17T19:15:47+01:00</time>
      </trkpt>
      <trkpt lat="46.30813" lon="4.59981">
        <ele>472</ele>
        <time>2021-11-17T19:15:52+01:00</time>
      </trkpt>
      <trkpt lat="46.30806" lon="4.59745">
        <ele>494</ele>
        <time>2021-11-17T19:15:57+01:00</time>
      </trkpt>
      <trkpt lat="46.30873" lon="4.59517">
        <ele>514</ele>
        <time>2021-11-17T19:16:02+01:00</time>
      </trkpt>
      <trkpt lat="46.30831" lon="4.59347">
        <ele>524</ele>
        <time>2021-11-17T19:16:07+01:00</time>
      </trkpt>
      <trkpt lat="46.3081" lon="4.59137">
        <ele>518</ele>
        <time>2021-11-17T19:16:12+01:00</time>
      </trkpt>
      <trkpt lat="46.30781" lon="4.58949">
        <ele>508</ele>
        <time>2021-11-17T19:16:17+01:00</time>
      </trkpt>
      <trkpt lat="46.30753" lon="4.58893">
        <ele>499</ele>
        <time>2021-11-17T19:16:22+01:00</time>
      </trkpt>
      <trkpt lat="46.3076" lon="4.588">
        <ele>496</ele>
        <time>2021-11-17T19:16:27+01:00</time>
      </trkpt>
      <trkpt lat="46.30741" lon="4.58706">
        <ele>486</ele>
        <time>2021-11-17T19:16:32+01:00</time>
      </trkpt>
      <trkpt lat="46.30711" lon="4.58627">
        <ele>477</ele>
        <time>2021-11-17T19:16:37+01:00</time>
      </trkpt>
      <trkpt lat="46.30705" lon="4.58566">
        <ele>473</ele>
        <time>2021-11-17T19:16:42+01:00</time>
      </trkpt>
      <trkpt lat="46.30675" lon="4.58433">
        <ele>460</ele>
        <time>2021-11-17T19:16:47+01:00</time>
      </trkpt>
      <trkpt lat="46.30662" lon="4.58287">
        <ele>448</ele>
        <time>2021-11-17T19:16:52+01:00</time>
      </trkpt>
      <trkpt lat="46.30689" lon="4.58202">
        <ele>441</ele>
        <time>2021-11-17T19:16:57+01:00</time>
      </trkpt>
      <trkpt lat="46.30621" lon="4.58165">
        <ele>428</ele>
        <time>2021-11-17T19:17:02+01:00</time>
      </trkpt>
      <trkpt lat="46.30582" lon="4.58026">
        <ele>415</ele>
        <time>2021-11-17T19:17:07+01:00</time>
      </trkpt>
      <trkpt lat="46.30551" lon="4.57864">
        <ele>407</ele>
        <time>2021-11-17T19:17:12+01:00</time>
      </trkpt>
      <trkpt lat="46.30532" lon="4.57805">
        <ele>408</ele>
        <time>2021-11-17T19:17:17+01:00</time>
      </trkpt>
      <trkpt lat="46.30486" lon="4.57738">
        <ele>410</ele>
        <time>2021-11-17T19:17:22+01:00</time>
      </trkpt>
      <trkpt lat="46.30456" lon="4.57539">
        <ele>405</ele>
        <time>2021-11-17T19:17:27+01:00</time>
      </trkpt>
      <trkpt lat="46.30423" lon="4.57433">
        <ele>400</ele>
        <time>2021-11-17T19:17:32+01:00</time>
      </trkpt>
      <trkpt lat="46.30423" lon="4.57365">
        <ele>395</ele>
        <time>2021-11-17T19:17:37+01:00</time>
      </trkpt>
      <trkpt lat="46.30434" lon="4.57206">
        <ele>381</ele>
        <time>2021-11-17T19:17:42+01:00</time>
      </trkpt>
      <trkpt lat="46.3042" lon="4.57086">
        <ele>369</ele>
        <time>2021-11-17T19:17:47+01:00</time>
      </trkpt>
      <trkpt lat="46.30386" lon="4.56956">
        <ele>360</ele>
        <time>2021-11-17T19:17:52+01:00</time>
      </trkpt>
      <trkpt lat="46.30351" lon="4.56893">
        <ele>352</ele>
        <time>2021-11-17T19:17:57+01:00</time>
      </trkpt>
      <trkpt lat="46.30404" lon="4.56637">
        <ele>331</ele>
        <time>2021-11-17T19:18:02+01:00</time>
      </trkpt>
      <trkpt lat="46.30401" lon="4.56514">
        <ele>320</ele>
        <time>2021-11-17T19:18:07+01:00</time>
      </trkpt>
      <trkpt lat="46.30383" lon="4.5632">
        <ele>322</ele>
        <time>2021-11-17T19:18:12+01:00</time>
      </trkpt>
      <trkpt lat="46.30366" lon="4.56155">
        <ele>328</ele>
        <time>2021-11-17T19:18:17+01:00</time>
      </trkpt>
      <trkpt lat="46.30309" lon="4.56">
        <ele>337</ele>
        <time>2021-11-17T19:18:22+01:00</time>
      </trkpt>
      <trkpt lat="46.30309" lon="4.55884">
        <ele>340</ele>
        <time>2021-11-17T19:18:27+01:00</time>
      </trkpt>
      <trkpt lat="46.30154" lon="4.55519">
        <ele>342</ele>
        <time>2021-11-17T19:18:32+01:00</time>
      </trkpt>
      <trkpt lat="46.29996" lon="4.55324">
        <ele>345</ele>
        <time>2021-11-17T19:18:37+01:00</time>
      </trkpt>
      <trkpt lat="46.29358" lon="4.5443">
        <ele>344</ele>
        <time>2021-11-17T19:18:42+01:00</time>
      </trkpt>
      <trkpt lat="46.29279" lon="4.54421">
        <ele>349</ele>
        <time>2021-11-17T19:18:47+01:00</time>
      </trkpt>
      <trkpt lat="46.29208" lon="4.54394">
        <ele>352</ele>
        <time>2021-11-17T19:18:52+01:00</time>
      </trkpt>
      <trkpt lat="46.29059" lon="4.54118">
        <ele>355</ele>
        <time>2021-11-17T19:18:57+01:00</time>
      </trkpt>
      <trkpt lat="46.28941" lon="4.53974">
        <ele>360</ele>
        <time>2021-11-17T19:19:02+01:00</time>
      </trkpt>
      <trkpt lat="46.2881" lon="4.53895">
        <ele>360</ele>
        <time>2021-11-17T19:19:07+01:00</time>
      </trkpt>
      <trkpt lat="46.28684" lon="4.53779">
        <ele>358</ele>
        <time>2021-11-17T19:19:12+01:00</time>
      </trkpt>
      <trkpt lat="46.28594" lon="4.53665">
        <ele>360</ele>
        <time>2021-11-17T19:19:17+01:00</time>
      </trkpt>
      <trkpt lat="46.28558" lon="4.53593">
        <ele>360</ele>
        <time>2021-11-17T19:19:22+01:00</time>
      </trkpt>
      <trkpt lat="46.28511" lon="4.5362">
        <ele>365</ele>
        <time>2021-11-17T19:19:27+01:00</time>
      </trkpt>
      <trkpt lat="46.2848" lon="4.53509">
        <ele>369</ele>
        <time>2021-11-17T19:19:32+01:00</time>
      </trkpt>
      <trkpt lat="46.28469" lon="4.53402">
        <ele>375</ele>
        <time>2021-11-17T19:19:37+01:00</time>
      </trkpt>
      <trkpt lat="46.28425" lon="4.53509">
        <ele>379</ele>
        <time>2021-11-17T19:19:42+01:00</time>
      </trkpt>
      <trkpt lat="46.28386" lon="4.53504">
        <ele>387</ele>
        <time>2021-11-17T19:19:47+01:00</time>
      </trkpt>
      <trkpt lat="46.2829" lon="4.53408">
        <ele>410</ele>
        <time>2021-11-17T19:19:52+01:00</time>
      </trkpt>
      <trkpt lat="46.28204" lon="4.53363">
        <ele>422</ele>
        <time>2021-11-17T19:19:57+01:00</time>
      </trkpt>
      <trkpt lat="46.28128" lon="4.53236">
        <ele>439</ele>
        <time>2021-11-17T19:20:02+01:00</time>
      </trkpt>
      <trkpt lat="46.28023" lon="4.53172">
        <ele>455</ele>
        <time>2021-11-17T19:20:07+01:00</time>
      </trkpt>
      <trkpt lat="46.27955" lon="4.53058">
        <ele>468</ele>
        <time>2021-11-17T19:20:12+01:00</time>
      </trkpt>
      <trkpt lat="46.27823" lon="4.52962">
        <ele>477</ele>
        <time>2021-11-17T19:20:17+01:00</time>
      </trkpt>
      <trkpt lat="46.27793" lon="4.52985">
        <ele>473</ele>
        <time>2021-11-17T19:20:22+01:00</time>
      </trkpt>
      <trkpt lat="46.27683" lon="4.52842">
        <ele>477</ele>
        <time>2021-11-17T19:20:27+01:00</time>
      </trkpt>
      <trkpt lat="46.27669" lon="4.52809">
        <ele>478</ele>
        <time>2021-11-17T19:20:32+01:00</time>
      </trkpt>
      <trkpt lat="46.2767" lon="4.52771">
        <ele>482</ele>
        <time>2021-11-17T19:20:37+01:00</time>
      </trkpt>
      <trkpt lat="46.27612" lon="4.52747">
        <ele>488</ele>
        <time>2021-11-17T19:20:42+01:00</time>
      </trkpt>
      <trkpt lat="46.27618" lon="4.52696">
        <ele>495</ele>
        <time>2021-11-17T19:20:47+01:00</time>
      </trkpt>
      <trkpt lat="46.27531" lon="4.52556">
        <ele>519</ele>
        <time>2021-11-17T19:20:52+01:00</time>
      </trkpt>
      <trkpt lat="46.27481" lon="4.52368">
        <ele>549</ele>
        <time>2021-11-17T19:20:57+01:00</time>
      </trkpt>
      <trkpt lat="46.27329" lon="4.52189">
        <ele>574</ele>
        <time>2021-11-17T19:21:02+01:00</time>
      </trkpt>
      <trkpt lat="46.2724" lon="4.52136">
        <ele>578</ele>
        <time>2021-11-17T19:21:07+01:00</time>
      </trkpt>
      <trkpt lat="46.2716" lon="4.52144">
        <ele>581</ele>
        <time>2021-11-17T19:21:12+01:00</time>
      </trkpt>
      <trkpt lat="46.27065" lon="4.52118">
        <ele>587</ele>
        <time>2021-11-17T19:21:17+01:00</time>
      </trkpt>
      <trkpt lat="46.26952" lon="4.51975">
        <ele>614</ele>
        <time>2021-11-17T19:21:22+01:00</time>
      </trkpt>
      <trkpt lat="46.26912" lon="4.51904">
        <ele>620</ele>
        <time>2021-11-17T19:21:27+01:00</time>
      </trkpt>
      <trkpt lat="46.26847" lon="4.51857">
        <ele>614</ele>
        <time>2021-11-17T19:21:32+01:00</time>
      </trkpt>
      <trkpt lat="46.26776" lon="4.51734">
        <ele>615</ele>
        <time>2021-11-17T19:21:37+01:00</time>
      </trkpt>
      <trkpt lat="46.26743" lon="4.51651">
        <ele>625</ele>
        <time>2021-11-17T19:21:42+01:00</time>
      </trkpt>
      <trkpt lat="46.26363" lon="4.51148">
        <ele>623</ele>
        <time>2021-11-17T19:21:47+01:00</time>
      </trkpt>
      <trkpt lat="46.26325" lon="4.51071">
        <ele>620</ele>
        <time>2021-11-17T19:21:52+01:00</time>
      </trkpt>
      <trkpt lat="46.26243" lon="4.51056">
        <ele>614</ele>
        <time>2021-11-17T19:21:57+01:00</time>
      </trkpt>
      <trkpt lat="46.26175" lon="4.51007">
        <ele>609</ele>
        <time>2021-11-17T19:22:02+01:00</time>
      </trkpt>
      <trkpt lat="46.26064" lon="4.51058">
        <ele>611</ele>
        <time>2021-11-17T19:22:07+01:00</time>
      </trkpt>
      <trkpt lat="46.25831" lon="4.51015">
        <ele>629</ele>
        <time>2021-11-17T19:22:12+01:00</time>
      </trkpt>
      <trkpt lat="46.2578" lon="4.50861">
        <ele>640</ele>
        <time>2021-11-17T19:22:17+01:00</time>
      </trkpt>
      <trkpt lat="46.25777" lon="4.50794">
        <ele>647</ele>
        <time>2021-11-17T19:22:22+01:00</time>
      </trkpt>
      <trkpt lat="46.257" lon="4.50726">
        <ele>653</ele>
        <time>2021-11-17T19:22:27+01:00</time>
      </trkpt>
      <trkpt lat="46.25648" lon="4.50612">
        <ele>661</ele>
        <time>2021-11-17T19:22:32+01:00</time>
      </trkpt>
      <trkpt lat="46.2554" lon="4.5049">
        <ele>678</ele>
        <time>2021-11-17T19:22:37+01:00</time>
      </trkpt>
      <trkpt lat="46.25415" lon="4.50419">
        <ele>675</ele>
        <time>2021-11-17T19:22:42+01:00</time>
      </trkpt>
      <trkpt lat="46.25216" lon="4.50149">
        <ele>683</ele>
        <time>2021-11-17T19:22:47+01:00</time>
      </trkpt>
      <trkpt lat="46.25185" lon="4.50058">
        <ele>690</ele>
        <time>2021-11-17T19:22:52+01:00</time>
      </trkpt>
      <trkpt lat="46.25118" lon="4.49953">
        <ele>696</ele>
        <time>2021-11-17T19:22:57+01:00</time>
      </trkpt>
      <trkpt lat="46.25056" lon="4.49848">
        <ele>704</ele>
        <time>2021-11-17T19:23:02+01:00</time>
      </trkpt>
      <trkpt lat="46.25025" lon="4.49758">
        <ele>707</ele>
        <time>2021-11-17T19:23:07+01:00</time>
      </trkpt>
      <trkpt lat="46.25006" lon="4.49692">
        <ele>704</ele>
        <time>2021-11-17T19:23:12+01:00</time>
      </trkpt>
      <trkpt lat="46.24804" lon="4.49574">
        <ele>706</ele>
        <time>2021-11-17T19:23:17+01:00</time>
      </trkpt>
      <trkpt lat="46.2473" lon="4.49413">
        <ele>698</ele>
        <time>2021-11-17T19:23:22+01:00</time>
      </trkpt>
      <trkpt lat="46.2465" lon="4.49337">
        <ele>706</ele>
        <time>2021-11-17T19:23:27+01:00</time>
      </trkpt>
      <trkpt lat="46.24648" lon="4.49269">
        <ele>704</ele>
        <time>2021-11-17T19:23:32+01:00</time>
      </trkpt>
      <trkpt lat="46.24673" lon="4.49179">
        <ele>695</ele>
        <time>2021-11-17T19:23:37+01:00</time>
      </trkpt>
      <trkpt lat="46.24658" lon="4.48835">
        <ele>693</ele>
        <time>2021-11-17T19:23:42+01:00</time>
      </trkpt>
      <trkpt lat="46.24455" lon="4.48617">
        <ele>689</ele>
        <time>2021-11-17T19:23:47+01:00</time>
      </trkpt>
      <trkpt lat="46.24427" lon="4.48539">
        <ele>692</ele>
        <time>2021-11-17T19:23:52+01:00</time>
      </trkpt>
      <trkpt lat="46.24463" lon="4.48447">
        <ele>677</ele>
        <time>2021-11-17T19:23:57+01:00</time>
      </trkpt>
      <trkpt lat="46.24332" lon="4.48054">
        <ele>660</ele>
        <time>2021-11-17T19:24:02+01:00</time>
      </trkpt>
      <trkpt lat="46.24265" lon="4.4784">
        <ele>652</ele>
        <time>2021-11-17T19:24:07+01:00</time>
      </trkpt>
      <trkpt lat="46.2424" lon="4.47679">
        <ele>650</ele>
        <time>2021-11-17T19:24:12+01:00</time>
      </trkpt>
      <trkpt lat="46.24136" lon="4.47927">
        <ele>670</ele>
        <time>2021-11-17T19:24:17+01:00</time>
      </trkpt>
      <trkpt lat="46.24056" lon="4.48005">
        <ele>693</ele>
        <time>2021-11-17T19:24:22+01:00</time>
      </trkpt>
      <trkpt lat="46.23913" lon="4.48009">
        <ele>714</ele>
        <time>2021-11-17T19:24:27+01:00</time>
      </trkpt>
      <trkpt lat="46.2381" lon="4.48142">
        <ele>726</ele>
        <time>2021-11-17T19:24:32+01:00</time>
      </trkpt>
      <trkpt lat="46.23709" lon="4.48438">
        <ele>734</ele>
        <time>2021-11-17T19:24:37+01:00</time>
      </trkpt>
      <trkpt lat="46.23537" lon="4.4864">
        <ele>734</ele>
        <time>2021-11-17T19:24:42+01:00</time>
      </trkpt>
      <trkpt lat="46.2335" lon="4.48773">
        <ele>729</ele>
        <time>2021-11-17T19:24:47+01:00</time>
      </trkpt>
      <trkpt lat="46.23305" lon="4.4873">
        <ele>732</ele>
        <time>2021-11-17T19:24:52+01:00</time>
      </trkpt>
      <trkpt lat="46.23106" lon="4.48657">
        <ele>754</ele>
        <time>2021-11-17T19:24:57+01:00</time>
      </trkpt>
      <trkpt lat="46.22928" lon="4.48648">
        <ele>772</ele>
        <time>2021-11-17T19:25:02+01:00</time>
      </trkpt>
      <trkpt lat="46.2283" lon="4.48571">
        <ele>789</ele>
        <time>2021-11-17T19:25:07+01:00</time>
      </trkpt>
      <trkpt lat="46.22753" lon="4.48593">
        <ele>801</ele>
        <time>2021-11-17T19:25:12+01:00</time>
      </trkpt>
      <trkpt lat="46.22726" lon="4.48576">
        <ele>803</ele>
        <time>2021-11-17T19:25:17+01:00</time>
      </trkpt>
      <trkpt lat="46.2269" lon="4.48511">
        <ele>807</ele>
        <time>2021-11-17T19:25:22+01:00</time>
      </trkpt>
      <trkpt lat="46.22503" lon="4.48344">
        <ele>827</ele>
        <time>2021-11-17T19:25:27+01:00</time>
      </trkpt>
      <trkpt lat="46.22367" lon="4.48133">
        <ele>837</ele>
        <time>2021-11-17T19:25:32+01:00</time>
      </trkpt>
      <trkpt lat="46.22257" lon="4.48095">
        <ele>839</ele>
        <time>2021-11-17T19:25:37+01:00</time>
      </trkpt>
      <trkpt lat="46.22022" lon="4.48129">
        <ele>866</ele>
        <time>2021-11-17T19:25:42+01:00</time>
      </trkpt>
      <trkpt lat="46.21714" lon="4.48078">
        <ele>892</ele>
        <time>2021-11-17T19:25:47+01:00</time>
      </trkpt>
      <trkpt lat="46.21485" lon="4.48142">
        <ele>898</ele>
        <time>2021-11-17T19:25:52+01:00</time>
      </trkpt>
      <trkpt lat="46.21405" lon="4.48189">
        <ele>905</ele>
        <time>2021-11-17T19:25:57+01:00</time>
      </trkpt>
      <trkpt lat="46.21292" lon="4.48331">
        <ele>904</ele>
        <time>2021-11-17T19:26:02+01:00</time>
      </trkpt>
      <trkpt lat="46.21051" lon="4.4843">
        <ele>918</ele>
        <time>2021-11-17T19:26:07+01:00</time>
      </trkpt>
      <trkpt lat="46.20811" lon="4.48318">
        <ele>939</ele>
        <time>2021-11-17T19:26:12+01:00</time>
      </trkpt>
      <trkpt lat="46.2046" lon="4.48627">
        <ele>949</ele>
        <time>2021-11-17T19:26:17+01:00</time>
      </trkpt>
      <trkpt lat="46.20229" lon="4.48558">
        <ele>961</ele>
        <time>2021-11-17T19:26:22+01:00</time>
      </trkpt>
      <trkpt lat="46.20143" lon="4.48576">
        <ele>962</ele>
        <time>2021-11-17T19:26:27+01:00</time>
      </trkpt>
      <trkpt lat="46.20095" lon="4.48618">
        <ele>966</ele>
        <time>2021-11-17T19:26:32+01:00</time>
      </trkpt>
      <trkpt lat="46.20024" lon="4.4858">
        <ele>967</ele>
        <time>2021-11-17T19:26:37+01:00</time>
      </trkpt>
      <trkpt lat="46.19929" lon="4.48318">
        <ele>938</ele>
        <time>2021-11-17T19:26:42+01:00</time>
      </trkpt>
      <trkpt lat="46.19756" lon="4.48138">
        <ele>915</ele>
        <time>2021-11-17T19:26:47+01:00</time>
      </trkpt>
      <trkpt lat="46.1978" lon="4.47936">
        <ele>908</ele>
        <time>2021-11-17T19:26:52+01:00</time>
      </trkpt>
      <trkpt lat="46.19938" lon="4.47782">
        <ele>905</ele>
        <time>2021-11-17T19:26:57+01:00</time>
      </trkpt>
      <trkpt lat="46.19991" lon="4.47584">
        <ele>888</ele>
        <time>2021-11-17T19:27:02+01:00</time>
      </trkpt>
      <trkpt lat="46.20012" lon="4.47408">
        <ele>871</ele>
        <time>2021-11-17T19:27:07+01:00</time>
      </trkpt>
      <trkpt lat="46.19843" lon="4.47164">
        <ele>846</ele>
        <time>2021-11-17T19:27:12+01:00</time>
      </trkpt>
      <trkpt lat="46.19712" lon="4.47099">
        <ele>831</ele>
        <time>2021-11-17T19:27:17+01:00</time>
      </trkpt>
      <trkpt lat="46.1956" lon="4.46889">
        <ele>808</ele>
        <time>2021-11-17T19:27:22+01:00</time>
      </trkpt>
      <trkpt lat="46.19635" lon="4.46674">
        <ele>771</ele>
        <time>2021-11-17T19:27:27+01:00</time>
      </trkpt>
      <trkpt lat="46.19587" lon="4.46447">
        <ele>758</ele>
        <time>2021-11-17T19:27:32+01:00</time>
      </trkpt>
      <trkpt lat="46.19605" lon="4.46365">
        <ele>741</ele>
        <time>2021-11-17T19:27:37+01:00</time>
      </trkpt>
      <trkpt lat="46.19638" lon="4.46305">
        <ele>725</ele>
        <time>2021-11-17T19:27:42+01:00</time>
      </trkpt>
      <trkpt lat="46.19626" lon="4.46125">
        <ele>708</ele>
        <time>2021-11-17T19:27:47+01:00</time>
      </trkpt>
      <trkpt lat="46.1962" lon="4.45992">
        <ele>691</ele>
        <time>2021-11-17T19:27:52+01:00</time>
      </trkpt>
      <trkpt lat="46.19638" lon="4.45906">
        <ele>682</ele>
        <time>2021-11-17T19:27:57+01:00</time>
      </trkpt>
      <trkpt lat="46.19614" lon="4.4582">
        <ele>680</ele>
        <time>2021-11-17T19:28:02+01:00</time>
      </trkpt>
      <trkpt lat="46.1956" lon="4.45554">
        <ele>666</ele>
        <time>2021-11-17T19:28:07+01:00</time>
      </trkpt>
      <trkpt lat="46.1929" lon="4.45228">
        <ele>634</ele>
        <time>2021-11-17T19:28:12+01:00</time>
      </trkpt>
      <trkpt lat="46.19323" lon="4.45086">
        <ele>619</ele>
        <time>2021-11-17T19:28:17+01:00</time>
      </trkpt>
      <trkpt lat="46.19352" lon="4.45018">
        <ele>616</ele>
        <time>2021-11-17T19:28:22+01:00</time>
      </trkpt>
      <trkpt lat="46.19349" lon="4.44928">
        <ele>617</ele>
        <time>2021-11-17T19:28:27+01:00</time>
      </trkpt>
      <trkpt lat="46.1937" lon="4.44885">
        <ele>616</ele>
        <time>2021-11-17T19:28:32+01:00</time>
      </trkpt>
      <trkpt lat="46.19361" lon="4.44808">
        <ele>621</ele>
        <time>2021-11-17T19:28:37+01:00</time>
      </trkpt>
      <trkpt lat="46.19409" lon="4.44554">
        <ele>630</ele>
        <time>2021-11-17T19:28:42+01:00</time>
      </trkpt>
      <trkpt lat="46.19287" lon="4.44366">
        <ele>632</ele>
        <time>2021-11-17T19:28:47+01:00</time>
      </trkpt>
      <trkpt lat="46.19274" lon="4.44179">
        <ele>633</ele>
        <time>2021-11-17T19:28:52+01:00</time>
      </trkpt>
      <trkpt lat="46.19248" lon="4.44085">
        <ele>638</ele>
        <time>2021-11-17T19:28:57+01:00</time>
      </trkpt>
      <trkpt lat="46.19207" lon="4.43993">
        <ele>648</ele>
        <time>2021-11-17T19:29:02+01:00</time>
      </trkpt>
      <trkpt lat="46.19192" lon="4.43819">
        <ele>660</ele>
        <time>2021-11-17T19:29:07+01:00</time>
      </trkpt>
      <trkpt lat="46.19194" lon="4.43738">
        <ele>658</ele>
        <time>2021-11-17T19:29:12+01:00</time>
      </trkpt>
      <trkpt lat="46.19198" lon="4.43709">
        <ele>657</ele>
        <time>2021-11-17T19:29:17+01:00</time>
      </trkpt>
      <trkpt lat="46.1916" lon="4.43706">
        <ele>657</ele>
        <time>2021-11-17T19:29:22+01:00</time>
      </trkpt>
      <trkpt lat="46.19139" lon="4.43679">
        <ele>655</ele>
        <time>2021-11-17T19:29:27+01:00</time>
      </trkpt>
    </trkseg>
  </trk>
  <trk>
    <name><![CDATA[36 - PROPIERES CUBLIZE 25.3 KM]]></name>
    <extensions>
      <line xmlns="http://www.topografix.com/GPX/gpx_style/0/2">
        <color>888800</color>
        <width>4</width>
      </line>
    </extensions>
    <trkseg>
      <trkpt lat="46.19125" lon="4.43671">
        <ele>654</ele>
      </trkpt>
      <trkpt lat="46.18846" lon="4.43501">
        <ele>618</ele>
      </trkpt>
      <trkpt lat="46.18743" lon="4.43421">
        <ele>604</ele>
      </trkpt>
      <trkpt lat="46.18656" lon="4.43379">
        <ele>598</ele>
      </trkpt>
      <trkpt lat="46.1861" lon="4.43302">
        <ele>587</ele>
      </trkpt>
      <trkpt lat="46.18467" lon="4.43166">
        <ele>570</ele>
      </trkpt>
      <trkpt lat="46.18334" lon="4.43137">
        <ele>574</ele>
      </trkpt>
      <trkpt lat="46.18201" lon="4.43192">
        <ele>580</ele>
      </trkpt>
      <trkpt lat="46.18079" lon="4.43168">
        <ele>573</ele>
      </trkpt>
      <trkpt lat="46.18025" lon="4.43099">
        <ele>574</ele>
      </trkpt>
      <trkpt lat="46.17917" lon="4.43143">
        <ele>579</ele>
      </trkpt>
      <trkpt lat="46.17832" lon="4.43263">
        <ele>592</ele>
      </trkpt>
      <trkpt lat="46.17657" lon="4.43375">
        <ele>617</ele>
      </trkpt>
      <trkpt lat="46.17579" lon="4.43463">
        <ele>627</ele>
      </trkpt>
      <trkpt lat="46.17445" lon="4.43534">
        <ele>642</ele>
      </trkpt>
      <trkpt lat="46.17289" lon="4.43627">
        <ele>652</ele>
      </trkpt>
      <trkpt lat="46.17167" lon="4.43677">
        <ele>664</ele>
      </trkpt>
      <trkpt lat="46.17097" lon="4.43754">
        <ele>673</ele>
      </trkpt>
      <trkpt lat="46.17017" lon="4.43821">
        <ele>689</ele>
      </trkpt>
      <trkpt lat="46.16917" lon="4.44024">
        <ele>707</ele>
      </trkpt>
      <trkpt lat="46.16828" lon="4.44092">
        <ele>714</ele>
      </trkpt>
      <trkpt lat="46.1678" lon="4.4413">
        <ele>714</ele>
      </trkpt>
      <trkpt lat="46.16734" lon="4.44068">
        <ele>713</ele>
      </trkpt>
      <trkpt lat="46.16757" lon="4.43868">
        <ele>720</ele>
      </trkpt>
      <trkpt lat="46.16469" lon="4.43724">
        <ele>747</ele>
      </trkpt>
      <trkpt lat="46.16178" lon="4.43583">
        <ele>754</ele>
      </trkpt>
      <trkpt lat="46.15949" lon="4.43472">
        <ele>745</ele>
      </trkpt>
      <trkpt lat="46.15749" lon="4.43337">
        <ele>724</ele>
      </trkpt>
      <trkpt lat="46.15541" lon="4.43144">
        <ele>705</ele>
      </trkpt>
      <trkpt lat="46.15307" lon="4.42885">
        <ele>702</ele>
      </trkpt>
      <trkpt lat="46.1513" lon="4.42721">
        <ele>709</ele>
      </trkpt>
      <trkpt lat="46.15053" lon="4.42685">
        <ele>706</ele>
      </trkpt>
      <trkpt lat="46.14887" lon="4.42492">
        <ele>718</ele>
      </trkpt>
      <trkpt lat="46.14792" lon="4.42548">
        <ele>728</ele>
      </trkpt>
      <trkpt lat="46.14703" lon="4.42571">
        <ele>746</ele>
      </trkpt>
      <trkpt lat="46.14637" lon="4.42607">
        <ele>758</ele>
      </trkpt>
      <trkpt lat="46.14508" lon="4.42584">
        <ele>776</ele>
      </trkpt>
      <trkpt lat="46.14376" lon="4.42453">
        <ele>778</ele>
      </trkpt>
      <trkpt lat="46.14265" lon="4.42302">
        <ele>765</ele>
      </trkpt>
      <trkpt lat="46.14272" lon="4.42214">
        <ele>760</ele>
      </trkpt>
      <trkpt lat="46.14161" lon="4.4205">
        <ele>764</ele>
      </trkpt>
      <trkpt lat="46.14095" lon="4.42011">
        <ele>766</ele>
      </trkpt>
      <trkpt lat="46.14009" lon="4.41834">
        <ele>792</ele>
      </trkpt>
      <trkpt lat="46.13877" lon="4.41693">
        <ele>822</ele>
      </trkpt>
      <trkpt lat="46.13807" lon="4.41758">
        <ele>834</ele>
      </trkpt>
      <trkpt lat="46.13571" lon="4.41732">
        <ele>869</ele>
      </trkpt>
      <trkpt lat="46.13493" lon="4.41696">
        <ele>872</ele>
      </trkpt>
      <trkpt lat="46.13378" lon="4.41965">
        <ele>876</ele>
      </trkpt>
      <trkpt lat="46.13273" lon="4.42158">
        <ele>860</ele>
      </trkpt>
      <trkpt lat="46.13139" lon="4.42286">
        <ele>857</ele>
      </trkpt>
      <trkpt lat="46.12728" lon="4.42551">
        <ele>877</ele>
      </trkpt>
      <trkpt lat="46.1266" lon="4.42571">
        <ele>875</ele>
      </trkpt>
      <trkpt lat="46.12458" lon="4.42748">
        <ele>875</ele>
      </trkpt>
      <trkpt lat="46.12386" lon="4.4283">
        <ele>871</ele>
      </trkpt>
      <trkpt lat="46.12206" lon="4.42944">
        <ele>886</ele>
      </trkpt>
      <trkpt lat="46.12054" lon="4.43108">
        <ele>900</ele>
      </trkpt>
      <trkpt lat="46.11986" lon="4.43134">
        <ele>898</ele>
      </trkpt>
      <trkpt lat="46.11875" lon="4.43121">
        <ele>893</ele>
      </trkpt>
      <trkpt lat="46.11738" lon="4.43183">
        <ele>884</ele>
      </trkpt>
      <trkpt lat="46.11518" lon="4.43036">
        <ele>888</ele>
      </trkpt>
      <trkpt lat="46.11371" lon="4.43006">
        <ele>897</ele>
      </trkpt>
      <trkpt lat="46.11255" lon="4.43039">
        <ele>889</ele>
      </trkpt>
      <trkpt lat="46.10982" lon="4.42983">
        <ele>859</ele>
      </trkpt>
      <trkpt lat="46.10898" lon="4.42944">
        <ele>867</ele>
      </trkpt>
      <trkpt lat="46.10769" lon="4.42977">
        <ele>872</ele>
      </trkpt>
      <trkpt lat="46.10669" lon="4.43078">
        <ele>869</ele>
      </trkpt>
      <trkpt lat="46.10444" lon="4.43098">
        <ele>887</ele>
      </trkpt>
      <trkpt lat="46.1026" lon="4.43236">
        <ele>876</ele>
      </trkpt>
      <trkpt lat="46.10176" lon="4.4321">
        <ele>864</ele>
      </trkpt>
      <trkpt lat="46.10149" lon="4.43311">
        <ele>853</ele>
      </trkpt>
      <trkpt lat="46.09987" lon="4.43413">
        <ele>841</ele>
      </trkpt>
      <trkpt lat="46.0979" lon="4.43511">
        <ele>824</ele>
      </trkpt>
      <trkpt lat="46.09708" lon="4.43576">
        <ele>815</ele>
      </trkpt>
      <trkpt lat="46.09622" lon="4.43626">
        <ele>829</ele>
      </trkpt>
      <trkpt lat="46.09515" lon="4.43639">
        <ele>843</ele>
      </trkpt>
      <trkpt lat="46.0919" lon="4.43953">
        <ele>794</ele>
      </trkpt>
      <trkpt lat="46.09163" lon="4.43907">
        <ele>797</ele>
      </trkpt>
      <trkpt lat="46.09061" lon="4.44025">
        <ele>800</ele>
      </trkpt>
      <trkpt lat="46.08952" lon="4.44074">
        <ele>797</ele>
      </trkpt>
      <trkpt lat="46.08872" lon="4.44137">
        <ele>801</ele>
      </trkpt>
      <trkpt lat="46.08631" lon="4.44264">
        <ele>825</ele>
      </trkpt>
      <trkpt lat="46.08508" lon="4.44251">
        <ele>843</ele>
      </trkpt>
      <trkpt lat="46.08429" lon="4.44182">
        <ele>861</ele>
      </trkpt>
      <trkpt lat="46.08138" lon="4.44228">
        <ele>837</ele>
      </trkpt>
      <trkpt lat="46.07959" lon="4.44336">
        <ele>845</ele>
      </trkpt>
      <trkpt lat="46.07693" lon="4.44307">
        <ele>845</ele>
      </trkpt>
      <trkpt lat="46.07516" lon="4.44392">
        <ele>834</ele>
      </trkpt>
      <trkpt lat="46.07302" lon="4.44431">
        <ele>837</ele>
      </trkpt>
      <trkpt lat="46.06968" lon="4.44448">
        <ele>877</ele>
      </trkpt>
      <trkpt lat="46.06881" lon="4.44418">
        <ele>885</ele>
      </trkpt>
      <trkpt lat="46.06763" lon="4.44448">
        <ele>892</ele>
      </trkpt>
      <trkpt lat="46.06659" lon="4.44435">
        <ele>888</ele>
      </trkpt>
      <trkpt lat="46.06595" lon="4.44461">
        <ele>887</ele>
      </trkpt>
      <trkpt lat="46.06243" lon="4.44228">
        <ele>862</ele>
      </trkpt>
      <trkpt lat="46.06129" lon="4.44123">
        <ele>852</ele>
      </trkpt>
      <trkpt lat="46.0599" lon="4.44133">
        <ele>847</ele>
      </trkpt>
      <trkpt lat="46.05847" lon="4.44117">
        <ele>860</ele>
      </trkpt>
      <trkpt lat="46.05765" lon="4.44091">
        <ele>867</ele>
      </trkpt>
      <trkpt lat="46.05699" lon="4.44101">
        <ele>864</ele>
      </trkpt>
      <trkpt lat="46.05377" lon="4.43685">
        <ele>837</ele>
      </trkpt>
      <trkpt lat="46.0522" lon="4.43557">
        <ele>838</ele>
      </trkpt>
      <trkpt lat="46.05036" lon="4.43537">
        <ele>810</ele>
      </trkpt>
      <trkpt lat="46.04965" lon="4.43547">
        <ele>794</ele>
      </trkpt>
      <trkpt lat="46.04772" lon="4.43439">
        <ele>757</ele>
      </trkpt>
      <trkpt lat="46.04683" lon="4.43386">
        <ele>746</ele>
      </trkpt>
      <trkpt lat="46.04581" lon="4.43268">
        <ele>730</ele>
      </trkpt>
      <trkpt lat="46.04492" lon="4.43327">
        <ele>730</ele>
      </trkpt>
      <trkpt lat="46.04388" lon="4.43301">
        <ele>735</ele>
      </trkpt>
      <trkpt lat="46.04306" lon="4.43324">
        <ele>736</ele>
      </trkpt>
      <trkpt lat="46.04158" lon="4.43409">
        <ele>729</ele>
      </trkpt>
      <trkpt lat="46.03976" lon="4.43439">
        <ele>730</ele>
      </trkpt>
      <trkpt lat="46.03906" lon="4.43433">
        <ele>734</ele>
      </trkpt>
      <trkpt lat="46.03728" lon="4.43391">
        <ele>731</ele>
      </trkpt>
      <trkpt lat="46.03549" lon="4.43181">
        <ele>713</ele>
      </trkpt>
      <trkpt lat="46.03469" lon="4.43159">
        <ele>712</ele>
      </trkpt>
      <trkpt lat="46.03352" lon="4.42966">
        <ele>716</ele>
      </trkpt>
      <trkpt lat="46.03144" lon="4.42687">
        <ele>728</ele>
      </trkpt>
      <trkpt lat="46.02995" lon="4.42481">
        <ele>741</ele>
      </trkpt>
      <trkpt lat="46.0292" lon="4.42464">
        <ele>743</ele>
      </trkpt>
      <trkpt lat="46.02825" lon="4.42395">
        <ele>736</ele>
      </trkpt>
      <trkpt lat="46.02706" lon="4.42378">
        <ele>723</ele>
      </trkpt>
      <trkpt lat="46.02713" lon="4.42289">
        <ele>723</ele>
      </trkpt>
      <trkpt lat="46.02505" lon="4.42066">
        <ele>723</ele>
      </trkpt>
      <trkpt lat="46.02472" lon="4.42005">
        <ele>720</ele>
      </trkpt>
      <trkpt lat="46.02466" lon="4.41804">
        <ele>695</ele>
      </trkpt>
      <trkpt lat="46.02415" lon="4.41512">
        <ele>674</ele>
      </trkpt>
      <trkpt lat="46.02353" lon="4.41495">
        <ele>677</ele>
      </trkpt>
      <trkpt lat="46.02353" lon="4.414">
        <ele>672</ele>
      </trkpt>
      <trkpt lat="46.02406" lon="4.41216">
        <ele>658</ele>
      </trkpt>
      <trkpt lat="46.02395" lon="4.40894">
        <ele>655</ele>
      </trkpt>
      <trkpt lat="46.02341" lon="4.40774">
        <ele>655</ele>
      </trkpt>
      <trkpt lat="46.02225" lon="4.40757">
        <ele>648</ele>
      </trkpt>
      <trkpt lat="46.0207" lon="4.40739">
        <ele>625</ele>
      </trkpt>
      <trkpt lat="46.02007" lon="4.40765">
        <ele>623</ele>
      </trkpt>
      <trkpt lat="46.01936" lon="4.40662">
        <ele>614</ele>
      </trkpt>
      <trkpt lat="46.01861" lon="4.40272">
        <ele>595</ele>
      </trkpt>
      <trkpt lat="46.01882" lon="4.40126">
        <ele>600</ele>
      </trkpt>
      <trkpt lat="46.01891" lon="4.40016">
        <ele>596</ele>
      </trkpt>
      <trkpt lat="46.01894" lon="4.39499">
        <ele>535</ele>
      </trkpt>
      <trkpt lat="46.01957" lon="4.39267">
        <ele>534</ele>
      </trkpt>
      <trkpt lat="46.01946" lon="4.39158">
        <ele>531</ele>
      </trkpt>
      <trkpt lat="46.01836" lon="4.38795">
        <ele>525</ele>
      </trkpt>
      <trkpt lat="46.0182" lon="4.38662">
        <ele>514</ele>
      </trkpt>
      <trkpt lat="46.01783" lon="4.38424">
        <ele>490</ele>
      </trkpt>
      <trkpt lat="46.01742" lon="4.38343">
        <ele>485</ele>
      </trkpt>
      <trkpt lat="46.01735" lon="4.38276">
        <ele>479</ele>
      </trkpt>
      <trkpt lat="46.01629" lon="4.38263">
        <ele>478</ele>
      </trkpt>
      <trkpt lat="46.01466" lon="4.3817">
        <ele>459</ele>
      </trkpt>
      <trkpt lat="46.01417" lon="4.38119">
        <ele>452</ele>
      </trkpt>
      <trkpt lat="46.01389" lon="4.38144">
        <ele>452</ele>
      </trkpt>
      <trkpt lat="46.01383" lon="4.38173">
        <ele>455</ele>
      </trkpt>
      <trkpt lat="46.01368" lon="4.3821">
        <ele>458</ele>
      </trkpt>
      <trkpt lat="46.01373" lon="4.38234">
        <ele>461</ele>
      </trkpt>
    </trkseg>
  </trk>
  <trk>
    <name><![CDATA[37 - CUBLIZE VIOLAY 27.2 KM]]></name>
    <extensions>
      <line xmlns="http://www.topografix.com/GPX/gpx_style/0/2">
        <color>880088</color>
        <width>4</width>
      </line>
    </extensions>
    <trkseg>
      <trkpt lat="46.01371" lon="4.38247">
        <ele>463</ele>
      </trkpt>
      <trkpt lat="46.01385" lon="4.38152">
        <ele>453</ele>
      </trkpt>
      <trkpt lat="46.01298" lon="4.38208">
        <ele>455</ele>
      </trkpt>
      <trkpt lat="46.01119" lon="4.38165">
        <ele>454</ele>
      </trkpt>
      <trkpt lat="46.01012" lon="4.38092">
        <ele>463</ele>
      </trkpt>
      <trkpt lat="46.00732" lon="4.3829">
        <ele>513</ele>
      </trkpt>
      <trkpt lat="46.0027" lon="4.38517">
        <ele>514</ele>
      </trkpt>
      <trkpt lat="46.0021" lon="4.38607">
        <ele>516</ele>
      </trkpt>
      <trkpt lat="45.9987" lon="4.38311">
        <ele>480</ele>
      </trkpt>
      <trkpt lat="45.99841" lon="4.38182">
        <ele>479</ele>
      </trkpt>
      <trkpt lat="45.99718" lon="4.38212">
        <ele>490</ele>
      </trkpt>
      <trkpt lat="45.99662" lon="4.38097">
        <ele>500</ele>
      </trkpt>
      <trkpt lat="45.9962" lon="4.37972">
        <ele>514</ele>
      </trkpt>
      <trkpt lat="45.99525" lon="4.37843">
        <ele>522</ele>
      </trkpt>
      <trkpt lat="45.99489" lon="4.37745">
        <ele>521</ele>
      </trkpt>
      <trkpt lat="45.99319" lon="4.37719">
        <ele>515</ele>
      </trkpt>
      <trkpt lat="45.99146" lon="4.37603">
        <ele>508</ele>
      </trkpt>
      <trkpt lat="45.99051" lon="4.37599">
        <ele>506</ele>
      </trkpt>
      <trkpt lat="45.9894" lon="4.37693">
        <ele>503</ele>
      </trkpt>
      <trkpt lat="45.98898" lon="4.37882">
        <ele>522</ele>
      </trkpt>
      <trkpt lat="45.98785" lon="4.38045">
        <ele>511</ele>
      </trkpt>
      <trkpt lat="45.98711" lon="4.38127">
        <ele>519</ele>
      </trkpt>
      <trkpt lat="45.98591" lon="4.38191">
        <ele>532</ele>
      </trkpt>
      <trkpt lat="45.98523" lon="4.38225">
        <ele>537</ele>
      </trkpt>
      <trkpt lat="45.98499" lon="4.38384">
        <ele>546</ele>
      </trkpt>
      <trkpt lat="45.98439" lon="4.38418">
        <ele>554</ele>
      </trkpt>
      <trkpt lat="45.98398" lon="4.38861">
        <ele>574</ele>
      </trkpt>
      <trkpt lat="45.98263" lon="4.38899">
        <ele>595</ele>
      </trkpt>
      <trkpt lat="45.98147" lon="4.38869">
        <ele>620</ele>
      </trkpt>
      <trkpt lat="45.98096" lon="4.38951">
        <ele>625</ele>
      </trkpt>
      <trkpt lat="45.97989" lon="4.38985">
        <ele>630</ele>
      </trkpt>
      <trkpt lat="45.97926" lon="4.38998">
        <ele>624</ele>
      </trkpt>
      <trkpt lat="45.97879" lon="4.39028">
        <ele>624</ele>
      </trkpt>
      <trkpt lat="45.9781" lon="4.38998">
        <ele>623</ele>
      </trkpt>
      <trkpt lat="45.97697" lon="4.39066">
        <ele>644</ele>
      </trkpt>
      <trkpt lat="45.97586" lon="4.39062">
        <ele>663</ele>
      </trkpt>
      <trkpt lat="45.97512" lon="4.39092">
        <ele>675</ele>
      </trkpt>
      <trkpt lat="45.9744" lon="4.39118">
        <ele>678</ele>
      </trkpt>
      <trkpt lat="45.97261" lon="4.39272">
        <ele>697</ele>
      </trkpt>
      <trkpt lat="45.97151" lon="4.39255">
        <ele>700</ele>
      </trkpt>
      <trkpt lat="45.97078" lon="4.39144">
        <ele>706</ele>
      </trkpt>
      <trkpt lat="45.97084" lon="4.38865">
        <ele>723</ele>
      </trkpt>
      <trkpt lat="45.97021" lon="4.38757">
        <ele>726</ele>
      </trkpt>
      <trkpt lat="45.9692" lon="4.38753">
        <ele>739</ele>
      </trkpt>
      <trkpt lat="45.96747" lon="4.38878">
        <ele>746</ele>
      </trkpt>
      <trkpt lat="45.96657" lon="4.38908">
        <ele>755</ele>
      </trkpt>
      <trkpt lat="45.96617" lon="4.38982">
        <ele>757</ele>
      </trkpt>
      <trkpt lat="45.96554" lon="4.38818">
        <ele>764</ele>
      </trkpt>
      <trkpt lat="45.96446" lon="4.38736">
        <ele>769</ele>
      </trkpt>
      <trkpt lat="45.96313" lon="4.38745">
        <ele>773</ele>
      </trkpt>
      <trkpt lat="45.96063" lon="4.38635">
        <ele>771</ele>
      </trkpt>
      <trkpt lat="45.95901" lon="4.38649">
        <ele>767</ele>
      </trkpt>
      <trkpt lat="45.95762" lon="4.38786">
        <ele>766</ele>
      </trkpt>
      <trkpt lat="45.9566" lon="4.38831">
        <ele>771</ele>
      </trkpt>
      <trkpt lat="45.95527" lon="4.3895">
        <ele>787</ele>
      </trkpt>
      <trkpt lat="45.95419" lon="4.38941">
        <ele>795</ele>
      </trkpt>
      <trkpt lat="45.95302" lon="4.39005">
        <ele>797</ele>
      </trkpt>
      <trkpt lat="45.95084" lon="4.39">
        <ele>791</ele>
      </trkpt>
      <trkpt lat="45.9476" lon="4.38995">
        <ele>820</ele>
      </trkpt>
      <trkpt lat="45.94646" lon="4.3879">
        <ele>845</ele>
      </trkpt>
      <trkpt lat="45.9457" lon="4.38836">
        <ele>854</ele>
      </trkpt>
      <trkpt lat="45.9439" lon="4.39036">
        <ele>863</ele>
      </trkpt>
      <trkpt lat="45.9431" lon="4.3905">
        <ele>860</ele>
      </trkpt>
      <trkpt lat="45.94149" lon="4.38945">
        <ele>860</ele>
      </trkpt>
      <trkpt lat="45.94031" lon="4.3895">
        <ele>860</ele>
      </trkpt>
      <trkpt lat="45.93848" lon="4.38827">
        <ele>847</ele>
      </trkpt>
      <trkpt lat="45.93638" lon="4.3864">
        <ele>848</ele>
      </trkpt>
      <trkpt lat="45.93451" lon="4.38303">
        <ele>815</ele>
      </trkpt>
      <trkpt lat="45.9328" lon="4.38148">
        <ele>808</ele>
      </trkpt>
      <trkpt lat="45.93179" lon="4.38129">
        <ele>801</ele>
      </trkpt>
      <trkpt lat="45.92992" lon="4.38016">
        <ele>771</ele>
      </trkpt>
      <trkpt lat="45.92833" lon="4.37865">
        <ele>735</ele>
      </trkpt>
      <trkpt lat="45.92694" lon="4.37851">
        <ele>723</ele>
      </trkpt>
      <trkpt lat="45.92624" lon="4.37738">
        <ele>722</ele>
      </trkpt>
      <trkpt lat="45.92145" lon="4.37756">
        <ele>723</ele>
      </trkpt>
      <trkpt lat="45.92047" lon="4.37833">
        <ele>729</ele>
      </trkpt>
      <trkpt lat="45.91968" lon="4.37838">
        <ele>731</ele>
      </trkpt>
      <trkpt lat="45.91721" lon="4.37605">
        <ele>759</ele>
      </trkpt>
      <trkpt lat="45.91613" lon="4.37482">
        <ele>768</ele>
      </trkpt>
      <trkpt lat="45.91423" lon="4.3735">
        <ele>761</ele>
      </trkpt>
      <trkpt lat="45.91321" lon="4.37268">
        <ele>765</ele>
      </trkpt>
      <trkpt lat="45.91207" lon="4.37068">
        <ele>770</ele>
      </trkpt>
      <trkpt lat="45.91093" lon="4.37172">
        <ele>762</ele>
      </trkpt>
      <trkpt lat="45.90994" lon="4.37191">
        <ele>758</ele>
      </trkpt>
      <trkpt lat="45.91584" lon="4.35691">
        <ele>768</ele>
      </trkpt>
      <trkpt lat="45.91581" lon="4.34648">
        <ele>761</ele>
      </trkpt>
      <trkpt lat="45.9154" lon="4.34502">
        <ele>758</ele>
      </trkpt>
      <trkpt lat="45.9147" lon="4.34333">
        <ele>772</ele>
      </trkpt>
      <trkpt lat="45.91426" lon="4.3416">
        <ele>802</ele>
      </trkpt>
      <trkpt lat="45.91416" lon="4.34069">
        <ele>810</ele>
      </trkpt>
      <trkpt lat="45.91312" lon="4.33968">
        <ele>828</ele>
      </trkpt>
      <trkpt lat="45.91143" lon="4.33959">
        <ele>842</ele>
      </trkpt>
      <trkpt lat="45.91032" lon="4.33804">
        <ele>851</ele>
      </trkpt>
      <trkpt lat="45.90909" lon="4.33704">
        <ele>867</ele>
      </trkpt>
      <trkpt lat="45.90782" lon="4.33467">
        <ele>857</ele>
      </trkpt>
      <trkpt lat="45.90738" lon="4.33139">
        <ele>833</ele>
      </trkpt>
      <trkpt lat="45.90677" lon="4.32929">
        <ele>828</ele>
      </trkpt>
      <trkpt lat="45.90804" lon="4.32683">
        <ele>844</ele>
      </trkpt>
      <trkpt lat="45.9096" lon="4.32501">
        <ele>842</ele>
      </trkpt>
      <trkpt lat="45.90877" lon="4.32474">
        <ele>845</ele>
      </trkpt>
      <trkpt lat="45.90693" lon="4.32451">
        <ele>832</ele>
      </trkpt>
      <trkpt lat="45.90627" lon="4.32387">
        <ele>825</ele>
      </trkpt>
      <trkpt lat="45.90569" lon="4.32369">
        <ele>820</ele>
      </trkpt>
      <trkpt lat="45.90471" lon="4.32387">
        <ele>810</ele>
      </trkpt>
      <trkpt lat="45.90328" lon="4.32346">
        <ele>809</ele>
      </trkpt>
      <trkpt lat="45.90227" lon="4.32387">
        <ele>810</ele>
      </trkpt>
      <trkpt lat="45.90116" lon="4.32364">
        <ele>799</ele>
      </trkpt>
      <trkpt lat="45.89691" lon="4.32674">
        <ele>774</ele>
      </trkpt>
      <trkpt lat="45.89621" lon="4.32866">
        <ele>783</ele>
      </trkpt>
      <trkpt lat="45.89364" lon="4.33139">
        <ele>818</ele>
      </trkpt>
      <trkpt lat="45.89288" lon="4.33262">
        <ele>839</ele>
      </trkpt>
      <trkpt lat="45.8911" lon="4.33463">
        <ele>839</ele>
      </trkpt>
      <trkpt lat="45.89009" lon="4.33727">
        <ele>857</ele>
      </trkpt>
      <trkpt lat="45.88904" lon="4.33823">
        <ele>866</ele>
      </trkpt>
      <trkpt lat="45.88568" lon="4.33891">
        <ele>881</ele>
      </trkpt>
      <trkpt lat="45.88419" lon="4.33973">
        <ele>895</ele>
      </trkpt>
      <trkpt lat="45.88032" lon="4.34041">
        <ele>871</ele>
      </trkpt>
      <trkpt lat="45.87892" lon="4.34178">
        <ele>840</ele>
      </trkpt>
      <trkpt lat="45.87721" lon="4.34251">
        <ele>840</ele>
      </trkpt>
      <trkpt lat="45.87477" lon="4.34802">
        <ele>839</ele>
      </trkpt>
      <trkpt lat="45.87216" lon="4.34898">
        <ele>817</ele>
      </trkpt>
      <trkpt lat="45.87086" lon="4.35039">
        <ele>829</ele>
      </trkpt>
      <trkpt lat="45.86943" lon="4.35445">
        <ele>846</ele>
      </trkpt>
      <trkpt lat="45.86671" lon="4.36001">
        <ele>856</ele>
      </trkpt>
      <trkpt lat="45.86439" lon="4.36329">
        <ele>868</ele>
      </trkpt>
      <trkpt lat="45.86258" lon="4.36343">
        <ele>870</ele>
      </trkpt>
      <trkpt lat="45.8593" lon="4.36213">
        <ele>870</ele>
      </trkpt>
      <trkpt lat="45.85759" lon="4.35994">
        <ele>866</ele>
      </trkpt>
      <trkpt lat="45.85514" lon="4.35844">
        <ele>845</ele>
      </trkpt>
      <trkpt lat="45.8547" lon="4.35766">
        <ele>836</ele>
      </trkpt>
      <trkpt lat="45.85416" lon="4.35745">
        <ele>836</ele>
      </trkpt>
      <trkpt lat="45.85312" lon="4.35803">
        <ele>829</ele>
      </trkpt>
      <trkpt lat="45.85278" lon="4.357">
        <ele>826</ele>
      </trkpt>
      <trkpt lat="45.85096" lon="4.35391">
        <ele>807</ele>
      </trkpt>
      <trkpt lat="45.84922" lon="4.35281">
        <ele>803</ele>
      </trkpt>
      <trkpt lat="45.8477" lon="4.35253">
        <ele>802</ele>
      </trkpt>
      <trkpt lat="45.8477" lon="4.35348">
        <ele>799</ele>
      </trkpt>
      <trkpt lat="45.84711" lon="4.35335">
        <ele>798</ele>
      </trkpt>
    </trkseg>
  </trk>
  <trk>
    <name><![CDATA[38 - VIOLAY BRULLIOLES 20.4 KM]]></name>
    <extensions>
      <line xmlns="http://www.topografix.com/GPX/gpx_style/0/2">
        <color>0000FF</color>
        <width>4</width>
      </line>
    </extensions>
    <trkseg>
      <trkpt lat="45.8471" lon="4.35333">
        <ele>799</ele>
      </trkpt>
      <trkpt lat="45.84758" lon="4.3535">
        <ele>799</ele>
      </trkpt>
      <trkpt lat="45.84775" lon="4.35332">
        <ele>801</ele>
      </trkpt>
      <trkpt lat="45.84766" lon="4.3525">
        <ele>802</ele>
      </trkpt>
      <trkpt lat="45.84923" lon="4.35283">
        <ele>803</ele>
      </trkpt>
      <trkpt lat="45.85091" lon="4.35391">
        <ele>807</ele>
      </trkpt>
      <trkpt lat="45.85278" lon="4.35697">
        <ele>826</ele>
      </trkpt>
      <trkpt lat="45.85302" lon="4.35783">
        <ele>829</ele>
      </trkpt>
      <trkpt lat="45.85351" lon="4.35849">
        <ele>833</ele>
      </trkpt>
      <trkpt lat="45.8538" lon="4.36003">
        <ele>832</ele>
      </trkpt>
      <trkpt lat="45.85421" lon="4.36102">
        <ele>839</ele>
      </trkpt>
      <trkpt lat="45.85426" lon="4.36202">
        <ele>842</ele>
      </trkpt>
      <trkpt lat="45.85383" lon="4.36258">
        <ele>844</ele>
      </trkpt>
      <trkpt lat="45.85328" lon="4.36298">
        <ele>850</ele>
      </trkpt>
      <trkpt lat="45.8548" lon="4.364">
        <ele>862</ele>
      </trkpt>
      <trkpt lat="45.85439" lon="4.36571">
        <ele>880</ele>
      </trkpt>
      <trkpt lat="45.85152" lon="4.37046">
        <ele>926</ele>
      </trkpt>
      <trkpt lat="45.85097" lon="4.37265">
        <ele>927</ele>
      </trkpt>
      <trkpt lat="45.84914" lon="4.37629">
        <ele>974</ele>
      </trkpt>
      <trkpt lat="45.84868" lon="4.37774">
        <ele>971</ele>
      </trkpt>
      <trkpt lat="45.84789" lon="4.38005">
        <ele>965</ele>
      </trkpt>
      <trkpt lat="45.848" lon="4.38357">
        <ele>955</ele>
      </trkpt>
      <trkpt lat="45.84753" lon="4.38525">
        <ele>952</ele>
      </trkpt>
      <trkpt lat="45.84743" lon="4.39085">
        <ele>920</ele>
      </trkpt>
      <trkpt lat="45.84614" lon="4.38889">
        <ele>935</ele>
      </trkpt>
      <trkpt lat="45.84328" lon="4.3878">
        <ele>912</ele>
      </trkpt>
      <trkpt lat="45.84265" lon="4.3887">
        <ele>910</ele>
      </trkpt>
      <trkpt lat="45.8417" lon="4.39136">
        <ele>889</ele>
      </trkpt>
      <trkpt lat="45.8396" lon="4.39308">
        <ele>865</ele>
      </trkpt>
      <trkpt lat="45.83813" lon="4.39472">
        <ele>860</ele>
      </trkpt>
      <trkpt lat="45.83701" lon="4.39551">
        <ele>845</ele>
      </trkpt>
      <trkpt lat="45.83592" lon="4.39715">
        <ele>838</ele>
      </trkpt>
      <trkpt lat="45.83475" lon="4.39621">
        <ele>823</ele>
      </trkpt>
      <trkpt lat="45.83409" lon="4.39621">
        <ele>814</ele>
      </trkpt>
      <trkpt lat="45.83368" lon="4.39582">
        <ele>824</ele>
      </trkpt>
      <trkpt lat="45.83303" lon="4.39723">
        <ele>820</ele>
      </trkpt>
      <trkpt lat="45.83202" lon="4.39825">
        <ele>822</ele>
      </trkpt>
      <trkpt lat="45.83167" lon="4.39911">
        <ele>809</ele>
      </trkpt>
      <trkpt lat="45.8309" lon="4.39985">
        <ele>818</ele>
      </trkpt>
      <trkpt lat="45.83028" lon="4.40134">
        <ele>814</ele>
      </trkpt>
      <trkpt lat="45.82943" lon="4.40185">
        <ele>817</ele>
      </trkpt>
      <trkpt lat="45.82861" lon="4.40271">
        <ele>806</ele>
      </trkpt>
      <trkpt lat="45.82659" lon="4.40181">
        <ele>807</ele>
      </trkpt>
      <trkpt lat="45.82501" lon="4.40032">
        <ele>803</ele>
      </trkpt>
      <trkpt lat="45.82253" lon="4.39864">
        <ele>789</ele>
      </trkpt>
      <trkpt lat="45.82122" lon="4.39883">
        <ele>764</ele>
      </trkpt>
      <trkpt lat="45.81994" lon="4.40016">
        <ele>754</ele>
      </trkpt>
      <trkpt lat="45.8189" lon="4.40189">
        <ele>739</ele>
      </trkpt>
      <trkpt lat="45.8171" lon="4.4049">
        <ele>725</ele>
      </trkpt>
      <trkpt lat="45.81659" lon="4.40482">
        <ele>724</ele>
      </trkpt>
      <trkpt lat="45.81552" lon="4.40603">
        <ele>738</ele>
      </trkpt>
      <trkpt lat="45.81438" lon="4.40768">
        <ele>754</ele>
      </trkpt>
      <trkpt lat="45.8132" lon="4.40862">
        <ele>750</ele>
      </trkpt>
      <trkpt lat="45.81236" lon="4.40909">
        <ele>746</ele>
      </trkpt>
      <trkpt lat="45.81105" lon="4.41046">
        <ele>741</ele>
      </trkpt>
      <trkpt lat="45.81009" lon="4.41085">
        <ele>736</ele>
      </trkpt>
      <trkpt lat="45.80957" lon="4.41194">
        <ele>734</ele>
      </trkpt>
      <trkpt lat="45.80897" lon="4.41429">
        <ele>728</ele>
      </trkpt>
      <trkpt lat="45.80696" lon="4.41613">
        <ele>725</ele>
      </trkpt>
      <trkpt lat="45.80633" lon="4.41727">
        <ele>718</ele>
      </trkpt>
      <trkpt lat="45.80453" lon="4.41946">
        <ele>697</ele>
      </trkpt>
      <trkpt lat="45.80254" lon="4.42271">
        <ele>674</ele>
      </trkpt>
      <trkpt lat="45.80357" lon="4.42548">
        <ele>706</ele>
      </trkpt>
      <trkpt lat="45.80235" lon="4.42595">
        <ele>704</ele>
      </trkpt>
      <trkpt lat="45.80074" lon="4.4274">
        <ele>708</ele>
      </trkpt>
      <trkpt lat="45.79907" lon="4.42748">
        <ele>719</ele>
      </trkpt>
      <trkpt lat="45.79872" lon="4.42795">
        <ele>722</ele>
      </trkpt>
      <trkpt lat="45.79948" lon="4.42897">
        <ele>731</ele>
      </trkpt>
      <trkpt lat="45.79891" lon="4.43061">
        <ele>743</ele>
      </trkpt>
      <trkpt lat="45.79787" lon="4.43206">
        <ele>748</ele>
      </trkpt>
      <trkpt lat="45.79757" lon="4.43288">
        <ele>748</ele>
      </trkpt>
      <trkpt lat="45.79722" lon="4.43445">
        <ele>748</ele>
      </trkpt>
      <trkpt lat="45.79577" lon="4.43441">
        <ele>747</ele>
      </trkpt>
      <trkpt lat="45.79522" lon="4.43652">
        <ele>753</ele>
      </trkpt>
      <trkpt lat="45.79462" lon="4.43691">
        <ele>749</ele>
      </trkpt>
      <trkpt lat="45.79438" lon="4.43758">
        <ele>754</ele>
      </trkpt>
      <trkpt lat="45.79331" lon="4.4375">
        <ele>750</ele>
      </trkpt>
      <trkpt lat="45.79329" lon="4.43832">
        <ele>747</ele>
      </trkpt>
      <trkpt lat="45.79372" lon="4.43926">
        <ele>737</ele>
      </trkpt>
      <trkpt lat="45.79351" lon="4.44067">
        <ele>726</ele>
      </trkpt>
      <trkpt lat="45.79334" lon="4.44486">
        <ele>724</ele>
      </trkpt>
      <trkpt lat="45.79301" lon="4.4454">
        <ele>730</ele>
      </trkpt>
      <trkpt lat="45.79413" lon="4.44619">
        <ele>722</ele>
      </trkpt>
      <trkpt lat="45.79435" lon="4.4476">
        <ele>714</ele>
      </trkpt>
      <trkpt lat="45.79389" lon="4.4501">
        <ele>709</ele>
      </trkpt>
      <trkpt lat="45.79345" lon="4.45171">
        <ele>703</ele>
      </trkpt>
      <trkpt lat="45.7949" lon="4.45264">
        <ele>691</ele>
      </trkpt>
      <trkpt lat="45.79512" lon="4.45503">
        <ele>665</ele>
      </trkpt>
      <trkpt lat="45.79424" lon="4.45695">
        <ele>643</ele>
      </trkpt>
      <trkpt lat="45.79356" lon="4.45808">
        <ele>640</ele>
      </trkpt>
      <trkpt lat="45.79315" lon="4.45949">
        <ele>643</ele>
      </trkpt>
      <trkpt lat="45.79263" lon="4.46102">
        <ele>645</ele>
      </trkpt>
      <trkpt lat="45.79271" lon="4.46215">
        <ele>647</ele>
      </trkpt>
      <trkpt lat="45.7931" lon="4.46329">
        <ele>650</ele>
      </trkpt>
      <trkpt lat="45.79247" lon="4.46501">
        <ele>654</ele>
      </trkpt>
      <trkpt lat="45.79113" lon="4.46572">
        <ele>661</ele>
      </trkpt>
      <trkpt lat="45.79007" lon="4.46634">
        <ele>667</ele>
      </trkpt>
      <trkpt lat="45.78985" lon="4.46728">
        <ele>662</ele>
      </trkpt>
      <trkpt lat="45.79001" lon="4.46826">
        <ele>656</ele>
      </trkpt>
      <trkpt lat="45.78881" lon="4.47006">
        <ele>646</ele>
      </trkpt>
      <trkpt lat="45.78772" lon="4.4717">
        <ele>635</ele>
      </trkpt>
      <trkpt lat="45.78614" lon="4.47229">
        <ele>628</ele>
      </trkpt>
      <trkpt lat="45.78485" lon="4.47421">
        <ele>651</ele>
      </trkpt>
      <trkpt lat="45.78368" lon="4.47429">
        <ele>664</ele>
      </trkpt>
      <trkpt lat="45.7821" lon="4.47761">
        <ele>691</ele>
      </trkpt>
      <trkpt lat="45.78035" lon="4.47992">
        <ele>700</ele>
      </trkpt>
      <trkpt lat="45.78027" lon="4.4809">
        <ele>711</ele>
      </trkpt>
      <trkpt lat="45.77964" lon="4.48207">
        <ele>721</ele>
      </trkpt>
      <trkpt lat="45.77923" lon="4.48333">
        <ele>736</ele>
      </trkpt>
      <trkpt lat="45.77754" lon="4.48536">
        <ele>729</ele>
      </trkpt>
      <trkpt lat="45.77642" lon="4.48638">
        <ele>743</ele>
      </trkpt>
      <trkpt lat="45.77577" lon="4.48751">
        <ele>748</ele>
      </trkpt>
      <trkpt lat="45.77519" lon="4.48822">
        <ele>750</ele>
      </trkpt>
      <trkpt lat="45.77497" lon="4.49307">
        <ele>740</ele>
      </trkpt>
      <trkpt lat="45.77517" lon="4.49554">
        <ele>740</ele>
      </trkpt>
      <trkpt lat="45.77557" lon="4.49714">
        <ele>711</ele>
      </trkpt>
      <trkpt lat="45.7756" lon="4.49945">
        <ele>692</ele>
      </trkpt>
      <trkpt lat="45.77454" lon="4.49941">
        <ele>684</ele>
      </trkpt>
      <trkpt lat="45.77304" lon="4.49851">
        <ele>677</ele>
      </trkpt>
      <trkpt lat="45.77208" lon="4.49875">
        <ele>663</ele>
      </trkpt>
      <trkpt lat="45.77156" lon="4.4982">
        <ele>671</ele>
      </trkpt>
      <trkpt lat="45.76968" lon="4.49933">
        <ele>646</ele>
      </trkpt>
      <trkpt lat="45.76739" lon="4.5018">
        <ele>577</ele>
      </trkpt>
      <trkpt lat="45.76698" lon="4.50113">
        <ele>571</ele>
      </trkpt>
      <trkpt lat="45.767" lon="4.49961">
        <ele>575</ele>
      </trkpt>
      <trkpt lat="45.76662" lon="4.49918">
        <ele>569</ele>
      </trkpt>
      <trkpt lat="45.76449" lon="4.49882">
        <ele>555</ele>
      </trkpt>
      <trkpt lat="45.76291" lon="4.49931">
        <ele>549</ele>
      </trkpt>
      <trkpt lat="45.76271" lon="4.49897">
        <ele>553</ele>
      </trkpt>
      <trkpt lat="45.76217" lon="4.49885">
        <ele>553</ele>
      </trkpt>
      <trkpt lat="45.76185" lon="4.4988">
        <ele>551</ele>
      </trkpt>
    </trkseg>
  </trk>
  <trk>
    <name><![CDATA[38 - VIOLAY BRULLIOLES 19.5 KM]]></name>
    <extensions>
      <line xmlns="http://www.topografix.com/GPX/gpx_style/0/2">
        <color>00FF00</color>
        <width>4</width>
      </line>
    </extensions>
    <trkseg>
      <trkpt lat="45.85294" lon="4.35757">
        <ele>829</ele>
        <time>2021-11-23T09:59:39+01:00</time>
      </trkpt>
      <trkpt lat="45.85351" lon="4.35849">
        <ele>833</ele>
        <time>2021-11-23T09:59:44+01:00</time>
      </trkpt>
      <trkpt lat="45.8538" lon="4.36003">
        <ele>832</ele>
        <time>2021-11-23T09:59:49+01:00</time>
      </trkpt>
      <trkpt lat="45.85421" lon="4.36102">
        <ele>839</ele>
        <time>2021-11-23T09:59:54+01:00</time>
      </trkpt>
      <trkpt lat="45.85426" lon="4.36202">
        <ele>842</ele>
        <time>2021-11-23T09:59:59+01:00</time>
      </trkpt>
      <trkpt lat="45.85383" lon="4.36258">
        <ele>844</ele>
        <time>2021-11-23T10:00:04+01:00</time>
      </trkpt>
      <trkpt lat="45.85328" lon="4.36298">
        <ele>850</ele>
        <time>2021-11-23T10:00:09+01:00</time>
      </trkpt>
      <trkpt lat="45.8548" lon="4.364">
        <ele>862</ele>
        <time>2021-11-23T10:00:14+01:00</time>
      </trkpt>
      <trkpt lat="45.85439" lon="4.36571">
        <ele>880</ele>
        <time>2021-11-23T10:00:19+01:00</time>
      </trkpt>
      <trkpt lat="45.85152" lon="4.37046">
        <ele>926</ele>
        <time>2021-11-23T10:00:24+01:00</time>
      </trkpt>
      <trkpt lat="45.85097" lon="4.37265">
        <ele>927</ele>
        <time>2021-11-23T10:00:29+01:00</time>
      </trkpt>
      <trkpt lat="45.84914" lon="4.37629">
        <ele>974</ele>
        <time>2021-11-23T10:00:34+01:00</time>
      </trkpt>
      <trkpt lat="45.84868" lon="4.37774">
        <ele>971</ele>
        <time>2021-11-23T10:00:39+01:00</time>
      </trkpt>
      <trkpt lat="45.84789" lon="4.38005">
        <ele>965</ele>
        <time>2021-11-23T10:00:44+01:00</time>
      </trkpt>
      <trkpt lat="45.848" lon="4.38357">
        <ele>955</ele>
        <time>2021-11-23T10:00:49+01:00</time>
      </trkpt>
      <trkpt lat="45.84753" lon="4.38525">
        <ele>952</ele>
        <time>2021-11-23T10:00:54+01:00</time>
      </trkpt>
      <trkpt lat="45.84743" lon="4.39085">
        <ele>920</ele>
        <time>2021-11-23T10:00:59+01:00</time>
      </trkpt>
      <trkpt lat="45.84614" lon="4.38889">
        <ele>935</ele>
        <time>2021-11-23T10:01:04+01:00</time>
      </trkpt>
      <trkpt lat="45.84328" lon="4.3878">
        <ele>912</ele>
        <time>2021-11-23T10:01:09+01:00</time>
      </trkpt>
      <trkpt lat="45.84265" lon="4.3887">
        <ele>910</ele>
        <time>2021-11-23T10:01:14+01:00</time>
      </trkpt>
      <trkpt lat="45.8417" lon="4.39136">
        <ele>889</ele>
        <time>2021-11-23T10:01:19+01:00</time>
      </trkpt>
      <trkpt lat="45.8396" lon="4.39308">
        <ele>865</ele>
        <time>2021-11-23T10:01:24+01:00</time>
      </trkpt>
      <trkpt lat="45.83813" lon="4.39472">
        <ele>860</ele>
        <time>2021-11-23T10:01:29+01:00</time>
      </trkpt>
      <trkpt lat="45.83701" lon="4.39551">
        <ele>845</ele>
        <time>2021-11-23T10:01:34+01:00</time>
      </trkpt>
      <trkpt lat="45.83592" lon="4.39715">
        <ele>838</ele>
        <time>2021-11-23T10:01:39+01:00</time>
      </trkpt>
      <trkpt lat="45.83475" lon="4.39621">
        <ele>823</ele>
        <time>2021-11-23T10:01:44+01:00</time>
      </trkpt>
      <trkpt lat="45.83409" lon="4.39621">
        <ele>814</ele>
        <time>2021-11-23T10:01:49+01:00</time>
      </trkpt>
      <trkpt lat="45.83368" lon="4.39582">
        <ele>824</ele>
        <time>2021-11-23T10:01:54+01:00</time>
      </trkpt>
      <trkpt lat="45.83303" lon="4.39723">
        <ele>820</ele>
        <time>2021-11-23T10:01:59+01:00</time>
      </trkpt>
      <trkpt lat="45.83202" lon="4.39825">
        <ele>822</ele>
        <time>2021-11-23T10:02:04+01:00</time>
      </trkpt>
      <trkpt lat="45.83167" lon="4.39911">
        <ele>809</ele>
        <time>2021-11-23T10:02:09+01:00</time>
      </trkpt>
      <trkpt lat="45.8309" lon="4.39985">
        <ele>818</ele>
        <time>2021-11-23T10:02:14+01:00</time>
      </trkpt>
      <trkpt lat="45.83028" lon="4.40134">
        <ele>814</ele>
        <time>2021-11-23T10:02:19+01:00</time>
      </trkpt>
      <trkpt lat="45.82943" lon="4.40185">
        <ele>817</ele>
        <time>2021-11-23T10:02:24+01:00</time>
      </trkpt>
      <trkpt lat="45.82861" lon="4.40271">
        <ele>806</ele>
        <time>2021-11-23T10:02:29+01:00</time>
      </trkpt>
      <trkpt lat="45.82659" lon="4.40181">
        <ele>807</ele>
        <time>2021-11-23T10:02:34+01:00</time>
      </trkpt>
      <trkpt lat="45.82501" lon="4.40032">
        <ele>803</ele>
        <time>2021-11-23T10:02:39+01:00</time>
      </trkpt>
      <trkpt lat="45.82253" lon="4.39864">
        <ele>789</ele>
        <time>2021-11-23T10:02:44+01:00</time>
      </trkpt>
      <trkpt lat="45.82122" lon="4.39883">
        <ele>764</ele>
        <time>2021-11-23T10:02:49+01:00</time>
      </trkpt>
      <trkpt lat="45.81994" lon="4.40016">
        <ele>754</ele>
        <time>2021-11-23T10:02:54+01:00</time>
      </trkpt>
      <trkpt lat="45.8189" lon="4.40189">
        <ele>739</ele>
        <time>2021-11-23T10:02:59+01:00</time>
      </trkpt>
      <trkpt lat="45.8171" lon="4.4049">
        <ele>725</ele>
        <time>2021-11-23T10:03:04+01:00</time>
      </trkpt>
      <trkpt lat="45.81659" lon="4.40482">
        <ele>724</ele>
        <time>2021-11-23T10:03:09+01:00</time>
      </trkpt>
      <trkpt lat="45.81552" lon="4.40603">
        <ele>738</ele>
        <time>2021-11-23T10:03:14+01:00</time>
      </trkpt>
      <trkpt lat="45.81438" lon="4.40768">
        <ele>754</ele>
        <time>2021-11-23T10:03:19+01:00</time>
      </trkpt>
      <trkpt lat="45.8132" lon="4.40862">
        <ele>750</ele>
        <time>2021-11-23T10:03:24+01:00</time>
      </trkpt>
      <trkpt lat="45.81236" lon="4.40909">
        <ele>746</ele>
        <time>2021-11-23T10:03:29+01:00</time>
      </trkpt>
      <trkpt lat="45.81105" lon="4.41046">
        <ele>741</ele>
        <time>2021-11-23T10:03:34+01:00</time>
      </trkpt>
      <trkpt lat="45.81009" lon="4.41085">
        <ele>736</ele>
        <time>2021-11-23T10:03:39+01:00</time>
      </trkpt>
      <trkpt lat="45.80957" lon="4.41194">
        <ele>734</ele>
        <time>2021-11-23T10:03:44+01:00</time>
      </trkpt>
      <trkpt lat="45.80897" lon="4.41429">
        <ele>728</ele>
        <time>2021-11-23T10:03:49+01:00</time>
      </trkpt>
      <trkpt lat="45.80696" lon="4.41613">
        <ele>725</ele>
        <time>2021-11-23T10:03:54+01:00</time>
      </trkpt>
      <trkpt lat="45.80633" lon="4.41727">
        <ele>718</ele>
        <time>2021-11-23T10:03:59+01:00</time>
      </trkpt>
      <trkpt lat="45.80453" lon="4.41946">
        <ele>697</ele>
        <time>2021-11-23T10:04:04+01:00</time>
      </trkpt>
      <trkpt lat="45.80254" lon="4.42271">
        <ele>674</ele>
        <time>2021-11-23T10:04:09+01:00</time>
      </trkpt>
      <trkpt lat="45.80357" lon="4.42548">
        <ele>706</ele>
        <time>2021-11-23T10:04:14+01:00</time>
      </trkpt>
      <trkpt lat="45.80235" lon="4.42595">
        <ele>704</ele>
        <time>2021-11-23T10:04:19+01:00</time>
      </trkpt>
      <trkpt lat="45.80074" lon="4.4274">
        <ele>708</ele>
        <time>2021-11-23T10:04:24+01:00</time>
      </trkpt>
      <trkpt lat="45.79907" lon="4.42748">
        <ele>719</ele>
        <time>2021-11-23T10:04:29+01:00</time>
      </trkpt>
      <trkpt lat="45.79872" lon="4.42795">
        <ele>722</ele>
        <time>2021-11-23T10:04:34+01:00</time>
      </trkpt>
      <trkpt lat="45.79948" lon="4.42897">
        <ele>731</ele>
        <time>2021-11-23T10:04:39+01:00</time>
      </trkpt>
      <trkpt lat="45.79891" lon="4.43061">
        <ele>743</ele>
        <time>2021-11-23T10:04:44+01:00</time>
      </trkpt>
      <trkpt lat="45.79787" lon="4.43206">
        <ele>748</ele>
        <time>2021-11-23T10:04:49+01:00</time>
      </trkpt>
      <trkpt lat="45.79757" lon="4.43288">
        <ele>748</ele>
        <time>2021-11-23T10:04:54+01:00</time>
      </trkpt>
      <trkpt lat="45.79722" lon="4.43445">
        <ele>748</ele>
        <time>2021-11-23T10:04:59+01:00</time>
      </trkpt>
      <trkpt lat="45.79577" lon="4.43441">
        <ele>747</ele>
        <time>2021-11-23T10:05:04+01:00</time>
      </trkpt>
      <trkpt lat="45.79522" lon="4.43652">
        <ele>753</ele>
        <time>2021-11-23T10:05:09+01:00</time>
      </trkpt>
      <trkpt lat="45.79462" lon="4.43691">
        <ele>749</ele>
        <time>2021-11-23T10:05:14+01:00</time>
      </trkpt>
      <trkpt lat="45.79438" lon="4.43758">
        <ele>754</ele>
        <time>2021-11-23T10:05:19+01:00</time>
      </trkpt>
      <trkpt lat="45.79331" lon="4.4375">
        <ele>750</ele>
        <time>2021-11-23T10:05:24+01:00</time>
      </trkpt>
      <trkpt lat="45.79329" lon="4.43832">
        <ele>747</ele>
        <time>2021-11-23T10:05:29+01:00</time>
      </trkpt>
      <trkpt lat="45.79372" lon="4.43926">
        <ele>737</ele>
        <time>2021-11-23T10:05:34+01:00</time>
      </trkpt>
      <trkpt lat="45.79351" lon="4.44067">
        <ele>726</ele>
        <time>2021-11-23T10:05:39+01:00</time>
      </trkpt>
      <trkpt lat="45.79334" lon="4.44486">
        <ele>724</ele>
        <time>2021-11-23T10:05:44+01:00</time>
      </trkpt>
      <trkpt lat="45.79301" lon="4.4454">
        <ele>730</ele>
        <time>2021-11-23T10:05:49+01:00</time>
      </trkpt>
      <trkpt lat="45.79413" lon="4.44619">
        <ele>722</ele>
        <time>2021-11-23T10:05:54+01:00</time>
      </trkpt>
      <trkpt lat="45.79435" lon="4.4476">
        <ele>714</ele>
        <time>2021-11-23T10:05:59+01:00</time>
      </trkpt>
      <trkpt lat="45.79389" lon="4.4501">
        <ele>709</ele>
        <time>2021-11-23T10:06:04+01:00</time>
      </trkpt>
      <trkpt lat="45.79345" lon="4.45171">
        <ele>703</ele>
        <time>2021-11-23T10:06:09+01:00</time>
      </trkpt>
      <trkpt lat="45.7949" lon="4.45264">
        <ele>691</ele>
        <time>2021-11-23T10:06:14+01:00</time>
      </trkpt>
      <trkpt lat="45.79512" lon="4.45503">
        <ele>665</ele>
        <time>2021-11-23T10:06:19+01:00</time>
      </trkpt>
      <trkpt lat="45.79424" lon="4.45695">
        <ele>643</ele>
        <time>2021-11-23T10:06:24+01:00</time>
      </trkpt>
      <trkpt lat="45.79356" lon="4.45808">
        <ele>640</ele>
        <time>2021-11-23T10:06:29+01:00</time>
      </trkpt>
      <trkpt lat="45.79315" lon="4.45949">
        <ele>643</ele>
        <time>2021-11-23T10:06:34+01:00</time>
      </trkpt>
      <trkpt lat="45.79263" lon="4.46102">
        <ele>645</ele>
        <time>2021-11-23T10:06:39+01:00</time>
      </trkpt>
      <trkpt lat="45.79271" lon="4.46215">
        <ele>647</ele>
        <time>2021-11-23T10:06:44+01:00</time>
      </trkpt>
      <trkpt lat="45.7931" lon="4.46329">
        <ele>650</ele>
        <time>2021-11-23T10:06:49+01:00</time>
      </trkpt>
      <trkpt lat="45.79247" lon="4.46501">
        <ele>654</ele>
        <time>2021-11-23T10:06:54+01:00</time>
      </trkpt>
      <trkpt lat="45.79113" lon="4.46572">
        <ele>661</ele>
        <time>2021-11-23T10:06:59+01:00</time>
      </trkpt>
      <trkpt lat="45.79007" lon="4.46634">
        <ele>667</ele>
        <time>2021-11-23T10:07:04+01:00</time>
      </trkpt>
      <trkpt lat="45.78985" lon="4.46728">
        <ele>662</ele>
        <time>2021-11-23T10:07:09+01:00</time>
      </trkpt>
      <trkpt lat="45.79001" lon="4.46826">
        <ele>656</ele>
        <time>2021-11-23T10:07:14+01:00</time>
      </trkpt>
      <trkpt lat="45.78881" lon="4.47006">
        <ele>646</ele>
        <time>2021-11-23T10:07:19+01:00</time>
      </trkpt>
      <trkpt lat="45.78772" lon="4.4717">
        <ele>635</ele>
        <time>2021-11-23T10:07:24+01:00</time>
      </trkpt>
      <trkpt lat="45.78614" lon="4.47229">
        <ele>628</ele>
        <time>2021-11-23T10:07:29+01:00</time>
      </trkpt>
      <trkpt lat="45.78485" lon="4.47421">
        <ele>651</ele>
        <time>2021-11-23T10:07:34+01:00</time>
      </trkpt>
      <trkpt lat="45.78368" lon="4.47429">
        <ele>664</ele>
        <time>2021-11-23T10:07:39+01:00</time>
      </trkpt>
      <trkpt lat="45.7821" lon="4.47761">
        <ele>691</ele>
        <time>2021-11-23T10:07:44+01:00</time>
      </trkpt>
      <trkpt lat="45.78035" lon="4.47992">
        <ele>700</ele>
        <time>2021-11-23T10:07:49+01:00</time>
      </trkpt>
      <trkpt lat="45.78027" lon="4.4809">
        <ele>711</ele>
        <time>2021-11-23T10:07:54+01:00</time>
      </trkpt>
      <trkpt lat="45.77964" lon="4.48207">
        <ele>721</ele>
        <time>2021-11-23T10:07:59+01:00</time>
      </trkpt>
      <trkpt lat="45.77923" lon="4.48333">
        <ele>736</ele>
        <time>2021-11-23T10:08:04+01:00</time>
      </trkpt>
      <trkpt lat="45.77754" lon="4.48536">
        <ele>729</ele>
        <time>2021-11-23T10:08:09+01:00</time>
      </trkpt>
      <trkpt lat="45.77642" lon="4.48638">
        <ele>743</ele>
        <time>2021-11-23T10:08:14+01:00</time>
      </trkpt>
      <trkpt lat="45.77577" lon="4.48751">
        <ele>748</ele>
        <time>2021-11-23T10:08:19+01:00</time>
      </trkpt>
      <trkpt lat="45.77519" lon="4.48822">
        <ele>750</ele>
        <time>2021-11-23T10:08:24+01:00</time>
      </trkpt>
      <trkpt lat="45.77497" lon="4.49307">
        <ele>740</ele>
        <time>2021-11-23T10:08:29+01:00</time>
      </trkpt>
      <trkpt lat="45.77517" lon="4.49554">
        <ele>740</ele>
        <time>2021-11-23T10:08:34+01:00</time>
      </trkpt>
      <trkpt lat="45.77557" lon="4.49714">
        <ele>711</ele>
        <time>2021-11-23T10:08:39+01:00</time>
      </trkpt>
      <trkpt lat="45.7756" lon="4.49945">
        <ele>692</ele>
        <time>2021-11-23T10:08:44+01:00</time>
      </trkpt>
      <trkpt lat="45.77454" lon="4.49941">
        <ele>684</ele>
        <time>2021-11-23T10:08:49+01:00</time>
      </trkpt>
      <trkpt lat="45.77304" lon="4.49851">
        <ele>677</ele>
        <time>2021-11-23T10:08:54+01:00</time>
      </trkpt>
      <trkpt lat="45.77208" lon="4.49875">
        <ele>663</ele>
        <time>2021-11-23T10:08:59+01:00</time>
      </trkpt>
      <trkpt lat="45.77156" lon="4.4982">
        <ele>671</ele>
        <time>2021-11-23T10:09:04+01:00</time>
      </trkpt>
      <trkpt lat="45.76968" lon="4.49933">
        <ele>646</ele>
        <time>2021-11-23T10:09:09+01:00</time>
      </trkpt>
      <trkpt lat="45.76739" lon="4.5018">
        <ele>577</ele>
        <time>2021-11-23T10:09:14+01:00</time>
      </trkpt>
      <trkpt lat="45.76698" lon="4.50113">
        <ele>571</ele>
        <time>2021-11-23T10:09:19+01:00</time>
      </trkpt>
      <trkpt lat="45.767" lon="4.49961">
        <ele>575</ele>
        <time>2021-11-23T10:09:24+01:00</time>
      </trkpt>
      <trkpt lat="45.76662" lon="4.49918">
        <ele>569</ele>
        <time>2021-11-23T10:09:29+01:00</time>
      </trkpt>
      <trkpt lat="45.76449" lon="4.49882">
        <ele>555</ele>
        <time>2021-11-23T10:09:34+01:00</time>
      </trkpt>
      <trkpt lat="45.76291" lon="4.49931">
        <ele>549</ele>
        <time>2021-11-23T10:09:39+01:00</time>
      </trkpt>
      <trkpt lat="45.76271" lon="4.49897">
        <ele>553</ele>
        <time>2021-11-23T10:09:44+01:00</time>
      </trkpt>
      <trkpt lat="45.76217" lon="4.49885">
        <ele>553</ele>
        <time>2021-11-23T10:09:49+01:00</time>
      </trkpt>
      <trkpt lat="45.76185" lon="4.4988">
        <ele>551</ele>
        <time>2021-11-23T10:09:54+01:00</time>
      </trkpt>
    </trkseg>
  </trk>
  <trk>
    <name><![CDATA[40 - ST MARTIN EN HAUT ST CHAMOND 31.9 KM]]></name>
    <extensions>
      <line xmlns="http://www.topografix.com/GPX/gpx_style/0/2">
        <color>FF0000</color>
        <width>4</width>
      </line>
    </extensions>
    <trkseg>
      <trkpt lat="45.65177" lon="4.56283">
        <ele>777</ele>
        <time>2021-11-23T10:14:56+01:00</time>
      </trkpt>
      <trkpt lat="45.65165" lon="4.56462">
        <ele>782</ele>
        <time>2021-11-23T10:15:01+01:00</time>
      </trkpt>
      <trkpt lat="45.652" lon="4.56587">
        <ele>787</ele>
        <time>2021-11-23T10:15:06+01:00</time>
      </trkpt>
      <trkpt lat="45.65029" lon="4.56782">
        <ele>799</ele>
        <time>2021-11-23T10:15:11+01:00</time>
      </trkpt>
      <trkpt lat="45.64915" lon="4.5695">
        <ele>804</ele>
        <time>2021-11-23T10:15:16+01:00</time>
      </trkpt>
      <trkpt lat="45.64783" lon="4.5714">
        <ele>807</ele>
        <time>2021-11-23T10:15:21+01:00</time>
      </trkpt>
      <trkpt lat="45.64585" lon="4.57292">
        <ele>805</ele>
        <time>2021-11-23T10:15:26+01:00</time>
      </trkpt>
      <trkpt lat="45.64453" lon="4.57378">
        <ele>797</ele>
        <time>2021-11-23T10:15:31+01:00</time>
      </trkpt>
      <trkpt lat="45.64378" lon="4.57371">
        <ele>790</ele>
        <time>2021-11-23T10:15:36+01:00</time>
      </trkpt>
      <trkpt lat="45.64281" lon="4.57436">
        <ele>782</ele>
        <time>2021-11-23T10:15:41+01:00</time>
      </trkpt>
      <trkpt lat="45.64345" lon="4.57582">
        <ele>795</ele>
        <time>2021-11-23T10:15:46+01:00</time>
      </trkpt>
      <trkpt lat="45.64322" lon="4.57772">
        <ele>806</ele>
        <time>2021-11-23T10:15:51+01:00</time>
      </trkpt>
      <trkpt lat="45.64335" lon="4.57966">
        <ele>819</ele>
        <time>2021-11-23T10:15:56+01:00</time>
      </trkpt>
      <trkpt lat="45.64261" lon="4.5798">
        <ele>833</ele>
        <time>2021-11-23T10:16:01+01:00</time>
      </trkpt>
      <trkpt lat="45.64227" lon="4.58035">
        <ele>842</ele>
        <time>2021-11-23T10:16:06+01:00</time>
      </trkpt>
      <trkpt lat="45.64207" lon="4.5817">
        <ele>852</ele>
        <time>2021-11-23T10:16:11+01:00</time>
      </trkpt>
      <trkpt lat="45.64158" lon="4.58444">
        <ele>856</ele>
        <time>2021-11-23T10:16:16+01:00</time>
      </trkpt>
      <trkpt lat="45.64207" lon="4.58535">
        <ele>846</ele>
        <time>2021-11-23T10:16:21+01:00</time>
      </trkpt>
      <trkpt lat="45.64207" lon="4.58627">
        <ele>849</ele>
        <time>2021-11-23T10:16:26+01:00</time>
      </trkpt>
      <trkpt lat="45.64258" lon="4.58707">
        <ele>845</ele>
        <time>2021-11-23T10:16:31+01:00</time>
      </trkpt>
      <trkpt lat="45.64235" lon="4.58755">
        <ele>850</ele>
        <time>2021-11-23T10:16:36+01:00</time>
      </trkpt>
      <trkpt lat="45.64118" lon="4.58817">
        <ele>868</ele>
        <time>2021-11-23T10:16:41+01:00</time>
      </trkpt>
      <trkpt lat="45.64074" lon="4.58802">
        <ele>874</ele>
        <time>2021-11-23T10:16:46+01:00</time>
      </trkpt>
      <trkpt lat="45.64044" lon="4.58897">
        <ele>883</ele>
        <time>2021-11-23T10:16:51+01:00</time>
      </trkpt>
      <trkpt lat="45.64041" lon="4.59032">
        <ele>890</ele>
        <time>2021-11-23T10:16:56+01:00</time>
      </trkpt>
      <trkpt lat="45.63944" lon="4.59171">
        <ele>912</ele>
        <time>2021-11-23T10:17:01+01:00</time>
      </trkpt>
      <trkpt lat="45.63975" lon="4.59342">
        <ele>920</ele>
        <time>2021-11-23T10:17:06+01:00</time>
      </trkpt>
      <trkpt lat="45.63954" lon="4.59419">
        <ele>924</ele>
        <time>2021-11-23T10:17:11+01:00</time>
      </trkpt>
      <trkpt lat="45.63816" lon="4.59456">
        <ele>919</ele>
        <time>2021-11-23T10:17:16+01:00</time>
      </trkpt>
      <trkpt lat="45.63735" lon="4.59357">
        <ele>921</ele>
        <time>2021-11-23T10:17:21+01:00</time>
      </trkpt>
      <trkpt lat="45.63689" lon="4.59229">
        <ele>907</ele>
        <time>2021-11-23T10:17:26+01:00</time>
      </trkpt>
      <trkpt lat="45.63648" lon="4.59189">
        <ele>894</ele>
        <time>2021-11-23T10:17:31+01:00</time>
      </trkpt>
      <trkpt lat="45.63579" lon="4.59266">
        <ele>882</ele>
        <time>2021-11-23T10:17:36+01:00</time>
      </trkpt>
      <trkpt lat="45.63518" lon="4.59423">
        <ele>859</ele>
        <time>2021-11-23T10:17:41+01:00</time>
      </trkpt>
      <trkpt lat="45.63459" lon="4.5954">
        <ele>855</ele>
        <time>2021-11-23T10:17:46+01:00</time>
      </trkpt>
      <trkpt lat="45.63201" lon="4.59631">
        <ele>867</ele>
        <time>2021-11-23T10:17:51+01:00</time>
      </trkpt>
      <trkpt lat="45.63117" lon="4.59693">
        <ele>869</ele>
        <time>2021-11-23T10:17:56+01:00</time>
      </trkpt>
      <trkpt lat="45.63025" lon="4.59898">
        <ele>856</ele>
        <time>2021-11-23T10:18:01+01:00</time>
      </trkpt>
      <trkpt lat="45.62986" lon="4.60044">
        <ele>845</ele>
        <time>2021-11-23T10:18:06+01:00</time>
      </trkpt>
      <trkpt lat="45.62938" lon="4.60029">
        <ele>841</ele>
        <time>2021-11-23T10:18:11+01:00</time>
      </trkpt>
      <trkpt lat="45.62849" lon="4.59989">
        <ele>834</ele>
        <time>2021-11-23T10:18:16+01:00</time>
      </trkpt>
      <trkpt lat="45.62624" lon="4.59982">
        <ele>822</ele>
        <time>2021-11-23T10:18:21+01:00</time>
      </trkpt>
      <trkpt lat="45.62476" lon="4.60047">
        <ele>827</ele>
        <time>2021-11-23T10:18:26+01:00</time>
      </trkpt>
      <trkpt lat="45.62381" lon="4.59967">
        <ele>824</ele>
        <time>2021-11-23T10:18:31+01:00</time>
      </trkpt>
      <trkpt lat="45.62228" lon="4.59733">
        <ele>839</ele>
        <time>2021-11-23T10:18:36+01:00</time>
      </trkpt>
      <trkpt lat="45.62218" lon="4.59558">
        <ele>845</ele>
        <time>2021-11-23T10:18:41+01:00</time>
      </trkpt>
      <trkpt lat="45.621" lon="4.59401">
        <ele>863</ele>
        <time>2021-11-23T10:18:46+01:00</time>
      </trkpt>
      <trkpt lat="45.61985" lon="4.59332">
        <ele>867</ele>
        <time>2021-11-23T10:18:51+01:00</time>
      </trkpt>
      <trkpt lat="45.61883" lon="4.59364">
        <ele>863</ele>
        <time>2021-11-23T10:18:56+01:00</time>
      </trkpt>
      <trkpt lat="45.61487" lon="4.59317">
        <ele>849</ele>
        <time>2021-11-23T10:19:01+01:00</time>
      </trkpt>
      <trkpt lat="45.61237" lon="4.59244">
        <ele>826</ele>
        <time>2021-11-23T10:19:06+01:00</time>
      </trkpt>
      <trkpt lat="45.61043" lon="4.59061">
        <ele>790</ele>
        <time>2021-11-23T10:19:11+01:00</time>
      </trkpt>
      <trkpt lat="45.60862" lon="4.59025">
        <ele>769</ele>
        <time>2021-11-23T10:19:16+01:00</time>
      </trkpt>
      <trkpt lat="45.6079" lon="4.58988">
        <ele>765</ele>
        <time>2021-11-23T10:19:21+01:00</time>
      </trkpt>
      <trkpt lat="45.60542" lon="4.58933">
        <ele>760</ele>
        <time>2021-11-23T10:19:26+01:00</time>
      </trkpt>
      <trkpt lat="45.60376" lon="4.58963">
        <ele>740</ele>
        <time>2021-11-23T10:19:31+01:00</time>
      </trkpt>
      <trkpt lat="45.6022" lon="4.58915">
        <ele>718</ele>
        <time>2021-11-23T10:19:36+01:00</time>
      </trkpt>
      <trkpt lat="45.60136" lon="4.58904">
        <ele>712</ele>
        <time>2021-11-23T10:19:41+01:00</time>
      </trkpt>
      <trkpt lat="45.60174" lon="4.58758">
        <ele>708</ele>
        <time>2021-11-23T10:19:46+01:00</time>
      </trkpt>
      <trkpt lat="45.6019" lon="4.5859">
        <ele>707</ele>
        <time>2021-11-23T10:19:51+01:00</time>
      </trkpt>
      <trkpt lat="45.60116" lon="4.58346">
        <ele>709</ele>
        <time>2021-11-23T10:19:56+01:00</time>
      </trkpt>
      <trkpt lat="45.6008" lon="4.58126">
        <ele>701</ele>
        <time>2021-11-23T10:20:01+01:00</time>
      </trkpt>
      <trkpt lat="45.60034" lon="4.58035">
        <ele>678</ele>
        <time>2021-11-23T10:20:06+01:00</time>
      </trkpt>
      <trkpt lat="45.60034" lon="4.579">
        <ele>676</ele>
        <time>2021-11-23T10:20:11+01:00</time>
      </trkpt>
      <trkpt lat="45.601" lon="4.57776">
        <ele>688</ele>
        <time>2021-11-23T10:20:16+01:00</time>
      </trkpt>
      <trkpt lat="45.60057" lon="4.57655">
        <ele>685</ele>
        <time>2021-11-23T10:20:21+01:00</time>
      </trkpt>
      <trkpt lat="45.60011" lon="4.57498">
        <ele>692</ele>
        <time>2021-11-23T10:20:26+01:00</time>
      </trkpt>
      <trkpt lat="45.59972" lon="4.57309">
        <ele>688</ele>
        <time>2021-11-23T10:20:31+01:00</time>
      </trkpt>
      <trkpt lat="45.59937" lon="4.57122">
        <ele>694</ele>
        <time>2021-11-23T10:20:36+01:00</time>
      </trkpt>
      <trkpt lat="45.5986" lon="4.57082">
        <ele>695</ele>
        <time>2021-11-23T10:20:41+01:00</time>
      </trkpt>
      <trkpt lat="45.59791" lon="4.57119">
        <ele>691</ele>
        <time>2021-11-23T10:20:46+01:00</time>
      </trkpt>
      <trkpt lat="45.59661" lon="4.57108">
        <ele>694</ele>
        <time>2021-11-23T10:20:51+01:00</time>
      </trkpt>
      <trkpt lat="45.59484" lon="4.57082">
        <ele>707</ele>
        <time>2021-11-23T10:20:56+01:00</time>
      </trkpt>
      <trkpt lat="45.59426" lon="4.57122">
        <ele>716</ele>
        <time>2021-11-23T10:21:01+01:00</time>
      </trkpt>
      <trkpt lat="45.59354" lon="4.57005">
        <ele>726</ele>
        <time>2021-11-23T10:21:06+01:00</time>
      </trkpt>
      <trkpt lat="45.59285" lon="4.57173">
        <ele>741</ele>
        <time>2021-11-23T10:21:11+01:00</time>
      </trkpt>
      <trkpt lat="45.5918" lon="4.57214">
        <ele>755</ele>
        <time>2021-11-23T10:21:16+01:00</time>
      </trkpt>
      <trkpt lat="45.59134" lon="4.57166">
        <ele>758</ele>
        <time>2021-11-23T10:21:21+01:00</time>
      </trkpt>
      <trkpt lat="45.5895" lon="4.57272">
        <ele>788</ele>
        <time>2021-11-23T10:21:26+01:00</time>
      </trkpt>
      <trkpt lat="45.58787" lon="4.57272">
        <ele>809</ele>
        <time>2021-11-23T10:21:31+01:00</time>
      </trkpt>
      <trkpt lat="45.58703" lon="4.57235">
        <ele>812</ele>
        <time>2021-11-23T10:21:36+01:00</time>
      </trkpt>
      <trkpt lat="45.58603" lon="4.57086">
        <ele>818</ele>
        <time>2021-11-23T10:21:41+01:00</time>
      </trkpt>
      <trkpt lat="45.58559" lon="4.56984">
        <ele>816</ele>
        <time>2021-11-23T10:21:46+01:00</time>
      </trkpt>
      <trkpt lat="45.58358" lon="4.56841">
        <ele>794</ele>
        <time>2021-11-23T10:21:51+01:00</time>
      </trkpt>
      <trkpt lat="45.58363" lon="4.56713">
        <ele>805</ele>
        <time>2021-11-23T10:21:56+01:00</time>
      </trkpt>
      <trkpt lat="45.58171" lon="4.56399">
        <ele>827</ele>
        <time>2021-11-23T10:22:01+01:00</time>
      </trkpt>
      <trkpt lat="45.58125" lon="4.56377">
        <ele>827</ele>
        <time>2021-11-23T10:22:06+01:00</time>
      </trkpt>
      <trkpt lat="45.58051" lon="4.56202">
        <ele>826</ele>
        <time>2021-11-23T10:22:11+01:00</time>
      </trkpt>
      <trkpt lat="45.58043" lon="4.56067">
        <ele>820</ele>
        <time>2021-11-23T10:22:16+01:00</time>
      </trkpt>
      <trkpt lat="45.57943" lon="4.5564">
        <ele>804</ele>
        <time>2021-11-23T10:22:21+01:00</time>
      </trkpt>
      <trkpt lat="45.57895" lon="4.55461">
        <ele>805</ele>
        <time>2021-11-23T10:22:26+01:00</time>
      </trkpt>
      <trkpt lat="45.57851" lon="4.5526">
        <ele>812</ele>
        <time>2021-11-23T10:22:31+01:00</time>
      </trkpt>
      <trkpt lat="45.5788" lon="4.54979">
        <ele>824</ele>
        <time>2021-11-23T10:22:36+01:00</time>
      </trkpt>
      <trkpt lat="45.5789" lon="4.54771">
        <ele>837</ele>
        <time>2021-11-23T10:22:41+01:00</time>
      </trkpt>
      <trkpt lat="45.5791" lon="4.54588">
        <ele>842</ele>
        <time>2021-11-23T10:22:46+01:00</time>
      </trkpt>
      <trkpt lat="45.57851" lon="4.54424">
        <ele>847</ele>
        <time>2021-11-23T10:22:51+01:00</time>
      </trkpt>
      <trkpt lat="45.57609" lon="4.54168">
        <ele>854</ele>
        <time>2021-11-23T10:22:56+01:00</time>
      </trkpt>
      <trkpt lat="45.57547" lon="4.53964">
        <ele>855</ele>
        <time>2021-11-23T10:23:01+01:00</time>
      </trkpt>
      <trkpt lat="45.57422" lon="4.53748">
        <ele>864</ele>
        <time>2021-11-23T10:23:06+01:00</time>
      </trkpt>
      <trkpt lat="45.5735" lon="4.53609">
        <ele>866</ele>
        <time>2021-11-23T10:23:11+01:00</time>
      </trkpt>
      <trkpt lat="45.57289" lon="4.53449">
        <ele>868</ele>
        <time>2021-11-23T10:23:16+01:00</time>
      </trkpt>
      <trkpt lat="45.57287" lon="4.53211">
        <ele>870</ele>
        <time>2021-11-23T10:23:21+01:00</time>
      </trkpt>
      <trkpt lat="45.57264" lon="4.5289">
        <ele>874</ele>
        <time>2021-11-23T10:23:26+01:00</time>
      </trkpt>
      <trkpt lat="45.57345" lon="4.5262">
        <ele>856</ele>
        <time>2021-11-23T10:23:31+01:00</time>
      </trkpt>
      <trkpt lat="45.57315" lon="4.52488">
        <ele>852</ele>
        <time>2021-11-23T10:23:36+01:00</time>
      </trkpt>
      <trkpt lat="45.57253" lon="4.52426">
        <ele>854</ele>
        <time>2021-11-23T10:23:41+01:00</time>
      </trkpt>
      <trkpt lat="45.57156" lon="4.52149">
        <ele>859</ele>
        <time>2021-11-23T10:23:46+01:00</time>
      </trkpt>
      <trkpt lat="45.57212" lon="4.51809">
        <ele>869</ele>
        <time>2021-11-23T10:23:51+01:00</time>
      </trkpt>
      <trkpt lat="45.57103" lon="4.51663">
        <ele>863</ele>
        <time>2021-11-23T10:23:56+01:00</time>
      </trkpt>
      <trkpt lat="45.57021" lon="4.51418">
        <ele>861</ele>
        <time>2021-11-23T10:24:01+01:00</time>
      </trkpt>
      <trkpt lat="45.57021" lon="4.5121">
        <ele>869</ele>
        <time>2021-11-23T10:24:06+01:00</time>
      </trkpt>
      <trkpt lat="45.56936" lon="4.50783">
        <ele>873</ele>
        <time>2021-11-23T10:24:11+01:00</time>
      </trkpt>
      <trkpt lat="45.56883" lon="4.50465">
        <ele>862</ele>
        <time>2021-11-23T10:24:16+01:00</time>
      </trkpt>
      <trkpt lat="45.5687" lon="4.50235">
        <ele>838</ele>
        <time>2021-11-23T10:24:21+01:00</time>
      </trkpt>
      <trkpt lat="45.56757" lon="4.50064">
        <ele>825</ele>
        <time>2021-11-23T10:24:26+01:00</time>
      </trkpt>
      <trkpt lat="45.56604" lon="4.49918">
        <ele>827</ele>
        <time>2021-11-23T10:24:31+01:00</time>
      </trkpt>
      <trkpt lat="45.56415" lon="4.49757">
        <ele>832</ele>
        <time>2021-11-23T10:24:36+01:00</time>
      </trkpt>
      <trkpt lat="45.56223" lon="4.496">
        <ele>834</ele>
        <time>2021-11-23T10:24:41+01:00</time>
      </trkpt>
      <trkpt lat="45.56044" lon="4.49487">
        <ele>839</ele>
        <time>2021-11-23T10:24:46+01:00</time>
      </trkpt>
      <trkpt lat="45.55868" lon="4.49516">
        <ele>845</ele>
        <time>2021-11-23T10:24:51+01:00</time>
      </trkpt>
      <trkpt lat="45.55781" lon="4.49593">
        <ele>855</ele>
        <time>2021-11-23T10:24:56+01:00</time>
      </trkpt>
      <trkpt lat="45.55627" lon="4.496">
        <ele>862</ele>
        <time>2021-11-23T10:25:01+01:00</time>
      </trkpt>
      <trkpt lat="45.5539" lon="4.49476">
        <ele>860</ele>
        <time>2021-11-23T10:25:06+01:00</time>
      </trkpt>
      <trkpt lat="45.5518" lon="4.49421">
        <ele>852</ele>
        <time>2021-11-23T10:25:11+01:00</time>
      </trkpt>
      <trkpt lat="45.5507" lon="4.49494">
        <ele>833</ele>
        <time>2021-11-23T10:25:16+01:00</time>
      </trkpt>
      <trkpt lat="45.54955" lon="4.49622">
        <ele>805</ele>
        <time>2021-11-23T10:25:21+01:00</time>
      </trkpt>
      <trkpt lat="45.54824" lon="4.49666">
        <ele>784</ele>
        <time>2021-11-23T10:25:26+01:00</time>
      </trkpt>
      <trkpt lat="45.54645" lon="4.49673">
        <ele>772</ele>
        <time>2021-11-23T10:25:31+01:00</time>
      </trkpt>
      <trkpt lat="45.54433" lon="4.49622">
        <ele>766</ele>
        <time>2021-11-23T10:25:36+01:00</time>
      </trkpt>
      <trkpt lat="45.5419" lon="4.49381">
        <ele>770</ele>
        <time>2021-11-23T10:25:41+01:00</time>
      </trkpt>
      <trkpt lat="45.53929" lon="4.49165">
        <ele>776</ele>
        <time>2021-11-23T10:25:46+01:00</time>
      </trkpt>
      <trkpt lat="45.53704" lon="4.48975">
        <ele>762</ele>
        <time>2021-11-23T10:25:51+01:00</time>
      </trkpt>
      <trkpt lat="45.53551" lon="4.48738">
        <ele>749</ele>
        <time>2021-11-23T10:25:56+01:00</time>
      </trkpt>
      <trkpt lat="45.53433" lon="4.48632">
        <ele>755</ele>
        <time>2021-11-23T10:26:01+01:00</time>
      </trkpt>
      <trkpt lat="45.53356" lon="4.48665">
        <ele>757</ele>
        <time>2021-11-23T10:26:06+01:00</time>
      </trkpt>
      <trkpt lat="45.53259" lon="4.48818">
        <ele>751</ele>
        <time>2021-11-23T10:26:11+01:00</time>
      </trkpt>
      <trkpt lat="45.53101" lon="4.48888">
        <ele>741</ele>
        <time>2021-11-23T10:26:16+01:00</time>
      </trkpt>
      <trkpt lat="45.52952" lon="4.48888">
        <ele>731</ele>
        <time>2021-11-23T10:26:21+01:00</time>
      </trkpt>
      <trkpt lat="45.52776" lon="4.48943">
        <ele>727</ele>
        <time>2021-11-23T10:26:26+01:00</time>
      </trkpt>
      <trkpt lat="45.52576" lon="4.48888">
        <ele>738</ele>
        <time>2021-11-23T10:26:31+01:00</time>
      </trkpt>
      <trkpt lat="45.52418" lon="4.48884">
        <ele>750</ele>
        <time>2021-11-23T10:26:36+01:00</time>
      </trkpt>
      <trkpt lat="45.52272" lon="4.4887">
        <ele>749</ele>
        <time>2021-11-23T10:26:41+01:00</time>
      </trkpt>
      <trkpt lat="45.52157" lon="4.48804">
        <ele>753</ele>
        <time>2021-11-23T10:26:46+01:00</time>
      </trkpt>
      <trkpt lat="45.51929" lon="4.4891">
        <ele>769</ele>
        <time>2021-11-23T10:26:51+01:00</time>
      </trkpt>
      <trkpt lat="45.51837" lon="4.48983">
        <ele>772</ele>
        <time>2021-11-23T10:26:56+01:00</time>
      </trkpt>
      <trkpt lat="45.51637" lon="4.49016">
        <ele>789</ele>
        <time>2021-11-23T10:27:01+01:00</time>
      </trkpt>
      <trkpt lat="45.51612" lon="4.49271">
        <ele>790</ele>
        <time>2021-11-23T10:27:06+01:00</time>
      </trkpt>
      <trkpt lat="45.51724" lon="4.49636">
        <ele>790</ele>
        <time>2021-11-23T10:27:11+01:00</time>
      </trkpt>
      <trkpt lat="45.51734" lon="4.49863">
        <ele>796</ele>
        <time>2021-11-23T10:27:16+01:00</time>
      </trkpt>
      <trkpt lat="45.51814" lon="4.49991">
        <ele>783</ele>
        <time>2021-11-23T10:27:21+01:00</time>
      </trkpt>
      <trkpt lat="45.51934" lon="4.50162">
        <ele>760</ele>
        <time>2021-11-23T10:27:26+01:00</time>
      </trkpt>
      <trkpt lat="45.52013" lon="4.5021">
        <ele>754</ele>
        <time>2021-11-23T10:27:31+01:00</time>
      </trkpt>
      <trkpt lat="45.51942" lon="4.50232">
        <ele>752</ele>
        <time>2021-11-23T10:27:36+01:00</time>
      </trkpt>
      <trkpt lat="45.51847" lon="4.50159">
        <ele>751</ele>
        <time>2021-11-23T10:27:41+01:00</time>
      </trkpt>
      <trkpt lat="45.51568" lon="4.50199">
        <ele>715</ele>
        <time>2021-11-23T10:27:46+01:00</time>
      </trkpt>
      <trkpt lat="45.51453" lon="4.50308">
        <ele>688</ele>
        <time>2021-11-23T10:27:51+01:00</time>
      </trkpt>
      <trkpt lat="45.51348" lon="4.50476">
        <ele>657</ele>
        <time>2021-11-23T10:27:56+01:00</time>
      </trkpt>
      <trkpt lat="45.51154" lon="4.50626">
        <ele>608</ele>
        <time>2021-11-23T10:28:01+01:00</time>
      </trkpt>
      <trkpt lat="45.51054" lon="4.50801">
        <ele>584</ele>
        <time>2021-11-23T10:28:06+01:00</time>
      </trkpt>
      <trkpt lat="45.50974" lon="4.50852">
        <ele>575</ele>
        <time>2021-11-23T10:28:11+01:00</time>
      </trkpt>
      <trkpt lat="45.50813" lon="4.50863">
        <ele>552</ele>
        <time>2021-11-23T10:28:16+01:00</time>
      </trkpt>
      <trkpt lat="45.50742" lon="4.50911">
        <ele>544</ele>
        <time>2021-11-23T10:28:21+01:00</time>
      </trkpt>
      <trkpt lat="45.5057" lon="4.50922">
        <ele>519</ele>
        <time>2021-11-23T10:28:26+01:00</time>
      </trkpt>
      <trkpt lat="45.50404" lon="4.50947">
        <ele>506</ele>
        <time>2021-11-23T10:28:31+01:00</time>
      </trkpt>
      <trkpt lat="45.49923" lon="4.51572">
        <ele>453</ele>
        <time>2021-11-23T10:28:36+01:00</time>
      </trkpt>
      <trkpt lat="45.49554" lon="4.51455">
        <ele>425</ele>
        <time>2021-11-23T10:28:41+01:00</time>
      </trkpt>
      <trkpt lat="45.49454" lon="4.51444">
        <ele>415</ele>
        <time>2021-11-23T10:28:46+01:00</time>
      </trkpt>
      <trkpt lat="45.49162" lon="4.51583">
        <ele>395</ele>
        <time>2021-11-23T10:28:51+01:00</time>
      </trkpt>
      <trkpt lat="45.49027" lon="4.51656">
        <ele>381</ele>
        <time>2021-11-23T10:28:56+01:00</time>
      </trkpt>
      <trkpt lat="45.48978" lon="4.51619">
        <ele>377</ele>
        <time>2021-11-23T10:29:01+01:00</time>
      </trkpt>
      <trkpt lat="45.48919" lon="4.51597">
        <ele>371</ele>
        <time>2021-11-23T10:29:06+01:00</time>
      </trkpt>
      <trkpt lat="45.48876" lon="4.5147">
        <ele>370</ele>
        <time>2021-11-23T10:29:11+01:00</time>
      </trkpt>
      <trkpt lat="45.48842" lon="4.51123">
        <ele>394</ele>
        <time>2021-11-23T10:29:16+01:00</time>
      </trkpt>
      <trkpt lat="45.48822" lon="4.50845">
        <ele>405</ele>
        <time>2021-11-23T10:29:21+01:00</time>
      </trkpt>
      <trkpt lat="45.48727" lon="4.50816">
        <ele>403</ele>
        <time>2021-11-23T10:29:26+01:00</time>
      </trkpt>
      <trkpt lat="45.4863" lon="4.50885">
        <ele>392</ele>
        <time>2021-11-23T10:29:31+01:00</time>
      </trkpt>
      <trkpt lat="45.48566" lon="4.50882">
        <ele>385</ele>
        <time>2021-11-23T10:29:36+01:00</time>
      </trkpt>
      <trkpt lat="45.4854" lon="4.50827">
        <ele>383</ele>
        <time>2021-11-23T10:29:41+01:00</time>
      </trkpt>
      <trkpt lat="45.48333" lon="4.50871">
        <ele>382</ele>
        <time>2021-11-23T10:29:46+01:00</time>
      </trkpt>
      <trkpt lat="45.48113" lon="4.51031">
        <ele>384</ele>
        <time>2021-11-23T10:29:51+01:00</time>
      </trkpt>
      <trkpt lat="45.48121" lon="4.51117">
        <ele>376</ele>
        <time>2021-11-23T10:29:56+01:00</time>
      </trkpt>
      <trkpt lat="45.48077" lon="4.51243">
        <ele>371</ele>
        <time>2021-11-23T10:30:01+01:00</time>
      </trkpt>
      <trkpt lat="45.48011" lon="4.5134">
        <ele>369</ele>
        <time>2021-11-23T10:30:06+01:00</time>
      </trkpt>
      <trkpt lat="45.47875" lon="4.51227">
        <ele>362</ele>
        <time>2021-11-23T10:30:11+01:00</time>
      </trkpt>
      <trkpt lat="45.47866" lon="4.51235">
        <ele>360</ele>
        <time>2021-11-23T10:30:16+01:00</time>
      </trkpt>
      <trkpt lat="45.47852" lon="4.51213">
        <ele>359</ele>
        <time>2021-11-23T10:30:21+01:00</time>
      </trkpt>
      <trkpt lat="45.47761" lon="4.51265">
        <ele>360</ele>
        <time>2021-11-23T10:30:26+01:00</time>
      </trkpt>
      <trkpt lat="45.47729" lon="4.51305">
        <ele>360</ele>
        <time>2021-11-23T10:30:31+01:00</time>
      </trkpt>
      <trkpt lat="45.4774" lon="4.51408">
        <ele>355</ele>
        <time>2021-11-23T10:30:36+01:00</time>
      </trkpt>
      <trkpt lat="45.47605" lon="4.51468">
        <ele>366</ele>
        <time>2021-11-23T10:30:41+01:00</time>
      </trkpt>
      <trkpt lat="45.47527" lon="4.51556">
        <ele>370</ele>
        <time>2021-11-23T10:30:46+01:00</time>
      </trkpt>
      <trkpt lat="45.47472" lon="4.51615">
        <ele>371</ele>
        <time>2021-11-23T10:30:51+01:00</time>
      </trkpt>
      <trkpt lat="45.47322" lon="4.51626">
        <ele>378</ele>
        <time>2021-11-23T10:30:56+01:00</time>
      </trkpt>
    </trkseg>
  </trk>
  <trk>
    <name><![CDATA[41 - ST CHAMOND LE BESSAT 14.3 KM]]></name>
    <extensions>
      <line xmlns="http://www.topografix.com/GPX/gpx_style/0/2">
        <color>00FFFF</color>
        <width>4</width>
      </line>
    </extensions>
    <trkseg>
      <trkpt lat="45.47321" lon="4.51614">
        <ele>378</ele>
        <time>2021-11-23T11:16:07+01:00</time>
      </trkpt>
      <trkpt lat="45.47313" lon="4.51631">
        <ele>378</ele>
        <time>2021-11-23T11:16:12+01:00</time>
      </trkpt>
      <trkpt lat="45.47218" lon="4.51618">
        <ele>381</ele>
        <time>2021-11-23T11:16:17+01:00</time>
      </trkpt>
      <trkpt lat="45.4719" lon="4.51641">
        <ele>381</ele>
        <time>2021-11-23T11:16:22+01:00</time>
      </trkpt>
      <trkpt lat="45.47186" lon="4.51684">
        <ele>381</ele>
        <time>2021-11-23T11:16:27+01:00</time>
      </trkpt>
      <trkpt lat="45.47171" lon="4.51684">
        <ele>381</ele>
        <time>2021-11-23T11:16:32+01:00</time>
      </trkpt>
      <trkpt lat="45.47082" lon="4.51596">
        <ele>391</ele>
        <time>2021-11-23T11:16:37+01:00</time>
      </trkpt>
      <trkpt lat="45.46964" lon="4.51483">
        <ele>399</ele>
        <time>2021-11-23T11:16:42+01:00</time>
      </trkpt>
      <trkpt lat="45.46945" lon="4.51472">
        <ele>400</ele>
        <time>2021-11-23T11:16:47+01:00</time>
      </trkpt>
      <trkpt lat="45.46939" lon="4.51443">
        <ele>401</ele>
        <time>2021-11-23T11:16:52+01:00</time>
      </trkpt>
      <trkpt lat="45.4691" lon="4.5134">
        <ele>400</ele>
        <time>2021-11-23T11:16:57+01:00</time>
      </trkpt>
      <trkpt lat="45.46872" lon="4.51258">
        <ele>400</ele>
        <time>2021-11-23T11:17:02+01:00</time>
      </trkpt>
      <trkpt lat="45.46849" lon="4.51111">
        <ele>397</ele>
        <time>2021-11-23T11:17:07+01:00</time>
      </trkpt>
      <trkpt lat="45.4664" lon="4.51065">
        <ele>400</ele>
        <time>2021-11-23T11:17:12+01:00</time>
      </trkpt>
      <trkpt lat="45.46525" lon="4.50995">
        <ele>395</ele>
        <time>2021-11-23T11:17:17+01:00</time>
      </trkpt>
      <trkpt lat="45.46427" lon="4.50901">
        <ele>391</ele>
        <time>2021-11-23T11:17:22+01:00</time>
      </trkpt>
      <trkpt lat="45.46328" lon="4.50729">
        <ele>389</ele>
        <time>2021-11-23T11:17:27+01:00</time>
      </trkpt>
      <trkpt lat="45.46059" lon="4.5061">
        <ele>393</ele>
        <time>2021-11-23T11:17:32+01:00</time>
      </trkpt>
      <trkpt lat="45.45904" lon="4.50538">
        <ele>400</ele>
        <time>2021-11-23T11:17:37+01:00</time>
      </trkpt>
      <trkpt lat="45.45771" lon="4.50512">
        <ele>401</ele>
        <time>2021-11-23T11:17:42+01:00</time>
      </trkpt>
      <trkpt lat="45.45714" lon="4.5047">
        <ele>403</ele>
        <time>2021-11-23T11:17:47+01:00</time>
      </trkpt>
      <trkpt lat="45.45524" lon="4.50454">
        <ele>407</ele>
        <time>2021-11-23T11:17:52+01:00</time>
      </trkpt>
      <trkpt lat="45.45408" lon="4.50463">
        <ele>415</ele>
        <time>2021-11-23T11:17:57+01:00</time>
      </trkpt>
      <trkpt lat="45.45318" lon="4.50402">
        <ele>421</ele>
        <time>2021-11-23T11:18:02+01:00</time>
      </trkpt>
      <trkpt lat="45.45249" lon="4.50358">
        <ele>430</ele>
        <time>2021-11-23T11:18:07+01:00</time>
      </trkpt>
      <trkpt lat="45.45179" lon="4.50381">
        <ele>433</ele>
        <time>2021-11-23T11:18:12+01:00</time>
      </trkpt>
      <trkpt lat="45.45128" lon="4.50405">
        <ele>431</ele>
        <time>2021-11-23T11:18:17+01:00</time>
      </trkpt>
      <trkpt lat="45.44976" lon="4.50328">
        <ele>451</ele>
        <time>2021-11-23T11:18:22+01:00</time>
      </trkpt>
      <trkpt lat="45.4477" lon="4.50391">
        <ele>458</ele>
        <time>2021-11-23T11:18:27+01:00</time>
      </trkpt>
      <trkpt lat="45.44696" lon="4.50477">
        <ele>458</ele>
        <time>2021-11-23T11:18:32+01:00</time>
      </trkpt>
      <trkpt lat="45.44515" lon="4.50622">
        <ele>469</ele>
        <time>2021-11-23T11:18:37+01:00</time>
      </trkpt>
      <trkpt lat="45.44431" lon="4.50771">
        <ele>470</ele>
        <time>2021-11-23T11:18:42+01:00</time>
      </trkpt>
      <trkpt lat="45.44282" lon="4.50873">
        <ele>478</ele>
        <time>2021-11-23T11:18:47+01:00</time>
      </trkpt>
      <trkpt lat="45.44088" lon="4.50995">
        <ele>473</ele>
        <time>2021-11-23T11:18:52+01:00</time>
      </trkpt>
      <trkpt lat="45.44024" lon="4.5096">
        <ele>478</ele>
        <time>2021-11-23T11:18:57+01:00</time>
      </trkpt>
      <trkpt lat="45.43937" lon="4.50934">
        <ele>482</ele>
        <time>2021-11-23T11:19:02+01:00</time>
      </trkpt>
      <trkpt lat="45.43904" lon="4.5099">
        <ele>479</ele>
        <time>2021-11-23T11:19:07+01:00</time>
      </trkpt>
      <trkpt lat="45.43865" lon="4.51072">
        <ele>480</ele>
        <time>2021-11-23T11:19:12+01:00</time>
      </trkpt>
      <trkpt lat="45.43695" lon="4.51132">
        <ele>495</ele>
        <time>2021-11-23T11:19:17+01:00</time>
      </trkpt>
      <trkpt lat="45.43629" lon="4.51146">
        <ele>495</ele>
        <time>2021-11-23T11:19:22+01:00</time>
      </trkpt>
      <trkpt lat="45.43572" lon="4.51116">
        <ele>504</ele>
        <time>2021-11-23T11:19:27+01:00</time>
      </trkpt>
      <trkpt lat="45.43358" lon="4.51226">
        <ele>507</ele>
        <time>2021-11-23T11:19:32+01:00</time>
      </trkpt>
      <trkpt lat="45.43294" lon="4.51251">
        <ele>512</ele>
        <time>2021-11-23T11:19:37+01:00</time>
      </trkpt>
      <trkpt lat="45.43248" lon="4.51314">
        <ele>509</ele>
        <time>2021-11-23T11:19:42+01:00</time>
      </trkpt>
      <trkpt lat="45.43181" lon="4.51375">
        <ele>504</ele>
        <time>2021-11-23T11:19:47+01:00</time>
      </trkpt>
      <trkpt lat="45.4312" lon="4.51368">
        <ele>511</ele>
        <time>2021-11-23T11:19:52+01:00</time>
      </trkpt>
      <trkpt lat="45.43024" lon="4.51412">
        <ele>511</ele>
        <time>2021-11-23T11:19:57+01:00</time>
      </trkpt>
      <trkpt lat="45.42939" lon="4.51396">
        <ele>519</ele>
        <time>2021-11-23T11:20:02+01:00</time>
      </trkpt>
      <trkpt lat="45.42752" lon="4.51401">
        <ele>532</ele>
        <time>2021-11-23T11:20:07+01:00</time>
      </trkpt>
      <trkpt lat="45.42703" lon="4.51454">
        <ele>518</ele>
        <time>2021-11-23T11:20:12+01:00</time>
      </trkpt>
      <trkpt lat="45.42651" lon="4.51468">
        <ele>517</ele>
        <time>2021-11-23T11:20:17+01:00</time>
      </trkpt>
      <trkpt lat="45.42574" lon="4.5165">
        <ele>528</ele>
        <time>2021-11-23T11:20:22+01:00</time>
      </trkpt>
      <trkpt lat="45.42518" lon="4.51615">
        <ele>547</ele>
        <time>2021-11-23T11:20:27+01:00</time>
      </trkpt>
      <trkpt lat="45.42435" lon="4.51557">
        <ele>569</ele>
        <time>2021-11-23T11:20:32+01:00</time>
      </trkpt>
      <trkpt lat="45.42304" lon="4.51566">
        <ele>597</ele>
        <time>2021-11-23T11:20:37+01:00</time>
      </trkpt>
      <trkpt lat="45.42189" lon="4.51559">
        <ele>609</ele>
        <time>2021-11-23T11:20:42+01:00</time>
      </trkpt>
      <trkpt lat="45.41973" lon="4.5154">
        <ele>620</ele>
        <time>2021-11-23T11:20:47+01:00</time>
      </trkpt>
      <trkpt lat="45.41898" lon="4.51585">
        <ele>635</ele>
        <time>2021-11-23T11:20:52+01:00</time>
      </trkpt>
      <trkpt lat="45.41827" lon="4.51559">
        <ele>635</ele>
        <time>2021-11-23T11:20:57+01:00</time>
      </trkpt>
      <trkpt lat="45.41731" lon="4.51601">
        <ele>652</ele>
        <time>2021-11-23T11:21:02+01:00</time>
      </trkpt>
      <trkpt lat="45.41633" lon="4.51577">
        <ele>653</ele>
        <time>2021-11-23T11:21:07+01:00</time>
      </trkpt>
      <trkpt lat="45.41625" lon="4.51639">
        <ele>667</ele>
        <time>2021-11-23T11:21:12+01:00</time>
      </trkpt>
      <trkpt lat="45.41538" lon="4.51668">
        <ele>676</ele>
        <time>2021-11-23T11:21:17+01:00</time>
      </trkpt>
      <trkpt lat="45.4148" lon="4.51725">
        <ele>689</ele>
        <time>2021-11-23T11:21:22+01:00</time>
      </trkpt>
      <trkpt lat="45.4134" lon="4.52043">
        <ele>733</ele>
        <time>2021-11-23T11:21:27+01:00</time>
      </trkpt>
      <trkpt lat="45.41276" lon="4.52188">
        <ele>758</ele>
        <time>2021-11-23T11:21:32+01:00</time>
      </trkpt>
      <trkpt lat="45.41183" lon="4.52349">
        <ele>773</ele>
        <time>2021-11-23T11:21:37+01:00</time>
      </trkpt>
      <trkpt lat="45.41122" lon="4.52421">
        <ele>782</ele>
        <time>2021-11-23T11:21:42+01:00</time>
      </trkpt>
      <trkpt lat="45.41153" lon="4.52414">
        <ele>781</ele>
        <time>2021-11-23T11:21:47+01:00</time>
      </trkpt>
      <trkpt lat="45.41053" lon="4.52499">
        <ele>793</ele>
        <time>2021-11-23T11:21:52+01:00</time>
      </trkpt>
      <trkpt lat="45.40962" lon="4.52616">
        <ele>808</ele>
        <time>2021-11-23T11:21:57+01:00</time>
      </trkpt>
      <trkpt lat="45.40938" lon="4.52693">
        <ele>817</ele>
        <time>2021-11-23T11:22:02+01:00</time>
      </trkpt>
      <trkpt lat="45.40873" lon="4.52743">
        <ele>828</ele>
        <time>2021-11-23T11:22:07+01:00</time>
      </trkpt>
      <trkpt lat="45.40796" lon="4.52735">
        <ele>830</ele>
        <time>2021-11-23T11:22:12+01:00</time>
      </trkpt>
      <trkpt lat="45.40651" lon="4.52875">
        <ele>847</ele>
        <time>2021-11-23T11:22:17+01:00</time>
      </trkpt>
      <trkpt lat="45.40565" lon="4.52883">
        <ele>860</ele>
        <time>2021-11-23T11:22:22+01:00</time>
      </trkpt>
      <trkpt lat="45.40507" lon="4.52921">
        <ele>867</ele>
        <time>2021-11-23T11:22:27+01:00</time>
      </trkpt>
      <trkpt lat="45.40416" lon="4.52888">
        <ele>877</ele>
        <time>2021-11-23T11:22:32+01:00</time>
      </trkpt>
      <trkpt lat="45.40367" lon="4.52903">
        <ele>883</ele>
        <time>2021-11-23T11:22:37+01:00</time>
      </trkpt>
      <trkpt lat="45.40331" lon="4.52971">
        <ele>888</ele>
        <time>2021-11-23T11:22:42+01:00</time>
      </trkpt>
      <trkpt lat="45.39959" lon="4.53061">
        <ele>965</ele>
        <time>2021-11-23T11:22:47+01:00</time>
      </trkpt>
      <trkpt lat="45.39841" lon="4.53017">
        <ele>980</ele>
        <time>2021-11-23T11:22:52+01:00</time>
      </trkpt>
      <trkpt lat="45.39783" lon="4.52958">
        <ele>986</ele>
        <time>2021-11-23T11:22:57+01:00</time>
      </trkpt>
      <trkpt lat="45.39603" lon="4.52945">
        <ele>1007</ele>
        <time>2021-11-23T11:23:02+01:00</time>
      </trkpt>
      <trkpt lat="45.39368" lon="4.53121">
        <ele>1037</ele>
        <time>2021-11-23T11:23:07+01:00</time>
      </trkpt>
      <trkpt lat="45.39263" lon="4.52989">
        <ele>1054</ele>
        <time>2021-11-23T11:23:12+01:00</time>
      </trkpt>
      <trkpt lat="45.39126" lon="4.52953">
        <ele>1078</ele>
        <time>2021-11-23T11:23:17+01:00</time>
      </trkpt>
      <trkpt lat="45.39034" lon="4.52981">
        <ele>1088</ele>
        <time>2021-11-23T11:23:22+01:00</time>
      </trkpt>
      <trkpt lat="45.38855" lon="4.52986">
        <ele>1089</ele>
        <time>2021-11-23T11:23:27+01:00</time>
      </trkpt>
      <trkpt lat="45.38744" lon="4.52945">
        <ele>1098</ele>
        <time>2021-11-23T11:23:32+01:00</time>
      </trkpt>
      <trkpt lat="45.38552" lon="4.52898">
        <ele>1099</ele>
        <time>2021-11-23T11:23:37+01:00</time>
      </trkpt>
      <trkpt lat="45.38401" lon="4.52872">
        <ele>1100</ele>
        <time>2021-11-23T11:23:42+01:00</time>
      </trkpt>
      <trkpt lat="45.38255" lon="4.52826">
        <ele>1102</ele>
        <time>2021-11-23T11:23:47+01:00</time>
      </trkpt>
      <trkpt lat="45.38058" lon="4.52826">
        <ele>1110</ele>
        <time>2021-11-23T11:23:52+01:00</time>
      </trkpt>
      <trkpt lat="45.37802" lon="4.52831">
        <ele>1139</ele>
        <time>2021-11-23T11:23:57+01:00</time>
      </trkpt>
      <trkpt lat="45.37564" lon="4.52735">
        <ele>1153</ele>
        <time>2021-11-23T11:24:02+01:00</time>
      </trkpt>
      <trkpt lat="45.3724" lon="4.52771">
        <ele>1181</ele>
        <time>2021-11-23T11:24:07+01:00</time>
      </trkpt>
      <trkpt lat="45.37047" lon="4.52833">
        <ele>1197</ele>
        <time>2021-11-23T11:24:12+01:00</time>
      </trkpt>
      <trkpt lat="45.3685" lon="4.5282">
        <ele>1203</ele>
        <time>2021-11-23T11:24:17+01:00</time>
      </trkpt>
      <trkpt lat="45.36776" lon="4.52797">
        <ele>1207</ele>
        <time>2021-11-23T11:24:22+01:00</time>
      </trkpt>
      <trkpt lat="45.36814" lon="4.52649">
        <ele>1206</ele>
        <time>2021-11-23T11:24:27+01:00</time>
      </trkpt>
      <trkpt lat="45.3681" lon="4.5223">
        <ele>1202</ele>
        <time>2021-11-23T11:24:32+01:00</time>
      </trkpt>
      <trkpt lat="45.36776" lon="4.51896">
        <ele>1186</ele>
        <time>2021-11-23T11:24:37+01:00</time>
      </trkpt>
      <trkpt lat="45.36843" lon="4.51639">
        <ele>1175</ele>
        <time>2021-11-23T11:24:42+01:00</time>
      </trkpt>
      <trkpt lat="45.36856" lon="4.51577">
        <ele>1174</ele>
        <time>2021-11-23T11:24:47+01:00</time>
      </trkpt>
    </trkseg>
  </trk>
  <trk>
    <name><![CDATA[42 - LE BESSAT VANOSC 21.3 KM]]></name>
    <extensions>
      <line xmlns="http://www.topografix.com/GPX/gpx_style/0/2">
        <color>FFFF00</color>
        <width>4</width>
      </line>
    </extensions>
    <trkseg>
      <trkpt lat="45.36859" lon="4.51589">
        <ele>1174</ele>
        <time>2021-11-23T11:36:24+01:00</time>
      </trkpt>
      <trkpt lat="45.36846" lon="4.51661">
        <ele>1175</ele>
        <time>2021-11-23T11:36:29+01:00</time>
      </trkpt>
      <trkpt lat="45.36777" lon="4.51819">
        <ele>1184</ele>
        <time>2021-11-23T11:36:34+01:00</time>
      </trkpt>
      <trkpt lat="45.36675" lon="4.5186">
        <ele>1196</ele>
        <time>2021-11-23T11:36:39+01:00</time>
      </trkpt>
      <trkpt lat="45.36567" lon="4.5197">
        <ele>1205</ele>
        <time>2021-11-23T11:36:44+01:00</time>
      </trkpt>
      <trkpt lat="45.36447" lon="4.52203">
        <ele>1210</ele>
        <time>2021-11-23T11:36:49+01:00</time>
      </trkpt>
      <trkpt lat="45.36425" lon="4.52317">
        <ele>1213</ele>
        <time>2021-11-23T11:36:54+01:00</time>
      </trkpt>
      <trkpt lat="45.36392" lon="4.52399">
        <ele>1217</ele>
        <time>2021-11-23T11:36:59+01:00</time>
      </trkpt>
      <trkpt lat="45.36316" lon="4.52433">
        <ele>1221</ele>
        <time>2021-11-23T11:37:04+01:00</time>
      </trkpt>
      <trkpt lat="45.36186" lon="4.52395">
        <ele>1229</ele>
        <time>2021-11-23T11:37:09+01:00</time>
      </trkpt>
      <trkpt lat="45.36017" lon="4.52326">
        <ele>1228</ele>
        <time>2021-11-23T11:37:14+01:00</time>
      </trkpt>
      <trkpt lat="45.35911" lon="4.52418">
        <ele>1243</ele>
        <time>2021-11-23T11:37:19+01:00</time>
      </trkpt>
      <trkpt lat="45.35816" lon="4.52452">
        <ele>1253</ele>
        <time>2021-11-23T11:37:24+01:00</time>
      </trkpt>
      <trkpt lat="45.35661" lon="4.52644">
        <ele>1273</ele>
        <time>2021-11-23T11:37:29+01:00</time>
      </trkpt>
      <trkpt lat="45.35621" lon="4.5273">
        <ele>1280</ele>
        <time>2021-11-23T11:37:34+01:00</time>
      </trkpt>
      <trkpt lat="45.35559" lon="4.52748">
        <ele>1283</ele>
        <time>2021-11-23T11:37:39+01:00</time>
      </trkpt>
      <trkpt lat="45.35497" lon="4.52796">
        <ele>1286</ele>
        <time>2021-11-23T11:37:44+01:00</time>
      </trkpt>
      <trkpt lat="45.35433" lon="4.52758">
        <ele>1294</ele>
        <time>2021-11-23T11:37:49+01:00</time>
      </trkpt>
      <trkpt lat="45.35189" lon="4.52572">
        <ele>1306</ele>
        <time>2021-11-23T11:37:54+01:00</time>
      </trkpt>
      <trkpt lat="45.35036" lon="4.52569">
        <ele>1303</ele>
        <time>2021-11-23T11:37:59+01:00</time>
      </trkpt>
      <trkpt lat="45.3485" lon="4.52619">
        <ele>1291</ele>
        <time>2021-11-23T11:38:04+01:00</time>
      </trkpt>
      <trkpt lat="45.34757" lon="4.52622">
        <ele>1283</ele>
        <time>2021-11-23T11:38:09+01:00</time>
      </trkpt>
      <trkpt lat="45.3466" lon="4.52739">
        <ele>1284</ele>
        <time>2021-11-23T11:38:14+01:00</time>
      </trkpt>
      <trkpt lat="45.34569" lon="4.52758">
        <ele>1292</ele>
        <time>2021-11-23T11:38:19+01:00</time>
      </trkpt>
      <trkpt lat="45.34516" lon="4.52796">
        <ele>1298</ele>
        <time>2021-11-23T11:38:24+01:00</time>
      </trkpt>
      <trkpt lat="45.34394" lon="4.52805">
        <ele>1302</ele>
        <time>2021-11-23T11:38:29+01:00</time>
      </trkpt>
      <trkpt lat="45.3413" lon="4.52916">
        <ele>1271</ele>
        <time>2021-11-23T11:38:34+01:00</time>
      </trkpt>
      <trkpt lat="45.33955" lon="4.53187">
        <ele>1248</ele>
        <time>2021-11-23T11:38:39+01:00</time>
      </trkpt>
      <trkpt lat="45.33765" lon="4.53297">
        <ele>1207</ele>
        <time>2021-11-23T11:38:44+01:00</time>
      </trkpt>
      <trkpt lat="45.33727" lon="4.53338">
        <ele>1194</ele>
        <time>2021-11-23T11:38:49+01:00</time>
      </trkpt>
      <trkpt lat="45.33528" lon="4.53385">
        <ele>1163</ele>
        <time>2021-11-23T11:38:54+01:00</time>
      </trkpt>
      <trkpt lat="45.33381" lon="4.53596">
        <ele>1127</ele>
        <time>2021-11-23T11:38:59+01:00</time>
      </trkpt>
      <trkpt lat="45.33284" lon="4.53776">
        <ele>1111</ele>
        <time>2021-11-23T11:39:04+01:00</time>
      </trkpt>
      <trkpt lat="45.33253" lon="4.53886">
        <ele>1110</ele>
        <time>2021-11-23T11:39:09+01:00</time>
      </trkpt>
      <trkpt lat="45.33084" lon="4.54072">
        <ele>1100</ele>
        <time>2021-11-23T11:39:14+01:00</time>
      </trkpt>
      <trkpt lat="45.32987" lon="4.54176">
        <ele>1079</ele>
        <time>2021-11-23T11:39:19+01:00</time>
      </trkpt>
      <trkpt lat="45.32876" lon="4.54201">
        <ele>1066</ele>
        <time>2021-11-23T11:39:24+01:00</time>
      </trkpt>
      <trkpt lat="45.32748" lon="4.54186">
        <ele>1051</ele>
        <time>2021-11-23T11:39:29+01:00</time>
      </trkpt>
      <trkpt lat="45.32659" lon="4.54252">
        <ele>1029</ele>
        <time>2021-11-23T11:39:34+01:00</time>
      </trkpt>
      <trkpt lat="45.32619" lon="4.54384">
        <ele>1012</ele>
        <time>2021-11-23T11:39:39+01:00</time>
      </trkpt>
      <trkpt lat="45.32608" lon="4.54532">
        <ele>998</ele>
        <time>2021-11-23T11:39:44+01:00</time>
      </trkpt>
      <trkpt lat="45.32528" lon="4.54687">
        <ele>984</ele>
        <time>2021-11-23T11:39:49+01:00</time>
      </trkpt>
      <trkpt lat="45.3248" lon="4.54674">
        <ele>979</ele>
        <time>2021-11-23T11:39:54+01:00</time>
      </trkpt>
      <trkpt lat="45.3244" lon="4.54599">
        <ele>969</ele>
        <time>2021-11-23T11:39:59+01:00</time>
      </trkpt>
      <trkpt lat="45.3236" lon="4.54681">
        <ele>948</ele>
        <time>2021-11-23T11:40:04+01:00</time>
      </trkpt>
      <trkpt lat="45.32247" lon="4.54703">
        <ele>919</ele>
        <time>2021-11-23T11:40:09+01:00</time>
      </trkpt>
      <trkpt lat="45.32045" lon="4.54766">
        <ele>881</ele>
        <time>2021-11-23T11:40:14+01:00</time>
      </trkpt>
      <trkpt lat="45.31979" lon="4.54844">
        <ele>866</ele>
        <time>2021-11-23T11:40:19+01:00</time>
      </trkpt>
      <trkpt lat="45.31921" lon="4.54873">
        <ele>847</ele>
        <time>2021-11-23T11:40:24+01:00</time>
      </trkpt>
      <trkpt lat="45.31908" lon="4.54826">
        <ele>842</ele>
        <time>2021-11-23T11:40:29+01:00</time>
      </trkpt>
      <trkpt lat="45.31855" lon="4.54952">
        <ele>826</ele>
        <time>2021-11-23T11:40:34+01:00</time>
      </trkpt>
      <trkpt lat="45.31804" lon="4.54977">
        <ele>810</ele>
        <time>2021-11-23T11:40:39+01:00</time>
      </trkpt>
      <trkpt lat="45.31777" lon="4.54633">
        <ele>781</ele>
        <time>2021-11-23T11:40:44+01:00</time>
      </trkpt>
      <trkpt lat="45.31666" lon="4.54822">
        <ele>761</ele>
        <time>2021-11-23T11:40:49+01:00</time>
      </trkpt>
      <trkpt lat="45.31555" lon="4.5486">
        <ele>735</ele>
        <time>2021-11-23T11:40:54+01:00</time>
      </trkpt>
      <trkpt lat="45.31407" lon="4.55018">
        <ele>711</ele>
        <time>2021-11-23T11:40:59+01:00</time>
      </trkpt>
      <trkpt lat="45.31365" lon="4.55012">
        <ele>698</ele>
        <time>2021-11-23T11:41:04+01:00</time>
      </trkpt>
      <trkpt lat="45.31376" lon="4.54923">
        <ele>697</ele>
        <time>2021-11-23T11:41:09+01:00</time>
      </trkpt>
      <trkpt lat="45.31351" lon="4.54895">
        <ele>695</ele>
        <time>2021-11-23T11:41:14+01:00</time>
      </trkpt>
      <trkpt lat="45.3123" lon="4.54936">
        <ele>690</ele>
        <time>2021-11-23T11:41:19+01:00</time>
      </trkpt>
      <trkpt lat="45.31194" lon="4.55046">
        <ele>674</ele>
        <time>2021-11-23T11:41:24+01:00</time>
      </trkpt>
      <trkpt lat="45.31167" lon="4.55049">
        <ele>672</ele>
        <time>2021-11-23T11:41:29+01:00</time>
      </trkpt>
      <trkpt lat="45.31105" lon="4.54936">
        <ele>664</ele>
        <time>2021-11-23T11:41:34+01:00</time>
      </trkpt>
      <trkpt lat="45.30968" lon="4.54889">
        <ele>645</ele>
        <time>2021-11-23T11:41:39+01:00</time>
      </trkpt>
      <trkpt lat="45.30802" lon="4.54952">
        <ele>617</ele>
        <time>2021-11-23T11:41:44+01:00</time>
      </trkpt>
      <trkpt lat="45.30671" lon="4.55005">
        <ele>607</ele>
        <time>2021-11-23T11:41:49+01:00</time>
      </trkpt>
      <trkpt lat="45.30593" lon="4.5504">
        <ele>604</ele>
        <time>2021-11-23T11:41:54+01:00</time>
      </trkpt>
      <trkpt lat="45.30416" lon="4.55295">
        <ele>592</ele>
        <time>2021-11-23T11:41:59+01:00</time>
      </trkpt>
      <trkpt lat="45.30179" lon="4.55503">
        <ele>572</ele>
        <time>2021-11-23T11:42:04+01:00</time>
      </trkpt>
      <trkpt lat="45.30117" lon="4.55484">
        <ele>572</ele>
        <time>2021-11-23T11:42:09+01:00</time>
      </trkpt>
      <trkpt lat="45.30048" lon="4.55541">
        <ele>567</ele>
        <time>2021-11-23T11:42:14+01:00</time>
      </trkpt>
      <trkpt lat="45.29975" lon="4.55563">
        <ele>572</ele>
        <time>2021-11-23T11:42:19+01:00</time>
      </trkpt>
      <trkpt lat="45.29897" lon="4.55759">
        <ele>560</ele>
        <time>2021-11-23T11:42:24+01:00</time>
      </trkpt>
      <trkpt lat="45.29798" lon="4.55821">
        <ele>556</ele>
        <time>2021-11-23T11:42:29+01:00</time>
      </trkpt>
      <trkpt lat="45.29679" lon="4.55924">
        <ele>547</ele>
        <time>2021-11-23T11:42:34+01:00</time>
      </trkpt>
      <trkpt lat="45.29628" lon="4.5589">
        <ele>547</ele>
        <time>2021-11-23T11:42:39+01:00</time>
      </trkpt>
      <trkpt lat="45.29592" lon="4.55932">
        <ele>542</ele>
        <time>2021-11-23T11:42:44+01:00</time>
      </trkpt>
      <trkpt lat="45.29305" lon="4.555">
        <ele>547</ele>
        <time>2021-11-23T11:42:49+01:00</time>
      </trkpt>
      <trkpt lat="45.29154" lon="4.55466">
        <ele>548</ele>
        <time>2021-11-23T11:42:54+01:00</time>
      </trkpt>
      <trkpt lat="45.28992" lon="4.5542">
        <ele>559</ele>
        <time>2021-11-23T11:42:59+01:00</time>
      </trkpt>
      <trkpt lat="45.28942" lon="4.55293">
        <ele>564</ele>
        <time>2021-11-23T11:43:04+01:00</time>
      </trkpt>
      <trkpt lat="45.28848" lon="4.5521">
        <ele>566</ele>
        <time>2021-11-23T11:43:09+01:00</time>
      </trkpt>
      <trkpt lat="45.28593" lon="4.55009">
        <ele>593</ele>
        <time>2021-11-23T11:43:14+01:00</time>
      </trkpt>
      <trkpt lat="45.2854" lon="4.5489">
        <ele>606</ele>
        <time>2021-11-23T11:43:19+01:00</time>
      </trkpt>
      <trkpt lat="45.28524" lon="4.54822">
        <ele>618</ele>
        <time>2021-11-23T11:43:24+01:00</time>
      </trkpt>
      <trkpt lat="45.28482" lon="4.54706">
        <ele>636</ele>
        <time>2021-11-23T11:43:29+01:00</time>
      </trkpt>
      <trkpt lat="45.28391" lon="4.54546">
        <ele>665</ele>
        <time>2021-11-23T11:43:34+01:00</time>
      </trkpt>
      <trkpt lat="45.28346" lon="4.54533">
        <ele>678</ele>
        <time>2021-11-23T11:43:39+01:00</time>
      </trkpt>
      <trkpt lat="45.28313" lon="4.54414">
        <ele>685</ele>
        <time>2021-11-23T11:43:44+01:00</time>
      </trkpt>
      <trkpt lat="45.28238" lon="4.54494">
        <ele>702</ele>
        <time>2021-11-23T11:43:49+01:00</time>
      </trkpt>
      <trkpt lat="45.28187" lon="4.54468">
        <ele>714</ele>
        <time>2021-11-23T11:43:54+01:00</time>
      </trkpt>
      <trkpt lat="45.28033" lon="4.54305">
        <ele>739</ele>
        <time>2021-11-23T11:43:59+01:00</time>
      </trkpt>
      <trkpt lat="45.27809" lon="4.54398">
        <ele>752</ele>
        <time>2021-11-23T11:44:04+01:00</time>
      </trkpt>
      <trkpt lat="45.27725" lon="4.5444">
        <ele>770</ele>
        <time>2021-11-23T11:44:09+01:00</time>
      </trkpt>
      <trkpt lat="45.27636" lon="4.54427">
        <ele>777</ele>
        <time>2021-11-23T11:44:14+01:00</time>
      </trkpt>
      <trkpt lat="45.27485" lon="4.5444">
        <ele>815</ele>
        <time>2021-11-23T11:44:19+01:00</time>
      </trkpt>
      <trkpt lat="45.27386" lon="4.543">
        <ele>818</ele>
        <time>2021-11-23T11:44:24+01:00</time>
      </trkpt>
      <trkpt lat="45.27348" lon="4.54302">
        <ele>825</ele>
        <time>2021-11-23T11:44:29+01:00</time>
      </trkpt>
      <trkpt lat="45.2737" lon="4.5437">
        <ele>833</ele>
        <time>2021-11-23T11:44:34+01:00</time>
      </trkpt>
      <trkpt lat="45.27257" lon="4.54352">
        <ele>854</ele>
        <time>2021-11-23T11:44:39+01:00</time>
      </trkpt>
      <trkpt lat="45.2725" lon="4.54401">
        <ele>867</ele>
        <time>2021-11-23T11:44:44+01:00</time>
      </trkpt>
      <trkpt lat="45.27141" lon="4.54292">
        <ele>884</ele>
        <time>2021-11-23T11:44:49+01:00</time>
      </trkpt>
      <trkpt lat="45.27075" lon="4.54217">
        <ele>899</ele>
        <time>2021-11-23T11:44:54+01:00</time>
      </trkpt>
      <trkpt lat="45.27026" lon="4.54101">
        <ele>902</ele>
        <time>2021-11-23T11:44:59+01:00</time>
      </trkpt>
      <trkpt lat="45.26997" lon="4.54152">
        <ele>915</ele>
        <time>2021-11-23T11:45:04+01:00</time>
      </trkpt>
      <trkpt lat="45.26986" lon="4.54209">
        <ele>923</ele>
        <time>2021-11-23T11:45:09+01:00</time>
      </trkpt>
      <trkpt lat="45.26921" lon="4.54277">
        <ele>944</ele>
        <time>2021-11-23T11:45:14+01:00</time>
      </trkpt>
      <trkpt lat="45.26853" lon="4.54243">
        <ele>954</ele>
        <time>2021-11-23T11:45:19+01:00</time>
      </trkpt>
      <trkpt lat="45.26768" lon="4.54359">
        <ele>978</ele>
        <time>2021-11-23T11:45:24+01:00</time>
      </trkpt>
      <trkpt lat="45.26751" lon="4.54243">
        <ele>977</ele>
        <time>2021-11-23T11:45:29+01:00</time>
      </trkpt>
      <trkpt lat="45.267" lon="4.54233">
        <ele>979</ele>
        <time>2021-11-23T11:45:34+01:00</time>
      </trkpt>
      <trkpt lat="45.26624" lon="4.54292">
        <ele>982</ele>
        <time>2021-11-23T11:45:39+01:00</time>
      </trkpt>
      <trkpt lat="45.26567" lon="4.54282">
        <ele>979</ele>
        <time>2021-11-23T11:45:44+01:00</time>
      </trkpt>
      <trkpt lat="45.26509" lon="4.54297">
        <ele>982</ele>
        <time>2021-11-23T11:45:49+01:00</time>
      </trkpt>
      <trkpt lat="45.26478" lon="4.54256">
        <ele>982</ele>
        <time>2021-11-23T11:45:54+01:00</time>
      </trkpt>
      <trkpt lat="45.26374" lon="4.54251">
        <ele>998</ele>
        <time>2021-11-23T11:45:59+01:00</time>
      </trkpt>
      <trkpt lat="45.26325" lon="4.54083">
        <ele>1018</ele>
        <time>2021-11-23T11:46:04+01:00</time>
      </trkpt>
      <trkpt lat="45.2624" lon="4.54044">
        <ele>1026</ele>
        <time>2021-11-23T11:46:09+01:00</time>
      </trkpt>
      <trkpt lat="45.26105" lon="4.53837">
        <ele>1024</ele>
        <time>2021-11-23T11:46:14+01:00</time>
      </trkpt>
      <trkpt lat="45.2606" lon="4.53824">
        <ele>1029</ele>
        <time>2021-11-23T11:46:19+01:00</time>
      </trkpt>
      <trkpt lat="45.25923" lon="4.53803">
        <ele>1032</ele>
        <time>2021-11-23T11:46:24+01:00</time>
      </trkpt>
      <trkpt lat="45.25845" lon="4.53865">
        <ele>1042</ele>
        <time>2021-11-23T11:46:29+01:00</time>
      </trkpt>
      <trkpt lat="45.25816" lon="4.53881">
        <ele>1042</ele>
        <time>2021-11-23T11:46:34+01:00</time>
      </trkpt>
      <trkpt lat="45.25768" lon="4.53886">
        <ele>1040</ele>
        <time>2021-11-23T11:46:39+01:00</time>
      </trkpt>
      <trkpt lat="45.25759" lon="4.53933">
        <ele>1037</ele>
        <time>2021-11-23T11:46:44+01:00</time>
      </trkpt>
      <trkpt lat="45.25599" lon="4.53989">
        <ele>1037</ele>
        <time>2021-11-23T11:46:49+01:00</time>
      </trkpt>
      <trkpt lat="45.25548" lon="4.54031">
        <ele>1038</ele>
        <time>2021-11-23T11:46:54+01:00</time>
      </trkpt>
      <trkpt lat="45.2542" lon="4.54098">
        <ele>1053</ele>
        <time>2021-11-23T11:46:59+01:00</time>
      </trkpt>
      <trkpt lat="45.25349" lon="4.54171">
        <ele>1042</ele>
        <time>2021-11-23T11:47:04+01:00</time>
      </trkpt>
      <trkpt lat="45.25122" lon="4.54044">
        <ele>1051</ele>
        <time>2021-11-23T11:47:09+01:00</time>
      </trkpt>
      <trkpt lat="45.24962" lon="4.54349">
        <ele>992</ele>
        <time>2021-11-23T11:47:14+01:00</time>
      </trkpt>
      <trkpt lat="45.25022" lon="4.54452">
        <ele>965</ele>
        <time>2021-11-23T11:47:19+01:00</time>
      </trkpt>
      <trkpt lat="45.25018" lon="4.54597">
        <ele>939</ele>
        <time>2021-11-23T11:47:24+01:00</time>
      </trkpt>
      <trkpt lat="45.24978" lon="4.54721">
        <ele>923</ele>
        <time>2021-11-23T11:47:29+01:00</time>
      </trkpt>
      <trkpt lat="45.25" lon="4.5476">
        <ele>922</ele>
        <time>2021-11-23T11:47:34+01:00</time>
      </trkpt>
      <trkpt lat="45.24942" lon="4.54807">
        <ele>908</ele>
        <time>2021-11-23T11:47:39+01:00</time>
      </trkpt>
      <trkpt lat="45.24872" lon="4.54688">
        <ele>902</ele>
        <time>2021-11-23T11:47:44+01:00</time>
      </trkpt>
      <trkpt lat="45.24752" lon="4.54641">
        <ele>872</ele>
        <time>2021-11-23T11:47:49+01:00</time>
      </trkpt>
      <trkpt lat="45.24681" lon="4.54569">
        <ele>873</ele>
        <time>2021-11-23T11:47:54+01:00</time>
      </trkpt>
      <trkpt lat="45.24541" lon="4.54468">
        <ele>864</ele>
        <time>2021-11-23T11:47:59+01:00</time>
      </trkpt>
      <trkpt lat="45.24463" lon="4.54344">
        <ele>864</ele>
        <time>2021-11-23T11:48:04+01:00</time>
      </trkpt>
      <trkpt lat="45.24399" lon="4.54326">
        <ele>855</ele>
        <time>2021-11-23T11:48:09+01:00</time>
      </trkpt>
      <trkpt lat="45.24403" lon="4.54483">
        <ele>836</ele>
        <time>2021-11-23T11:48:14+01:00</time>
      </trkpt>
      <trkpt lat="45.24404" lon="4.54582">
        <ele>822</ele>
        <time>2021-11-23T11:48:19+01:00</time>
      </trkpt>
      <trkpt lat="45.24386" lon="4.54672">
        <ele>816</ele>
        <time>2021-11-23T11:48:24+01:00</time>
      </trkpt>
      <trkpt lat="45.24279" lon="4.54897">
        <ele>806</ele>
        <time>2021-11-23T11:48:29+01:00</time>
      </trkpt>
      <trkpt lat="45.24155" lon="4.55076">
        <ele>794</ele>
        <time>2021-11-23T11:48:34+01:00</time>
      </trkpt>
      <trkpt lat="45.23998" lon="4.55076">
        <ele>767</ele>
        <time>2021-11-23T11:48:39+01:00</time>
      </trkpt>
      <trkpt lat="45.23942" lon="4.55045">
        <ele>771</ele>
        <time>2021-11-23T11:48:44+01:00</time>
      </trkpt>
      <trkpt lat="45.2392" lon="4.55081">
        <ele>761</ele>
        <time>2021-11-23T11:48:49+01:00</time>
      </trkpt>
      <trkpt lat="45.23569" lon="4.55301">
        <ele>760</ele>
        <time>2021-11-23T11:48:54+01:00</time>
      </trkpt>
      <trkpt lat="45.23446" lon="4.55311">
        <ele>761</ele>
        <time>2021-11-23T11:48:59+01:00</time>
      </trkpt>
      <trkpt lat="45.23279" lon="4.55265">
        <ele>755</ele>
        <time>2021-11-23T11:49:04+01:00</time>
      </trkpt>
      <trkpt lat="45.2317" lon="4.55244">
        <ele>735</ele>
        <time>2021-11-23T11:49:09+01:00</time>
      </trkpt>
      <trkpt lat="45.23069" lon="4.55166">
        <ele>725</ele>
        <time>2021-11-23T11:49:14+01:00</time>
      </trkpt>
      <trkpt lat="45.229" lon="4.55096">
        <ele>696</ele>
        <time>2021-11-23T11:49:19+01:00</time>
      </trkpt>
      <trkpt lat="45.22849" lon="4.55257">
        <ele>672</ele>
        <time>2021-11-23T11:49:24+01:00</time>
      </trkpt>
      <trkpt lat="45.22793" lon="4.55089">
        <ele>678</ele>
        <time>2021-11-23T11:49:29+01:00</time>
      </trkpt>
      <trkpt lat="45.22667" lon="4.55151">
        <ele>652</ele>
        <time>2021-11-23T11:49:34+01:00</time>
      </trkpt>
      <trkpt lat="45.22599" lon="4.55096">
        <ele>656</ele>
        <time>2021-11-23T11:49:39+01:00</time>
      </trkpt>
      <trkpt lat="45.22507" lon="4.54977">
        <ele>659</ele>
        <time>2021-11-23T11:49:44+01:00</time>
      </trkpt>
      <trkpt lat="45.22437" lon="4.54955">
        <ele>656</ele>
        <time>2021-11-23T11:49:49+01:00</time>
      </trkpt>
      <trkpt lat="45.22427" lon="4.55022">
        <ele>648</ele>
        <time>2021-11-23T11:49:54+01:00</time>
      </trkpt>
      <trkpt lat="45.22455" lon="4.55123">
        <ele>639</ele>
        <time>2021-11-23T11:49:59+01:00</time>
      </trkpt>
      <trkpt lat="45.22513" lon="4.55164">
        <ele>637</ele>
        <time>2021-11-23T11:50:04+01:00</time>
      </trkpt>
    </trkseg>
  </trk>
  <trk>
    <name><![CDATA[43 - VANOSC SATILLIEU 21 KM]]></name>
    <extensions>
      <line xmlns="http://www.topografix.com/GPX/gpx_style/0/2">
        <color>FF00FF</color>
        <width>4</width>
      </line>
    </extensions>
    <trkseg>
      <trkpt lat="45.2254" lon="4.55186">
        <ele>637</ele>
        <time>2021-11-28T10:01:36+01:00</time>
      </trkpt>
      <trkpt lat="45.2244" lon="4.5513">
        <ele>637</ele>
        <time>2021-11-28T10:01:41+01:00</time>
      </trkpt>
      <trkpt lat="45.22296" lon="4.55051">
        <ele>623</ele>
        <time>2021-11-28T10:01:46+01:00</time>
      </trkpt>
      <trkpt lat="45.22206" lon="4.54911">
        <ele>616</ele>
        <time>2021-11-28T10:01:51+01:00</time>
      </trkpt>
      <trkpt lat="45.22186" lon="4.54838">
        <ele>614</ele>
        <time>2021-11-28T10:01:56+01:00</time>
      </trkpt>
      <trkpt lat="45.22152" lon="4.54952">
        <ele>601</ele>
        <time>2021-11-28T10:02:01+01:00</time>
      </trkpt>
      <trkpt lat="45.22118" lon="4.54939">
        <ele>594</ele>
        <time>2021-11-28T10:02:06+01:00</time>
      </trkpt>
      <trkpt lat="45.22077" lon="4.54723">
        <ele>586</ele>
        <time>2021-11-28T10:02:11+01:00</time>
      </trkpt>
      <trkpt lat="45.22094" lon="4.54678">
        <ele>589</ele>
        <time>2021-11-28T10:02:16+01:00</time>
      </trkpt>
      <trkpt lat="45.22062" lon="4.54644">
        <ele>593</ele>
        <time>2021-11-28T10:02:21+01:00</time>
      </trkpt>
      <trkpt lat="45.22032" lon="4.54562">
        <ele>603</ele>
        <time>2021-11-28T10:02:26+01:00</time>
      </trkpt>
      <trkpt lat="45.21948" lon="4.54491">
        <ele>617</ele>
        <time>2021-11-28T10:02:31+01:00</time>
      </trkpt>
      <trkpt lat="45.21801" lon="4.54418">
        <ele>652</ele>
        <time>2021-11-28T10:02:36+01:00</time>
      </trkpt>
      <trkpt lat="45.21672" lon="4.54269">
        <ele>668</ele>
        <time>2021-11-28T10:02:41+01:00</time>
      </trkpt>
      <trkpt lat="45.21572" lon="4.54127">
        <ele>684</ele>
        <time>2021-11-28T10:02:46+01:00</time>
      </trkpt>
      <trkpt lat="45.21487" lon="4.54069">
        <ele>695</ele>
        <time>2021-11-28T10:02:51+01:00</time>
      </trkpt>
      <trkpt lat="45.2139" lon="4.54073">
        <ele>714</ele>
        <time>2021-11-28T10:02:56+01:00</time>
      </trkpt>
      <trkpt lat="45.21472" lon="4.54121">
        <ele>704</ele>
        <time>2021-11-28T10:03:01+01:00</time>
      </trkpt>
      <trkpt lat="45.21497" lon="4.54312">
        <ele>717</ele>
        <time>2021-11-28T10:03:06+01:00</time>
      </trkpt>
      <trkpt lat="45.21565" lon="4.54515">
        <ele>711</ele>
        <time>2021-11-28T10:03:11+01:00</time>
      </trkpt>
      <trkpt lat="45.21597" lon="4.54631">
        <ele>707</ele>
        <time>2021-11-28T10:03:16+01:00</time>
      </trkpt>
      <trkpt lat="45.21595" lon="4.54788">
        <ele>702</ele>
        <time>2021-11-28T10:03:21+01:00</time>
      </trkpt>
      <trkpt lat="45.21562" lon="4.54889">
        <ele>695</ele>
        <time>2021-11-28T10:03:26+01:00</time>
      </trkpt>
      <trkpt lat="45.21507" lon="4.54945">
        <ele>695</ele>
        <time>2021-11-28T10:03:31+01:00</time>
      </trkpt>
      <trkpt lat="45.21387" lon="4.55163">
        <ele>710</ele>
        <time>2021-11-28T10:03:36+01:00</time>
      </trkpt>
      <trkpt lat="45.21272" lon="4.55322">
        <ele>726</ele>
        <time>2021-11-28T10:03:41+01:00</time>
      </trkpt>
      <trkpt lat="45.21193" lon="4.55345">
        <ele>725</ele>
        <time>2021-11-28T10:03:46+01:00</time>
      </trkpt>
      <trkpt lat="45.21125" lon="4.55302">
        <ele>716</ele>
        <time>2021-11-28T10:03:51+01:00</time>
      </trkpt>
      <trkpt lat="45.21011" lon="4.55087">
        <ele>691</ele>
        <time>2021-11-28T10:03:56+01:00</time>
      </trkpt>
      <trkpt lat="45.20957" lon="4.54965">
        <ele>704</ele>
        <time>2021-11-28T10:04:01+01:00</time>
      </trkpt>
      <trkpt lat="45.20929" lon="4.55044">
        <ele>686</ele>
        <time>2021-11-28T10:04:06+01:00</time>
      </trkpt>
      <trkpt lat="45.20838" lon="4.55277">
        <ele>650</ele>
        <time>2021-11-28T10:04:11+01:00</time>
      </trkpt>
      <trkpt lat="45.20763" lon="4.553">
        <ele>634</ele>
        <time>2021-11-28T10:04:16+01:00</time>
      </trkpt>
      <trkpt lat="45.20767" lon="4.55389">
        <ele>617</ele>
        <time>2021-11-28T10:04:21+01:00</time>
      </trkpt>
      <trkpt lat="45.20722" lon="4.55384">
        <ele>608</ele>
        <time>2021-11-28T10:04:26+01:00</time>
      </trkpt>
      <trkpt lat="45.2069" lon="4.55358">
        <ele>604</ele>
        <time>2021-11-28T10:04:31+01:00</time>
      </trkpt>
      <trkpt lat="45.20599" lon="4.55283">
        <ele>594</ele>
        <time>2021-11-28T10:04:36+01:00</time>
      </trkpt>
      <trkpt lat="45.20497" lon="4.55152">
        <ele>591</ele>
        <time>2021-11-28T10:04:41+01:00</time>
      </trkpt>
      <trkpt lat="45.20447" lon="4.55231">
        <ele>564</ele>
        <time>2021-11-28T10:04:46+01:00</time>
      </trkpt>
      <trkpt lat="45.20493" lon="4.55356">
        <ele>552</ele>
        <time>2021-11-28T10:04:51+01:00</time>
      </trkpt>
      <trkpt lat="45.20479" lon="4.5547">
        <ele>528</ele>
        <time>2021-11-28T10:04:56+01:00</time>
      </trkpt>
      <trkpt lat="45.20511" lon="4.55479">
        <ele>535</ele>
        <time>2021-11-28T10:05:01+01:00</time>
      </trkpt>
      <trkpt lat="45.20512" lon="4.55548">
        <ele>526</ele>
        <time>2021-11-28T10:05:06+01:00</time>
      </trkpt>
      <trkpt lat="45.2045" lon="4.55599">
        <ele>508</ele>
        <time>2021-11-28T10:05:11+01:00</time>
      </trkpt>
      <trkpt lat="45.20417" lon="4.55518">
        <ele>504</ele>
        <time>2021-11-28T10:05:16+01:00</time>
      </trkpt>
      <trkpt lat="45.204" lon="4.55619">
        <ele>501</ele>
        <time>2021-11-28T10:05:21+01:00</time>
      </trkpt>
      <trkpt lat="45.20317" lon="4.55632">
        <ele>507</ele>
        <time>2021-11-28T10:05:26+01:00</time>
      </trkpt>
      <trkpt lat="45.20265" lon="4.55658">
        <ele>523</ele>
        <time>2021-11-28T10:05:31+01:00</time>
      </trkpt>
      <trkpt lat="45.20209" lon="4.55589">
        <ele>528</ele>
        <time>2021-11-28T10:05:36+01:00</time>
      </trkpt>
      <trkpt lat="45.20076" lon="4.55345">
        <ele>526</ele>
        <time>2021-11-28T10:05:41+01:00</time>
      </trkpt>
      <trkpt lat="45.20042" lon="4.55287">
        <ele>530</ele>
        <time>2021-11-28T10:05:46+01:00</time>
      </trkpt>
      <trkpt lat="45.19957" lon="4.55076">
        <ele>536</ele>
        <time>2021-11-28T10:05:51+01:00</time>
      </trkpt>
      <trkpt lat="45.19922" lon="4.55027">
        <ele>542</ele>
        <time>2021-11-28T10:05:56+01:00</time>
      </trkpt>
      <trkpt lat="45.19863" lon="4.54891">
        <ele>542</ele>
        <time>2021-11-28T10:06:01+01:00</time>
      </trkpt>
      <trkpt lat="45.19789" lon="4.54827">
        <ele>552</ele>
        <time>2021-11-28T10:06:06+01:00</time>
      </trkpt>
      <trkpt lat="45.19749" lon="4.54758">
        <ele>549</ele>
        <time>2021-11-28T10:06:11+01:00</time>
      </trkpt>
      <trkpt lat="45.19575" lon="4.54551">
        <ele>581</ele>
        <time>2021-11-28T10:06:16+01:00</time>
      </trkpt>
      <trkpt lat="45.19511" lon="4.5459">
        <ele>588</ele>
        <time>2021-11-28T10:06:21+01:00</time>
      </trkpt>
      <trkpt lat="45.19475" lon="4.54723">
        <ele>610</ele>
        <time>2021-11-28T10:06:26+01:00</time>
      </trkpt>
      <trkpt lat="45.19411" lon="4.54794">
        <ele>613</ele>
        <time>2021-11-28T10:06:31+01:00</time>
      </trkpt>
      <trkpt lat="45.19361" lon="4.54822">
        <ele>617</ele>
        <time>2021-11-28T10:06:36+01:00</time>
      </trkpt>
      <trkpt lat="45.19261" lon="4.54818">
        <ele>617</ele>
        <time>2021-11-28T10:06:41+01:00</time>
      </trkpt>
      <trkpt lat="45.19214" lon="4.54797">
        <ele>624</ele>
        <time>2021-11-28T10:06:46+01:00</time>
      </trkpt>
      <trkpt lat="45.19173" lon="4.54818">
        <ele>633</ele>
        <time>2021-11-28T10:06:51+01:00</time>
      </trkpt>
      <trkpt lat="45.19132" lon="4.54913">
        <ele>650</ele>
        <time>2021-11-28T10:06:56+01:00</time>
      </trkpt>
      <trkpt lat="45.19129" lon="4.55003">
        <ele>655</ele>
        <time>2021-11-28T10:07:01+01:00</time>
      </trkpt>
      <trkpt lat="45.19173" lon="4.5499">
        <ele>649</ele>
        <time>2021-11-28T10:07:06+01:00</time>
      </trkpt>
      <trkpt lat="45.19264" lon="4.54949">
        <ele>654</ele>
        <time>2021-11-28T10:07:11+01:00</time>
      </trkpt>
      <trkpt lat="45.19334" lon="4.54952">
        <ele>661</ele>
        <time>2021-11-28T10:07:16+01:00</time>
      </trkpt>
      <trkpt lat="45.19461" lon="4.54939">
        <ele>663</ele>
        <time>2021-11-28T10:07:21+01:00</time>
      </trkpt>
      <trkpt lat="45.19483" lon="4.55008">
        <ele>681</ele>
        <time>2021-11-28T10:07:26+01:00</time>
      </trkpt>
      <trkpt lat="45.19481" lon="4.55169">
        <ele>703</ele>
        <time>2021-11-28T10:07:31+01:00</time>
      </trkpt>
      <trkpt lat="45.19549" lon="4.55246">
        <ele>698</ele>
        <time>2021-11-28T10:07:36+01:00</time>
      </trkpt>
      <trkpt lat="45.19499" lon="4.55298">
        <ele>711</ele>
        <time>2021-11-28T10:07:41+01:00</time>
      </trkpt>
      <trkpt lat="45.19454" lon="4.55343">
        <ele>727</ele>
        <time>2021-11-28T10:07:46+01:00</time>
      </trkpt>
      <trkpt lat="45.1934" lon="4.55236">
        <ele>755</ele>
        <time>2021-11-28T10:07:51+01:00</time>
      </trkpt>
      <trkpt lat="45.19316" lon="4.5527">
        <ele>761</ele>
        <time>2021-11-28T10:07:56+01:00</time>
      </trkpt>
      <trkpt lat="45.19297" lon="4.55423">
        <ele>777</ele>
        <time>2021-11-28T10:08:01+01:00</time>
      </trkpt>
      <trkpt lat="45.19249" lon="4.5549">
        <ele>787</ele>
        <time>2021-11-28T10:08:06+01:00</time>
      </trkpt>
      <trkpt lat="45.19153" lon="4.55595">
        <ele>788</ele>
        <time>2021-11-28T10:08:11+01:00</time>
      </trkpt>
      <trkpt lat="45.19056" lon="4.55673">
        <ele>798</ele>
        <time>2021-11-28T10:08:16+01:00</time>
      </trkpt>
      <trkpt lat="45.18939" lon="4.55716">
        <ele>799</ele>
        <time>2021-11-28T10:08:21+01:00</time>
      </trkpt>
      <trkpt lat="45.18773" lon="4.55735">
        <ele>805</ele>
        <time>2021-11-28T10:08:26+01:00</time>
      </trkpt>
      <trkpt lat="45.18704" lon="4.55869">
        <ele>805</ele>
        <time>2021-11-28T10:08:31+01:00</time>
      </trkpt>
      <trkpt lat="45.18703" lon="4.55929">
        <ele>800</ele>
        <time>2021-11-28T10:08:36+01:00</time>
      </trkpt>
      <trkpt lat="45.18632" lon="4.56028">
        <ele>812</ele>
        <time>2021-11-28T10:08:41+01:00</time>
      </trkpt>
      <trkpt lat="45.18556" lon="4.56176">
        <ele>826</ele>
        <time>2021-11-28T10:08:46+01:00</time>
      </trkpt>
      <trkpt lat="45.18559" lon="4.56228">
        <ele>830</ele>
        <time>2021-11-28T10:08:51+01:00</time>
      </trkpt>
      <trkpt lat="45.18673" lon="4.56234">
        <ele>827</ele>
        <time>2021-11-28T10:08:56+01:00</time>
      </trkpt>
      <trkpt lat="45.18627" lon="4.56273">
        <ele>836</ele>
        <time>2021-11-28T10:09:01+01:00</time>
      </trkpt>
      <trkpt lat="45.18355" lon="4.56439">
        <ele>890</ele>
        <time>2021-11-28T10:09:06+01:00</time>
      </trkpt>
      <trkpt lat="45.18258" lon="4.56222">
        <ele>907</ele>
        <time>2021-11-28T10:09:11+01:00</time>
      </trkpt>
      <trkpt lat="45.18248" lon="4.56331">
        <ele>915</ele>
        <time>2021-11-28T10:09:16+01:00</time>
      </trkpt>
      <trkpt lat="45.18184" lon="4.56717">
        <ele>942</ele>
        <time>2021-11-28T10:09:21+01:00</time>
      </trkpt>
      <trkpt lat="45.18217" lon="4.5693">
        <ele>938</ele>
        <time>2021-11-28T10:09:26+01:00</time>
      </trkpt>
      <trkpt lat="45.18264" lon="4.57115">
        <ele>929</ele>
        <time>2021-11-28T10:09:31+01:00</time>
      </trkpt>
      <trkpt lat="45.18252" lon="4.57313">
        <ele>924</ele>
        <time>2021-11-28T10:09:36+01:00</time>
      </trkpt>
      <trkpt lat="45.18225" lon="4.57171">
        <ele>909</ele>
        <time>2021-11-28T10:09:41+01:00</time>
      </trkpt>
      <trkpt lat="45.18111" lon="4.56919">
        <ele>907</ele>
        <time>2021-11-28T10:09:46+01:00</time>
      </trkpt>
      <trkpt lat="45.18054" lon="4.56925">
        <ele>897</ele>
        <time>2021-11-28T10:09:51+01:00</time>
      </trkpt>
      <trkpt lat="45.17991" lon="4.56934">
        <ele>892</ele>
        <time>2021-11-28T10:09:56+01:00</time>
      </trkpt>
      <trkpt lat="45.17912" lon="4.5682">
        <ele>903</ele>
        <time>2021-11-28T10:10:01+01:00</time>
      </trkpt>
      <trkpt lat="45.17896" lon="4.56891">
        <ele>897</ele>
        <time>2021-11-28T10:10:06+01:00</time>
      </trkpt>
      <trkpt lat="45.17853" lon="4.57059">
        <ele>885</ele>
        <time>2021-11-28T10:10:11+01:00</time>
      </trkpt>
      <trkpt lat="45.17665" lon="4.57248">
        <ele>878</ele>
        <time>2021-11-28T10:10:16+01:00</time>
      </trkpt>
      <trkpt lat="45.17856" lon="4.57162">
        <ele>861</ele>
        <time>2021-11-28T10:10:21+01:00</time>
      </trkpt>
      <trkpt lat="45.17958" lon="4.57065">
        <ele>860</ele>
        <time>2021-11-28T10:10:26+01:00</time>
      </trkpt>
      <trkpt lat="45.18003" lon="4.57132">
        <ele>850</ele>
        <time>2021-11-28T10:10:31+01:00</time>
      </trkpt>
      <trkpt lat="45.17952" lon="4.57336">
        <ele>850</ele>
        <time>2021-11-28T10:10:36+01:00</time>
      </trkpt>
      <trkpt lat="45.17888" lon="4.57491">
        <ele>850</ele>
        <time>2021-11-28T10:10:41+01:00</time>
      </trkpt>
      <trkpt lat="45.17761" lon="4.57928">
        <ele>842</ele>
        <time>2021-11-28T10:10:46+01:00</time>
      </trkpt>
      <trkpt lat="45.17682" lon="4.58191">
        <ele>831</ele>
        <time>2021-11-28T10:10:51+01:00</time>
      </trkpt>
      <trkpt lat="45.17712" lon="4.58436">
        <ele>823</ele>
        <time>2021-11-28T10:10:56+01:00</time>
      </trkpt>
      <trkpt lat="45.17832" lon="4.58563">
        <ele>827</ele>
        <time>2021-11-28T10:11:01+01:00</time>
      </trkpt>
      <trkpt lat="45.17908" lon="4.58662">
        <ele>823</ele>
        <time>2021-11-28T10:11:06+01:00</time>
      </trkpt>
      <trkpt lat="45.17894" lon="4.58716">
        <ele>831</ele>
        <time>2021-11-28T10:11:11+01:00</time>
      </trkpt>
      <trkpt lat="45.17736" lon="4.58742">
        <ele>809</ele>
        <time>2021-11-28T10:11:16+01:00</time>
      </trkpt>
      <trkpt lat="45.17664" lon="4.58901">
        <ele>811</ele>
        <time>2021-11-28T10:11:21+01:00</time>
      </trkpt>
      <trkpt lat="45.17638" lon="4.59099">
        <ele>800</ele>
        <time>2021-11-28T10:11:26+01:00</time>
      </trkpt>
      <trkpt lat="45.1772" lon="4.59218">
        <ele>813</ele>
        <time>2021-11-28T10:11:31+01:00</time>
      </trkpt>
      <trkpt lat="45.17636" lon="4.59336">
        <ele>809</ele>
        <time>2021-11-28T10:11:36+01:00</time>
      </trkpt>
      <trkpt lat="45.17539" lon="4.59265">
        <ele>790</ele>
        <time>2021-11-28T10:11:41+01:00</time>
      </trkpt>
      <trkpt lat="45.17357" lon="4.59235">
        <ele>781</ele>
        <time>2021-11-28T10:11:46+01:00</time>
      </trkpt>
      <trkpt lat="45.17392" lon="4.59411">
        <ele>781</ele>
        <time>2021-11-28T10:11:51+01:00</time>
      </trkpt>
      <trkpt lat="45.17369" lon="4.59579">
        <ele>769</ele>
        <time>2021-11-28T10:11:56+01:00</time>
      </trkpt>
      <trkpt lat="45.17375" lon="4.59851">
        <ele>758</ele>
        <time>2021-11-28T10:12:01+01:00</time>
      </trkpt>
      <trkpt lat="45.17398" lon="4.59919">
        <ele>758</ele>
        <time>2021-11-28T10:12:06+01:00</time>
      </trkpt>
      <trkpt lat="45.17425" lon="4.59969">
        <ele>761</ele>
        <time>2021-11-28T10:12:11+01:00</time>
      </trkpt>
      <trkpt lat="45.17346" lon="4.60148">
        <ele>735</ele>
        <time>2021-11-28T10:12:16+01:00</time>
      </trkpt>
      <trkpt lat="45.1734" lon="4.60369">
        <ele>723</ele>
        <time>2021-11-28T10:12:21+01:00</time>
      </trkpt>
      <trkpt lat="45.17377" lon="4.60451">
        <ele>716</ele>
        <time>2021-11-28T10:12:26+01:00</time>
      </trkpt>
      <trkpt lat="45.17438" lon="4.60473">
        <ele>724</ele>
        <time>2021-11-28T10:12:31+01:00</time>
      </trkpt>
      <trkpt lat="45.17472" lon="4.60662">
        <ele>707</ele>
        <time>2021-11-28T10:12:36+01:00</time>
      </trkpt>
      <trkpt lat="45.17489" lon="4.60731">
        <ele>707</ele>
        <time>2021-11-28T10:12:41+01:00</time>
      </trkpt>
      <trkpt lat="45.17445" lon="4.60862">
        <ele>693</ele>
        <time>2021-11-28T10:12:46+01:00</time>
      </trkpt>
      <trkpt lat="45.17438" lon="4.60811">
        <ele>688</ele>
        <time>2021-11-28T10:12:51+01:00</time>
      </trkpt>
      <trkpt lat="45.17434" lon="4.60733">
        <ele>690</ele>
        <time>2021-11-28T10:12:56+01:00</time>
      </trkpt>
      <trkpt lat="45.1738" lon="4.60679">
        <ele>679</ele>
        <time>2021-11-28T10:13:01+01:00</time>
      </trkpt>
      <trkpt lat="45.17356" lon="4.60606">
        <ele>680</ele>
        <time>2021-11-28T10:13:06+01:00</time>
      </trkpt>
      <trkpt lat="45.17289" lon="4.6055">
        <ele>675</ele>
        <time>2021-11-28T10:13:11+01:00</time>
      </trkpt>
      <trkpt lat="45.17255" lon="4.60488">
        <ele>675</ele>
        <time>2021-11-28T10:13:16+01:00</time>
      </trkpt>
      <trkpt lat="45.17199" lon="4.60447">
        <ele>666</ele>
        <time>2021-11-28T10:13:21+01:00</time>
      </trkpt>
      <trkpt lat="45.17158" lon="4.60395">
        <ele>660</ele>
        <time>2021-11-28T10:13:26+01:00</time>
      </trkpt>
      <trkpt lat="45.17126" lon="4.60356">
        <ele>654</ele>
        <time>2021-11-28T10:13:31+01:00</time>
      </trkpt>
      <trkpt lat="45.17098" lon="4.60229">
        <ele>653</ele>
        <time>2021-11-28T10:13:36+01:00</time>
      </trkpt>
      <trkpt lat="45.17073" lon="4.60072">
        <ele>660</ele>
        <time>2021-11-28T10:13:41+01:00</time>
      </trkpt>
      <trkpt lat="45.17031" lon="4.60117">
        <ele>667</ele>
        <time>2021-11-28T10:13:46+01:00</time>
      </trkpt>
      <trkpt lat="45.17004" lon="4.60247">
        <ele>657</ele>
        <time>2021-11-28T10:13:51+01:00</time>
      </trkpt>
      <trkpt lat="45.16956" lon="4.60309">
        <ele>657</ele>
        <time>2021-11-28T10:13:56+01:00</time>
      </trkpt>
      <trkpt lat="45.16909" lon="4.60333">
        <ele>660</ele>
        <time>2021-11-28T10:14:01+01:00</time>
      </trkpt>
      <trkpt lat="45.16873" lon="4.60384">
        <ele>650</ele>
        <time>2021-11-28T10:14:06+01:00</time>
      </trkpt>
      <trkpt lat="45.16799" lon="4.60397">
        <ele>650</ele>
        <time>2021-11-28T10:14:11+01:00</time>
      </trkpt>
      <trkpt lat="45.16761" lon="4.60445">
        <ele>649</ele>
        <time>2021-11-28T10:14:16+01:00</time>
      </trkpt>
      <trkpt lat="45.16756" lon="4.60488">
        <ele>647</ele>
        <time>2021-11-28T10:14:21+01:00</time>
      </trkpt>
      <trkpt lat="45.16729" lon="4.60518">
        <ele>652</ele>
        <time>2021-11-28T10:14:26+01:00</time>
      </trkpt>
      <trkpt lat="45.16758" lon="4.60675">
        <ele>648</ele>
        <time>2021-11-28T10:14:31+01:00</time>
      </trkpt>
      <trkpt lat="45.16749" lon="4.60836">
        <ele>645</ele>
        <time>2021-11-28T10:14:36+01:00</time>
      </trkpt>
      <trkpt lat="45.16662" lon="4.60877">
        <ele>643</ele>
        <time>2021-11-28T10:14:41+01:00</time>
      </trkpt>
      <trkpt lat="45.16594" lon="4.60767">
        <ele>649</ele>
        <time>2021-11-28T10:14:46+01:00</time>
      </trkpt>
      <trkpt lat="45.16483" lon="4.60671">
        <ele>661</ele>
        <time>2021-11-28T10:14:51+01:00</time>
      </trkpt>
      <trkpt lat="45.16451" lon="4.60821">
        <ele>654</ele>
        <time>2021-11-28T10:14:56+01:00</time>
      </trkpt>
      <trkpt lat="45.16337" lon="4.60877">
        <ele>663</ele>
        <time>2021-11-28T10:15:01+01:00</time>
      </trkpt>
      <trkpt lat="45.16263" lon="4.60879">
        <ele>663</ele>
        <time>2021-11-28T10:15:06+01:00</time>
      </trkpt>
      <trkpt lat="45.16157" lon="4.60791">
        <ele>673</ele>
        <time>2021-11-28T10:15:11+01:00</time>
      </trkpt>
      <trkpt lat="45.16078" lon="4.60826">
        <ele>671</ele>
        <time>2021-11-28T10:15:16+01:00</time>
      </trkpt>
      <trkpt lat="45.16064" lon="4.61024">
        <ele>676</ele>
        <time>2021-11-28T10:15:21+01:00</time>
      </trkpt>
      <trkpt lat="45.16046" lon="4.61142">
        <ele>673</ele>
        <time>2021-11-28T10:15:26+01:00</time>
      </trkpt>
      <trkpt lat="45.16016" lon="4.61232">
        <ele>667</ele>
        <time>2021-11-28T10:15:31+01:00</time>
      </trkpt>
      <trkpt lat="45.16085" lon="4.61329">
        <ele>661</ele>
        <time>2021-11-28T10:15:36+01:00</time>
      </trkpt>
      <trkpt lat="45.16084" lon="4.61435">
        <ele>655</ele>
        <time>2021-11-28T10:15:41+01:00</time>
      </trkpt>
      <trkpt lat="45.16029" lon="4.61377">
        <ele>650</ele>
        <time>2021-11-28T10:15:46+01:00</time>
      </trkpt>
      <trkpt lat="45.15956" lon="4.61413">
        <ele>633</ele>
        <time>2021-11-28T10:15:51+01:00</time>
      </trkpt>
      <trkpt lat="45.15795" lon="4.61265">
        <ele>628</ele>
        <time>2021-11-28T10:15:56+01:00</time>
      </trkpt>
      <trkpt lat="45.15717" lon="4.61295">
        <ele>617</ele>
        <time>2021-11-28T10:16:01+01:00</time>
      </trkpt>
      <trkpt lat="45.1565" lon="4.61284">
        <ele>611</ele>
        <time>2021-11-28T10:16:06+01:00</time>
      </trkpt>
      <trkpt lat="45.15604" lon="4.61196">
        <ele>603</ele>
        <time>2021-11-28T10:16:11+01:00</time>
      </trkpt>
      <trkpt lat="45.15589" lon="4.61133">
        <ele>600</ele>
        <time>2021-11-28T10:16:16+01:00</time>
      </trkpt>
      <trkpt lat="45.15553" lon="4.61065">
        <ele>593</ele>
        <time>2021-11-28T10:16:21+01:00</time>
      </trkpt>
      <trkpt lat="45.15484" lon="4.60955">
        <ele>587</ele>
        <time>2021-11-28T10:16:26+01:00</time>
      </trkpt>
      <trkpt lat="45.15486" lon="4.61026">
        <ele>578</ele>
        <time>2021-11-28T10:16:31+01:00</time>
      </trkpt>
      <trkpt lat="45.15454" lon="4.61002">
        <ele>572</ele>
        <time>2021-11-28T10:16:36+01:00</time>
      </trkpt>
      <trkpt lat="45.15413" lon="4.61047">
        <ele>557</ele>
        <time>2021-11-28T10:16:41+01:00</time>
      </trkpt>
      <trkpt lat="45.15325" lon="4.61092">
        <ele>532</ele>
        <time>2021-11-28T10:16:46+01:00</time>
      </trkpt>
      <trkpt lat="45.15323" lon="4.61144">
        <ele>531</ele>
        <time>2021-11-28T10:16:51+01:00</time>
      </trkpt>
      <trkpt lat="45.15222" lon="4.61235">
        <ele>502</ele>
        <time>2021-11-28T10:16:56+01:00</time>
      </trkpt>
      <trkpt lat="45.15185" lon="4.61185">
        <ele>493</ele>
        <time>2021-11-28T10:17:01+01:00</time>
      </trkpt>
      <trkpt lat="45.15155" lon="4.61413">
        <ele>482</ele>
        <time>2021-11-28T10:17:06+01:00</time>
      </trkpt>
      <trkpt lat="45.15149" lon="4.61534">
        <ele>481</ele>
        <time>2021-11-28T10:17:11+01:00</time>
      </trkpt>
      <trkpt lat="45.15106" lon="4.61588">
        <ele>478</ele>
        <time>2021-11-28T10:17:16+01:00</time>
      </trkpt>
      <trkpt lat="45.15093" lon="4.61535">
        <ele>479</ele>
        <time>2021-11-28T10:17:21+01:00</time>
      </trkpt>
    </trkseg>
  </trk>
  <trk>
    <name><![CDATA[44 - SATILLIEU TOURNON SUR RHONE 28.8 KM]]></name>
    <extensions>
      <line xmlns="http://www.topografix.com/GPX/gpx_style/0/2">
        <color>000088</color>
        <width>4</width>
      </line>
    </extensions>
    <trkseg>
      <trkpt lat="45.15087" lon="4.61527">
        <ele>479</ele>
        <time>2021-11-28T11:13:10+01:00</time>
      </trkpt>
      <trkpt lat="45.15071" lon="4.615">
        <ele>480</ele>
        <time>2021-11-28T11:13:15+01:00</time>
      </trkpt>
      <trkpt lat="45.14996" lon="4.6157">
        <ele>480</ele>
        <time>2021-11-28T11:13:20+01:00</time>
      </trkpt>
      <trkpt lat="45.14958" lon="4.61575">
        <ele>485</ele>
        <time>2021-11-28T11:13:25+01:00</time>
      </trkpt>
      <trkpt lat="45.14927" lon="4.61533">
        <ele>488</ele>
        <time>2021-11-28T11:13:30+01:00</time>
      </trkpt>
      <trkpt lat="45.14865" lon="4.61405">
        <ele>494</ele>
        <time>2021-11-28T11:13:35+01:00</time>
      </trkpt>
      <trkpt lat="45.14863" lon="4.61457">
        <ele>496</ele>
        <time>2021-11-28T11:13:40+01:00</time>
      </trkpt>
      <trkpt lat="45.14838" lon="4.61492">
        <ele>503</ele>
        <time>2021-11-28T11:13:45+01:00</time>
      </trkpt>
      <trkpt lat="45.14813" lon="4.61462">
        <ele>505</ele>
        <time>2021-11-28T11:13:50+01:00</time>
      </trkpt>
      <trkpt lat="45.14731" lon="4.61495">
        <ele>517</ele>
        <time>2021-11-28T11:13:55+01:00</time>
      </trkpt>
      <trkpt lat="45.1465" lon="4.61546">
        <ele>537</ele>
        <time>2021-11-28T11:14:00+01:00</time>
      </trkpt>
      <trkpt lat="45.14571" lon="4.61538">
        <ele>553</ele>
        <time>2021-11-28T11:14:05+01:00</time>
      </trkpt>
      <trkpt lat="45.1455" lon="4.61564">
        <ele>561</ele>
        <time>2021-11-28T11:14:10+01:00</time>
      </trkpt>
      <trkpt lat="45.14582" lon="4.61634">
        <ele>568</ele>
        <time>2021-11-28T11:14:15+01:00</time>
      </trkpt>
      <trkpt lat="45.14543" lon="4.61634">
        <ele>574</ele>
        <time>2021-11-28T11:14:20+01:00</time>
      </trkpt>
      <trkpt lat="45.14504" lon="4.61665">
        <ele>586</ele>
        <time>2021-11-28T11:14:25+01:00</time>
      </trkpt>
      <trkpt lat="45.14437" lon="4.61664">
        <ele>601</ele>
        <time>2021-11-28T11:14:30+01:00</time>
      </trkpt>
      <trkpt lat="45.14371" lon="4.61683">
        <ele>623</ele>
        <time>2021-11-28T11:14:35+01:00</time>
      </trkpt>
      <trkpt lat="45.14389" lon="4.61535">
        <ele>615</ele>
        <time>2021-11-28T11:14:40+01:00</time>
      </trkpt>
      <trkpt lat="45.14375" lon="4.61553">
        <ele>621</ele>
        <time>2021-11-28T11:14:45+01:00</time>
      </trkpt>
      <trkpt lat="45.14309" lon="4.61651">
        <ele>643</ele>
        <time>2021-11-28T11:14:50+01:00</time>
      </trkpt>
      <trkpt lat="45.14338" lon="4.61533">
        <ele>637</ele>
        <time>2021-11-28T11:14:55+01:00</time>
      </trkpt>
      <trkpt lat="45.14321" lon="4.61475">
        <ele>637</ele>
        <time>2021-11-28T11:15:00+01:00</time>
      </trkpt>
      <trkpt lat="45.14278" lon="4.61446">
        <ele>640</ele>
        <time>2021-11-28T11:15:05+01:00</time>
      </trkpt>
      <trkpt lat="45.14212" lon="4.61444">
        <ele>654</ele>
        <time>2021-11-28T11:15:10+01:00</time>
      </trkpt>
      <trkpt lat="45.14147" lon="4.61305">
        <ele>656</ele>
        <time>2021-11-28T11:15:15+01:00</time>
      </trkpt>
      <trkpt lat="45.141" lon="4.61244">
        <ele>659</ele>
        <time>2021-11-28T11:15:20+01:00</time>
      </trkpt>
      <trkpt lat="45.14043" lon="4.61243">
        <ele>669</ele>
        <time>2021-11-28T11:15:25+01:00</time>
      </trkpt>
      <trkpt lat="45.13972" lon="4.61156">
        <ele>670</ele>
        <time>2021-11-28T11:15:30+01:00</time>
      </trkpt>
      <trkpt lat="45.13879" lon="4.61193">
        <ele>675</ele>
        <time>2021-11-28T11:15:35+01:00</time>
      </trkpt>
      <trkpt lat="45.13795" lon="4.61294">
        <ele>686</ele>
        <time>2021-11-28T11:15:40+01:00</time>
      </trkpt>
      <trkpt lat="45.13689" lon="4.61333">
        <ele>688</ele>
        <time>2021-11-28T11:15:45+01:00</time>
      </trkpt>
      <trkpt lat="45.13617" lon="4.61375">
        <ele>699</ele>
        <time>2021-11-28T11:15:50+01:00</time>
      </trkpt>
      <trkpt lat="45.13499" lon="4.61313">
        <ele>706</ele>
        <time>2021-11-28T11:15:55+01:00</time>
      </trkpt>
      <trkpt lat="45.13508" lon="4.61227">
        <ele>705</ele>
        <time>2021-11-28T11:16:00+01:00</time>
      </trkpt>
      <trkpt lat="45.13483" lon="4.61158">
        <ele>716</ele>
        <time>2021-11-28T11:16:05+01:00</time>
      </trkpt>
      <trkpt lat="45.13424" lon="4.61258">
        <ele>731</ele>
        <time>2021-11-28T11:16:10+01:00</time>
      </trkpt>
      <trkpt lat="45.13371" lon="4.61322">
        <ele>745</ele>
        <time>2021-11-28T11:16:15+01:00</time>
      </trkpt>
      <trkpt lat="45.13295" lon="4.61334">
        <ele>767</ele>
        <time>2021-11-28T11:16:20+01:00</time>
      </trkpt>
      <trkpt lat="45.13241" lon="4.6147">
        <ele>788</ele>
        <time>2021-11-28T11:16:25+01:00</time>
      </trkpt>
      <trkpt lat="45.13196" lon="4.61576">
        <ele>795</ele>
        <time>2021-11-28T11:16:30+01:00</time>
      </trkpt>
      <trkpt lat="45.132" lon="4.61619">
        <ele>791</ele>
        <time>2021-11-28T11:16:35+01:00</time>
      </trkpt>
      <trkpt lat="45.1314" lon="4.61546">
        <ele>793</ele>
        <time>2021-11-28T11:16:40+01:00</time>
      </trkpt>
      <trkpt lat="45.13083" lon="4.61521">
        <ele>788</ele>
        <time>2021-11-28T11:16:45+01:00</time>
      </trkpt>
      <trkpt lat="45.1298" lon="4.61304">
        <ele>798</ele>
        <time>2021-11-28T11:16:50+01:00</time>
      </trkpt>
      <trkpt lat="45.12953" lon="4.61294">
        <ele>798</ele>
        <time>2021-11-28T11:16:55+01:00</time>
      </trkpt>
      <trkpt lat="45.12915" lon="4.61587">
        <ele>779</ele>
        <time>2021-11-28T11:17:00+01:00</time>
      </trkpt>
      <trkpt lat="45.12927" lon="4.61721">
        <ele>771</ele>
        <time>2021-11-28T11:17:05+01:00</time>
      </trkpt>
      <trkpt lat="45.12976" lon="4.61873">
        <ele>762</ele>
        <time>2021-11-28T11:17:10+01:00</time>
      </trkpt>
      <trkpt lat="45.12936" lon="4.61855">
        <ele>765</ele>
        <time>2021-11-28T11:17:15+01:00</time>
      </trkpt>
      <trkpt lat="45.12849" lon="4.61982">
        <ele>766</ele>
        <time>2021-11-28T11:17:20+01:00</time>
      </trkpt>
      <trkpt lat="45.12808" lon="4.6213">
        <ele>770</ele>
        <time>2021-11-28T11:17:25+01:00</time>
      </trkpt>
      <trkpt lat="45.12777" lon="4.6215">
        <ele>779</ele>
        <time>2021-11-28T11:17:30+01:00</time>
      </trkpt>
      <trkpt lat="45.1274" lon="4.62227">
        <ele>782</ele>
        <time>2021-11-28T11:17:35+01:00</time>
      </trkpt>
      <trkpt lat="45.12655" lon="4.62353">
        <ele>782</ele>
        <time>2021-11-28T11:17:40+01:00</time>
      </trkpt>
      <trkpt lat="45.12628" lon="4.62436">
        <ele>776</ele>
        <time>2021-11-28T11:17:45+01:00</time>
      </trkpt>
      <trkpt lat="45.12561" lon="4.62572">
        <ele>771</ele>
        <time>2021-11-28T11:17:50+01:00</time>
      </trkpt>
      <trkpt lat="45.12491" lon="4.62633">
        <ele>757</ele>
        <time>2021-11-28T11:17:55+01:00</time>
      </trkpt>
      <trkpt lat="45.12338" lon="4.62662">
        <ele>732</ele>
        <time>2021-11-28T11:18:00+01:00</time>
      </trkpt>
      <trkpt lat="45.12343" lon="4.62732">
        <ele>721</ele>
        <time>2021-11-28T11:18:05+01:00</time>
      </trkpt>
      <trkpt lat="45.12364" lon="4.62792">
        <ele>711</ele>
        <time>2021-11-28T11:18:10+01:00</time>
      </trkpt>
      <trkpt lat="45.12353" lon="4.62812">
        <ele>711</ele>
        <time>2021-11-28T11:18:15+01:00</time>
      </trkpt>
      <trkpt lat="45.12332" lon="4.62821">
        <ele>714</ele>
        <time>2021-11-28T11:18:20+01:00</time>
      </trkpt>
      <trkpt lat="45.12306" lon="4.62865">
        <ele>710</ele>
        <time>2021-11-28T11:18:25+01:00</time>
      </trkpt>
      <trkpt lat="45.12249" lon="4.62872">
        <ele>716</ele>
        <time>2021-11-28T11:18:30+01:00</time>
      </trkpt>
      <trkpt lat="45.12115" lon="4.62831">
        <ele>743</ele>
        <time>2021-11-28T11:18:35+01:00</time>
      </trkpt>
      <trkpt lat="45.12103" lon="4.62861">
        <ele>743</ele>
        <time>2021-11-28T11:18:40+01:00</time>
      </trkpt>
      <trkpt lat="45.12113" lon="4.63016">
        <ele>735</ele>
        <time>2021-11-28T11:18:45+01:00</time>
      </trkpt>
      <trkpt lat="45.12083" lon="4.63144">
        <ele>735</ele>
        <time>2021-11-28T11:18:50+01:00</time>
      </trkpt>
      <trkpt lat="45.12034" lon="4.63269">
        <ele>726</ele>
        <time>2021-11-28T11:18:55+01:00</time>
      </trkpt>
      <trkpt lat="45.11961" lon="4.63387">
        <ele>716</ele>
        <time>2021-11-28T11:19:00+01:00</time>
      </trkpt>
      <trkpt lat="45.11917" lon="4.63392">
        <ele>717</ele>
        <time>2021-11-28T11:19:05+01:00</time>
      </trkpt>
      <trkpt lat="45.11774" lon="4.63518">
        <ele>689</ele>
        <time>2021-11-28T11:19:10+01:00</time>
      </trkpt>
      <trkpt lat="45.11698" lon="4.63486">
        <ele>682</ele>
        <time>2021-11-28T11:19:15+01:00</time>
      </trkpt>
      <trkpt lat="45.11668" lon="4.63385">
        <ele>692</ele>
        <time>2021-11-28T11:19:20+01:00</time>
      </trkpt>
      <trkpt lat="45.1154" lon="4.63399">
        <ele>679</ele>
        <time>2021-11-28T11:19:25+01:00</time>
      </trkpt>
      <trkpt lat="45.11485" lon="4.6341">
        <ele>684</ele>
        <time>2021-11-28T11:19:30+01:00</time>
      </trkpt>
      <trkpt lat="45.11427" lon="4.63396">
        <ele>694</ele>
        <time>2021-11-28T11:19:35+01:00</time>
      </trkpt>
      <trkpt lat="45.11368" lon="4.63412">
        <ele>710</ele>
        <time>2021-11-28T11:19:40+01:00</time>
      </trkpt>
      <trkpt lat="45.113" lon="4.63327">
        <ele>711</ele>
        <time>2021-11-28T11:19:45+01:00</time>
      </trkpt>
      <trkpt lat="45.1127" lon="4.63318">
        <ele>711</ele>
        <time>2021-11-28T11:19:50+01:00</time>
      </trkpt>
      <trkpt lat="45.11248" lon="4.63359">
        <ele>720</ele>
        <time>2021-11-28T11:19:55+01:00</time>
      </trkpt>
      <trkpt lat="45.11332" lon="4.63569">
        <ele>745</ele>
        <time>2021-11-28T11:20:00+01:00</time>
      </trkpt>
      <trkpt lat="45.11336" lon="4.63712">
        <ele>761</ele>
        <time>2021-11-28T11:20:05+01:00</time>
      </trkpt>
      <trkpt lat="45.11349" lon="4.63795">
        <ele>766</ele>
        <time>2021-11-28T11:20:10+01:00</time>
      </trkpt>
      <trkpt lat="45.11383" lon="4.63975">
        <ele>761</ele>
        <time>2021-11-28T11:20:15+01:00</time>
      </trkpt>
      <trkpt lat="45.11288" lon="4.64132">
        <ele>776</ele>
        <time>2021-11-28T11:20:20+01:00</time>
      </trkpt>
      <trkpt lat="45.11298" lon="4.64215">
        <ele>775</ele>
        <time>2021-11-28T11:20:25+01:00</time>
      </trkpt>
      <trkpt lat="45.11331" lon="4.64271">
        <ele>772</ele>
        <time>2021-11-28T11:20:30+01:00</time>
      </trkpt>
      <trkpt lat="45.11392" lon="4.64321">
        <ele>765</ele>
        <time>2021-11-28T11:20:35+01:00</time>
      </trkpt>
      <trkpt lat="45.11405" lon="4.64402">
        <ele>779</ele>
        <time>2021-11-28T11:20:40+01:00</time>
      </trkpt>
      <trkpt lat="45.11452" lon="4.64432">
        <ele>775</ele>
        <time>2021-11-28T11:20:45+01:00</time>
      </trkpt>
      <trkpt lat="45.11447" lon="4.64483">
        <ele>780</ele>
        <time>2021-11-28T11:20:50+01:00</time>
      </trkpt>
      <trkpt lat="45.11385" lon="4.6457">
        <ele>786</ele>
        <time>2021-11-28T11:20:55+01:00</time>
      </trkpt>
      <trkpt lat="45.11352" lon="4.64573">
        <ele>787</ele>
        <time>2021-11-28T11:21:00+01:00</time>
      </trkpt>
      <trkpt lat="45.11329" lon="4.6466">
        <ele>789</ele>
        <time>2021-11-28T11:21:05+01:00</time>
      </trkpt>
      <trkpt lat="45.11374" lon="4.64811">
        <ele>784</ele>
        <time>2021-11-28T11:21:10+01:00</time>
      </trkpt>
      <trkpt lat="45.11399" lon="4.64917">
        <ele>784</ele>
        <time>2021-11-28T11:21:15+01:00</time>
      </trkpt>
      <trkpt lat="45.11393" lon="4.65023">
        <ele>786</ele>
        <time>2021-11-28T11:21:20+01:00</time>
      </trkpt>
      <trkpt lat="45.11339" lon="4.65177">
        <ele>784</ele>
        <time>2021-11-28T11:21:25+01:00</time>
      </trkpt>
      <trkpt lat="45.11302" lon="4.6523">
        <ele>784</ele>
        <time>2021-11-28T11:21:30+01:00</time>
      </trkpt>
      <trkpt lat="45.1126" lon="4.65281">
        <ele>786</ele>
        <time>2021-11-28T11:21:35+01:00</time>
      </trkpt>
      <trkpt lat="45.11276" lon="4.65313">
        <ele>786</ele>
        <time>2021-11-28T11:21:40+01:00</time>
      </trkpt>
      <trkpt lat="45.11227" lon="4.65389">
        <ele>786</ele>
        <time>2021-11-28T11:21:45+01:00</time>
      </trkpt>
      <trkpt lat="45.11176" lon="4.6545">
        <ele>785</ele>
        <time>2021-11-28T11:21:50+01:00</time>
      </trkpt>
      <trkpt lat="45.11133" lon="4.65535">
        <ele>787</ele>
        <time>2021-11-28T11:21:55+01:00</time>
      </trkpt>
      <trkpt lat="45.11072" lon="4.65657">
        <ele>787</ele>
        <time>2021-11-28T11:22:00+01:00</time>
      </trkpt>
      <trkpt lat="45.11053" lon="4.65775">
        <ele>789</ele>
        <time>2021-11-28T11:22:05+01:00</time>
      </trkpt>
      <trkpt lat="45.10998" lon="4.65918">
        <ele>780</ele>
        <time>2021-11-28T11:22:10+01:00</time>
      </trkpt>
      <trkpt lat="45.10953" lon="4.66042">
        <ele>784</ele>
        <time>2021-11-28T11:22:15+01:00</time>
      </trkpt>
      <trkpt lat="45.10862" lon="4.66061">
        <ele>781</ele>
        <time>2021-11-28T11:22:20+01:00</time>
      </trkpt>
      <trkpt lat="45.10733" lon="4.66049">
        <ele>772</ele>
        <time>2021-11-28T11:22:25+01:00</time>
      </trkpt>
      <trkpt lat="45.10687" lon="4.66061">
        <ele>770</ele>
        <time>2021-11-28T11:22:30+01:00</time>
      </trkpt>
      <trkpt lat="45.10566" lon="4.66193">
        <ele>760</ele>
        <time>2021-11-28T11:22:35+01:00</time>
      </trkpt>
      <trkpt lat="45.1052" lon="4.66269">
        <ele>751</ele>
        <time>2021-11-28T11:22:40+01:00</time>
      </trkpt>
      <trkpt lat="45.10444" lon="4.66441">
        <ele>737</ele>
        <time>2021-11-28T11:22:45+01:00</time>
      </trkpt>
      <trkpt lat="45.10406" lon="4.66488">
        <ele>729</ele>
        <time>2021-11-28T11:22:50+01:00</time>
      </trkpt>
      <trkpt lat="45.10378" lon="4.66501">
        <ele>722</ele>
        <time>2021-11-28T11:22:55+01:00</time>
      </trkpt>
      <trkpt lat="45.10362" lon="4.66448">
        <ele>712</ele>
        <time>2021-11-28T11:23:00+01:00</time>
      </trkpt>
      <trkpt lat="45.10378" lon="4.66373">
        <ele>710</ele>
        <time>2021-11-28T11:23:05+01:00</time>
      </trkpt>
      <trkpt lat="45.10352" lon="4.66259">
        <ele>697</ele>
        <time>2021-11-28T11:23:10+01:00</time>
      </trkpt>
      <trkpt lat="45.10345" lon="4.66352">
        <ele>700</ele>
        <time>2021-11-28T11:23:15+01:00</time>
      </trkpt>
      <trkpt lat="45.10298" lon="4.66435">
        <ele>691</ele>
        <time>2021-11-28T11:23:20+01:00</time>
      </trkpt>
      <trkpt lat="45.10263" lon="4.6655">
        <ele>684</ele>
        <time>2021-11-28T11:23:25+01:00</time>
      </trkpt>
      <trkpt lat="45.10191" lon="4.66783">
        <ele>654</ele>
        <time>2021-11-28T11:23:30+01:00</time>
      </trkpt>
      <trkpt lat="45.10227" lon="4.66968">
        <ele>632</ele>
        <time>2021-11-28T11:23:35+01:00</time>
      </trkpt>
      <trkpt lat="45.10242" lon="4.67032">
        <ele>631</ele>
        <time>2021-11-28T11:23:40+01:00</time>
      </trkpt>
      <trkpt lat="45.1022" lon="4.67177">
        <ele>628</ele>
        <time>2021-11-28T11:23:45+01:00</time>
      </trkpt>
      <trkpt lat="45.10197" lon="4.67187">
        <ele>623</ele>
        <time>2021-11-28T11:23:50+01:00</time>
      </trkpt>
      <trkpt lat="45.10145" lon="4.67219">
        <ele>614</ele>
        <time>2021-11-28T11:23:55+01:00</time>
      </trkpt>
      <trkpt lat="45.10107" lon="4.67289">
        <ele>612</ele>
        <time>2021-11-28T11:24:00+01:00</time>
      </trkpt>
      <trkpt lat="45.10091" lon="4.67348">
        <ele>612</ele>
        <time>2021-11-28T11:24:05+01:00</time>
      </trkpt>
      <trkpt lat="45.10084" lon="4.67402">
        <ele>612</ele>
        <time>2021-11-28T11:24:10+01:00</time>
      </trkpt>
      <trkpt lat="45.10075" lon="4.67438">
        <ele>610</ele>
        <time>2021-11-28T11:24:15+01:00</time>
      </trkpt>
      <trkpt lat="45.10053" lon="4.67441">
        <ele>607</ele>
        <time>2021-11-28T11:24:20+01:00</time>
      </trkpt>
      <trkpt lat="45.10045" lon="4.67494">
        <ele>604</ele>
        <time>2021-11-28T11:24:25+01:00</time>
      </trkpt>
      <trkpt lat="45.10053" lon="4.67568">
        <ele>600</ele>
        <time>2021-11-28T11:24:30+01:00</time>
      </trkpt>
      <trkpt lat="45.10044" lon="4.67688">
        <ele>596</ele>
        <time>2021-11-28T11:24:35+01:00</time>
      </trkpt>
      <trkpt lat="45.10028" lon="4.67969">
        <ele>596</ele>
        <time>2021-11-28T11:24:40+01:00</time>
      </trkpt>
      <trkpt lat="45.10094" lon="4.68029">
        <ele>589</ele>
        <time>2021-11-28T11:24:45+01:00</time>
      </trkpt>
      <trkpt lat="45.1013" lon="4.68121">
        <ele>575</ele>
        <time>2021-11-28T11:24:50+01:00</time>
      </trkpt>
      <trkpt lat="45.10095" lon="4.6816">
        <ele>578</ele>
        <time>2021-11-28T11:24:55+01:00</time>
      </trkpt>
      <trkpt lat="45.1008" lon="4.68209">
        <ele>578</ele>
        <time>2021-11-28T11:25:00+01:00</time>
      </trkpt>
      <trkpt lat="45.1006" lon="4.68273">
        <ele>581</ele>
        <time>2021-11-28T11:25:05+01:00</time>
      </trkpt>
      <trkpt lat="45.10065" lon="4.68334">
        <ele>579</ele>
        <time>2021-11-28T11:25:10+01:00</time>
      </trkpt>
      <trkpt lat="45.10095" lon="4.68463">
        <ele>574</ele>
        <time>2021-11-28T11:25:15+01:00</time>
      </trkpt>
      <trkpt lat="45.10167" lon="4.68583">
        <ele>561</ele>
        <time>2021-11-28T11:25:20+01:00</time>
      </trkpt>
      <trkpt lat="45.10212" lon="4.68859">
        <ele>532</ele>
        <time>2021-11-28T11:25:25+01:00</time>
      </trkpt>
      <trkpt lat="45.10208" lon="4.69047">
        <ele>522</ele>
        <time>2021-11-28T11:25:30+01:00</time>
      </trkpt>
      <trkpt lat="45.10149" lon="4.69009">
        <ele>533</ele>
        <time>2021-11-28T11:25:35+01:00</time>
      </trkpt>
      <trkpt lat="45.10105" lon="4.69088">
        <ele>540</ele>
        <time>2021-11-28T11:25:40+01:00</time>
      </trkpt>
      <trkpt lat="45.10078" lon="4.69104">
        <ele>545</ele>
        <time>2021-11-28T11:25:45+01:00</time>
      </trkpt>
      <trkpt lat="45.09985" lon="4.69293">
        <ele>535</ele>
        <time>2021-11-28T11:25:50+01:00</time>
      </trkpt>
      <trkpt lat="45.10014" lon="4.6943">
        <ele>525</ele>
        <time>2021-11-28T11:25:55+01:00</time>
      </trkpt>
      <trkpt lat="45.09868" lon="4.69579">
        <ele>520</ele>
        <time>2021-11-28T11:26:00+01:00</time>
      </trkpt>
      <trkpt lat="45.09798" lon="4.69626">
        <ele>521</ele>
        <time>2021-11-28T11:26:05+01:00</time>
      </trkpt>
      <trkpt lat="45.09754" lon="4.69686">
        <ele>521</ele>
        <time>2021-11-28T11:26:10+01:00</time>
      </trkpt>
      <trkpt lat="45.09715" lon="4.69702">
        <ele>520</ele>
        <time>2021-11-28T11:26:15+01:00</time>
      </trkpt>
      <trkpt lat="45.09739" lon="4.69739">
        <ele>519</ele>
        <time>2021-11-28T11:26:20+01:00</time>
      </trkpt>
      <trkpt lat="45.09792" lon="4.6976">
        <ele>515</ele>
        <time>2021-11-28T11:26:25+01:00</time>
      </trkpt>
      <trkpt lat="45.0979" lon="4.69937">
        <ele>502</ele>
        <time>2021-11-28T11:26:30+01:00</time>
      </trkpt>
      <trkpt lat="45.09836" lon="4.70364">
        <ele>475</ele>
        <time>2021-11-28T11:26:35+01:00</time>
      </trkpt>
      <trkpt lat="45.09866" lon="4.70537">
        <ele>467</ele>
        <time>2021-11-28T11:26:40+01:00</time>
      </trkpt>
      <trkpt lat="45.09914" lon="4.70659">
        <ele>465</ele>
        <time>2021-11-28T11:26:45+01:00</time>
      </trkpt>
      <trkpt lat="45.09897" lon="4.70818">
        <ele>462</ele>
        <time>2021-11-28T11:26:50+01:00</time>
      </trkpt>
      <trkpt lat="45.09882" lon="4.70945">
        <ele>456</ele>
        <time>2021-11-28T11:26:55+01:00</time>
      </trkpt>
      <trkpt lat="45.09897" lon="4.7101">
        <ele>453</ele>
        <time>2021-11-28T11:27:00+01:00</time>
      </trkpt>
      <trkpt lat="45.09927" lon="4.71065">
        <ele>455</ele>
        <time>2021-11-28T11:27:05+01:00</time>
      </trkpt>
      <trkpt lat="45.09957" lon="4.71035">
        <ele>456</ele>
        <time>2021-11-28T11:27:10+01:00</time>
      </trkpt>
      <trkpt lat="45.1002" lon="4.71086">
        <ele>464</ele>
        <time>2021-11-28T11:27:15+01:00</time>
      </trkpt>
      <trkpt lat="45.1004" lon="4.71141">
        <ele>475</ele>
        <time>2021-11-28T11:27:20+01:00</time>
      </trkpt>
      <trkpt lat="45.10008" lon="4.71199">
        <ele>485</ele>
        <time>2021-11-28T11:27:25+01:00</time>
      </trkpt>
      <trkpt lat="45.09952" lon="4.71264">
        <ele>486</ele>
        <time>2021-11-28T11:27:30+01:00</time>
      </trkpt>
      <trkpt lat="45.09945" lon="4.71328">
        <ele>490</ele>
        <time>2021-11-28T11:27:35+01:00</time>
      </trkpt>
      <trkpt lat="45.09914" lon="4.71439">
        <ele>483</ele>
        <time>2021-11-28T11:27:40+01:00</time>
      </trkpt>
      <trkpt lat="45.09935" lon="4.71508">
        <ele>486</ele>
        <time>2021-11-28T11:27:45+01:00</time>
      </trkpt>
      <trkpt lat="45.09943" lon="4.71607">
        <ele>490</ele>
        <time>2021-11-28T11:27:50+01:00</time>
      </trkpt>
      <trkpt lat="45.10002" lon="4.7187">
        <ele>509</ele>
        <time>2021-11-28T11:27:55+01:00</time>
      </trkpt>
      <trkpt lat="45.10021" lon="4.72034">
        <ele>508</ele>
        <time>2021-11-28T11:28:00+01:00</time>
      </trkpt>
      <trkpt lat="45.10056" lon="4.7232">
        <ele>495</ele>
        <time>2021-11-28T11:28:05+01:00</time>
      </trkpt>
      <trkpt lat="45.10124" lon="4.72537">
        <ele>487</ele>
        <time>2021-11-28T11:28:10+01:00</time>
      </trkpt>
      <trkpt lat="45.10134" lon="4.72629">
        <ele>483</ele>
        <time>2021-11-28T11:28:15+01:00</time>
      </trkpt>
      <trkpt lat="45.10302" lon="4.72885">
        <ele>468</ele>
        <time>2021-11-28T11:28:20+01:00</time>
      </trkpt>
      <trkpt lat="45.10408" lon="4.73149">
        <ele>459</ele>
        <time>2021-11-28T11:28:25+01:00</time>
      </trkpt>
      <trkpt lat="45.10339" lon="4.73227">
        <ele>460</ele>
        <time>2021-11-28T11:28:30+01:00</time>
      </trkpt>
      <trkpt lat="45.10227" lon="4.73345">
        <ele>466</ele>
        <time>2021-11-28T11:28:35+01:00</time>
      </trkpt>
      <trkpt lat="45.10074" lon="4.73428">
        <ele>462</ele>
        <time>2021-11-28T11:28:40+01:00</time>
      </trkpt>
      <trkpt lat="45.0994" lon="4.73522">
        <ele>461</ele>
        <time>2021-11-28T11:28:45+01:00</time>
      </trkpt>
      <trkpt lat="45.09874" lon="4.73587">
        <ele>462</ele>
        <time>2021-11-28T11:28:50+01:00</time>
      </trkpt>
      <trkpt lat="45.09749" lon="4.73698">
        <ele>461</ele>
        <time>2021-11-28T11:28:55+01:00</time>
      </trkpt>
      <trkpt lat="45.09645" lon="4.7373">
        <ele>460</ele>
        <time>2021-11-28T11:29:00+01:00</time>
      </trkpt>
      <trkpt lat="45.09603" lon="4.73732">
        <ele>460</ele>
        <time>2021-11-28T11:29:05+01:00</time>
      </trkpt>
      <trkpt lat="45.09509" lon="4.73869">
        <ele>457</ele>
        <time>2021-11-28T11:29:10+01:00</time>
      </trkpt>
      <trkpt lat="45.09533" lon="4.74083">
        <ele>451</ele>
        <time>2021-11-28T11:29:15+01:00</time>
      </trkpt>
      <trkpt lat="45.09548" lon="4.74342">
        <ele>446</ele>
        <time>2021-11-28T11:29:20+01:00</time>
      </trkpt>
      <trkpt lat="45.09529" lon="4.74462">
        <ele>444</ele>
        <time>2021-11-28T11:29:25+01:00</time>
      </trkpt>
      <trkpt lat="45.09468" lon="4.74627">
        <ele>444</ele>
        <time>2021-11-28T11:29:30+01:00</time>
      </trkpt>
      <trkpt lat="45.09416" lon="4.74745">
        <ele>441</ele>
        <time>2021-11-28T11:29:35+01:00</time>
      </trkpt>
      <trkpt lat="45.09423" lon="4.75131">
        <ele>420</ele>
        <time>2021-11-28T11:29:40+01:00</time>
      </trkpt>
      <trkpt lat="45.09436" lon="4.75234">
        <ele>413</ele>
        <time>2021-11-28T11:29:45+01:00</time>
      </trkpt>
      <trkpt lat="45.09494" lon="4.75283">
        <ele>405</ele>
        <time>2021-11-28T11:29:50+01:00</time>
      </trkpt>
      <trkpt lat="45.09506" lon="4.7532">
        <ele>401</ele>
        <time>2021-11-28T11:29:55+01:00</time>
      </trkpt>
      <trkpt lat="45.09411" lon="4.75391">
        <ele>391</ele>
        <time>2021-11-28T11:30:00+01:00</time>
      </trkpt>
      <trkpt lat="45.09426" lon="4.75437">
        <ele>383</ele>
        <time>2021-11-28T11:30:05+01:00</time>
      </trkpt>
      <trkpt lat="45.09376" lon="4.75518">
        <ele>368</ele>
        <time>2021-11-28T11:30:10+01:00</time>
      </trkpt>
      <trkpt lat="45.09336" lon="4.755">
        <ele>365</ele>
        <time>2021-11-28T11:30:15+01:00</time>
      </trkpt>
      <trkpt lat="45.09326" lon="4.75537">
        <ele>364</ele>
        <time>2021-11-28T11:30:20+01:00</time>
      </trkpt>
      <trkpt lat="45.0935" lon="4.75557">
        <ele>365</ele>
        <time>2021-11-28T11:30:25+01:00</time>
      </trkpt>
      <trkpt lat="45.094" lon="4.75567">
        <ele>367</ele>
        <time>2021-11-28T11:30:30+01:00</time>
      </trkpt>
      <trkpt lat="45.09447" lon="4.75585">
        <ele>368</ele>
        <time>2021-11-28T11:30:35+01:00</time>
      </trkpt>
      <trkpt lat="45.09395" lon="4.75641">
        <ele>379</ele>
        <time>2021-11-28T11:30:40+01:00</time>
      </trkpt>
      <trkpt lat="45.09309" lon="4.75693">
        <ele>392</ele>
        <time>2021-11-28T11:30:45+01:00</time>
      </trkpt>
      <trkpt lat="45.09269" lon="4.75754">
        <ele>407</ele>
        <time>2021-11-28T11:30:50+01:00</time>
      </trkpt>
      <trkpt lat="45.09134" lon="4.75867">
        <ele>424</ele>
        <time>2021-11-28T11:30:55+01:00</time>
      </trkpt>
      <trkpt lat="45.09172" lon="4.75878">
        <ele>424</ele>
        <time>2021-11-28T11:31:00+01:00</time>
      </trkpt>
      <trkpt lat="45.0921" lon="4.7597">
        <ele>423</ele>
        <time>2021-11-28T11:31:05+01:00</time>
      </trkpt>
      <trkpt lat="45.09159" lon="4.7616">
        <ele>425</ele>
        <time>2021-11-28T11:31:10+01:00</time>
      </trkpt>
      <trkpt lat="45.09126" lon="4.76328">
        <ele>424</ele>
        <time>2021-11-28T11:31:15+01:00</time>
      </trkpt>
      <trkpt lat="45.09078" lon="4.7642">
        <ele>420</ele>
        <time>2021-11-28T11:31:20+01:00</time>
      </trkpt>
      <trkpt lat="45.09061" lon="4.76476">
        <ele>419</ele>
        <time>2021-11-28T11:31:25+01:00</time>
      </trkpt>
      <trkpt lat="45.09068" lon="4.76706">
        <ele>411</ele>
        <time>2021-11-28T11:31:30+01:00</time>
      </trkpt>
      <trkpt lat="45.09082" lon="4.77011">
        <ele>397</ele>
        <time>2021-11-28T11:31:35+01:00</time>
      </trkpt>
      <trkpt lat="45.09042" lon="4.77112">
        <ele>390</ele>
        <time>2021-11-28T11:31:40+01:00</time>
      </trkpt>
      <trkpt lat="45.09031" lon="4.77193">
        <ele>389</ele>
        <time>2021-11-28T11:31:45+01:00</time>
      </trkpt>
      <trkpt lat="45.08984" lon="4.77233">
        <ele>385</ele>
        <time>2021-11-28T11:31:50+01:00</time>
      </trkpt>
      <trkpt lat="45.08751" lon="4.77145">
        <ele>390</ele>
        <time>2021-11-28T11:31:55+01:00</time>
      </trkpt>
      <trkpt lat="45.08532" lon="4.77237">
        <ele>402</ele>
        <time>2021-11-28T11:32:00+01:00</time>
      </trkpt>
      <trkpt lat="45.08448" lon="4.77262">
        <ele>405</ele>
        <time>2021-11-28T11:32:05+01:00</time>
      </trkpt>
      <trkpt lat="45.08207" lon="4.77218">
        <ele>404</ele>
        <time>2021-11-28T11:32:10+01:00</time>
      </trkpt>
      <trkpt lat="45.08078" lon="4.77191">
        <ele>406</ele>
        <time>2021-11-28T11:32:15+01:00</time>
      </trkpt>
      <trkpt lat="45.07909" lon="4.77069">
        <ele>410</ele>
        <time>2021-11-28T11:32:20+01:00</time>
      </trkpt>
      <trkpt lat="45.07609" lon="4.77092">
        <ele>393</ele>
        <time>2021-11-28T11:32:25+01:00</time>
      </trkpt>
      <trkpt lat="45.07463" lon="4.77128">
        <ele>376</ele>
        <time>2021-11-28T11:32:30+01:00</time>
      </trkpt>
      <trkpt lat="45.07355" lon="4.77227">
        <ele>374</ele>
        <time>2021-11-28T11:32:35+01:00</time>
      </trkpt>
      <trkpt lat="45.07183" lon="4.77281">
        <ele>372</ele>
        <time>2021-11-28T11:32:40+01:00</time>
      </trkpt>
      <trkpt lat="45.07001" lon="4.77263">
        <ele>373</ele>
        <time>2021-11-28T11:32:45+01:00</time>
      </trkpt>
      <trkpt lat="45.06858" lon="4.77204">
        <ele>371</ele>
        <time>2021-11-28T11:32:50+01:00</time>
      </trkpt>
      <trkpt lat="45.06724" lon="4.77227">
        <ele>367</ele>
        <time>2021-11-28T11:32:55+01:00</time>
      </trkpt>
      <trkpt lat="45.06437" lon="4.7725">
        <ele>362</ele>
        <time>2021-11-28T11:33:00+01:00</time>
      </trkpt>
      <trkpt lat="45.06469" lon="4.77448">
        <ele>340</ele>
        <time>2021-11-28T11:33:05+01:00</time>
      </trkpt>
      <trkpt lat="45.06443" lon="4.77538">
        <ele>330</ele>
        <time>2021-11-28T11:33:10+01:00</time>
      </trkpt>
      <trkpt lat="45.06475" lon="4.7761">
        <ele>318</ele>
        <time>2021-11-28T11:33:15+01:00</time>
      </trkpt>
      <trkpt lat="45.06517" lon="4.7762">
        <ele>309</ele>
        <time>2021-11-28T11:33:20+01:00</time>
      </trkpt>
      <trkpt lat="45.0652" lon="4.7767">
        <ele>301</ele>
        <time>2021-11-28T11:33:25+01:00</time>
      </trkpt>
      <trkpt lat="45.06402" lon="4.77759">
        <ele>285</ele>
        <time>2021-11-28T11:33:30+01:00</time>
      </trkpt>
      <trkpt lat="45.06311" lon="4.77806">
        <ele>272</ele>
        <time>2021-11-28T11:33:35+01:00</time>
      </trkpt>
      <trkpt lat="45.06214" lon="4.77899">
        <ele>235</ele>
        <time>2021-11-28T11:33:40+01:00</time>
      </trkpt>
      <trkpt lat="45.06174" lon="4.77878">
        <ele>231</ele>
        <time>2021-11-28T11:33:45+01:00</time>
      </trkpt>
      <trkpt lat="45.06177" lon="4.77929">
        <ele>224</ele>
        <time>2021-11-28T11:33:50+01:00</time>
      </trkpt>
      <trkpt lat="45.06224" lon="4.77959">
        <ele>220</ele>
        <time>2021-11-28T11:33:55+01:00</time>
      </trkpt>
      <trkpt lat="45.06282" lon="4.77943">
        <ele>218</ele>
        <time>2021-11-28T11:34:00+01:00</time>
      </trkpt>
      <trkpt lat="45.06346" lon="4.77899">
        <ele>225</ele>
        <time>2021-11-28T11:34:05+01:00</time>
      </trkpt>
      <trkpt lat="45.06374" lon="4.77907">
        <ele>215</ele>
        <time>2021-11-28T11:34:10+01:00</time>
      </trkpt>
      <trkpt lat="45.0644" lon="4.77881">
        <ele>217</ele>
        <time>2021-11-28T11:34:15+01:00</time>
      </trkpt>
      <trkpt lat="45.0655" lon="4.7791">
        <ele>187</ele>
        <time>2021-11-28T11:34:20+01:00</time>
      </trkpt>
      <trkpt lat="45.06594" lon="4.77897">
        <ele>190</ele>
        <time>2021-11-28T11:34:25+01:00</time>
      </trkpt>
      <trkpt lat="45.06629" lon="4.77919">
        <ele>178</ele>
        <time>2021-11-28T11:34:30+01:00</time>
      </trkpt>
      <trkpt lat="45.06679" lon="4.77889">
        <ele>190</ele>
        <time>2021-11-28T11:34:35+01:00</time>
      </trkpt>
      <trkpt lat="45.06701" lon="4.78016">
        <ele>161</ele>
        <time>2021-11-28T11:34:40+01:00</time>
      </trkpt>
      <trkpt lat="45.06748" lon="4.78067">
        <ele>165</ele>
        <time>2021-11-28T11:34:45+01:00</time>
      </trkpt>
      <trkpt lat="45.06721" lon="4.78098">
        <ele>153</ele>
        <time>2021-11-28T11:34:50+01:00</time>
      </trkpt>
      <trkpt lat="45.06701" lon="4.78094">
        <ele>146</ele>
        <time>2021-11-28T11:34:55+01:00</time>
      </trkpt>
      <trkpt lat="45.06602" lon="4.78166">
        <ele>152</ele>
        <time>2021-11-28T11:35:00+01:00</time>
      </trkpt>
      <trkpt lat="45.06625" lon="4.78228">
        <ele>154</ele>
        <time>2021-11-28T11:35:05+01:00</time>
      </trkpt>
      <trkpt lat="45.06624" lon="4.78372">
        <ele>159</ele>
        <time>2021-11-28T11:35:10+01:00</time>
      </trkpt>
      <trkpt lat="45.06632" lon="4.78497">
        <ele>156</ele>
        <time>2021-11-28T11:35:15+01:00</time>
      </trkpt>
      <trkpt lat="45.0661" lon="4.78615">
        <ele>150</ele>
        <time>2021-11-28T11:35:20+01:00</time>
      </trkpt>
      <trkpt lat="45.06546" lon="4.78743">
        <ele>154</ele>
        <time>2021-11-28T11:35:25+01:00</time>
      </trkpt>
      <trkpt lat="45.06525" lon="4.78788">
        <ele>156</ele>
        <time>2021-11-28T11:35:30+01:00</time>
      </trkpt>
    </trkseg>
  </trk>
  <trk>
    <name><![CDATA[45 - TOURNON SUR RHONE ST PERAY 29 KM]]></name>
    <extensions>
      <line xmlns="http://www.topografix.com/GPX/gpx_style/0/2">
        <color>008800</color>
        <width>4</width>
      </line>
    </extensions>
    <trkseg>
      <trkpt lat="45.06754" lon="4.83174">
        <ele>130</ele>
        <time>2021-11-28T12:03:55+01:00</time>
      </trkpt>
      <trkpt lat="45.06749" lon="4.83191">
        <ele>130</ele>
        <time>2021-11-28T12:04:00+01:00</time>
      </trkpt>
      <trkpt lat="45.06692" lon="4.83154">
        <ele>135</ele>
        <time>2021-11-28T12:04:05+01:00</time>
      </trkpt>
      <trkpt lat="45.06638" lon="4.83218">
        <ele>132</ele>
        <time>2021-11-28T12:04:10+01:00</time>
      </trkpt>
      <trkpt lat="45.06592" lon="4.83171">
        <ele>139</ele>
        <time>2021-11-28T12:04:15+01:00</time>
      </trkpt>
      <trkpt lat="45.06611" lon="4.83132">
        <ele>149</ele>
        <time>2021-11-28T12:04:20+01:00</time>
      </trkpt>
      <trkpt lat="45.06533" lon="4.83143">
        <ele>155</ele>
        <time>2021-11-28T12:04:25+01:00</time>
      </trkpt>
      <trkpt lat="45.06556" lon="4.83125">
        <ele>158</ele>
        <time>2021-11-28T12:04:30+01:00</time>
      </trkpt>
      <trkpt lat="45.06524" lon="4.83116">
        <ele>164</ele>
        <time>2021-11-28T12:04:35+01:00</time>
      </trkpt>
      <trkpt lat="45.06534" lon="4.83108">
        <ele>166</ele>
        <time>2021-11-28T12:04:40+01:00</time>
      </trkpt>
      <trkpt lat="45.06553" lon="4.83112">
        <ele>163</ele>
        <time>2021-11-28T12:04:45+01:00</time>
      </trkpt>
      <trkpt lat="45.0661" lon="4.83063">
        <ele>174</ele>
        <time>2021-11-28T12:04:50+01:00</time>
      </trkpt>
      <trkpt lat="45.06629" lon="4.83048">
        <ele>175</ele>
        <time>2021-11-28T12:04:55+01:00</time>
      </trkpt>
      <trkpt lat="45.06647" lon="4.83052">
        <ele>169</ele>
        <time>2021-11-28T12:05:00+01:00</time>
      </trkpt>
      <trkpt lat="45.06649" lon="4.82992">
        <ele>192</ele>
        <time>2021-11-28T12:05:05+01:00</time>
      </trkpt>
      <trkpt lat="45.06673" lon="4.82973">
        <ele>190</ele>
        <time>2021-11-28T12:05:10+01:00</time>
      </trkpt>
      <trkpt lat="45.06675" lon="4.82943">
        <ele>199</ele>
        <time>2021-11-28T12:05:15+01:00</time>
      </trkpt>
      <trkpt lat="45.06691" lon="4.82914">
        <ele>200</ele>
        <time>2021-11-28T12:05:20+01:00</time>
      </trkpt>
      <trkpt lat="45.06715" lon="4.82893">
        <ele>192</ele>
        <time>2021-11-28T12:05:25+01:00</time>
      </trkpt>
      <trkpt lat="45.06721" lon="4.82854">
        <ele>196</ele>
        <time>2021-11-28T12:05:30+01:00</time>
      </trkpt>
      <trkpt lat="45.06711" lon="4.8282">
        <ele>208</ele>
        <time>2021-11-28T12:05:35+01:00</time>
      </trkpt>
      <trkpt lat="45.06692" lon="4.82782">
        <ele>223</ele>
        <time>2021-11-28T12:05:40+01:00</time>
      </trkpt>
      <trkpt lat="45.06686" lon="4.82794">
        <ele>224</ele>
        <time>2021-11-28T12:05:45+01:00</time>
      </trkpt>
      <trkpt lat="45.06671" lon="4.82768">
        <ele>232</ele>
        <time>2021-11-28T12:05:50+01:00</time>
      </trkpt>
      <trkpt lat="45.06671" lon="4.8284">
        <ele>225</ele>
        <time>2021-11-28T12:05:55+01:00</time>
      </trkpt>
      <trkpt lat="45.06598" lon="4.82936">
        <ele>230</ele>
        <time>2021-11-28T12:06:00+01:00</time>
      </trkpt>
      <trkpt lat="45.06594" lon="4.82913">
        <ele>240</ele>
        <time>2021-11-28T12:06:05+01:00</time>
      </trkpt>
      <trkpt lat="45.06634" lon="4.82796">
        <ele>249</ele>
        <time>2021-11-28T12:06:10+01:00</time>
      </trkpt>
      <trkpt lat="45.06623" lon="4.82758">
        <ele>258</ele>
        <time>2021-11-28T12:06:15+01:00</time>
      </trkpt>
      <trkpt lat="45.06589" lon="4.82742">
        <ele>279</ele>
        <time>2021-11-28T12:06:20+01:00</time>
      </trkpt>
      <trkpt lat="45.06587" lon="4.82645">
        <ele>297</ele>
        <time>2021-11-28T12:06:25+01:00</time>
      </trkpt>
      <trkpt lat="45.06624" lon="4.82552">
        <ele>304</ele>
        <time>2021-11-28T12:06:30+01:00</time>
      </trkpt>
      <trkpt lat="45.06667" lon="4.82525">
        <ele>298</ele>
        <time>2021-11-28T12:06:35+01:00</time>
      </trkpt>
      <trkpt lat="45.06614" lon="4.82513">
        <ele>318</ele>
        <time>2021-11-28T12:06:40+01:00</time>
      </trkpt>
      <trkpt lat="45.06582" lon="4.8256">
        <ele>317</ele>
        <time>2021-11-28T12:06:45+01:00</time>
      </trkpt>
      <trkpt lat="45.06566" lon="4.82631">
        <ele>307</ele>
        <time>2021-11-28T12:06:50+01:00</time>
      </trkpt>
      <trkpt lat="45.06523" lon="4.82649">
        <ele>317</ele>
        <time>2021-11-28T12:06:55+01:00</time>
      </trkpt>
      <trkpt lat="45.065" lon="4.82691">
        <ele>317</ele>
        <time>2021-11-28T12:07:00+01:00</time>
      </trkpt>
      <trkpt lat="45.06465" lon="4.82652">
        <ele>324</ele>
        <time>2021-11-28T12:07:05+01:00</time>
      </trkpt>
      <trkpt lat="45.06414" lon="4.82639">
        <ele>326</ele>
        <time>2021-11-28T12:07:10+01:00</time>
      </trkpt>
      <trkpt lat="45.06377" lon="4.82648">
        <ele>325</ele>
        <time>2021-11-28T12:07:15+01:00</time>
      </trkpt>
      <trkpt lat="45.06303" lon="4.82605">
        <ele>329</ele>
        <time>2021-11-28T12:07:20+01:00</time>
      </trkpt>
      <trkpt lat="45.06332" lon="4.82558">
        <ele>335</ele>
        <time>2021-11-28T12:07:25+01:00</time>
      </trkpt>
      <trkpt lat="45.06333" lon="4.82487">
        <ele>342</ele>
        <time>2021-11-28T12:07:30+01:00</time>
      </trkpt>
      <trkpt lat="45.06286" lon="4.82499">
        <ele>336</ele>
        <time>2021-11-28T12:07:35+01:00</time>
      </trkpt>
      <trkpt lat="45.06157" lon="4.82486">
        <ele>327</ele>
        <time>2021-11-28T12:07:40+01:00</time>
      </trkpt>
      <trkpt lat="45.0605" lon="4.8235">
        <ele>346</ele>
        <time>2021-11-28T12:07:45+01:00</time>
      </trkpt>
      <trkpt lat="45.06076" lon="4.82305">
        <ele>348</ele>
        <time>2021-11-28T12:07:50+01:00</time>
      </trkpt>
      <trkpt lat="45.0604" lon="4.82272">
        <ele>350</ele>
        <time>2021-11-28T12:07:55+01:00</time>
      </trkpt>
      <trkpt lat="45.06024" lon="4.82227">
        <ele>351</ele>
        <time>2021-11-28T12:08:00+01:00</time>
      </trkpt>
      <trkpt lat="45.06531" lon="4.78774">
        <ele>156</ele>
        <time>2021-11-28T12:08:05+01:00</time>
      </trkpt>
      <trkpt lat="45.06608" lon="4.78612">
        <ele>151</ele>
        <time>2021-11-28T12:08:10+01:00</time>
      </trkpt>
      <trkpt lat="45.0663" lon="4.78477">
        <ele>157</ele>
        <time>2021-11-28T12:08:15+01:00</time>
      </trkpt>
      <trkpt lat="45.06619" lon="4.782">
        <ele>153</ele>
        <time>2021-11-28T12:08:20+01:00</time>
      </trkpt>
      <trkpt lat="45.06571" lon="4.78148">
        <ele>154</ele>
        <time>2021-11-28T12:08:25+01:00</time>
      </trkpt>
      <trkpt lat="45.06535" lon="4.7814">
        <ele>153</ele>
        <time>2021-11-28T12:08:30+01:00</time>
      </trkpt>
      <trkpt lat="45.06484" lon="4.78156">
        <ele>156</ele>
        <time>2021-11-28T12:08:35+01:00</time>
      </trkpt>
      <trkpt lat="45.06457" lon="4.78185">
        <ele>158</ele>
        <time>2021-11-28T12:08:40+01:00</time>
      </trkpt>
      <trkpt lat="45.06457" lon="4.78228">
        <ele>169</ele>
        <time>2021-11-28T12:08:45+01:00</time>
      </trkpt>
      <trkpt lat="45.06512" lon="4.78255">
        <ele>186</ele>
        <time>2021-11-28T12:08:50+01:00</time>
      </trkpt>
      <trkpt lat="45.06536" lon="4.78275">
        <ele>186</ele>
        <time>2021-11-28T12:08:55+01:00</time>
      </trkpt>
      <trkpt lat="45.06525" lon="4.78282">
        <ele>190</ele>
        <time>2021-11-28T12:09:00+01:00</time>
      </trkpt>
      <trkpt lat="45.0651" lon="4.78288">
        <ele>195</ele>
        <time>2021-11-28T12:09:05+01:00</time>
      </trkpt>
      <trkpt lat="45.0651" lon="4.78324">
        <ele>203</ele>
        <time>2021-11-28T12:09:10+01:00</time>
      </trkpt>
      <trkpt lat="45.06475" lon="4.78338">
        <ele>204</ele>
        <time>2021-11-28T12:09:15+01:00</time>
      </trkpt>
      <trkpt lat="45.06492" lon="4.78413">
        <ele>222</ele>
        <time>2021-11-28T12:09:20+01:00</time>
      </trkpt>
      <trkpt lat="45.06454" lon="4.78449">
        <ele>221</ele>
        <time>2021-11-28T12:09:25+01:00</time>
      </trkpt>
      <trkpt lat="45.06447" lon="4.78527">
        <ele>228</ele>
        <time>2021-11-28T12:09:30+01:00</time>
      </trkpt>
      <trkpt lat="45.06401" lon="4.78628">
        <ele>231</ele>
        <time>2021-11-28T12:09:35+01:00</time>
      </trkpt>
      <trkpt lat="45.06343" lon="4.78744">
        <ele>246</ele>
        <time>2021-11-28T12:09:40+01:00</time>
      </trkpt>
      <trkpt lat="45.06294" lon="4.78806">
        <ele>251</ele>
        <time>2021-11-28T12:09:45+01:00</time>
      </trkpt>
      <trkpt lat="45.0624" lon="4.78861">
        <ele>264</ele>
        <time>2021-11-28T12:09:50+01:00</time>
      </trkpt>
      <trkpt lat="45.06233" lon="4.78895">
        <ele>264</ele>
        <time>2021-11-28T12:09:55+01:00</time>
      </trkpt>
      <trkpt lat="45.06216" lon="4.78892">
        <ele>265</ele>
        <time>2021-11-28T12:10:00+01:00</time>
      </trkpt>
      <trkpt lat="45.062" lon="4.78912">
        <ele>268</ele>
        <time>2021-11-28T12:10:05+01:00</time>
      </trkpt>
      <trkpt lat="45.06172" lon="4.78904">
        <ele>271</ele>
        <time>2021-11-28T12:10:10+01:00</time>
      </trkpt>
      <trkpt lat="45.06145" lon="4.78913">
        <ele>273</ele>
        <time>2021-11-28T12:10:15+01:00</time>
      </trkpt>
      <trkpt lat="45.06106" lon="4.78894">
        <ele>269</ele>
        <time>2021-11-28T12:10:20+01:00</time>
      </trkpt>
      <trkpt lat="45.06084" lon="4.78908">
        <ele>271</ele>
        <time>2021-11-28T12:10:25+01:00</time>
      </trkpt>
      <trkpt lat="45.06044" lon="4.78901">
        <ele>272</ele>
        <time>2021-11-28T12:10:30+01:00</time>
      </trkpt>
      <trkpt lat="45.06005" lon="4.7889">
        <ele>273</ele>
        <time>2021-11-28T12:10:35+01:00</time>
      </trkpt>
      <trkpt lat="45.05957" lon="4.78904">
        <ele>286</ele>
        <time>2021-11-28T12:10:40+01:00</time>
      </trkpt>
      <trkpt lat="45.05853" lon="4.78907">
        <ele>302</ele>
        <time>2021-11-28T12:10:45+01:00</time>
      </trkpt>
      <trkpt lat="45.05818" lon="4.78889">
        <ele>300</ele>
        <time>2021-11-28T12:10:50+01:00</time>
      </trkpt>
      <trkpt lat="45.05796" lon="4.78911">
        <ele>308</ele>
        <time>2021-11-28T12:10:55+01:00</time>
      </trkpt>
      <trkpt lat="45.05755" lon="4.7891">
        <ele>311</ele>
        <time>2021-11-28T12:11:00+01:00</time>
      </trkpt>
      <trkpt lat="45.05724" lon="4.78861">
        <ele>300</ele>
        <time>2021-11-28T12:11:05+01:00</time>
      </trkpt>
      <trkpt lat="45.0569" lon="4.78856">
        <ele>305</ele>
        <time>2021-11-28T12:11:10+01:00</time>
      </trkpt>
      <trkpt lat="45.0565" lon="4.78871">
        <ele>314</ele>
        <time>2021-11-28T12:11:15+01:00</time>
      </trkpt>
      <trkpt lat="45.05658" lon="4.7888">
        <ele>317</ele>
        <time>2021-11-28T12:11:20+01:00</time>
      </trkpt>
      <trkpt lat="45.05634" lon="4.78895">
        <ele>322</ele>
        <time>2021-11-28T12:11:25+01:00</time>
      </trkpt>
      <trkpt lat="45.05566" lon="4.78876">
        <ele>319</ele>
        <time>2021-11-28T12:11:30+01:00</time>
      </trkpt>
      <trkpt lat="45.05532" lon="4.78868">
        <ele>321</ele>
        <time>2021-11-28T12:11:35+01:00</time>
      </trkpt>
      <trkpt lat="45.05511" lon="4.78854">
        <ele>320</ele>
        <time>2021-11-28T12:11:40+01:00</time>
      </trkpt>
      <trkpt lat="45.05478" lon="4.78771">
        <ele>308</ele>
        <time>2021-11-28T12:11:45+01:00</time>
      </trkpt>
      <trkpt lat="45.05473" lon="4.78732">
        <ele>298</ele>
        <time>2021-11-28T12:11:50+01:00</time>
      </trkpt>
      <trkpt lat="45.05435" lon="4.78699">
        <ele>305</ele>
        <time>2021-11-28T12:11:55+01:00</time>
      </trkpt>
      <trkpt lat="45.0543" lon="4.78669">
        <ele>297</ele>
        <time>2021-11-28T12:12:00+01:00</time>
      </trkpt>
      <trkpt lat="45.05394" lon="4.78632">
        <ele>301</ele>
        <time>2021-11-28T12:12:05+01:00</time>
      </trkpt>
      <trkpt lat="45.05413" lon="4.78579">
        <ele>279</ele>
        <time>2021-11-28T12:12:10+01:00</time>
      </trkpt>
      <trkpt lat="45.05355" lon="4.7853">
        <ele>280</ele>
        <time>2021-11-28T12:12:15+01:00</time>
      </trkpt>
      <trkpt lat="45.05323" lon="4.78522">
        <ele>288</ele>
        <time>2021-11-28T12:12:20+01:00</time>
      </trkpt>
      <trkpt lat="45.05297" lon="4.78466">
        <ele>271</ele>
        <time>2021-11-28T12:12:25+01:00</time>
      </trkpt>
      <trkpt lat="45.05264" lon="4.78453">
        <ele>275</ele>
        <time>2021-11-28T12:12:30+01:00</time>
      </trkpt>
      <trkpt lat="45.05246" lon="4.78458">
        <ele>284</ele>
        <time>2021-11-28T12:12:35+01:00</time>
      </trkpt>
      <trkpt lat="45.05205" lon="4.7841">
        <ele>283</ele>
        <time>2021-11-28T12:12:40+01:00</time>
      </trkpt>
      <trkpt lat="45.05219" lon="4.78342">
        <ele>255</ele>
        <time>2021-11-28T12:12:45+01:00</time>
      </trkpt>
      <trkpt lat="45.05145" lon="4.78255">
        <ele>258</ele>
        <time>2021-11-28T12:12:50+01:00</time>
      </trkpt>
      <trkpt lat="45.05111" lon="4.78237">
        <ele>263</ele>
        <time>2021-11-28T12:12:55+01:00</time>
      </trkpt>
      <trkpt lat="45.05083" lon="4.78174">
        <ele>248</ele>
        <time>2021-11-28T12:13:00+01:00</time>
      </trkpt>
      <trkpt lat="45.05052" lon="4.78158">
        <ele>246</ele>
        <time>2021-11-28T12:13:05+01:00</time>
      </trkpt>
      <trkpt lat="45.05" lon="4.78176">
        <ele>257</ele>
        <time>2021-11-28T12:13:10+01:00</time>
      </trkpt>
      <trkpt lat="45.04971" lon="4.7816">
        <ele>263</ele>
        <time>2021-11-28T12:13:15+01:00</time>
      </trkpt>
      <trkpt lat="45.04992" lon="4.78142">
        <ele>256</ele>
        <time>2021-11-28T12:13:20+01:00</time>
      </trkpt>
      <trkpt lat="45.05037" lon="4.78045">
        <ele>242</ele>
        <time>2021-11-28T12:13:25+01:00</time>
      </trkpt>
      <trkpt lat="45.05055" lon="4.78015">
        <ele>234</ele>
        <time>2021-11-28T12:13:30+01:00</time>
      </trkpt>
      <trkpt lat="45.05028" lon="4.7794">
        <ele>238</ele>
        <time>2021-11-28T12:13:35+01:00</time>
      </trkpt>
      <trkpt lat="45.0498" lon="4.77848">
        <ele>238</ele>
        <time>2021-11-28T12:13:40+01:00</time>
      </trkpt>
      <trkpt lat="45.04903" lon="4.77806">
        <ele>256</ele>
        <time>2021-11-28T12:13:45+01:00</time>
      </trkpt>
      <trkpt lat="45.04798" lon="4.77731">
        <ele>272</ele>
        <time>2021-11-28T12:13:50+01:00</time>
      </trkpt>
      <trkpt lat="45.04799" lon="4.77647">
        <ele>266</ele>
        <time>2021-11-28T12:13:55+01:00</time>
      </trkpt>
      <trkpt lat="45.04931" lon="4.77593">
        <ele>265</ele>
        <time>2021-11-28T12:14:00+01:00</time>
      </trkpt>
      <trkpt lat="45.0486" lon="4.77587">
        <ele>266</ele>
        <time>2021-11-28T12:14:05+01:00</time>
      </trkpt>
      <trkpt lat="45.04778" lon="4.77584">
        <ele>271</ele>
        <time>2021-11-28T12:14:10+01:00</time>
      </trkpt>
      <trkpt lat="45.04738" lon="4.77617">
        <ele>281</ele>
        <time>2021-11-28T12:14:15+01:00</time>
      </trkpt>
      <trkpt lat="45.04591" lon="4.77627">
        <ele>317</ele>
        <time>2021-11-28T12:14:20+01:00</time>
      </trkpt>
      <trkpt lat="45.04651" lon="4.77656">
        <ele>315</ele>
        <time>2021-11-28T12:14:25+01:00</time>
      </trkpt>
      <trkpt lat="45.0469" lon="4.77729">
        <ele>320</ele>
        <time>2021-11-28T12:14:30+01:00</time>
      </trkpt>
      <trkpt lat="45.04685" lon="4.77766">
        <ele>329</ele>
        <time>2021-11-28T12:14:35+01:00</time>
      </trkpt>
      <trkpt lat="45.04612" lon="4.77815">
        <ele>353</ele>
        <time>2021-11-28T12:14:40+01:00</time>
      </trkpt>
      <trkpt lat="45.04588" lon="4.77762">
        <ele>357</ele>
        <time>2021-11-28T12:14:45+01:00</time>
      </trkpt>
      <trkpt lat="45.04527" lon="4.77772">
        <ele>372</ele>
        <time>2021-11-28T12:14:50+01:00</time>
      </trkpt>
      <trkpt lat="45.04522" lon="4.77811">
        <ele>377</ele>
        <time>2021-11-28T12:14:55+01:00</time>
      </trkpt>
      <trkpt lat="45.04477" lon="4.77834">
        <ele>392</ele>
        <time>2021-11-28T12:15:00+01:00</time>
      </trkpt>
      <trkpt lat="45.04419" lon="4.77841">
        <ele>404</ele>
        <time>2021-11-28T12:15:05+01:00</time>
      </trkpt>
      <trkpt lat="45.04278" lon="4.77835">
        <ele>424</ele>
        <time>2021-11-28T12:15:10+01:00</time>
      </trkpt>
      <trkpt lat="45.04157" lon="4.77817">
        <ele>429</ele>
        <time>2021-11-28T12:15:15+01:00</time>
      </trkpt>
      <trkpt lat="45.04061" lon="4.77825">
        <ele>437</ele>
        <time>2021-11-28T12:15:20+01:00</time>
      </trkpt>
      <trkpt lat="45.04007" lon="4.77835">
        <ele>445</ele>
        <time>2021-11-28T12:15:25+01:00</time>
      </trkpt>
      <trkpt lat="45.03975" lon="4.77789">
        <ele>442</ele>
        <time>2021-11-28T12:15:30+01:00</time>
      </trkpt>
      <trkpt lat="45.03946" lon="4.77775">
        <ele>444</ele>
        <time>2021-11-28T12:15:35+01:00</time>
      </trkpt>
      <trkpt lat="45.0393" lon="4.77725">
        <ele>439</ele>
        <time>2021-11-28T12:15:40+01:00</time>
      </trkpt>
      <trkpt lat="45.03908" lon="4.77688">
        <ele>437</ele>
        <time>2021-11-28T12:15:45+01:00</time>
      </trkpt>
      <trkpt lat="45.0393" lon="4.77597">
        <ele>423</ele>
        <time>2021-11-28T12:15:50+01:00</time>
      </trkpt>
      <trkpt lat="45.03876" lon="4.77567">
        <ele>423</ele>
        <time>2021-11-28T12:15:55+01:00</time>
      </trkpt>
      <trkpt lat="45.03852" lon="4.77548">
        <ele>421</ele>
        <time>2021-11-28T12:16:00+01:00</time>
      </trkpt>
      <trkpt lat="45.03859" lon="4.77507">
        <ele>415</ele>
        <time>2021-11-28T12:16:05+01:00</time>
      </trkpt>
      <trkpt lat="45.03807" lon="4.7749">
        <ele>417</ele>
        <time>2021-11-28T12:16:10+01:00</time>
      </trkpt>
      <trkpt lat="45.03775" lon="4.77441">
        <ele>417</ele>
        <time>2021-11-28T12:16:15+01:00</time>
      </trkpt>
      <trkpt lat="45.03741" lon="4.77361">
        <ele>415</ele>
        <time>2021-11-28T12:16:20+01:00</time>
      </trkpt>
      <trkpt lat="45.03673" lon="4.77323">
        <ele>418</ele>
        <time>2021-11-28T12:16:25+01:00</time>
      </trkpt>
      <trkpt lat="45.03602" lon="4.77338">
        <ele>424</ele>
        <time>2021-11-28T12:16:30+01:00</time>
      </trkpt>
      <trkpt lat="45.03551" lon="4.77346">
        <ele>426</ele>
        <time>2021-11-28T12:16:35+01:00</time>
      </trkpt>
      <trkpt lat="45.03482" lon="4.77324">
        <ele>424</ele>
        <time>2021-11-28T12:16:40+01:00</time>
      </trkpt>
      <trkpt lat="45.03448" lon="4.77341">
        <ele>426</ele>
        <time>2021-11-28T12:16:45+01:00</time>
      </trkpt>
      <trkpt lat="45.03425" lon="4.77306">
        <ele>422</ele>
        <time>2021-11-28T12:16:50+01:00</time>
      </trkpt>
      <trkpt lat="45.03377" lon="4.77335">
        <ele>428</ele>
        <time>2021-11-28T12:16:55+01:00</time>
      </trkpt>
      <trkpt lat="45.03304" lon="4.77386">
        <ele>439</ele>
        <time>2021-11-28T12:17:00+01:00</time>
      </trkpt>
      <trkpt lat="45.03243" lon="4.77352">
        <ele>442</ele>
        <time>2021-11-28T12:17:05+01:00</time>
      </trkpt>
      <trkpt lat="45.03163" lon="4.7739">
        <ele>450</ele>
        <time>2021-11-28T12:17:10+01:00</time>
      </trkpt>
      <trkpt lat="45.03142" lon="4.77462">
        <ele>456</ele>
        <time>2021-11-28T12:17:15+01:00</time>
      </trkpt>
      <trkpt lat="45.0305" lon="4.77452">
        <ele>456</ele>
        <time>2021-11-28T12:17:20+01:00</time>
      </trkpt>
      <trkpt lat="45.02988" lon="4.7745">
        <ele>458</ele>
        <time>2021-11-28T12:17:25+01:00</time>
      </trkpt>
      <trkpt lat="45.02906" lon="4.77444">
        <ele>460</ele>
        <time>2021-11-28T12:17:30+01:00</time>
      </trkpt>
      <trkpt lat="45.02816" lon="4.77504">
        <ele>461</ele>
        <time>2021-11-28T12:17:35+01:00</time>
      </trkpt>
      <trkpt lat="45.02744" lon="4.77567">
        <ele>460</ele>
        <time>2021-11-28T12:17:40+01:00</time>
      </trkpt>
      <trkpt lat="45.02693" lon="4.77671">
        <ele>459</ele>
        <time>2021-11-28T12:17:45+01:00</time>
      </trkpt>
      <trkpt lat="45.02618" lon="4.77841">
        <ele>452</ele>
        <time>2021-11-28T12:17:50+01:00</time>
      </trkpt>
      <trkpt lat="45.02579" lon="4.77935">
        <ele>448</ele>
        <time>2021-11-28T12:17:55+01:00</time>
      </trkpt>
      <trkpt lat="45.02512" lon="4.77929">
        <ele>444</ele>
        <time>2021-11-28T12:18:00+01:00</time>
      </trkpt>
      <trkpt lat="45.02403" lon="4.77877">
        <ele>434</ele>
        <time>2021-11-28T12:18:05+01:00</time>
      </trkpt>
      <trkpt lat="45.02306" lon="4.77808">
        <ele>431</ele>
        <time>2021-11-28T12:18:10+01:00</time>
      </trkpt>
      <trkpt lat="45.02219" lon="4.77716">
        <ele>426</ele>
        <time>2021-11-28T12:18:15+01:00</time>
      </trkpt>
      <trkpt lat="45.02147" lon="4.77716">
        <ele>424</ele>
        <time>2021-11-28T12:18:20+01:00</time>
      </trkpt>
      <trkpt lat="45.02092" lon="4.77763">
        <ele>430</ele>
        <time>2021-11-28T12:18:25+01:00</time>
      </trkpt>
      <trkpt lat="45.02069" lon="4.77898">
        <ele>430</ele>
        <time>2021-11-28T12:18:30+01:00</time>
      </trkpt>
      <trkpt lat="45.01945" lon="4.77886">
        <ele>440</ele>
        <time>2021-11-28T12:18:35+01:00</time>
      </trkpt>
      <trkpt lat="45.0186" lon="4.77848">
        <ele>448</ele>
        <time>2021-11-28T12:18:40+01:00</time>
      </trkpt>
      <trkpt lat="45.01729" lon="4.77866">
        <ele>449</ele>
        <time>2021-11-28T12:18:45+01:00</time>
      </trkpt>
      <trkpt lat="45.01702" lon="4.77943">
        <ele>451</ele>
        <time>2021-11-28T12:18:50+01:00</time>
      </trkpt>
      <trkpt lat="45.01671" lon="4.77996">
        <ele>453</ele>
        <time>2021-11-28T12:18:55+01:00</time>
      </trkpt>
      <trkpt lat="45.0166" lon="4.78165">
        <ele>457</ele>
        <time>2021-11-28T12:19:00+01:00</time>
      </trkpt>
      <trkpt lat="45.01634" lon="4.78211">
        <ele>460</ele>
        <time>2021-11-28T12:19:05+01:00</time>
      </trkpt>
      <trkpt lat="45.01659" lon="4.78283">
        <ele>465</ele>
        <time>2021-11-28T12:19:10+01:00</time>
      </trkpt>
      <trkpt lat="45.01622" lon="4.78326">
        <ele>467</ele>
        <time>2021-11-28T12:19:15+01:00</time>
      </trkpt>
      <trkpt lat="45.01585" lon="4.78331">
        <ele>467</ele>
        <time>2021-11-28T12:19:20+01:00</time>
      </trkpt>
      <trkpt lat="45.01558" lon="4.78371">
        <ele>468</ele>
        <time>2021-11-28T12:19:25+01:00</time>
      </trkpt>
      <trkpt lat="45.01555" lon="4.784">
        <ele>469</ele>
        <time>2021-11-28T12:19:30+01:00</time>
      </trkpt>
      <trkpt lat="45.0153" lon="4.78422">
        <ele>469</ele>
        <time>2021-11-28T12:19:35+01:00</time>
      </trkpt>
      <trkpt lat="45.01525" lon="4.78451">
        <ele>469</ele>
        <time>2021-11-28T12:19:40+01:00</time>
      </trkpt>
      <trkpt lat="45.01418" lon="4.78623">
        <ele>477</ele>
        <time>2021-11-28T12:19:45+01:00</time>
      </trkpt>
      <trkpt lat="45.0134" lon="4.7869">
        <ele>482</ele>
        <time>2021-11-28T12:19:50+01:00</time>
      </trkpt>
      <trkpt lat="45.01275" lon="4.78584">
        <ele>478</ele>
        <time>2021-11-28T12:19:55+01:00</time>
      </trkpt>
      <trkpt lat="45.01229" lon="4.78552">
        <ele>478</ele>
        <time>2021-11-28T12:20:00+01:00</time>
      </trkpt>
      <trkpt lat="45.01149" lon="4.78412">
        <ele>475</ele>
        <time>2021-11-28T12:20:05+01:00</time>
      </trkpt>
      <trkpt lat="45.01096" lon="4.78343">
        <ele>476</ele>
        <time>2021-11-28T12:20:10+01:00</time>
      </trkpt>
      <trkpt lat="45.01049" lon="4.78331">
        <ele>479</ele>
        <time>2021-11-28T12:20:15+01:00</time>
      </trkpt>
      <trkpt lat="45.00999" lon="4.78302">
        <ele>481</ele>
        <time>2021-11-28T12:20:20+01:00</time>
      </trkpt>
      <trkpt lat="45.01003" lon="4.78273">
        <ele>480</ele>
        <time>2021-11-28T12:20:25+01:00</time>
      </trkpt>
      <trkpt lat="45.00953" lon="4.7825">
        <ele>481</ele>
        <time>2021-11-28T12:20:30+01:00</time>
      </trkpt>
      <trkpt lat="45.00869" lon="4.78306">
        <ele>490</ele>
        <time>2021-11-28T12:20:35+01:00</time>
      </trkpt>
      <trkpt lat="45.00809" lon="4.78313">
        <ele>494</ele>
        <time>2021-11-28T12:20:40+01:00</time>
      </trkpt>
      <trkpt lat="45.00748" lon="4.78314">
        <ele>497</ele>
        <time>2021-11-28T12:20:45+01:00</time>
      </trkpt>
      <trkpt lat="45.0066" lon="4.78366">
        <ele>501</ele>
        <time>2021-11-28T12:20:50+01:00</time>
      </trkpt>
      <trkpt lat="45.00608" lon="4.78434">
        <ele>503</ele>
        <time>2021-11-28T12:20:55+01:00</time>
      </trkpt>
      <trkpt lat="45.00569" lon="4.78563">
        <ele>504</ele>
        <time>2021-11-28T12:21:00+01:00</time>
      </trkpt>
      <trkpt lat="45.00533" lon="4.78689">
        <ele>507</ele>
        <time>2021-11-28T12:21:05+01:00</time>
      </trkpt>
      <trkpt lat="45.00485" lon="4.78701">
        <ele>506</ele>
        <time>2021-11-28T12:21:10+01:00</time>
      </trkpt>
      <trkpt lat="45.00429" lon="4.78781">
        <ele>507</ele>
        <time>2021-11-28T12:21:15+01:00</time>
      </trkpt>
      <trkpt lat="45.0035" lon="4.7884">
        <ele>509</ele>
        <time>2021-11-28T12:21:20+01:00</time>
      </trkpt>
      <trkpt lat="45.00251" lon="4.78913">
        <ele>516</ele>
        <time>2021-11-28T12:21:25+01:00</time>
      </trkpt>
      <trkpt lat="45.00173" lon="4.78939">
        <ele>513</ele>
        <time>2021-11-28T12:21:30+01:00</time>
      </trkpt>
      <trkpt lat="45.00097" lon="4.79005">
        <ele>514</ele>
        <time>2021-11-28T12:21:35+01:00</time>
      </trkpt>
      <trkpt lat="45.00011" lon="4.7906">
        <ele>511</ele>
        <time>2021-11-28T12:21:40+01:00</time>
      </trkpt>
      <trkpt lat="44.99798" lon="4.79049">
        <ele>501</ele>
        <time>2021-11-28T12:21:45+01:00</time>
      </trkpt>
      <trkpt lat="44.9974" lon="4.79023">
        <ele>500</ele>
        <time>2021-11-28T12:21:50+01:00</time>
      </trkpt>
      <trkpt lat="44.99681" lon="4.79043">
        <ele>500</ele>
        <time>2021-11-28T12:21:55+01:00</time>
      </trkpt>
      <trkpt lat="44.99637" lon="4.7913">
        <ele>505</ele>
        <time>2021-11-28T12:22:00+01:00</time>
      </trkpt>
      <trkpt lat="44.99599" lon="4.79221">
        <ele>508</ele>
        <time>2021-11-28T12:22:05+01:00</time>
      </trkpt>
      <trkpt lat="44.99553" lon="4.79281">
        <ele>510</ele>
        <time>2021-11-28T12:22:10+01:00</time>
      </trkpt>
      <trkpt lat="44.99401" lon="4.79351">
        <ele>503</ele>
        <time>2021-11-28T12:22:15+01:00</time>
      </trkpt>
      <trkpt lat="44.99355" lon="4.79437">
        <ele>502</ele>
        <time>2021-11-28T12:22:20+01:00</time>
      </trkpt>
      <trkpt lat="44.99285" lon="4.79497">
        <ele>498</ele>
        <time>2021-11-28T12:22:25+01:00</time>
      </trkpt>
      <trkpt lat="44.99226" lon="4.79491">
        <ele>493</ele>
        <time>2021-11-28T12:22:30+01:00</time>
      </trkpt>
      <trkpt lat="44.99168" lon="4.79456">
        <ele>496</ele>
        <time>2021-11-28T12:22:35+01:00</time>
      </trkpt>
      <trkpt lat="44.99118" lon="4.79456">
        <ele>493</ele>
        <time>2021-11-28T12:22:40+01:00</time>
      </trkpt>
      <trkpt lat="44.99046" lon="4.79427">
        <ele>495</ele>
        <time>2021-11-28T12:22:45+01:00</time>
      </trkpt>
      <trkpt lat="44.98927" lon="4.79402">
        <ele>494</ele>
        <time>2021-11-28T12:22:50+01:00</time>
      </trkpt>
      <trkpt lat="44.98901" lon="4.79376">
        <ele>497</ele>
        <time>2021-11-28T12:22:55+01:00</time>
      </trkpt>
      <trkpt lat="44.98872" lon="4.79384">
        <ele>502</ele>
        <time>2021-11-28T12:23:00+01:00</time>
      </trkpt>
      <trkpt lat="44.98837" lon="4.79378">
        <ele>508</ele>
        <time>2021-11-28T12:23:05+01:00</time>
      </trkpt>
      <trkpt lat="44.98785" lon="4.79408">
        <ele>518</ele>
        <time>2021-11-28T12:23:10+01:00</time>
      </trkpt>
      <trkpt lat="44.98753" lon="4.79445">
        <ele>526</ele>
        <time>2021-11-28T12:23:15+01:00</time>
      </trkpt>
      <trkpt lat="44.98754" lon="4.79503">
        <ele>531</ele>
        <time>2021-11-28T12:23:20+01:00</time>
      </trkpt>
      <trkpt lat="44.98658" lon="4.79577">
        <ele>550</ele>
        <time>2021-11-28T12:23:25+01:00</time>
      </trkpt>
      <trkpt lat="44.98602" lon="4.79631">
        <ele>565</ele>
        <time>2021-11-28T12:23:30+01:00</time>
      </trkpt>
      <trkpt lat="44.98504" lon="4.79734">
        <ele>592</ele>
        <time>2021-11-28T12:23:35+01:00</time>
      </trkpt>
      <trkpt lat="44.9856" lon="4.79755">
        <ele>593</ele>
        <time>2021-11-28T12:23:40+01:00</time>
      </trkpt>
      <trkpt lat="44.98599" lon="4.79823">
        <ele>597</ele>
        <time>2021-11-28T12:23:45+01:00</time>
      </trkpt>
      <trkpt lat="44.98495" lon="4.7981">
        <ele>609</ele>
        <time>2021-11-28T12:23:50+01:00</time>
      </trkpt>
      <trkpt lat="44.98407" lon="4.7982">
        <ele>622</ele>
        <time>2021-11-28T12:23:55+01:00</time>
      </trkpt>
      <trkpt lat="44.98338" lon="4.79809">
        <ele>631</ele>
        <time>2021-11-28T12:24:00+01:00</time>
      </trkpt>
      <trkpt lat="44.98309" lon="4.79764">
        <ele>629</ele>
        <time>2021-11-28T12:24:05+01:00</time>
      </trkpt>
      <trkpt lat="44.98115" lon="4.79746">
        <ele>627</ele>
        <time>2021-11-28T12:24:10+01:00</time>
      </trkpt>
      <trkpt lat="44.98074" lon="4.79717">
        <ele>625</ele>
        <time>2021-11-28T12:24:15+01:00</time>
      </trkpt>
      <trkpt lat="44.97936" lon="4.79675">
        <ele>620</ele>
        <time>2021-11-28T12:24:20+01:00</time>
      </trkpt>
      <trkpt lat="44.97845" lon="4.79746">
        <ele>618</ele>
        <time>2021-11-28T12:24:25+01:00</time>
      </trkpt>
      <trkpt lat="44.97702" lon="4.79858">
        <ele>616</ele>
        <time>2021-11-28T12:24:30+01:00</time>
      </trkpt>
      <trkpt lat="44.9759" lon="4.79884">
        <ele>608</ele>
        <time>2021-11-28T12:24:35+01:00</time>
      </trkpt>
      <trkpt lat="44.97527" lon="4.7993">
        <ele>600</ele>
        <time>2021-11-28T12:24:40+01:00</time>
      </trkpt>
      <trkpt lat="44.97529" lon="4.79991">
        <ele>592</ele>
        <time>2021-11-28T12:24:45+01:00</time>
      </trkpt>
      <trkpt lat="44.97482" lon="4.80031">
        <ele>582</ele>
        <time>2021-11-28T12:24:50+01:00</time>
      </trkpt>
      <trkpt lat="44.97399" lon="4.80005">
        <ele>575</ele>
        <time>2021-11-28T12:24:55+01:00</time>
      </trkpt>
      <trkpt lat="44.97334" lon="4.79994">
        <ele>569</ele>
        <time>2021-11-28T12:25:00+01:00</time>
      </trkpt>
      <trkpt lat="44.97332" lon="4.80049">
        <ele>558</ele>
        <time>2021-11-28T12:25:05+01:00</time>
      </trkpt>
      <trkpt lat="44.97346" lon="4.80077">
        <ele>554</ele>
        <time>2021-11-28T12:25:10+01:00</time>
      </trkpt>
      <trkpt lat="44.97391" lon="4.80089">
        <ele>557</ele>
        <time>2021-11-28T12:25:15+01:00</time>
      </trkpt>
      <trkpt lat="44.97423" lon="4.80184">
        <ele>542</ele>
        <time>2021-11-28T12:25:20+01:00</time>
      </trkpt>
      <trkpt lat="44.97378" lon="4.8019">
        <ele>535</ele>
        <time>2021-11-28T12:25:25+01:00</time>
      </trkpt>
      <trkpt lat="44.97405" lon="4.80267">
        <ele>524</ele>
        <time>2021-11-28T12:25:30+01:00</time>
      </trkpt>
      <trkpt lat="44.97391" lon="4.8038">
        <ele>511</ele>
        <time>2021-11-28T12:25:35+01:00</time>
      </trkpt>
      <trkpt lat="44.97323" lon="4.80357">
        <ele>503</ele>
        <time>2021-11-28T12:25:40+01:00</time>
      </trkpt>
      <trkpt lat="44.97321" lon="4.80305">
        <ele>508</ele>
        <time>2021-11-28T12:25:45+01:00</time>
      </trkpt>
      <trkpt lat="44.97248" lon="4.80299">
        <ele>502</ele>
        <time>2021-11-28T12:25:50+01:00</time>
      </trkpt>
      <trkpt lat="44.97181" lon="4.8025">
        <ele>505</ele>
        <time>2021-11-28T12:25:55+01:00</time>
      </trkpt>
      <trkpt lat="44.97044" lon="4.80242">
        <ele>515</ele>
        <time>2021-11-28T12:26:00+01:00</time>
      </trkpt>
      <trkpt lat="44.9705" lon="4.80293">
        <ele>515</ele>
        <time>2021-11-28T12:26:05+01:00</time>
      </trkpt>
      <trkpt lat="44.97093" lon="4.80386">
        <ele>512</ele>
        <time>2021-11-28T12:26:10+01:00</time>
      </trkpt>
      <trkpt lat="44.97065" lon="4.80409">
        <ele>518</ele>
        <time>2021-11-28T12:26:15+01:00</time>
      </trkpt>
      <trkpt lat="44.97005" lon="4.80417">
        <ele>524</ele>
        <time>2021-11-28T12:26:20+01:00</time>
      </trkpt>
      <trkpt lat="44.96955" lon="4.8053">
        <ele>532</ele>
        <time>2021-11-28T12:26:25+01:00</time>
      </trkpt>
      <trkpt lat="44.96965" lon="4.80607">
        <ele>521</ele>
        <time>2021-11-28T12:26:30+01:00</time>
      </trkpt>
      <trkpt lat="44.96942" lon="4.80656">
        <ele>515</ele>
        <time>2021-11-28T12:26:35+01:00</time>
      </trkpt>
      <trkpt lat="44.96812" lon="4.807">
        <ele>518</ele>
        <time>2021-11-28T12:26:40+01:00</time>
      </trkpt>
      <trkpt lat="44.9684" lon="4.80806">
        <ele>506</ele>
        <time>2021-11-28T12:26:45+01:00</time>
      </trkpt>
      <trkpt lat="44.96887" lon="4.80913">
        <ele>499</ele>
        <time>2021-11-28T12:26:50+01:00</time>
      </trkpt>
      <trkpt lat="44.96842" lon="4.80982">
        <ele>503</ele>
        <time>2021-11-28T12:26:55+01:00</time>
      </trkpt>
      <trkpt lat="44.96885" lon="4.8108">
        <ele>491</ele>
        <time>2021-11-28T12:27:00+01:00</time>
      </trkpt>
      <trkpt lat="44.96798" lon="4.81152">
        <ele>509</ele>
        <time>2021-11-28T12:27:05+01:00</time>
      </trkpt>
      <trkpt lat="44.96802" lon="4.8125">
        <ele>493</ele>
        <time>2021-11-28T12:27:10+01:00</time>
      </trkpt>
      <trkpt lat="44.96728" lon="4.81316">
        <ele>491</ele>
        <time>2021-11-28T12:27:15+01:00</time>
      </trkpt>
      <trkpt lat="44.96681" lon="4.81379">
        <ele>485</ele>
        <time>2021-11-28T12:27:20+01:00</time>
      </trkpt>
      <trkpt lat="44.96608" lon="4.81388">
        <ele>485</ele>
        <time>2021-11-28T12:27:25+01:00</time>
      </trkpt>
      <trkpt lat="44.96472" lon="4.8144">
        <ele>478</ele>
        <time>2021-11-28T12:27:30+01:00</time>
      </trkpt>
      <trkpt lat="44.96386" lon="4.81483">
        <ele>471</ele>
        <time>2021-11-28T12:27:35+01:00</time>
      </trkpt>
      <trkpt lat="44.96351" lon="4.8152">
        <ele>466</ele>
        <time>2021-11-28T12:27:40+01:00</time>
      </trkpt>
      <trkpt lat="44.96262" lon="4.81526">
        <ele>461</ele>
        <time>2021-11-28T12:27:45+01:00</time>
      </trkpt>
      <trkpt lat="44.96117" lon="4.81492">
        <ele>455</ele>
        <time>2021-11-28T12:27:50+01:00</time>
      </trkpt>
      <trkpt lat="44.96048" lon="4.81567">
        <ele>441</ele>
        <time>2021-11-28T12:27:55+01:00</time>
      </trkpt>
      <trkpt lat="44.96019" lon="4.81664">
        <ele>442</ele>
        <time>2021-11-28T12:28:00+01:00</time>
      </trkpt>
      <trkpt lat="44.95946" lon="4.81685">
        <ele>435</ele>
        <time>2021-11-28T12:28:05+01:00</time>
      </trkpt>
      <trkpt lat="44.95927" lon="4.81817">
        <ele>437</ele>
        <time>2021-11-28T12:28:10+01:00</time>
      </trkpt>
      <trkpt lat="44.95948" lon="4.81987">
        <ele>434</ele>
        <time>2021-11-28T12:28:15+01:00</time>
      </trkpt>
      <trkpt lat="44.95956" lon="4.82111">
        <ele>426</ele>
        <time>2021-11-28T12:28:20+01:00</time>
      </trkpt>
      <trkpt lat="44.95956" lon="4.82229">
        <ele>415</ele>
        <time>2021-11-28T12:28:25+01:00</time>
      </trkpt>
      <trkpt lat="44.95915" lon="4.82258">
        <ele>412</ele>
        <time>2021-11-28T12:28:30+01:00</time>
      </trkpt>
      <trkpt lat="44.95858" lon="4.82339">
        <ele>395</ele>
        <time>2021-11-28T12:28:35+01:00</time>
      </trkpt>
      <trkpt lat="44.95807" lon="4.82341">
        <ele>383</ele>
        <time>2021-11-28T12:28:40+01:00</time>
      </trkpt>
      <trkpt lat="44.9584" lon="4.82416">
        <ele>382</ele>
        <time>2021-11-28T12:28:45+01:00</time>
      </trkpt>
      <trkpt lat="44.95701" lon="4.82462">
        <ele>370</ele>
        <time>2021-11-28T12:28:50+01:00</time>
      </trkpt>
      <trkpt lat="44.95593" lon="4.82612">
        <ele>359</ele>
        <time>2021-11-28T12:28:55+01:00</time>
      </trkpt>
      <trkpt lat="44.95691" lon="4.82727">
        <ele>357</ele>
        <time>2021-11-28T12:29:00+01:00</time>
      </trkpt>
      <trkpt lat="44.95746" lon="4.8275">
        <ele>359</ele>
        <time>2021-11-28T12:29:05+01:00</time>
      </trkpt>
      <trkpt lat="44.95671" lon="4.8284">
        <ele>346</ele>
        <time>2021-11-28T12:29:10+01:00</time>
      </trkpt>
      <trkpt lat="44.95636" lon="4.82929">
        <ele>343</ele>
        <time>2021-11-28T12:29:15+01:00</time>
      </trkpt>
      <trkpt lat="44.95671" lon="4.82992">
        <ele>344</ele>
        <time>2021-11-28T12:29:20+01:00</time>
      </trkpt>
      <trkpt lat="44.95752" lon="4.83087">
        <ele>343</ele>
        <time>2021-11-28T12:29:25+01:00</time>
      </trkpt>
      <trkpt lat="44.9575" lon="4.83157">
        <ele>339</ele>
        <time>2021-11-28T12:29:30+01:00</time>
      </trkpt>
      <trkpt lat="44.95715" lon="4.8322">
        <ele>327</ele>
        <time>2021-11-28T12:29:35+01:00</time>
      </trkpt>
      <trkpt lat="44.9573" lon="4.83352">
        <ele>336</ele>
        <time>2021-11-28T12:29:40+01:00</time>
      </trkpt>
      <trkpt lat="44.95697" lon="4.8337">
        <ele>331</ele>
        <time>2021-11-28T12:29:45+01:00</time>
      </trkpt>
      <trkpt lat="44.95628" lon="4.8341">
        <ele>326</ele>
        <time>2021-11-28T12:29:50+01:00</time>
      </trkpt>
      <trkpt lat="44.95583" lon="4.83511">
        <ele>329</ele>
        <time>2021-11-28T12:29:55+01:00</time>
      </trkpt>
      <trkpt lat="44.95436" lon="4.83361">
        <ele>315</ele>
        <time>2021-11-28T12:30:00+01:00</time>
      </trkpt>
      <trkpt lat="44.95377" lon="4.83384">
        <ele>307</ele>
        <time>2021-11-28T12:30:05+01:00</time>
      </trkpt>
      <trkpt lat="44.95334" lon="4.83303">
        <ele>293</ele>
        <time>2021-11-28T12:30:10+01:00</time>
      </trkpt>
      <trkpt lat="44.95304" lon="4.8328">
        <ele>283</ele>
        <time>2021-11-28T12:30:15+01:00</time>
      </trkpt>
      <trkpt lat="44.95269" lon="4.83303">
        <ele>275</ele>
        <time>2021-11-28T12:30:20+01:00</time>
      </trkpt>
      <trkpt lat="44.95273" lon="4.83246">
        <ele>273</ele>
        <time>2021-11-28T12:30:25+01:00</time>
      </trkpt>
      <trkpt lat="44.95224" lon="4.83306">
        <ele>263</ele>
        <time>2021-11-28T12:30:30+01:00</time>
      </trkpt>
      <trkpt lat="44.95228" lon="4.83358">
        <ele>263</ele>
        <time>2021-11-28T12:30:35+01:00</time>
      </trkpt>
      <trkpt lat="44.95112" lon="4.83301">
        <ele>239</ele>
        <time>2021-11-28T12:30:40+01:00</time>
      </trkpt>
      <trkpt lat="44.9501" lon="4.8324">
        <ele>220</ele>
        <time>2021-11-28T12:30:45+01:00</time>
      </trkpt>
      <trkpt lat="44.94957" lon="4.83229">
        <ele>201</ele>
        <time>2021-11-28T12:30:50+01:00</time>
      </trkpt>
      <trkpt lat="44.94943" lon="4.83329">
        <ele>190</ele>
        <time>2021-11-28T12:30:55+01:00</time>
      </trkpt>
      <trkpt lat="44.9491" lon="4.83306">
        <ele>183</ele>
        <time>2021-11-28T12:31:00+01:00</time>
      </trkpt>
      <trkpt lat="44.94969" lon="4.83419">
        <ele>182</ele>
        <time>2021-11-28T12:31:05+01:00</time>
      </trkpt>
      <trkpt lat="44.94947" lon="4.83473">
        <ele>171</ele>
        <time>2021-11-28T12:31:10+01:00</time>
      </trkpt>
      <trkpt lat="44.94971" lon="4.83594">
        <ele>164</ele>
        <time>2021-11-28T12:31:15+01:00</time>
      </trkpt>
      <trkpt lat="44.94924" lon="4.836">
        <ele>155</ele>
        <time>2021-11-28T12:31:20+01:00</time>
      </trkpt>
      <trkpt lat="44.9492" lon="4.83652">
        <ele>151</ele>
        <time>2021-11-28T12:31:25+01:00</time>
      </trkpt>
      <trkpt lat="44.94949" lon="4.83689">
        <ele>153</ele>
        <time>2021-11-28T12:31:30+01:00</time>
      </trkpt>
      <trkpt lat="44.94911" lon="4.83745">
        <ele>147</ele>
        <time>2021-11-28T12:31:35+01:00</time>
      </trkpt>
      <trkpt lat="44.94939" lon="4.83777">
        <ele>147</ele>
        <time>2021-11-28T12:31:40+01:00</time>
      </trkpt>
      <trkpt lat="44.9493" lon="4.83843">
        <ele>145</ele>
        <time>2021-11-28T12:31:45+01:00</time>
      </trkpt>
      <trkpt lat="44.94882" lon="4.83876">
        <ele>148</ele>
        <time>2021-11-28T12:31:50+01:00</time>
      </trkpt>
      <trkpt lat="44.94904" lon="4.83944">
        <ele>144</ele>
        <time>2021-11-28T12:31:55+01:00</time>
      </trkpt>
      <trkpt lat="44.94878" lon="4.84084">
        <ele>143</ele>
        <time>2021-11-28T12:32:00+01:00</time>
      </trkpt>
      <trkpt lat="44.94913" lon="4.8427">
        <ele>136</ele>
        <time>2021-11-28T12:32:05+01:00</time>
      </trkpt>
      <trkpt lat="44.94908" lon="4.84367">
        <ele>134</ele>
        <time>2021-11-28T12:32:10+01:00</time>
      </trkpt>
      <trkpt lat="44.94861" lon="4.84689">
        <ele>129</ele>
        <time>2021-11-28T12:32:15+01:00</time>
      </trkpt>
      <trkpt lat="44.94829" lon="4.84858">
        <ele>130</ele>
        <time>2021-11-28T12:32:20+01:00</time>
      </trkpt>
      <trkpt lat="44.94841" lon="4.84918">
        <ele>129</ele>
        <time>2021-11-28T12:32:25+01:00</time>
      </trkpt>
      <trkpt lat="44.94764" lon="4.85">
        <ele>127</ele>
        <time>2021-11-28T12:32:30+01:00</time>
      </trkpt>
      <trkpt lat="44.94673" lon="4.85133">
        <ele>129</ele>
        <time>2021-11-28T12:32:35+01:00</time>
      </trkpt>
      <trkpt lat="44.94536" lon="4.85266">
        <ele>126</ele>
        <time>2021-11-28T12:32:40+01:00</time>
      </trkpt>
      <trkpt lat="44.94547" lon="4.85448">
        <ele>123</ele>
        <time>2021-11-28T12:32:45+01:00</time>
      </trkpt>
      <trkpt lat="44.94263" lon="4.85972">
        <ele>120</ele>
        <time>2021-11-28T12:32:50+01:00</time>
      </trkpt>
    </trkseg>
  </trk>
  <trk>
    <name><![CDATA[46 - ST PERAY VOULTE SUR RHONE 23.6 KM]]></name>
    <extensions>
      <line xmlns="http://www.topografix.com/GPX/gpx_style/0/2">
        <color>880000</color>
        <width>4</width>
      </line>
    </extensions>
    <trkseg>
      <trkpt lat="44.94276" lon="4.85949">
        <ele>120</ele>
        <time>2021-12-01T12:30:47+01:00</time>
      </trkpt>
      <trkpt lat="44.94229" lon="4.8594">
        <ele>119</ele>
        <time>2021-12-01T12:30:52+01:00</time>
      </trkpt>
      <trkpt lat="44.94222" lon="4.85807">
        <ele>119</ele>
        <time>2021-12-01T12:30:57+01:00</time>
      </trkpt>
      <trkpt lat="44.94151" lon="4.85829">
        <ele>118</ele>
        <time>2021-12-01T12:31:02+01:00</time>
      </trkpt>
      <trkpt lat="44.94007" lon="4.85794">
        <ele>116</ele>
        <time>2021-12-01T12:31:07+01:00</time>
      </trkpt>
      <trkpt lat="44.93846" lon="4.85849">
        <ele>117</ele>
        <time>2021-12-01T12:31:12+01:00</time>
      </trkpt>
      <trkpt lat="44.93631" lon="4.85873">
        <ele>118</ele>
        <time>2021-12-01T12:31:17+01:00</time>
      </trkpt>
      <trkpt lat="44.93482" lon="4.85866">
        <ele>117</ele>
        <time>2021-12-01T12:31:22+01:00</time>
      </trkpt>
      <trkpt lat="44.93331" lon="4.8596">
        <ele>116</ele>
        <time>2021-12-01T12:31:27+01:00</time>
      </trkpt>
      <trkpt lat="44.93222" lon="4.8597">
        <ele>115</ele>
        <time>2021-12-01T12:31:32+01:00</time>
      </trkpt>
      <trkpt lat="44.93106" lon="4.85929">
        <ele>114</ele>
        <time>2021-12-01T12:31:37+01:00</time>
      </trkpt>
      <trkpt lat="44.92943" lon="4.85943">
        <ele>111</ele>
        <time>2021-12-01T12:31:42+01:00</time>
      </trkpt>
      <trkpt lat="44.9239" lon="4.8599">
        <ele>110</ele>
        <time>2021-12-01T12:31:47+01:00</time>
      </trkpt>
      <trkpt lat="44.92323" lon="4.85936">
        <ele>110</ele>
        <time>2021-12-01T12:31:52+01:00</time>
      </trkpt>
      <trkpt lat="44.92181" lon="4.85996">
        <ele>111</ele>
        <time>2021-12-01T12:31:57+01:00</time>
      </trkpt>
      <trkpt lat="44.92009" lon="4.85936">
        <ele>112</ele>
        <time>2021-12-01T12:32:02+01:00</time>
      </trkpt>
      <trkpt lat="44.91843" lon="4.85899">
        <ele>110</ele>
        <time>2021-12-01T12:32:07+01:00</time>
      </trkpt>
      <trkpt lat="44.91782" lon="4.85809">
        <ele>111</ele>
        <time>2021-12-01T12:32:12+01:00</time>
      </trkpt>
      <trkpt lat="44.91609" lon="4.85702">
        <ele>111</ele>
        <time>2021-12-01T12:32:17+01:00</time>
      </trkpt>
      <trkpt lat="44.91614" lon="4.85385">
        <ele>131</ele>
        <time>2021-12-01T12:32:22+01:00</time>
      </trkpt>
      <trkpt lat="44.91715" lon="4.85228">
        <ele>158</ele>
        <time>2021-12-01T12:32:27+01:00</time>
      </trkpt>
      <trkpt lat="44.91682" lon="4.85164">
        <ele>166</ele>
        <time>2021-12-01T12:32:32+01:00</time>
      </trkpt>
      <trkpt lat="44.91557" lon="4.85261">
        <ele>170</ele>
        <time>2021-12-01T12:32:37+01:00</time>
      </trkpt>
      <trkpt lat="44.91491" lon="4.85215">
        <ele>192</ele>
        <time>2021-12-01T12:32:42+01:00</time>
      </trkpt>
      <trkpt lat="44.91368" lon="4.85158">
        <ele>209</ele>
        <time>2021-12-01T12:32:47+01:00</time>
      </trkpt>
      <trkpt lat="44.91273" lon="4.85191">
        <ele>201</ele>
        <time>2021-12-01T12:32:52+01:00</time>
      </trkpt>
      <trkpt lat="44.91141" lon="4.85141">
        <ele>216</ele>
        <time>2021-12-01T12:32:57+01:00</time>
      </trkpt>
      <trkpt lat="44.91025" lon="4.84924">
        <ele>246</ele>
        <time>2021-12-01T12:33:02+01:00</time>
      </trkpt>
      <trkpt lat="44.90944" lon="4.84867">
        <ele>247</ele>
        <time>2021-12-01T12:33:07+01:00</time>
      </trkpt>
      <trkpt lat="44.90871" lon="4.84727">
        <ele>258</ele>
        <time>2021-12-01T12:33:12+01:00</time>
      </trkpt>
      <trkpt lat="44.90743" lon="4.8452">
        <ele>267</ele>
        <time>2021-12-01T12:33:17+01:00</time>
      </trkpt>
      <trkpt lat="44.90665" lon="4.84369">
        <ele>271</ele>
        <time>2021-12-01T12:33:22+01:00</time>
      </trkpt>
      <trkpt lat="44.90639" lon="4.84219">
        <ele>270</ele>
        <time>2021-12-01T12:33:27+01:00</time>
      </trkpt>
      <trkpt lat="44.9062" lon="4.84049">
        <ele>275</ele>
        <time>2021-12-01T12:33:32+01:00</time>
      </trkpt>
      <trkpt lat="44.90525" lon="4.83798">
        <ele>278</ele>
        <time>2021-12-01T12:33:37+01:00</time>
      </trkpt>
      <trkpt lat="44.90443" lon="4.83541">
        <ele>267</ele>
        <time>2021-12-01T12:33:42+01:00</time>
      </trkpt>
      <trkpt lat="44.90386" lon="4.83341">
        <ele>249</ele>
        <time>2021-12-01T12:33:47+01:00</time>
      </trkpt>
      <trkpt lat="44.90369" lon="4.83267">
        <ele>240</ele>
        <time>2021-12-01T12:33:52+01:00</time>
      </trkpt>
      <trkpt lat="44.90272" lon="4.83177">
        <ele>230</ele>
        <time>2021-12-01T12:33:57+01:00</time>
      </trkpt>
      <trkpt lat="44.90237" lon="4.83087">
        <ele>224</ele>
        <time>2021-12-01T12:34:02+01:00</time>
      </trkpt>
      <trkpt lat="44.9014" lon="4.8298">
        <ele>217</ele>
        <time>2021-12-01T12:34:07+01:00</time>
      </trkpt>
      <trkpt lat="44.90078" lon="4.82839">
        <ele>211</ele>
        <time>2021-12-01T12:34:12+01:00</time>
      </trkpt>
      <trkpt lat="44.89856" lon="4.82646">
        <ele>206</ele>
        <time>2021-12-01T12:34:17+01:00</time>
      </trkpt>
      <trkpt lat="44.89818" lon="4.82579">
        <ele>206</ele>
        <time>2021-12-01T12:34:22+01:00</time>
      </trkpt>
      <trkpt lat="44.89801" lon="4.82315">
        <ele>210</ele>
        <time>2021-12-01T12:34:27+01:00</time>
      </trkpt>
      <trkpt lat="44.89754" lon="4.82181">
        <ele>215</ele>
        <time>2021-12-01T12:34:32+01:00</time>
      </trkpt>
      <trkpt lat="44.89766" lon="4.82031">
        <ele>222</ele>
        <time>2021-12-01T12:34:37+01:00</time>
      </trkpt>
      <trkpt lat="44.89707" lon="4.82001">
        <ele>225</ele>
        <time>2021-12-01T12:34:42+01:00</time>
      </trkpt>
      <trkpt lat="44.89688" lon="4.81924">
        <ele>235</ele>
        <time>2021-12-01T12:34:47+01:00</time>
      </trkpt>
      <trkpt lat="44.89652" lon="4.81894">
        <ele>244</ele>
        <time>2021-12-01T12:34:52+01:00</time>
      </trkpt>
      <trkpt lat="44.89709" lon="4.81814">
        <ele>256</ele>
        <time>2021-12-01T12:34:57+01:00</time>
      </trkpt>
      <trkpt lat="44.8974" lon="4.81737">
        <ele>264</ele>
        <time>2021-12-01T12:35:02+01:00</time>
      </trkpt>
      <trkpt lat="44.89773" lon="4.81656">
        <ele>264</ele>
        <time>2021-12-01T12:35:07+01:00</time>
      </trkpt>
      <trkpt lat="44.89765" lon="4.81613">
        <ele>264</ele>
        <time>2021-12-01T12:35:12+01:00</time>
      </trkpt>
      <trkpt lat="44.89726" lon="4.81608">
        <ele>273</ele>
        <time>2021-12-01T12:35:17+01:00</time>
      </trkpt>
      <trkpt lat="44.89665" lon="4.81606">
        <ele>285</ele>
        <time>2021-12-01T12:35:22+01:00</time>
      </trkpt>
      <trkpt lat="44.89668" lon="4.81553">
        <ele>287</ele>
        <time>2021-12-01T12:35:27+01:00</time>
      </trkpt>
      <trkpt lat="44.89672" lon="4.81496">
        <ele>287</ele>
        <time>2021-12-01T12:35:32+01:00</time>
      </trkpt>
      <trkpt lat="44.89648" lon="4.81447">
        <ele>290</ele>
        <time>2021-12-01T12:35:37+01:00</time>
      </trkpt>
      <trkpt lat="44.89627" lon="4.81377">
        <ele>294</ele>
        <time>2021-12-01T12:35:42+01:00</time>
      </trkpt>
      <trkpt lat="44.89567" lon="4.81339">
        <ele>314</ele>
        <time>2021-12-01T12:35:47+01:00</time>
      </trkpt>
      <trkpt lat="44.89548" lon="4.81249">
        <ele>318</ele>
        <time>2021-12-01T12:35:52+01:00</time>
      </trkpt>
      <trkpt lat="44.89375" lon="4.8098">
        <ele>337</ele>
        <time>2021-12-01T12:35:57+01:00</time>
      </trkpt>
      <trkpt lat="44.89349" lon="4.80852">
        <ele>349</ele>
        <time>2021-12-01T12:36:02+01:00</time>
      </trkpt>
      <trkpt lat="44.89262" lon="4.80682">
        <ele>368</ele>
        <time>2021-12-01T12:36:07+01:00</time>
      </trkpt>
      <trkpt lat="44.89246" lon="4.80561">
        <ele>374</ele>
        <time>2021-12-01T12:36:12+01:00</time>
      </trkpt>
      <trkpt lat="44.89215" lon="4.80453">
        <ele>380</ele>
        <time>2021-12-01T12:36:17+01:00</time>
      </trkpt>
      <trkpt lat="44.89216" lon="4.80381">
        <ele>373</ele>
        <time>2021-12-01T12:36:22+01:00</time>
      </trkpt>
      <trkpt lat="44.89157" lon="4.80282">
        <ele>378</ele>
        <time>2021-12-01T12:36:27+01:00</time>
      </trkpt>
      <trkpt lat="44.89113" lon="4.80263">
        <ele>390</ele>
        <time>2021-12-01T12:36:32+01:00</time>
      </trkpt>
      <trkpt lat="44.89087" lon="4.80175">
        <ele>393</ele>
        <time>2021-12-01T12:36:37+01:00</time>
      </trkpt>
      <trkpt lat="44.89114" lon="4.79946">
        <ele>380</ele>
        <time>2021-12-01T12:36:42+01:00</time>
      </trkpt>
      <trkpt lat="44.89121" lon="4.79859">
        <ele>373</ele>
        <time>2021-12-01T12:36:47+01:00</time>
      </trkpt>
      <trkpt lat="44.89093" lon="4.79745">
        <ele>364</ele>
        <time>2021-12-01T12:36:52+01:00</time>
      </trkpt>
      <trkpt lat="44.89021" lon="4.79545">
        <ele>363</ele>
        <time>2021-12-01T12:36:57+01:00</time>
      </trkpt>
      <trkpt lat="44.88945" lon="4.79432">
        <ele>356</ele>
        <time>2021-12-01T12:37:02+01:00</time>
      </trkpt>
      <trkpt lat="44.88881" lon="4.79306">
        <ele>356</ele>
        <time>2021-12-01T12:37:07+01:00</time>
      </trkpt>
      <trkpt lat="44.8883" lon="4.79259">
        <ele>347</ele>
        <time>2021-12-01T12:37:12+01:00</time>
      </trkpt>
      <trkpt lat="44.88776" lon="4.79156">
        <ele>345</ele>
        <time>2021-12-01T12:37:17+01:00</time>
      </trkpt>
      <trkpt lat="44.88778" lon="4.79127">
        <ele>347</ele>
        <time>2021-12-01T12:37:22+01:00</time>
      </trkpt>
      <trkpt lat="44.88745" lon="4.79107">
        <ele>342</ele>
        <time>2021-12-01T12:37:27+01:00</time>
      </trkpt>
      <trkpt lat="44.88699" lon="4.79043">
        <ele>343</ele>
        <time>2021-12-01T12:37:32+01:00</time>
      </trkpt>
      <trkpt lat="44.88658" lon="4.789">
        <ele>344</ele>
        <time>2021-12-01T12:37:37+01:00</time>
      </trkpt>
      <trkpt lat="44.88655" lon="4.78763">
        <ele>353</ele>
        <time>2021-12-01T12:37:42+01:00</time>
      </trkpt>
      <trkpt lat="44.88547" lon="4.78566">
        <ele>354</ele>
        <time>2021-12-01T12:37:47+01:00</time>
      </trkpt>
      <trkpt lat="44.88499" lon="4.78517">
        <ele>348</ele>
        <time>2021-12-01T12:37:52+01:00</time>
      </trkpt>
      <trkpt lat="44.88463" lon="4.7844">
        <ele>353</ele>
        <time>2021-12-01T12:37:57+01:00</time>
      </trkpt>
      <trkpt lat="44.88366" lon="4.78455">
        <ele>354</ele>
        <time>2021-12-01T12:38:02+01:00</time>
      </trkpt>
      <trkpt lat="44.88372" lon="4.78497">
        <ele>355</ele>
        <time>2021-12-01T12:38:07+01:00</time>
      </trkpt>
      <trkpt lat="44.88465" lon="4.786">
        <ele>357</ele>
        <time>2021-12-01T12:38:12+01:00</time>
      </trkpt>
      <trkpt lat="44.88447" lon="4.78626">
        <ele>366</ele>
        <time>2021-12-01T12:38:17+01:00</time>
      </trkpt>
      <trkpt lat="44.88355" lon="4.78503">
        <ele>357</ele>
        <time>2021-12-01T12:38:22+01:00</time>
      </trkpt>
      <trkpt lat="44.8824" lon="4.78546">
        <ele>378</ele>
        <time>2021-12-01T12:38:27+01:00</time>
      </trkpt>
      <trkpt lat="44.88211" lon="4.78488">
        <ele>371</ele>
        <time>2021-12-01T12:38:32+01:00</time>
      </trkpt>
      <trkpt lat="44.88127" lon="4.78448">
        <ele>385</ele>
        <time>2021-12-01T12:38:37+01:00</time>
      </trkpt>
      <trkpt lat="44.8812" lon="4.7839">
        <ele>381</ele>
        <time>2021-12-01T12:38:42+01:00</time>
      </trkpt>
      <trkpt lat="44.88049" lon="4.78299">
        <ele>389</ele>
        <time>2021-12-01T12:38:47+01:00</time>
      </trkpt>
      <trkpt lat="44.87928" lon="4.78232">
        <ele>409</ele>
        <time>2021-12-01T12:38:52+01:00</time>
      </trkpt>
      <trkpt lat="44.8797" lon="4.78154">
        <ele>396</ele>
        <time>2021-12-01T12:38:57+01:00</time>
      </trkpt>
      <trkpt lat="44.87904" lon="4.7806">
        <ele>406</ele>
        <time>2021-12-01T12:39:02+01:00</time>
      </trkpt>
      <trkpt lat="44.87862" lon="4.78015">
        <ele>413</ele>
        <time>2021-12-01T12:39:07+01:00</time>
      </trkpt>
      <trkpt lat="44.87864" lon="4.77952">
        <ele>406</ele>
        <time>2021-12-01T12:39:12+01:00</time>
      </trkpt>
      <trkpt lat="44.87827" lon="4.77927">
        <ele>414</ele>
        <time>2021-12-01T12:39:17+01:00</time>
      </trkpt>
      <trkpt lat="44.87784" lon="4.77842">
        <ele>419</ele>
        <time>2021-12-01T12:39:22+01:00</time>
      </trkpt>
      <trkpt lat="44.87796" lon="4.77794">
        <ele>412</ele>
        <time>2021-12-01T12:39:27+01:00</time>
      </trkpt>
      <trkpt lat="44.87754" lon="4.77754">
        <ele>423</ele>
        <time>2021-12-01T12:39:32+01:00</time>
      </trkpt>
      <trkpt lat="44.87747" lon="4.77568">
        <ele>421</ele>
        <time>2021-12-01T12:39:37+01:00</time>
      </trkpt>
      <trkpt lat="44.87676" lon="4.77483">
        <ele>423</ele>
        <time>2021-12-01T12:39:42+01:00</time>
      </trkpt>
      <trkpt lat="44.87648" lon="4.77564">
        <ele>426</ele>
        <time>2021-12-01T12:39:47+01:00</time>
      </trkpt>
      <trkpt lat="44.8761" lon="4.77642">
        <ele>431</ele>
        <time>2021-12-01T12:39:52+01:00</time>
      </trkpt>
      <trkpt lat="44.87536" lon="4.77564">
        <ele>416</ele>
        <time>2021-12-01T12:39:57+01:00</time>
      </trkpt>
      <trkpt lat="44.87478" lon="4.77514">
        <ele>406</ele>
        <time>2021-12-01T12:40:02+01:00</time>
      </trkpt>
      <trkpt lat="44.87407" lon="4.77504">
        <ele>396</ele>
        <time>2021-12-01T12:40:07+01:00</time>
      </trkpt>
      <trkpt lat="44.87359" lon="4.77534">
        <ele>384</ele>
        <time>2021-12-01T12:40:12+01:00</time>
      </trkpt>
      <trkpt lat="44.8733" lon="4.77571">
        <ele>379</ele>
        <time>2021-12-01T12:40:17+01:00</time>
      </trkpt>
      <trkpt lat="44.87243" lon="4.77617">
        <ele>369</ele>
        <time>2021-12-01T12:40:22+01:00</time>
      </trkpt>
      <trkpt lat="44.87266" lon="4.77539">
        <ele>369</ele>
        <time>2021-12-01T12:40:27+01:00</time>
      </trkpt>
      <trkpt lat="44.87192" lon="4.77554">
        <ele>367</ele>
        <time>2021-12-01T12:40:32+01:00</time>
      </trkpt>
      <trkpt lat="44.87182" lon="4.77473">
        <ele>385</ele>
        <time>2021-12-01T12:40:37+01:00</time>
      </trkpt>
      <trkpt lat="44.87095" lon="4.77435">
        <ele>409</ele>
        <time>2021-12-01T12:40:42+01:00</time>
      </trkpt>
      <trkpt lat="44.86976" lon="4.77426">
        <ele>427</ele>
        <time>2021-12-01T12:40:47+01:00</time>
      </trkpt>
      <trkpt lat="44.86905" lon="4.77355">
        <ele>438</ele>
        <time>2021-12-01T12:40:52+01:00</time>
      </trkpt>
      <trkpt lat="44.8695" lon="4.7729">
        <ele>446</ele>
        <time>2021-12-01T12:40:57+01:00</time>
      </trkpt>
      <trkpt lat="44.86902" lon="4.77167">
        <ele>444</ele>
        <time>2021-12-01T12:41:02+01:00</time>
      </trkpt>
      <trkpt lat="44.86839" lon="4.76953">
        <ele>442</ele>
        <time>2021-12-01T12:41:07+01:00</time>
      </trkpt>
      <trkpt lat="44.86839" lon="4.76891">
        <ele>440</ele>
        <time>2021-12-01T12:41:12+01:00</time>
      </trkpt>
      <trkpt lat="44.86809" lon="4.76735">
        <ele>430</ele>
        <time>2021-12-01T12:41:17+01:00</time>
      </trkpt>
      <trkpt lat="44.86789" lon="4.76532">
        <ele>453</ele>
        <time>2021-12-01T12:41:22+01:00</time>
      </trkpt>
      <trkpt lat="44.86755" lon="4.76489">
        <ele>454</ele>
        <time>2021-12-01T12:41:27+01:00</time>
      </trkpt>
      <trkpt lat="44.86723" lon="4.76371">
        <ele>467</ele>
        <time>2021-12-01T12:41:32+01:00</time>
      </trkpt>
      <trkpt lat="44.86736" lon="4.76348">
        <ele>468</ele>
        <time>2021-12-01T12:41:37+01:00</time>
      </trkpt>
      <trkpt lat="44.86774" lon="4.76371">
        <ele>465</ele>
        <time>2021-12-01T12:41:42+01:00</time>
      </trkpt>
      <trkpt lat="44.86763" lon="4.76339">
        <ele>467</ele>
        <time>2021-12-01T12:41:47+01:00</time>
      </trkpt>
      <trkpt lat="44.86707" lon="4.76241">
        <ele>471</ele>
        <time>2021-12-01T12:41:52+01:00</time>
      </trkpt>
      <trkpt lat="44.86664" lon="4.76216">
        <ele>478</ele>
        <time>2021-12-01T12:41:57+01:00</time>
      </trkpt>
      <trkpt lat="44.86606" lon="4.76088">
        <ele>491</ele>
        <time>2021-12-01T12:42:02+01:00</time>
      </trkpt>
      <trkpt lat="44.86551" lon="4.76085">
        <ele>493</ele>
        <time>2021-12-01T12:42:07+01:00</time>
      </trkpt>
      <trkpt lat="44.86517" lon="4.76005">
        <ele>502</ele>
        <time>2021-12-01T12:42:12+01:00</time>
      </trkpt>
      <trkpt lat="44.86472" lon="4.75942">
        <ele>501</ele>
        <time>2021-12-01T12:42:17+01:00</time>
      </trkpt>
      <trkpt lat="44.86411" lon="4.757">
        <ele>516</ele>
        <time>2021-12-01T12:42:22+01:00</time>
      </trkpt>
      <trkpt lat="44.86349" lon="4.75603">
        <ele>529</ele>
        <time>2021-12-01T12:42:27+01:00</time>
      </trkpt>
      <trkpt lat="44.86312" lon="4.75643">
        <ele>529</ele>
        <time>2021-12-01T12:42:32+01:00</time>
      </trkpt>
      <trkpt lat="44.86255" lon="4.7563">
        <ele>530</ele>
        <time>2021-12-01T12:42:37+01:00</time>
      </trkpt>
      <trkpt lat="44.86187" lon="4.75532">
        <ele>537</ele>
        <time>2021-12-01T12:42:42+01:00</time>
      </trkpt>
      <trkpt lat="44.86056" lon="4.75435">
        <ele>532</ele>
        <time>2021-12-01T12:42:47+01:00</time>
      </trkpt>
      <trkpt lat="44.85994" lon="4.75324">
        <ele>543</ele>
        <time>2021-12-01T12:42:52+01:00</time>
      </trkpt>
      <trkpt lat="44.85919" lon="4.75262">
        <ele>546</ele>
        <time>2021-12-01T12:42:57+01:00</time>
      </trkpt>
      <trkpt lat="44.85824" lon="4.75223">
        <ele>549</ele>
        <time>2021-12-01T12:43:02+01:00</time>
      </trkpt>
      <trkpt lat="44.85805" lon="4.75336">
        <ele>538</ele>
        <time>2021-12-01T12:43:07+01:00</time>
      </trkpt>
      <trkpt lat="44.85811" lon="4.75422">
        <ele>536</ele>
        <time>2021-12-01T12:43:12+01:00</time>
      </trkpt>
      <trkpt lat="44.85778" lon="4.75484">
        <ele>538</ele>
        <time>2021-12-01T12:43:17+01:00</time>
      </trkpt>
      <trkpt lat="44.85764" lon="4.75522">
        <ele>543</ele>
        <time>2021-12-01T12:43:22+01:00</time>
      </trkpt>
      <trkpt lat="44.85778" lon="4.75625">
        <ele>548</ele>
        <time>2021-12-01T12:43:27+01:00</time>
      </trkpt>
      <trkpt lat="44.85749" lon="4.75696">
        <ele>555</ele>
        <time>2021-12-01T12:43:32+01:00</time>
      </trkpt>
      <trkpt lat="44.85649" lon="4.75781">
        <ele>571</ele>
        <time>2021-12-01T12:43:37+01:00</time>
      </trkpt>
      <trkpt lat="44.85629" lon="4.75881">
        <ele>578</ele>
        <time>2021-12-01T12:43:42+01:00</time>
      </trkpt>
      <trkpt lat="44.85595" lon="4.75922">
        <ele>586</ele>
        <time>2021-12-01T12:43:47+01:00</time>
      </trkpt>
      <trkpt lat="44.85556" lon="4.75929">
        <ele>583</ele>
        <time>2021-12-01T12:43:52+01:00</time>
      </trkpt>
      <trkpt lat="44.85504" lon="4.76044">
        <ele>583</ele>
        <time>2021-12-01T12:43:57+01:00</time>
      </trkpt>
      <trkpt lat="44.85451" lon="4.76127">
        <ele>579</ele>
        <time>2021-12-01T12:44:02+01:00</time>
      </trkpt>
      <trkpt lat="44.85388" lon="4.76248">
        <ele>583</ele>
        <time>2021-12-01T12:44:07+01:00</time>
      </trkpt>
      <trkpt lat="44.85308" lon="4.7629">
        <ele>571</ele>
        <time>2021-12-01T12:44:12+01:00</time>
      </trkpt>
      <trkpt lat="44.85247" lon="4.76336">
        <ele>564</ele>
        <time>2021-12-01T12:44:17+01:00</time>
      </trkpt>
      <trkpt lat="44.85198" lon="4.76399">
        <ele>555</ele>
        <time>2021-12-01T12:44:22+01:00</time>
      </trkpt>
      <trkpt lat="44.85143" lon="4.76457">
        <ele>545</ele>
        <time>2021-12-01T12:44:27+01:00</time>
      </trkpt>
      <trkpt lat="44.85012" lon="4.76495">
        <ele>536</ele>
        <time>2021-12-01T12:44:32+01:00</time>
      </trkpt>
      <trkpt lat="44.84933" lon="4.76483">
        <ele>531</ele>
        <time>2021-12-01T12:44:37+01:00</time>
      </trkpt>
      <trkpt lat="44.8481" lon="4.76377">
        <ele>508</ele>
        <time>2021-12-01T12:44:42+01:00</time>
      </trkpt>
      <trkpt lat="44.84716" lon="4.76321">
        <ele>494</ele>
        <time>2021-12-01T12:44:47+01:00</time>
      </trkpt>
      <trkpt lat="44.84656" lon="4.76248">
        <ele>476</ele>
        <time>2021-12-01T12:44:52+01:00</time>
      </trkpt>
      <trkpt lat="44.8461" lon="4.76186">
        <ele>463</ele>
        <time>2021-12-01T12:44:57+01:00</time>
      </trkpt>
      <trkpt lat="44.84581" lon="4.76092">
        <ele>454</ele>
        <time>2021-12-01T12:45:02+01:00</time>
      </trkpt>
      <trkpt lat="44.84518" lon="4.7606">
        <ele>449</ele>
        <time>2021-12-01T12:45:07+01:00</time>
      </trkpt>
      <trkpt lat="44.84499" lon="4.76114">
        <ele>447</ele>
        <time>2021-12-01T12:45:12+01:00</time>
      </trkpt>
      <trkpt lat="44.84465" lon="4.76078">
        <ele>446</ele>
        <time>2021-12-01T12:45:17+01:00</time>
      </trkpt>
      <trkpt lat="44.84381" lon="4.76055">
        <ele>435</ele>
        <time>2021-12-01T12:45:22+01:00</time>
      </trkpt>
      <trkpt lat="44.84339" lon="4.76027">
        <ele>430</ele>
        <time>2021-12-01T12:45:27+01:00</time>
      </trkpt>
      <trkpt lat="44.84262" lon="4.75985">
        <ele>419</ele>
        <time>2021-12-01T12:45:32+01:00</time>
      </trkpt>
      <trkpt lat="44.84155" lon="4.75989">
        <ele>411</ele>
        <time>2021-12-01T12:45:37+01:00</time>
      </trkpt>
      <trkpt lat="44.84035" lon="4.76001">
        <ele>400</ele>
        <time>2021-12-01T12:45:42+01:00</time>
      </trkpt>
      <trkpt lat="44.83907" lon="4.76015">
        <ele>379</ele>
        <time>2021-12-01T12:45:47+01:00</time>
      </trkpt>
      <trkpt lat="44.83839" lon="4.76065">
        <ele>359</ele>
        <time>2021-12-01T12:45:52+01:00</time>
      </trkpt>
      <trkpt lat="44.83768" lon="4.76082">
        <ele>344</ele>
        <time>2021-12-01T12:45:57+01:00</time>
      </trkpt>
      <trkpt lat="44.83723" lon="4.76092">
        <ele>332</ele>
        <time>2021-12-01T12:46:02+01:00</time>
      </trkpt>
      <trkpt lat="44.83656" lon="4.76061">
        <ele>321</ele>
        <time>2021-12-01T12:46:07+01:00</time>
      </trkpt>
      <trkpt lat="44.83581" lon="4.76029">
        <ele>306</ele>
        <time>2021-12-01T12:46:12+01:00</time>
      </trkpt>
      <trkpt lat="44.83528" lon="4.75995">
        <ele>299</ele>
        <time>2021-12-01T12:46:17+01:00</time>
      </trkpt>
      <trkpt lat="44.8347" lon="4.75972">
        <ele>283</ele>
        <time>2021-12-01T12:46:22+01:00</time>
      </trkpt>
      <trkpt lat="44.83425" lon="4.75966">
        <ele>271</ele>
        <time>2021-12-01T12:46:27+01:00</time>
      </trkpt>
      <trkpt lat="44.83397" lon="4.75952">
        <ele>261</ele>
        <time>2021-12-01T12:46:32+01:00</time>
      </trkpt>
      <trkpt lat="44.8338" lon="4.75969">
        <ele>257</ele>
        <time>2021-12-01T12:46:37+01:00</time>
      </trkpt>
      <trkpt lat="44.83341" lon="4.75991">
        <ele>245</ele>
        <time>2021-12-01T12:46:42+01:00</time>
      </trkpt>
      <trkpt lat="44.83293" lon="4.75984">
        <ele>228</ele>
        <time>2021-12-01T12:46:47+01:00</time>
      </trkpt>
      <trkpt lat="44.83256" lon="4.75996">
        <ele>217</ele>
        <time>2021-12-01T12:46:52+01:00</time>
      </trkpt>
      <trkpt lat="44.83254" lon="4.7604">
        <ele>212</ele>
        <time>2021-12-01T12:46:57+01:00</time>
      </trkpt>
      <trkpt lat="44.83303" lon="4.76096">
        <ele>224</ele>
        <time>2021-12-01T12:47:02+01:00</time>
      </trkpt>
      <trkpt lat="44.83261" lon="4.76136">
        <ele>215</ele>
        <time>2021-12-01T12:47:07+01:00</time>
      </trkpt>
      <trkpt lat="44.83199" lon="4.76153">
        <ele>199</ele>
        <time>2021-12-01T12:47:12+01:00</time>
      </trkpt>
      <trkpt lat="44.83103" lon="4.76155">
        <ele>173</ele>
        <time>2021-12-01T12:47:17+01:00</time>
      </trkpt>
      <trkpt lat="44.83109" lon="4.76275">
        <ele>176</ele>
        <time>2021-12-01T12:47:22+01:00</time>
      </trkpt>
      <trkpt lat="44.83035" lon="4.76279">
        <ele>165</ele>
        <time>2021-12-01T12:47:27+01:00</time>
      </trkpt>
      <trkpt lat="44.82942" lon="4.76361">
        <ele>159</ele>
        <time>2021-12-01T12:47:32+01:00</time>
      </trkpt>
      <trkpt lat="44.82788" lon="4.76361">
        <ele>138</ele>
        <time>2021-12-01T12:47:37+01:00</time>
      </trkpt>
      <trkpt lat="44.82709" lon="4.76417">
        <ele>132</ele>
        <time>2021-12-01T12:47:42+01:00</time>
      </trkpt>
      <trkpt lat="44.82635" lon="4.76429">
        <ele>127</ele>
        <time>2021-12-01T12:47:47+01:00</time>
      </trkpt>
      <trkpt lat="44.82516" lon="4.76481">
        <ele>121</ele>
        <time>2021-12-01T12:47:52+01:00</time>
      </trkpt>
      <trkpt lat="44.82253" lon="4.76614">
        <ele>109</ele>
        <time>2021-12-01T12:47:57+01:00</time>
      </trkpt>
      <trkpt lat="44.82222" lon="4.7661">
        <ele>107</ele>
        <time>2021-12-01T12:48:02+01:00</time>
      </trkpt>
      <trkpt lat="44.8207" lon="4.76657">
        <ele>118</ele>
        <time>2021-12-01T12:48:07+01:00</time>
      </trkpt>
      <trkpt lat="44.82161" lon="4.77056">
        <ele>112</ele>
        <time>2021-12-01T12:48:12+01:00</time>
      </trkpt>
      <trkpt lat="44.82173" lon="4.77286">
        <ele>122</ele>
        <time>2021-12-01T12:48:17+01:00</time>
      </trkpt>
      <trkpt lat="44.82166" lon="4.77505">
        <ele>130</ele>
        <time>2021-12-01T12:48:22+01:00</time>
      </trkpt>
      <trkpt lat="44.82183" lon="4.77674">
        <ele>129</ele>
        <time>2021-12-01T12:48:27+01:00</time>
      </trkpt>
      <trkpt lat="44.82221" lon="4.77882">
        <ele>124</ele>
        <time>2021-12-01T12:48:32+01:00</time>
      </trkpt>
      <trkpt lat="44.82204" lon="4.78103">
        <ele>123</ele>
        <time>2021-12-01T12:48:37+01:00</time>
      </trkpt>
      <trkpt lat="44.82157" lon="4.78243">
        <ele>118</ele>
        <time>2021-12-01T12:48:42+01:00</time>
      </trkpt>
      <trkpt lat="44.82021" lon="4.7836">
        <ele>118</ele>
        <time>2021-12-01T12:48:47+01:00</time>
      </trkpt>
      <trkpt lat="44.81794" lon="4.78632">
        <ele>112</ele>
        <time>2021-12-01T12:48:52+01:00</time>
      </trkpt>
      <trkpt lat="44.81716" lon="4.78702">
        <ele>113</ele>
        <time>2021-12-01T12:48:57+01:00</time>
      </trkpt>
      <trkpt lat="44.81697" lon="4.78656">
        <ele>116</ele>
        <time>2021-12-01T12:49:02+01:00</time>
      </trkpt>
      <trkpt lat="44.81687" lon="4.78616">
        <ele>121</ele>
        <time>2021-12-01T12:49:07+01:00</time>
      </trkpt>
      <trkpt lat="44.81715" lon="4.78548">
        <ele>123</ele>
        <time>2021-12-01T12:49:12+01:00</time>
      </trkpt>
    </trkseg>
  </trk>
  <trk>
    <name><![CDATA[47 - LA VOULTE SUR RHONE ST VINCENT DE BARRES 27.1 KM]]></name>
    <extensions>
      <line xmlns="http://www.topografix.com/GPX/gpx_style/0/2">
        <color>008888</color>
        <width>4</width>
      </line>
    </extensions>
    <trkseg>
      <trkpt lat="44.81717" lon="4.78534">
        <ele>123</ele>
        <time>2021-12-01T14:12:37+01:00</time>
      </trkpt>
      <trkpt lat="44.81708" lon="4.78491">
        <ele>126</ele>
        <time>2021-12-01T14:12:42+01:00</time>
      </trkpt>
      <trkpt lat="44.81679" lon="4.78497">
        <ele>130</ele>
        <time>2021-12-01T14:12:47+01:00</time>
      </trkpt>
      <trkpt lat="44.81565" lon="4.78637">
        <ele>137</ele>
        <time>2021-12-01T14:12:52+01:00</time>
      </trkpt>
      <trkpt lat="44.81511" lon="4.78735">
        <ele>138</ele>
        <time>2021-12-01T14:12:57+01:00</time>
      </trkpt>
      <trkpt lat="44.81417" lon="4.78701">
        <ele>139</ele>
        <time>2021-12-01T14:13:02+01:00</time>
      </trkpt>
      <trkpt lat="44.81352" lon="4.7874">
        <ele>127</ele>
        <time>2021-12-01T14:13:07+01:00</time>
      </trkpt>
      <trkpt lat="44.81331" lon="4.78694">
        <ele>126</ele>
        <time>2021-12-01T14:13:12+01:00</time>
      </trkpt>
      <trkpt lat="44.81303" lon="4.78631">
        <ele>125</ele>
        <time>2021-12-01T14:13:17+01:00</time>
      </trkpt>
      <trkpt lat="44.81295" lon="4.78549">
        <ele>126</ele>
        <time>2021-12-01T14:13:22+01:00</time>
      </trkpt>
      <trkpt lat="44.81264" lon="4.7851">
        <ele>122</ele>
        <time>2021-12-01T14:13:27+01:00</time>
      </trkpt>
      <trkpt lat="44.81223" lon="4.78592">
        <ele>115</ele>
        <time>2021-12-01T14:13:32+01:00</time>
      </trkpt>
      <trkpt lat="44.81096" lon="4.78717">
        <ele>105</ele>
        <time>2021-12-01T14:13:37+01:00</time>
      </trkpt>
      <trkpt lat="44.81081" lon="4.78749">
        <ele>104</ele>
        <time>2021-12-01T14:13:42+01:00</time>
      </trkpt>
      <trkpt lat="44.80983" lon="4.78672">
        <ele>101</ele>
        <time>2021-12-01T14:13:47+01:00</time>
      </trkpt>
      <trkpt lat="44.8085" lon="4.78588">
        <ele>96</ele>
        <time>2021-12-01T14:13:52+01:00</time>
      </trkpt>
      <trkpt lat="44.80738" lon="4.78446">
        <ele>94</ele>
        <time>2021-12-01T14:13:57+01:00</time>
      </trkpt>
      <trkpt lat="44.8066" lon="4.78346">
        <ele>94</ele>
        <time>2021-12-01T14:14:02+01:00</time>
      </trkpt>
      <trkpt lat="44.806" lon="4.78308">
        <ele>95</ele>
        <time>2021-12-01T14:14:07+01:00</time>
      </trkpt>
      <trkpt lat="44.80451" lon="4.78308">
        <ele>94</ele>
        <time>2021-12-01T14:14:12+01:00</time>
      </trkpt>
      <trkpt lat="44.80268" lon="4.78165">
        <ele>97</ele>
        <time>2021-12-01T14:14:17+01:00</time>
      </trkpt>
      <trkpt lat="44.80162" lon="4.78132">
        <ele>96</ele>
        <time>2021-12-01T14:14:22+01:00</time>
      </trkpt>
      <trkpt lat="44.80014" lon="4.78158">
        <ele>95</ele>
        <time>2021-12-01T14:14:27+01:00</time>
      </trkpt>
      <trkpt lat="44.79873" lon="4.78074">
        <ele>96</ele>
        <time>2021-12-01T14:14:32+01:00</time>
      </trkpt>
      <trkpt lat="44.7993" lon="4.77973">
        <ele>101</ele>
        <time>2021-12-01T14:14:37+01:00</time>
      </trkpt>
      <trkpt lat="44.79996" lon="4.77829">
        <ele>111</ele>
        <time>2021-12-01T14:14:42+01:00</time>
      </trkpt>
      <trkpt lat="44.80007" lon="4.77781">
        <ele>113</ele>
        <time>2021-12-01T14:14:47+01:00</time>
      </trkpt>
      <trkpt lat="44.79999" lon="4.77723">
        <ele>114</ele>
        <time>2021-12-01T14:14:52+01:00</time>
      </trkpt>
      <trkpt lat="44.79975" lon="4.77703">
        <ele>115</ele>
        <time>2021-12-01T14:14:57+01:00</time>
      </trkpt>
      <trkpt lat="44.79974" lon="4.77489">
        <ele>127</ele>
        <time>2021-12-01T14:15:02+01:00</time>
      </trkpt>
      <trkpt lat="44.79988" lon="4.77379">
        <ele>133</ele>
        <time>2021-12-01T14:15:07+01:00</time>
      </trkpt>
      <trkpt lat="44.79975" lon="4.77255">
        <ele>139</ele>
        <time>2021-12-01T14:15:12+01:00</time>
      </trkpt>
      <trkpt lat="44.79937" lon="4.7722">
        <ele>149</ele>
        <time>2021-12-01T14:15:17+01:00</time>
      </trkpt>
      <trkpt lat="44.79952" lon="4.77152">
        <ele>146</ele>
        <time>2021-12-01T14:15:22+01:00</time>
      </trkpt>
      <trkpt lat="44.79943" lon="4.7698">
        <ele>155</ele>
        <time>2021-12-01T14:15:27+01:00</time>
      </trkpt>
      <trkpt lat="44.79882" lon="4.76829">
        <ele>162</ele>
        <time>2021-12-01T14:15:32+01:00</time>
      </trkpt>
      <trkpt lat="44.79832" lon="4.76703">
        <ele>170</ele>
        <time>2021-12-01T14:15:37+01:00</time>
      </trkpt>
      <trkpt lat="44.79783" lon="4.76663">
        <ele>174</ele>
        <time>2021-12-01T14:15:42+01:00</time>
      </trkpt>
      <trkpt lat="44.79759" lon="4.76615">
        <ele>178</ele>
        <time>2021-12-01T14:15:47+01:00</time>
      </trkpt>
      <trkpt lat="44.79783" lon="4.76521">
        <ele>179</ele>
        <time>2021-12-01T14:15:52+01:00</time>
      </trkpt>
      <trkpt lat="44.79733" lon="4.76182">
        <ele>198</ele>
        <time>2021-12-01T14:15:57+01:00</time>
      </trkpt>
      <trkpt lat="44.79675" lon="4.7603">
        <ele>200</ele>
        <time>2021-12-01T14:16:02+01:00</time>
      </trkpt>
      <trkpt lat="44.79706" lon="4.75869">
        <ele>193</ele>
        <time>2021-12-01T14:16:07+01:00</time>
      </trkpt>
      <trkpt lat="44.79691" lon="4.75783">
        <ele>185</ele>
        <time>2021-12-01T14:16:12+01:00</time>
      </trkpt>
      <trkpt lat="44.79663" lon="4.75753">
        <ele>174</ele>
        <time>2021-12-01T14:16:17+01:00</time>
      </trkpt>
      <trkpt lat="44.79651" lon="4.75693">
        <ele>175</ele>
        <time>2021-12-01T14:16:22+01:00</time>
      </trkpt>
      <trkpt lat="44.79564" lon="4.7559">
        <ele>163</ele>
        <time>2021-12-01T14:16:27+01:00</time>
      </trkpt>
      <trkpt lat="44.79572" lon="4.75493">
        <ele>163</ele>
        <time>2021-12-01T14:16:32+01:00</time>
      </trkpt>
      <trkpt lat="44.79596" lon="4.75472">
        <ele>168</ele>
        <time>2021-12-01T14:16:37+01:00</time>
      </trkpt>
      <trkpt lat="44.79605" lon="4.75439">
        <ele>169</ele>
        <time>2021-12-01T14:16:42+01:00</time>
      </trkpt>
      <trkpt lat="44.79552" lon="4.75405">
        <ele>163</ele>
        <time>2021-12-01T14:16:47+01:00</time>
      </trkpt>
      <trkpt lat="44.79482" lon="4.7538">
        <ele>162</ele>
        <time>2021-12-01T14:16:52+01:00</time>
      </trkpt>
      <trkpt lat="44.79424" lon="4.75295">
        <ele>168</ele>
        <time>2021-12-01T14:16:57+01:00</time>
      </trkpt>
      <trkpt lat="44.79348" lon="4.75097">
        <ele>164</ele>
        <time>2021-12-01T14:17:02+01:00</time>
      </trkpt>
      <trkpt lat="44.79342" lon="4.75016">
        <ele>164</ele>
        <time>2021-12-01T14:17:07+01:00</time>
      </trkpt>
      <trkpt lat="44.79272" lon="4.74977">
        <ele>158</ele>
        <time>2021-12-01T14:17:12+01:00</time>
      </trkpt>
      <trkpt lat="44.79224" lon="4.74918">
        <ele>155</ele>
        <time>2021-12-01T14:17:17+01:00</time>
      </trkpt>
      <trkpt lat="44.7925" lon="4.74846">
        <ele>160</ele>
        <time>2021-12-01T14:17:22+01:00</time>
      </trkpt>
      <trkpt lat="44.79175" lon="4.74539">
        <ele>167</ele>
        <time>2021-12-01T14:17:27+01:00</time>
      </trkpt>
      <trkpt lat="44.79041" lon="4.74562">
        <ele>158</ele>
        <time>2021-12-01T14:17:32+01:00</time>
      </trkpt>
      <trkpt lat="44.78944" lon="4.74371">
        <ele>156</ele>
        <time>2021-12-01T14:17:37+01:00</time>
      </trkpt>
      <trkpt lat="44.78987" lon="4.74286">
        <ele>162</ele>
        <time>2021-12-01T14:17:42+01:00</time>
      </trkpt>
      <trkpt lat="44.78922" lon="4.74217">
        <ele>161</ele>
        <time>2021-12-01T14:17:47+01:00</time>
      </trkpt>
      <trkpt lat="44.78869" lon="4.74186">
        <ele>161</ele>
        <time>2021-12-01T14:17:52+01:00</time>
      </trkpt>
      <trkpt lat="44.78745" lon="4.74049">
        <ele>160</ele>
        <time>2021-12-01T14:17:57+01:00</time>
      </trkpt>
      <trkpt lat="44.78727" lon="4.73848">
        <ele>165</ele>
        <time>2021-12-01T14:18:02+01:00</time>
      </trkpt>
      <trkpt lat="44.78761" lon="4.7374">
        <ele>173</ele>
        <time>2021-12-01T14:18:07+01:00</time>
      </trkpt>
      <trkpt lat="44.78725" lon="4.73616">
        <ele>178</ele>
        <time>2021-12-01T14:18:12+01:00</time>
      </trkpt>
      <trkpt lat="44.7854" lon="4.73469">
        <ele>181</ele>
        <time>2021-12-01T14:18:17+01:00</time>
      </trkpt>
      <trkpt lat="44.7845" lon="4.73288">
        <ele>187</ele>
        <time>2021-12-01T14:18:22+01:00</time>
      </trkpt>
      <trkpt lat="44.78342" lon="4.73213">
        <ele>189</ele>
        <time>2021-12-01T14:18:27+01:00</time>
      </trkpt>
      <trkpt lat="44.7828" lon="4.73211">
        <ele>191</ele>
        <time>2021-12-01T14:18:32+01:00</time>
      </trkpt>
      <trkpt lat="44.78223" lon="4.73126">
        <ele>191</ele>
        <time>2021-12-01T14:18:37+01:00</time>
      </trkpt>
      <trkpt lat="44.78137" lon="4.73144">
        <ele>194</ele>
        <time>2021-12-01T14:18:42+01:00</time>
      </trkpt>
      <trkpt lat="44.78064" lon="4.73183">
        <ele>208</ele>
        <time>2021-12-01T14:18:47+01:00</time>
      </trkpt>
      <trkpt lat="44.77961" lon="4.73268">
        <ele>235</ele>
        <time>2021-12-01T14:18:52+01:00</time>
      </trkpt>
      <trkpt lat="44.7791" lon="4.73286">
        <ele>249</ele>
        <time>2021-12-01T14:18:57+01:00</time>
      </trkpt>
      <trkpt lat="44.7759" lon="4.73247">
        <ele>288</ele>
        <time>2021-12-01T14:19:02+01:00</time>
      </trkpt>
      <trkpt lat="44.77529" lon="4.73299">
        <ele>309</ele>
        <time>2021-12-01T14:19:07+01:00</time>
      </trkpt>
      <trkpt lat="44.77474" lon="4.73446">
        <ele>318</ele>
        <time>2021-12-01T14:19:12+01:00</time>
      </trkpt>
      <trkpt lat="44.7744" lon="4.73587">
        <ele>322</ele>
        <time>2021-12-01T14:19:17+01:00</time>
      </trkpt>
      <trkpt lat="44.77374" lon="4.73696">
        <ele>321</ele>
        <time>2021-12-01T14:19:22+01:00</time>
      </trkpt>
      <trkpt lat="44.77262" lon="4.73734">
        <ele>314</ele>
        <time>2021-12-01T14:19:27+01:00</time>
      </trkpt>
      <trkpt lat="44.77149" lon="4.73794">
        <ele>305</ele>
        <time>2021-12-01T14:19:32+01:00</time>
      </trkpt>
      <trkpt lat="44.77105" lon="4.74013">
        <ele>301</ele>
        <time>2021-12-01T14:19:37+01:00</time>
      </trkpt>
      <trkpt lat="44.77073" lon="4.74085">
        <ele>299</ele>
        <time>2021-12-01T14:19:42+01:00</time>
      </trkpt>
      <trkpt lat="44.77105" lon="4.74322">
        <ele>284</ele>
        <time>2021-12-01T14:19:47+01:00</time>
      </trkpt>
      <trkpt lat="44.76929" lon="4.74552">
        <ele>281</ele>
        <time>2021-12-01T14:19:52+01:00</time>
      </trkpt>
      <trkpt lat="44.76779" lon="4.74676">
        <ele>277</ele>
        <time>2021-12-01T14:19:57+01:00</time>
      </trkpt>
      <trkpt lat="44.76618" lon="4.74846">
        <ele>251</ele>
        <time>2021-12-01T14:20:02+01:00</time>
      </trkpt>
      <trkpt lat="44.76497" lon="4.74874">
        <ele>228</ele>
        <time>2021-12-01T14:20:07+01:00</time>
      </trkpt>
      <trkpt lat="44.76405" lon="4.74988">
        <ele>190</ele>
        <time>2021-12-01T14:20:12+01:00</time>
      </trkpt>
      <trkpt lat="44.76378" lon="4.74936">
        <ele>190</ele>
        <time>2021-12-01T14:20:17+01:00</time>
      </trkpt>
      <trkpt lat="44.76242" lon="4.7506">
        <ele>130</ele>
        <time>2021-12-01T14:20:22+01:00</time>
      </trkpt>
      <trkpt lat="44.76163" lon="4.75039">
        <ele>120</ele>
        <time>2021-12-01T14:20:27+01:00</time>
      </trkpt>
      <trkpt lat="44.76156" lon="4.75078">
        <ele>106</ele>
        <time>2021-12-01T14:20:32+01:00</time>
      </trkpt>
      <trkpt lat="44.76096" lon="4.75073">
        <ele>98</ele>
        <time>2021-12-01T14:20:37+01:00</time>
      </trkpt>
      <trkpt lat="44.75995" lon="4.75001">
        <ele>97</ele>
        <time>2021-12-01T14:20:42+01:00</time>
      </trkpt>
      <trkpt lat="44.75872" lon="4.74885">
        <ele>105</ele>
        <time>2021-12-01T14:20:47+01:00</time>
      </trkpt>
      <trkpt lat="44.75779" lon="4.7489">
        <ele>98</ele>
        <time>2021-12-01T14:20:52+01:00</time>
      </trkpt>
      <trkpt lat="44.75597" lon="4.74864">
        <ele>93</ele>
        <time>2021-12-01T14:20:57+01:00</time>
      </trkpt>
      <trkpt lat="44.75486" lon="4.74856">
        <ele>90</ele>
        <time>2021-12-01T14:21:02+01:00</time>
      </trkpt>
      <trkpt lat="44.75438" lon="4.74815">
        <ele>91</ele>
        <time>2021-12-01T14:21:07+01:00</time>
      </trkpt>
      <trkpt lat="44.75066" lon="4.7472">
        <ele>96</ele>
        <time>2021-12-01T14:21:12+01:00</time>
      </trkpt>
      <trkpt lat="44.7496" lon="4.74678">
        <ele>93</ele>
        <time>2021-12-01T14:21:17+01:00</time>
      </trkpt>
      <trkpt lat="44.74828" lon="4.74617">
        <ele>91</ele>
        <time>2021-12-01T14:21:22+01:00</time>
      </trkpt>
      <trkpt lat="44.74548" lon="4.74498">
        <ele>90</ele>
        <time>2021-12-01T14:21:27+01:00</time>
      </trkpt>
      <trkpt lat="44.74343" lon="4.74402">
        <ele>91</ele>
        <time>2021-12-01T14:21:32+01:00</time>
      </trkpt>
      <trkpt lat="44.74237" lon="4.74348">
        <ele>92</ele>
        <time>2021-12-01T14:21:37+01:00</time>
      </trkpt>
      <trkpt lat="44.74149" lon="4.74232">
        <ele>99</ele>
        <time>2021-12-01T14:21:42+01:00</time>
      </trkpt>
      <trkpt lat="44.74019" lon="4.7415">
        <ele>99</ele>
        <time>2021-12-01T14:21:47+01:00</time>
      </trkpt>
      <trkpt lat="44.73707" lon="4.74108">
        <ele>107</ele>
        <time>2021-12-01T14:21:52+01:00</time>
      </trkpt>
      <trkpt lat="44.73548" lon="4.74052">
        <ele>102</ele>
        <time>2021-12-01T14:21:57+01:00</time>
      </trkpt>
      <trkpt lat="44.73438" lon="4.73972">
        <ele>105</ele>
        <time>2021-12-01T14:22:02+01:00</time>
      </trkpt>
      <trkpt lat="44.73333" lon="4.73874">
        <ele>113</ele>
        <time>2021-12-01T14:22:07+01:00</time>
      </trkpt>
      <trkpt lat="44.73201" lon="4.73804">
        <ele>104</ele>
        <time>2021-12-01T14:22:12+01:00</time>
      </trkpt>
      <trkpt lat="44.72972" lon="4.7375">
        <ele>117</ele>
        <time>2021-12-01T14:22:17+01:00</time>
      </trkpt>
      <trkpt lat="44.72784" lon="4.7375">
        <ele>118</ele>
        <time>2021-12-01T14:22:22+01:00</time>
      </trkpt>
      <trkpt lat="44.72565" lon="4.73627">
        <ele>122</ele>
        <time>2021-12-01T14:22:27+01:00</time>
      </trkpt>
      <trkpt lat="44.72373" lon="4.73473">
        <ele>127</ele>
        <time>2021-12-01T14:22:32+01:00</time>
      </trkpt>
      <trkpt lat="44.72192" lon="4.73377">
        <ele>129</ele>
        <time>2021-12-01T14:22:37+01:00</time>
      </trkpt>
      <trkpt lat="44.71962" lon="4.73324">
        <ele>135</ele>
        <time>2021-12-01T14:22:42+01:00</time>
      </trkpt>
      <trkpt lat="44.71781" lon="4.73165">
        <ele>134</ele>
        <time>2021-12-01T14:22:47+01:00</time>
      </trkpt>
      <trkpt lat="44.71675" lon="4.73149">
        <ele>129</ele>
        <time>2021-12-01T14:22:52+01:00</time>
      </trkpt>
      <trkpt lat="44.71566" lon="4.72989">
        <ele>135</ele>
        <time>2021-12-01T14:22:57+01:00</time>
      </trkpt>
      <trkpt lat="44.71347" lon="4.72782">
        <ele>144</ele>
        <time>2021-12-01T14:23:02+01:00</time>
      </trkpt>
      <trkpt lat="44.71173" lon="4.72628">
        <ele>151</ele>
        <time>2021-12-01T14:23:07+01:00</time>
      </trkpt>
      <trkpt lat="44.70981" lon="4.72469">
        <ele>153</ele>
        <time>2021-12-01T14:23:12+01:00</time>
      </trkpt>
      <trkpt lat="44.70788" lon="4.72267">
        <ele>149</ele>
        <time>2021-12-01T14:23:17+01:00</time>
      </trkpt>
      <trkpt lat="44.70517" lon="4.72129">
        <ele>153</ele>
        <time>2021-12-01T14:23:22+01:00</time>
      </trkpt>
      <trkpt lat="44.70373" lon="4.72464">
        <ele>167</ele>
        <time>2021-12-01T14:23:27+01:00</time>
      </trkpt>
      <trkpt lat="44.70113" lon="4.72835">
        <ele>178</ele>
        <time>2021-12-01T14:23:32+01:00</time>
      </trkpt>
      <trkpt lat="44.69841" lon="4.72851">
        <ele>182</ele>
        <time>2021-12-01T14:23:37+01:00</time>
      </trkpt>
      <trkpt lat="44.69758" lon="4.72719">
        <ele>181</ele>
        <time>2021-12-01T14:23:42+01:00</time>
      </trkpt>
      <trkpt lat="44.69698" lon="4.72862">
        <ele>188</ele>
        <time>2021-12-01T14:23:47+01:00</time>
      </trkpt>
      <trkpt lat="44.69626" lon="4.7291">
        <ele>196</ele>
        <time>2021-12-01T14:23:52+01:00</time>
      </trkpt>
      <trkpt lat="44.69475" lon="4.72973">
        <ele>211</ele>
        <time>2021-12-01T14:23:57+01:00</time>
      </trkpt>
      <trkpt lat="44.69411" lon="4.72846">
        <ele>214</ele>
        <time>2021-12-01T14:24:02+01:00</time>
      </trkpt>
      <trkpt lat="44.69301" lon="4.7283">
        <ele>225</ele>
        <time>2021-12-01T14:24:07+01:00</time>
      </trkpt>
      <trkpt lat="44.69196" lon="4.72899">
        <ele>239</ele>
        <time>2021-12-01T14:24:12+01:00</time>
      </trkpt>
      <trkpt lat="44.69199" lon="4.73064">
        <ele>250</ele>
        <time>2021-12-01T14:24:17+01:00</time>
      </trkpt>
      <trkpt lat="44.6916" lon="4.73043">
        <ele>253</ele>
        <time>2021-12-01T14:24:22+01:00</time>
      </trkpt>
      <trkpt lat="44.69093" lon="4.73066">
        <ele>269</ele>
        <time>2021-12-01T14:24:27+01:00</time>
      </trkpt>
      <trkpt lat="44.69076" lon="4.73036">
        <ele>266</ele>
        <time>2021-12-01T14:24:32+01:00</time>
      </trkpt>
      <trkpt lat="44.68978" lon="4.73025">
        <ele>282</ele>
        <time>2021-12-01T14:24:37+01:00</time>
      </trkpt>
      <trkpt lat="44.68961" lon="4.73009">
        <ele>280</ele>
        <time>2021-12-01T14:24:42+01:00</time>
      </trkpt>
      <trkpt lat="44.68939" lon="4.73039">
        <ele>291</ele>
        <time>2021-12-01T14:24:47+01:00</time>
      </trkpt>
      <trkpt lat="44.68803" lon="4.73024">
        <ele>319</ele>
        <time>2021-12-01T14:24:52+01:00</time>
      </trkpt>
      <trkpt lat="44.68762" lon="4.73024">
        <ele>326</ele>
        <time>2021-12-01T14:24:57+01:00</time>
      </trkpt>
      <trkpt lat="44.68741" lon="4.73009">
        <ele>324</ele>
        <time>2021-12-01T14:25:02+01:00</time>
      </trkpt>
      <trkpt lat="44.68566" lon="4.73114">
        <ele>345</ele>
        <time>2021-12-01T14:25:07+01:00</time>
      </trkpt>
      <trkpt lat="44.68459" lon="4.73104">
        <ele>348</ele>
        <time>2021-12-01T14:25:12+01:00</time>
      </trkpt>
      <trkpt lat="44.68416" lon="4.73132">
        <ele>356</ele>
        <time>2021-12-01T14:25:17+01:00</time>
      </trkpt>
      <trkpt lat="44.68374" lon="4.73181">
        <ele>360</ele>
        <time>2021-12-01T14:25:22+01:00</time>
      </trkpt>
      <trkpt lat="44.68374" lon="4.73304">
        <ele>376</ele>
        <time>2021-12-01T14:25:27+01:00</time>
      </trkpt>
      <trkpt lat="44.68325" lon="4.73329">
        <ele>378</ele>
        <time>2021-12-01T14:25:32+01:00</time>
      </trkpt>
      <trkpt lat="44.68244" lon="4.73364">
        <ele>377</ele>
        <time>2021-12-01T14:25:37+01:00</time>
      </trkpt>
      <trkpt lat="44.68197" lon="4.73365">
        <ele>377</ele>
        <time>2021-12-01T14:25:42+01:00</time>
      </trkpt>
      <trkpt lat="44.68092" lon="4.73298">
        <ele>374</ele>
        <time>2021-12-01T14:25:47+01:00</time>
      </trkpt>
      <trkpt lat="44.68054" lon="4.73171">
        <ele>356</ele>
        <time>2021-12-01T14:25:52+01:00</time>
      </trkpt>
      <trkpt lat="44.68026" lon="4.73174">
        <ele>360</ele>
        <time>2021-12-01T14:25:57+01:00</time>
      </trkpt>
      <trkpt lat="44.68018" lon="4.732">
        <ele>362</ele>
        <time>2021-12-01T14:26:02+01:00</time>
      </trkpt>
      <trkpt lat="44.67998" lon="4.73181">
        <ele>364</ele>
        <time>2021-12-01T14:26:07+01:00</time>
      </trkpt>
      <trkpt lat="44.67981" lon="4.73146">
        <ele>363</ele>
        <time>2021-12-01T14:26:12+01:00</time>
      </trkpt>
      <trkpt lat="44.67863" lon="4.73079">
        <ele>382</ele>
        <time>2021-12-01T14:26:17+01:00</time>
      </trkpt>
      <trkpt lat="44.67802" lon="4.73117">
        <ele>368</ele>
        <time>2021-12-01T14:26:22+01:00</time>
      </trkpt>
      <trkpt lat="44.67743" lon="4.73138">
        <ele>360</ele>
        <time>2021-12-01T14:26:27+01:00</time>
      </trkpt>
      <trkpt lat="44.67768" lon="4.73078">
        <ele>369</ele>
        <time>2021-12-01T14:26:32+01:00</time>
      </trkpt>
      <trkpt lat="44.67739" lon="4.72925">
        <ele>381</ele>
        <time>2021-12-01T14:26:37+01:00</time>
      </trkpt>
      <trkpt lat="44.67671" lon="4.72858">
        <ele>373</ele>
        <time>2021-12-01T14:26:42+01:00</time>
      </trkpt>
      <trkpt lat="44.67705" lon="4.72747">
        <ele>368</ele>
        <time>2021-12-01T14:26:47+01:00</time>
      </trkpt>
      <trkpt lat="44.67634" lon="4.72688">
        <ele>355</ele>
        <time>2021-12-01T14:26:52+01:00</time>
      </trkpt>
      <trkpt lat="44.67393" lon="4.72628">
        <ele>346</ele>
        <time>2021-12-01T14:26:57+01:00</time>
      </trkpt>
      <trkpt lat="44.67208" lon="4.72588">
        <ele>335</ele>
        <time>2021-12-01T14:27:02+01:00</time>
      </trkpt>
      <trkpt lat="44.67138" lon="4.72598">
        <ele>331</ele>
        <time>2021-12-01T14:27:07+01:00</time>
      </trkpt>
      <trkpt lat="44.6689" lon="4.72502">
        <ele>326</ele>
        <time>2021-12-01T14:27:12+01:00</time>
      </trkpt>
      <trkpt lat="44.66733" lon="4.72463">
        <ele>320</ele>
        <time>2021-12-01T14:27:17+01:00</time>
      </trkpt>
      <trkpt lat="44.66571" lon="4.72467">
        <ele>327</ele>
        <time>2021-12-01T14:27:22+01:00</time>
      </trkpt>
      <trkpt lat="44.66565" lon="4.7242">
        <ele>324</ele>
        <time>2021-12-01T14:27:27+01:00</time>
      </trkpt>
      <trkpt lat="44.66566" lon="4.72385">
        <ele>315</ele>
        <time>2021-12-01T14:27:32+01:00</time>
      </trkpt>
      <trkpt lat="44.66524" lon="4.72385">
        <ele>311</ele>
        <time>2021-12-01T14:27:37+01:00</time>
      </trkpt>
      <trkpt lat="44.66447" lon="4.72433">
        <ele>309</ele>
        <time>2021-12-01T14:27:42+01:00</time>
      </trkpt>
      <trkpt lat="44.66388" lon="4.72479">
        <ele>314</ele>
        <time>2021-12-01T14:27:47+01:00</time>
      </trkpt>
      <trkpt lat="44.66278" lon="4.72492">
        <ele>307</ele>
        <time>2021-12-01T14:27:52+01:00</time>
      </trkpt>
      <trkpt lat="44.66202" lon="4.72523">
        <ele>312</ele>
        <time>2021-12-01T14:27:57+01:00</time>
      </trkpt>
      <trkpt lat="44.66179" lon="4.7252">
        <ele>313</ele>
        <time>2021-12-01T14:28:02+01:00</time>
      </trkpt>
      <trkpt lat="44.66183" lon="4.72497">
        <ele>310</ele>
        <time>2021-12-01T14:28:07+01:00</time>
      </trkpt>
      <trkpt lat="44.66217" lon="4.72463">
        <ele>312</ele>
        <time>2021-12-01T14:28:12+01:00</time>
      </trkpt>
      <trkpt lat="44.66285" lon="4.72418">
        <ele>303</ele>
        <time>2021-12-01T14:28:17+01:00</time>
      </trkpt>
      <trkpt lat="44.66357" lon="4.72349">
        <ele>297</ele>
        <time>2021-12-01T14:28:22+01:00</time>
      </trkpt>
      <trkpt lat="44.66409" lon="4.72244">
        <ele>281</ele>
        <time>2021-12-01T14:28:27+01:00</time>
      </trkpt>
      <trkpt lat="44.66411" lon="4.72183">
        <ele>281</ele>
        <time>2021-12-01T14:28:32+01:00</time>
      </trkpt>
      <trkpt lat="44.66462" lon="4.72169">
        <ele>270</ele>
        <time>2021-12-01T14:28:37+01:00</time>
      </trkpt>
      <trkpt lat="44.66645" lon="4.71684">
        <ele>233</ele>
        <time>2021-12-01T14:28:42+01:00</time>
      </trkpt>
      <trkpt lat="44.66581" lon="4.71513">
        <ele>229</ele>
        <time>2021-12-01T14:28:47+01:00</time>
      </trkpt>
      <trkpt lat="44.66498" lon="4.71465">
        <ele>231</ele>
        <time>2021-12-01T14:28:52+01:00</time>
      </trkpt>
      <trkpt lat="44.66257" lon="4.71122">
        <ele>228</ele>
        <time>2021-12-01T14:28:57+01:00</time>
      </trkpt>
      <trkpt lat="44.66376" lon="4.70882">
        <ele>225</ele>
        <time>2021-12-01T14:29:02+01:00</time>
      </trkpt>
      <trkpt lat="44.66398" lon="4.70774">
        <ele>221</ele>
        <time>2021-12-01T14:29:07+01:00</time>
      </trkpt>
      <trkpt lat="44.66462" lon="4.70787">
        <ele>218</ele>
        <time>2021-12-01T14:29:12+01:00</time>
      </trkpt>
      <trkpt lat="44.6656" lon="4.70589">
        <ele>214</ele>
        <time>2021-12-01T14:29:17+01:00</time>
      </trkpt>
      <trkpt lat="44.66675" lon="4.70512">
        <ele>227</ele>
        <time>2021-12-01T14:29:22+01:00</time>
      </trkpt>
      <trkpt lat="44.66659" lon="4.70434">
        <ele>232</ele>
        <time>2021-12-01T14:29:27+01:00</time>
      </trkpt>
      <trkpt lat="44.66733" lon="4.70273">
        <ele>237</ele>
        <time>2021-12-01T14:29:32+01:00</time>
      </trkpt>
      <trkpt lat="44.66756" lon="4.7017">
        <ele>239</ele>
        <time>2021-12-01T14:29:37+01:00</time>
      </trkpt>
      <trkpt lat="44.66836" lon="4.69992">
        <ele>243</ele>
        <time>2021-12-01T14:29:42+01:00</time>
      </trkpt>
      <trkpt lat="44.66977" lon="4.6961">
        <ele>251</ele>
        <time>2021-12-01T14:29:47+01:00</time>
      </trkpt>
      <trkpt lat="44.66977" lon="4.69552">
        <ele>253</ele>
        <time>2021-12-01T14:29:52+01:00</time>
      </trkpt>
      <trkpt lat="44.66954" lon="4.69499">
        <ele>253</ele>
        <time>2021-12-01T14:29:57+01:00</time>
      </trkpt>
      <trkpt lat="44.66858" lon="4.69411">
        <ele>245</ele>
        <time>2021-12-01T14:30:02+01:00</time>
      </trkpt>
    </trkseg>
  </trk>
  <trk>
    <name><![CDATA[48 - ST VINCENT DE BARRES LE TEIL 24.4 KM]]></name>
    <extensions>
      <line xmlns="http://www.topografix.com/GPX/gpx_style/0/2">
        <color>888800</color>
        <width>4</width>
      </line>
    </extensions>
    <trkseg>
      <trkpt lat="44.66867" lon="4.6943">
        <ele>245</ele>
        <time>2021-12-02T10:09:45+01:00</time>
      </trkpt>
      <trkpt lat="44.66955" lon="4.69495">
        <ele>253</ele>
        <time>2021-12-02T10:09:50+01:00</time>
      </trkpt>
      <trkpt lat="44.66977" lon="4.69601">
        <ele>251</ele>
        <time>2021-12-02T10:09:55+01:00</time>
      </trkpt>
      <trkpt lat="44.66831" lon="4.70011">
        <ele>243</ele>
        <time>2021-12-02T10:10:00+01:00</time>
      </trkpt>
      <trkpt lat="44.66748" lon="4.70176">
        <ele>239</ele>
        <time>2021-12-02T10:10:05+01:00</time>
      </trkpt>
      <trkpt lat="44.66685" lon="4.70376">
        <ele>234</ele>
        <time>2021-12-02T10:10:10+01:00</time>
      </trkpt>
      <trkpt lat="44.66654" lon="4.70421">
        <ele>232</ele>
        <time>2021-12-02T10:10:15+01:00</time>
      </trkpt>
      <trkpt lat="44.66677" lon="4.70509">
        <ele>227</ele>
        <time>2021-12-02T10:10:20+01:00</time>
      </trkpt>
      <trkpt lat="44.6656" lon="4.70585">
        <ele>214</ele>
        <time>2021-12-02T10:10:25+01:00</time>
      </trkpt>
      <trkpt lat="44.66463" lon="4.7079">
        <ele>218</ele>
        <time>2021-12-02T10:10:30+01:00</time>
      </trkpt>
      <trkpt lat="44.65746" lon="4.70364">
        <ele>241</ele>
        <time>2021-12-02T10:10:35+01:00</time>
      </trkpt>
      <trkpt lat="44.65566" lon="4.70168">
        <ele>252</ele>
        <time>2021-12-02T10:10:40+01:00</time>
      </trkpt>
      <trkpt lat="44.65534" lon="4.7024">
        <ele>252</ele>
        <time>2021-12-02T10:10:45+01:00</time>
      </trkpt>
      <trkpt lat="44.65429" lon="4.70103">
        <ele>255</ele>
        <time>2021-12-02T10:10:50+01:00</time>
      </trkpt>
      <trkpt lat="44.65314" lon="4.70091">
        <ele>261</ele>
        <time>2021-12-02T10:10:55+01:00</time>
      </trkpt>
      <trkpt lat="44.65309" lon="4.70152">
        <ele>266</ele>
        <time>2021-12-02T10:11:00+01:00</time>
      </trkpt>
      <trkpt lat="44.65337" lon="4.70204">
        <ele>268</ele>
        <time>2021-12-02T10:11:05+01:00</time>
      </trkpt>
      <trkpt lat="44.65274" lon="4.70204">
        <ele>278</ele>
        <time>2021-12-02T10:11:10+01:00</time>
      </trkpt>
      <trkpt lat="44.65189" lon="4.70067">
        <ele>275</ele>
        <time>2021-12-02T10:11:15+01:00</time>
      </trkpt>
      <trkpt lat="44.65069" lon="4.69963">
        <ele>277</ele>
        <time>2021-12-02T10:11:20+01:00</time>
      </trkpt>
      <trkpt lat="44.64977" lon="4.69947">
        <ele>279</ele>
        <time>2021-12-02T10:11:25+01:00</time>
      </trkpt>
      <trkpt lat="44.64855" lon="4.70043">
        <ele>307</ele>
        <time>2021-12-02T10:11:30+01:00</time>
      </trkpt>
      <trkpt lat="44.64806" lon="4.70015">
        <ele>310</ele>
        <time>2021-12-02T10:11:35+01:00</time>
      </trkpt>
      <trkpt lat="44.64832" lon="4.69955">
        <ele>292</ele>
        <time>2021-12-02T10:11:40+01:00</time>
      </trkpt>
      <trkpt lat="44.64749" lon="4.69878">
        <ele>300</ele>
        <time>2021-12-02T10:11:45+01:00</time>
      </trkpt>
      <trkpt lat="44.64469" lon="4.69927">
        <ele>349</ele>
        <time>2021-12-02T10:11:50+01:00</time>
      </trkpt>
      <trkpt lat="44.64295" lon="4.69895">
        <ele>357</ele>
        <time>2021-12-02T10:11:55+01:00</time>
      </trkpt>
      <trkpt lat="44.64297" lon="4.70039">
        <ele>356</ele>
        <time>2021-12-02T10:12:00+01:00</time>
      </trkpt>
      <trkpt lat="44.6404" lon="4.70453">
        <ele>357</ele>
        <time>2021-12-02T10:12:05+01:00</time>
      </trkpt>
      <trkpt lat="44.63983" lon="4.70461">
        <ele>375</ele>
        <time>2021-12-02T10:12:10+01:00</time>
      </trkpt>
      <trkpt lat="44.63769" lon="4.70939">
        <ele>396</ele>
        <time>2021-12-02T10:12:15+01:00</time>
      </trkpt>
      <trkpt lat="44.63595" lon="4.70866">
        <ele>407</ele>
        <time>2021-12-02T10:12:20+01:00</time>
      </trkpt>
      <trkpt lat="44.635" lon="4.71111">
        <ele>397</ele>
        <time>2021-12-02T10:12:25+01:00</time>
      </trkpt>
      <trkpt lat="44.63446" lon="4.71111">
        <ele>398</ele>
        <time>2021-12-02T10:12:30+01:00</time>
      </trkpt>
      <trkpt lat="44.6338" lon="4.71392">
        <ele>360</ele>
        <time>2021-12-02T10:12:35+01:00</time>
      </trkpt>
      <trkpt lat="44.6328" lon="4.71553">
        <ele>340</ele>
        <time>2021-12-02T10:12:40+01:00</time>
      </trkpt>
      <trkpt lat="44.63174" lon="4.71694">
        <ele>317</ele>
        <time>2021-12-02T10:12:45+01:00</time>
      </trkpt>
      <trkpt lat="44.63" lon="4.71686">
        <ele>281</ele>
        <time>2021-12-02T10:12:50+01:00</time>
      </trkpt>
      <trkpt lat="44.62826" lon="4.71754">
        <ele>246</ele>
        <time>2021-12-02T10:12:55+01:00</time>
      </trkpt>
      <trkpt lat="44.62669" lon="4.71818">
        <ele>219</ele>
        <time>2021-12-02T10:13:00+01:00</time>
      </trkpt>
      <trkpt lat="44.62529" lon="4.71822">
        <ele>198</ele>
        <time>2021-12-02T10:13:05+01:00</time>
      </trkpt>
      <trkpt lat="44.6246" lon="4.71814">
        <ele>184</ele>
        <time>2021-12-02T10:13:10+01:00</time>
      </trkpt>
      <trkpt lat="44.6246" lon="4.71902">
        <ele>180</ele>
        <time>2021-12-02T10:13:15+01:00</time>
      </trkpt>
      <trkpt lat="44.62263" lon="4.72023">
        <ele>154</ele>
        <time>2021-12-02T10:13:20+01:00</time>
      </trkpt>
      <trkpt lat="44.62211" lon="4.71975">
        <ele>149</ele>
        <time>2021-12-02T10:13:25+01:00</time>
      </trkpt>
      <trkpt lat="44.62143" lon="4.72031">
        <ele>142</ele>
        <time>2021-12-02T10:13:30+01:00</time>
      </trkpt>
      <trkpt lat="44.62123" lon="4.72099">
        <ele>136</ele>
        <time>2021-12-02T10:13:35+01:00</time>
      </trkpt>
      <trkpt lat="44.61997" lon="4.72163">
        <ele>125</ele>
        <time>2021-12-02T10:13:40+01:00</time>
      </trkpt>
      <trkpt lat="44.61908" lon="4.72147">
        <ele>130</ele>
        <time>2021-12-02T10:13:45+01:00</time>
      </trkpt>
      <trkpt lat="44.61734" lon="4.72115">
        <ele>145</ele>
        <time>2021-12-02T10:13:50+01:00</time>
      </trkpt>
      <trkpt lat="44.61651" lon="4.72107">
        <ele>143</ele>
        <time>2021-12-02T10:13:55+01:00</time>
      </trkpt>
      <trkpt lat="44.61474" lon="4.72035">
        <ele>129</ele>
        <time>2021-12-02T10:14:00+01:00</time>
      </trkpt>
      <trkpt lat="44.61394" lon="4.71943">
        <ele>125</ele>
        <time>2021-12-02T10:14:05+01:00</time>
      </trkpt>
      <trkpt lat="44.61305" lon="4.71934">
        <ele>116</ele>
        <time>2021-12-02T10:14:10+01:00</time>
      </trkpt>
      <trkpt lat="44.61179" lon="4.71971">
        <ele>106</ele>
        <time>2021-12-02T10:14:15+01:00</time>
      </trkpt>
      <trkpt lat="44.61097" lon="4.72047">
        <ele>97</ele>
        <time>2021-12-02T10:14:20+01:00</time>
      </trkpt>
      <trkpt lat="44.60994" lon="4.72083">
        <ele>91</ele>
        <time>2021-12-02T10:14:25+01:00</time>
      </trkpt>
      <trkpt lat="44.6095" lon="4.72128">
        <ele>89</ele>
        <time>2021-12-02T10:14:30+01:00</time>
      </trkpt>
      <trkpt lat="44.60805" lon="4.72208">
        <ele>84</ele>
        <time>2021-12-02T10:14:35+01:00</time>
      </trkpt>
      <trkpt lat="44.60748" lon="4.72255">
        <ele>84</ele>
        <time>2021-12-02T10:14:40+01:00</time>
      </trkpt>
      <trkpt lat="44.60806" lon="4.72046">
        <ele>84</ele>
        <time>2021-12-02T10:14:45+01:00</time>
      </trkpt>
      <trkpt lat="44.60902" lon="4.71876">
        <ele>89</ele>
        <time>2021-12-02T10:14:50+01:00</time>
      </trkpt>
      <trkpt lat="44.60916" lon="4.71806">
        <ele>91</ele>
        <time>2021-12-02T10:14:55+01:00</time>
      </trkpt>
      <trkpt lat="44.60929" lon="4.71749">
        <ele>94</ele>
        <time>2021-12-02T10:15:00+01:00</time>
      </trkpt>
      <trkpt lat="44.60915" lon="4.71689">
        <ele>102</ele>
        <time>2021-12-02T10:15:05+01:00</time>
      </trkpt>
      <trkpt lat="44.60955" lon="4.71604">
        <ele>108</ele>
        <time>2021-12-02T10:15:10+01:00</time>
      </trkpt>
      <trkpt lat="44.60865" lon="4.71622">
        <ele>118</ele>
        <time>2021-12-02T10:15:15+01:00</time>
      </trkpt>
      <trkpt lat="44.60778" lon="4.71549">
        <ele>137</ele>
        <time>2021-12-02T10:15:20+01:00</time>
      </trkpt>
      <trkpt lat="44.60767" lon="4.7146">
        <ele>143</ele>
        <time>2021-12-02T10:15:25+01:00</time>
      </trkpt>
      <trkpt lat="44.60737" lon="4.71258">
        <ele>157</ele>
        <time>2021-12-02T10:15:30+01:00</time>
      </trkpt>
      <trkpt lat="44.60705" lon="4.71278">
        <ele>158</ele>
        <time>2021-12-02T10:15:35+01:00</time>
      </trkpt>
      <trkpt lat="44.60696" lon="4.71313">
        <ele>158</ele>
        <time>2021-12-02T10:15:40+01:00</time>
      </trkpt>
      <trkpt lat="44.60595" lon="4.71253">
        <ele>174</ele>
        <time>2021-12-02T10:15:45+01:00</time>
      </trkpt>
      <trkpt lat="44.60588" lon="4.71345">
        <ele>172</ele>
        <time>2021-12-02T10:15:50+01:00</time>
      </trkpt>
      <trkpt lat="44.6049" lon="4.71195">
        <ele>189</ele>
        <time>2021-12-02T10:15:55+01:00</time>
      </trkpt>
      <trkpt lat="44.60457" lon="4.70958">
        <ele>209</ele>
        <time>2021-12-02T10:16:00+01:00</time>
      </trkpt>
      <trkpt lat="44.60336" lon="4.70886">
        <ele>229</ele>
        <time>2021-12-02T10:16:05+01:00</time>
      </trkpt>
      <trkpt lat="44.60332" lon="4.70774">
        <ele>241</ele>
        <time>2021-12-02T10:16:10+01:00</time>
      </trkpt>
      <trkpt lat="44.60371" lon="4.70649">
        <ele>259</ele>
        <time>2021-12-02T10:16:15+01:00</time>
      </trkpt>
      <trkpt lat="44.60379" lon="4.70475">
        <ele>276</ele>
        <time>2021-12-02T10:16:20+01:00</time>
      </trkpt>
      <trkpt lat="44.60327" lon="4.7035">
        <ele>283</ele>
        <time>2021-12-02T10:16:25+01:00</time>
      </trkpt>
      <trkpt lat="44.60265" lon="4.70318">
        <ele>285</ele>
        <time>2021-12-02T10:16:30+01:00</time>
      </trkpt>
      <trkpt lat="44.60274" lon="4.7025">
        <ele>287</ele>
        <time>2021-12-02T10:16:35+01:00</time>
      </trkpt>
      <trkpt lat="44.60134" lon="4.70156">
        <ele>286</ele>
        <time>2021-12-02T10:16:40+01:00</time>
      </trkpt>
      <trkpt lat="44.59983" lon="4.69974">
        <ele>297</ele>
        <time>2021-12-02T10:16:45+01:00</time>
      </trkpt>
      <trkpt lat="44.59908" lon="4.69856">
        <ele>293</ele>
        <time>2021-12-02T10:16:50+01:00</time>
      </trkpt>
      <trkpt lat="44.5997" lon="4.69664">
        <ele>299</ele>
        <time>2021-12-02T10:16:55+01:00</time>
      </trkpt>
      <trkpt lat="44.59984" lon="4.6957">
        <ele>299</ele>
        <time>2021-12-02T10:17:00+01:00</time>
      </trkpt>
      <trkpt lat="44.59924" lon="4.69577">
        <ele>296</ele>
        <time>2021-12-02T10:17:05+01:00</time>
      </trkpt>
      <trkpt lat="44.59841" lon="4.69557">
        <ele>297</ele>
        <time>2021-12-02T10:17:10+01:00</time>
      </trkpt>
      <trkpt lat="44.59672" lon="4.6939">
        <ele>294</ele>
        <time>2021-12-02T10:17:15+01:00</time>
      </trkpt>
      <trkpt lat="44.59683" lon="4.69298">
        <ele>304</ele>
        <time>2021-12-02T10:17:20+01:00</time>
      </trkpt>
      <trkpt lat="44.59668" lon="4.69188">
        <ele>313</ele>
        <time>2021-12-02T10:17:25+01:00</time>
      </trkpt>
      <trkpt lat="44.59711" lon="4.69146">
        <ele>322</ele>
        <time>2021-12-02T10:17:30+01:00</time>
      </trkpt>
      <trkpt lat="44.59647" lon="4.69016">
        <ele>343</ele>
        <time>2021-12-02T10:17:35+01:00</time>
      </trkpt>
      <trkpt lat="44.59544" lon="4.69011">
        <ele>340</ele>
        <time>2021-12-02T10:17:40+01:00</time>
      </trkpt>
      <trkpt lat="44.59526" lon="4.68944">
        <ele>342</ele>
        <time>2021-12-02T10:17:45+01:00</time>
      </trkpt>
      <trkpt lat="44.59477" lon="4.68891">
        <ele>338</ele>
        <time>2021-12-02T10:17:50+01:00</time>
      </trkpt>
      <trkpt lat="44.59485" lon="4.68839">
        <ele>345</ele>
        <time>2021-12-02T10:17:55+01:00</time>
      </trkpt>
      <trkpt lat="44.59434" lon="4.68714">
        <ele>353</ele>
        <time>2021-12-02T10:18:00+01:00</time>
      </trkpt>
      <trkpt lat="44.59434" lon="4.6858">
        <ele>361</ele>
        <time>2021-12-02T10:18:05+01:00</time>
      </trkpt>
      <trkpt lat="44.5934" lon="4.68467">
        <ele>343</ele>
        <time>2021-12-02T10:18:10+01:00</time>
      </trkpt>
      <trkpt lat="44.5934" lon="4.6842">
        <ele>346</ele>
        <time>2021-12-02T10:18:15+01:00</time>
      </trkpt>
      <trkpt lat="44.59466" lon="4.68298">
        <ele>371</ele>
        <time>2021-12-02T10:18:20+01:00</time>
      </trkpt>
      <trkpt lat="44.59434" lon="4.68255">
        <ele>359</ele>
        <time>2021-12-02T10:18:25+01:00</time>
      </trkpt>
      <trkpt lat="44.59445" lon="4.68156">
        <ele>360</ele>
        <time>2021-12-02T10:18:30+01:00</time>
      </trkpt>
      <trkpt lat="44.59478" lon="4.68098">
        <ele>363</ele>
        <time>2021-12-02T10:18:35+01:00</time>
      </trkpt>
      <trkpt lat="44.59528" lon="4.68113">
        <ele>376</ele>
        <time>2021-12-02T10:18:40+01:00</time>
      </trkpt>
      <trkpt lat="44.5958" lon="4.68053">
        <ele>380</ele>
        <time>2021-12-02T10:18:45+01:00</time>
      </trkpt>
      <trkpt lat="44.59596" lon="4.67966">
        <ele>375</ele>
        <time>2021-12-02T10:18:50+01:00</time>
      </trkpt>
      <trkpt lat="44.59638" lon="4.67959">
        <ele>388</ele>
        <time>2021-12-02T10:18:55+01:00</time>
      </trkpt>
      <trkpt lat="44.59601" lon="4.67864">
        <ele>370</ele>
        <time>2021-12-02T10:19:00+01:00</time>
      </trkpt>
      <trkpt lat="44.59649" lon="4.67764">
        <ele>379</ele>
        <time>2021-12-02T10:19:05+01:00</time>
      </trkpt>
      <trkpt lat="44.59619" lon="4.67729">
        <ele>370</ele>
        <time>2021-12-02T10:19:10+01:00</time>
      </trkpt>
      <trkpt lat="44.59606" lon="4.67607">
        <ele>371</ele>
        <time>2021-12-02T10:19:15+01:00</time>
      </trkpt>
      <trkpt lat="44.59544" lon="4.67497">
        <ele>374</ele>
        <time>2021-12-02T10:19:20+01:00</time>
      </trkpt>
      <trkpt lat="44.59462" lon="4.67445">
        <ele>371</ele>
        <time>2021-12-02T10:19:25+01:00</time>
      </trkpt>
      <trkpt lat="44.59443" lon="4.67475">
        <ele>361</ele>
        <time>2021-12-02T10:19:30+01:00</time>
      </trkpt>
      <trkpt lat="44.59297" lon="4.67318">
        <ele>364</ele>
        <time>2021-12-02T10:19:35+01:00</time>
      </trkpt>
      <trkpt lat="44.59267" lon="4.67236">
        <ele>355</ele>
        <time>2021-12-02T10:19:40+01:00</time>
      </trkpt>
      <trkpt lat="44.59352" lon="4.66917">
        <ele>353</ele>
        <time>2021-12-02T10:19:45+01:00</time>
      </trkpt>
      <trkpt lat="44.5934" lon="4.66831">
        <ele>343</ele>
        <time>2021-12-02T10:19:50+01:00</time>
      </trkpt>
      <trkpt lat="44.59352" lon="4.66761">
        <ele>350</ele>
        <time>2021-12-02T10:19:55+01:00</time>
      </trkpt>
      <trkpt lat="44.59338" lon="4.66659">
        <ele>346</ele>
        <time>2021-12-02T10:20:00+01:00</time>
      </trkpt>
      <trkpt lat="44.59361" lon="4.66563">
        <ele>362</ele>
        <time>2021-12-02T10:20:05+01:00</time>
      </trkpt>
      <trkpt lat="44.59288" lon="4.66624">
        <ele>354</ele>
        <time>2021-12-02T10:20:10+01:00</time>
      </trkpt>
      <trkpt lat="44.59216" lon="4.66735">
        <ele>342</ele>
        <time>2021-12-02T10:20:15+01:00</time>
      </trkpt>
      <trkpt lat="44.59159" lon="4.66713">
        <ele>361</ele>
        <time>2021-12-02T10:20:20+01:00</time>
      </trkpt>
      <trkpt lat="44.59132" lon="4.66751">
        <ele>358</ele>
        <time>2021-12-02T10:20:25+01:00</time>
      </trkpt>
      <trkpt lat="44.59123" lon="4.66697">
        <ele>372</ele>
        <time>2021-12-02T10:20:30+01:00</time>
      </trkpt>
      <trkpt lat="44.59182" lon="4.66576">
        <ele>388</ele>
        <time>2021-12-02T10:20:35+01:00</time>
      </trkpt>
      <trkpt lat="44.59046" lon="4.66592">
        <ele>414</ele>
        <time>2021-12-02T10:20:40+01:00</time>
      </trkpt>
      <trkpt lat="44.5908" lon="4.66538">
        <ele>420</ele>
        <time>2021-12-02T10:20:45+01:00</time>
      </trkpt>
      <trkpt lat="44.59021" lon="4.66538">
        <ele>431</ele>
        <time>2021-12-02T10:20:50+01:00</time>
      </trkpt>
      <trkpt lat="44.59062" lon="4.66439">
        <ele>449</ele>
        <time>2021-12-02T10:20:55+01:00</time>
      </trkpt>
      <trkpt lat="44.58898" lon="4.66547">
        <ele>449</ele>
        <time>2021-12-02T10:21:00+01:00</time>
      </trkpt>
      <trkpt lat="44.58844" lon="4.66436">
        <ele>460</ele>
        <time>2021-12-02T10:21:05+01:00</time>
      </trkpt>
      <trkpt lat="44.58801" lon="4.66337">
        <ele>461</ele>
        <time>2021-12-02T10:21:10+01:00</time>
      </trkpt>
      <trkpt lat="44.58543" lon="4.6607">
        <ele>450</ele>
        <time>2021-12-02T10:21:15+01:00</time>
      </trkpt>
      <trkpt lat="44.58298" lon="4.66121">
        <ele>428</ele>
        <time>2021-12-02T10:21:20+01:00</time>
      </trkpt>
      <trkpt lat="44.58083" lon="4.66124">
        <ele>425</ele>
        <time>2021-12-02T10:21:25+01:00</time>
      </trkpt>
      <trkpt lat="44.58005" lon="4.66185">
        <ele>430</ele>
        <time>2021-12-02T10:21:30+01:00</time>
      </trkpt>
      <trkpt lat="44.57881" lon="4.66201">
        <ele>434</ele>
        <time>2021-12-02T10:21:35+01:00</time>
      </trkpt>
      <trkpt lat="44.57835" lon="4.66258">
        <ele>425</ele>
        <time>2021-12-02T10:21:40+01:00</time>
      </trkpt>
      <trkpt lat="44.57722" lon="4.6628">
        <ele>407</ele>
        <time>2021-12-02T10:21:45+01:00</time>
      </trkpt>
      <trkpt lat="44.57654" lon="4.66213">
        <ele>402</ele>
        <time>2021-12-02T10:21:50+01:00</time>
      </trkpt>
      <trkpt lat="44.57473" lon="4.66252">
        <ele>405</ele>
        <time>2021-12-02T10:21:55+01:00</time>
      </trkpt>
      <trkpt lat="44.57307" lon="4.66207">
        <ele>397</ele>
        <time>2021-12-02T10:22:00+01:00</time>
      </trkpt>
      <trkpt lat="44.57103" lon="4.66112">
        <ele>394</ele>
        <time>2021-12-02T10:22:05+01:00</time>
      </trkpt>
      <trkpt lat="44.56999" lon="4.66137">
        <ele>400</ele>
        <time>2021-12-02T10:22:10+01:00</time>
      </trkpt>
      <trkpt lat="44.56809" lon="4.66264">
        <ele>385</ele>
        <time>2021-12-02T10:22:15+01:00</time>
      </trkpt>
      <trkpt lat="44.56636" lon="4.66258">
        <ele>375</ele>
        <time>2021-12-02T10:22:20+01:00</time>
      </trkpt>
      <trkpt lat="44.56725" lon="4.66407">
        <ele>361</ele>
        <time>2021-12-02T10:22:25+01:00</time>
      </trkpt>
      <trkpt lat="44.56722" lon="4.66484">
        <ele>347</ele>
        <time>2021-12-02T10:22:30+01:00</time>
      </trkpt>
      <trkpt lat="44.56598" lon="4.66563">
        <ele>336</ele>
        <time>2021-12-02T10:22:35+01:00</time>
      </trkpt>
      <trkpt lat="44.56478" lon="4.66703">
        <ele>322</ele>
        <time>2021-12-02T10:22:40+01:00</time>
      </trkpt>
      <trkpt lat="44.56389" lon="4.66783">
        <ele>296</ele>
        <time>2021-12-02T10:22:45+01:00</time>
      </trkpt>
      <trkpt lat="44.56353" lon="4.6678">
        <ele>287</ele>
        <time>2021-12-02T10:22:50+01:00</time>
      </trkpt>
      <trkpt lat="44.56244" lon="4.6691">
        <ele>258</ele>
        <time>2021-12-02T10:22:55+01:00</time>
      </trkpt>
      <trkpt lat="44.56138" lon="4.6698">
        <ele>246</ele>
        <time>2021-12-02T10:23:00+01:00</time>
      </trkpt>
      <trkpt lat="44.55967" lon="4.66999">
        <ele>231</ele>
        <time>2021-12-02T10:23:05+01:00</time>
      </trkpt>
      <trkpt lat="44.55958" lon="4.6706">
        <ele>226</ele>
        <time>2021-12-02T10:23:10+01:00</time>
      </trkpt>
      <trkpt lat="44.5599" lon="4.67111">
        <ele>223</ele>
        <time>2021-12-02T10:23:15+01:00</time>
      </trkpt>
      <trkpt lat="44.55897" lon="4.67225">
        <ele>212</ele>
        <time>2021-12-02T10:23:20+01:00</time>
      </trkpt>
      <trkpt lat="44.55838" lon="4.6734">
        <ele>208</ele>
        <time>2021-12-02T10:23:25+01:00</time>
      </trkpt>
      <trkpt lat="44.55623" lon="4.67372">
        <ele>207</ele>
        <time>2021-12-02T10:23:30+01:00</time>
      </trkpt>
      <trkpt lat="44.55448" lon="4.6762">
        <ele>203</ele>
        <time>2021-12-02T10:23:35+01:00</time>
      </trkpt>
      <trkpt lat="44.55359" lon="4.67742">
        <ele>203</ele>
        <time>2021-12-02T10:23:40+01:00</time>
      </trkpt>
      <trkpt lat="44.55359" lon="4.67858">
        <ele>204</ele>
        <time>2021-12-02T10:23:45+01:00</time>
      </trkpt>
      <trkpt lat="44.55392" lon="4.68021">
        <ele>203</ele>
        <time>2021-12-02T10:23:50+01:00</time>
      </trkpt>
      <trkpt lat="44.55376" lon="4.68103">
        <ele>189</ele>
        <time>2021-12-02T10:23:55+01:00</time>
      </trkpt>
      <trkpt lat="44.5537" lon="4.6815">
        <ele>178</ele>
        <time>2021-12-02T10:24:00+01:00</time>
      </trkpt>
      <trkpt lat="44.55518" lon="4.68311">
        <ele>176</ele>
        <time>2021-12-02T10:24:05+01:00</time>
      </trkpt>
      <trkpt lat="44.55503" lon="4.68394">
        <ele>150</ele>
        <time>2021-12-02T10:24:10+01:00</time>
      </trkpt>
      <trkpt lat="44.55477" lon="4.68399">
        <ele>139</ele>
        <time>2021-12-02T10:24:15+01:00</time>
      </trkpt>
      <trkpt lat="44.55473" lon="4.68349">
        <ele>147</ele>
        <time>2021-12-02T10:24:20+01:00</time>
      </trkpt>
      <trkpt lat="44.55419" lon="4.6833">
        <ele>132</ele>
        <time>2021-12-02T10:24:25+01:00</time>
      </trkpt>
      <trkpt lat="44.55333" lon="4.68326">
        <ele>111</ele>
        <time>2021-12-02T10:24:30+01:00</time>
      </trkpt>
      <trkpt lat="44.55225" lon="4.68244">
        <ele>100</ele>
        <time>2021-12-02T10:24:35+01:00</time>
      </trkpt>
      <trkpt lat="44.5519" lon="4.68188">
        <ele>101</ele>
        <time>2021-12-02T10:24:40+01:00</time>
      </trkpt>
      <trkpt lat="44.55159" lon="4.68216">
        <ele>90</ele>
        <time>2021-12-02T10:24:45+01:00</time>
      </trkpt>
      <trkpt lat="44.55037" lon="4.68188">
        <ele>81</ele>
        <time>2021-12-02T10:24:50+01:00</time>
      </trkpt>
      <trkpt lat="44.54992" lon="4.6824">
        <ele>75</ele>
        <time>2021-12-02T10:24:55+01:00</time>
      </trkpt>
      <trkpt lat="44.54919" lon="4.68186">
        <ele>75</ele>
        <time>2021-12-02T10:25:00+01:00</time>
      </trkpt>
      <trkpt lat="44.54624" lon="4.68088">
        <ele>75</ele>
        <time>2021-12-02T10:25:05+01:00</time>
      </trkpt>
      <trkpt lat="44.54531" lon="4.68098">
        <ele>75</ele>
        <time>2021-12-02T10:25:10+01:00</time>
      </trkpt>
      <trkpt lat="44.5413" lon="4.68377">
        <ele>83</ele>
        <time>2021-12-02T10:25:15+01:00</time>
      </trkpt>
      <trkpt lat="44.54086" lon="4.68448">
        <ele>83</ele>
        <time>2021-12-02T10:25:20+01:00</time>
      </trkpt>
      <trkpt lat="44.54153" lon="4.68409">
        <ele>79</ele>
        <time>2021-12-02T10:25:25+01:00</time>
      </trkpt>
      <trkpt lat="44.5417" lon="4.68437">
        <ele>76</ele>
        <time>2021-12-02T10:25:30+01:00</time>
      </trkpt>
    </trkseg>
  </trk>
  <trk>
    <name><![CDATA[49 - LE TEIL LE MOURE 19.6 KM]]></name>
    <extensions>
      <line xmlns="http://www.topografix.com/GPX/gpx_style/0/2">
        <color>880088</color>
        <width>4</width>
      </line>
    </extensions>
    <trkseg>
      <trkpt lat="44.54168" lon="4.68433">
        <ele>77</ele>
        <time>2021-12-14T09:36:39+01:00</time>
      </trkpt>
      <trkpt lat="44.5414" lon="4.68414">
        <ele>80</ele>
        <time>2021-12-14T09:36:44+01:00</time>
      </trkpt>
      <trkpt lat="44.5409" lon="4.68455">
        <ele>82</ele>
        <time>2021-12-14T09:36:49+01:00</time>
      </trkpt>
      <trkpt lat="44.54127" lon="4.68385">
        <ele>83</ele>
        <time>2021-12-14T09:36:54+01:00</time>
      </trkpt>
      <trkpt lat="44.54078" lon="4.6828">
        <ele>91</ele>
        <time>2021-12-14T09:36:59+01:00</time>
      </trkpt>
      <trkpt lat="44.54085" lon="4.68378">
        <ele>89</ele>
        <time>2021-12-14T09:37:04+01:00</time>
      </trkpt>
      <trkpt lat="44.53997" lon="4.68243">
        <ele>105</ele>
        <time>2021-12-14T09:37:09+01:00</time>
      </trkpt>
      <trkpt lat="44.53943" lon="4.68161">
        <ele>105</ele>
        <time>2021-12-14T09:37:14+01:00</time>
      </trkpt>
      <trkpt lat="44.53909" lon="4.68033">
        <ele>116</ele>
        <time>2021-12-14T09:37:19+01:00</time>
      </trkpt>
      <trkpt lat="44.53829" lon="4.67937">
        <ele>120</ele>
        <time>2021-12-14T09:37:24+01:00</time>
      </trkpt>
      <trkpt lat="44.53772" lon="4.67793">
        <ele>119</ele>
        <time>2021-12-14T09:37:29+01:00</time>
      </trkpt>
      <trkpt lat="44.53758" lon="4.67697">
        <ele>122</ele>
        <time>2021-12-14T09:37:34+01:00</time>
      </trkpt>
      <trkpt lat="44.53717" lon="4.67631">
        <ele>120</ele>
        <time>2021-12-14T09:37:39+01:00</time>
      </trkpt>
      <trkpt lat="44.53672" lon="4.6749">
        <ele>120</ele>
        <time>2021-12-14T09:37:44+01:00</time>
      </trkpt>
      <trkpt lat="44.5366" lon="4.67419">
        <ele>128</ele>
        <time>2021-12-14T09:37:49+01:00</time>
      </trkpt>
      <trkpt lat="44.53655" lon="4.67286">
        <ele>135</ele>
        <time>2021-12-14T09:37:54+01:00</time>
      </trkpt>
      <trkpt lat="44.5368" lon="4.67243">
        <ele>138</ele>
        <time>2021-12-14T09:37:59+01:00</time>
      </trkpt>
      <trkpt lat="44.53628" lon="4.67174">
        <ele>141</ele>
        <time>2021-12-14T09:38:04+01:00</time>
      </trkpt>
      <trkpt lat="44.53611" lon="4.67079">
        <ele>142</ele>
        <time>2021-12-14T09:38:09+01:00</time>
      </trkpt>
      <trkpt lat="44.53579" lon="4.67051">
        <ele>143</ele>
        <time>2021-12-14T09:38:14+01:00</time>
      </trkpt>
      <trkpt lat="44.53564" lon="4.66791">
        <ele>153</ele>
        <time>2021-12-14T09:38:19+01:00</time>
      </trkpt>
      <trkpt lat="44.53475" lon="4.66738">
        <ele>155</ele>
        <time>2021-12-14T09:38:24+01:00</time>
      </trkpt>
      <trkpt lat="44.53478" lon="4.66608">
        <ele>155</ele>
        <time>2021-12-14T09:38:29+01:00</time>
      </trkpt>
      <trkpt lat="44.53427" lon="4.6651">
        <ele>157</ele>
        <time>2021-12-14T09:38:34+01:00</time>
      </trkpt>
      <trkpt lat="44.53282" lon="4.66373">
        <ele>162</ele>
        <time>2021-12-14T09:38:39+01:00</time>
      </trkpt>
      <trkpt lat="44.53245" lon="4.66284">
        <ele>171</ele>
        <time>2021-12-14T09:38:44+01:00</time>
      </trkpt>
      <trkpt lat="44.53175" lon="4.66165">
        <ele>189</ele>
        <time>2021-12-14T09:38:49+01:00</time>
      </trkpt>
      <trkpt lat="44.53099" lon="4.66122">
        <ele>200</ele>
        <time>2021-12-14T09:38:54+01:00</time>
      </trkpt>
      <trkpt lat="44.53033" lon="4.66142">
        <ele>213</ele>
        <time>2021-12-14T09:38:59+01:00</time>
      </trkpt>
      <trkpt lat="44.53017" lon="4.66181">
        <ele>217</ele>
        <time>2021-12-14T09:39:04+01:00</time>
      </trkpt>
      <trkpt lat="44.53045" lon="4.66204">
        <ele>212</ele>
        <time>2021-12-14T09:39:09+01:00</time>
      </trkpt>
      <trkpt lat="44.53016" lon="4.66257">
        <ele>215</ele>
        <time>2021-12-14T09:39:14+01:00</time>
      </trkpt>
      <trkpt lat="44.52898" lon="4.66268">
        <ele>227</ele>
        <time>2021-12-14T09:39:19+01:00</time>
      </trkpt>
      <trkpt lat="44.52827" lon="4.66245">
        <ele>234</ele>
        <time>2021-12-14T09:39:24+01:00</time>
      </trkpt>
      <trkpt lat="44.52683" lon="4.65976">
        <ele>258</ele>
        <time>2021-12-14T09:39:29+01:00</time>
      </trkpt>
      <trkpt lat="44.52677" lon="4.65914">
        <ele>262</ele>
        <time>2021-12-14T09:39:34+01:00</time>
      </trkpt>
      <trkpt lat="44.52639" lon="4.65845">
        <ele>269</ele>
        <time>2021-12-14T09:39:39+01:00</time>
      </trkpt>
      <trkpt lat="44.52548" lon="4.65688">
        <ele>281</ele>
        <time>2021-12-14T09:39:44+01:00</time>
      </trkpt>
      <trkpt lat="44.52543" lon="4.65578">
        <ele>284</ele>
        <time>2021-12-14T09:39:49+01:00</time>
      </trkpt>
      <trkpt lat="44.52552" lon="4.65501">
        <ele>292</ele>
        <time>2021-12-14T09:39:54+01:00</time>
      </trkpt>
      <trkpt lat="44.52579" lon="4.6545">
        <ele>293</ele>
        <time>2021-12-14T09:39:59+01:00</time>
      </trkpt>
      <trkpt lat="44.52578" lon="4.65316">
        <ele>299</ele>
        <time>2021-12-14T09:40:04+01:00</time>
      </trkpt>
      <trkpt lat="44.52657" lon="4.65083">
        <ele>292</ele>
        <time>2021-12-14T09:40:09+01:00</time>
      </trkpt>
      <trkpt lat="44.52644" lon="4.64955">
        <ele>298</ele>
        <time>2021-12-14T09:40:14+01:00</time>
      </trkpt>
      <trkpt lat="44.52618" lon="4.64825">
        <ele>308</ele>
        <time>2021-12-14T09:40:19+01:00</time>
      </trkpt>
      <trkpt lat="44.52609" lon="4.64701">
        <ele>315</ele>
        <time>2021-12-14T09:40:24+01:00</time>
      </trkpt>
      <trkpt lat="44.52555" lon="4.64587">
        <ele>322</ele>
        <time>2021-12-14T09:40:29+01:00</time>
      </trkpt>
      <trkpt lat="44.52433" lon="4.64434">
        <ele>335</ele>
        <time>2021-12-14T09:40:34+01:00</time>
      </trkpt>
      <trkpt lat="44.52399" lon="4.64336">
        <ele>339</ele>
        <time>2021-12-14T09:40:39+01:00</time>
      </trkpt>
      <trkpt lat="44.52371" lon="4.6427">
        <ele>339</ele>
        <time>2021-12-14T09:40:44+01:00</time>
      </trkpt>
      <trkpt lat="44.52255" lon="4.64151">
        <ele>339</ele>
        <time>2021-12-14T09:40:49+01:00</time>
      </trkpt>
      <trkpt lat="44.52185" lon="4.64058">
        <ele>338</ele>
        <time>2021-12-14T09:40:54+01:00</time>
      </trkpt>
      <trkpt lat="44.52135" lon="4.64019">
        <ele>336</ele>
        <time>2021-12-14T09:40:59+01:00</time>
      </trkpt>
      <trkpt lat="44.52071" lon="4.63971">
        <ele>327</ele>
        <time>2021-12-14T09:41:04+01:00</time>
      </trkpt>
      <trkpt lat="44.52055" lon="4.63907">
        <ele>320</ele>
        <time>2021-12-14T09:41:09+01:00</time>
      </trkpt>
      <trkpt lat="44.51935" lon="4.63795">
        <ele>293</ele>
        <time>2021-12-14T09:41:14+01:00</time>
      </trkpt>
      <trkpt lat="44.51788" lon="4.63822">
        <ele>274</ele>
        <time>2021-12-14T09:41:19+01:00</time>
      </trkpt>
      <trkpt lat="44.51628" lon="4.63802">
        <ele>267</ele>
        <time>2021-12-14T09:41:24+01:00</time>
      </trkpt>
      <trkpt lat="44.51506" lon="4.63713">
        <ele>257</ele>
        <time>2021-12-14T09:41:29+01:00</time>
      </trkpt>
      <trkpt lat="44.51392" lon="4.63635">
        <ele>256</ele>
        <time>2021-12-14T09:41:34+01:00</time>
      </trkpt>
      <trkpt lat="44.512" lon="4.63516">
        <ele>268</ele>
        <time>2021-12-14T09:41:39+01:00</time>
      </trkpt>
      <trkpt lat="44.51177" lon="4.63462">
        <ele>262</ele>
        <time>2021-12-14T09:41:44+01:00</time>
      </trkpt>
      <trkpt lat="44.51008" lon="4.63343">
        <ele>250</ele>
        <time>2021-12-14T09:41:49+01:00</time>
      </trkpt>
      <trkpt lat="44.50837" lon="4.6308">
        <ele>221</ele>
        <time>2021-12-14T09:41:54+01:00</time>
      </trkpt>
      <trkpt lat="44.50787" lon="4.63023">
        <ele>207</ele>
        <time>2021-12-14T09:41:59+01:00</time>
      </trkpt>
      <trkpt lat="44.50816" lon="4.63016">
        <ele>207</ele>
        <time>2021-12-14T09:42:04+01:00</time>
      </trkpt>
      <trkpt lat="44.50975" lon="4.63103">
        <ele>200</ele>
        <time>2021-12-14T09:42:09+01:00</time>
      </trkpt>
      <trkpt lat="44.50935" lon="4.63014">
        <ele>184</ele>
        <time>2021-12-14T09:42:14+01:00</time>
      </trkpt>
      <trkpt lat="44.50832" lon="4.62927">
        <ele>183</ele>
        <time>2021-12-14T09:42:19+01:00</time>
      </trkpt>
      <trkpt lat="44.50715" lon="4.62818">
        <ele>171</ele>
        <time>2021-12-14T09:42:24+01:00</time>
      </trkpt>
      <trkpt lat="44.50686" lon="4.62763">
        <ele>165</ele>
        <time>2021-12-14T09:42:29+01:00</time>
      </trkpt>
      <trkpt lat="44.50625" lon="4.6311">
        <ele>168</ele>
        <time>2021-12-14T09:42:34+01:00</time>
      </trkpt>
      <trkpt lat="44.5058" lon="4.6311">
        <ele>153</ele>
        <time>2021-12-14T09:42:39+01:00</time>
      </trkpt>
      <trkpt lat="44.50572" lon="4.63146">
        <ele>153</ele>
        <time>2021-12-14T09:42:44+01:00</time>
      </trkpt>
      <trkpt lat="44.50533" lon="4.63153">
        <ele>146</ele>
        <time>2021-12-14T09:42:49+01:00</time>
      </trkpt>
      <trkpt lat="44.5049" lon="4.63286">
        <ele>147</ele>
        <time>2021-12-14T09:42:54+01:00</time>
      </trkpt>
      <trkpt lat="44.50425" lon="4.63201">
        <ele>132</ele>
        <time>2021-12-14T09:42:59+01:00</time>
      </trkpt>
      <trkpt lat="44.5041" lon="4.63165">
        <ele>129</ele>
        <time>2021-12-14T09:43:04+01:00</time>
      </trkpt>
      <trkpt lat="44.50353" lon="4.63119">
        <ele>121</ele>
        <time>2021-12-14T09:43:09+01:00</time>
      </trkpt>
      <trkpt lat="44.50278" lon="4.63037">
        <ele>110</ele>
        <time>2021-12-14T09:43:14+01:00</time>
      </trkpt>
      <trkpt lat="44.50419" lon="4.62774">
        <ele>107</ele>
        <time>2021-12-14T09:43:19+01:00</time>
      </trkpt>
      <trkpt lat="44.50293" lon="4.62676">
        <ele>109</ele>
        <time>2021-12-14T09:43:24+01:00</time>
      </trkpt>
      <trkpt lat="44.50226" lon="4.62658">
        <ele>117</ele>
        <time>2021-12-14T09:43:29+01:00</time>
      </trkpt>
      <trkpt lat="44.50155" lon="4.6269">
        <ele>128</ele>
        <time>2021-12-14T09:43:34+01:00</time>
      </trkpt>
      <trkpt lat="44.50114" lon="4.62783">
        <ele>129</ele>
        <time>2021-12-14T09:43:39+01:00</time>
      </trkpt>
      <trkpt lat="44.5002" lon="4.62888">
        <ele>115</ele>
        <time>2021-12-14T09:43:44+01:00</time>
      </trkpt>
      <trkpt lat="44.49951" lon="4.62813">
        <ele>123</ele>
        <time>2021-12-14T09:43:49+01:00</time>
      </trkpt>
      <trkpt lat="44.49909" lon="4.62665">
        <ele>120</ele>
        <time>2021-12-14T09:43:54+01:00</time>
      </trkpt>
      <trkpt lat="44.49845" lon="4.62635">
        <ele>113</ele>
        <time>2021-12-14T09:43:59+01:00</time>
      </trkpt>
      <trkpt lat="44.4985" lon="4.62742">
        <ele>111</ele>
        <time>2021-12-14T09:44:04+01:00</time>
      </trkpt>
      <trkpt lat="44.49816" lon="4.62797">
        <ele>105</ele>
        <time>2021-12-14T09:44:09+01:00</time>
      </trkpt>
      <trkpt lat="44.49767" lon="4.6277">
        <ele>105</ele>
        <time>2021-12-14T09:44:14+01:00</time>
      </trkpt>
      <trkpt lat="44.49739" lon="4.62843">
        <ele>109</ele>
        <time>2021-12-14T09:44:19+01:00</time>
      </trkpt>
      <trkpt lat="44.49785" lon="4.62882">
        <ele>109</ele>
        <time>2021-12-14T09:44:24+01:00</time>
      </trkpt>
      <trkpt lat="44.49759" lon="4.62998">
        <ele>129</ele>
        <time>2021-12-14T09:44:29+01:00</time>
      </trkpt>
      <trkpt lat="44.49834" lon="4.6303">
        <ele>115</ele>
        <time>2021-12-14T09:44:34+01:00</time>
      </trkpt>
      <trkpt lat="44.49888" lon="4.63019">
        <ele>106</ele>
        <time>2021-12-14T09:44:39+01:00</time>
      </trkpt>
      <trkpt lat="44.49914" lon="4.63121">
        <ele>103</ele>
        <time>2021-12-14T09:44:44+01:00</time>
      </trkpt>
      <trkpt lat="44.49891" lon="4.63226">
        <ele>111</ele>
        <time>2021-12-14T09:44:49+01:00</time>
      </trkpt>
      <trkpt lat="44.49871" lon="4.63247">
        <ele>116</ele>
        <time>2021-12-14T09:44:54+01:00</time>
      </trkpt>
      <trkpt lat="44.4985" lon="4.63473">
        <ele>112</ele>
        <time>2021-12-14T09:44:59+01:00</time>
      </trkpt>
      <trkpt lat="44.49809" lon="4.63599">
        <ele>102</ele>
        <time>2021-12-14T09:45:04+01:00</time>
      </trkpt>
      <trkpt lat="44.49808" lon="4.63674">
        <ele>97</ele>
        <time>2021-12-14T09:45:09+01:00</time>
      </trkpt>
      <trkpt lat="44.49842" lon="4.63706">
        <ele>96</ele>
        <time>2021-12-14T09:45:14+01:00</time>
      </trkpt>
      <trkpt lat="44.49821" lon="4.63834">
        <ele>95</ele>
        <time>2021-12-14T09:45:19+01:00</time>
      </trkpt>
      <trkpt lat="44.49575" lon="4.63886">
        <ele>106</ele>
        <time>2021-12-14T09:45:24+01:00</time>
      </trkpt>
      <trkpt lat="44.49423" lon="4.64051">
        <ele>106</ele>
        <time>2021-12-14T09:45:29+01:00</time>
      </trkpt>
      <trkpt lat="44.49425" lon="4.64117">
        <ele>109</ele>
        <time>2021-12-14T09:45:34+01:00</time>
      </trkpt>
      <trkpt lat="44.49432" lon="4.64153">
        <ele>109</ele>
        <time>2021-12-14T09:45:39+01:00</time>
      </trkpt>
      <trkpt lat="44.49376" lon="4.64204">
        <ele>123</ele>
        <time>2021-12-14T09:45:44+01:00</time>
      </trkpt>
      <trkpt lat="44.49397" lon="4.64272">
        <ele>120</ele>
        <time>2021-12-14T09:45:49+01:00</time>
      </trkpt>
      <trkpt lat="44.49371" lon="4.64345">
        <ele>129</ele>
        <time>2021-12-14T09:45:54+01:00</time>
      </trkpt>
      <trkpt lat="44.49339" lon="4.64379">
        <ele>138</ele>
        <time>2021-12-14T09:45:59+01:00</time>
      </trkpt>
      <trkpt lat="44.49363" lon="4.644">
        <ele>133</ele>
        <time>2021-12-14T09:46:04+01:00</time>
      </trkpt>
      <trkpt lat="44.49404" lon="4.6451">
        <ele>129</ele>
        <time>2021-12-14T09:46:09+01:00</time>
      </trkpt>
      <trkpt lat="44.49389" lon="4.64571">
        <ele>130</ele>
        <time>2021-12-14T09:46:14+01:00</time>
      </trkpt>
      <trkpt lat="44.49324" lon="4.64745">
        <ele>135</ele>
        <time>2021-12-14T09:46:19+01:00</time>
      </trkpt>
      <trkpt lat="44.49254" lon="4.65005">
        <ele>123</ele>
        <time>2021-12-14T09:46:24+01:00</time>
      </trkpt>
      <trkpt lat="44.49236" lon="4.65058">
        <ele>122</ele>
        <time>2021-12-14T09:46:29+01:00</time>
      </trkpt>
      <trkpt lat="44.49234" lon="4.6514">
        <ele>122</ele>
        <time>2021-12-14T09:46:34+01:00</time>
      </trkpt>
      <trkpt lat="44.49259" lon="4.65206">
        <ele>116</ele>
        <time>2021-12-14T09:46:39+01:00</time>
      </trkpt>
      <trkpt lat="44.49256" lon="4.65286">
        <ele>116</ele>
        <time>2021-12-14T09:46:44+01:00</time>
      </trkpt>
      <trkpt lat="44.49301" lon="4.65414">
        <ele>110</ele>
        <time>2021-12-14T09:46:49+01:00</time>
      </trkpt>
      <trkpt lat="44.49298" lon="4.65469">
        <ele>109</ele>
        <time>2021-12-14T09:46:54+01:00</time>
      </trkpt>
      <trkpt lat="44.49303" lon="4.65624">
        <ele>105</ele>
        <time>2021-12-14T09:46:59+01:00</time>
      </trkpt>
      <trkpt lat="44.49337" lon="4.65802">
        <ele>93</ele>
        <time>2021-12-14T09:47:04+01:00</time>
      </trkpt>
      <trkpt lat="44.49304" lon="4.66065">
        <ele>78</ele>
        <time>2021-12-14T09:47:09+01:00</time>
      </trkpt>
      <trkpt lat="44.49218" lon="4.6609">
        <ele>77</ele>
        <time>2021-12-14T09:47:14+01:00</time>
      </trkpt>
      <trkpt lat="44.4907" lon="4.65985">
        <ele>78</ele>
        <time>2021-12-14T09:47:19+01:00</time>
      </trkpt>
      <trkpt lat="44.49057" lon="4.65845">
        <ele>88</ele>
        <time>2021-12-14T09:47:24+01:00</time>
      </trkpt>
      <trkpt lat="44.49023" lon="4.65864">
        <ele>88</ele>
        <time>2021-12-14T09:47:29+01:00</time>
      </trkpt>
      <trkpt lat="44.48858" lon="4.659">
        <ele>88</ele>
        <time>2021-12-14T09:47:34+01:00</time>
      </trkpt>
      <trkpt lat="44.48611" lon="4.66222">
        <ele>84</ele>
        <time>2021-12-14T09:47:39+01:00</time>
      </trkpt>
      <trkpt lat="44.48611" lon="4.66307">
        <ele>87</ele>
        <time>2021-12-14T09:47:44+01:00</time>
      </trkpt>
      <trkpt lat="44.48707" lon="4.66457">
        <ele>86</ele>
        <time>2021-12-14T09:47:49+01:00</time>
      </trkpt>
      <trkpt lat="44.48655" lon="4.66551">
        <ele>93</ele>
        <time>2021-12-14T09:47:54+01:00</time>
      </trkpt>
      <trkpt lat="44.4864" lon="4.66601">
        <ele>93</ele>
        <time>2021-12-14T09:47:59+01:00</time>
      </trkpt>
      <trkpt lat="44.48593" lon="4.66684">
        <ele>100</ele>
        <time>2021-12-14T09:48:04+01:00</time>
      </trkpt>
      <trkpt lat="44.48628" lon="4.66765">
        <ele>97</ele>
        <time>2021-12-14T09:48:09+01:00</time>
      </trkpt>
      <trkpt lat="44.48566" lon="4.66686">
        <ele>107</ele>
        <time>2021-12-14T09:48:14+01:00</time>
      </trkpt>
      <trkpt lat="44.4844" lon="4.66468">
        <ele>117</ele>
        <time>2021-12-14T09:48:19+01:00</time>
      </trkpt>
      <trkpt lat="44.48331" lon="4.66372">
        <ele>129</ele>
        <time>2021-12-14T09:48:24+01:00</time>
      </trkpt>
      <trkpt lat="44.48206" lon="4.66292">
        <ele>135</ele>
        <time>2021-12-14T09:48:29+01:00</time>
      </trkpt>
      <trkpt lat="44.48173" lon="4.66292">
        <ele>132</ele>
        <time>2021-12-14T09:48:34+01:00</time>
      </trkpt>
      <trkpt lat="44.48158" lon="4.66324">
        <ele>129</ele>
        <time>2021-12-14T09:48:39+01:00</time>
      </trkpt>
      <trkpt lat="44.48143" lon="4.6628">
        <ele>128</ele>
        <time>2021-12-14T09:48:44+01:00</time>
      </trkpt>
      <trkpt lat="44.48104" lon="4.66306">
        <ele>119</ele>
        <time>2021-12-14T09:48:49+01:00</time>
      </trkpt>
      <trkpt lat="44.4803" lon="4.66133">
        <ele>126</ele>
        <time>2021-12-14T09:48:54+01:00</time>
      </trkpt>
      <trkpt lat="44.47884" lon="4.66046">
        <ele>127</ele>
        <time>2021-12-14T09:48:59+01:00</time>
      </trkpt>
      <trkpt lat="44.4786" lon="4.65962">
        <ele>133</ele>
        <time>2021-12-14T09:49:04+01:00</time>
      </trkpt>
      <trkpt lat="44.47796" lon="4.65904">
        <ele>143</ele>
        <time>2021-12-14T09:49:09+01:00</time>
      </trkpt>
      <trkpt lat="44.47702" lon="4.65945">
        <ele>143</ele>
        <time>2021-12-14T09:49:14+01:00</time>
      </trkpt>
      <trkpt lat="44.47521" lon="4.65532">
        <ele>166</ele>
        <time>2021-12-14T09:49:19+01:00</time>
      </trkpt>
      <trkpt lat="44.47438" lon="4.65235">
        <ele>177</ele>
        <time>2021-12-14T09:49:24+01:00</time>
      </trkpt>
      <trkpt lat="44.47387" lon="4.6525">
        <ele>170</ele>
        <time>2021-12-14T09:49:29+01:00</time>
      </trkpt>
      <trkpt lat="44.47364" lon="4.65161">
        <ele>188</ele>
        <time>2021-12-14T09:49:34+01:00</time>
      </trkpt>
      <trkpt lat="44.47338" lon="4.65189">
        <ele>185</ele>
        <time>2021-12-14T09:49:39+01:00</time>
      </trkpt>
      <trkpt lat="44.47293" lon="4.65047">
        <ele>210</ele>
        <time>2021-12-14T09:49:44+01:00</time>
      </trkpt>
      <trkpt lat="44.47223" lon="4.64963">
        <ele>207</ele>
        <time>2021-12-14T09:49:49+01:00</time>
      </trkpt>
      <trkpt lat="44.47149" lon="4.64891">
        <ele>205</ele>
        <time>2021-12-14T09:49:54+01:00</time>
      </trkpt>
      <trkpt lat="44.47093" lon="4.64799">
        <ele>207</ele>
        <time>2021-12-14T09:49:59+01:00</time>
      </trkpt>
      <trkpt lat="44.47078" lon="4.64678">
        <ele>212</ele>
        <time>2021-12-14T09:50:04+01:00</time>
      </trkpt>
      <trkpt lat="44.47041" lon="4.64579">
        <ele>224</ele>
        <time>2021-12-14T09:50:09+01:00</time>
      </trkpt>
      <trkpt lat="44.46976" lon="4.64401">
        <ele>230</ele>
        <time>2021-12-14T09:50:14+01:00</time>
      </trkpt>
      <trkpt lat="44.46926" lon="4.64343">
        <ele>236</ele>
        <time>2021-12-14T09:50:19+01:00</time>
      </trkpt>
      <trkpt lat="44.46863" lon="4.64313">
        <ele>245</ele>
        <time>2021-12-14T09:50:24+01:00</time>
      </trkpt>
      <trkpt lat="44.46815" lon="4.64294">
        <ele>249</ele>
        <time>2021-12-14T09:50:29+01:00</time>
      </trkpt>
      <trkpt lat="44.46759" lon="4.64208">
        <ele>254</ele>
        <time>2021-12-14T09:50:34+01:00</time>
      </trkpt>
      <trkpt lat="44.46709" lon="4.64145">
        <ele>257</ele>
        <time>2021-12-14T09:50:39+01:00</time>
      </trkpt>
      <trkpt lat="44.46621" lon="4.64024">
        <ele>264</ele>
        <time>2021-12-14T09:50:44+01:00</time>
      </trkpt>
      <trkpt lat="44.46491" lon="4.63959">
        <ele>275</ele>
        <time>2021-12-14T09:50:49+01:00</time>
      </trkpt>
      <trkpt lat="44.46314" lon="4.63623">
        <ele>287</ele>
        <time>2021-12-14T09:50:54+01:00</time>
      </trkpt>
      <trkpt lat="44.46276" lon="4.63592">
        <ele>293</ele>
        <time>2021-12-14T09:50:59+01:00</time>
      </trkpt>
      <trkpt lat="44.46265" lon="4.63503">
        <ele>294</ele>
        <time>2021-12-14T09:51:04+01:00</time>
      </trkpt>
      <trkpt lat="44.46239" lon="4.63448">
        <ele>297</ele>
        <time>2021-12-14T09:51:09+01:00</time>
      </trkpt>
      <trkpt lat="44.4618" lon="4.63431">
        <ele>292</ele>
        <time>2021-12-14T09:51:14+01:00</time>
      </trkpt>
      <trkpt lat="44.46167" lon="4.63341">
        <ele>292</ele>
        <time>2021-12-14T09:51:19+01:00</time>
      </trkpt>
      <trkpt lat="44.46142" lon="4.63267">
        <ele>290</ele>
        <time>2021-12-14T09:51:24+01:00</time>
      </trkpt>
      <trkpt lat="44.46006" lon="4.63016">
        <ele>271</ele>
        <time>2021-12-14T09:51:29+01:00</time>
      </trkpt>
      <trkpt lat="44.46045" lon="4.62955">
        <ele>277</ele>
        <time>2021-12-14T09:51:34+01:00</time>
      </trkpt>
      <trkpt lat="44.46192" lon="4.63049">
        <ele>292</ele>
        <time>2021-12-14T09:51:39+01:00</time>
      </trkpt>
      <trkpt lat="44.46265" lon="4.63056">
        <ele>300</ele>
        <time>2021-12-14T09:51:44+01:00</time>
      </trkpt>
      <trkpt lat="44.46232" lon="4.63182">
        <ele>307</ele>
        <time>2021-12-14T09:51:49+01:00</time>
      </trkpt>
    </trkseg>
  </trk>
  <trk>
    <name><![CDATA[50 - ST MONTAN LE MOURE ST MARTIN D ARDECHE 24.4 KM]]></name>
    <extensions>
      <line xmlns="http://www.topografix.com/GPX/gpx_style/0/2">
        <color>0000FF</color>
        <width>4</width>
      </line>
    </extensions>
    <trkseg>
      <trkpt lat="44.46233" lon="4.63193">
        <ele>307</ele>
        <time>2021-12-14T10:39:33+01:00</time>
      </trkpt>
      <trkpt lat="44.46268" lon="4.63044">
        <ele>299</ele>
        <time>2021-12-14T10:39:38+01:00</time>
      </trkpt>
      <trkpt lat="44.46193" lon="4.63059">
        <ele>292</ele>
        <time>2021-12-14T10:39:43+01:00</time>
      </trkpt>
      <trkpt lat="44.46106" lon="4.62974">
        <ele>285</ele>
        <time>2021-12-14T10:39:48+01:00</time>
      </trkpt>
      <trkpt lat="44.46034" lon="4.62963">
        <ele>276</ele>
        <time>2021-12-14T10:39:53+01:00</time>
      </trkpt>
      <trkpt lat="44.46005" lon="4.63011">
        <ele>272</ele>
        <time>2021-12-14T10:39:58+01:00</time>
      </trkpt>
      <trkpt lat="44.45955" lon="4.6287">
        <ele>266</ele>
        <time>2021-12-14T10:40:03+01:00</time>
      </trkpt>
      <trkpt lat="44.45846" lon="4.62818">
        <ele>258</ele>
        <time>2021-12-14T10:40:08+01:00</time>
      </trkpt>
      <trkpt lat="44.45785" lon="4.62762">
        <ele>251</ele>
        <time>2021-12-14T10:40:13+01:00</time>
      </trkpt>
      <trkpt lat="44.45719" lon="4.62784">
        <ele>251</ele>
        <time>2021-12-14T10:40:18+01:00</time>
      </trkpt>
      <trkpt lat="44.45632" lon="4.62755">
        <ele>251</ele>
        <time>2021-12-14T10:40:23+01:00</time>
      </trkpt>
      <trkpt lat="44.45541" lon="4.62684">
        <ele>246</ele>
        <time>2021-12-14T10:40:28+01:00</time>
      </trkpt>
      <trkpt lat="44.4538" lon="4.62599">
        <ele>240</ele>
        <time>2021-12-14T10:40:33+01:00</time>
      </trkpt>
      <trkpt lat="44.45274" lon="4.62588">
        <ele>233</ele>
        <time>2021-12-14T10:40:38+01:00</time>
      </trkpt>
      <trkpt lat="44.45075" lon="4.62521">
        <ele>229</ele>
        <time>2021-12-14T10:40:43+01:00</time>
      </trkpt>
      <trkpt lat="44.4499" lon="4.62521">
        <ele>229</ele>
        <time>2021-12-14T10:40:48+01:00</time>
      </trkpt>
      <trkpt lat="44.44924" lon="4.62654">
        <ele>213</ele>
        <time>2021-12-14T10:40:53+01:00</time>
      </trkpt>
      <trkpt lat="44.44828" lon="4.62706">
        <ele>202</ele>
        <time>2021-12-14T10:40:58+01:00</time>
      </trkpt>
      <trkpt lat="44.44722" lon="4.62718">
        <ele>193</ele>
        <time>2021-12-14T10:41:03+01:00</time>
      </trkpt>
      <trkpt lat="44.44444" lon="4.62584">
        <ele>166</ele>
        <time>2021-12-14T10:41:08+01:00</time>
      </trkpt>
      <trkpt lat="44.44431" lon="4.62484">
        <ele>161</ele>
        <time>2021-12-14T10:41:13+01:00</time>
      </trkpt>
      <trkpt lat="44.44264" lon="4.62409">
        <ele>134</ele>
        <time>2021-12-14T10:41:18+01:00</time>
      </trkpt>
      <trkpt lat="44.44211" lon="4.62458">
        <ele>133</ele>
        <time>2021-12-14T10:41:23+01:00</time>
      </trkpt>
      <trkpt lat="44.44155" lon="4.62454">
        <ele>125</ele>
        <time>2021-12-14T10:41:28+01:00</time>
      </trkpt>
      <trkpt lat="44.44075" lon="4.62387">
        <ele>117</ele>
        <time>2021-12-14T10:41:33+01:00</time>
      </trkpt>
      <trkpt lat="44.44032" lon="4.62389">
        <ele>116</ele>
        <time>2021-12-14T10:41:38+01:00</time>
      </trkpt>
      <trkpt lat="44.44026" lon="4.62293">
        <ele>119</ele>
        <time>2021-12-14T10:41:43+01:00</time>
      </trkpt>
      <trkpt lat="44.43988" lon="4.62364">
        <ele>116</ele>
        <time>2021-12-14T10:41:48+01:00</time>
      </trkpt>
      <trkpt lat="44.43906" lon="4.62409">
        <ele>117</ele>
        <time>2021-12-14T10:41:53+01:00</time>
      </trkpt>
      <trkpt lat="44.43858" lon="4.62473">
        <ele>113</ele>
        <time>2021-12-14T10:41:58+01:00</time>
      </trkpt>
      <trkpt lat="44.43647" lon="4.62375">
        <ele>112</ele>
        <time>2021-12-14T10:42:03+01:00</time>
      </trkpt>
      <trkpt lat="44.43388" lon="4.62114">
        <ele>116</ele>
        <time>2021-12-14T10:42:08+01:00</time>
      </trkpt>
      <trkpt lat="44.43382" lon="4.62063">
        <ele>120</ele>
        <time>2021-12-14T10:42:13+01:00</time>
      </trkpt>
      <trkpt lat="44.43328" lon="4.62083">
        <ele>110</ele>
        <time>2021-12-14T10:42:18+01:00</time>
      </trkpt>
      <trkpt lat="44.43264" lon="4.62046">
        <ele>105</ele>
        <time>2021-12-14T10:42:23+01:00</time>
      </trkpt>
      <trkpt lat="44.43113" lon="4.62097">
        <ele>96</ele>
        <time>2021-12-14T10:42:28+01:00</time>
      </trkpt>
      <trkpt lat="44.43083" lon="4.61925">
        <ele>99</ele>
        <time>2021-12-14T10:42:33+01:00</time>
      </trkpt>
      <trkpt lat="44.43089" lon="4.61824">
        <ele>98</ele>
        <time>2021-12-14T10:42:38+01:00</time>
      </trkpt>
      <trkpt lat="44.43115" lon="4.61793">
        <ele>96</ele>
        <time>2021-12-14T10:42:43+01:00</time>
      </trkpt>
      <trkpt lat="44.43003" lon="4.61681">
        <ele>108</ele>
        <time>2021-12-14T10:42:48+01:00</time>
      </trkpt>
      <trkpt lat="44.42941" lon="4.61518">
        <ele>115</ele>
        <time>2021-12-14T10:42:53+01:00</time>
      </trkpt>
      <trkpt lat="44.4284" lon="4.61473">
        <ele>123</ele>
        <time>2021-12-14T10:42:58+01:00</time>
      </trkpt>
      <trkpt lat="44.4273" lon="4.61411">
        <ele>132</ele>
        <time>2021-12-14T10:43:03+01:00</time>
      </trkpt>
      <trkpt lat="44.42732" lon="4.61318">
        <ele>138</ele>
        <time>2021-12-14T10:43:08+01:00</time>
      </trkpt>
      <trkpt lat="44.42682" lon="4.61282">
        <ele>150</ele>
        <time>2021-12-14T10:43:13+01:00</time>
      </trkpt>
      <trkpt lat="44.42646" lon="4.61181">
        <ele>160</ele>
        <time>2021-12-14T10:43:18+01:00</time>
      </trkpt>
      <trkpt lat="44.42457" lon="4.61231">
        <ele>180</ele>
        <time>2021-12-14T10:43:23+01:00</time>
      </trkpt>
      <trkpt lat="44.42401" lon="4.61184">
        <ele>193</ele>
        <time>2021-12-14T10:43:28+01:00</time>
      </trkpt>
      <trkpt lat="44.42445" lon="4.61082">
        <ele>201</ele>
        <time>2021-12-14T10:43:33+01:00</time>
      </trkpt>
      <trkpt lat="44.42423" lon="4.61054">
        <ele>210</ele>
        <time>2021-12-14T10:43:38+01:00</time>
      </trkpt>
      <trkpt lat="44.42399" lon="4.61068">
        <ele>212</ele>
        <time>2021-12-14T10:43:43+01:00</time>
      </trkpt>
      <trkpt lat="44.42359" lon="4.61029">
        <ele>223</ele>
        <time>2021-12-14T10:43:48+01:00</time>
      </trkpt>
      <trkpt lat="44.42176" lon="4.60849">
        <ele>259</ele>
        <time>2021-12-14T10:43:53+01:00</time>
      </trkpt>
      <trkpt lat="44.42164" lon="4.60796">
        <ele>263</ele>
        <time>2021-12-14T10:43:58+01:00</time>
      </trkpt>
      <trkpt lat="44.42116" lon="4.60751">
        <ele>270</ele>
        <time>2021-12-14T10:44:03+01:00</time>
      </trkpt>
      <trkpt lat="44.42108" lon="4.60703">
        <ele>273</ele>
        <time>2021-12-14T10:44:08+01:00</time>
      </trkpt>
      <trkpt lat="44.42066" lon="4.6077">
        <ele>268</ele>
        <time>2021-12-14T10:44:13+01:00</time>
      </trkpt>
      <trkpt lat="44.41992" lon="4.60638">
        <ele>284</ele>
        <time>2021-12-14T10:44:18+01:00</time>
      </trkpt>
      <trkpt lat="44.41634" lon="4.60301">
        <ele>342</ele>
        <time>2021-12-14T10:44:23+01:00</time>
      </trkpt>
      <trkpt lat="44.41448" lon="4.60116">
        <ele>344</ele>
        <time>2021-12-14T10:44:28+01:00</time>
      </trkpt>
      <trkpt lat="44.41363" lon="4.60001">
        <ele>342</ele>
        <time>2021-12-14T10:44:33+01:00</time>
      </trkpt>
      <trkpt lat="44.41311" lon="4.59883">
        <ele>347</ele>
        <time>2021-12-14T10:44:38+01:00</time>
      </trkpt>
      <trkpt lat="44.41335" lon="4.59697">
        <ele>363</ele>
        <time>2021-12-14T10:44:43+01:00</time>
      </trkpt>
      <trkpt lat="44.41349" lon="4.59652">
        <ele>365</ele>
        <time>2021-12-14T10:44:48+01:00</time>
      </trkpt>
      <trkpt lat="44.41333" lon="4.59593">
        <ele>366</ele>
        <time>2021-12-14T10:44:53+01:00</time>
      </trkpt>
      <trkpt lat="44.41165" lon="4.59568">
        <ele>366</ele>
        <time>2021-12-14T10:44:58+01:00</time>
      </trkpt>
      <trkpt lat="44.4098" lon="4.59593">
        <ele>369</ele>
        <time>2021-12-14T10:45:03+01:00</time>
      </trkpt>
      <trkpt lat="44.40829" lon="4.59545">
        <ele>369</ele>
        <time>2021-12-14T10:45:08+01:00</time>
      </trkpt>
      <trkpt lat="44.40669" lon="4.5945">
        <ele>369</ele>
        <time>2021-12-14T10:45:13+01:00</time>
      </trkpt>
      <trkpt lat="44.40482" lon="4.59388">
        <ele>378</ele>
        <time>2021-12-14T10:45:18+01:00</time>
      </trkpt>
      <trkpt lat="44.40342" lon="4.59371">
        <ele>383</ele>
        <time>2021-12-14T10:45:23+01:00</time>
      </trkpt>
      <trkpt lat="44.40133" lon="4.59312">
        <ele>388</ele>
        <time>2021-12-14T10:45:28+01:00</time>
      </trkpt>
      <trkpt lat="44.40069" lon="4.59357">
        <ele>390</ele>
        <time>2021-12-14T10:45:33+01:00</time>
      </trkpt>
      <trkpt lat="44.39952" lon="4.5934">
        <ele>395</ele>
        <time>2021-12-14T10:45:38+01:00</time>
      </trkpt>
      <trkpt lat="44.39893" lon="4.5956">
        <ele>398</ele>
        <time>2021-12-14T10:45:43+01:00</time>
      </trkpt>
      <trkpt lat="44.3954" lon="4.59127">
        <ele>393</ele>
        <time>2021-12-14T10:45:48+01:00</time>
      </trkpt>
      <trkpt lat="44.39172" lon="4.58913">
        <ele>400</ele>
        <time>2021-12-14T10:45:53+01:00</time>
      </trkpt>
      <trkpt lat="44.38883" lon="4.58904">
        <ele>410</ele>
        <time>2021-12-14T10:45:58+01:00</time>
      </trkpt>
      <trkpt lat="44.38546" lon="4.58681">
        <ele>394</ele>
        <time>2021-12-14T10:46:03+01:00</time>
      </trkpt>
      <trkpt lat="44.38479" lon="4.59162">
        <ele>389</ele>
        <time>2021-12-14T10:46:08+01:00</time>
      </trkpt>
      <trkpt lat="44.38068" lon="4.59531">
        <ele>366</ele>
        <time>2021-12-14T10:46:13+01:00</time>
      </trkpt>
      <trkpt lat="44.37859" lon="4.59926">
        <ele>330</ele>
        <time>2021-12-14T10:46:18+01:00</time>
      </trkpt>
      <trkpt lat="44.37491" lon="4.60072">
        <ele>298</ele>
        <time>2021-12-14T10:46:23+01:00</time>
      </trkpt>
      <trkpt lat="44.3708" lon="4.60372">
        <ele>262</ele>
        <time>2021-12-14T10:46:28+01:00</time>
      </trkpt>
      <trkpt lat="44.36859" lon="4.60209">
        <ele>253</ele>
        <time>2021-12-14T10:46:33+01:00</time>
      </trkpt>
      <trkpt lat="44.36448" lon="4.60149">
        <ele>225</ele>
        <time>2021-12-14T10:46:38+01:00</time>
      </trkpt>
      <trkpt lat="44.36239" lon="4.60209">
        <ele>210</ele>
        <time>2021-12-14T10:46:43+01:00</time>
      </trkpt>
      <trkpt lat="44.36018" lon="4.60544">
        <ele>195</ele>
        <time>2021-12-14T10:46:48+01:00</time>
      </trkpt>
      <trkpt lat="44.35889" lon="4.60441">
        <ele>194</ele>
        <time>2021-12-14T10:46:53+01:00</time>
      </trkpt>
      <trkpt lat="44.35693" lon="4.60595">
        <ele>183</ele>
        <time>2021-12-14T10:46:58+01:00</time>
      </trkpt>
      <trkpt lat="44.35251" lon="4.60518">
        <ele>152</ele>
        <time>2021-12-14T10:47:03+01:00</time>
      </trkpt>
      <trkpt lat="44.34865" lon="4.60827">
        <ele>131</ele>
        <time>2021-12-14T10:47:08+01:00</time>
      </trkpt>
      <trkpt lat="44.34895" lon="4.60947">
        <ele>130</ele>
        <time>2021-12-14T10:47:13+01:00</time>
      </trkpt>
      <trkpt lat="44.34552" lon="4.6081">
        <ele>140</ele>
        <time>2021-12-14T10:47:18+01:00</time>
      </trkpt>
      <trkpt lat="44.33975" lon="4.6081">
        <ele>155</ele>
        <time>2021-12-14T10:47:23+01:00</time>
      </trkpt>
      <trkpt lat="44.33876" lon="4.60904">
        <ele>156</ele>
        <time>2021-12-14T10:47:28+01:00</time>
      </trkpt>
      <trkpt lat="44.33631" lon="4.60718">
        <ele>140</ele>
        <time>2021-12-14T10:47:33+01:00</time>
      </trkpt>
      <trkpt lat="44.33495" lon="4.60653">
        <ele>138</ele>
        <time>2021-12-14T10:47:38+01:00</time>
      </trkpt>
      <trkpt lat="44.33464" lon="4.60704">
        <ele>138</ele>
        <time>2021-12-14T10:47:43+01:00</time>
      </trkpt>
      <trkpt lat="44.33388" lon="4.60807">
        <ele>142</ele>
        <time>2021-12-14T10:47:48+01:00</time>
      </trkpt>
      <trkpt lat="44.33347" lon="4.60843">
        <ele>148</ele>
        <time>2021-12-14T10:47:53+01:00</time>
      </trkpt>
      <trkpt lat="44.33272" lon="4.60884">
        <ele>154</ele>
        <time>2021-12-14T10:47:58+01:00</time>
      </trkpt>
      <trkpt lat="44.33254" lon="4.60929">
        <ele>161</ele>
        <time>2021-12-14T10:48:03+01:00</time>
      </trkpt>
      <trkpt lat="44.33201" lon="4.60955">
        <ele>166</ele>
        <time>2021-12-14T10:48:08+01:00</time>
      </trkpt>
      <trkpt lat="44.33182" lon="4.60909">
        <ele>162</ele>
        <time>2021-12-14T10:48:13+01:00</time>
      </trkpt>
      <trkpt lat="44.33145" lon="4.60895">
        <ele>162</ele>
        <time>2021-12-14T10:48:18+01:00</time>
      </trkpt>
      <trkpt lat="44.331" lon="4.60896">
        <ele>164</ele>
        <time>2021-12-14T10:48:23+01:00</time>
      </trkpt>
      <trkpt lat="44.33044" lon="4.60861">
        <ele>162</ele>
        <time>2021-12-14T10:48:28+01:00</time>
      </trkpt>
      <trkpt lat="44.32984" lon="4.60811">
        <ele>160</ele>
        <time>2021-12-14T10:48:33+01:00</time>
      </trkpt>
      <trkpt lat="44.32945" lon="4.60806">
        <ele>163</ele>
        <time>2021-12-14T10:48:38+01:00</time>
      </trkpt>
      <trkpt lat="44.32903" lon="4.60741">
        <ele>163</ele>
        <time>2021-12-14T10:48:43+01:00</time>
      </trkpt>
      <trkpt lat="44.32837" lon="4.60715">
        <ele>163</ele>
        <time>2021-12-14T10:48:48+01:00</time>
      </trkpt>
      <trkpt lat="44.32757" lon="4.60721">
        <ele>161</ele>
        <time>2021-12-14T10:48:53+01:00</time>
      </trkpt>
      <trkpt lat="44.32594" lon="4.60661">
        <ele>161</ele>
        <time>2021-12-14T10:48:58+01:00</time>
      </trkpt>
      <trkpt lat="44.32441" lon="4.6061">
        <ele>162</ele>
        <time>2021-12-14T10:49:03+01:00</time>
      </trkpt>
      <trkpt lat="44.32352" lon="4.60567">
        <ele>165</ele>
        <time>2021-12-14T10:49:08+01:00</time>
      </trkpt>
      <trkpt lat="44.32234" lon="4.60435">
        <ele>160</ele>
        <time>2021-12-14T10:49:13+01:00</time>
      </trkpt>
      <trkpt lat="44.32166" lon="4.60373">
        <ele>161</ele>
        <time>2021-12-14T10:49:18+01:00</time>
      </trkpt>
      <trkpt lat="44.32148" lon="4.60322">
        <ele>157</ele>
        <time>2021-12-14T10:49:23+01:00</time>
      </trkpt>
      <trkpt lat="44.32099" lon="4.60278">
        <ele>154</ele>
        <time>2021-12-14T10:49:28+01:00</time>
      </trkpt>
      <trkpt lat="44.32053" lon="4.60147">
        <ele>142</ele>
        <time>2021-12-14T10:49:33+01:00</time>
      </trkpt>
      <trkpt lat="44.31972" lon="4.59964">
        <ele>123</ele>
        <time>2021-12-14T10:49:38+01:00</time>
      </trkpt>
      <trkpt lat="44.31977" lon="4.59917">
        <ele>116</ele>
        <time>2021-12-14T10:49:43+01:00</time>
      </trkpt>
      <trkpt lat="44.31807" lon="4.59796">
        <ele>111</ele>
        <time>2021-12-14T10:49:48+01:00</time>
      </trkpt>
      <trkpt lat="44.31848" lon="4.59716">
        <ele>101</ele>
        <time>2021-12-14T10:49:53+01:00</time>
      </trkpt>
      <trkpt lat="44.31756" lon="4.59489">
        <ele>89</ele>
        <time>2021-12-14T10:49:58+01:00</time>
      </trkpt>
      <trkpt lat="44.31754" lon="4.59249">
        <ele>101</ele>
        <time>2021-12-14T10:50:03+01:00</time>
      </trkpt>
      <trkpt lat="44.31721" lon="4.59066">
        <ele>113</ele>
        <time>2021-12-14T10:50:08+01:00</time>
      </trkpt>
      <trkpt lat="44.31696" lon="4.59007">
        <ele>109</ele>
        <time>2021-12-14T10:50:13+01:00</time>
      </trkpt>
      <trkpt lat="44.31733" lon="4.58963">
        <ele>111</ele>
        <time>2021-12-14T10:50:18+01:00</time>
      </trkpt>
      <trkpt lat="44.31731" lon="4.58856">
        <ele>109</ele>
        <time>2021-12-14T10:50:23+01:00</time>
      </trkpt>
      <trkpt lat="44.317" lon="4.58819">
        <ele>108</ele>
        <time>2021-12-14T10:50:28+01:00</time>
      </trkpt>
      <trkpt lat="44.31682" lon="4.58749">
        <ele>113</ele>
        <time>2021-12-14T10:50:33+01:00</time>
      </trkpt>
      <trkpt lat="44.31631" lon="4.58659">
        <ele>125</ele>
        <time>2021-12-14T10:50:38+01:00</time>
      </trkpt>
      <trkpt lat="44.31533" lon="4.58619">
        <ele>126</ele>
        <time>2021-12-14T10:50:43+01:00</time>
      </trkpt>
      <trkpt lat="44.3144" lon="4.58462">
        <ele>142</ele>
        <time>2021-12-14T10:50:48+01:00</time>
      </trkpt>
      <trkpt lat="44.31395" lon="4.58368">
        <ele>148</ele>
        <time>2021-12-14T10:50:53+01:00</time>
      </trkpt>
      <trkpt lat="44.31308" lon="4.58143">
        <ele>158</ele>
        <time>2021-12-14T10:50:58+01:00</time>
      </trkpt>
      <trkpt lat="44.31312" lon="4.58031">
        <ele>159</ele>
        <time>2021-12-14T10:51:03+01:00</time>
      </trkpt>
      <trkpt lat="44.31166" lon="4.58048">
        <ele>144</ele>
        <time>2021-12-14T10:51:08+01:00</time>
      </trkpt>
      <trkpt lat="44.31122" lon="4.58115">
        <ele>142</ele>
        <time>2021-12-14T10:51:13+01:00</time>
      </trkpt>
      <trkpt lat="44.31091" lon="4.58103">
        <ele>140</ele>
        <time>2021-12-14T10:51:18+01:00</time>
      </trkpt>
      <trkpt lat="44.31091" lon="4.58067">
        <ele>139</ele>
        <time>2021-12-14T10:51:23+01:00</time>
      </trkpt>
      <trkpt lat="44.31162" lon="4.57935">
        <ele>133</ele>
        <time>2021-12-14T10:51:28+01:00</time>
      </trkpt>
      <trkpt lat="44.31185" lon="4.57757">
        <ele>122</ele>
        <time>2021-12-14T10:51:33+01:00</time>
      </trkpt>
      <trkpt lat="44.31164" lon="4.57735">
        <ele>121</ele>
        <time>2021-12-14T10:51:38+01:00</time>
      </trkpt>
      <trkpt lat="44.31047" lon="4.57727">
        <ele>113</ele>
        <time>2021-12-14T10:51:43+01:00</time>
      </trkpt>
      <trkpt lat="44.31012" lon="4.57738">
        <ele>112</ele>
        <time>2021-12-14T10:51:48+01:00</time>
      </trkpt>
      <trkpt lat="44.30977" lon="4.57715">
        <ele>110</ele>
        <time>2021-12-14T10:51:53+01:00</time>
      </trkpt>
      <trkpt lat="44.30966" lon="4.5767">
        <ele>109</ele>
        <time>2021-12-14T10:51:58+01:00</time>
      </trkpt>
      <trkpt lat="44.30914" lon="4.5763">
        <ele>112</ele>
        <time>2021-12-14T10:52:03+01:00</time>
      </trkpt>
      <trkpt lat="44.30884" lon="4.5762">
        <ele>112</ele>
        <time>2021-12-14T10:52:08+01:00</time>
      </trkpt>
      <trkpt lat="44.30853" lon="4.5757">
        <ele>114</ele>
        <time>2021-12-14T10:52:13+01:00</time>
      </trkpt>
      <trkpt lat="44.30805" lon="4.57528">
        <ele>113</ele>
        <time>2021-12-14T10:52:18+01:00</time>
      </trkpt>
      <trkpt lat="44.30768" lon="4.57481">
        <ele>113</ele>
        <time>2021-12-14T10:52:23+01:00</time>
      </trkpt>
      <trkpt lat="44.3074" lon="4.57415">
        <ele>113</ele>
        <time>2021-12-14T10:52:28+01:00</time>
      </trkpt>
      <trkpt lat="44.30701" lon="4.57383">
        <ele>112</ele>
        <time>2021-12-14T10:52:33+01:00</time>
      </trkpt>
      <trkpt lat="44.30673" lon="4.57341">
        <ele>111</ele>
        <time>2021-12-14T10:52:38+01:00</time>
      </trkpt>
      <trkpt lat="44.30621" lon="4.57323">
        <ele>108</ele>
        <time>2021-12-14T10:52:43+01:00</time>
      </trkpt>
      <trkpt lat="44.30596" lon="4.57251">
        <ele>111</ele>
        <time>2021-12-14T10:52:48+01:00</time>
      </trkpt>
      <trkpt lat="44.30594" lon="4.57113">
        <ele>112</ele>
        <time>2021-12-14T10:52:53+01:00</time>
      </trkpt>
      <trkpt lat="44.30605" lon="4.56937">
        <ele>106</ele>
        <time>2021-12-14T10:52:58+01:00</time>
      </trkpt>
      <trkpt lat="44.3062" lon="4.56881">
        <ele>98</ele>
        <time>2021-12-14T10:53:03+01:00</time>
      </trkpt>
      <trkpt lat="44.30655" lon="4.56855">
        <ele>95</ele>
        <time>2021-12-14T10:53:08+01:00</time>
      </trkpt>
      <trkpt lat="44.30673" lon="4.56821">
        <ele>93</ele>
        <time>2021-12-14T10:53:13+01:00</time>
      </trkpt>
      <trkpt lat="44.30625" lon="4.56769">
        <ele>90</ele>
        <time>2021-12-14T10:53:18+01:00</time>
      </trkpt>
      <trkpt lat="44.30605" lon="4.56763">
        <ele>87</ele>
        <time>2021-12-14T10:53:23+01:00</time>
      </trkpt>
      <trkpt lat="44.30593" lon="4.56725">
        <ele>84</ele>
        <time>2021-12-14T10:53:28+01:00</time>
      </trkpt>
      <trkpt lat="44.30554" lon="4.56724">
        <ele>79</ele>
        <time>2021-12-14T10:53:33+01:00</time>
      </trkpt>
      <trkpt lat="44.30511" lon="4.56713">
        <ele>74</ele>
        <time>2021-12-14T10:53:38+01:00</time>
      </trkpt>
      <trkpt lat="44.30436" lon="4.56716">
        <ele>69</ele>
        <time>2021-12-14T10:53:43+01:00</time>
      </trkpt>
      <trkpt lat="44.30403" lon="4.56726">
        <ele>67</ele>
        <time>2021-12-14T10:53:48+01:00</time>
      </trkpt>
      <trkpt lat="44.30384" lon="4.56705">
        <ele>65</ele>
        <time>2021-12-14T10:53:53+01:00</time>
      </trkpt>
      <trkpt lat="44.30343" lon="4.5674">
        <ele>62</ele>
        <time>2021-12-14T10:53:58+01:00</time>
      </trkpt>
      <trkpt lat="44.30294" lon="4.56754">
        <ele>61</ele>
        <time>2021-12-14T10:54:03+01:00</time>
      </trkpt>
      <trkpt lat="44.30264" lon="4.56715">
        <ele>59</ele>
        <time>2021-12-14T10:54:08+01:00</time>
      </trkpt>
      <trkpt lat="44.30233" lon="4.56694">
        <ele>58</ele>
        <time>2021-12-14T10:54:13+01:00</time>
      </trkpt>
      <trkpt lat="44.30223" lon="4.56646">
        <ele>57</ele>
        <time>2021-12-14T10:54:18+01:00</time>
      </trkpt>
      <trkpt lat="44.30193" lon="4.56622">
        <ele>56</ele>
        <time>2021-12-14T10:54:23+01:00</time>
      </trkpt>
      <trkpt lat="44.30168" lon="4.56623">
        <ele>55</ele>
        <time>2021-12-14T10:54:28+01:00</time>
      </trkpt>
      <trkpt lat="44.30141" lon="4.56617">
        <ele>53</ele>
        <time>2021-12-14T10:54:33+01:00</time>
      </trkpt>
      <trkpt lat="44.30095" lon="4.56755">
        <ele>55</ele>
        <time>2021-12-14T10:54:38+01:00</time>
      </trkpt>
    </trkseg>
  </trk>
  <trk>
    <name><![CDATA[51 - ST MARTIN D ARDECHE ORSAN 27.8 KM]]></name>
    <extensions>
      <line xmlns="http://www.topografix.com/GPX/gpx_style/0/2">
        <color>00FF00</color>
        <width>4</width>
      </line>
    </extensions>
    <trkseg>
      <trkpt lat="44.30096" lon="4.56759">
        <ele>55</ele>
        <time>2021-12-14T11:28:35+01:00</time>
      </trkpt>
      <trkpt lat="44.29899" lon="4.56647">
        <ele>56</ele>
        <time>2021-12-14T11:28:40+01:00</time>
      </trkpt>
      <trkpt lat="44.29877" lon="4.56661">
        <ele>55</ele>
        <time>2021-12-14T11:28:45+01:00</time>
      </trkpt>
      <trkpt lat="44.29817" lon="4.56614">
        <ele>54</ele>
        <time>2021-12-14T11:28:50+01:00</time>
      </trkpt>
      <trkpt lat="44.29721" lon="4.56636">
        <ele>53</ele>
        <time>2021-12-14T11:28:55+01:00</time>
      </trkpt>
      <trkpt lat="44.29698" lon="4.5665">
        <ele>52</ele>
        <time>2021-12-14T11:29:00+01:00</time>
      </trkpt>
      <trkpt lat="44.29622" lon="4.56655">
        <ele>52</ele>
        <time>2021-12-14T11:29:05+01:00</time>
      </trkpt>
      <trkpt lat="44.2953" lon="4.56662">
        <ele>58</ele>
        <time>2021-12-14T11:29:10+01:00</time>
      </trkpt>
      <trkpt lat="44.29494" lon="4.56685">
        <ele>62</ele>
        <time>2021-12-14T11:29:15+01:00</time>
      </trkpt>
      <trkpt lat="44.29347" lon="4.56615">
        <ele>72</ele>
        <time>2021-12-14T11:29:20+01:00</time>
      </trkpt>
      <trkpt lat="44.29261" lon="4.5664">
        <ele>81</ele>
        <time>2021-12-14T11:29:25+01:00</time>
      </trkpt>
      <trkpt lat="44.2918" lon="4.56652">
        <ele>91</ele>
        <time>2021-12-14T11:29:30+01:00</time>
      </trkpt>
      <trkpt lat="44.29108" lon="4.56652">
        <ele>93</ele>
        <time>2021-12-14T11:29:35+01:00</time>
      </trkpt>
      <trkpt lat="44.29023" lon="4.56603">
        <ele>98</ele>
        <time>2021-12-14T11:29:40+01:00</time>
      </trkpt>
      <trkpt lat="44.28917" lon="4.56577">
        <ele>102</ele>
        <time>2021-12-14T11:29:45+01:00</time>
      </trkpt>
      <trkpt lat="44.288" lon="4.56521">
        <ele>108</ele>
        <time>2021-12-14T11:29:50+01:00</time>
      </trkpt>
      <trkpt lat="44.28786" lon="4.56543">
        <ele>107</ele>
        <time>2021-12-14T11:29:55+01:00</time>
      </trkpt>
      <trkpt lat="44.28759" lon="4.56528">
        <ele>109</ele>
        <time>2021-12-14T11:30:00+01:00</time>
      </trkpt>
      <trkpt lat="44.28746" lon="4.56557">
        <ele>107</ele>
        <time>2021-12-14T11:30:05+01:00</time>
      </trkpt>
      <trkpt lat="44.28711" lon="4.56543">
        <ele>111</ele>
        <time>2021-12-14T11:30:10+01:00</time>
      </trkpt>
      <trkpt lat="44.28672" lon="4.56579">
        <ele>110</ele>
        <time>2021-12-14T11:30:15+01:00</time>
      </trkpt>
      <trkpt lat="44.2846" lon="4.56839">
        <ele>85</ele>
        <time>2021-12-14T11:30:20+01:00</time>
      </trkpt>
      <trkpt lat="44.28369" lon="4.56865">
        <ele>81</ele>
        <time>2021-12-14T11:30:25+01:00</time>
      </trkpt>
      <trkpt lat="44.2823" lon="4.5691">
        <ele>78</ele>
        <time>2021-12-14T11:30:30+01:00</time>
      </trkpt>
      <trkpt lat="44.28203" lon="4.57158">
        <ele>71</ele>
        <time>2021-12-14T11:30:35+01:00</time>
      </trkpt>
      <trkpt lat="44.28081" lon="4.57166">
        <ele>67</ele>
        <time>2021-12-14T11:30:40+01:00</time>
      </trkpt>
      <trkpt lat="44.28026" lon="4.57332">
        <ele>65</ele>
        <time>2021-12-14T11:30:45+01:00</time>
      </trkpt>
      <trkpt lat="44.27921" lon="4.57294">
        <ele>74</ele>
        <time>2021-12-14T11:30:50+01:00</time>
      </trkpt>
      <trkpt lat="44.27831" lon="4.57293">
        <ele>77</ele>
        <time>2021-12-14T11:30:55+01:00</time>
      </trkpt>
      <trkpt lat="44.27699" lon="4.57241">
        <ele>86</ele>
        <time>2021-12-14T11:31:00+01:00</time>
      </trkpt>
      <trkpt lat="44.27583" lon="4.5719">
        <ele>97</ele>
        <time>2021-12-14T11:31:05+01:00</time>
      </trkpt>
      <trkpt lat="44.27483" lon="4.57186">
        <ele>110</ele>
        <time>2021-12-14T11:31:10+01:00</time>
      </trkpt>
      <trkpt lat="44.27367" lon="4.56948">
        <ele>136</ele>
        <time>2021-12-14T11:31:15+01:00</time>
      </trkpt>
      <trkpt lat="44.27337" lon="4.56836">
        <ele>148</ele>
        <time>2021-12-14T11:31:20+01:00</time>
      </trkpt>
      <trkpt lat="44.27329" lon="4.56679">
        <ele>154</ele>
        <time>2021-12-14T11:31:25+01:00</time>
      </trkpt>
      <trkpt lat="44.27209" lon="4.5655">
        <ele>167</ele>
        <time>2021-12-14T11:31:30+01:00</time>
      </trkpt>
      <trkpt lat="44.27145" lon="4.5649">
        <ele>173</ele>
        <time>2021-12-14T11:31:35+01:00</time>
      </trkpt>
      <trkpt lat="44.27051" lon="4.56356">
        <ele>181</ele>
        <time>2021-12-14T11:31:40+01:00</time>
      </trkpt>
      <trkpt lat="44.26969" lon="4.56215">
        <ele>182</ele>
        <time>2021-12-14T11:31:45+01:00</time>
      </trkpt>
      <trkpt lat="44.26916" lon="4.56174">
        <ele>181</ele>
        <time>2021-12-14T11:31:50+01:00</time>
      </trkpt>
      <trkpt lat="44.26811" lon="4.56122">
        <ele>181</ele>
        <time>2021-12-14T11:31:55+01:00</time>
      </trkpt>
      <trkpt lat="44.26714" lon="4.56096">
        <ele>188</ele>
        <time>2021-12-14T11:32:00+01:00</time>
      </trkpt>
      <trkpt lat="44.26592" lon="4.56112">
        <ele>194</ele>
        <time>2021-12-14T11:32:05+01:00</time>
      </trkpt>
      <trkpt lat="44.2644" lon="4.5609">
        <ele>198</ele>
        <time>2021-12-14T11:32:10+01:00</time>
      </trkpt>
      <trkpt lat="44.26368" lon="4.56052">
        <ele>199</ele>
        <time>2021-12-14T11:32:15+01:00</time>
      </trkpt>
      <trkpt lat="44.2628" lon="4.55913">
        <ele>206</ele>
        <time>2021-12-14T11:32:20+01:00</time>
      </trkpt>
      <trkpt lat="44.26235" lon="4.55904">
        <ele>209</ele>
        <time>2021-12-14T11:32:25+01:00</time>
      </trkpt>
      <trkpt lat="44.26145" lon="4.55794">
        <ele>215</ele>
        <time>2021-12-14T11:32:30+01:00</time>
      </trkpt>
      <trkpt lat="44.26084" lon="4.55765">
        <ele>214</ele>
        <time>2021-12-14T11:32:35+01:00</time>
      </trkpt>
      <trkpt lat="44.25966" lon="4.55767">
        <ele>215</ele>
        <time>2021-12-14T11:32:40+01:00</time>
      </trkpt>
      <trkpt lat="44.25832" lon="4.55698">
        <ele>222</ele>
        <time>2021-12-14T11:32:45+01:00</time>
      </trkpt>
      <trkpt lat="44.25758" lon="4.55652">
        <ele>225</ele>
        <time>2021-12-14T11:32:50+01:00</time>
      </trkpt>
      <trkpt lat="44.25751" lon="4.55587">
        <ele>229</ele>
        <time>2021-12-14T11:32:55+01:00</time>
      </trkpt>
      <trkpt lat="44.25722" lon="4.55545">
        <ele>231</ele>
        <time>2021-12-14T11:33:00+01:00</time>
      </trkpt>
      <trkpt lat="44.25659" lon="4.55545">
        <ele>238</ele>
        <time>2021-12-14T11:33:05+01:00</time>
      </trkpt>
      <trkpt lat="44.25618" lon="4.55483">
        <ele>245</ele>
        <time>2021-12-14T11:33:10+01:00</time>
      </trkpt>
      <trkpt lat="44.25546" lon="4.55435">
        <ele>251</ele>
        <time>2021-12-14T11:33:15+01:00</time>
      </trkpt>
      <trkpt lat="44.25498" lon="4.55414">
        <ele>254</ele>
        <time>2021-12-14T11:33:20+01:00</time>
      </trkpt>
      <trkpt lat="44.25451" lon="4.55374">
        <ele>257</ele>
        <time>2021-12-14T11:33:25+01:00</time>
      </trkpt>
      <trkpt lat="44.25379" lon="4.55339">
        <ele>261</ele>
        <time>2021-12-14T11:33:30+01:00</time>
      </trkpt>
      <trkpt lat="44.25247" lon="4.55292">
        <ele>264</ele>
        <time>2021-12-14T11:33:35+01:00</time>
      </trkpt>
      <trkpt lat="44.25159" lon="4.55295">
        <ele>264</ele>
        <time>2021-12-14T11:33:40+01:00</time>
      </trkpt>
      <trkpt lat="44.25082" lon="4.55283">
        <ele>268</ele>
        <time>2021-12-14T11:33:45+01:00</time>
      </trkpt>
      <trkpt lat="44.2503" lon="4.55269">
        <ele>273</ele>
        <time>2021-12-14T11:33:50+01:00</time>
      </trkpt>
      <trkpt lat="44.24974" lon="4.55272">
        <ele>278</ele>
        <time>2021-12-14T11:33:55+01:00</time>
      </trkpt>
      <trkpt lat="44.24853" lon="4.55216">
        <ele>284</ele>
        <time>2021-12-14T11:34:00+01:00</time>
      </trkpt>
      <trkpt lat="44.24801" lon="4.55136">
        <ele>282</ele>
        <time>2021-12-14T11:34:05+01:00</time>
      </trkpt>
      <trkpt lat="44.24728" lon="4.55046">
        <ele>281</ele>
        <time>2021-12-14T11:34:10+01:00</time>
      </trkpt>
      <trkpt lat="44.24679" lon="4.55039">
        <ele>281</ele>
        <time>2021-12-14T11:34:15+01:00</time>
      </trkpt>
      <trkpt lat="44.24648" lon="4.55072">
        <ele>277</ele>
        <time>2021-12-14T11:34:20+01:00</time>
      </trkpt>
      <trkpt lat="44.24574" lon="4.55065">
        <ele>260</ele>
        <time>2021-12-14T11:34:25+01:00</time>
      </trkpt>
      <trkpt lat="44.24567" lon="4.5497">
        <ele>271</ele>
        <time>2021-12-14T11:34:30+01:00</time>
      </trkpt>
      <trkpt lat="44.24521" lon="4.54955">
        <ele>265</ele>
        <time>2021-12-14T11:34:35+01:00</time>
      </trkpt>
      <trkpt lat="44.24466" lon="4.54892">
        <ele>279</ele>
        <time>2021-12-14T11:34:40+01:00</time>
      </trkpt>
      <trkpt lat="44.2443" lon="4.54904">
        <ele>277</ele>
        <time>2021-12-14T11:34:45+01:00</time>
      </trkpt>
      <trkpt lat="44.24425" lon="4.5497">
        <ele>263</ele>
        <time>2021-12-14T11:34:50+01:00</time>
      </trkpt>
      <trkpt lat="44.24396" lon="4.55016">
        <ele>258</ele>
        <time>2021-12-14T11:34:55+01:00</time>
      </trkpt>
      <trkpt lat="44.24308" lon="4.55062">
        <ele>257</ele>
        <time>2021-12-14T11:35:00+01:00</time>
      </trkpt>
      <trkpt lat="44.24273" lon="4.55109">
        <ele>250</ele>
        <time>2021-12-14T11:35:05+01:00</time>
      </trkpt>
      <trkpt lat="44.24226" lon="4.55078">
        <ele>255</ele>
        <time>2021-12-14T11:35:10+01:00</time>
      </trkpt>
      <trkpt lat="44.24213" lon="4.55133">
        <ele>246</ele>
        <time>2021-12-14T11:35:15+01:00</time>
      </trkpt>
      <trkpt lat="44.24169" lon="4.55165">
        <ele>237</ele>
        <time>2021-12-14T11:35:20+01:00</time>
      </trkpt>
      <trkpt lat="44.24176" lon="4.552">
        <ele>233</ele>
        <time>2021-12-14T11:35:25+01:00</time>
      </trkpt>
      <trkpt lat="44.24139" lon="4.55223">
        <ele>226</ele>
        <time>2021-12-14T11:35:30+01:00</time>
      </trkpt>
      <trkpt lat="44.24106" lon="4.55202">
        <ele>226</ele>
        <time>2021-12-14T11:35:35+01:00</time>
      </trkpt>
      <trkpt lat="44.24088" lon="4.55229">
        <ele>220</ele>
        <time>2021-12-14T11:35:40+01:00</time>
      </trkpt>
      <trkpt lat="44.23924" lon="4.55254">
        <ele>212</ele>
        <time>2021-12-14T11:35:45+01:00</time>
      </trkpt>
      <trkpt lat="44.23888" lon="4.55283">
        <ele>216</ele>
        <time>2021-12-14T11:35:50+01:00</time>
      </trkpt>
      <trkpt lat="44.23917" lon="4.55373">
        <ele>204</ele>
        <time>2021-12-14T11:35:55+01:00</time>
      </trkpt>
      <trkpt lat="44.23881" lon="4.55339">
        <ele>213</ele>
        <time>2021-12-14T11:36:00+01:00</time>
      </trkpt>
      <trkpt lat="44.23873" lon="4.55303">
        <ele>218</ele>
        <time>2021-12-14T11:36:05+01:00</time>
      </trkpt>
      <trkpt lat="44.23821" lon="4.55321">
        <ele>228</ele>
        <time>2021-12-14T11:36:10+01:00</time>
      </trkpt>
      <trkpt lat="44.23771" lon="4.55277">
        <ele>238</ele>
        <time>2021-12-14T11:36:15+01:00</time>
      </trkpt>
      <trkpt lat="44.23624" lon="4.55303">
        <ele>266</ele>
        <time>2021-12-14T11:36:20+01:00</time>
      </trkpt>
      <trkpt lat="44.23603" lon="4.55347">
        <ele>267</ele>
        <time>2021-12-14T11:36:25+01:00</time>
      </trkpt>
      <trkpt lat="44.23596" lon="4.55406">
        <ele>261</ele>
        <time>2021-12-14T11:36:30+01:00</time>
      </trkpt>
      <trkpt lat="44.23552" lon="4.55356">
        <ele>276</ele>
        <time>2021-12-14T11:36:35+01:00</time>
      </trkpt>
      <trkpt lat="44.23482" lon="4.55353">
        <ele>284</ele>
        <time>2021-12-14T11:36:40+01:00</time>
      </trkpt>
      <trkpt lat="44.23417" lon="4.55324">
        <ele>296</ele>
        <time>2021-12-14T11:36:45+01:00</time>
      </trkpt>
      <trkpt lat="44.23351" lon="4.55356">
        <ele>302</ele>
        <time>2021-12-14T11:36:50+01:00</time>
      </trkpt>
      <trkpt lat="44.2326" lon="4.55403">
        <ele>310</ele>
        <time>2021-12-14T11:36:55+01:00</time>
      </trkpt>
      <trkpt lat="44.23213" lon="4.55524">
        <ele>308</ele>
        <time>2021-12-14T11:37:00+01:00</time>
      </trkpt>
      <trkpt lat="44.23187" lon="4.55416">
        <ele>317</ele>
        <time>2021-12-14T11:37:05+01:00</time>
      </trkpt>
      <trkpt lat="44.23129" lon="4.55342">
        <ele>324</ele>
        <time>2021-12-14T11:37:10+01:00</time>
      </trkpt>
      <trkpt lat="44.23097" lon="4.55284">
        <ele>326</ele>
        <time>2021-12-14T11:37:15+01:00</time>
      </trkpt>
      <trkpt lat="44.22993" lon="4.55261">
        <ele>321</ele>
        <time>2021-12-14T11:37:20+01:00</time>
      </trkpt>
      <trkpt lat="44.22877" lon="4.55284">
        <ele>310</ele>
        <time>2021-12-14T11:37:25+01:00</time>
      </trkpt>
      <trkpt lat="44.22846" lon="4.55377">
        <ele>310</ele>
        <time>2021-12-14T11:37:30+01:00</time>
      </trkpt>
      <trkpt lat="44.22809" lon="4.55455">
        <ele>319</ele>
        <time>2021-12-14T11:37:35+01:00</time>
      </trkpt>
      <trkpt lat="44.2281" lon="4.55533">
        <ele>332</ele>
        <time>2021-12-14T11:37:40+01:00</time>
      </trkpt>
      <trkpt lat="44.22702" lon="4.55545">
        <ele>342</ele>
        <time>2021-12-14T11:37:45+01:00</time>
      </trkpt>
      <trkpt lat="44.2263" lon="4.55539">
        <ele>341</ele>
        <time>2021-12-14T11:37:50+01:00</time>
      </trkpt>
      <trkpt lat="44.22542" lon="4.55509">
        <ele>337</ele>
        <time>2021-12-14T11:37:55+01:00</time>
      </trkpt>
      <trkpt lat="44.22387" lon="4.55525">
        <ele>325</ele>
        <time>2021-12-14T11:38:00+01:00</time>
      </trkpt>
      <trkpt lat="44.2231" lon="4.55588">
        <ele>313</ele>
        <time>2021-12-14T11:38:05+01:00</time>
      </trkpt>
      <trkpt lat="44.22257" lon="4.55603">
        <ele>302</ele>
        <time>2021-12-14T11:38:10+01:00</time>
      </trkpt>
      <trkpt lat="44.22249" lon="4.55683">
        <ele>297</ele>
        <time>2021-12-14T11:38:15+01:00</time>
      </trkpt>
      <trkpt lat="44.22273" lon="4.55762">
        <ele>293</ele>
        <time>2021-12-14T11:38:20+01:00</time>
      </trkpt>
      <trkpt lat="44.22332" lon="4.55835">
        <ele>289</ele>
        <time>2021-12-14T11:38:25+01:00</time>
      </trkpt>
      <trkpt lat="44.22295" lon="4.55843">
        <ele>287</ele>
        <time>2021-12-14T11:38:30+01:00</time>
      </trkpt>
      <trkpt lat="44.22279" lon="4.55925">
        <ele>283</ele>
        <time>2021-12-14T11:38:35+01:00</time>
      </trkpt>
      <trkpt lat="44.22304" lon="4.56008">
        <ele>277</ele>
        <time>2021-12-14T11:38:40+01:00</time>
      </trkpt>
      <trkpt lat="44.22327" lon="4.56112">
        <ele>267</ele>
        <time>2021-12-14T11:38:45+01:00</time>
      </trkpt>
      <trkpt lat="44.22296" lon="4.56224">
        <ele>261</ele>
        <time>2021-12-14T11:38:50+01:00</time>
      </trkpt>
      <trkpt lat="44.22215" lon="4.5635">
        <ele>249</ele>
        <time>2021-12-14T11:38:55+01:00</time>
      </trkpt>
      <trkpt lat="44.22152" lon="4.5645">
        <ele>232</ele>
        <time>2021-12-14T11:39:00+01:00</time>
      </trkpt>
      <trkpt lat="44.22071" lon="4.56517">
        <ele>222</ele>
        <time>2021-12-14T11:39:05+01:00</time>
      </trkpt>
      <trkpt lat="44.21999" lon="4.56501">
        <ele>213</ele>
        <time>2021-12-14T11:39:10+01:00</time>
      </trkpt>
      <trkpt lat="44.21941" lon="4.56501">
        <ele>207</ele>
        <time>2021-12-14T11:39:15+01:00</time>
      </trkpt>
      <trkpt lat="44.21891" lon="4.56551">
        <ele>200</ele>
        <time>2021-12-14T11:39:20+01:00</time>
      </trkpt>
      <trkpt lat="44.21644" lon="4.56476">
        <ele>192</ele>
        <time>2021-12-14T11:39:25+01:00</time>
      </trkpt>
      <trkpt lat="44.21719" lon="4.56565">
        <ele>189</ele>
        <time>2021-12-14T11:39:30+01:00</time>
      </trkpt>
      <trkpt lat="44.21761" lon="4.56698">
        <ele>189</ele>
        <time>2021-12-14T11:39:35+01:00</time>
      </trkpt>
      <trkpt lat="44.21776" lon="4.56891">
        <ele>184</ele>
        <time>2021-12-14T11:39:40+01:00</time>
      </trkpt>
      <trkpt lat="44.21729" lon="4.5705">
        <ele>187</ele>
        <time>2021-12-14T11:39:45+01:00</time>
      </trkpt>
      <trkpt lat="44.21709" lon="4.57212">
        <ele>186</ele>
        <time>2021-12-14T11:39:50+01:00</time>
      </trkpt>
      <trkpt lat="44.21637" lon="4.57303">
        <ele>192</ele>
        <time>2021-12-14T11:39:55+01:00</time>
      </trkpt>
      <trkpt lat="44.21597" lon="4.57383">
        <ele>194</ele>
        <time>2021-12-14T11:40:00+01:00</time>
      </trkpt>
      <trkpt lat="44.21559" lon="4.57613">
        <ele>191</ele>
        <time>2021-12-14T11:40:05+01:00</time>
      </trkpt>
      <trkpt lat="44.21523" lon="4.57732">
        <ele>189</ele>
        <time>2021-12-14T11:40:10+01:00</time>
      </trkpt>
      <trkpt lat="44.21498" lon="4.57757">
        <ele>193</ele>
        <time>2021-12-14T11:40:15+01:00</time>
      </trkpt>
      <trkpt lat="44.21475" lon="4.57891">
        <ele>191</ele>
        <time>2021-12-14T11:40:20+01:00</time>
      </trkpt>
      <trkpt lat="44.21442" lon="4.58005">
        <ele>196</ele>
        <time>2021-12-14T11:40:25+01:00</time>
      </trkpt>
      <trkpt lat="44.21456" lon="4.58092">
        <ele>192</ele>
        <time>2021-12-14T11:40:30+01:00</time>
      </trkpt>
      <trkpt lat="44.21405" lon="4.58193">
        <ele>192</ele>
        <time>2021-12-14T11:40:35+01:00</time>
      </trkpt>
      <trkpt lat="44.21314" lon="4.5825">
        <ele>195</ele>
        <time>2021-12-14T11:40:40+01:00</time>
      </trkpt>
      <trkpt lat="44.21286" lon="4.58219">
        <ele>196</ele>
        <time>2021-12-14T11:40:45+01:00</time>
      </trkpt>
      <trkpt lat="44.2124" lon="4.58231">
        <ele>196</ele>
        <time>2021-12-14T11:40:50+01:00</time>
      </trkpt>
      <trkpt lat="44.21199" lon="4.58308">
        <ele>197</ele>
        <time>2021-12-14T11:40:55+01:00</time>
      </trkpt>
      <trkpt lat="44.21156" lon="4.58405">
        <ele>196</ele>
        <time>2021-12-14T11:41:00+01:00</time>
      </trkpt>
      <trkpt lat="44.21152" lon="4.58492">
        <ele>198</ele>
        <time>2021-12-14T11:41:05+01:00</time>
      </trkpt>
      <trkpt lat="44.2117" lon="4.58552">
        <ele>201</ele>
        <time>2021-12-14T11:41:10+01:00</time>
      </trkpt>
      <trkpt lat="44.21172" lon="4.58692">
        <ele>209</ele>
        <time>2021-12-14T11:41:15+01:00</time>
      </trkpt>
      <trkpt lat="44.21179" lon="4.58799">
        <ele>215</ele>
        <time>2021-12-14T11:41:20+01:00</time>
      </trkpt>
      <trkpt lat="44.21141" lon="4.58888">
        <ele>215</ele>
        <time>2021-12-14T11:41:25+01:00</time>
      </trkpt>
      <trkpt lat="44.21115" lon="4.58917">
        <ele>216</ele>
        <time>2021-12-14T11:41:30+01:00</time>
      </trkpt>
      <trkpt lat="44.21118" lon="4.59139">
        <ele>210</ele>
        <time>2021-12-14T11:41:35+01:00</time>
      </trkpt>
      <trkpt lat="44.21058" lon="4.59213">
        <ele>208</ele>
        <time>2021-12-14T11:41:40+01:00</time>
      </trkpt>
      <trkpt lat="44.20933" lon="4.59297">
        <ele>204</ele>
        <time>2021-12-14T11:41:45+01:00</time>
      </trkpt>
      <trkpt lat="44.20844" lon="4.59332">
        <ele>198</ele>
        <time>2021-12-14T11:41:50+01:00</time>
      </trkpt>
      <trkpt lat="44.2078" lon="4.59365">
        <ele>197</ele>
        <time>2021-12-14T11:41:55+01:00</time>
      </trkpt>
      <trkpt lat="44.20594" lon="4.594">
        <ele>198</ele>
        <time>2021-12-14T11:42:00+01:00</time>
      </trkpt>
      <trkpt lat="44.20558" lon="4.5938">
        <ele>196</ele>
        <time>2021-12-14T11:42:05+01:00</time>
      </trkpt>
      <trkpt lat="44.20494" lon="4.59501">
        <ele>189</ele>
        <time>2021-12-14T11:42:10+01:00</time>
      </trkpt>
      <trkpt lat="44.20463" lon="4.59489">
        <ele>188</ele>
        <time>2021-12-14T11:42:15+01:00</time>
      </trkpt>
      <trkpt lat="44.20419" lon="4.5951">
        <ele>187</ele>
        <time>2021-12-14T11:42:20+01:00</time>
      </trkpt>
      <trkpt lat="44.2025" lon="4.5938">
        <ele>191</ele>
        <time>2021-12-14T11:42:25+01:00</time>
      </trkpt>
      <trkpt lat="44.20211" lon="4.59474">
        <ele>195</ele>
        <time>2021-12-14T11:42:30+01:00</time>
      </trkpt>
      <trkpt lat="44.20183" lon="4.59542">
        <ele>197</ele>
        <time>2021-12-14T11:42:35+01:00</time>
      </trkpt>
      <trkpt lat="44.20117" lon="4.59593">
        <ele>197</ele>
        <time>2021-12-14T11:42:40+01:00</time>
      </trkpt>
      <trkpt lat="44.19972" lon="4.59551">
        <ele>193</ele>
        <time>2021-12-14T11:42:45+01:00</time>
      </trkpt>
      <trkpt lat="44.19811" lon="4.59512">
        <ele>197</ele>
        <time>2021-12-14T11:42:50+01:00</time>
      </trkpt>
      <trkpt lat="44.19764" lon="4.59475">
        <ele>198</ele>
        <time>2021-12-14T11:42:55+01:00</time>
      </trkpt>
      <trkpt lat="44.19758" lon="4.59633">
        <ele>206</ele>
        <time>2021-12-14T11:43:00+01:00</time>
      </trkpt>
      <trkpt lat="44.19707" lon="4.59893">
        <ele>215</ele>
        <time>2021-12-14T11:43:05+01:00</time>
      </trkpt>
      <trkpt lat="44.19661" lon="4.60008">
        <ele>216</ele>
        <time>2021-12-14T11:43:10+01:00</time>
      </trkpt>
      <trkpt lat="44.19659" lon="4.60072">
        <ele>215</ele>
        <time>2021-12-14T11:43:15+01:00</time>
      </trkpt>
      <trkpt lat="44.19607" lon="4.60149">
        <ele>205</ele>
        <time>2021-12-14T11:43:20+01:00</time>
      </trkpt>
      <trkpt lat="44.19337" lon="4.60187">
        <ele>197</ele>
        <time>2021-12-14T11:43:25+01:00</time>
      </trkpt>
      <trkpt lat="44.19294" lon="4.603">
        <ele>194</ele>
        <time>2021-12-14T11:43:30+01:00</time>
      </trkpt>
      <trkpt lat="44.19284" lon="4.60386">
        <ele>188</ele>
        <time>2021-12-14T11:43:35+01:00</time>
      </trkpt>
      <trkpt lat="44.19238" lon="4.60403">
        <ele>184</ele>
        <time>2021-12-14T11:43:40+01:00</time>
      </trkpt>
      <trkpt lat="44.19179" lon="4.60514">
        <ele>169</ele>
        <time>2021-12-14T11:43:45+01:00</time>
      </trkpt>
      <trkpt lat="44.19157" lon="4.60563">
        <ele>165</ele>
        <time>2021-12-14T11:43:50+01:00</time>
      </trkpt>
      <trkpt lat="44.19106" lon="4.60612">
        <ele>159</ele>
        <time>2021-12-14T11:43:55+01:00</time>
      </trkpt>
      <trkpt lat="44.19052" lon="4.60608">
        <ele>158</ele>
        <time>2021-12-14T11:44:00+01:00</time>
      </trkpt>
      <trkpt lat="44.19026" lon="4.60648">
        <ele>154</ele>
        <time>2021-12-14T11:44:05+01:00</time>
      </trkpt>
      <trkpt lat="44.19017" lon="4.6071">
        <ele>148</ele>
        <time>2021-12-14T11:44:10+01:00</time>
      </trkpt>
      <trkpt lat="44.18952" lon="4.6075">
        <ele>140</ele>
        <time>2021-12-14T11:44:15+01:00</time>
      </trkpt>
      <trkpt lat="44.18853" lon="4.60731">
        <ele>135</ele>
        <time>2021-12-14T11:44:20+01:00</time>
      </trkpt>
      <trkpt lat="44.18777" lon="4.60736">
        <ele>128</ele>
        <time>2021-12-14T11:44:25+01:00</time>
      </trkpt>
      <trkpt lat="44.18675" lon="4.60701">
        <ele>117</ele>
        <time>2021-12-14T11:44:30+01:00</time>
      </trkpt>
      <trkpt lat="44.18642" lon="4.60742">
        <ele>117</ele>
        <time>2021-12-14T11:44:35+01:00</time>
      </trkpt>
      <trkpt lat="44.18575" lon="4.60695">
        <ele>106</ele>
        <time>2021-12-14T11:44:40+01:00</time>
      </trkpt>
      <trkpt lat="44.18481" lon="4.60708">
        <ele>92</ele>
        <time>2021-12-14T11:44:45+01:00</time>
      </trkpt>
      <trkpt lat="44.18389" lon="4.6074">
        <ele>83</ele>
        <time>2021-12-14T11:44:50+01:00</time>
      </trkpt>
      <trkpt lat="44.18201" lon="4.6081">
        <ele>73</ele>
        <time>2021-12-14T11:44:55+01:00</time>
      </trkpt>
      <trkpt lat="44.18362" lon="4.6123">
        <ele>75</ele>
        <time>2021-12-14T11:45:00+01:00</time>
      </trkpt>
      <trkpt lat="44.18168" lon="4.6128">
        <ele>68</ele>
        <time>2021-12-14T11:45:05+01:00</time>
      </trkpt>
      <trkpt lat="44.18061" lon="4.61256">
        <ele>67</ele>
        <time>2021-12-14T11:45:10+01:00</time>
      </trkpt>
      <trkpt lat="44.18007" lon="4.61427">
        <ele>64</ele>
        <time>2021-12-14T11:45:15+01:00</time>
      </trkpt>
      <trkpt lat="44.17833" lon="4.61401">
        <ele>57</ele>
        <time>2021-12-14T11:45:20+01:00</time>
      </trkpt>
      <trkpt lat="44.17818" lon="4.61437">
        <ele>56</ele>
        <time>2021-12-14T11:45:25+01:00</time>
      </trkpt>
      <trkpt lat="44.17628" lon="4.61501">
        <ele>51</ele>
        <time>2021-12-14T11:45:30+01:00</time>
      </trkpt>
      <trkpt lat="44.17448" lon="4.616">
        <ele>50</ele>
        <time>2021-12-14T11:45:35+01:00</time>
      </trkpt>
      <trkpt lat="44.17368" lon="4.61646">
        <ele>48</ele>
        <time>2021-12-14T11:45:40+01:00</time>
      </trkpt>
      <trkpt lat="44.17258" lon="4.61809">
        <ele>49</ele>
        <time>2021-12-14T11:45:45+01:00</time>
      </trkpt>
      <trkpt lat="44.17169" lon="4.61832">
        <ele>45</ele>
        <time>2021-12-14T11:45:50+01:00</time>
      </trkpt>
      <trkpt lat="44.17151" lon="4.6199">
        <ele>48</ele>
        <time>2021-12-14T11:45:55+01:00</time>
      </trkpt>
      <trkpt lat="44.17055" lon="4.62009">
        <ele>44</ele>
        <time>2021-12-14T11:46:00+01:00</time>
      </trkpt>
      <trkpt lat="44.16946" lon="4.61968">
        <ele>47</ele>
        <time>2021-12-14T11:46:05+01:00</time>
      </trkpt>
      <trkpt lat="44.1684" lon="4.61928">
        <ele>48</ele>
        <time>2021-12-14T11:46:10+01:00</time>
      </trkpt>
      <trkpt lat="44.1655" lon="4.61936">
        <ele>55</ele>
        <time>2021-12-14T11:46:15+01:00</time>
      </trkpt>
      <trkpt lat="44.16429" lon="4.61986">
        <ele>62</ele>
        <time>2021-12-14T11:46:20+01:00</time>
      </trkpt>
      <trkpt lat="44.16223" lon="4.6196">
        <ele>66</ele>
        <time>2021-12-14T11:46:25+01:00</time>
      </trkpt>
      <trkpt lat="44.16194" lon="4.62154">
        <ele>60</ele>
        <time>2021-12-14T11:46:30+01:00</time>
      </trkpt>
      <trkpt lat="44.16156" lon="4.62355">
        <ele>56</ele>
        <time>2021-12-14T11:46:35+01:00</time>
      </trkpt>
      <trkpt lat="44.16079" lon="4.62666">
        <ele>51</ele>
        <time>2021-12-14T11:46:40+01:00</time>
      </trkpt>
      <trkpt lat="44.161" lon="4.62751">
        <ele>50</ele>
        <time>2021-12-14T11:46:45+01:00</time>
      </trkpt>
      <trkpt lat="44.16064" lon="4.62764">
        <ele>50</ele>
        <time>2021-12-14T11:46:50+01:00</time>
      </trkpt>
      <trkpt lat="44.16015" lon="4.62965">
        <ele>51</ele>
        <time>2021-12-14T11:46:55+01:00</time>
      </trkpt>
      <trkpt lat="44.15894" lon="4.63193">
        <ele>55</ele>
        <time>2021-12-14T11:47:00+01:00</time>
      </trkpt>
      <trkpt lat="44.15841" lon="4.63248">
        <ele>55</ele>
        <time>2021-12-14T11:47:05+01:00</time>
      </trkpt>
      <trkpt lat="44.15763" lon="4.63231">
        <ele>55</ele>
        <time>2021-12-14T11:47:10+01:00</time>
      </trkpt>
      <trkpt lat="44.15736" lon="4.63251">
        <ele>57</ele>
        <time>2021-12-14T11:47:15+01:00</time>
      </trkpt>
      <trkpt lat="44.15712" lon="4.63369">
        <ele>56</ele>
        <time>2021-12-14T11:47:20+01:00</time>
      </trkpt>
      <trkpt lat="44.15598" lon="4.63418">
        <ele>54</ele>
        <time>2021-12-14T11:47:25+01:00</time>
      </trkpt>
      <trkpt lat="44.15559" lon="4.63481">
        <ele>53</ele>
        <time>2021-12-14T11:47:30+01:00</time>
      </trkpt>
      <trkpt lat="44.15556" lon="4.63579">
        <ele>49</ele>
        <time>2021-12-14T11:47:35+01:00</time>
      </trkpt>
      <trkpt lat="44.15579" lon="4.63719">
        <ele>48</ele>
        <time>2021-12-14T11:47:40+01:00</time>
      </trkpt>
      <trkpt lat="44.15465" lon="4.64142">
        <ele>51</ele>
        <time>2021-12-14T11:47:45+01:00</time>
      </trkpt>
      <trkpt lat="44.15321" lon="4.6444">
        <ele>49</ele>
        <time>2021-12-14T11:47:50+01:00</time>
      </trkpt>
      <trkpt lat="44.15131" lon="4.64609">
        <ele>49</ele>
        <time>2021-12-14T11:47:55+01:00</time>
      </trkpt>
      <trkpt lat="44.14971" lon="4.648">
        <ele>48</ele>
        <time>2021-12-14T11:48:00+01:00</time>
      </trkpt>
      <trkpt lat="44.14796" lon="4.64987">
        <ele>51</ele>
        <time>2021-12-14T11:48:05+01:00</time>
      </trkpt>
      <trkpt lat="44.14445" lon="4.65333">
        <ele>57</ele>
        <time>2021-12-14T11:48:10+01:00</time>
      </trkpt>
      <trkpt lat="44.14312" lon="4.65369">
        <ele>60</ele>
        <time>2021-12-14T11:48:15+01:00</time>
      </trkpt>
      <trkpt lat="44.14172" lon="4.65472">
        <ele>63</ele>
        <time>2021-12-14T11:48:20+01:00</time>
      </trkpt>
      <trkpt lat="44.14006" lon="4.65676">
        <ele>63</ele>
        <time>2021-12-14T11:48:25+01:00</time>
      </trkpt>
      <trkpt lat="44.13879" lon="4.6579">
        <ele>61</ele>
        <time>2021-12-14T11:48:30+01:00</time>
      </trkpt>
      <trkpt lat="44.1375" lon="4.65828">
        <ele>63</ele>
        <time>2021-12-14T11:48:35+01:00</time>
      </trkpt>
      <trkpt lat="44.13648" lon="4.65895">
        <ele>60</ele>
        <time>2021-12-14T11:48:40+01:00</time>
      </trkpt>
      <trkpt lat="44.13479" lon="4.65963">
        <ele>65</ele>
        <time>2021-12-14T11:48:45+01:00</time>
      </trkpt>
      <trkpt lat="44.13391" lon="4.65972">
        <ele>70</ele>
        <time>2021-12-14T11:48:50+01:00</time>
      </trkpt>
      <trkpt lat="44.13293" lon="4.66062">
        <ele>68</ele>
        <time>2021-12-14T11:48:55+01:00</time>
      </trkpt>
      <trkpt lat="44.13231" lon="4.66082">
        <ele>69</ele>
        <time>2021-12-14T11:49:00+01:00</time>
      </trkpt>
      <trkpt lat="44.1311" lon="4.6619">
        <ele>76</ele>
        <time>2021-12-14T11:49:05+01:00</time>
      </trkpt>
      <trkpt lat="44.13011" lon="4.66163">
        <ele>81</ele>
        <time>2021-12-14T11:49:10+01:00</time>
      </trkpt>
      <trkpt lat="44.12943" lon="4.66167">
        <ele>81</ele>
        <time>2021-12-14T11:49:15+01:00</time>
      </trkpt>
      <trkpt lat="44.12875" lon="4.66204">
        <ele>77</ele>
        <time>2021-12-14T11:49:20+01:00</time>
      </trkpt>
      <trkpt lat="44.12865" lon="4.66223">
        <ele>75</ele>
        <time>2021-12-14T11:49:25+01:00</time>
      </trkpt>
      <trkpt lat="44.12875" lon="4.66312">
        <ele>69</ele>
        <time>2021-12-14T11:49:30+01:00</time>
      </trkpt>
      <trkpt lat="44.12903" lon="4.66394">
        <ele>62</ele>
        <time>2021-12-14T11:49:35+01:00</time>
      </trkpt>
      <trkpt lat="44.12952" lon="4.66379">
        <ele>66</ele>
        <time>2021-12-14T11:49:40+01:00</time>
      </trkpt>
    </trkseg>
  </trk>
  <trk>
    <name><![CDATA[52 - ORSAN VILLENEUVE LES AVIGNON 26.7 KM]]></name>
    <extensions>
      <line xmlns="http://www.topografix.com/GPX/gpx_style/0/2">
        <color>FF0000</color>
        <width>4</width>
      </line>
    </extensions>
    <trkseg>
      <trkpt lat="44.12958" lon="4.66367">
        <ele>68</ele>
      </trkpt>
      <trkpt lat="44.12902" lon="4.66392">
        <ele>62</ele>
      </trkpt>
      <trkpt lat="44.12875" lon="4.66317">
        <ele>69</ele>
      </trkpt>
      <trkpt lat="44.12861" lon="4.6621">
        <ele>75</ele>
      </trkpt>
      <trkpt lat="44.12684" lon="4.66199">
        <ele>82</ele>
      </trkpt>
      <trkpt lat="44.12496" lon="4.6624">
        <ele>82</ele>
      </trkpt>
      <trkpt lat="44.12511" lon="4.66345">
        <ele>65</ele>
      </trkpt>
      <trkpt lat="44.12351" lon="4.6642">
        <ele>65</ele>
      </trkpt>
      <trkpt lat="44.12287" lon="4.66483">
        <ele>64</ele>
      </trkpt>
      <trkpt lat="44.12122" lon="4.66489">
        <ele>68</ele>
      </trkpt>
      <trkpt lat="44.12041" lon="4.66461">
        <ele>70</ele>
      </trkpt>
      <trkpt lat="44.1193" lon="4.66613">
        <ele>69</ele>
      </trkpt>
      <trkpt lat="44.11862" lon="4.66611">
        <ele>72</ele>
      </trkpt>
      <trkpt lat="44.11831" lon="4.665">
        <ele>74</ele>
      </trkpt>
      <trkpt lat="44.11751" lon="4.66406">
        <ele>80</ele>
      </trkpt>
      <trkpt lat="44.11711" lon="4.66376">
        <ele>80</ele>
      </trkpt>
      <trkpt lat="44.11656" lon="4.66237">
        <ele>87</ele>
      </trkpt>
      <trkpt lat="44.114" lon="4.6616">
        <ele>100</ele>
      </trkpt>
      <trkpt lat="44.11237" lon="4.66044">
        <ele>98</ele>
      </trkpt>
      <trkpt lat="44.11193" lon="4.65928">
        <ele>97</ele>
      </trkpt>
      <trkpt lat="44.11092" lon="4.65894">
        <ele>96</ele>
      </trkpt>
      <trkpt lat="44.10888" lon="4.6593">
        <ele>85</ele>
      </trkpt>
      <trkpt lat="44.10848" lon="4.65803">
        <ele>98</ele>
      </trkpt>
      <trkpt lat="44.10689" lon="4.65809">
        <ele>97</ele>
      </trkpt>
      <trkpt lat="44.10673" lon="4.65897">
        <ele>83</ele>
      </trkpt>
      <trkpt lat="44.10598" lon="4.65941">
        <ele>74</ele>
      </trkpt>
      <trkpt lat="44.10562" lon="4.65961">
        <ele>70</ele>
      </trkpt>
      <trkpt lat="44.10498" lon="4.65861">
        <ele>72</ele>
      </trkpt>
      <trkpt lat="44.10375" lon="4.65911">
        <ele>57</ele>
      </trkpt>
      <trkpt lat="44.10391" lon="4.65961">
        <ele>56</ele>
      </trkpt>
      <trkpt lat="44.10234" lon="4.66035">
        <ele>47</ele>
      </trkpt>
      <trkpt lat="44.10157" lon="4.65933">
        <ele>47</ele>
      </trkpt>
      <trkpt lat="44.10103" lon="4.65986">
        <ele>46</ele>
      </trkpt>
      <trkpt lat="44.10064" lon="4.65975">
        <ele>47</ele>
      </trkpt>
      <trkpt lat="44.09982" lon="4.65991">
        <ele>48</ele>
      </trkpt>
      <trkpt lat="44.09899" lon="4.65964">
        <ele>49</ele>
      </trkpt>
      <trkpt lat="44.09686" lon="4.65977">
        <ele>49</ele>
      </trkpt>
      <trkpt lat="44.09694" lon="4.65762">
        <ele>50</ele>
      </trkpt>
      <trkpt lat="44.0945" lon="4.65767">
        <ele>53</ele>
      </trkpt>
      <trkpt lat="44.09289" lon="4.65789">
        <ele>53</ele>
      </trkpt>
      <trkpt lat="44.09067" lon="4.65811">
        <ele>56</ele>
      </trkpt>
      <trkpt lat="44.08846" lon="4.65897">
        <ele>61</ele>
      </trkpt>
      <trkpt lat="44.08634" lon="4.65977">
        <ele>64</ele>
      </trkpt>
      <trkpt lat="44.08473" lon="4.66116">
        <ele>65</ele>
      </trkpt>
      <trkpt lat="44.08215" lon="4.66362">
        <ele>70</ele>
      </trkpt>
      <trkpt lat="44.08135" lon="4.66464">
        <ele>71</ele>
      </trkpt>
      <trkpt lat="44.07873" lon="4.66376">
        <ele>77</ele>
      </trkpt>
      <trkpt lat="44.07796" lon="4.66566">
        <ele>77</ele>
      </trkpt>
      <trkpt lat="44.07567" lon="4.66682">
        <ele>80</ele>
      </trkpt>
      <trkpt lat="44.07359" lon="4.66799">
        <ele>86</ele>
      </trkpt>
      <trkpt lat="44.07082" lon="4.6694">
        <ele>94</ele>
      </trkpt>
      <trkpt lat="44.06981" lon="4.67081">
        <ele>97</ele>
      </trkpt>
      <trkpt lat="44.06927" lon="4.67094">
        <ele>100</ele>
      </trkpt>
      <trkpt lat="44.06947" lon="4.67188">
        <ele>100</ele>
      </trkpt>
      <trkpt lat="44.06979" lon="4.6739">
        <ele>98</ele>
      </trkpt>
      <trkpt lat="44.06971" lon="4.6749">
        <ele>100</ele>
      </trkpt>
      <trkpt lat="44.07011" lon="4.67636">
        <ele>98</ele>
      </trkpt>
      <trkpt lat="44.06995" lon="4.67758">
        <ele>100</ele>
      </trkpt>
      <trkpt lat="44.06933" lon="4.67871">
        <ele>109</ele>
      </trkpt>
      <trkpt lat="44.06927" lon="4.68024">
        <ele>112</ele>
      </trkpt>
      <trkpt lat="44.06933" lon="4.68082">
        <ele>106</ele>
      </trkpt>
      <trkpt lat="44.0688" lon="4.682">
        <ele>95</ele>
      </trkpt>
      <trkpt lat="44.06846" lon="4.68173">
        <ele>98</ele>
      </trkpt>
      <trkpt lat="44.06777" lon="4.68281">
        <ele>90</ele>
      </trkpt>
      <trkpt lat="44.06767" lon="4.68474">
        <ele>91</ele>
      </trkpt>
      <trkpt lat="44.06715" lon="4.68552">
        <ele>93</ele>
      </trkpt>
      <trkpt lat="44.06628" lon="4.68646">
        <ele>95</ele>
      </trkpt>
      <trkpt lat="44.0655" lon="4.68776">
        <ele>99</ele>
      </trkpt>
      <trkpt lat="44.06488" lon="4.6887">
        <ele>97</ele>
      </trkpt>
      <trkpt lat="44.06427" lon="4.69013">
        <ele>97</ele>
      </trkpt>
      <trkpt lat="44.06455" lon="4.69107">
        <ele>88</ele>
      </trkpt>
      <trkpt lat="44.06506" lon="4.69425">
        <ele>75</ele>
      </trkpt>
      <trkpt lat="44.06395" lon="4.69459">
        <ele>72</ele>
      </trkpt>
      <trkpt lat="44.06111" lon="4.69489">
        <ele>76</ele>
      </trkpt>
      <trkpt lat="44.06099" lon="4.69575">
        <ele>75</ele>
      </trkpt>
      <trkpt lat="44.05944" lon="4.69622">
        <ele>81</ele>
      </trkpt>
      <trkpt lat="44.05946" lon="4.69713">
        <ele>80</ele>
      </trkpt>
      <trkpt lat="44.05765" lon="4.69738">
        <ele>84</ele>
      </trkpt>
      <trkpt lat="44.05733" lon="4.69848">
        <ele>77</ele>
      </trkpt>
      <trkpt lat="44.05553" lon="4.69926">
        <ele>82</ele>
      </trkpt>
      <trkpt lat="44.05552" lon="4.69958">
        <ele>82</ele>
      </trkpt>
      <trkpt lat="44.0548" lon="4.69956">
        <ele>86</ele>
      </trkpt>
      <trkpt lat="44.05445" lon="4.70027">
        <ele>84</ele>
      </trkpt>
      <trkpt lat="44.05414" lon="4.70003">
        <ele>86</ele>
      </trkpt>
      <trkpt lat="44.05361" lon="4.70132">
        <ele>78</ele>
      </trkpt>
      <trkpt lat="44.0538" lon="4.70147">
        <ele>77</ele>
      </trkpt>
      <trkpt lat="44.05366" lon="4.70214">
        <ele>76</ele>
      </trkpt>
      <trkpt lat="44.05321" lon="4.70244">
        <ele>76</ele>
      </trkpt>
      <trkpt lat="44.05251" lon="4.704">
        <ele>75</ele>
      </trkpt>
      <trkpt lat="44.05208" lon="4.70472">
        <ele>76</ele>
      </trkpt>
      <trkpt lat="44.05188" lon="4.70499">
        <ele>77</ele>
      </trkpt>
      <trkpt lat="44.05157" lon="4.70503">
        <ele>77</ele>
      </trkpt>
      <trkpt lat="44.05117" lon="4.70612">
        <ele>77</ele>
      </trkpt>
      <trkpt lat="44.05049" lon="4.70866">
        <ele>84</ele>
      </trkpt>
      <trkpt lat="44.0501" lon="4.71017">
        <ele>88</ele>
      </trkpt>
      <trkpt lat="44.04893" lon="4.71213">
        <ele>100</ele>
      </trkpt>
      <trkpt lat="44.04878" lon="4.71405">
        <ele>105</ele>
      </trkpt>
      <trkpt lat="44.04839" lon="4.71468">
        <ele>107</ele>
      </trkpt>
      <trkpt lat="44.04806" lon="4.71557">
        <ele>107</ele>
      </trkpt>
      <trkpt lat="44.0474" lon="4.71656">
        <ele>111</ele>
      </trkpt>
      <trkpt lat="44.04678" lon="4.71783">
        <ele>113</ele>
      </trkpt>
      <trkpt lat="44.04575" lon="4.71918">
        <ele>109</ele>
      </trkpt>
      <trkpt lat="44.04504" lon="4.71986">
        <ele>105</ele>
      </trkpt>
      <trkpt lat="44.04453" lon="4.7204">
        <ele>101</ele>
      </trkpt>
      <trkpt lat="44.04469" lon="4.72083">
        <ele>97</ele>
      </trkpt>
      <trkpt lat="44.04332" lon="4.72315">
        <ele>91</ele>
      </trkpt>
      <trkpt lat="44.04359" lon="4.72384">
        <ele>91</ele>
      </trkpt>
      <trkpt lat="44.04376" lon="4.72538">
        <ele>91</ele>
      </trkpt>
      <trkpt lat="44.0441" lon="4.72625">
        <ele>92</ele>
      </trkpt>
      <trkpt lat="44.04441" lon="4.72873">
        <ele>86</ele>
      </trkpt>
      <trkpt lat="44.0456" lon="4.73051">
        <ele>89</ele>
      </trkpt>
      <trkpt lat="44.04612" lon="4.73217">
        <ele>88</ele>
      </trkpt>
      <trkpt lat="44.04634" lon="4.73434">
        <ele>81</ele>
      </trkpt>
      <trkpt lat="44.04666" lon="4.73555">
        <ele>77</ele>
      </trkpt>
      <trkpt lat="44.04689" lon="4.737">
        <ele>74</ele>
      </trkpt>
      <trkpt lat="44.04776" lon="4.7408">
        <ele>65</ele>
      </trkpt>
      <trkpt lat="44.04773" lon="4.7419">
        <ele>62</ele>
      </trkpt>
      <trkpt lat="44.04855" lon="4.74397">
        <ele>55</ele>
      </trkpt>
      <trkpt lat="44.04862" lon="4.74601">
        <ele>53</ele>
      </trkpt>
      <trkpt lat="44.04968" lon="4.749">
        <ele>65</ele>
      </trkpt>
      <trkpt lat="44.04727" lon="4.74939">
        <ele>49</ele>
      </trkpt>
      <trkpt lat="44.04567" lon="4.75063">
        <ele>55</ele>
      </trkpt>
      <trkpt lat="44.04446" lon="4.75093">
        <ele>56</ele>
      </trkpt>
      <trkpt lat="44.04286" lon="4.75059">
        <ele>54</ele>
      </trkpt>
      <trkpt lat="44.04209" lon="4.74952">
        <ele>50</ele>
      </trkpt>
      <trkpt lat="44.04141" lon="4.74943">
        <ele>49</ele>
      </trkpt>
      <trkpt lat="44.04172" lon="4.75497">
        <ele>72</ele>
      </trkpt>
      <trkpt lat="44.04058" lon="4.75617">
        <ele>73</ele>
      </trkpt>
      <trkpt lat="44.03993" lon="4.7572">
        <ele>75</ele>
      </trkpt>
      <trkpt lat="44.03752" lon="4.75883">
        <ele>67</ele>
      </trkpt>
      <trkpt lat="44.03684" lon="4.75922">
        <ele>67</ele>
      </trkpt>
      <trkpt lat="44.03623" lon="4.7596">
        <ele>62</ele>
      </trkpt>
      <trkpt lat="44.03515" lon="4.76196">
        <ele>51</ele>
      </trkpt>
      <trkpt lat="44.03595" lon="4.76372">
        <ele>46</ele>
      </trkpt>
      <trkpt lat="44.03474" lon="4.76741">
        <ele>32</ele>
      </trkpt>
      <trkpt lat="44.03471" lon="4.77033">
        <ele>29</ele>
      </trkpt>
      <trkpt lat="44.0353" lon="4.77153">
        <ele>28</ele>
      </trkpt>
      <trkpt lat="44.03529" lon="4.77367">
        <ele>25</ele>
      </trkpt>
      <trkpt lat="44.03444" lon="4.77459">
        <ele>28</ele>
      </trkpt>
      <trkpt lat="44.03355" lon="4.77647">
        <ele>30</ele>
      </trkpt>
      <trkpt lat="44.03253" lon="4.77743">
        <ele>41</ele>
      </trkpt>
      <trkpt lat="44.03172" lon="4.77847">
        <ele>61</ele>
      </trkpt>
      <trkpt lat="44.03191" lon="4.77936">
        <ele>63</ele>
      </trkpt>
      <trkpt lat="44.03155" lon="4.77924">
        <ele>72</ele>
      </trkpt>
      <trkpt lat="44.03145" lon="4.77951">
        <ele>72</ele>
      </trkpt>
      <trkpt lat="44.03121" lon="4.7793">
        <ele>79</ele>
      </trkpt>
      <trkpt lat="44.0309" lon="4.77922">
        <ele>87</ele>
      </trkpt>
      <trkpt lat="44.03038" lon="4.77879">
        <ele>94</ele>
      </trkpt>
      <trkpt lat="44.02987" lon="4.77879">
        <ele>99</ele>
      </trkpt>
      <trkpt lat="44.02907" lon="4.77827">
        <ele>106</ele>
      </trkpt>
      <trkpt lat="44.0281" lon="4.77809">
        <ele>111</ele>
      </trkpt>
      <trkpt lat="44.02718" lon="4.77814">
        <ele>113</ele>
      </trkpt>
      <trkpt lat="44.02581" lon="4.77853">
        <ele>114</ele>
      </trkpt>
      <trkpt lat="44.02466" lon="4.77917">
        <ele>113</ele>
      </trkpt>
      <trkpt lat="44.02337" lon="4.77978">
        <ele>112</ele>
      </trkpt>
      <trkpt lat="44.02244" lon="4.78062">
        <ele>108</ele>
      </trkpt>
      <trkpt lat="44.02119" lon="4.78149">
        <ele>102</ele>
      </trkpt>
      <trkpt lat="44.01949" lon="4.7824">
        <ele>101</ele>
      </trkpt>
      <trkpt lat="44.01845" lon="4.78239">
        <ele>100</ele>
      </trkpt>
      <trkpt lat="44.01678" lon="4.78185">
        <ele>99</ele>
      </trkpt>
      <trkpt lat="44.01558" lon="4.78203">
        <ele>97</ele>
      </trkpt>
      <trkpt lat="44.01393" lon="4.78268">
        <ele>90</ele>
      </trkpt>
      <trkpt lat="44.01317" lon="4.78268">
        <ele>84</ele>
      </trkpt>
      <trkpt lat="44.01153" lon="4.78332">
        <ele>74</ele>
      </trkpt>
      <trkpt lat="44.00979" lon="4.78383">
        <ele>68</ele>
      </trkpt>
      <trkpt lat="44.00863" lon="4.78385">
        <ele>68</ele>
      </trkpt>
      <trkpt lat="44.00794" lon="4.78409">
        <ele>67</ele>
      </trkpt>
      <trkpt lat="44.00698" lon="4.78451">
        <ele>67</ele>
      </trkpt>
      <trkpt lat="44.00565" lon="4.78447">
        <ele>66</ele>
      </trkpt>
      <trkpt lat="44.00487" lon="4.78458">
        <ele>66</ele>
      </trkpt>
      <trkpt lat="44.00346" lon="4.78493">
        <ele>66</ele>
      </trkpt>
      <trkpt lat="44.00243" lon="4.78513">
        <ele>65</ele>
      </trkpt>
      <trkpt lat="44.00075" lon="4.78527">
        <ele>66</ele>
      </trkpt>
      <trkpt lat="43.99985" lon="4.7852">
        <ele>64</ele>
      </trkpt>
      <trkpt lat="43.99901" lon="4.78525">
        <ele>66</ele>
      </trkpt>
      <trkpt lat="43.99867" lon="4.78546">
        <ele>73</ele>
      </trkpt>
      <trkpt lat="43.99738" lon="4.78566">
        <ele>81</ele>
      </trkpt>
      <trkpt lat="43.99649" lon="4.78598">
        <ele>81</ele>
      </trkpt>
      <trkpt lat="43.99538" lon="4.78595">
        <ele>83</ele>
      </trkpt>
      <trkpt lat="43.99494" lon="4.78573">
        <ele>84</ele>
      </trkpt>
      <trkpt lat="43.99376" lon="4.78591">
        <ele>86</ele>
      </trkpt>
      <trkpt lat="43.99277" lon="4.78611">
        <ele>89</ele>
      </trkpt>
      <trkpt lat="43.99227" lon="4.78613">
        <ele>89</ele>
      </trkpt>
      <trkpt lat="43.99139" lon="4.78631">
        <ele>89</ele>
      </trkpt>
      <trkpt lat="43.99047" lon="4.78628">
        <ele>85</ele>
      </trkpt>
      <trkpt lat="43.98955" lon="4.78527">
        <ele>82</ele>
      </trkpt>
      <trkpt lat="43.98864" lon="4.78469">
        <ele>80</ele>
      </trkpt>
      <trkpt lat="43.98778" lon="4.7844">
        <ele>79</ele>
      </trkpt>
      <trkpt lat="43.98769" lon="4.7838">
        <ele>79</ele>
      </trkpt>
      <trkpt lat="43.98722" lon="4.78403">
        <ele>78</ele>
      </trkpt>
      <trkpt lat="43.98671" lon="4.78396">
        <ele>78</ele>
      </trkpt>
      <trkpt lat="43.98504" lon="4.78469">
        <ele>80</ele>
      </trkpt>
      <trkpt lat="43.98382" lon="4.78484">
        <ele>79</ele>
      </trkpt>
      <trkpt lat="43.98264" lon="4.78478">
        <ele>74</ele>
      </trkpt>
      <trkpt lat="43.98012" lon="4.78581">
        <ele>70</ele>
      </trkpt>
      <trkpt lat="43.98154" lon="4.78692">
        <ele>75</ele>
      </trkpt>
      <trkpt lat="43.98145" lon="4.7886">
        <ele>77</ele>
      </trkpt>
    </trkseg>
  </trk>
  <trk>
    <name><![CDATA[53 - VILLENEUVE LES AVIGNON ST REMY DE PROVENCE 27.7 KM]]></name>
    <extensions>
      <line xmlns="http://www.topografix.com/GPX/gpx_style/0/2">
        <color>00FFFF</color>
        <width>4</width>
      </line>
    </extensions>
    <trkseg>
      <trkpt lat="43.98151" lon="4.7883">
        <ele>77</ele>
      </trkpt>
      <trkpt lat="43.98145" lon="4.78671">
        <ele>75</ele>
      </trkpt>
      <trkpt lat="43.98024" lon="4.78654">
        <ele>75</ele>
      </trkpt>
      <trkpt lat="43.97966" lon="4.78551">
        <ele>70</ele>
      </trkpt>
      <trkpt lat="43.97813" lon="4.7866">
        <ele>72</ele>
      </trkpt>
      <trkpt lat="43.97747" lon="4.78885">
        <ele>68</ele>
      </trkpt>
      <trkpt lat="43.9771" lon="4.78908">
        <ele>65</ele>
      </trkpt>
      <trkpt lat="43.97629" lon="4.78868">
        <ele>62</ele>
      </trkpt>
      <trkpt lat="43.97534" lon="4.78939">
        <ele>56</ele>
      </trkpt>
      <trkpt lat="43.97452" lon="4.78986">
        <ele>56</ele>
      </trkpt>
      <trkpt lat="43.97314" lon="4.79052">
        <ele>51</ele>
      </trkpt>
      <trkpt lat="43.97115" lon="4.79222">
        <ele>33</ele>
      </trkpt>
      <trkpt lat="43.97044" lon="4.79254">
        <ele>28</ele>
      </trkpt>
      <trkpt lat="43.97036" lon="4.79297">
        <ele>25</ele>
      </trkpt>
      <trkpt lat="43.96986" lon="4.79303">
        <ele>24</ele>
      </trkpt>
      <trkpt lat="43.96744" lon="4.79573">
        <ele>20</ele>
      </trkpt>
      <trkpt lat="43.96367" lon="4.79691">
        <ele>22</ele>
      </trkpt>
      <trkpt lat="43.96168" lon="4.79661">
        <ele>23</ele>
      </trkpt>
      <trkpt lat="43.96157" lon="4.79749">
        <ele>25</ele>
      </trkpt>
      <trkpt lat="43.96111" lon="4.79791">
        <ele>37</ele>
      </trkpt>
      <trkpt lat="43.95868" lon="4.79753">
        <ele>33</ele>
      </trkpt>
      <trkpt lat="43.95791" lon="4.79678">
        <ele>25</ele>
      </trkpt>
      <trkpt lat="43.95774" lon="4.79564">
        <ele>26</ele>
      </trkpt>
      <trkpt lat="43.95666" lon="4.79326">
        <ele>22</ele>
      </trkpt>
      <trkpt lat="43.95569" lon="4.79231">
        <ele>22</ele>
      </trkpt>
      <trkpt lat="43.95465" lon="4.79176">
        <ele>21</ele>
      </trkpt>
      <trkpt lat="43.95432" lon="4.79184">
        <ele>21</ele>
      </trkpt>
      <trkpt lat="43.95411" lon="4.79213">
        <ele>20</ele>
      </trkpt>
      <trkpt lat="43.95326" lon="4.79438">
        <ele>18</ele>
      </trkpt>
      <trkpt lat="43.95271" lon="4.79585">
        <ele>20</ele>
      </trkpt>
      <trkpt lat="43.95213" lon="4.79778">
        <ele>18</ele>
      </trkpt>
      <trkpt lat="43.95089" lon="4.80204">
        <ele>20</ele>
      </trkpt>
      <trkpt lat="43.95067" lon="4.8023">
        <ele>20</ele>
      </trkpt>
      <trkpt lat="43.95034" lon="4.8023">
        <ele>20</ele>
      </trkpt>
      <trkpt lat="43.95029" lon="4.80261">
        <ele>20</ele>
      </trkpt>
      <trkpt lat="43.9501" lon="4.80398">
        <ele>19</ele>
      </trkpt>
      <trkpt lat="43.94893" lon="4.80353">
        <ele>19</ele>
      </trkpt>
      <trkpt lat="43.94784" lon="4.80325">
        <ele>19</ele>
      </trkpt>
      <trkpt lat="43.94708" lon="4.80334">
        <ele>19</ele>
      </trkpt>
      <trkpt lat="43.94634" lon="4.80344">
        <ele>19</ele>
      </trkpt>
      <trkpt lat="43.94573" lon="4.80384">
        <ele>19</ele>
      </trkpt>
      <trkpt lat="43.94538" lon="4.80451">
        <ele>19</ele>
      </trkpt>
      <trkpt lat="43.94517" lon="4.80558">
        <ele>20</ele>
      </trkpt>
      <trkpt lat="43.94274" lon="4.80537">
        <ele>19</ele>
      </trkpt>
      <trkpt lat="43.94256" lon="4.80575">
        <ele>19</ele>
      </trkpt>
      <trkpt lat="43.94235" lon="4.80698">
        <ele>19</ele>
      </trkpt>
      <trkpt lat="43.94199" lon="4.80695">
        <ele>19</ele>
      </trkpt>
      <trkpt lat="43.94101" lon="4.80643">
        <ele>19</ele>
      </trkpt>
      <trkpt lat="43.93972" lon="4.80596">
        <ele>18</ele>
      </trkpt>
      <trkpt lat="43.9385" lon="4.80556">
        <ele>17</ele>
      </trkpt>
      <trkpt lat="43.93746" lon="4.80509">
        <ele>17</ele>
      </trkpt>
      <trkpt lat="43.9354" lon="4.80421">
        <ele>17</ele>
      </trkpt>
      <trkpt lat="43.93439" lon="4.8038">
        <ele>17</ele>
      </trkpt>
      <trkpt lat="43.93375" lon="4.80355">
        <ele>17</ele>
      </trkpt>
      <trkpt lat="43.93296" lon="4.80304">
        <ele>17</ele>
      </trkpt>
      <trkpt lat="43.93224" lon="4.80348">
        <ele>17</ele>
      </trkpt>
      <trkpt lat="43.93111" lon="4.80383">
        <ele>17</ele>
      </trkpt>
      <trkpt lat="43.92962" lon="4.80414">
        <ele>17</ele>
      </trkpt>
      <trkpt lat="43.9295" lon="4.80472">
        <ele>17</ele>
      </trkpt>
      <trkpt lat="43.92815" lon="4.8044">
        <ele>17</ele>
      </trkpt>
      <trkpt lat="43.92745" lon="4.80456">
        <ele>18</ele>
      </trkpt>
      <trkpt lat="43.9256" lon="4.80415">
        <ele>18</ele>
      </trkpt>
      <trkpt lat="43.92404" lon="4.80412">
        <ele>18</ele>
      </trkpt>
      <trkpt lat="43.9232" lon="4.8038">
        <ele>18</ele>
      </trkpt>
      <trkpt lat="43.92235" lon="4.80324">
        <ele>19</ele>
      </trkpt>
      <trkpt lat="43.92173" lon="4.80293">
        <ele>19</ele>
      </trkpt>
      <trkpt lat="43.9211" lon="4.80302">
        <ele>19</ele>
      </trkpt>
      <trkpt lat="43.92095" lon="4.80521">
        <ele>19</ele>
      </trkpt>
      <trkpt lat="43.92099" lon="4.80695">
        <ele>19</ele>
      </trkpt>
      <trkpt lat="43.9205" lon="4.80939">
        <ele>20</ele>
      </trkpt>
      <trkpt lat="43.9172" lon="4.80948">
        <ele>20</ele>
      </trkpt>
      <trkpt lat="43.91622" lon="4.80905">
        <ele>20</ele>
      </trkpt>
      <trkpt lat="43.91278" lon="4.80748">
        <ele>22</ele>
      </trkpt>
      <trkpt lat="43.91137" lon="4.80685">
        <ele>22</ele>
      </trkpt>
      <trkpt lat="43.90946" lon="4.8057">
        <ele>20</ele>
      </trkpt>
      <trkpt lat="43.90688" lon="4.80444">
        <ele>20</ele>
      </trkpt>
      <trkpt lat="43.90603" lon="4.80387">
        <ele>20</ele>
      </trkpt>
      <trkpt lat="43.90347" lon="4.80365">
        <ele>19</ele>
      </trkpt>
      <trkpt lat="43.89968" lon="4.80344">
        <ele>19</ele>
      </trkpt>
      <trkpt lat="43.89794" lon="4.8031">
        <ele>20</ele>
      </trkpt>
      <trkpt lat="43.89772" lon="4.80268">
        <ele>20</ele>
      </trkpt>
      <trkpt lat="43.8965" lon="4.80154">
        <ele>20</ele>
      </trkpt>
      <trkpt lat="43.89522" lon="4.80265">
        <ele>20</ele>
      </trkpt>
      <trkpt lat="43.89326" lon="4.80282">
        <ele>20</ele>
      </trkpt>
      <trkpt lat="43.8916" lon="4.80285">
        <ele>20</ele>
      </trkpt>
      <trkpt lat="43.8879" lon="4.80291">
        <ele>20</ele>
      </trkpt>
      <trkpt lat="43.88699" lon="4.80382">
        <ele>20</ele>
      </trkpt>
      <trkpt lat="43.88512" lon="4.80355">
        <ele>20</ele>
      </trkpt>
      <trkpt lat="43.88331" lon="4.8035">
        <ele>20</ele>
      </trkpt>
      <trkpt lat="43.88178" lon="4.80306">
        <ele>20</ele>
      </trkpt>
      <trkpt lat="43.88146" lon="4.80355">
        <ele>20</ele>
      </trkpt>
      <trkpt lat="43.88209" lon="4.80551">
        <ele>20</ele>
      </trkpt>
      <trkpt lat="43.88209" lon="4.80717">
        <ele>20</ele>
      </trkpt>
      <trkpt lat="43.87995" lon="4.80764">
        <ele>20</ele>
      </trkpt>
      <trkpt lat="43.88013" lon="4.80863">
        <ele>20</ele>
      </trkpt>
      <trkpt lat="43.87835" lon="4.80825">
        <ele>20</ele>
      </trkpt>
      <trkpt lat="43.87687" lon="4.80863">
        <ele>19</ele>
      </trkpt>
      <trkpt lat="43.87561" lon="4.80761">
        <ele>18</ele>
      </trkpt>
      <trkpt lat="43.87496" lon="4.80568">
        <ele>18</ele>
      </trkpt>
      <trkpt lat="43.87304" lon="4.80478">
        <ele>18</ele>
      </trkpt>
      <trkpt lat="43.87178" lon="4.80431">
        <ele>18</ele>
      </trkpt>
      <trkpt lat="43.86928" lon="4.80428">
        <ele>18</ele>
      </trkpt>
      <trkpt lat="43.86675" lon="4.80463">
        <ele>18</ele>
      </trkpt>
      <trkpt lat="43.86486" lon="4.80315">
        <ele>18</ele>
      </trkpt>
      <trkpt lat="43.86368" lon="4.80434">
        <ele>18</ele>
      </trkpt>
      <trkpt lat="43.86273" lon="4.80452">
        <ele>18</ele>
      </trkpt>
      <trkpt lat="43.86263" lon="4.80749">
        <ele>19</ele>
      </trkpt>
      <trkpt lat="43.8612" lon="4.80583">
        <ele>18</ele>
      </trkpt>
      <trkpt lat="43.85958" lon="4.80481">
        <ele>18</ele>
      </trkpt>
      <trkpt lat="43.85726" lon="4.80455">
        <ele>18</ele>
      </trkpt>
      <trkpt lat="43.85571" lon="4.80393">
        <ele>17</ele>
      </trkpt>
      <trkpt lat="43.85421" lon="4.80355">
        <ele>17</ele>
      </trkpt>
      <trkpt lat="43.85408" lon="4.80955">
        <ele>18</ele>
      </trkpt>
      <trkpt lat="43.85556" lon="4.82299">
        <ele>22</ele>
      </trkpt>
      <trkpt lat="43.85408" lon="4.82408">
        <ele>22</ele>
      </trkpt>
      <trkpt lat="43.85259" lon="4.82473">
        <ele>22</ele>
      </trkpt>
      <trkpt lat="43.84939" lon="4.82505">
        <ele>21</ele>
      </trkpt>
      <trkpt lat="43.84766" lon="4.82463">
        <ele>21</ele>
      </trkpt>
      <trkpt lat="43.84555" lon="4.8266">
        <ele>17</ele>
      </trkpt>
      <trkpt lat="43.84387" lon="4.82945">
        <ele>16</ele>
      </trkpt>
      <trkpt lat="43.83843" lon="4.82559">
        <ele>15</ele>
      </trkpt>
      <trkpt lat="43.83187" lon="4.82539">
        <ele>13</ele>
      </trkpt>
      <trkpt lat="43.83143" lon="4.82889">
        <ele>16</ele>
      </trkpt>
      <trkpt lat="43.83129" lon="4.83149">
        <ele>20</ele>
      </trkpt>
      <trkpt lat="43.82487" lon="4.82929">
        <ele>16</ele>
      </trkpt>
      <trkpt lat="43.81996" lon="4.82449">
        <ele>14</ele>
      </trkpt>
      <trkpt lat="43.81657" lon="4.82189">
        <ele>15</ele>
      </trkpt>
      <trkpt lat="43.80748" lon="4.82189">
        <ele>20</ele>
      </trkpt>
      <trkpt lat="43.80206" lon="4.82709">
        <ele>28</ele>
      </trkpt>
      <trkpt lat="43.79932" lon="4.82679">
        <ele>29</ele>
      </trkpt>
      <trkpt lat="43.79347" lon="4.82939">
        <ele>40</ele>
      </trkpt>
      <trkpt lat="43.79113" lon="4.8303">
        <ele>47</ele>
      </trkpt>
      <trkpt lat="43.79025" lon="4.83044">
        <ele>50</ele>
      </trkpt>
      <trkpt lat="43.79036" lon="4.83145">
        <ele>50</ele>
      </trkpt>
      <trkpt lat="43.79012" lon="4.83144">
        <ele>51</ele>
      </trkpt>
      <trkpt lat="43.78999" lon="4.83174">
        <ele>51</ele>
      </trkpt>
      <trkpt lat="43.78984" lon="4.83181">
        <ele>51</ele>
      </trkpt>
      <trkpt lat="43.78988" lon="4.83206">
        <ele>51</ele>
      </trkpt>
    </trkseg>
  </trk>
  <trk>
    <name><![CDATA[54 - ST REMY DE PROVENCE SALON DE PROVENCE 33.3 KM]]></name>
    <extensions>
      <line xmlns="http://www.topografix.com/GPX/gpx_style/0/2">
        <color>FFFF00</color>
        <width>4</width>
      </line>
    </extensions>
    <trkseg>
      <trkpt lat="43.78989" lon="4.83207">
        <ele>51</ele>
      </trkpt>
      <trkpt lat="43.78985" lon="4.8318">
        <ele>51</ele>
      </trkpt>
      <trkpt lat="43.78947" lon="4.83167">
        <ele>52</ele>
      </trkpt>
      <trkpt lat="43.78912" lon="4.8318">
        <ele>53</ele>
      </trkpt>
      <trkpt lat="43.78879" lon="4.83187">
        <ele>54</ele>
      </trkpt>
      <trkpt lat="43.78851" lon="4.83196">
        <ele>55</ele>
      </trkpt>
      <trkpt lat="43.78845" lon="4.83175">
        <ele>56</ele>
      </trkpt>
      <trkpt lat="43.78755" lon="4.83203">
        <ele>60</ele>
      </trkpt>
      <trkpt lat="43.78648" lon="4.83201">
        <ele>64</ele>
      </trkpt>
      <trkpt lat="43.78545" lon="4.83195">
        <ele>68</ele>
      </trkpt>
      <trkpt lat="43.78521" lon="4.83276">
        <ele>70</ele>
      </trkpt>
      <trkpt lat="43.78451" lon="4.83363">
        <ele>72</ele>
      </trkpt>
      <trkpt lat="43.78414" lon="4.83427">
        <ele>73</ele>
      </trkpt>
      <trkpt lat="43.78373" lon="4.83475">
        <ele>75</ele>
      </trkpt>
      <trkpt lat="43.78284" lon="4.83583">
        <ele>79</ele>
      </trkpt>
      <trkpt lat="43.78272" lon="4.83861">
        <ele>75</ele>
      </trkpt>
      <trkpt lat="43.78243" lon="4.84005">
        <ele>77</ele>
      </trkpt>
      <trkpt lat="43.78207" lon="4.84348">
        <ele>92</ele>
      </trkpt>
      <trkpt lat="43.78179" lon="4.84577">
        <ele>94</ele>
      </trkpt>
      <trkpt lat="43.78151" lon="4.84697">
        <ele>93</ele>
      </trkpt>
      <trkpt lat="43.78141" lon="4.8483">
        <ele>89</ele>
      </trkpt>
      <trkpt lat="43.78185" lon="4.85041">
        <ele>83</ele>
      </trkpt>
      <trkpt lat="43.78247" lon="4.85272">
        <ele>84</ele>
      </trkpt>
      <trkpt lat="43.78237" lon="4.85367">
        <ele>88</ele>
      </trkpt>
      <trkpt lat="43.78169" lon="4.85539">
        <ele>79</ele>
      </trkpt>
      <trkpt lat="43.78104" lon="4.85706">
        <ele>76</ele>
      </trkpt>
      <trkpt lat="43.78172" lon="4.85938">
        <ele>77</ele>
      </trkpt>
      <trkpt lat="43.78117" lon="4.85972">
        <ele>79</ele>
      </trkpt>
      <trkpt lat="43.78101" lon="4.86169">
        <ele>80</ele>
      </trkpt>
      <trkpt lat="43.78061" lon="4.86315">
        <ele>82</ele>
      </trkpt>
      <trkpt lat="43.7798" lon="4.86453">
        <ele>86</ele>
      </trkpt>
      <trkpt lat="43.77887" lon="4.8659">
        <ele>90</ele>
      </trkpt>
      <trkpt lat="43.77813" lon="4.86693">
        <ele>90</ele>
      </trkpt>
      <trkpt lat="43.77714" lon="4.86796">
        <ele>93</ele>
      </trkpt>
      <trkpt lat="43.77659" lon="4.87033">
        <ele>94</ele>
      </trkpt>
      <trkpt lat="43.77636" lon="4.87289">
        <ele>92</ele>
      </trkpt>
      <trkpt lat="43.77555" lon="4.8748">
        <ele>92</ele>
      </trkpt>
      <trkpt lat="43.77526" lon="4.87599">
        <ele>92</ele>
      </trkpt>
      <trkpt lat="43.77524" lon="4.87763">
        <ele>92</ele>
      </trkpt>
      <trkpt lat="43.77486" lon="4.8788">
        <ele>92</ele>
      </trkpt>
      <trkpt lat="43.77422" lon="4.87915">
        <ele>95</ele>
      </trkpt>
      <trkpt lat="43.77367" lon="4.87994">
        <ele>95</ele>
      </trkpt>
      <trkpt lat="43.77315" lon="4.88138">
        <ele>100</ele>
      </trkpt>
      <trkpt lat="43.77188" lon="4.88225">
        <ele>103</ele>
      </trkpt>
      <trkpt lat="43.77025" lon="4.88623">
        <ele>117</ele>
      </trkpt>
      <trkpt lat="43.7692" lon="4.88767">
        <ele>120</ele>
      </trkpt>
      <trkpt lat="43.76863" lon="4.88819">
        <ele>125</ele>
      </trkpt>
      <trkpt lat="43.76842" lon="4.88982">
        <ele>121</ele>
      </trkpt>
      <trkpt lat="43.76453" lon="4.88971">
        <ele>139</ele>
      </trkpt>
      <trkpt lat="43.76451" lon="4.89178">
        <ele>129</ele>
      </trkpt>
      <trkpt lat="43.76421" lon="4.89379">
        <ele>132</ele>
      </trkpt>
      <trkpt lat="43.76435" lon="4.89436">
        <ele>131</ele>
      </trkpt>
      <trkpt lat="43.76411" lon="4.89551">
        <ele>134</ele>
      </trkpt>
      <trkpt lat="43.76435" lon="4.89649">
        <ele>130</ele>
      </trkpt>
      <trkpt lat="43.76402" lon="4.89766">
        <ele>135</ele>
      </trkpt>
      <trkpt lat="43.76429" lon="4.89861">
        <ele>139</ele>
      </trkpt>
      <trkpt lat="43.76616" lon="4.8994">
        <ele>126</ele>
      </trkpt>
      <trkpt lat="43.7648" lon="4.9046">
        <ele>122</ele>
      </trkpt>
      <trkpt lat="43.76482" lon="4.90514">
        <ele>122</ele>
      </trkpt>
      <trkpt lat="43.76413" lon="4.90775">
        <ele>126</ele>
      </trkpt>
      <trkpt lat="43.76333" lon="4.9099">
        <ele>126</ele>
      </trkpt>
      <trkpt lat="43.76319" lon="4.91156">
        <ele>127</ele>
      </trkpt>
      <trkpt lat="43.7627" lon="4.91374">
        <ele>127</ele>
      </trkpt>
      <trkpt lat="43.76262" lon="4.91597">
        <ele>122</ele>
      </trkpt>
      <trkpt lat="43.76246" lon="4.91649">
        <ele>120</ele>
      </trkpt>
      <trkpt lat="43.76179" lon="4.91684">
        <ele>119</ele>
      </trkpt>
      <trkpt lat="43.75914" lon="4.92065">
        <ele>120</ele>
      </trkpt>
      <trkpt lat="43.75782" lon="4.92316">
        <ele>118</ele>
      </trkpt>
      <trkpt lat="43.75688" lon="4.92465">
        <ele>120</ele>
      </trkpt>
      <trkpt lat="43.75528" lon="4.92454">
        <ele>124</ele>
      </trkpt>
      <trkpt lat="43.75255" lon="4.92294">
        <ele>131</ele>
      </trkpt>
      <trkpt lat="43.75151" lon="4.92237">
        <ele>134</ele>
      </trkpt>
      <trkpt lat="43.75035" lon="4.92211">
        <ele>137</ele>
      </trkpt>
      <trkpt lat="43.74874" lon="4.92082">
        <ele>142</ele>
      </trkpt>
      <trkpt lat="43.74803" lon="4.92066">
        <ele>144</ele>
      </trkpt>
      <trkpt lat="43.74665" lon="4.92118">
        <ele>150</ele>
      </trkpt>
      <trkpt lat="43.74546" lon="4.92061">
        <ele>151</ele>
      </trkpt>
      <trkpt lat="43.74422" lon="4.92056">
        <ele>155</ele>
      </trkpt>
      <trkpt lat="43.74232" lon="4.9204">
        <ele>165</ele>
      </trkpt>
      <trkpt lat="43.74071" lon="4.92061">
        <ele>171</ele>
      </trkpt>
      <trkpt lat="43.73941" lon="4.92015">
        <ele>177</ele>
      </trkpt>
      <trkpt lat="43.7381" lon="4.92056">
        <ele>189</ele>
      </trkpt>
      <trkpt lat="43.73683" lon="4.92035">
        <ele>202</ele>
      </trkpt>
      <trkpt lat="43.73582" lon="4.91994">
        <ele>228</ele>
      </trkpt>
      <trkpt lat="43.73548" lon="4.9204">
        <ele>231</ele>
      </trkpt>
      <trkpt lat="43.73384" lon="4.9232">
        <ele>237</ele>
      </trkpt>
      <trkpt lat="43.73276" lon="4.92526">
        <ele>249</ele>
      </trkpt>
      <trkpt lat="43.73171" lon="4.9263">
        <ele>251</ele>
      </trkpt>
      <trkpt lat="43.72999" lon="4.92645">
        <ele>245</ele>
      </trkpt>
      <trkpt lat="43.72808" lon="4.92537">
        <ele>236</ele>
      </trkpt>
      <trkpt lat="43.727" lon="4.92609">
        <ele>220</ele>
      </trkpt>
      <trkpt lat="43.72569" lon="4.92609">
        <ele>217</ele>
      </trkpt>
      <trkpt lat="43.72551" lon="4.92676">
        <ele>224</ele>
      </trkpt>
      <trkpt lat="43.72427" lon="4.9278">
        <ele>235</ele>
      </trkpt>
      <trkpt lat="43.72162" lon="4.92878">
        <ele>226</ele>
      </trkpt>
      <trkpt lat="43.71942" lon="4.92909">
        <ele>218</ele>
      </trkpt>
      <trkpt lat="43.71833" lon="4.92997">
        <ele>206</ele>
      </trkpt>
      <trkpt lat="43.71418" lon="4.9325">
        <ele>164</ele>
      </trkpt>
      <trkpt lat="43.71172" lon="4.93385">
        <ele>173</ele>
      </trkpt>
      <trkpt lat="43.71108" lon="4.93504">
        <ele>176</ele>
      </trkpt>
      <trkpt lat="43.70936" lon="4.93669">
        <ele>161</ele>
      </trkpt>
      <trkpt lat="43.70895" lon="4.93902">
        <ele>158</ele>
      </trkpt>
      <trkpt lat="43.70813" lon="4.94254">
        <ele>145</ele>
      </trkpt>
      <trkpt lat="43.7077" lon="4.94401">
        <ele>138</ele>
      </trkpt>
      <trkpt lat="43.70784" lon="4.94649">
        <ele>134</ele>
      </trkpt>
      <trkpt lat="43.70714" lon="4.94641">
        <ele>130</ele>
      </trkpt>
      <trkpt lat="43.70716" lon="4.94742">
        <ele>134</ele>
      </trkpt>
      <trkpt lat="43.70672" lon="4.94827">
        <ele>135</ele>
      </trkpt>
      <trkpt lat="43.70626" lon="4.94891">
        <ele>135</ele>
      </trkpt>
      <trkpt lat="43.70614" lon="4.95003">
        <ele>137</ele>
      </trkpt>
      <trkpt lat="43.70597" lon="4.95163">
        <ele>143</ele>
      </trkpt>
      <trkpt lat="43.70618" lon="4.95366">
        <ele>145</ele>
      </trkpt>
      <trkpt lat="43.70629" lon="4.95553">
        <ele>151</ele>
      </trkpt>
      <trkpt lat="43.70662" lon="4.95705">
        <ele>153</ele>
      </trkpt>
      <trkpt lat="43.70697" lon="4.95875">
        <ele>156</ele>
      </trkpt>
      <trkpt lat="43.70699" lon="4.96067">
        <ele>161</ele>
      </trkpt>
      <trkpt lat="43.70643" lon="4.96216">
        <ele>162</ele>
      </trkpt>
      <trkpt lat="43.70647" lon="4.96358">
        <ele>165</ele>
      </trkpt>
      <trkpt lat="43.70608" lon="4.9648">
        <ele>163</ele>
      </trkpt>
      <trkpt lat="43.70556" lon="4.96622">
        <ele>163</ele>
      </trkpt>
      <trkpt lat="43.70497" lon="4.96776">
        <ele>160</ele>
      </trkpt>
      <trkpt lat="43.70477" lon="4.96846">
        <ele>160</ele>
      </trkpt>
      <trkpt lat="43.70427" lon="4.9692">
        <ele>163</ele>
      </trkpt>
      <trkpt lat="43.70417" lon="4.9704">
        <ele>170</ele>
      </trkpt>
      <trkpt lat="43.70398" lon="4.97165">
        <ele>170</ele>
      </trkpt>
      <trkpt lat="43.70337" lon="4.97285">
        <ele>163</ele>
      </trkpt>
      <trkpt lat="43.70321" lon="4.97355">
        <ele>162</ele>
      </trkpt>
      <trkpt lat="43.70256" lon="4.97469">
        <ele>159</ele>
      </trkpt>
      <trkpt lat="43.70248" lon="4.97576">
        <ele>160</ele>
      </trkpt>
      <trkpt lat="43.70159" lon="4.97733">
        <ele>154</ele>
      </trkpt>
      <trkpt lat="43.70117" lon="4.97875">
        <ele>161</ele>
      </trkpt>
      <trkpt lat="43.70057" lon="4.97992">
        <ele>154</ele>
      </trkpt>
      <trkpt lat="43.70009" lon="4.98133">
        <ele>147</ele>
      </trkpt>
      <trkpt lat="43.69963" lon="4.98301">
        <ele>144</ele>
      </trkpt>
      <trkpt lat="43.69909" lon="4.98458">
        <ele>141</ele>
      </trkpt>
      <trkpt lat="43.69859" lon="4.98629">
        <ele>131</ele>
      </trkpt>
      <trkpt lat="43.69828" lon="4.98682">
        <ele>128</ele>
      </trkpt>
      <trkpt lat="43.69834" lon="4.98797">
        <ele>130</ele>
      </trkpt>
      <trkpt lat="43.69787" lon="4.98893">
        <ele>129</ele>
      </trkpt>
      <trkpt lat="43.69756" lon="4.99021">
        <ele>126</ele>
      </trkpt>
      <trkpt lat="43.69764" lon="4.99125">
        <ele>126</ele>
      </trkpt>
      <trkpt lat="43.69751" lon="4.99298">
        <ele>126</ele>
      </trkpt>
      <trkpt lat="43.69737" lon="4.99442">
        <ele>126</ele>
      </trkpt>
      <trkpt lat="43.69704" lon="4.99535">
        <ele>125</ele>
      </trkpt>
      <trkpt lat="43.6966" lon="4.9969">
        <ele>125</ele>
      </trkpt>
      <trkpt lat="43.69604" lon="4.99794">
        <ele>123</ele>
      </trkpt>
      <trkpt lat="43.69553" lon="4.99898">
        <ele>120</ele>
      </trkpt>
      <trkpt lat="43.6951" lon="4.99999">
        <ele>116</ele>
      </trkpt>
      <trkpt lat="43.6945" lon="5.00194">
        <ele>110</ele>
      </trkpt>
      <trkpt lat="43.69396" lon="5.00415">
        <ele>111</ele>
      </trkpt>
      <trkpt lat="43.69336" lon="5.00588">
        <ele>109</ele>
      </trkpt>
      <trkpt lat="43.69275" lon="5.00804">
        <ele>105</ele>
      </trkpt>
      <trkpt lat="43.69267" lon="5.01148">
        <ele>96</ele>
      </trkpt>
      <trkpt lat="43.69305" lon="5.01316">
        <ele>99</ele>
      </trkpt>
      <trkpt lat="43.69294" lon="5.01439">
        <ele>104</ele>
      </trkpt>
      <trkpt lat="43.69205" lon="5.01671">
        <ele>110</ele>
      </trkpt>
      <trkpt lat="43.69155" lon="5.01777">
        <ele>110</ele>
      </trkpt>
      <trkpt lat="43.69088" lon="5.01932">
        <ele>108</ele>
      </trkpt>
      <trkpt lat="43.69055" lon="5.02076">
        <ele>102</ele>
      </trkpt>
      <trkpt lat="43.69063" lon="5.02247">
        <ele>94</ele>
      </trkpt>
      <trkpt lat="43.6906" lon="5.02307">
        <ele>90</ele>
      </trkpt>
      <trkpt lat="43.68979" lon="5.02235">
        <ele>89</ele>
      </trkpt>
      <trkpt lat="43.68934" lon="5.02186">
        <ele>86</ele>
      </trkpt>
      <trkpt lat="43.68908" lon="5.02107">
        <ele>86</ele>
      </trkpt>
      <trkpt lat="43.68896" lon="5.02158">
        <ele>85</ele>
      </trkpt>
      <trkpt lat="43.68883" lon="5.02254">
        <ele>84</ele>
      </trkpt>
      <trkpt lat="43.68823" lon="5.02696">
        <ele>85</ele>
      </trkpt>
      <trkpt lat="43.68795" lon="5.02941">
        <ele>86</ele>
      </trkpt>
      <trkpt lat="43.68813" lon="5.02999">
        <ele>86</ele>
      </trkpt>
      <trkpt lat="43.68806" lon="5.03079">
        <ele>87</ele>
      </trkpt>
      <trkpt lat="43.68776" lon="5.03082">
        <ele>87</ele>
      </trkpt>
      <trkpt lat="43.68765" lon="5.03212">
        <ele>87</ele>
      </trkpt>
      <trkpt lat="43.68721" lon="5.03242">
        <ele>87</ele>
      </trkpt>
      <trkpt lat="43.68717" lon="5.03289">
        <ele>87</ele>
      </trkpt>
      <trkpt lat="43.68749" lon="5.03302">
        <ele>87</ele>
      </trkpt>
      <trkpt lat="43.68729" lon="5.03433">
        <ele>87</ele>
      </trkpt>
      <trkpt lat="43.68706" lon="5.03548">
        <ele>87</ele>
      </trkpt>
      <trkpt lat="43.68642" lon="5.03678">
        <ele>87</ele>
      </trkpt>
      <trkpt lat="43.68563" lon="5.03745">
        <ele>87</ele>
      </trkpt>
      <trkpt lat="43.68431" lon="5.03806">
        <ele>88</ele>
      </trkpt>
      <trkpt lat="43.68269" lon="5.03873">
        <ele>89</ele>
      </trkpt>
      <trkpt lat="43.68017" lon="5.03981">
        <ele>90</ele>
      </trkpt>
      <trkpt lat="43.67804" lon="5.04117">
        <ele>88</ele>
      </trkpt>
      <trkpt lat="43.67657" lon="5.04224">
        <ele>88</ele>
      </trkpt>
      <trkpt lat="43.67545" lon="5.04318">
        <ele>87</ele>
      </trkpt>
      <trkpt lat="43.67467" lon="5.04431">
        <ele>87</ele>
      </trkpt>
      <trkpt lat="43.67349" lon="5.04554">
        <ele>86</ele>
      </trkpt>
      <trkpt lat="43.67368" lon="5.04626">
        <ele>86</ele>
      </trkpt>
      <trkpt lat="43.67199" lon="5.04757">
        <ele>85</ele>
      </trkpt>
      <trkpt lat="43.67022" lon="5.0489">
        <ele>84</ele>
      </trkpt>
      <trkpt lat="43.66961" lon="5.04754">
        <ele>83</ele>
      </trkpt>
      <trkpt lat="43.66817" lon="5.04799">
        <ele>83</ele>
      </trkpt>
      <trkpt lat="43.66544" lon="5.04874">
        <ele>81</ele>
      </trkpt>
      <trkpt lat="43.66151" lon="5.04993">
        <ele>79</ele>
      </trkpt>
      <trkpt lat="43.65713" lon="5.05122">
        <ele>77</ele>
      </trkpt>
      <trkpt lat="43.6558" lon="5.05206">
        <ele>77</ele>
      </trkpt>
      <trkpt lat="43.65481" lon="5.05311">
        <ele>76</ele>
      </trkpt>
      <trkpt lat="43.65393" lon="5.05529">
        <ele>76</ele>
      </trkpt>
      <trkpt lat="43.65422" lon="5.05553">
        <ele>76</ele>
      </trkpt>
      <trkpt lat="43.65599" lon="5.06347">
        <ele>78</ele>
      </trkpt>
      <trkpt lat="43.65238" lon="5.06317">
        <ele>77</ele>
      </trkpt>
      <trkpt lat="43.6519" lon="5.06594">
        <ele>77</ele>
      </trkpt>
      <trkpt lat="43.65092" lon="5.07183">
        <ele>77</ele>
      </trkpt>
      <trkpt lat="43.65051" lon="5.0746">
        <ele>78</ele>
      </trkpt>
      <trkpt lat="43.65021" lon="5.07569">
        <ele>77</ele>
      </trkpt>
      <trkpt lat="43.65039" lon="5.07706">
        <ele>78</ele>
      </trkpt>
      <trkpt lat="43.65066" lon="5.0773">
        <ele>78</ele>
      </trkpt>
      <trkpt lat="43.6507" lon="5.07908">
        <ele>78</ele>
      </trkpt>
      <trkpt lat="43.65007" lon="5.07923">
        <ele>78</ele>
      </trkpt>
      <trkpt lat="43.6507" lon="5.08337">
        <ele>81</ele>
      </trkpt>
      <trkpt lat="43.65044" lon="5.08369">
        <ele>81</ele>
      </trkpt>
      <trkpt lat="43.65064" lon="5.08507">
        <ele>83</ele>
      </trkpt>
      <trkpt lat="43.64991" lon="5.08537">
        <ele>83</ele>
      </trkpt>
      <trkpt lat="43.64921" lon="5.08578">
        <ele>83</ele>
      </trkpt>
      <trkpt lat="43.64926" lon="5.08666">
        <ele>83</ele>
      </trkpt>
      <trkpt lat="43.64827" lon="5.08917">
        <ele>83</ele>
      </trkpt>
      <trkpt lat="43.64774" lon="5.09129">
        <ele>84</ele>
      </trkpt>
      <trkpt lat="43.64785" lon="5.09266">
        <ele>85</ele>
      </trkpt>
      <trkpt lat="43.64662" lon="5.09359">
        <ele>84</ele>
      </trkpt>
      <trkpt lat="43.64443" lon="5.09425">
        <ele>80</ele>
      </trkpt>
      <trkpt lat="43.64415" lon="5.09483">
        <ele>80</ele>
      </trkpt>
      <trkpt lat="43.64392" lon="5.09523">
        <ele>78</ele>
      </trkpt>
      <trkpt lat="43.64354" lon="5.09559">
        <ele>76</ele>
      </trkpt>
    </trkseg>
  </trk>
  <trk>
    <name><![CDATA[54 - SALON DE PROVENCE VELAUX 28.9 KM]]></name>
    <extensions>
      <line xmlns="http://www.topografix.com/GPX/gpx_style/0/2">
        <color>FF00FF</color>
        <width>4</width>
      </line>
    </extensions>
    <trkseg>
      <trkpt lat="43.64341" lon="5.09564">
        <ele>76</ele>
        <time>2021-12-14T18:14:41+01:00</time>
      </trkpt>
      <trkpt lat="43.64142" lon="5.09699">
        <ele>76</ele>
        <time>2021-12-14T18:14:46+01:00</time>
      </trkpt>
      <trkpt lat="43.64147" lon="5.09736">
        <ele>76</ele>
        <time>2021-12-14T18:14:51+01:00</time>
      </trkpt>
      <trkpt lat="43.64118" lon="5.09803">
        <ele>78</ele>
        <time>2021-12-14T18:14:56+01:00</time>
      </trkpt>
      <trkpt lat="43.64118" lon="5.09884">
        <ele>80</ele>
        <time>2021-12-14T18:15:01+01:00</time>
      </trkpt>
      <trkpt lat="43.64097" lon="5.09908">
        <ele>81</ele>
        <time>2021-12-14T18:15:06+01:00</time>
      </trkpt>
      <trkpt lat="43.64056" lon="5.09914">
        <ele>81</ele>
        <time>2021-12-14T18:15:11+01:00</time>
      </trkpt>
      <trkpt lat="43.64073" lon="5.10049">
        <ele>86</ele>
        <time>2021-12-14T18:15:16+01:00</time>
      </trkpt>
      <trkpt lat="43.64139" lon="5.10308">
        <ele>89</ele>
        <time>2021-12-14T18:15:21+01:00</time>
      </trkpt>
      <trkpt lat="43.64139" lon="5.10371">
        <ele>92</ele>
        <time>2021-12-14T18:15:26+01:00</time>
      </trkpt>
      <trkpt lat="43.64087" lon="5.10494">
        <ele>98</ele>
        <time>2021-12-14T18:15:31+01:00</time>
      </trkpt>
      <trkpt lat="43.6405" lon="5.10657">
        <ele>102</ele>
        <time>2021-12-14T18:15:36+01:00</time>
      </trkpt>
      <trkpt lat="43.63992" lon="5.10822">
        <ele>103</ele>
        <time>2021-12-14T18:15:41+01:00</time>
      </trkpt>
      <trkpt lat="43.63973" lon="5.10919">
        <ele>102</ele>
        <time>2021-12-14T18:15:46+01:00</time>
      </trkpt>
      <trkpt lat="43.63917" lon="5.11034">
        <ele>103</ele>
        <time>2021-12-14T18:15:51+01:00</time>
      </trkpt>
      <trkpt lat="43.63898" lon="5.11229">
        <ele>110</ele>
        <time>2021-12-14T18:15:56+01:00</time>
      </trkpt>
      <trkpt lat="43.63882" lon="5.1144">
        <ele>118</ele>
        <time>2021-12-14T18:16:01+01:00</time>
      </trkpt>
      <trkpt lat="43.63846" lon="5.11566">
        <ele>119</ele>
        <time>2021-12-14T18:16:06+01:00</time>
      </trkpt>
      <trkpt lat="43.63777" lon="5.11803">
        <ele>121</ele>
        <time>2021-12-14T18:16:11+01:00</time>
      </trkpt>
      <trkpt lat="43.63761" lon="5.12012">
        <ele>115</ele>
        <time>2021-12-14T18:16:16+01:00</time>
      </trkpt>
      <trkpt lat="43.63704" lon="5.12171">
        <ele>111</ele>
        <time>2021-12-14T18:16:21+01:00</time>
      </trkpt>
      <trkpt lat="43.63686" lon="5.12273">
        <ele>106</ele>
        <time>2021-12-14T18:16:26+01:00</time>
      </trkpt>
      <trkpt lat="43.63659" lon="5.12357">
        <ele>102</ele>
        <time>2021-12-14T18:16:31+01:00</time>
      </trkpt>
      <trkpt lat="43.63614" lon="5.12406">
        <ele>100</ele>
        <time>2021-12-14T18:16:36+01:00</time>
      </trkpt>
      <trkpt lat="43.6357" lon="5.12566">
        <ele>96</ele>
        <time>2021-12-14T18:16:41+01:00</time>
      </trkpt>
      <trkpt lat="43.63561" lon="5.12645">
        <ele>94</ele>
        <time>2021-12-14T18:16:46+01:00</time>
      </trkpt>
      <trkpt lat="43.63562" lon="5.12741">
        <ele>93</ele>
        <time>2021-12-14T18:16:51+01:00</time>
      </trkpt>
      <trkpt lat="43.63503" lon="5.12894">
        <ele>95</ele>
        <time>2021-12-14T18:16:56+01:00</time>
      </trkpt>
      <trkpt lat="43.63416" lon="5.13042">
        <ele>95</ele>
        <time>2021-12-14T18:17:01+01:00</time>
      </trkpt>
      <trkpt lat="43.63384" lon="5.132">
        <ele>94</ele>
        <time>2021-12-14T18:17:06+01:00</time>
      </trkpt>
      <trkpt lat="43.63412" lon="5.13328">
        <ele>95</ele>
        <time>2021-12-14T18:17:11+01:00</time>
      </trkpt>
      <trkpt lat="43.63421" lon="5.13528">
        <ele>93</ele>
        <time>2021-12-14T18:17:16+01:00</time>
      </trkpt>
      <trkpt lat="43.63389" lon="5.13696">
        <ele>90</ele>
        <time>2021-12-14T18:17:21+01:00</time>
      </trkpt>
      <trkpt lat="43.63407" lon="5.13887">
        <ele>85</ele>
        <time>2021-12-14T18:17:26+01:00</time>
      </trkpt>
      <trkpt lat="43.63343" lon="5.14017">
        <ele>82</ele>
        <time>2021-12-14T18:17:31+01:00</time>
      </trkpt>
      <trkpt lat="43.63323" lon="5.14064">
        <ele>81</ele>
        <time>2021-12-14T18:17:36+01:00</time>
      </trkpt>
      <trkpt lat="43.63299" lon="5.14212">
        <ele>82</ele>
        <time>2021-12-14T18:17:41+01:00</time>
      </trkpt>
      <trkpt lat="43.63266" lon="5.14314">
        <ele>82</ele>
        <time>2021-12-14T18:17:46+01:00</time>
      </trkpt>
      <trkpt lat="43.63245" lon="5.14585">
        <ele>82</ele>
        <time>2021-12-14T18:17:51+01:00</time>
      </trkpt>
      <trkpt lat="43.63153" lon="5.14849">
        <ele>82</ele>
        <time>2021-12-14T18:17:56+01:00</time>
      </trkpt>
      <trkpt lat="43.63047" lon="5.14871">
        <ele>80</ele>
        <time>2021-12-14T18:18:01+01:00</time>
      </trkpt>
      <trkpt lat="43.63023" lon="5.14947">
        <ele>81</ele>
        <time>2021-12-14T18:18:06+01:00</time>
      </trkpt>
      <trkpt lat="43.63036" lon="5.15075">
        <ele>81</ele>
        <time>2021-12-14T18:18:11+01:00</time>
      </trkpt>
      <trkpt lat="43.62914" lon="5.15108">
        <ele>81</ele>
        <time>2021-12-14T18:18:16+01:00</time>
      </trkpt>
      <trkpt lat="43.62906" lon="5.15132">
        <ele>81</ele>
        <time>2021-12-14T18:18:21+01:00</time>
      </trkpt>
      <trkpt lat="43.62879" lon="5.15138">
        <ele>81</ele>
        <time>2021-12-14T18:18:26+01:00</time>
      </trkpt>
      <trkpt lat="43.6287" lon="5.15159">
        <ele>81</ele>
        <time>2021-12-14T18:18:31+01:00</time>
      </trkpt>
      <trkpt lat="43.62808" lon="5.15187">
        <ele>81</ele>
        <time>2021-12-14T18:18:36+01:00</time>
      </trkpt>
      <trkpt lat="43.628" lon="5.15141">
        <ele>81</ele>
        <time>2021-12-14T18:18:41+01:00</time>
      </trkpt>
      <trkpt lat="43.62759" lon="5.1513">
        <ele>81</ele>
        <time>2021-12-14T18:18:46+01:00</time>
      </trkpt>
      <trkpt lat="43.62765" lon="5.15173">
        <ele>81</ele>
        <time>2021-12-14T18:18:51+01:00</time>
      </trkpt>
      <trkpt lat="43.62683" lon="5.152">
        <ele>81</ele>
        <time>2021-12-14T18:18:56+01:00</time>
      </trkpt>
      <trkpt lat="43.62649" lon="5.15129">
        <ele>81</ele>
        <time>2021-12-14T18:19:01+01:00</time>
      </trkpt>
      <trkpt lat="43.62586" lon="5.15072">
        <ele>80</ele>
        <time>2021-12-14T18:19:06+01:00</time>
      </trkpt>
      <trkpt lat="43.62525" lon="5.15146">
        <ele>80</ele>
        <time>2021-12-14T18:19:11+01:00</time>
      </trkpt>
      <trkpt lat="43.6241" lon="5.15192">
        <ele>80</ele>
        <time>2021-12-14T18:19:16+01:00</time>
      </trkpt>
      <trkpt lat="43.6215" lon="5.15287">
        <ele>79</ele>
        <time>2021-12-14T18:19:21+01:00</time>
      </trkpt>
      <trkpt lat="43.62016" lon="5.15364">
        <ele>79</ele>
        <time>2021-12-14T18:19:26+01:00</time>
      </trkpt>
      <trkpt lat="43.61908" lon="5.15457">
        <ele>79</ele>
        <time>2021-12-14T18:19:31+01:00</time>
      </trkpt>
      <trkpt lat="43.61825" lon="5.15524">
        <ele>79</ele>
        <time>2021-12-14T18:19:36+01:00</time>
      </trkpt>
      <trkpt lat="43.61782" lon="5.15606">
        <ele>79</ele>
        <time>2021-12-14T18:19:41+01:00</time>
      </trkpt>
      <trkpt lat="43.6173" lon="5.15659">
        <ele>78</ele>
        <time>2021-12-14T18:19:46+01:00</time>
      </trkpt>
      <trkpt lat="43.61702" lon="5.15713">
        <ele>78</ele>
        <time>2021-12-14T18:19:51+01:00</time>
      </trkpt>
      <trkpt lat="43.61538" lon="5.15752">
        <ele>77</ele>
        <time>2021-12-14T18:19:56+01:00</time>
      </trkpt>
      <trkpt lat="43.61396" lon="5.15793">
        <ele>77</ele>
        <time>2021-12-14T18:20:01+01:00</time>
      </trkpt>
      <trkpt lat="43.61345" lon="5.15816">
        <ele>77</ele>
        <time>2021-12-14T18:20:06+01:00</time>
      </trkpt>
      <trkpt lat="43.61117" lon="5.15858">
        <ele>75</ele>
        <time>2021-12-14T18:20:11+01:00</time>
      </trkpt>
      <trkpt lat="43.61019" lon="5.15904">
        <ele>75</ele>
        <time>2021-12-14T18:20:16+01:00</time>
      </trkpt>
      <trkpt lat="43.6083" lon="5.15939">
        <ele>76</ele>
        <time>2021-12-14T18:20:21+01:00</time>
      </trkpt>
      <trkpt lat="43.60715" lon="5.15958">
        <ele>78</ele>
        <time>2021-12-14T18:20:26+01:00</time>
      </trkpt>
      <trkpt lat="43.60645" lon="5.15942">
        <ele>80</ele>
        <time>2021-12-14T18:20:31+01:00</time>
      </trkpt>
      <trkpt lat="43.60515" lon="5.16012">
        <ele>86</ele>
        <time>2021-12-14T18:20:36+01:00</time>
      </trkpt>
      <trkpt lat="43.60457" lon="5.16002">
        <ele>86</ele>
        <time>2021-12-14T18:20:41+01:00</time>
      </trkpt>
      <trkpt lat="43.60378" lon="5.16006">
        <ele>84</ele>
        <time>2021-12-14T18:20:46+01:00</time>
      </trkpt>
      <trkpt lat="43.60328" lon="5.16066">
        <ele>85</ele>
        <time>2021-12-14T18:20:51+01:00</time>
      </trkpt>
      <trkpt lat="43.60273" lon="5.16086">
        <ele>82</ele>
        <time>2021-12-14T18:20:56+01:00</time>
      </trkpt>
      <trkpt lat="43.60175" lon="5.15991">
        <ele>79</ele>
        <time>2021-12-14T18:21:01+01:00</time>
      </trkpt>
      <trkpt lat="43.60028" lon="5.16001">
        <ele>80</ele>
        <time>2021-12-14T18:21:06+01:00</time>
      </trkpt>
      <trkpt lat="43.59896" lon="5.15966">
        <ele>79</ele>
        <time>2021-12-14T18:21:11+01:00</time>
      </trkpt>
      <trkpt lat="43.59842" lon="5.16037">
        <ele>80</ele>
        <time>2021-12-14T18:21:16+01:00</time>
      </trkpt>
      <trkpt lat="43.59717" lon="5.15934">
        <ele>82</ele>
        <time>2021-12-14T18:21:21+01:00</time>
      </trkpt>
      <trkpt lat="43.59674" lon="5.15948">
        <ele>82</ele>
        <time>2021-12-14T18:21:26+01:00</time>
      </trkpt>
      <trkpt lat="43.59496" lon="5.15889">
        <ele>82</ele>
        <time>2021-12-14T18:21:31+01:00</time>
      </trkpt>
      <trkpt lat="43.59415" lon="5.15863">
        <ele>84</ele>
        <time>2021-12-14T18:21:36+01:00</time>
      </trkpt>
      <trkpt lat="43.59258" lon="5.1594">
        <ele>84</ele>
        <time>2021-12-14T18:21:41+01:00</time>
      </trkpt>
      <trkpt lat="43.59113" lon="5.1604">
        <ele>87</ele>
        <time>2021-12-14T18:21:46+01:00</time>
      </trkpt>
      <trkpt lat="43.58991" lon="5.16132">
        <ele>89</ele>
        <time>2021-12-14T18:21:51+01:00</time>
      </trkpt>
      <trkpt lat="43.58897" lon="5.16214">
        <ele>92</ele>
        <time>2021-12-14T18:21:56+01:00</time>
      </trkpt>
      <trkpt lat="43.58838" lon="5.16232">
        <ele>93</ele>
        <time>2021-12-14T18:22:01+01:00</time>
      </trkpt>
      <trkpt lat="43.58753" lon="5.16351">
        <ele>95</ele>
        <time>2021-12-14T18:22:06+01:00</time>
      </trkpt>
      <trkpt lat="43.58762" lon="5.16382">
        <ele>95</ele>
        <time>2021-12-14T18:22:11+01:00</time>
      </trkpt>
      <trkpt lat="43.58524" lon="5.16479">
        <ele>99</ele>
        <time>2021-12-14T18:22:16+01:00</time>
      </trkpt>
      <trkpt lat="43.58486" lon="5.16562">
        <ele>101</ele>
        <time>2021-12-14T18:22:21+01:00</time>
      </trkpt>
      <trkpt lat="43.58355" lon="5.16625">
        <ele>104</ele>
        <time>2021-12-14T18:22:26+01:00</time>
      </trkpt>
      <trkpt lat="43.58158" lon="5.16775">
        <ele>110</ele>
        <time>2021-12-14T18:22:31+01:00</time>
      </trkpt>
      <trkpt lat="43.58073" lon="5.16846">
        <ele>113</ele>
        <time>2021-12-14T18:22:36+01:00</time>
      </trkpt>
      <trkpt lat="43.57953" lon="5.16883">
        <ele>118</ele>
        <time>2021-12-14T18:22:41+01:00</time>
      </trkpt>
      <trkpt lat="43.57778" lon="5.16973">
        <ele>122</ele>
        <time>2021-12-14T18:22:46+01:00</time>
      </trkpt>
      <trkpt lat="43.57638" lon="5.17059">
        <ele>125</ele>
        <time>2021-12-14T18:22:51+01:00</time>
      </trkpt>
      <trkpt lat="43.576" lon="5.1705">
        <ele>132</ele>
        <time>2021-12-14T18:22:56+01:00</time>
      </trkpt>
      <trkpt lat="43.57487" lon="5.17114">
        <ele>131</ele>
        <time>2021-12-14T18:23:01+01:00</time>
      </trkpt>
      <trkpt lat="43.57411" lon="5.17072">
        <ele>135</ele>
        <time>2021-12-14T18:23:06+01:00</time>
      </trkpt>
      <trkpt lat="43.57348" lon="5.17088">
        <ele>135</ele>
        <time>2021-12-14T18:23:11+01:00</time>
      </trkpt>
      <trkpt lat="43.5727" lon="5.17086">
        <ele>139</ele>
        <time>2021-12-14T18:23:16+01:00</time>
      </trkpt>
      <trkpt lat="43.57173" lon="5.17091">
        <ele>145</ele>
        <time>2021-12-14T18:23:21+01:00</time>
      </trkpt>
      <trkpt lat="43.57075" lon="5.17119">
        <ele>147</ele>
        <time>2021-12-14T18:23:26+01:00</time>
      </trkpt>
      <trkpt lat="43.57084" lon="5.17077">
        <ele>147</ele>
        <time>2021-12-14T18:23:31+01:00</time>
      </trkpt>
      <trkpt lat="43.57029" lon="5.1708">
        <ele>149</ele>
        <time>2021-12-14T18:23:36+01:00</time>
      </trkpt>
      <trkpt lat="43.57012" lon="5.17203">
        <ele>150</ele>
        <time>2021-12-14T18:23:41+01:00</time>
      </trkpt>
      <trkpt lat="43.57015" lon="5.17324">
        <ele>155</ele>
        <time>2021-12-14T18:23:46+01:00</time>
      </trkpt>
      <trkpt lat="43.57031" lon="5.1736">
        <ele>159</ele>
        <time>2021-12-14T18:23:51+01:00</time>
      </trkpt>
      <trkpt lat="43.56998" lon="5.17465">
        <ele>157</ele>
        <time>2021-12-14T18:23:56+01:00</time>
      </trkpt>
      <trkpt lat="43.56963" lon="5.17609">
        <ele>156</ele>
        <time>2021-12-14T18:24:01+01:00</time>
      </trkpt>
      <trkpt lat="43.56919" lon="5.17763">
        <ele>156</ele>
        <time>2021-12-14T18:24:06+01:00</time>
      </trkpt>
      <trkpt lat="43.56857" lon="5.17892">
        <ele>159</ele>
        <time>2021-12-14T18:24:11+01:00</time>
      </trkpt>
      <trkpt lat="43.56783" lon="5.17966">
        <ele>166</ele>
        <time>2021-12-14T18:24:16+01:00</time>
      </trkpt>
      <trkpt lat="43.56686" lon="5.17966">
        <ele>175</ele>
        <time>2021-12-14T18:24:21+01:00</time>
      </trkpt>
      <trkpt lat="43.5657" lon="5.18007">
        <ele>181</ele>
        <time>2021-12-14T18:24:26+01:00</time>
      </trkpt>
      <trkpt lat="43.56466" lon="5.18102">
        <ele>179</ele>
        <time>2021-12-14T18:24:31+01:00</time>
      </trkpt>
      <trkpt lat="43.56461" lon="5.18283">
        <ele>181</ele>
        <time>2021-12-14T18:24:36+01:00</time>
      </trkpt>
      <trkpt lat="43.56501" lon="5.18455">
        <ele>183</ele>
        <time>2021-12-14T18:24:41+01:00</time>
      </trkpt>
      <trkpt lat="43.56488" lon="5.18559">
        <ele>185</ele>
        <time>2021-12-14T18:24:46+01:00</time>
      </trkpt>
      <trkpt lat="43.5647" lon="5.18685">
        <ele>187</ele>
        <time>2021-12-14T18:24:51+01:00</time>
      </trkpt>
      <trkpt lat="43.56419" lon="5.18866">
        <ele>185</ele>
        <time>2021-12-14T18:24:56+01:00</time>
      </trkpt>
      <trkpt lat="43.56365" lon="5.18937">
        <ele>185</ele>
        <time>2021-12-14T18:25:01+01:00</time>
      </trkpt>
      <trkpt lat="43.56331" lon="5.19025">
        <ele>185</ele>
        <time>2021-12-14T18:25:06+01:00</time>
      </trkpt>
      <trkpt lat="43.5629" lon="5.19097">
        <ele>183</ele>
        <time>2021-12-14T18:25:11+01:00</time>
      </trkpt>
      <trkpt lat="43.56265" lon="5.19253">
        <ele>185</ele>
        <time>2021-12-14T18:25:16+01:00</time>
      </trkpt>
      <trkpt lat="43.56232" lon="5.19351">
        <ele>184</ele>
        <time>2021-12-14T18:25:21+01:00</time>
      </trkpt>
      <trkpt lat="43.56203" lon="5.19364">
        <ele>183</ele>
        <time>2021-12-14T18:25:26+01:00</time>
      </trkpt>
      <trkpt lat="43.56185" lon="5.19294">
        <ele>178</ele>
        <time>2021-12-14T18:25:31+01:00</time>
      </trkpt>
      <trkpt lat="43.56214" lon="5.19168">
        <ele>167</ele>
        <time>2021-12-14T18:25:36+01:00</time>
      </trkpt>
      <trkpt lat="43.56187" lon="5.19068">
        <ele>165</ele>
        <time>2021-12-14T18:25:41+01:00</time>
      </trkpt>
      <trkpt lat="43.56111" lon="5.19092">
        <ele>159</ele>
        <time>2021-12-14T18:25:46+01:00</time>
      </trkpt>
      <trkpt lat="43.5603" lon="5.19194">
        <ele>144</ele>
        <time>2021-12-14T18:25:51+01:00</time>
      </trkpt>
      <trkpt lat="43.55922" lon="5.19241">
        <ele>131</ele>
        <time>2021-12-14T18:25:56+01:00</time>
      </trkpt>
      <trkpt lat="43.5587" lon="5.19287">
        <ele>127</ele>
        <time>2021-12-14T18:26:01+01:00</time>
      </trkpt>
      <trkpt lat="43.55759" lon="5.19341">
        <ele>115</ele>
        <time>2021-12-14T18:26:06+01:00</time>
      </trkpt>
      <trkpt lat="43.55636" lon="5.19341">
        <ele>102</ele>
        <time>2021-12-14T18:26:11+01:00</time>
      </trkpt>
      <trkpt lat="43.55596" lon="5.19336">
        <ele>98</ele>
        <time>2021-12-14T18:26:16+01:00</time>
      </trkpt>
      <trkpt lat="43.55571" lon="5.19377">
        <ele>96</ele>
        <time>2021-12-14T18:26:21+01:00</time>
      </trkpt>
      <trkpt lat="43.55541" lon="5.1935">
        <ele>93</ele>
        <time>2021-12-14T18:26:26+01:00</time>
      </trkpt>
      <trkpt lat="43.55484" lon="5.193">
        <ele>86</ele>
        <time>2021-12-14T18:26:31+01:00</time>
      </trkpt>
      <trkpt lat="43.55389" lon="5.19289">
        <ele>78</ele>
        <time>2021-12-14T18:26:36+01:00</time>
      </trkpt>
      <trkpt lat="43.55371" lon="5.1933">
        <ele>76</ele>
        <time>2021-12-14T18:26:41+01:00</time>
      </trkpt>
      <trkpt lat="43.55345" lon="5.19309">
        <ele>74</ele>
        <time>2021-12-14T18:26:46+01:00</time>
      </trkpt>
      <trkpt lat="43.55212" lon="5.19343">
        <ele>64</ele>
        <time>2021-12-14T18:26:51+01:00</time>
      </trkpt>
      <trkpt lat="43.55125" lon="5.1942">
        <ele>57</ele>
        <time>2021-12-14T18:26:56+01:00</time>
      </trkpt>
      <trkpt lat="43.55038" lon="5.19394">
        <ele>52</ele>
        <time>2021-12-14T18:27:01+01:00</time>
      </trkpt>
      <trkpt lat="43.55046" lon="5.19531">
        <ele>52</ele>
        <time>2021-12-14T18:27:06+01:00</time>
      </trkpt>
      <trkpt lat="43.55066" lon="5.19805">
        <ele>53</ele>
        <time>2021-12-14T18:27:11+01:00</time>
      </trkpt>
      <trkpt lat="43.54969" lon="5.19811">
        <ele>49</ele>
        <time>2021-12-14T18:27:16+01:00</time>
      </trkpt>
      <trkpt lat="43.54967" lon="5.19972">
        <ele>50</ele>
        <time>2021-12-14T18:27:21+01:00</time>
      </trkpt>
      <trkpt lat="43.54926" lon="5.20196">
        <ele>49</ele>
        <time>2021-12-14T18:27:26+01:00</time>
      </trkpt>
      <trkpt lat="43.54719" lon="5.20167">
        <ele>42</ele>
        <time>2021-12-14T18:27:31+01:00</time>
      </trkpt>
      <trkpt lat="43.54524" lon="5.2015">
        <ele>41</ele>
        <time>2021-12-14T18:27:36+01:00</time>
      </trkpt>
      <trkpt lat="43.54148" lon="5.20118">
        <ele>41</ele>
        <time>2021-12-14T18:27:41+01:00</time>
      </trkpt>
      <trkpt lat="43.54123" lon="5.19798">
        <ele>39</ele>
        <time>2021-12-14T18:27:46+01:00</time>
      </trkpt>
      <trkpt lat="43.53755" lon="5.19785">
        <ele>39</ele>
        <time>2021-12-14T18:27:51+01:00</time>
      </trkpt>
      <trkpt lat="43.53603" lon="5.1978">
        <ele>37</ele>
        <time>2021-12-14T18:27:56+01:00</time>
      </trkpt>
      <trkpt lat="43.53446" lon="5.1934">
        <ele>35</ele>
        <time>2021-12-14T18:28:01+01:00</time>
      </trkpt>
      <trkpt lat="43.53396" lon="5.19368">
        <ele>35</ele>
        <time>2021-12-14T18:28:06+01:00</time>
      </trkpt>
      <trkpt lat="43.53389" lon="5.19412">
        <ele>35</ele>
        <time>2021-12-14T18:28:11+01:00</time>
      </trkpt>
      <trkpt lat="43.53288" lon="5.19472">
        <ele>28</ele>
        <time>2021-12-14T18:28:16+01:00</time>
      </trkpt>
      <trkpt lat="43.5317" lon="5.19561">
        <ele>30</ele>
        <time>2021-12-14T18:28:21+01:00</time>
      </trkpt>
      <trkpt lat="43.53179" lon="5.19603">
        <ele>30</ele>
        <time>2021-12-14T18:28:26+01:00</time>
      </trkpt>
      <trkpt lat="43.53221" lon="5.19682">
        <ele>29</ele>
        <time>2021-12-14T18:28:31+01:00</time>
      </trkpt>
      <trkpt lat="43.53222" lon="5.19759">
        <ele>29</ele>
        <time>2021-12-14T18:28:36+01:00</time>
      </trkpt>
      <trkpt lat="43.53166" lon="5.19826">
        <ele>32</ele>
        <time>2021-12-14T18:28:41+01:00</time>
      </trkpt>
      <trkpt lat="43.53168" lon="5.19878">
        <ele>33</ele>
        <time>2021-12-14T18:28:46+01:00</time>
      </trkpt>
      <trkpt lat="43.53152" lon="5.19923">
        <ele>36</ele>
        <time>2021-12-14T18:28:51+01:00</time>
      </trkpt>
      <trkpt lat="43.53193" lon="5.20037">
        <ele>34</ele>
        <time>2021-12-14T18:28:56+01:00</time>
      </trkpt>
      <trkpt lat="43.53246" lon="5.20093">
        <ele>32</ele>
        <time>2021-12-14T18:29:01+01:00</time>
      </trkpt>
      <trkpt lat="43.53326" lon="5.2018">
        <ele>32</ele>
        <time>2021-12-14T18:29:06+01:00</time>
      </trkpt>
      <trkpt lat="43.53393" lon="5.20229">
        <ele>34</ele>
        <time>2021-12-14T18:29:11+01:00</time>
      </trkpt>
      <trkpt lat="43.53494" lon="5.20231">
        <ele>33</ele>
        <time>2021-12-14T18:29:16+01:00</time>
      </trkpt>
      <trkpt lat="43.53605" lon="5.20396">
        <ele>35</ele>
        <time>2021-12-14T18:29:21+01:00</time>
      </trkpt>
      <trkpt lat="43.5369" lon="5.20627">
        <ele>34</ele>
        <time>2021-12-14T18:29:26+01:00</time>
      </trkpt>
      <trkpt lat="43.53724" lon="5.20822">
        <ele>37</ele>
        <time>2021-12-14T18:29:31+01:00</time>
      </trkpt>
      <trkpt lat="43.5379" lon="5.20905">
        <ele>37</ele>
        <time>2021-12-14T18:29:36+01:00</time>
      </trkpt>
      <trkpt lat="43.53844" lon="5.21015">
        <ele>38</ele>
        <time>2021-12-14T18:29:41+01:00</time>
      </trkpt>
      <trkpt lat="43.53964" lon="5.21089">
        <ele>37</ele>
        <time>2021-12-14T18:29:46+01:00</time>
      </trkpt>
      <trkpt lat="43.54005" lon="5.21184">
        <ele>35</ele>
        <time>2021-12-14T18:29:51+01:00</time>
      </trkpt>
      <trkpt lat="43.54017" lon="5.21305">
        <ele>35</ele>
        <time>2021-12-14T18:29:56+01:00</time>
      </trkpt>
      <trkpt lat="43.53977" lon="5.2141">
        <ele>35</ele>
        <time>2021-12-14T18:30:01+01:00</time>
      </trkpt>
      <trkpt lat="43.53897" lon="5.21449">
        <ele>36</ele>
        <time>2021-12-14T18:30:06+01:00</time>
      </trkpt>
      <trkpt lat="43.53838" lon="5.21454">
        <ele>40</ele>
        <time>2021-12-14T18:30:11+01:00</time>
      </trkpt>
      <trkpt lat="43.53818" lon="5.21519">
        <ele>39</ele>
        <time>2021-12-14T18:30:16+01:00</time>
      </trkpt>
      <trkpt lat="43.53815" lon="5.21595">
        <ele>42</ele>
        <time>2021-12-14T18:30:21+01:00</time>
      </trkpt>
      <trkpt lat="43.53737" lon="5.21691">
        <ele>53</ele>
        <time>2021-12-14T18:30:26+01:00</time>
      </trkpt>
      <trkpt lat="43.53748" lon="5.21763">
        <ele>52</ele>
        <time>2021-12-14T18:30:31+01:00</time>
      </trkpt>
      <trkpt lat="43.53831" lon="5.21947">
        <ele>56</ele>
        <time>2021-12-14T18:30:36+01:00</time>
      </trkpt>
      <trkpt lat="43.53891" lon="5.21968">
        <ele>54</ele>
        <time>2021-12-14T18:30:41+01:00</time>
      </trkpt>
      <trkpt lat="43.54036" lon="5.22168">
        <ele>51</ele>
        <time>2021-12-14T18:30:46+01:00</time>
      </trkpt>
      <trkpt lat="43.54042" lon="5.22238">
        <ele>54</ele>
        <time>2021-12-14T18:30:51+01:00</time>
      </trkpt>
      <trkpt lat="43.54041" lon="5.22345">
        <ele>57</ele>
        <time>2021-12-14T18:30:56+01:00</time>
      </trkpt>
      <trkpt lat="43.5408" lon="5.22458">
        <ele>54</ele>
        <time>2021-12-14T18:31:01+01:00</time>
      </trkpt>
      <trkpt lat="43.54131" lon="5.22462">
        <ele>51</ele>
        <time>2021-12-14T18:31:06+01:00</time>
      </trkpt>
      <trkpt lat="43.5419" lon="5.22664">
        <ele>51</ele>
        <time>2021-12-14T18:31:11+01:00</time>
      </trkpt>
      <trkpt lat="43.5416" lon="5.22754">
        <ele>56</ele>
        <time>2021-12-14T18:31:16+01:00</time>
      </trkpt>
      <trkpt lat="43.54208" lon="5.22946">
        <ele>56</ele>
        <time>2021-12-14T18:31:21+01:00</time>
      </trkpt>
      <trkpt lat="43.54222" lon="5.23031">
        <ele>56</ele>
        <time>2021-12-14T18:31:26+01:00</time>
      </trkpt>
      <trkpt lat="43.5424" lon="5.23273">
        <ele>64</ele>
        <time>2021-12-14T18:31:31+01:00</time>
      </trkpt>
      <trkpt lat="43.54206" lon="5.2327">
        <ele>68</ele>
        <time>2021-12-14T18:31:36+01:00</time>
      </trkpt>
      <trkpt lat="43.54204" lon="5.23303">
        <ele>69</ele>
        <time>2021-12-14T18:31:41+01:00</time>
      </trkpt>
      <trkpt lat="43.5416" lon="5.23291">
        <ele>74</ele>
        <time>2021-12-14T18:31:46+01:00</time>
      </trkpt>
      <trkpt lat="43.54048" lon="5.23365">
        <ele>92</ele>
        <time>2021-12-14T18:31:51+01:00</time>
      </trkpt>
      <trkpt lat="43.539" lon="5.23452">
        <ele>144</ele>
        <time>2021-12-14T18:31:56+01:00</time>
      </trkpt>
      <trkpt lat="43.53875" lon="5.23424">
        <ele>146</ele>
        <time>2021-12-14T18:32:01+01:00</time>
      </trkpt>
      <trkpt lat="43.53872" lon="5.23478">
        <ele>149</ele>
        <time>2021-12-14T18:32:06+01:00</time>
      </trkpt>
      <trkpt lat="43.53939" lon="5.23594">
        <ele>157</ele>
        <time>2021-12-14T18:32:11+01:00</time>
      </trkpt>
      <trkpt lat="43.53968" lon="5.2373">
        <ele>160</ele>
        <time>2021-12-14T18:32:16+01:00</time>
      </trkpt>
      <trkpt lat="43.54017" lon="5.2372">
        <ele>160</ele>
        <time>2021-12-14T18:32:21+01:00</time>
      </trkpt>
      <trkpt lat="43.54021" lon="5.23841">
        <ele>160</ele>
        <time>2021-12-14T18:32:26+01:00</time>
      </trkpt>
      <trkpt lat="43.54041" lon="5.23881">
        <ele>157</ele>
        <time>2021-12-14T18:32:31+01:00</time>
      </trkpt>
      <trkpt lat="43.54024" lon="5.23943">
        <ele>152</ele>
        <time>2021-12-14T18:32:36+01:00</time>
      </trkpt>
      <trkpt lat="43.53929" lon="5.24008">
        <ele>138</ele>
        <time>2021-12-14T18:32:41+01:00</time>
      </trkpt>
      <trkpt lat="43.53945" lon="5.24048">
        <ele>136</ele>
        <time>2021-12-14T18:32:46+01:00</time>
      </trkpt>
      <trkpt lat="43.53928" lon="5.24157">
        <ele>129</ele>
        <time>2021-12-14T18:32:51+01:00</time>
      </trkpt>
      <trkpt lat="43.53864" lon="5.24224">
        <ele>127</ele>
        <time>2021-12-14T18:32:56+01:00</time>
      </trkpt>
      <trkpt lat="43.53825" lon="5.24262">
        <ele>126</ele>
        <time>2021-12-14T18:33:01+01:00</time>
      </trkpt>
      <trkpt lat="43.5385" lon="5.24275">
        <ele>131</ele>
        <time>2021-12-14T18:33:06+01:00</time>
      </trkpt>
      <trkpt lat="43.53888" lon="5.24374">
        <ele>135</ele>
        <time>2021-12-14T18:33:11+01:00</time>
      </trkpt>
      <trkpt lat="43.53902" lon="5.24432">
        <ele>132</ele>
        <time>2021-12-14T18:33:16+01:00</time>
      </trkpt>
      <trkpt lat="43.5384" lon="5.24478">
        <ele>120</ele>
        <time>2021-12-14T18:33:21+01:00</time>
      </trkpt>
      <trkpt lat="43.53679" lon="5.24585">
        <ele>102</ele>
        <time>2021-12-14T18:33:26+01:00</time>
      </trkpt>
      <trkpt lat="43.53653" lon="5.24601">
        <ele>99</ele>
        <time>2021-12-14T18:33:31+01:00</time>
      </trkpt>
      <trkpt lat="43.53659" lon="5.24712">
        <ele>98</ele>
        <time>2021-12-14T18:33:36+01:00</time>
      </trkpt>
      <trkpt lat="43.53635" lon="5.24727">
        <ele>93</ele>
        <time>2021-12-14T18:33:41+01:00</time>
      </trkpt>
      <trkpt lat="43.53648" lon="5.24819">
        <ele>93</ele>
        <time>2021-12-14T18:33:46+01:00</time>
      </trkpt>
      <trkpt lat="43.53587" lon="5.24834">
        <ele>84</ele>
        <time>2021-12-14T18:33:51+01:00</time>
      </trkpt>
      <trkpt lat="43.53564" lon="5.24806">
        <ele>81</ele>
        <time>2021-12-14T18:33:56+01:00</time>
      </trkpt>
      <trkpt lat="43.5352" lon="5.2484">
        <ele>78</ele>
        <time>2021-12-14T18:34:01+01:00</time>
      </trkpt>
      <trkpt lat="43.53475" lon="5.24822">
        <ele>76</ele>
        <time>2021-12-14T18:34:06+01:00</time>
      </trkpt>
      <trkpt lat="43.53346" lon="5.24847">
        <ele>70</ele>
        <time>2021-12-14T18:34:11+01:00</time>
      </trkpt>
      <trkpt lat="43.53364" lon="5.24924">
        <ele>71</ele>
        <time>2021-12-14T18:34:16+01:00</time>
      </trkpt>
      <trkpt lat="43.53232" lon="5.24991">
        <ele>70</ele>
        <time>2021-12-14T18:34:21+01:00</time>
      </trkpt>
      <trkpt lat="43.53216" lon="5.24962">
        <ele>68</ele>
        <time>2021-12-14T18:34:26+01:00</time>
      </trkpt>
      <trkpt lat="43.5319" lon="5.24956">
        <ele>67</ele>
        <time>2021-12-14T18:34:31+01:00</time>
      </trkpt>
      <trkpt lat="43.53191" lon="5.24936">
        <ele>67</ele>
        <time>2021-12-14T18:34:36+01:00</time>
      </trkpt>
      <trkpt lat="43.53141" lon="5.24825">
        <ele>66</ele>
        <time>2021-12-14T18:34:41+01:00</time>
      </trkpt>
      <trkpt lat="43.52992" lon="5.24893">
        <ele>68</ele>
        <time>2021-12-14T18:34:46+01:00</time>
      </trkpt>
      <trkpt lat="43.52941" lon="5.24725">
        <ele>66</ele>
        <time>2021-12-14T18:34:51+01:00</time>
      </trkpt>
      <trkpt lat="43.52891" lon="5.24626">
        <ele>62</ele>
        <time>2021-12-14T18:34:56+01:00</time>
      </trkpt>
      <trkpt lat="43.52706" lon="5.2442">
        <ele>53</ele>
        <time>2021-12-14T18:35:01+01:00</time>
      </trkpt>
      <trkpt lat="43.52609" lon="5.24275">
        <ele>49</ele>
        <time>2021-12-14T18:35:06+01:00</time>
      </trkpt>
      <trkpt lat="43.52455" lon="5.24081">
        <ele>45</ele>
        <time>2021-12-14T18:35:11+01:00</time>
      </trkpt>
      <trkpt lat="43.52192" lon="5.23706">
        <ele>42</ele>
        <time>2021-12-14T18:35:16+01:00</time>
      </trkpt>
      <trkpt lat="43.5207" lon="5.2359">
        <ele>40</ele>
        <time>2021-12-14T18:35:21+01:00</time>
      </trkpt>
      <trkpt lat="43.5198" lon="5.23491">
        <ele>40</ele>
        <time>2021-12-14T18:35:26+01:00</time>
      </trkpt>
      <trkpt lat="43.51931" lon="5.23407">
        <ele>40</ele>
        <time>2021-12-14T18:35:31+01:00</time>
      </trkpt>
      <trkpt lat="43.51942" lon="5.23262">
        <ele>40</ele>
        <time>2021-12-14T18:35:36+01:00</time>
      </trkpt>
      <trkpt lat="43.51773" lon="5.23154">
        <ele>35</ele>
        <time>2021-12-14T18:35:41+01:00</time>
      </trkpt>
      <trkpt lat="43.51727" lon="5.23192">
        <ele>35</ele>
        <time>2021-12-14T18:35:46+01:00</time>
      </trkpt>
      <trkpt lat="43.51668" lon="5.23204">
        <ele>35</ele>
        <time>2021-12-14T18:35:51+01:00</time>
      </trkpt>
      <trkpt lat="43.51577" lon="5.23207">
        <ele>40</ele>
        <time>2021-12-14T18:35:56+01:00</time>
      </trkpt>
    </trkseg>
  </trk>
  <trk>
    <name><![CDATA[56 - VELAUX MARSEILLE 15ème 27.9 km]]></name>
    <extensions>
      <line xmlns="http://www.topografix.com/GPX/gpx_style/0/2">
        <color>000088</color>
        <width>4</width>
      </line>
    </extensions>
    <trkseg>
      <trkpt lat="43.51599" lon="5.23208">
        <ele>40</ele>
        <time>2021-12-17T11:06:56+01:00</time>
      </trkpt>
      <trkpt lat="43.51328" lon="5.23405">
        <ele>43</ele>
        <time>2021-12-17T11:07:01+01:00</time>
      </trkpt>
      <trkpt lat="43.51336" lon="5.23578">
        <ele>45</ele>
        <time>2021-12-17T11:07:06+01:00</time>
      </trkpt>
      <trkpt lat="43.51326" lon="5.2367">
        <ele>44</ele>
        <time>2021-12-17T11:07:11+01:00</time>
      </trkpt>
      <trkpt lat="43.51407" lon="5.23932">
        <ele>47</ele>
        <time>2021-12-17T11:07:16+01:00</time>
      </trkpt>
      <trkpt lat="43.51542" lon="5.24299">
        <ele>59</ele>
        <time>2021-12-17T11:07:21+01:00</time>
      </trkpt>
      <trkpt lat="43.51519" lon="5.24397">
        <ele>60</ele>
        <time>2021-12-17T11:07:26+01:00</time>
      </trkpt>
      <trkpt lat="43.5144" lon="5.24519">
        <ele>57</ele>
        <time>2021-12-17T11:07:31+01:00</time>
      </trkpt>
      <trkpt lat="43.51632" lon="5.2482">
        <ele>61</ele>
        <time>2021-12-17T11:07:36+01:00</time>
      </trkpt>
      <trkpt lat="43.5169" lon="5.2505">
        <ele>60</ele>
        <time>2021-12-17T11:07:41+01:00</time>
      </trkpt>
      <trkpt lat="43.51813" lon="5.25426">
        <ele>71</ele>
        <time>2021-12-17T11:07:46+01:00</time>
      </trkpt>
      <trkpt lat="43.5185" lon="5.25597">
        <ele>85</ele>
        <time>2021-12-17T11:07:51+01:00</time>
      </trkpt>
      <trkpt lat="43.51956" lon="5.25779">
        <ele>109</ele>
        <time>2021-12-17T11:07:56+01:00</time>
      </trkpt>
      <trkpt lat="43.51896" lon="5.25737">
        <ele>106</ele>
        <time>2021-12-17T11:08:01+01:00</time>
      </trkpt>
      <trkpt lat="43.51844" lon="5.25758">
        <ele>106</ele>
        <time>2021-12-17T11:08:06+01:00</time>
      </trkpt>
      <trkpt lat="43.51805" lon="5.25881">
        <ele>99</ele>
        <time>2021-12-17T11:08:11+01:00</time>
      </trkpt>
      <trkpt lat="43.51701" lon="5.2594">
        <ele>97</ele>
        <time>2021-12-17T11:08:16+01:00</time>
      </trkpt>
      <trkpt lat="43.51612" lon="5.25922">
        <ele>92</ele>
        <time>2021-12-17T11:08:21+01:00</time>
      </trkpt>
      <trkpt lat="43.51296" lon="5.2597">
        <ele>91</ele>
        <time>2021-12-17T11:08:26+01:00</time>
      </trkpt>
      <trkpt lat="43.5114" lon="5.25967">
        <ele>98</ele>
        <time>2021-12-17T11:08:31+01:00</time>
      </trkpt>
      <trkpt lat="43.51062" lon="5.25979">
        <ele>99</ele>
        <time>2021-12-17T11:08:36+01:00</time>
      </trkpt>
      <trkpt lat="43.50627" lon="5.2591">
        <ele>91</ele>
        <time>2021-12-17T11:08:41+01:00</time>
      </trkpt>
      <trkpt lat="43.50572" lon="5.25937">
        <ele>92</ele>
        <time>2021-12-17T11:08:46+01:00</time>
      </trkpt>
      <trkpt lat="43.50514" lon="5.25901">
        <ele>98</ele>
        <time>2021-12-17T11:08:51+01:00</time>
      </trkpt>
      <trkpt lat="43.50427" lon="5.25809">
        <ele>103</ele>
        <time>2021-12-17T11:08:56+01:00</time>
      </trkpt>
      <trkpt lat="43.50408" lon="5.25836">
        <ele>98</ele>
        <time>2021-12-17T11:09:01+01:00</time>
      </trkpt>
      <trkpt lat="43.50319" lon="5.25797">
        <ele>104</ele>
        <time>2021-12-17T11:09:06+01:00</time>
      </trkpt>
      <trkpt lat="43.5033" lon="5.25684">
        <ele>112</ele>
        <time>2021-12-17T11:09:11+01:00</time>
      </trkpt>
      <trkpt lat="43.50395" lon="5.25651">
        <ele>119</ele>
        <time>2021-12-17T11:09:16+01:00</time>
      </trkpt>
      <trkpt lat="43.50443" lon="5.25501">
        <ele>124</ele>
        <time>2021-12-17T11:09:21+01:00</time>
      </trkpt>
      <trkpt lat="43.50423" lon="5.2543">
        <ele>133</ele>
        <time>2021-12-17T11:09:26+01:00</time>
      </trkpt>
      <trkpt lat="43.50456" lon="5.25346">
        <ele>137</ele>
        <time>2021-12-17T11:09:31+01:00</time>
      </trkpt>
      <trkpt lat="43.50423" lon="5.25125">
        <ele>160</ele>
        <time>2021-12-17T11:09:36+01:00</time>
      </trkpt>
      <trkpt lat="43.50475" lon="5.25018">
        <ele>172</ele>
        <time>2021-12-17T11:09:41+01:00</time>
      </trkpt>
      <trkpt lat="43.50575" lon="5.24955">
        <ele>180</ele>
        <time>2021-12-17T11:09:46+01:00</time>
      </trkpt>
      <trkpt lat="43.50391" lon="5.24824">
        <ele>177</ele>
        <time>2021-12-17T11:09:51+01:00</time>
      </trkpt>
      <trkpt lat="43.50263" lon="5.24824">
        <ele>177</ele>
        <time>2021-12-17T11:09:56+01:00</time>
      </trkpt>
      <trkpt lat="43.50124" lon="5.24898">
        <ele>175</ele>
        <time>2021-12-17T11:10:01+01:00</time>
      </trkpt>
      <trkpt lat="43.5002" lon="5.24901">
        <ele>175</ele>
        <time>2021-12-17T11:10:06+01:00</time>
      </trkpt>
      <trkpt lat="43.49801" lon="5.24916">
        <ele>172</ele>
        <time>2021-12-17T11:10:11+01:00</time>
      </trkpt>
      <trkpt lat="43.49713" lon="5.24922">
        <ele>176</ele>
        <time>2021-12-17T11:10:16+01:00</time>
      </trkpt>
      <trkpt lat="43.49511" lon="5.24847">
        <ele>174</ele>
        <time>2021-12-17T11:10:21+01:00</time>
      </trkpt>
      <trkpt lat="43.49349" lon="5.24815">
        <ele>174</ele>
        <time>2021-12-17T11:10:26+01:00</time>
      </trkpt>
      <trkpt lat="43.49167" lon="5.24827">
        <ele>170</ele>
        <time>2021-12-17T11:10:31+01:00</time>
      </trkpt>
      <trkpt lat="43.49052" lon="5.24862">
        <ele>167</ele>
        <time>2021-12-17T11:10:36+01:00</time>
      </trkpt>
      <trkpt lat="43.4897" lon="5.24844">
        <ele>166</ele>
        <time>2021-12-17T11:10:41+01:00</time>
      </trkpt>
      <trkpt lat="43.4892" lon="5.24919">
        <ele>167</ele>
        <time>2021-12-17T11:10:46+01:00</time>
      </trkpt>
      <trkpt lat="43.48736" lon="5.24991">
        <ele>163</ele>
        <time>2021-12-17T11:10:51+01:00</time>
      </trkpt>
      <trkpt lat="43.48766" lon="5.25062">
        <ele>160</ele>
        <time>2021-12-17T11:10:56+01:00</time>
      </trkpt>
      <trkpt lat="43.48822" lon="5.2528">
        <ele>166</ele>
        <time>2021-12-17T11:11:01+01:00</time>
      </trkpt>
      <trkpt lat="43.48874" lon="5.2543">
        <ele>167</ele>
        <time>2021-12-17T11:11:06+01:00</time>
      </trkpt>
      <trkpt lat="43.48896" lon="5.25507">
        <ele>172</ele>
        <time>2021-12-17T11:11:11+01:00</time>
      </trkpt>
      <trkpt lat="43.48866" lon="5.25558">
        <ele>177</ele>
        <time>2021-12-17T11:11:16+01:00</time>
      </trkpt>
      <trkpt lat="43.48905" lon="5.25576">
        <ele>174</ele>
        <time>2021-12-17T11:11:21+01:00</time>
      </trkpt>
      <trkpt lat="43.48824" lon="5.25734">
        <ele>195</ele>
        <time>2021-12-17T11:11:26+01:00</time>
      </trkpt>
      <trkpt lat="43.48814" lon="5.25806">
        <ele>205</ele>
        <time>2021-12-17T11:11:31+01:00</time>
      </trkpt>
      <trkpt lat="43.48775" lon="5.25851">
        <ele>205</ele>
        <time>2021-12-17T11:11:36+01:00</time>
      </trkpt>
      <trkpt lat="43.48647" lon="5.25904">
        <ele>204</ele>
        <time>2021-12-17T11:11:41+01:00</time>
      </trkpt>
      <trkpt lat="43.48409" lon="5.25934">
        <ele>203</ele>
        <time>2021-12-17T11:11:46+01:00</time>
      </trkpt>
      <trkpt lat="43.48296" lon="5.25946">
        <ele>206</ele>
        <time>2021-12-17T11:11:51+01:00</time>
      </trkpt>
      <trkpt lat="43.48201" lon="5.25931">
        <ele>208</ele>
        <time>2021-12-17T11:11:56+01:00</time>
      </trkpt>
      <trkpt lat="43.48016" lon="5.25794">
        <ele>209</ele>
        <time>2021-12-17T11:12:01+01:00</time>
      </trkpt>
      <trkpt lat="43.48025" lon="5.25728">
        <ele>210</ele>
        <time>2021-12-17T11:12:06+01:00</time>
      </trkpt>
      <trkpt lat="43.47865" lon="5.25594">
        <ele>208</ele>
        <time>2021-12-17T11:12:11+01:00</time>
      </trkpt>
      <trkpt lat="43.47761" lon="5.25415">
        <ele>205</ele>
        <time>2021-12-17T11:12:16+01:00</time>
      </trkpt>
      <trkpt lat="43.47579" lon="5.25206">
        <ele>205</ele>
        <time>2021-12-17T11:12:21+01:00</time>
      </trkpt>
      <trkpt lat="43.47408" lon="5.24976">
        <ele>214</ele>
        <time>2021-12-17T11:12:26+01:00</time>
      </trkpt>
      <trkpt lat="43.47191" lon="5.24827">
        <ele>215</ele>
        <time>2021-12-17T11:12:31+01:00</time>
      </trkpt>
      <trkpt lat="43.471" lon="5.24859">
        <ele>213</ele>
        <time>2021-12-17T11:12:36+01:00</time>
      </trkpt>
      <trkpt lat="43.47017" lon="5.24737">
        <ele>210</ele>
        <time>2021-12-17T11:12:41+01:00</time>
      </trkpt>
      <trkpt lat="43.46963" lon="5.24827">
        <ele>207</ele>
        <time>2021-12-17T11:12:46+01:00</time>
      </trkpt>
      <trkpt lat="43.46881" lon="5.24919">
        <ele>205</ele>
        <time>2021-12-17T11:12:51+01:00</time>
      </trkpt>
      <trkpt lat="43.4677" lon="5.24997">
        <ele>207</ele>
        <time>2021-12-17T11:12:56+01:00</time>
      </trkpt>
      <trkpt lat="43.46692" lon="5.25095">
        <ele>199</ele>
        <time>2021-12-17T11:13:01+01:00</time>
      </trkpt>
      <trkpt lat="43.46651" lon="5.2508">
        <ele>199</ele>
        <time>2021-12-17T11:13:06+01:00</time>
      </trkpt>
      <trkpt lat="43.46556" lon="5.2517">
        <ele>195</ele>
        <time>2021-12-17T11:13:11+01:00</time>
      </trkpt>
      <trkpt lat="43.46445" lon="5.2523">
        <ele>191</ele>
        <time>2021-12-17T11:13:16+01:00</time>
      </trkpt>
      <trkpt lat="43.46333" lon="5.25262">
        <ele>188</ele>
        <time>2021-12-17T11:13:21+01:00</time>
      </trkpt>
      <trkpt lat="43.46205" lon="5.25289">
        <ele>185</ele>
        <time>2021-12-17T11:13:26+01:00</time>
      </trkpt>
      <trkpt lat="43.46107" lon="5.25358">
        <ele>179</ele>
        <time>2021-12-17T11:13:31+01:00</time>
      </trkpt>
      <trkpt lat="43.46049" lon="5.25439">
        <ele>180</ele>
        <time>2021-12-17T11:13:36+01:00</time>
      </trkpt>
      <trkpt lat="43.46003" lon="5.25576">
        <ele>177</ele>
        <time>2021-12-17T11:13:41+01:00</time>
      </trkpt>
      <trkpt lat="43.45988" lon="5.25764">
        <ele>175</ele>
        <time>2021-12-17T11:13:46+01:00</time>
      </trkpt>
      <trkpt lat="43.45945" lon="5.25922">
        <ele>171</ele>
        <time>2021-12-17T11:13:51+01:00</time>
      </trkpt>
      <trkpt lat="43.4589" lon="5.26212">
        <ele>165</ele>
        <time>2021-12-17T11:13:56+01:00</time>
      </trkpt>
      <trkpt lat="43.45858" lon="5.26397">
        <ele>158</ele>
        <time>2021-12-17T11:14:01+01:00</time>
      </trkpt>
      <trkpt lat="43.45877" lon="5.26615">
        <ele>159</ele>
        <time>2021-12-17T11:14:06+01:00</time>
      </trkpt>
      <trkpt lat="43.45875" lon="5.26744">
        <ele>156</ele>
        <time>2021-12-17T11:14:11+01:00</time>
      </trkpt>
      <trkpt lat="43.45914" lon="5.26893">
        <ele>151</ele>
        <time>2021-12-17T11:14:16+01:00</time>
      </trkpt>
      <trkpt lat="43.45927" lon="5.27003">
        <ele>139</ele>
        <time>2021-12-17T11:14:21+01:00</time>
      </trkpt>
      <trkpt lat="43.45867" lon="5.27191">
        <ele>146</ele>
        <time>2021-12-17T11:14:26+01:00</time>
      </trkpt>
      <trkpt lat="43.45817" lon="5.27287">
        <ele>140</ele>
        <time>2021-12-17T11:14:31+01:00</time>
      </trkpt>
      <trkpt lat="43.45791" lon="5.27418">
        <ele>135</ele>
        <time>2021-12-17T11:14:36+01:00</time>
      </trkpt>
      <trkpt lat="43.4586" lon="5.27457">
        <ele>134</ele>
        <time>2021-12-17T11:14:41+01:00</time>
      </trkpt>
      <trkpt lat="43.45819" lon="5.27481">
        <ele>130</ele>
        <time>2021-12-17T11:14:46+01:00</time>
      </trkpt>
      <trkpt lat="43.45676" lon="5.27475">
        <ele>121</ele>
        <time>2021-12-17T11:14:51+01:00</time>
      </trkpt>
      <trkpt lat="43.45602" lon="5.2752">
        <ele>131</ele>
        <time>2021-12-17T11:14:56+01:00</time>
      </trkpt>
      <trkpt lat="43.45578" lon="5.27645">
        <ele>130</ele>
        <time>2021-12-17T11:15:01+01:00</time>
      </trkpt>
      <trkpt lat="43.45581" lon="5.27711">
        <ele>130</ele>
        <time>2021-12-17T11:15:06+01:00</time>
      </trkpt>
      <trkpt lat="43.45498" lon="5.27711">
        <ele>133</ele>
        <time>2021-12-17T11:15:11+01:00</time>
      </trkpt>
      <trkpt lat="43.45398" lon="5.27762">
        <ele>130</ele>
        <time>2021-12-17T11:15:16+01:00</time>
      </trkpt>
      <trkpt lat="43.45264" lon="5.2788">
        <ele>128</ele>
        <time>2021-12-17T11:15:21+01:00</time>
      </trkpt>
      <trkpt lat="43.45138" lon="5.27982">
        <ele>123</ele>
        <time>2021-12-17T11:15:26+01:00</time>
      </trkpt>
      <trkpt lat="43.45051" lon="5.27945">
        <ele>120</ele>
        <time>2021-12-17T11:15:31+01:00</time>
      </trkpt>
      <trkpt lat="43.45044" lon="5.28014">
        <ele>121</ele>
        <time>2021-12-17T11:15:36+01:00</time>
      </trkpt>
      <trkpt lat="43.44877" lon="5.28069">
        <ele>120</ele>
        <time>2021-12-17T11:15:41+01:00</time>
      </trkpt>
      <trkpt lat="43.44762" lon="5.28009">
        <ele>116</ele>
        <time>2021-12-17T11:15:46+01:00</time>
      </trkpt>
      <trkpt lat="43.44565" lon="5.28175">
        <ele>110</ele>
        <time>2021-12-17T11:15:51+01:00</time>
      </trkpt>
      <trkpt lat="43.44354" lon="5.28183">
        <ele>110</ele>
        <time>2021-12-17T11:15:56+01:00</time>
      </trkpt>
      <trkpt lat="43.44211" lon="5.28277">
        <ele>111</ele>
        <time>2021-12-17T11:16:01+01:00</time>
      </trkpt>
      <trkpt lat="43.44116" lon="5.28356">
        <ele>108</ele>
        <time>2021-12-17T11:16:06+01:00</time>
      </trkpt>
      <trkpt lat="43.43959" lon="5.28439">
        <ele>104</ele>
        <time>2021-12-17T11:16:11+01:00</time>
      </trkpt>
      <trkpt lat="43.43899" lon="5.285">
        <ele>101</ele>
        <time>2021-12-17T11:16:16+01:00</time>
      </trkpt>
      <trkpt lat="43.43792" lon="5.28537">
        <ele>97</ele>
        <time>2021-12-17T11:16:21+01:00</time>
      </trkpt>
      <trkpt lat="43.43688" lon="5.28624">
        <ele>98</ele>
        <time>2021-12-17T11:16:26+01:00</time>
      </trkpt>
      <trkpt lat="43.43593" lon="5.28575">
        <ele>101</ele>
        <time>2021-12-17T11:16:31+01:00</time>
      </trkpt>
      <trkpt lat="43.43436" lon="5.28413">
        <ele>100</ele>
        <time>2021-12-17T11:16:36+01:00</time>
      </trkpt>
      <trkpt lat="43.43113" lon="5.28424">
        <ele>95</ele>
        <time>2021-12-17T11:16:41+01:00</time>
      </trkpt>
      <trkpt lat="43.4302" lon="5.28477">
        <ele>93</ele>
        <time>2021-12-17T11:16:46+01:00</time>
      </trkpt>
      <trkpt lat="43.42872" lon="5.28688">
        <ele>95</ele>
        <time>2021-12-17T11:16:51+01:00</time>
      </trkpt>
      <trkpt lat="43.42664" lon="5.29239">
        <ele>98</ele>
        <time>2021-12-17T11:16:56+01:00</time>
      </trkpt>
      <trkpt lat="43.42593" lon="5.29284">
        <ele>93</ele>
        <time>2021-12-17T11:17:01+01:00</time>
      </trkpt>
      <trkpt lat="43.42557" lon="5.29469">
        <ele>85</ele>
        <time>2021-12-17T11:17:06+01:00</time>
      </trkpt>
      <trkpt lat="43.42514" lon="5.2954">
        <ele>88</ele>
        <time>2021-12-17T11:17:11+01:00</time>
      </trkpt>
      <trkpt lat="43.42144" lon="5.29744">
        <ele>85</ele>
        <time>2021-12-17T11:17:16+01:00</time>
      </trkpt>
      <trkpt lat="43.42029" lon="5.29759">
        <ele>86</ele>
        <time>2021-12-17T11:17:21+01:00</time>
      </trkpt>
      <trkpt lat="43.41908" lon="5.29725">
        <ele>91</ele>
        <time>2021-12-17T11:17:26+01:00</time>
      </trkpt>
      <trkpt lat="43.41848" lon="5.29786">
        <ele>93</ele>
        <time>2021-12-17T11:17:31+01:00</time>
      </trkpt>
      <trkpt lat="43.41495" lon="5.30031">
        <ele>96</ele>
        <time>2021-12-17T11:17:36+01:00</time>
      </trkpt>
      <trkpt lat="43.4138" lon="5.30061">
        <ele>106</ele>
        <time>2021-12-17T11:17:41+01:00</time>
      </trkpt>
      <trkpt lat="43.41276" lon="5.30279">
        <ele>111</ele>
        <time>2021-12-17T11:17:46+01:00</time>
      </trkpt>
      <trkpt lat="43.41099" lon="5.30691">
        <ele>131</ele>
        <time>2021-12-17T11:17:51+01:00</time>
      </trkpt>
      <trkpt lat="43.41089" lon="5.30909">
        <ele>135</ele>
        <time>2021-12-17T11:17:56+01:00</time>
      </trkpt>
      <trkpt lat="43.41099" lon="5.31096">
        <ele>146</ele>
        <time>2021-12-17T11:18:01+01:00</time>
      </trkpt>
      <trkpt lat="43.41043" lon="5.31137">
        <ele>162</ele>
        <time>2021-12-17T11:18:06+01:00</time>
      </trkpt>
      <trkpt lat="43.41012" lon="5.31166">
        <ele>144</ele>
        <time>2021-12-17T11:18:11+01:00</time>
      </trkpt>
      <trkpt lat="43.4104" lon="5.3134">
        <ele>143</ele>
        <time>2021-12-17T11:18:16+01:00</time>
      </trkpt>
      <trkpt lat="43.41069" lon="5.31482">
        <ele>145</ele>
        <time>2021-12-17T11:18:21+01:00</time>
      </trkpt>
      <trkpt lat="43.41081" lon="5.31571">
        <ele>144</ele>
        <time>2021-12-17T11:18:26+01:00</time>
      </trkpt>
      <trkpt lat="43.41084" lon="5.31722">
        <ele>139</ele>
        <time>2021-12-17T11:18:31+01:00</time>
      </trkpt>
      <trkpt lat="43.41079" lon="5.31809">
        <ele>139</ele>
        <time>2021-12-17T11:18:36+01:00</time>
      </trkpt>
      <trkpt lat="43.41071" lon="5.31833">
        <ele>138</ele>
        <time>2021-12-17T11:18:41+01:00</time>
      </trkpt>
      <trkpt lat="43.41013" lon="5.31852">
        <ele>135</ele>
        <time>2021-12-17T11:18:46+01:00</time>
      </trkpt>
      <trkpt lat="43.40986" lon="5.31908">
        <ele>136</ele>
        <time>2021-12-17T11:18:51+01:00</time>
      </trkpt>
      <trkpt lat="43.40924" lon="5.32153">
        <ele>145</ele>
        <time>2021-12-17T11:18:56+01:00</time>
      </trkpt>
      <trkpt lat="43.40907" lon="5.32174">
        <ele>146</ele>
        <time>2021-12-17T11:19:01+01:00</time>
      </trkpt>
      <trkpt lat="43.40909" lon="5.32281">
        <ele>148</ele>
        <time>2021-12-17T11:19:06+01:00</time>
      </trkpt>
      <trkpt lat="43.40929" lon="5.32463">
        <ele>155</ele>
        <time>2021-12-17T11:19:11+01:00</time>
      </trkpt>
      <trkpt lat="43.4091" lon="5.32526">
        <ele>157</ele>
        <time>2021-12-17T11:19:16+01:00</time>
      </trkpt>
      <trkpt lat="43.4087" lon="5.32591">
        <ele>160</ele>
        <time>2021-12-17T11:19:21+01:00</time>
      </trkpt>
      <trkpt lat="43.40845" lon="5.32677">
        <ele>163</ele>
        <time>2021-12-17T11:19:26+01:00</time>
      </trkpt>
      <trkpt lat="43.40836" lon="5.32802">
        <ele>164</ele>
        <time>2021-12-17T11:19:31+01:00</time>
      </trkpt>
      <trkpt lat="43.40801" lon="5.32916">
        <ele>164</ele>
        <time>2021-12-17T11:19:36+01:00</time>
      </trkpt>
      <trkpt lat="43.40743" lon="5.32987">
        <ele>168</ele>
        <time>2021-12-17T11:19:41+01:00</time>
      </trkpt>
      <trkpt lat="43.40662" lon="5.3304">
        <ele>187</ele>
        <time>2021-12-17T11:19:46+01:00</time>
      </trkpt>
      <trkpt lat="43.40573" lon="5.33147">
        <ele>190</ele>
        <time>2021-12-17T11:19:51+01:00</time>
      </trkpt>
      <trkpt lat="43.40514" lon="5.33219">
        <ele>203</ele>
        <time>2021-12-17T11:19:56+01:00</time>
      </trkpt>
      <trkpt lat="43.40412" lon="5.33228">
        <ele>202</ele>
        <time>2021-12-17T11:20:01+01:00</time>
      </trkpt>
      <trkpt lat="43.40303" lon="5.3327">
        <ele>212</ele>
        <time>2021-12-17T11:20:06+01:00</time>
      </trkpt>
      <trkpt lat="43.40199" lon="5.3332">
        <ele>221</ele>
        <time>2021-12-17T11:20:11+01:00</time>
      </trkpt>
      <trkpt lat="43.40166" lon="5.33391">
        <ele>222</ele>
        <time>2021-12-17T11:20:16+01:00</time>
      </trkpt>
      <trkpt lat="43.4018" lon="5.33498">
        <ele>231</ele>
        <time>2021-12-17T11:20:21+01:00</time>
      </trkpt>
      <trkpt lat="43.40215" lon="5.33614">
        <ele>236</ele>
        <time>2021-12-17T11:20:26+01:00</time>
      </trkpt>
      <trkpt lat="43.40194" lon="5.33768">
        <ele>242</ele>
        <time>2021-12-17T11:20:31+01:00</time>
      </trkpt>
      <trkpt lat="43.40168" lon="5.33898">
        <ele>247</ele>
        <time>2021-12-17T11:20:36+01:00</time>
      </trkpt>
      <trkpt lat="43.40114" lon="5.34002">
        <ele>240</ele>
        <time>2021-12-17T11:20:41+01:00</time>
      </trkpt>
      <trkpt lat="43.39997" lon="5.34097">
        <ele>236</ele>
        <time>2021-12-17T11:20:46+01:00</time>
      </trkpt>
      <trkpt lat="43.39881" lon="5.34185">
        <ele>229</ele>
        <time>2021-12-17T11:20:51+01:00</time>
      </trkpt>
      <trkpt lat="43.39828" lon="5.34212">
        <ele>226</ele>
        <time>2021-12-17T11:20:56+01:00</time>
      </trkpt>
      <trkpt lat="43.39882" lon="5.34356">
        <ele>243</ele>
        <time>2021-12-17T11:21:01+01:00</time>
      </trkpt>
      <trkpt lat="43.39955" lon="5.34413">
        <ele>250</ele>
        <time>2021-12-17T11:21:06+01:00</time>
      </trkpt>
      <trkpt lat="43.39904" lon="5.34472">
        <ele>250</ele>
        <time>2021-12-17T11:21:11+01:00</time>
      </trkpt>
      <trkpt lat="43.39868" lon="5.34466">
        <ele>245</ele>
        <time>2021-12-17T11:21:16+01:00</time>
      </trkpt>
      <trkpt lat="43.39808" lon="5.34378">
        <ele>237</ele>
        <time>2021-12-17T11:21:21+01:00</time>
      </trkpt>
      <trkpt lat="43.39715" lon="5.34368">
        <ele>232</ele>
        <time>2021-12-17T11:21:26+01:00</time>
      </trkpt>
      <trkpt lat="43.39568" lon="5.34417">
        <ele>221</ele>
        <time>2021-12-17T11:21:31+01:00</time>
      </trkpt>
      <trkpt lat="43.39498" lon="5.34455">
        <ele>220</ele>
        <time>2021-12-17T11:21:36+01:00</time>
      </trkpt>
      <trkpt lat="43.3932" lon="5.34518">
        <ele>220</ele>
        <time>2021-12-17T11:21:41+01:00</time>
      </trkpt>
      <trkpt lat="43.3918" lon="5.34506">
        <ele>220</ele>
        <time>2021-12-17T11:21:46+01:00</time>
      </trkpt>
      <trkpt lat="43.39075" lon="5.34594">
        <ele>211</ele>
        <time>2021-12-17T11:21:51+01:00</time>
      </trkpt>
      <trkpt lat="43.39018" lon="5.34621">
        <ele>210</ele>
        <time>2021-12-17T11:21:56+01:00</time>
      </trkpt>
      <trkpt lat="43.38927" lon="5.3472">
        <ele>207</ele>
        <time>2021-12-17T11:22:01+01:00</time>
      </trkpt>
      <trkpt lat="43.38708" lon="5.34855">
        <ele>196</ele>
        <time>2021-12-17T11:22:06+01:00</time>
      </trkpt>
      <trkpt lat="43.38658" lon="5.34829">
        <ele>195</ele>
        <time>2021-12-17T11:22:11+01:00</time>
      </trkpt>
      <trkpt lat="43.38572" lon="5.34943">
        <ele>187</ele>
        <time>2021-12-17T11:22:16+01:00</time>
      </trkpt>
      <trkpt lat="43.38538" lon="5.3502">
        <ele>179</ele>
        <time>2021-12-17T11:22:21+01:00</time>
      </trkpt>
      <trkpt lat="43.3845" lon="5.35052">
        <ele>169</ele>
        <time>2021-12-17T11:22:26+01:00</time>
      </trkpt>
      <trkpt lat="43.38404" lon="5.35054">
        <ele>165</ele>
        <time>2021-12-17T11:22:31+01:00</time>
      </trkpt>
      <trkpt lat="43.38363" lon="5.35078">
        <ele>160</ele>
        <time>2021-12-17T11:22:36+01:00</time>
      </trkpt>
      <trkpt lat="43.38268" lon="5.35037">
        <ele>160</ele>
        <time>2021-12-17T11:22:41+01:00</time>
      </trkpt>
      <trkpt lat="43.38154" lon="5.35086">
        <ele>160</ele>
        <time>2021-12-17T11:22:46+01:00</time>
      </trkpt>
      <trkpt lat="43.3812" lon="5.35089">
        <ele>160</ele>
        <time>2021-12-17T11:22:51+01:00</time>
      </trkpt>
      <trkpt lat="43.38107" lon="5.35123">
        <ele>160</ele>
        <time>2021-12-17T11:22:56+01:00</time>
      </trkpt>
      <trkpt lat="43.3775" lon="5.35374">
        <ele>159</ele>
        <time>2021-12-17T11:23:01+01:00</time>
      </trkpt>
      <trkpt lat="43.37714" lon="5.35453">
        <ele>154</ele>
        <time>2021-12-17T11:23:06+01:00</time>
      </trkpt>
      <trkpt lat="43.37693" lon="5.35636">
        <ele>153</ele>
        <time>2021-12-17T11:23:11+01:00</time>
      </trkpt>
      <trkpt lat="43.37658" lon="5.35852">
        <ele>150</ele>
        <time>2021-12-17T11:23:16+01:00</time>
      </trkpt>
      <trkpt lat="43.37634" lon="5.35856">
        <ele>150</ele>
        <time>2021-12-17T11:23:21+01:00</time>
      </trkpt>
      <trkpt lat="43.37676" lon="5.35934">
        <ele>152</ele>
        <time>2021-12-17T11:23:26+01:00</time>
      </trkpt>
      <trkpt lat="43.37763" lon="5.35813">
        <ele>152</ele>
        <time>2021-12-17T11:23:31+01:00</time>
      </trkpt>
      <trkpt lat="43.37871" lon="5.35722">
        <ele>151</ele>
        <time>2021-12-17T11:23:36+01:00</time>
      </trkpt>
      <trkpt lat="43.37863" lon="5.35688">
        <ele>151</ele>
        <time>2021-12-17T11:23:41+01:00</time>
      </trkpt>
      <trkpt lat="43.37894" lon="5.3557">
        <ele>162</ele>
        <time>2021-12-17T11:23:46+01:00</time>
      </trkpt>
      <trkpt lat="43.37912" lon="5.35578">
        <ele>164</ele>
        <time>2021-12-17T11:23:51+01:00</time>
      </trkpt>
    </trkseg>
  </trk>
  <trk>
    <name><![CDATA[57 - MARSEILLE 15ème ST ANTOINE MARSEILLE 11ème ST MENET 25.0 KM]]></name>
    <extensions>
      <line xmlns="http://www.topografix.com/GPX/gpx_style/0/2">
        <color>008800</color>
        <width>4</width>
      </line>
    </extensions>
    <trkseg>
      <trkpt lat="43.37906" lon="5.35591">
        <ele>163</ele>
        <time>2021-12-17T15:38:44+01:00</time>
      </trkpt>
      <trkpt lat="43.37893" lon="5.35586">
        <ele>162</ele>
        <time>2021-12-17T15:38:49+01:00</time>
      </trkpt>
      <trkpt lat="43.37866" lon="5.35687">
        <ele>152</ele>
        <time>2021-12-17T15:38:54+01:00</time>
      </trkpt>
      <trkpt lat="43.37699" lon="5.35639">
        <ele>153</ele>
        <time>2021-12-17T15:38:59+01:00</time>
      </trkpt>
      <trkpt lat="43.3766" lon="5.35854">
        <ele>150</ele>
        <time>2021-12-17T15:39:04+01:00</time>
      </trkpt>
      <trkpt lat="43.37632" lon="5.35856">
        <ele>150</ele>
        <time>2021-12-17T15:39:09+01:00</time>
      </trkpt>
      <trkpt lat="43.3764" lon="5.35872">
        <ele>150</ele>
        <time>2021-12-17T15:39:14+01:00</time>
      </trkpt>
      <trkpt lat="43.37695" lon="5.35949">
        <ele>153</ele>
        <time>2021-12-17T15:39:19+01:00</time>
      </trkpt>
      <trkpt lat="43.3765" lon="5.35973">
        <ele>151</ele>
        <time>2021-12-17T15:39:24+01:00</time>
      </trkpt>
      <trkpt lat="43.37644" lon="5.36013">
        <ele>151</ele>
        <time>2021-12-17T15:39:29+01:00</time>
      </trkpt>
      <trkpt lat="43.37624" lon="5.36151">
        <ele>152</ele>
        <time>2021-12-17T15:39:34+01:00</time>
      </trkpt>
      <trkpt lat="43.37602" lon="5.36227">
        <ele>151</ele>
        <time>2021-12-17T15:39:39+01:00</time>
      </trkpt>
      <trkpt lat="43.37559" lon="5.36281">
        <ele>150</ele>
        <time>2021-12-17T15:39:44+01:00</time>
      </trkpt>
      <trkpt lat="43.37484" lon="5.36378">
        <ele>151</ele>
        <time>2021-12-17T15:39:49+01:00</time>
      </trkpt>
      <trkpt lat="43.37496" lon="5.36391">
        <ele>152</ele>
        <time>2021-12-17T15:39:54+01:00</time>
      </trkpt>
      <trkpt lat="43.37457" lon="5.36458">
        <ele>151</ele>
        <time>2021-12-17T15:39:59+01:00</time>
      </trkpt>
      <trkpt lat="43.37495" lon="5.36562">
        <ele>156</ele>
        <time>2021-12-17T15:40:04+01:00</time>
      </trkpt>
      <trkpt lat="43.37537" lon="5.36744">
        <ele>162</ele>
        <time>2021-12-17T15:40:09+01:00</time>
      </trkpt>
      <trkpt lat="43.37381" lon="5.36866">
        <ele>147</ele>
        <time>2021-12-17T15:40:14+01:00</time>
      </trkpt>
      <trkpt lat="43.37221" lon="5.36759">
        <ele>143</ele>
        <time>2021-12-17T15:40:19+01:00</time>
      </trkpt>
      <trkpt lat="43.37136" lon="5.36905">
        <ele>132</ele>
        <time>2021-12-17T15:40:24+01:00</time>
      </trkpt>
      <trkpt lat="43.37077" lon="5.36873">
        <ele>130</ele>
        <time>2021-12-17T15:40:29+01:00</time>
      </trkpt>
      <trkpt lat="43.37051" lon="5.36892">
        <ele>130</ele>
        <time>2021-12-17T15:40:34+01:00</time>
      </trkpt>
      <trkpt lat="43.37159" lon="5.37037">
        <ele>136</ele>
        <time>2021-12-17T15:40:39+01:00</time>
      </trkpt>
      <trkpt lat="43.37202" lon="5.37147">
        <ele>139</ele>
        <time>2021-12-17T15:40:44+01:00</time>
      </trkpt>
      <trkpt lat="43.37181" lon="5.37287">
        <ele>147</ele>
        <time>2021-12-17T15:40:49+01:00</time>
      </trkpt>
      <trkpt lat="43.37186" lon="5.3734">
        <ele>142</ele>
        <time>2021-12-17T15:40:54+01:00</time>
      </trkpt>
      <trkpt lat="43.3714" lon="5.37483">
        <ele>141</ele>
        <time>2021-12-17T15:40:59+01:00</time>
      </trkpt>
      <trkpt lat="43.37092" lon="5.37584">
        <ele>145</ele>
        <time>2021-12-17T15:41:04+01:00</time>
      </trkpt>
      <trkpt lat="43.37052" lon="5.37673">
        <ele>150</ele>
        <time>2021-12-17T15:41:09+01:00</time>
      </trkpt>
      <trkpt lat="43.3708" lon="5.377">
        <ele>149</ele>
        <time>2021-12-17T15:41:14+01:00</time>
      </trkpt>
      <trkpt lat="43.37158" lon="5.37717">
        <ele>156</ele>
        <time>2021-12-17T15:41:19+01:00</time>
      </trkpt>
      <trkpt lat="43.37223" lon="5.37759">
        <ele>163</ele>
        <time>2021-12-17T15:41:24+01:00</time>
      </trkpt>
      <trkpt lat="43.3726" lon="5.37837">
        <ele>174</ele>
        <time>2021-12-17T15:41:29+01:00</time>
      </trkpt>
      <trkpt lat="43.37265" lon="5.37891">
        <ele>182</ele>
        <time>2021-12-17T15:41:34+01:00</time>
      </trkpt>
      <trkpt lat="43.37305" lon="5.37999">
        <ele>194</ele>
        <time>2021-12-17T15:41:39+01:00</time>
      </trkpt>
      <trkpt lat="43.37312" lon="5.38043">
        <ele>196</ele>
        <time>2021-12-17T15:41:44+01:00</time>
      </trkpt>
      <trkpt lat="43.37351" lon="5.38151">
        <ele>203</ele>
        <time>2021-12-17T15:41:49+01:00</time>
      </trkpt>
      <trkpt lat="43.37373" lon="5.38293">
        <ele>211</ele>
        <time>2021-12-17T15:41:54+01:00</time>
      </trkpt>
      <trkpt lat="43.37362" lon="5.3837">
        <ele>218</ele>
        <time>2021-12-17T15:41:59+01:00</time>
      </trkpt>
      <trkpt lat="43.3734" lon="5.38464">
        <ele>228</ele>
        <time>2021-12-17T15:42:04+01:00</time>
      </trkpt>
      <trkpt lat="43.37373" lon="5.38559">
        <ele>237</ele>
        <time>2021-12-17T15:42:09+01:00</time>
      </trkpt>
      <trkpt lat="43.37452" lon="5.38634">
        <ele>247</ele>
        <time>2021-12-17T15:42:14+01:00</time>
      </trkpt>
      <trkpt lat="43.3749" lon="5.38707">
        <ele>256</ele>
        <time>2021-12-17T15:42:19+01:00</time>
      </trkpt>
      <trkpt lat="43.37477" lon="5.38724">
        <ele>259</ele>
        <time>2021-12-17T15:42:24+01:00</time>
      </trkpt>
      <trkpt lat="43.3745" lon="5.38747">
        <ele>260</ele>
        <time>2021-12-17T15:42:29+01:00</time>
      </trkpt>
      <trkpt lat="43.37486" lon="5.38826">
        <ele>264</ele>
        <time>2021-12-17T15:42:34+01:00</time>
      </trkpt>
      <trkpt lat="43.37503" lon="5.38931">
        <ele>275</ele>
        <time>2021-12-17T15:42:39+01:00</time>
      </trkpt>
      <trkpt lat="43.37473" lon="5.3899">
        <ele>278</ele>
        <time>2021-12-17T15:42:44+01:00</time>
      </trkpt>
      <trkpt lat="43.37455" lon="5.39037">
        <ele>280</ele>
        <time>2021-12-17T15:42:49+01:00</time>
      </trkpt>
      <trkpt lat="43.37469" lon="5.39144">
        <ele>277</ele>
        <time>2021-12-17T15:42:54+01:00</time>
      </trkpt>
      <trkpt lat="43.37472" lon="5.39241">
        <ele>274</ele>
        <time>2021-12-17T15:42:59+01:00</time>
      </trkpt>
      <trkpt lat="43.37404" lon="5.39223">
        <ele>249</ele>
        <time>2021-12-17T15:43:04+01:00</time>
      </trkpt>
      <trkpt lat="43.3742" lon="5.39321">
        <ele>239</ele>
        <time>2021-12-17T15:43:09+01:00</time>
      </trkpt>
      <trkpt lat="43.3741" lon="5.39352">
        <ele>233</ele>
        <time>2021-12-17T15:43:14+01:00</time>
      </trkpt>
      <trkpt lat="43.37391" lon="5.39321">
        <ele>230</ele>
        <time>2021-12-17T15:43:19+01:00</time>
      </trkpt>
      <trkpt lat="43.37365" lon="5.39322">
        <ele>227</ele>
        <time>2021-12-17T15:43:24+01:00</time>
      </trkpt>
      <trkpt lat="43.37332" lon="5.39274">
        <ele>221</ele>
        <time>2021-12-17T15:43:29+01:00</time>
      </trkpt>
      <trkpt lat="43.37333" lon="5.39249">
        <ele>221</ele>
        <time>2021-12-17T15:43:34+01:00</time>
      </trkpt>
      <trkpt lat="43.37215" lon="5.39158">
        <ele>216</ele>
        <time>2021-12-17T15:43:39+01:00</time>
      </trkpt>
      <trkpt lat="43.37227" lon="5.39224">
        <ele>220</ele>
        <time>2021-12-17T15:43:44+01:00</time>
      </trkpt>
      <trkpt lat="43.37235" lon="5.39284">
        <ele>227</ele>
        <time>2021-12-17T15:43:49+01:00</time>
      </trkpt>
      <trkpt lat="43.37222" lon="5.39316">
        <ele>226</ele>
        <time>2021-12-17T15:43:54+01:00</time>
      </trkpt>
      <trkpt lat="43.37229" lon="5.39402">
        <ele>232</ele>
        <time>2021-12-17T15:43:59+01:00</time>
      </trkpt>
      <trkpt lat="43.37215" lon="5.39463">
        <ele>234</ele>
        <time>2021-12-17T15:44:04+01:00</time>
      </trkpt>
      <trkpt lat="43.37187" lon="5.39477">
        <ele>235</ele>
        <time>2021-12-17T15:44:09+01:00</time>
      </trkpt>
      <trkpt lat="43.37169" lon="5.39518">
        <ele>239</ele>
        <time>2021-12-17T15:44:14+01:00</time>
      </trkpt>
      <trkpt lat="43.37143" lon="5.39532">
        <ele>239</ele>
        <time>2021-12-17T15:44:19+01:00</time>
      </trkpt>
      <trkpt lat="43.37125" lon="5.39573">
        <ele>243</ele>
        <time>2021-12-17T15:44:24+01:00</time>
      </trkpt>
      <trkpt lat="43.3706" lon="5.3962">
        <ele>248</ele>
        <time>2021-12-17T15:44:29+01:00</time>
      </trkpt>
      <trkpt lat="43.37024" lon="5.39638">
        <ele>250</ele>
        <time>2021-12-17T15:44:34+01:00</time>
      </trkpt>
      <trkpt lat="43.36998" lon="5.39635">
        <ele>257</ele>
        <time>2021-12-17T15:44:39+01:00</time>
      </trkpt>
      <trkpt lat="43.36933" lon="5.39704">
        <ele>268</ele>
        <time>2021-12-17T15:44:44+01:00</time>
      </trkpt>
      <trkpt lat="43.36917" lon="5.39796">
        <ele>269</ele>
        <time>2021-12-17T15:44:49+01:00</time>
      </trkpt>
      <trkpt lat="43.36822" lon="5.39841">
        <ele>278</ele>
        <time>2021-12-17T15:44:54+01:00</time>
      </trkpt>
      <trkpt lat="43.36784" lon="5.39729">
        <ele>272</ele>
        <time>2021-12-17T15:44:59+01:00</time>
      </trkpt>
      <trkpt lat="43.36781" lon="5.39635">
        <ele>280</ele>
        <time>2021-12-17T15:45:04+01:00</time>
      </trkpt>
      <trkpt lat="43.36738" lon="5.39575">
        <ele>283</ele>
        <time>2021-12-17T15:45:09+01:00</time>
      </trkpt>
      <trkpt lat="43.36678" lon="5.3953">
        <ele>288</ele>
        <time>2021-12-17T15:45:14+01:00</time>
      </trkpt>
      <trkpt lat="43.36539" lon="5.39494">
        <ele>286</ele>
        <time>2021-12-17T15:45:19+01:00</time>
      </trkpt>
      <trkpt lat="43.36499" lon="5.39458">
        <ele>285</ele>
        <time>2021-12-17T15:45:24+01:00</time>
      </trkpt>
      <trkpt lat="43.36481" lon="5.39478">
        <ele>285</ele>
        <time>2021-12-17T15:45:29+01:00</time>
      </trkpt>
      <trkpt lat="43.36475" lon="5.39539">
        <ele>283</ele>
        <time>2021-12-17T15:45:34+01:00</time>
      </trkpt>
      <trkpt lat="43.36425" lon="5.39558">
        <ele>280</ele>
        <time>2021-12-17T15:45:39+01:00</time>
      </trkpt>
      <trkpt lat="43.36315" lon="5.39652">
        <ele>278</ele>
        <time>2021-12-17T15:45:44+01:00</time>
      </trkpt>
      <trkpt lat="43.36255" lon="5.39682">
        <ele>273</ele>
        <time>2021-12-17T15:45:49+01:00</time>
      </trkpt>
      <trkpt lat="43.3616" lon="5.39789">
        <ele>260</ele>
        <time>2021-12-17T15:45:54+01:00</time>
      </trkpt>
      <trkpt lat="43.36068" lon="5.39888">
        <ele>260</ele>
        <time>2021-12-17T15:45:59+01:00</time>
      </trkpt>
      <trkpt lat="43.36005" lon="5.399">
        <ele>259</ele>
        <time>2021-12-17T15:46:04+01:00</time>
      </trkpt>
      <trkpt lat="43.35888" lon="5.39955">
        <ele>260</ele>
        <time>2021-12-17T15:46:09+01:00</time>
      </trkpt>
      <trkpt lat="43.35781" lon="5.39983">
        <ele>257</ele>
        <time>2021-12-17T15:46:14+01:00</time>
      </trkpt>
      <trkpt lat="43.35667" lon="5.39986">
        <ele>246</ele>
        <time>2021-12-17T15:46:19+01:00</time>
      </trkpt>
      <trkpt lat="43.35613" lon="5.40024">
        <ele>231</ele>
        <time>2021-12-17T15:46:24+01:00</time>
      </trkpt>
      <trkpt lat="43.35524" lon="5.40063">
        <ele>217</ele>
        <time>2021-12-17T15:46:29+01:00</time>
      </trkpt>
      <trkpt lat="43.35489" lon="5.40122">
        <ele>210</ele>
        <time>2021-12-17T15:46:34+01:00</time>
      </trkpt>
      <trkpt lat="43.35421" lon="5.40171">
        <ele>201</ele>
        <time>2021-12-17T15:46:39+01:00</time>
      </trkpt>
      <trkpt lat="43.35348" lon="5.40201">
        <ele>195</ele>
        <time>2021-12-17T15:46:44+01:00</time>
      </trkpt>
      <trkpt lat="43.35261" lon="5.40261">
        <ele>183</ele>
        <time>2021-12-17T15:46:49+01:00</time>
      </trkpt>
      <trkpt lat="43.35219" lon="5.4021">
        <ele>177</ele>
        <time>2021-12-17T15:46:54+01:00</time>
      </trkpt>
      <trkpt lat="43.35235" lon="5.40161">
        <ele>173</ele>
        <time>2021-12-17T15:46:59+01:00</time>
      </trkpt>
      <trkpt lat="43.35205" lon="5.40118">
        <ele>168</ele>
        <time>2021-12-17T15:47:04+01:00</time>
      </trkpt>
      <trkpt lat="43.35143" lon="5.40058">
        <ele>159</ele>
        <time>2021-12-17T15:47:09+01:00</time>
      </trkpt>
      <trkpt lat="43.35159" lon="5.39968">
        <ele>155</ele>
        <time>2021-12-17T15:47:14+01:00</time>
      </trkpt>
      <trkpt lat="43.35067" lon="5.39925">
        <ele>149</ele>
        <time>2021-12-17T15:47:19+01:00</time>
      </trkpt>
      <trkpt lat="43.34973" lon="5.39958">
        <ele>142</ele>
        <time>2021-12-17T15:47:24+01:00</time>
      </trkpt>
      <trkpt lat="43.34921" lon="5.39913">
        <ele>140</ele>
        <time>2021-12-17T15:47:29+01:00</time>
      </trkpt>
      <trkpt lat="43.34863" lon="5.39799">
        <ele>138</ele>
        <time>2021-12-17T15:47:34+01:00</time>
      </trkpt>
      <trkpt lat="43.34802" lon="5.39741">
        <ele>139</ele>
        <time>2021-12-17T15:47:39+01:00</time>
      </trkpt>
      <trkpt lat="43.3469" lon="5.39748">
        <ele>135</ele>
        <time>2021-12-17T15:47:44+01:00</time>
      </trkpt>
      <trkpt lat="43.34625" lon="5.39731">
        <ele>133</ele>
        <time>2021-12-17T15:47:49+01:00</time>
      </trkpt>
      <trkpt lat="43.34578" lon="5.39759">
        <ele>131</ele>
        <time>2021-12-17T15:47:54+01:00</time>
      </trkpt>
      <trkpt lat="43.34556" lon="5.39793">
        <ele>129</ele>
        <time>2021-12-17T15:47:59+01:00</time>
      </trkpt>
      <trkpt lat="43.34457" lon="5.39819">
        <ele>124</ele>
        <time>2021-12-17T15:48:04+01:00</time>
      </trkpt>
      <trkpt lat="43.3424" lon="5.39722">
        <ele>118</ele>
        <time>2021-12-17T15:48:09+01:00</time>
      </trkpt>
      <trkpt lat="43.34028" lon="5.396">
        <ele>110</ele>
        <time>2021-12-17T15:48:14+01:00</time>
      </trkpt>
      <trkpt lat="43.33938" lon="5.39555">
        <ele>107</ele>
        <time>2021-12-17T15:48:19+01:00</time>
      </trkpt>
      <trkpt lat="43.33874" lon="5.39572">
        <ele>107</ele>
        <time>2021-12-17T15:48:24+01:00</time>
      </trkpt>
      <trkpt lat="43.33851" lon="5.3969">
        <ele>103</ele>
        <time>2021-12-17T15:48:29+01:00</time>
      </trkpt>
      <trkpt lat="43.33678" lon="5.39729">
        <ele>93</ele>
        <time>2021-12-17T15:48:34+01:00</time>
      </trkpt>
      <trkpt lat="43.33661" lon="5.39707">
        <ele>93</ele>
        <time>2021-12-17T15:48:39+01:00</time>
      </trkpt>
      <trkpt lat="43.33619" lon="5.39729">
        <ele>90</ele>
        <time>2021-12-17T15:48:44+01:00</time>
      </trkpt>
      <trkpt lat="43.336" lon="5.39671">
        <ele>89</ele>
        <time>2021-12-17T15:48:49+01:00</time>
      </trkpt>
      <trkpt lat="43.33387" lon="5.39634">
        <ele>81</ele>
        <time>2021-12-17T15:48:54+01:00</time>
      </trkpt>
      <trkpt lat="43.33366" lon="5.39592">
        <ele>79</ele>
        <time>2021-12-17T15:48:59+01:00</time>
      </trkpt>
      <trkpt lat="43.33365" lon="5.39495">
        <ele>76</ele>
        <time>2021-12-17T15:49:04+01:00</time>
      </trkpt>
      <trkpt lat="43.33253" lon="5.39414">
        <ele>71</ele>
        <time>2021-12-17T15:49:09+01:00</time>
      </trkpt>
      <trkpt lat="43.33173" lon="5.39377">
        <ele>70</ele>
        <time>2021-12-17T15:49:14+01:00</time>
      </trkpt>
      <trkpt lat="43.33125" lon="5.39371">
        <ele>67</ele>
        <time>2021-12-17T15:49:19+01:00</time>
      </trkpt>
      <trkpt lat="43.33121" lon="5.39335">
        <ele>65</ele>
        <time>2021-12-17T15:49:24+01:00</time>
      </trkpt>
      <trkpt lat="43.33057" lon="5.39295">
        <ele>62</ele>
        <time>2021-12-17T15:49:29+01:00</time>
      </trkpt>
      <trkpt lat="43.33021" lon="5.39285">
        <ele>61</ele>
        <time>2021-12-17T15:49:34+01:00</time>
      </trkpt>
      <trkpt lat="43.32992" lon="5.39297">
        <ele>61</ele>
        <time>2021-12-17T15:49:39+01:00</time>
      </trkpt>
      <trkpt lat="43.32974" lon="5.39272">
        <ele>61</ele>
        <time>2021-12-17T15:49:44+01:00</time>
      </trkpt>
      <trkpt lat="43.32968" lon="5.39254">
        <ele>60</ele>
        <time>2021-12-17T15:49:49+01:00</time>
      </trkpt>
      <trkpt lat="43.32892" lon="5.39266">
        <ele>66</ele>
        <time>2021-12-17T15:49:54+01:00</time>
      </trkpt>
      <trkpt lat="43.32831" lon="5.3928">
        <ele>68</ele>
        <time>2021-12-17T15:49:59+01:00</time>
      </trkpt>
      <trkpt lat="43.3282" lon="5.39239">
        <ele>63</ele>
        <time>2021-12-17T15:50:04+01:00</time>
      </trkpt>
      <trkpt lat="43.32726" lon="5.3927">
        <ele>59</ele>
        <time>2021-12-17T15:50:09+01:00</time>
      </trkpt>
      <trkpt lat="43.32698" lon="5.39238">
        <ele>55</ele>
        <time>2021-12-17T15:50:14+01:00</time>
      </trkpt>
      <trkpt lat="43.32671" lon="5.3926">
        <ele>56</ele>
        <time>2021-12-17T15:50:19+01:00</time>
      </trkpt>
      <trkpt lat="43.32575" lon="5.39257">
        <ele>51</ele>
        <time>2021-12-17T15:50:24+01:00</time>
      </trkpt>
      <trkpt lat="43.32529" lon="5.3941">
        <ele>55</ele>
        <time>2021-12-17T15:50:29+01:00</time>
      </trkpt>
      <trkpt lat="43.3237" lon="5.39314">
        <ele>50</ele>
        <time>2021-12-17T15:50:34+01:00</time>
      </trkpt>
      <trkpt lat="43.32339" lon="5.39439">
        <ele>55</ele>
        <time>2021-12-17T15:50:39+01:00</time>
      </trkpt>
      <trkpt lat="43.32302" lon="5.39576">
        <ele>61</ele>
        <time>2021-12-17T15:50:44+01:00</time>
      </trkpt>
      <trkpt lat="43.32282" lon="5.39623">
        <ele>64</ele>
        <time>2021-12-17T15:50:49+01:00</time>
      </trkpt>
      <trkpt lat="43.3223" lon="5.39808">
        <ele>89</ele>
        <time>2021-12-17T15:50:54+01:00</time>
      </trkpt>
      <trkpt lat="43.32304" lon="5.39847">
        <ele>91</ele>
        <time>2021-12-17T15:50:59+01:00</time>
      </trkpt>
      <trkpt lat="43.32259" lon="5.40093">
        <ele>106</ele>
        <time>2021-12-17T15:51:04+01:00</time>
      </trkpt>
      <trkpt lat="43.32116" lon="5.40035">
        <ele>102</ele>
        <time>2021-12-17T15:51:09+01:00</time>
      </trkpt>
      <trkpt lat="43.32054" lon="5.4026">
        <ele>96</ele>
        <time>2021-12-17T15:51:14+01:00</time>
      </trkpt>
      <trkpt lat="43.31949" lon="5.40182">
        <ele>88</ele>
        <time>2021-12-17T15:51:19+01:00</time>
      </trkpt>
      <trkpt lat="43.31898" lon="5.40217">
        <ele>83</ele>
        <time>2021-12-17T15:51:24+01:00</time>
      </trkpt>
      <trkpt lat="43.31868" lon="5.40264">
        <ele>78</ele>
        <time>2021-12-17T15:51:29+01:00</time>
      </trkpt>
      <trkpt lat="43.31975" lon="5.4039">
        <ele>80</ele>
        <time>2021-12-17T15:51:34+01:00</time>
      </trkpt>
      <trkpt lat="43.31987" lon="5.4044">
        <ele>81</ele>
        <time>2021-12-17T15:51:39+01:00</time>
      </trkpt>
      <trkpt lat="43.31936" lon="5.40536">
        <ele>73</ele>
        <time>2021-12-17T15:51:44+01:00</time>
      </trkpt>
      <trkpt lat="43.32012" lon="5.40638">
        <ele>78</ele>
        <time>2021-12-17T15:51:49+01:00</time>
      </trkpt>
      <trkpt lat="43.31974" lon="5.40711">
        <ele>70</ele>
        <time>2021-12-17T15:51:54+01:00</time>
      </trkpt>
      <trkpt lat="43.31996" lon="5.40767">
        <ele>68</ele>
        <time>2021-12-17T15:51:59+01:00</time>
      </trkpt>
      <trkpt lat="43.3191" lon="5.40819">
        <ele>64</ele>
        <time>2021-12-17T15:52:04+01:00</time>
      </trkpt>
      <trkpt lat="43.31854" lon="5.40918">
        <ele>60</ele>
        <time>2021-12-17T15:52:09+01:00</time>
      </trkpt>
      <trkpt lat="43.31891" lon="5.40938">
        <ele>60</ele>
        <time>2021-12-17T15:52:14+01:00</time>
      </trkpt>
      <trkpt lat="43.31894" lon="5.41007">
        <ele>60</ele>
        <time>2021-12-17T15:52:19+01:00</time>
      </trkpt>
      <trkpt lat="43.31852" lon="5.41077">
        <ele>64</ele>
        <time>2021-12-17T15:52:24+01:00</time>
      </trkpt>
      <trkpt lat="43.31818" lon="5.41134">
        <ele>67</ele>
        <time>2021-12-17T15:52:29+01:00</time>
      </trkpt>
      <trkpt lat="43.31777" lon="5.41161">
        <ele>70</ele>
        <time>2021-12-17T15:52:34+01:00</time>
      </trkpt>
      <trkpt lat="43.31747" lon="5.41292">
        <ele>77</ele>
        <time>2021-12-17T15:52:39+01:00</time>
      </trkpt>
      <trkpt lat="43.31745" lon="5.41391">
        <ele>84</ele>
        <time>2021-12-17T15:52:44+01:00</time>
      </trkpt>
      <trkpt lat="43.31724" lon="5.41469">
        <ele>90</ele>
        <time>2021-12-17T15:52:49+01:00</time>
      </trkpt>
      <trkpt lat="43.31679" lon="5.41553">
        <ele>102</ele>
        <time>2021-12-17T15:52:54+01:00</time>
      </trkpt>
      <trkpt lat="43.31679" lon="5.41615">
        <ele>105</ele>
        <time>2021-12-17T15:52:59+01:00</time>
      </trkpt>
      <trkpt lat="43.31605" lon="5.41873">
        <ele>109</ele>
        <time>2021-12-17T15:53:04+01:00</time>
      </trkpt>
      <trkpt lat="43.31581" lon="5.41997">
        <ele>113</ele>
        <time>2021-12-17T15:53:09+01:00</time>
      </trkpt>
      <trkpt lat="43.31577" lon="5.42129">
        <ele>117</ele>
        <time>2021-12-17T15:53:14+01:00</time>
      </trkpt>
      <trkpt lat="43.31574" lon="5.42258">
        <ele>122</ele>
        <time>2021-12-17T15:53:19+01:00</time>
      </trkpt>
      <trkpt lat="43.31542" lon="5.42257">
        <ele>121</ele>
        <time>2021-12-17T15:53:24+01:00</time>
      </trkpt>
      <trkpt lat="43.31545" lon="5.4236">
        <ele>127</ele>
        <time>2021-12-17T15:53:29+01:00</time>
      </trkpt>
      <trkpt lat="43.31388" lon="5.42363">
        <ele>125</ele>
        <time>2021-12-17T15:53:34+01:00</time>
      </trkpt>
      <trkpt lat="43.31343" lon="5.42322">
        <ele>121</ele>
        <time>2021-12-17T15:53:39+01:00</time>
      </trkpt>
      <trkpt lat="43.31309" lon="5.42357">
        <ele>123</ele>
        <time>2021-12-17T15:53:44+01:00</time>
      </trkpt>
      <trkpt lat="43.31351" lon="5.42439">
        <ele>127</ele>
        <time>2021-12-17T15:53:49+01:00</time>
      </trkpt>
      <trkpt lat="43.31345" lon="5.42486">
        <ele>130</ele>
        <time>2021-12-17T15:53:54+01:00</time>
      </trkpt>
      <trkpt lat="43.31279" lon="5.42562">
        <ele>134</ele>
        <time>2021-12-17T15:53:59+01:00</time>
      </trkpt>
      <trkpt lat="43.31227" lon="5.42611">
        <ele>135</ele>
        <time>2021-12-17T15:54:04+01:00</time>
      </trkpt>
      <trkpt lat="43.31208" lon="5.4268">
        <ele>138</ele>
        <time>2021-12-17T15:54:09+01:00</time>
      </trkpt>
      <trkpt lat="43.31223" lon="5.42805">
        <ele>144</ele>
        <time>2021-12-17T15:54:14+01:00</time>
      </trkpt>
      <trkpt lat="43.3122" lon="5.42916">
        <ele>145</ele>
        <time>2021-12-17T15:54:19+01:00</time>
      </trkpt>
      <trkpt lat="43.31193" lon="5.42962">
        <ele>145</ele>
        <time>2021-12-17T15:54:24+01:00</time>
      </trkpt>
      <trkpt lat="43.31259" lon="5.43062">
        <ele>145</ele>
        <time>2021-12-17T15:54:29+01:00</time>
      </trkpt>
      <trkpt lat="43.31222" lon="5.43187">
        <ele>145</ele>
        <time>2021-12-17T15:54:34+01:00</time>
      </trkpt>
      <trkpt lat="43.31184" lon="5.43274">
        <ele>145</ele>
        <time>2021-12-17T15:54:39+01:00</time>
      </trkpt>
      <trkpt lat="43.31205" lon="5.43331">
        <ele>146</ele>
        <time>2021-12-17T15:54:44+01:00</time>
      </trkpt>
      <trkpt lat="43.31116" lon="5.43484">
        <ele>147</ele>
        <time>2021-12-17T15:54:49+01:00</time>
      </trkpt>
      <trkpt lat="43.31142" lon="5.43653">
        <ele>149</ele>
        <time>2021-12-17T15:54:54+01:00</time>
      </trkpt>
      <trkpt lat="43.31096" lon="5.43858">
        <ele>150</ele>
        <time>2021-12-17T15:54:59+01:00</time>
      </trkpt>
      <trkpt lat="43.31088" lon="5.44043">
        <ele>150</ele>
        <time>2021-12-17T15:55:04+01:00</time>
      </trkpt>
      <trkpt lat="43.31244" lon="5.44053">
        <ele>150</ele>
        <time>2021-12-17T15:55:09+01:00</time>
      </trkpt>
      <trkpt lat="43.31239" lon="5.44192">
        <ele>152</ele>
        <time>2021-12-17T15:55:14+01:00</time>
      </trkpt>
      <trkpt lat="43.31228" lon="5.4432">
        <ele>155</ele>
        <time>2021-12-17T15:55:19+01:00</time>
      </trkpt>
      <trkpt lat="43.31247" lon="5.44387">
        <ele>155</ele>
        <time>2021-12-17T15:55:24+01:00</time>
      </trkpt>
      <trkpt lat="43.31297" lon="5.44479">
        <ele>155</ele>
        <time>2021-12-17T15:55:29+01:00</time>
      </trkpt>
      <trkpt lat="43.31216" lon="5.44594">
        <ele>159</ele>
        <time>2021-12-17T15:55:34+01:00</time>
      </trkpt>
      <trkpt lat="43.31173" lon="5.44604">
        <ele>160</ele>
        <time>2021-12-17T15:55:39+01:00</time>
      </trkpt>
      <trkpt lat="43.31138" lon="5.4462">
        <ele>159</ele>
        <time>2021-12-17T15:55:44+01:00</time>
      </trkpt>
      <trkpt lat="43.31153" lon="5.44657">
        <ele>160</ele>
        <time>2021-12-17T15:55:49+01:00</time>
      </trkpt>
      <trkpt lat="43.31096" lon="5.44692">
        <ele>149</ele>
        <time>2021-12-17T15:55:54+01:00</time>
      </trkpt>
      <trkpt lat="43.31064" lon="5.44708">
        <ele>139</ele>
        <time>2021-12-17T15:55:59+01:00</time>
      </trkpt>
      <trkpt lat="43.31073" lon="5.44947">
        <ele>139</ele>
        <time>2021-12-17T15:56:04+01:00</time>
      </trkpt>
      <trkpt lat="43.31071" lon="5.44995">
        <ele>138</ele>
        <time>2021-12-17T15:56:09+01:00</time>
      </trkpt>
      <trkpt lat="43.31089" lon="5.45092">
        <ele>138</ele>
        <time>2021-12-17T15:56:14+01:00</time>
      </trkpt>
      <trkpt lat="43.31077" lon="5.45144">
        <ele>139</ele>
        <time>2021-12-17T15:56:19+01:00</time>
      </trkpt>
      <trkpt lat="43.31047" lon="5.45157">
        <ele>138</ele>
        <time>2021-12-17T15:56:24+01:00</time>
      </trkpt>
      <trkpt lat="43.30969" lon="5.45136">
        <ele>136</ele>
        <time>2021-12-17T15:56:29+01:00</time>
      </trkpt>
      <trkpt lat="43.30946" lon="5.45159">
        <ele>136</ele>
        <time>2021-12-17T15:56:34+01:00</time>
      </trkpt>
      <trkpt lat="43.30928" lon="5.45217">
        <ele>136</ele>
        <time>2021-12-17T15:56:39+01:00</time>
      </trkpt>
      <trkpt lat="43.30885" lon="5.45279">
        <ele>135</ele>
        <time>2021-12-17T15:56:44+01:00</time>
      </trkpt>
      <trkpt lat="43.30831" lon="5.45353">
        <ele>136</ele>
        <time>2021-12-17T15:56:49+01:00</time>
      </trkpt>
      <trkpt lat="43.30784" lon="5.45553">
        <ele>137</ele>
        <time>2021-12-17T15:56:54+01:00</time>
      </trkpt>
      <trkpt lat="43.30701" lon="5.45652">
        <ele>136</ele>
        <time>2021-12-17T15:56:59+01:00</time>
      </trkpt>
      <trkpt lat="43.30677" lon="5.45678">
        <ele>133</ele>
        <time>2021-12-17T15:57:04+01:00</time>
      </trkpt>
      <trkpt lat="43.30688" lon="5.45717">
        <ele>138</ele>
        <time>2021-12-17T15:57:09+01:00</time>
      </trkpt>
      <trkpt lat="43.30598" lon="5.45863">
        <ele>137</ele>
        <time>2021-12-17T15:57:14+01:00</time>
      </trkpt>
      <trkpt lat="43.30645" lon="5.45928">
        <ele>137</ele>
        <time>2021-12-17T15:57:19+01:00</time>
      </trkpt>
      <trkpt lat="43.30651" lon="5.45984">
        <ele>134</ele>
        <time>2021-12-17T15:57:24+01:00</time>
      </trkpt>
      <trkpt lat="43.30713" lon="5.4603">
        <ele>138</ele>
        <time>2021-12-17T15:57:29+01:00</time>
      </trkpt>
      <trkpt lat="43.30717" lon="5.46065">
        <ele>138</ele>
        <time>2021-12-17T15:57:34+01:00</time>
      </trkpt>
      <trkpt lat="43.30696" lon="5.46105">
        <ele>134</ele>
        <time>2021-12-17T15:57:39+01:00</time>
      </trkpt>
      <trkpt lat="43.30814" lon="5.46146">
        <ele>154</ele>
        <time>2021-12-17T15:57:44+01:00</time>
      </trkpt>
      <trkpt lat="43.3089" lon="5.46271">
        <ele>162</ele>
        <time>2021-12-17T15:57:49+01:00</time>
      </trkpt>
      <trkpt lat="43.30835" lon="5.46361">
        <ele>160</ele>
        <time>2021-12-17T15:57:54+01:00</time>
      </trkpt>
      <trkpt lat="43.30785" lon="5.46427">
        <ele>160</ele>
        <time>2021-12-17T15:57:59+01:00</time>
      </trkpt>
      <trkpt lat="43.30734" lon="5.46471">
        <ele>160</ele>
        <time>2021-12-17T15:58:04+01:00</time>
      </trkpt>
      <trkpt lat="43.30705" lon="5.46551">
        <ele>160</ele>
        <time>2021-12-17T15:58:09+01:00</time>
      </trkpt>
      <trkpt lat="43.30516" lon="5.46677">
        <ele>150</ele>
        <time>2021-12-17T15:58:14+01:00</time>
      </trkpt>
      <trkpt lat="43.30479" lon="5.46687">
        <ele>150</ele>
        <time>2021-12-17T15:58:19+01:00</time>
      </trkpt>
      <trkpt lat="43.30415" lon="5.46753">
        <ele>150</ele>
        <time>2021-12-17T15:58:24+01:00</time>
      </trkpt>
      <trkpt lat="43.303" lon="5.46828">
        <ele>147</ele>
        <time>2021-12-17T15:58:29+01:00</time>
      </trkpt>
      <trkpt lat="43.30307" lon="5.46877">
        <ele>147</ele>
        <time>2021-12-17T15:58:34+01:00</time>
      </trkpt>
      <trkpt lat="43.30286" lon="5.46899">
        <ele>147</ele>
        <time>2021-12-17T15:58:39+01:00</time>
      </trkpt>
      <trkpt lat="43.30237" lon="5.46954">
        <ele>150</ele>
        <time>2021-12-17T15:58:44+01:00</time>
      </trkpt>
      <trkpt lat="43.3023" lon="5.47072">
        <ele>151</ele>
        <time>2021-12-17T15:58:49+01:00</time>
      </trkpt>
      <trkpt lat="43.30235" lon="5.4722">
        <ele>154</ele>
        <time>2021-12-17T15:58:54+01:00</time>
      </trkpt>
      <trkpt lat="43.30187" lon="5.47225">
        <ele>154</ele>
        <time>2021-12-17T15:58:59+01:00</time>
      </trkpt>
      <trkpt lat="43.30171" lon="5.47198">
        <ele>155</ele>
        <time>2021-12-17T15:59:04+01:00</time>
      </trkpt>
      <trkpt lat="43.3" lon="5.47208">
        <ele>139</ele>
        <time>2021-12-17T15:59:09+01:00</time>
      </trkpt>
      <trkpt lat="43.29963" lon="5.47341">
        <ele>132</ele>
        <time>2021-12-17T15:59:14+01:00</time>
      </trkpt>
      <trkpt lat="43.29999" lon="5.47403">
        <ele>123</ele>
        <time>2021-12-17T15:59:19+01:00</time>
      </trkpt>
      <trkpt lat="43.30001" lon="5.47435">
        <ele>117</ele>
        <time>2021-12-17T15:59:24+01:00</time>
      </trkpt>
      <trkpt lat="43.30009" lon="5.47634">
        <ele>102</ele>
        <time>2021-12-17T15:59:29+01:00</time>
      </trkpt>
      <trkpt lat="43.3004" lon="5.4772">
        <ele>99</ele>
        <time>2021-12-17T15:59:34+01:00</time>
      </trkpt>
      <trkpt lat="43.29967" lon="5.47891">
        <ele>95</ele>
        <time>2021-12-17T15:59:39+01:00</time>
      </trkpt>
      <trkpt lat="43.29912" lon="5.48052">
        <ele>90</ele>
        <time>2021-12-17T15:59:44+01:00</time>
      </trkpt>
      <trkpt lat="43.29875" lon="5.48127">
        <ele>87</ele>
        <time>2021-12-17T15:59:49+01:00</time>
      </trkpt>
      <trkpt lat="43.29698" lon="5.48413">
        <ele>78</ele>
        <time>2021-12-17T15:59:54+01:00</time>
      </trkpt>
      <trkpt lat="43.29484" lon="5.49035">
        <ele>79</ele>
        <time>2021-12-17T15:59:59+01:00</time>
      </trkpt>
      <trkpt lat="43.29319" lon="5.49518">
        <ele>97</ele>
        <time>2021-12-17T16:00:04+01:00</time>
      </trkpt>
      <trkpt lat="43.29189" lon="5.49683">
        <ele>90</ele>
        <time>2021-12-17T16:00:09+01:00</time>
      </trkpt>
      <trkpt lat="43.29162" lon="5.49679">
        <ele>90</ele>
        <time>2021-12-17T16:00:14+01:00</time>
      </trkpt>
      <trkpt lat="43.2913" lon="5.49655">
        <ele>90</ele>
        <time>2021-12-17T16:00:19+01:00</time>
      </trkpt>
      <trkpt lat="43.29075" lon="5.49666">
        <ele>90</ele>
        <time>2021-12-17T16:00:24+01:00</time>
      </trkpt>
      <trkpt lat="43.28997" lon="5.49728">
        <ele>86</ele>
        <time>2021-12-17T16:00:29+01:00</time>
      </trkpt>
      <trkpt lat="43.28931" lon="5.49668">
        <ele>81</ele>
        <time>2021-12-17T16:00:34+01:00</time>
      </trkpt>
      <trkpt lat="43.28894" lon="5.49743">
        <ele>78</ele>
        <time>2021-12-17T16:00:39+01:00</time>
      </trkpt>
      <trkpt lat="43.28811" lon="5.50207">
        <ele>77</ele>
        <time>2021-12-17T16:00:44+01:00</time>
      </trkpt>
      <trkpt lat="43.28819" lon="5.50479">
        <ele>78</ele>
        <time>2021-12-17T16:00:49+01:00</time>
      </trkpt>
      <trkpt lat="43.28759" lon="5.50793">
        <ele>76</ele>
        <time>2021-12-17T16:00:54+01:00</time>
      </trkpt>
      <trkpt lat="43.28735" lon="5.50999">
        <ele>77</ele>
        <time>2021-12-17T16:00:59+01:00</time>
      </trkpt>
      <trkpt lat="43.28726" lon="5.51025">
        <ele>76</ele>
        <time>2021-12-17T16:01:04+01:00</time>
      </trkpt>
      <trkpt lat="43.28711" lon="5.51032">
        <ele>76</ele>
        <time>2021-12-17T16:01:09+01:00</time>
      </trkpt>
      <trkpt lat="43.28706" lon="5.51173">
        <ele>78</ele>
        <time>2021-12-17T16:01:14+01:00</time>
      </trkpt>
      <trkpt lat="43.28675" lon="5.51174">
        <ele>75</ele>
        <time>2021-12-17T16:01:19+01:00</time>
      </trkpt>
    </trkseg>
  </trk>
  <trk>
    <name><![CDATA[58 - MARSEILLE 11ème LA CIOTAT 25.5 KM]]></name>
    <extensions>
      <line xmlns="http://www.topografix.com/GPX/gpx_style/0/2">
        <color>880000</color>
        <width>4</width>
      </line>
    </extensions>
    <trkseg>
      <trkpt lat="43.2867" lon="5.51175">
        <ele>74</ele>
        <time>2021-12-19T19:20:03+01:00</time>
      </trkpt>
      <trkpt lat="43.28705" lon="5.51178">
        <ele>78</ele>
        <time>2021-12-19T19:20:08+01:00</time>
      </trkpt>
      <trkpt lat="43.28709" lon="5.51032">
        <ele>76</ele>
        <time>2021-12-19T19:20:13+01:00</time>
      </trkpt>
      <trkpt lat="43.28724" lon="5.51032">
        <ele>76</ele>
        <time>2021-12-19T19:20:18+01:00</time>
      </trkpt>
      <trkpt lat="43.28727" lon="5.51073">
        <ele>77</ele>
        <time>2021-12-19T19:20:23+01:00</time>
      </trkpt>
      <trkpt lat="43.28696" lon="5.51401">
        <ele>80</ele>
        <time>2021-12-19T19:20:28+01:00</time>
      </trkpt>
      <trkpt lat="43.28496" lon="5.51415">
        <ele>74</ele>
        <time>2021-12-19T19:20:33+01:00</time>
      </trkpt>
      <trkpt lat="43.28375" lon="5.51424">
        <ele>73</ele>
        <time>2021-12-19T19:20:38+01:00</time>
      </trkpt>
      <trkpt lat="43.28378" lon="5.51496">
        <ele>74</ele>
        <time>2021-12-19T19:20:43+01:00</time>
      </trkpt>
      <trkpt lat="43.28169" lon="5.51503">
        <ele>79</ele>
        <time>2021-12-19T19:20:48+01:00</time>
      </trkpt>
      <trkpt lat="43.2814" lon="5.51598">
        <ele>79</ele>
        <time>2021-12-19T19:20:53+01:00</time>
      </trkpt>
      <trkpt lat="43.28106" lon="5.51613">
        <ele>79</ele>
        <time>2021-12-19T19:20:58+01:00</time>
      </trkpt>
      <trkpt lat="43.28027" lon="5.51619">
        <ele>81</ele>
        <time>2021-12-19T19:21:03+01:00</time>
      </trkpt>
      <trkpt lat="43.27972" lon="5.51651">
        <ele>84</ele>
        <time>2021-12-19T19:21:08+01:00</time>
      </trkpt>
      <trkpt lat="43.27859" lon="5.51746">
        <ele>89</ele>
        <time>2021-12-19T19:21:13+01:00</time>
      </trkpt>
      <trkpt lat="43.2781" lon="5.51896">
        <ele>91</ele>
        <time>2021-12-19T19:21:18+01:00</time>
      </trkpt>
      <trkpt lat="43.27753" lon="5.52048">
        <ele>95</ele>
        <time>2021-12-19T19:21:23+01:00</time>
      </trkpt>
      <trkpt lat="43.27714" lon="5.52141">
        <ele>97</ele>
        <time>2021-12-19T19:21:28+01:00</time>
      </trkpt>
      <trkpt lat="43.27685" lon="5.52271">
        <ele>100</ele>
        <time>2021-12-19T19:21:33+01:00</time>
      </trkpt>
      <trkpt lat="43.27659" lon="5.52353">
        <ele>102</ele>
        <time>2021-12-19T19:21:38+01:00</time>
      </trkpt>
      <trkpt lat="43.27616" lon="5.52431">
        <ele>107</ele>
        <time>2021-12-19T19:21:43+01:00</time>
      </trkpt>
      <trkpt lat="43.27595" lon="5.52578">
        <ele>110</ele>
        <time>2021-12-19T19:21:48+01:00</time>
      </trkpt>
      <trkpt lat="43.27585" lon="5.52699">
        <ele>112</ele>
        <time>2021-12-19T19:21:53+01:00</time>
      </trkpt>
      <trkpt lat="43.27545" lon="5.52843">
        <ele>120</ele>
        <time>2021-12-19T19:21:58+01:00</time>
      </trkpt>
      <trkpt lat="43.27541" lon="5.5289">
        <ele>120</ele>
        <time>2021-12-19T19:22:03+01:00</time>
      </trkpt>
      <trkpt lat="43.27438" lon="5.52992">
        <ele>127</ele>
        <time>2021-12-19T19:22:08+01:00</time>
      </trkpt>
      <trkpt lat="43.2744" lon="5.53071">
        <ele>127</ele>
        <time>2021-12-19T19:22:13+01:00</time>
      </trkpt>
      <trkpt lat="43.27401" lon="5.53224">
        <ele>130</ele>
        <time>2021-12-19T19:22:18+01:00</time>
      </trkpt>
      <trkpt lat="43.2733" lon="5.53458">
        <ele>134</ele>
        <time>2021-12-19T19:22:23+01:00</time>
      </trkpt>
      <trkpt lat="43.27287" lon="5.53607">
        <ele>139</ele>
        <time>2021-12-19T19:22:28+01:00</time>
      </trkpt>
      <trkpt lat="43.27247" lon="5.53738">
        <ele>154</ele>
        <time>2021-12-19T19:22:33+01:00</time>
      </trkpt>
      <trkpt lat="43.27231" lon="5.53866">
        <ele>162</ele>
        <time>2021-12-19T19:22:38+01:00</time>
      </trkpt>
      <trkpt lat="43.27177" lon="5.5408">
        <ele>178</ele>
        <time>2021-12-19T19:22:43+01:00</time>
      </trkpt>
      <trkpt lat="43.27123" lon="5.54251">
        <ele>196</ele>
        <time>2021-12-19T19:22:48+01:00</time>
      </trkpt>
      <trkpt lat="43.27078" lon="5.54334">
        <ele>191</ele>
        <time>2021-12-19T19:22:53+01:00</time>
      </trkpt>
      <trkpt lat="43.27027" lon="5.54448">
        <ele>192</ele>
        <time>2021-12-19T19:22:58+01:00</time>
      </trkpt>
      <trkpt lat="43.26979" lon="5.54523">
        <ele>197</ele>
        <time>2021-12-19T19:23:03+01:00</time>
      </trkpt>
      <trkpt lat="43.26928" lon="5.54522">
        <ele>196</ele>
        <time>2021-12-19T19:23:08+01:00</time>
      </trkpt>
      <trkpt lat="43.26854" lon="5.54374">
        <ele>198</ele>
        <time>2021-12-19T19:23:13+01:00</time>
      </trkpt>
      <trkpt lat="43.26808" lon="5.54378">
        <ele>194</ele>
        <time>2021-12-19T19:23:18+01:00</time>
      </trkpt>
      <trkpt lat="43.26806" lon="5.5448">
        <ele>183</ele>
        <time>2021-12-19T19:23:23+01:00</time>
      </trkpt>
      <trkpt lat="43.26737" lon="5.54587">
        <ele>151</ele>
        <time>2021-12-19T19:23:28+01:00</time>
      </trkpt>
      <trkpt lat="43.268" lon="5.54595">
        <ele>151</ele>
        <time>2021-12-19T19:23:33+01:00</time>
      </trkpt>
      <trkpt lat="43.26643" lon="5.54823">
        <ele>150</ele>
        <time>2021-12-19T19:23:38+01:00</time>
      </trkpt>
      <trkpt lat="43.26586" lon="5.54823">
        <ele>150</ele>
        <time>2021-12-19T19:23:43+01:00</time>
      </trkpt>
      <trkpt lat="43.26583" lon="5.54948">
        <ele>147</ele>
        <time>2021-12-19T19:23:48+01:00</time>
      </trkpt>
      <trkpt lat="43.26563" lon="5.55082">
        <ele>142</ele>
        <time>2021-12-19T19:23:53+01:00</time>
      </trkpt>
      <trkpt lat="43.26575" lon="5.55223">
        <ele>143</ele>
        <time>2021-12-19T19:23:58+01:00</time>
      </trkpt>
      <trkpt lat="43.26683" lon="5.55371">
        <ele>140</ele>
        <time>2021-12-19T19:24:03+01:00</time>
      </trkpt>
      <trkpt lat="43.26769" lon="5.55308">
        <ele>137</ele>
        <time>2021-12-19T19:24:08+01:00</time>
      </trkpt>
      <trkpt lat="43.26793" lon="5.5536">
        <ele>135</ele>
        <time>2021-12-19T19:24:13+01:00</time>
      </trkpt>
      <trkpt lat="43.26796" lon="5.55456">
        <ele>136</ele>
        <time>2021-12-19T19:24:18+01:00</time>
      </trkpt>
      <trkpt lat="43.2692" lon="5.55719">
        <ele>131</ele>
        <time>2021-12-19T19:24:23+01:00</time>
      </trkpt>
      <trkpt lat="43.26893" lon="5.55852">
        <ele>127</ele>
        <time>2021-12-19T19:24:28+01:00</time>
      </trkpt>
      <trkpt lat="43.26979" lon="5.55856">
        <ele>123</ele>
        <time>2021-12-19T19:24:33+01:00</time>
      </trkpt>
      <trkpt lat="43.27028" lon="5.55945">
        <ele>120</ele>
        <time>2021-12-19T19:24:38+01:00</time>
      </trkpt>
      <trkpt lat="43.27017" lon="5.56026">
        <ele>120</ele>
        <time>2021-12-19T19:24:43+01:00</time>
      </trkpt>
      <trkpt lat="43.27057" lon="5.56082">
        <ele>123</ele>
        <time>2021-12-19T19:24:48+01:00</time>
      </trkpt>
      <trkpt lat="43.27041" lon="5.5623">
        <ele>129</ele>
        <time>2021-12-19T19:24:53+01:00</time>
      </trkpt>
      <trkpt lat="43.27073" lon="5.56286">
        <ele>130</ele>
        <time>2021-12-19T19:24:58+01:00</time>
      </trkpt>
      <trkpt lat="43.27044" lon="5.5636">
        <ele>139</ele>
        <time>2021-12-19T19:25:03+01:00</time>
      </trkpt>
      <trkpt lat="43.27065" lon="5.56497">
        <ele>152</ele>
        <time>2021-12-19T19:25:08+01:00</time>
      </trkpt>
      <trkpt lat="43.27022" lon="5.56559">
        <ele>174</ele>
        <time>2021-12-19T19:25:13+01:00</time>
      </trkpt>
      <trkpt lat="43.27103" lon="5.56863">
        <ele>203</ele>
        <time>2021-12-19T19:25:18+01:00</time>
      </trkpt>
      <trkpt lat="43.27117" lon="5.57063">
        <ele>222</ele>
        <time>2021-12-19T19:25:23+01:00</time>
      </trkpt>
      <trkpt lat="43.27073" lon="5.57152">
        <ele>237</ele>
        <time>2021-12-19T19:25:28+01:00</time>
      </trkpt>
      <trkpt lat="43.27106" lon="5.57218">
        <ele>241</ele>
        <time>2021-12-19T19:25:33+01:00</time>
      </trkpt>
      <trkpt lat="43.27122" lon="5.57714">
        <ele>288</ele>
        <time>2021-12-19T19:25:38+01:00</time>
      </trkpt>
      <trkpt lat="43.27173" lon="5.57948">
        <ele>303</ele>
        <time>2021-12-19T19:25:43+01:00</time>
      </trkpt>
      <trkpt lat="43.27189" lon="5.58122">
        <ele>316</ele>
        <time>2021-12-19T19:25:48+01:00</time>
      </trkpt>
      <trkpt lat="43.27251" lon="5.58344">
        <ele>332</ele>
        <time>2021-12-19T19:25:53+01:00</time>
      </trkpt>
      <trkpt lat="43.27281" lon="5.58495">
        <ele>330</ele>
        <time>2021-12-19T19:25:58+01:00</time>
      </trkpt>
      <trkpt lat="43.2713" lon="5.58388">
        <ele>341</ele>
        <time>2021-12-19T19:26:03+01:00</time>
      </trkpt>
      <trkpt lat="43.27052" lon="5.58381">
        <ele>342</ele>
        <time>2021-12-19T19:26:08+01:00</time>
      </trkpt>
      <trkpt lat="43.27057" lon="5.5827">
        <ele>353</ele>
        <time>2021-12-19T19:26:13+01:00</time>
      </trkpt>
      <trkpt lat="43.26941" lon="5.58055">
        <ele>352</ele>
        <time>2021-12-19T19:26:18+01:00</time>
      </trkpt>
      <trkpt lat="43.26882" lon="5.58066">
        <ele>348</ele>
        <time>2021-12-19T19:26:23+01:00</time>
      </trkpt>
      <trkpt lat="43.26761" lon="5.57837">
        <ele>338</ele>
        <time>2021-12-19T19:26:28+01:00</time>
      </trkpt>
      <trkpt lat="43.26758" lon="5.57748">
        <ele>340</ele>
        <time>2021-12-19T19:26:33+01:00</time>
      </trkpt>
      <trkpt lat="43.2675" lon="5.57933">
        <ele>326</ele>
        <time>2021-12-19T19:26:38+01:00</time>
      </trkpt>
      <trkpt lat="43.2678" lon="5.58044">
        <ele>323</ele>
        <time>2021-12-19T19:26:43+01:00</time>
      </trkpt>
      <trkpt lat="43.26766" lon="5.58107">
        <ele>312</ele>
        <time>2021-12-19T19:26:48+01:00</time>
      </trkpt>
      <trkpt lat="43.26707" lon="5.58014">
        <ele>305</ele>
        <time>2021-12-19T19:26:53+01:00</time>
      </trkpt>
      <trkpt lat="43.26637" lon="5.58003">
        <ele>295</ele>
        <time>2021-12-19T19:26:58+01:00</time>
      </trkpt>
      <trkpt lat="43.26656" lon="5.58048">
        <ele>292</ele>
        <time>2021-12-19T19:27:03+01:00</time>
      </trkpt>
      <trkpt lat="43.26688" lon="5.58125">
        <ele>283</ele>
        <time>2021-12-19T19:27:08+01:00</time>
      </trkpt>
      <trkpt lat="43.26691" lon="5.58318">
        <ele>265</ele>
        <time>2021-12-19T19:27:13+01:00</time>
      </trkpt>
      <trkpt lat="43.26658" lon="5.5821">
        <ele>261</ele>
        <time>2021-12-19T19:27:18+01:00</time>
      </trkpt>
      <trkpt lat="43.26591" lon="5.58233">
        <ele>249</ele>
        <time>2021-12-19T19:27:23+01:00</time>
      </trkpt>
      <trkpt lat="43.26472" lon="5.58244">
        <ele>232</ele>
        <time>2021-12-19T19:27:28+01:00</time>
      </trkpt>
      <trkpt lat="43.26435" lon="5.5811">
        <ele>234</ele>
        <time>2021-12-19T19:27:33+01:00</time>
      </trkpt>
      <trkpt lat="43.26397" lon="5.58051">
        <ele>227</ele>
        <time>2021-12-19T19:27:38+01:00</time>
      </trkpt>
      <trkpt lat="43.26278" lon="5.57877">
        <ele>213</ele>
        <time>2021-12-19T19:27:43+01:00</time>
      </trkpt>
      <trkpt lat="43.26246" lon="5.58066">
        <ele>203</ele>
        <time>2021-12-19T19:27:48+01:00</time>
      </trkpt>
      <trkpt lat="43.26167" lon="5.58068">
        <ele>209</ele>
        <time>2021-12-19T19:27:53+01:00</time>
      </trkpt>
      <trkpt lat="43.26054" lon="5.57996">
        <ele>216</ele>
        <time>2021-12-19T19:27:58+01:00</time>
      </trkpt>
      <trkpt lat="43.25901" lon="5.57837">
        <ele>227</ele>
        <time>2021-12-19T19:28:03+01:00</time>
      </trkpt>
      <trkpt lat="43.2569" lon="5.57565">
        <ele>265</ele>
        <time>2021-12-19T19:28:08+01:00</time>
      </trkpt>
      <trkpt lat="43.25695" lon="5.57706">
        <ele>280</ele>
        <time>2021-12-19T19:28:13+01:00</time>
      </trkpt>
      <trkpt lat="43.25711" lon="5.57764">
        <ele>283</ele>
        <time>2021-12-19T19:28:18+01:00</time>
      </trkpt>
      <trkpt lat="43.25685" lon="5.57815">
        <ele>297</ele>
        <time>2021-12-19T19:28:23+01:00</time>
      </trkpt>
      <trkpt lat="43.2565" lon="5.57732">
        <ele>299</ele>
        <time>2021-12-19T19:28:28+01:00</time>
      </trkpt>
      <trkpt lat="43.25552" lon="5.57724">
        <ele>310</ele>
        <time>2021-12-19T19:28:33+01:00</time>
      </trkpt>
      <trkpt lat="43.25503" lon="5.57716">
        <ele>309</ele>
        <time>2021-12-19T19:28:38+01:00</time>
      </trkpt>
      <trkpt lat="43.25354" lon="5.57787">
        <ele>303</ele>
        <time>2021-12-19T19:28:43+01:00</time>
      </trkpt>
      <trkpt lat="43.25302" lon="5.5776">
        <ele>309</ele>
        <time>2021-12-19T19:28:48+01:00</time>
      </trkpt>
      <trkpt lat="43.25282" lon="5.57826">
        <ele>307</ele>
        <time>2021-12-19T19:28:53+01:00</time>
      </trkpt>
      <trkpt lat="43.25155" lon="5.5792">
        <ele>296</ele>
        <time>2021-12-19T19:28:58+01:00</time>
      </trkpt>
      <trkpt lat="43.25106" lon="5.58002">
        <ele>294</ele>
        <time>2021-12-19T19:29:03+01:00</time>
      </trkpt>
      <trkpt lat="43.25031" lon="5.58253">
        <ele>283</ele>
        <time>2021-12-19T19:29:08+01:00</time>
      </trkpt>
      <trkpt lat="43.24962" lon="5.58342">
        <ele>279</ele>
        <time>2021-12-19T19:29:13+01:00</time>
      </trkpt>
      <trkpt lat="43.24932" lon="5.58488">
        <ele>275</ele>
        <time>2021-12-19T19:29:18+01:00</time>
      </trkpt>
      <trkpt lat="43.24845" lon="5.58833">
        <ele>272</ele>
        <time>2021-12-19T19:29:23+01:00</time>
      </trkpt>
      <trkpt lat="43.24739" lon="5.59055">
        <ele>274</ele>
        <time>2021-12-19T19:29:28+01:00</time>
      </trkpt>
      <trkpt lat="43.24636" lon="5.59194">
        <ele>275</ele>
        <time>2021-12-19T19:29:33+01:00</time>
      </trkpt>
      <trkpt lat="43.2453" lon="5.59282">
        <ele>280</ele>
        <time>2021-12-19T19:29:38+01:00</time>
      </trkpt>
      <trkpt lat="43.24412" lon="5.59319">
        <ele>285</ele>
        <time>2021-12-19T19:29:43+01:00</time>
      </trkpt>
      <trkpt lat="43.24264" lon="5.59329">
        <ele>295</ele>
        <time>2021-12-19T19:29:48+01:00</time>
      </trkpt>
      <trkpt lat="43.24146" lon="5.59394">
        <ele>301</ele>
        <time>2021-12-19T19:29:53+01:00</time>
      </trkpt>
      <trkpt lat="43.24033" lon="5.59306">
        <ele>313</ele>
        <time>2021-12-19T19:29:58+01:00</time>
      </trkpt>
      <trkpt lat="43.23905" lon="5.59316">
        <ele>322</ele>
        <time>2021-12-19T19:30:03+01:00</time>
      </trkpt>
      <trkpt lat="43.23841" lon="5.59454">
        <ele>331</ele>
        <time>2021-12-19T19:30:08+01:00</time>
      </trkpt>
      <trkpt lat="43.23818" lon="5.5937">
        <ele>332</ele>
        <time>2021-12-19T19:30:13+01:00</time>
      </trkpt>
      <trkpt lat="43.2374" lon="5.59211">
        <ele>335</ele>
        <time>2021-12-19T19:30:18+01:00</time>
      </trkpt>
      <trkpt lat="43.2356" lon="5.59086">
        <ele>347</ele>
        <time>2021-12-19T19:30:23+01:00</time>
      </trkpt>
      <trkpt lat="43.23634" lon="5.59323">
        <ele>381</ele>
        <time>2021-12-19T19:30:28+01:00</time>
      </trkpt>
      <trkpt lat="43.23634" lon="5.59454">
        <ele>389</ele>
        <time>2021-12-19T19:30:33+01:00</time>
      </trkpt>
      <trkpt lat="43.23609" lon="5.59691">
        <ele>390</ele>
        <time>2021-12-19T19:30:38+01:00</time>
      </trkpt>
      <trkpt lat="43.23624" lon="5.59816">
        <ele>390</ele>
        <time>2021-12-19T19:30:43+01:00</time>
      </trkpt>
      <trkpt lat="43.2368" lon="5.59887">
        <ele>391</ele>
        <time>2021-12-19T19:30:48+01:00</time>
      </trkpt>
      <trkpt lat="43.23747" lon="5.6011">
        <ele>412</ele>
        <time>2021-12-19T19:30:53+01:00</time>
      </trkpt>
      <trkpt lat="43.23705" lon="5.60317">
        <ele>417</ele>
        <time>2021-12-19T19:30:58+01:00</time>
      </trkpt>
      <trkpt lat="43.23755" lon="5.60558">
        <ele>416</ele>
        <time>2021-12-19T19:31:03+01:00</time>
      </trkpt>
      <trkpt lat="43.2391" lon="5.60764">
        <ele>413</ele>
        <time>2021-12-19T19:31:08+01:00</time>
      </trkpt>
      <trkpt lat="43.23948" lon="5.60854">
        <ele>411</ele>
        <time>2021-12-19T19:31:13+01:00</time>
      </trkpt>
      <trkpt lat="43.23851" lon="5.6103">
        <ele>392</ele>
        <time>2021-12-19T19:31:18+01:00</time>
      </trkpt>
      <trkpt lat="43.23763" lon="5.61043">
        <ele>380</ele>
        <time>2021-12-19T19:31:23+01:00</time>
      </trkpt>
      <trkpt lat="43.23707" lon="5.61146">
        <ele>380</ele>
        <time>2021-12-19T19:31:28+01:00</time>
      </trkpt>
      <trkpt lat="43.23676" lon="5.61305">
        <ele>368</ele>
        <time>2021-12-19T19:31:33+01:00</time>
      </trkpt>
      <trkpt lat="43.23598" lon="5.61403">
        <ele>354</ele>
        <time>2021-12-19T19:31:38+01:00</time>
      </trkpt>
      <trkpt lat="43.23391" lon="5.61421">
        <ele>340</ele>
        <time>2021-12-19T19:31:43+01:00</time>
      </trkpt>
      <trkpt lat="43.23316" lon="5.61386">
        <ele>340</ele>
        <time>2021-12-19T19:31:48+01:00</time>
      </trkpt>
      <trkpt lat="43.23044" lon="5.61515">
        <ele>318</ele>
        <time>2021-12-19T19:31:53+01:00</time>
      </trkpt>
      <trkpt lat="43.22994" lon="5.61438">
        <ele>314</ele>
        <time>2021-12-19T19:31:58+01:00</time>
      </trkpt>
      <trkpt lat="43.22903" lon="5.61425">
        <ele>303</ele>
        <time>2021-12-19T19:32:03+01:00</time>
      </trkpt>
      <trkpt lat="43.22722" lon="5.61258">
        <ele>290</ele>
        <time>2021-12-19T19:32:08+01:00</time>
      </trkpt>
      <trkpt lat="43.22581" lon="5.61352">
        <ele>280</ele>
        <time>2021-12-19T19:32:13+01:00</time>
      </trkpt>
      <trkpt lat="43.22481" lon="5.61313">
        <ele>287</ele>
        <time>2021-12-19T19:32:18+01:00</time>
      </trkpt>
      <trkpt lat="43.22387" lon="5.61245">
        <ele>276</ele>
        <time>2021-12-19T19:32:23+01:00</time>
      </trkpt>
      <trkpt lat="43.22278" lon="5.61245">
        <ele>262</ele>
        <time>2021-12-19T19:32:28+01:00</time>
      </trkpt>
      <trkpt lat="43.22169" lon="5.61176">
        <ele>245</ele>
        <time>2021-12-19T19:32:33+01:00</time>
      </trkpt>
      <trkpt lat="43.2214" lon="5.6112">
        <ele>240</ele>
        <time>2021-12-19T19:32:38+01:00</time>
      </trkpt>
      <trkpt lat="43.22128" lon="5.61047">
        <ele>235</ele>
        <time>2021-12-19T19:32:43+01:00</time>
      </trkpt>
      <trkpt lat="43.21993" lon="5.60996">
        <ele>228</ele>
        <time>2021-12-19T19:32:48+01:00</time>
      </trkpt>
      <trkpt lat="43.21909" lon="5.60983">
        <ele>222</ele>
        <time>2021-12-19T19:32:53+01:00</time>
      </trkpt>
      <trkpt lat="43.21846" lon="5.61104">
        <ele>209</ele>
        <time>2021-12-19T19:32:58+01:00</time>
      </trkpt>
      <trkpt lat="43.2178" lon="5.61211">
        <ele>197</ele>
        <time>2021-12-19T19:33:03+01:00</time>
      </trkpt>
      <trkpt lat="43.21683" lon="5.6125">
        <ele>180</ele>
        <time>2021-12-19T19:33:08+01:00</time>
      </trkpt>
      <trkpt lat="43.21692" lon="5.6134">
        <ele>174</ele>
        <time>2021-12-19T19:33:13+01:00</time>
      </trkpt>
      <trkpt lat="43.21523" lon="5.61499">
        <ele>142</ele>
        <time>2021-12-19T19:33:18+01:00</time>
      </trkpt>
      <trkpt lat="43.21464" lon="5.61615">
        <ele>121</ele>
        <time>2021-12-19T19:33:23+01:00</time>
      </trkpt>
      <trkpt lat="43.21505" lon="5.61671">
        <ele>120</ele>
        <time>2021-12-19T19:33:28+01:00</time>
      </trkpt>
      <trkpt lat="43.21411" lon="5.61722">
        <ele>116</ele>
        <time>2021-12-19T19:33:33+01:00</time>
      </trkpt>
      <trkpt lat="43.21336" lon="5.61877">
        <ele>112</ele>
        <time>2021-12-19T19:33:38+01:00</time>
      </trkpt>
      <trkpt lat="43.20982" lon="5.6213">
        <ele>83</ele>
        <time>2021-12-19T19:33:43+01:00</time>
      </trkpt>
      <trkpt lat="43.20867" lon="5.62186">
        <ele>70</ele>
        <time>2021-12-19T19:33:48+01:00</time>
      </trkpt>
      <trkpt lat="43.20826" lon="5.62271">
        <ele>69</ele>
        <time>2021-12-19T19:33:53+01:00</time>
      </trkpt>
      <trkpt lat="43.2056" lon="5.62469">
        <ele>59</ele>
        <time>2021-12-19T19:33:58+01:00</time>
      </trkpt>
      <trkpt lat="43.20422" lon="5.62662">
        <ele>46</ele>
        <time>2021-12-19T19:34:03+01:00</time>
      </trkpt>
      <trkpt lat="43.20341" lon="5.6258">
        <ele>48</ele>
        <time>2021-12-19T19:34:08+01:00</time>
      </trkpt>
      <trkpt lat="43.20135" lon="5.62304">
        <ele>40</ele>
        <time>2021-12-19T19:34:13+01:00</time>
      </trkpt>
      <trkpt lat="43.19759" lon="5.62124">
        <ele>33</ele>
        <time>2021-12-19T19:34:18+01:00</time>
      </trkpt>
      <trkpt lat="43.19522" lon="5.61866">
        <ele>25</ele>
        <time>2021-12-19T19:34:23+01:00</time>
      </trkpt>
      <trkpt lat="43.19174" lon="5.61789">
        <ele>18</ele>
        <time>2021-12-19T19:34:28+01:00</time>
      </trkpt>
      <trkpt lat="43.18927" lon="5.61677">
        <ele>14</ele>
        <time>2021-12-19T19:34:33+01:00</time>
      </trkpt>
      <trkpt lat="43.18733" lon="5.61514">
        <ele>15</ele>
        <time>2021-12-19T19:34:38+01:00</time>
      </trkpt>
      <trkpt lat="43.18599" lon="5.61437">
        <ele>9</ele>
        <time>2021-12-19T19:34:43+01:00</time>
      </trkpt>
      <trkpt lat="43.18423" lon="5.61343">
        <ele>8</ele>
        <time>2021-12-19T19:34:48+01:00</time>
      </trkpt>
      <trkpt lat="43.18304" lon="5.61265">
        <ele>7</ele>
        <time>2021-12-19T19:34:53+01:00</time>
      </trkpt>
      <trkpt lat="43.18126" lon="5.6124">
        <ele>7</ele>
        <time>2021-12-19T19:34:58+01:00</time>
      </trkpt>
      <trkpt lat="43.18013" lon="5.61141">
        <ele>7</ele>
        <time>2021-12-19T19:35:03+01:00</time>
      </trkpt>
      <trkpt lat="43.17893" lon="5.6107">
        <ele>8</ele>
        <time>2021-12-19T19:35:08+01:00</time>
      </trkpt>
      <trkpt lat="43.17842" lon="5.61025">
        <ele>10</ele>
        <time>2021-12-19T19:35:13+01:00</time>
      </trkpt>
      <trkpt lat="43.17749" lon="5.60939">
        <ele>12</ele>
        <time>2021-12-19T19:35:18+01:00</time>
      </trkpt>
      <trkpt lat="43.17779" lon="5.60772">
        <ele>17</ele>
        <time>2021-12-19T19:35:23+01:00</time>
      </trkpt>
      <trkpt lat="43.1769" lon="5.60674">
        <ele>10</ele>
        <time>2021-12-19T19:35:28+01:00</time>
      </trkpt>
    </trkseg>
  </trk>
  <trk>
    <name><![CDATA[59 - LA CIOTAT BANDOL LA SEYNE SUR MER 31.7 KM]]></name>
    <extensions>
      <line xmlns="http://www.topografix.com/GPX/gpx_style/0/2">
        <color>008888</color>
        <width>4</width>
      </line>
    </extensions>
    <trkseg>
      <trkpt lat="43.1778" lon="5.60773">
        <ele>17</ele>
        <time>2021-12-20T17:10:34+01:00</time>
      </trkpt>
      <trkpt lat="43.17751" lon="5.60927">
        <ele>13</ele>
        <time>2021-12-20T17:10:39+01:00</time>
      </trkpt>
      <trkpt lat="43.17884" lon="5.61063">
        <ele>8</ele>
        <time>2021-12-20T17:10:44+01:00</time>
      </trkpt>
      <trkpt lat="43.18008" lon="5.61128">
        <ele>8</ele>
        <time>2021-12-20T17:10:49+01:00</time>
      </trkpt>
      <trkpt lat="43.18089" lon="5.6121">
        <ele>8</ele>
        <time>2021-12-20T17:10:54+01:00</time>
      </trkpt>
      <trkpt lat="43.18083" lon="5.61244">
        <ele>5</ele>
        <time>2021-12-20T17:10:59+01:00</time>
      </trkpt>
      <trkpt lat="43.1814" lon="5.61344">
        <ele>2</ele>
        <time>2021-12-20T17:11:04+01:00</time>
      </trkpt>
      <trkpt lat="43.18245" lon="5.61491">
        <ele>2</ele>
        <time>2021-12-20T17:11:09+01:00</time>
      </trkpt>
      <trkpt lat="43.18353" lon="5.61661">
        <ele>1</ele>
        <time>2021-12-20T17:11:14+01:00</time>
      </trkpt>
      <trkpt lat="43.18469" lon="5.61785">
        <ele>2</ele>
        <time>2021-12-20T17:11:19+01:00</time>
      </trkpt>
      <trkpt lat="43.18583" lon="5.62057">
        <ele>1</ele>
        <time>2021-12-20T17:11:24+01:00</time>
      </trkpt>
      <trkpt lat="43.18638" lon="5.62162">
        <ele>1</ele>
        <time>2021-12-20T17:11:29+01:00</time>
      </trkpt>
      <trkpt lat="43.18709" lon="5.62349">
        <ele>1</ele>
        <time>2021-12-20T17:11:34+01:00</time>
      </trkpt>
      <trkpt lat="43.18723" lon="5.6258">
        <ele>1</ele>
        <time>2021-12-20T17:11:39+01:00</time>
      </trkpt>
      <trkpt lat="43.18735" lon="5.6263">
        <ele>1</ele>
        <time>2021-12-20T17:11:44+01:00</time>
      </trkpt>
      <trkpt lat="43.18836" lon="5.62693">
        <ele>5</ele>
        <time>2021-12-20T17:11:49+01:00</time>
      </trkpt>
      <trkpt lat="43.18889" lon="5.62787">
        <ele>7</ele>
        <time>2021-12-20T17:11:54+01:00</time>
      </trkpt>
      <trkpt lat="43.18957" lon="5.62854">
        <ele>8</ele>
        <time>2021-12-20T17:11:59+01:00</time>
      </trkpt>
      <trkpt lat="43.18922" lon="5.63064">
        <ele>6</ele>
        <time>2021-12-20T17:12:04+01:00</time>
      </trkpt>
      <trkpt lat="43.18904" lon="5.6326">
        <ele>10</ele>
        <time>2021-12-20T17:12:09+01:00</time>
      </trkpt>
      <trkpt lat="43.18917" lon="5.63415">
        <ele>7</ele>
        <time>2021-12-20T17:12:14+01:00</time>
      </trkpt>
      <trkpt lat="43.18991" lon="5.63621">
        <ele>9</ele>
        <time>2021-12-20T17:12:19+01:00</time>
      </trkpt>
      <trkpt lat="43.1905" lon="5.63831">
        <ele>10</ele>
        <time>2021-12-20T17:12:24+01:00</time>
      </trkpt>
      <trkpt lat="43.19075" lon="5.64094">
        <ele>11</ele>
        <time>2021-12-20T17:12:29+01:00</time>
      </trkpt>
      <trkpt lat="43.18996" lon="5.64328">
        <ele>12</ele>
        <time>2021-12-20T17:12:34+01:00</time>
      </trkpt>
      <trkpt lat="43.18907" lon="5.64377">
        <ele>2</ele>
        <time>2021-12-20T17:12:39+01:00</time>
      </trkpt>
      <trkpt lat="43.18784" lon="5.64511">
        <ele>1</ele>
        <time>2021-12-20T17:12:44+01:00</time>
      </trkpt>
      <trkpt lat="43.18764" lon="5.64721">
        <ele>1</ele>
        <time>2021-12-20T17:12:49+01:00</time>
      </trkpt>
      <trkpt lat="43.18825" lon="5.64773">
        <ele>2</ele>
        <time>2021-12-20T17:12:54+01:00</time>
      </trkpt>
      <trkpt lat="43.18889" lon="5.65155">
        <ele>11</ele>
        <time>2021-12-20T17:12:59+01:00</time>
      </trkpt>
      <trkpt lat="43.1881" lon="5.6527">
        <ele>18</ele>
        <time>2021-12-20T17:13:04+01:00</time>
      </trkpt>
      <trkpt lat="43.18708" lon="5.65403">
        <ele>21</ele>
        <time>2021-12-20T17:13:09+01:00</time>
      </trkpt>
      <trkpt lat="43.18677" lon="5.65701">
        <ele>23</ele>
        <time>2021-12-20T17:13:14+01:00</time>
      </trkpt>
      <trkpt lat="43.18596" lon="5.65943">
        <ele>21</ele>
        <time>2021-12-20T17:13:19+01:00</time>
      </trkpt>
      <trkpt lat="43.18527" lon="5.66176">
        <ele>13</ele>
        <time>2021-12-20T17:13:24+01:00</time>
      </trkpt>
      <trkpt lat="43.18403" lon="5.66278">
        <ele>11</ele>
        <time>2021-12-20T17:13:29+01:00</time>
      </trkpt>
      <trkpt lat="43.1833" lon="5.6648">
        <ele>15</ele>
        <time>2021-12-20T17:13:34+01:00</time>
      </trkpt>
      <trkpt lat="43.18274" lon="5.66633">
        <ele>20</ele>
        <time>2021-12-20T17:13:39+01:00</time>
      </trkpt>
      <trkpt lat="43.18228" lon="5.66781">
        <ele>17</ele>
        <time>2021-12-20T17:13:44+01:00</time>
      </trkpt>
      <trkpt lat="43.18113" lon="5.6693">
        <ele>6</ele>
        <time>2021-12-20T17:13:49+01:00</time>
      </trkpt>
      <trkpt lat="43.18075" lon="5.67068">
        <ele>10</ele>
        <time>2021-12-20T17:13:54+01:00</time>
      </trkpt>
      <trkpt lat="43.18078" lon="5.67189">
        <ele>17</ele>
        <time>2021-12-20T17:13:59+01:00</time>
      </trkpt>
      <trkpt lat="43.18007" lon="5.67505">
        <ele>15</ele>
        <time>2021-12-20T17:14:04+01:00</time>
      </trkpt>
      <trkpt lat="43.17972" lon="5.67771">
        <ele>12</ele>
        <time>2021-12-20T17:14:09+01:00</time>
      </trkpt>
      <trkpt lat="43.17986" lon="5.67862">
        <ele>8</ele>
        <time>2021-12-20T17:14:14+01:00</time>
      </trkpt>
      <trkpt lat="43.1801" lon="5.68062">
        <ele>6</ele>
        <time>2021-12-20T17:14:19+01:00</time>
      </trkpt>
      <trkpt lat="43.18039" lon="5.68246">
        <ele>5</ele>
        <time>2021-12-20T17:14:24+01:00</time>
      </trkpt>
      <trkpt lat="43.18061" lon="5.68465">
        <ele>3</ele>
        <time>2021-12-20T17:14:29+01:00</time>
      </trkpt>
      <trkpt lat="43.18064" lon="5.68529">
        <ele>2</ele>
        <time>2021-12-20T17:14:34+01:00</time>
      </trkpt>
      <trkpt lat="43.18034" lon="5.68724">
        <ele>3</ele>
        <time>2021-12-20T17:14:39+01:00</time>
      </trkpt>
      <trkpt lat="43.17918" lon="5.68906">
        <ele>2</ele>
        <time>2021-12-20T17:14:44+01:00</time>
      </trkpt>
      <trkpt lat="43.17758" lon="5.69054">
        <ele>1</ele>
        <time>2021-12-20T17:14:49+01:00</time>
      </trkpt>
      <trkpt lat="43.17259" lon="5.69548">
        <ele>2</ele>
        <time>2021-12-20T17:14:54+01:00</time>
      </trkpt>
      <trkpt lat="43.16646" lon="5.69461">
        <ele>3</ele>
        <time>2021-12-20T17:14:59+01:00</time>
      </trkpt>
      <trkpt lat="43.16574" lon="5.69446">
        <ele>4</ele>
        <time>2021-12-20T17:15:04+01:00</time>
      </trkpt>
      <trkpt lat="43.16501" lon="5.69484">
        <ele>13</ele>
        <time>2021-12-20T17:15:09+01:00</time>
      </trkpt>
      <trkpt lat="43.16449" lon="5.69564">
        <ele>19</ele>
        <time>2021-12-20T17:15:14+01:00</time>
      </trkpt>
      <trkpt lat="43.16364" lon="5.69627">
        <ele>27</ele>
        <time>2021-12-20T17:15:19+01:00</time>
      </trkpt>
      <trkpt lat="43.1629" lon="5.69695">
        <ele>31</ele>
        <time>2021-12-20T17:15:24+01:00</time>
      </trkpt>
      <trkpt lat="43.16145" lon="5.69751">
        <ele>41</ele>
        <time>2021-12-20T17:15:29+01:00</time>
      </trkpt>
      <trkpt lat="43.16104" lon="5.69792">
        <ele>43</ele>
        <time>2021-12-20T17:15:34+01:00</time>
      </trkpt>
      <trkpt lat="43.16031" lon="5.69858">
        <ele>49</ele>
        <time>2021-12-20T17:15:39+01:00</time>
      </trkpt>
      <trkpt lat="43.15984" lon="5.70073">
        <ele>70</ele>
        <time>2021-12-20T17:15:44+01:00</time>
      </trkpt>
      <trkpt lat="43.15999" lon="5.70148">
        <ele>71</ele>
        <time>2021-12-20T17:15:49+01:00</time>
      </trkpt>
      <trkpt lat="43.15993" lon="5.70399">
        <ele>68</ele>
        <time>2021-12-20T17:15:54+01:00</time>
      </trkpt>
      <trkpt lat="43.15796" lon="5.70588">
        <ele>72</ele>
        <time>2021-12-20T17:15:59+01:00</time>
      </trkpt>
      <trkpt lat="43.15661" lon="5.70635">
        <ele>83</ele>
        <time>2021-12-20T17:16:04+01:00</time>
      </trkpt>
      <trkpt lat="43.157" lon="5.70794">
        <ele>63</ele>
        <time>2021-12-20T17:16:09+01:00</time>
      </trkpt>
      <trkpt lat="43.15647" lon="5.70774">
        <ele>69</ele>
        <time>2021-12-20T17:16:14+01:00</time>
      </trkpt>
      <trkpt lat="43.15552" lon="5.7089">
        <ele>67</ele>
        <time>2021-12-20T17:16:19+01:00</time>
      </trkpt>
      <trkpt lat="43.1547" lon="5.7109">
        <ele>50</ele>
        <time>2021-12-20T17:16:24+01:00</time>
      </trkpt>
      <trkpt lat="43.15367" lon="5.71418">
        <ele>30</ele>
        <time>2021-12-20T17:16:29+01:00</time>
      </trkpt>
      <trkpt lat="43.15395" lon="5.71442">
        <ele>30</ele>
        <time>2021-12-20T17:16:34+01:00</time>
      </trkpt>
      <trkpt lat="43.15306" lon="5.71461">
        <ele>29</ele>
        <time>2021-12-20T17:16:39+01:00</time>
      </trkpt>
      <trkpt lat="43.15246" lon="5.71502">
        <ele>21</ele>
        <time>2021-12-20T17:16:44+01:00</time>
      </trkpt>
      <trkpt lat="43.15182" lon="5.715">
        <ele>20</ele>
        <time>2021-12-20T17:16:49+01:00</time>
      </trkpt>
      <trkpt lat="43.15118" lon="5.71476">
        <ele>20</ele>
        <time>2021-12-20T17:16:54+01:00</time>
      </trkpt>
      <trkpt lat="43.1506" lon="5.71532">
        <ele>20</ele>
        <time>2021-12-20T17:16:59+01:00</time>
      </trkpt>
      <trkpt lat="43.1491" lon="5.71564">
        <ele>28</ele>
        <time>2021-12-20T17:17:04+01:00</time>
      </trkpt>
      <trkpt lat="43.14874" lon="5.71532">
        <ele>29</ele>
        <time>2021-12-20T17:17:09+01:00</time>
      </trkpt>
      <trkpt lat="43.14846" lon="5.71543">
        <ele>31</ele>
        <time>2021-12-20T17:17:14+01:00</time>
      </trkpt>
      <trkpt lat="43.14882" lon="5.7162">
        <ele>39</ele>
        <time>2021-12-20T17:17:19+01:00</time>
      </trkpt>
      <trkpt lat="43.14869" lon="5.71682">
        <ele>48</ele>
        <time>2021-12-20T17:17:24+01:00</time>
      </trkpt>
      <trkpt lat="43.14831" lon="5.71736">
        <ele>41</ele>
        <time>2021-12-20T17:17:29+01:00</time>
      </trkpt>
      <trkpt lat="43.14788" lon="5.71837">
        <ele>34</ele>
        <time>2021-12-20T17:17:34+01:00</time>
      </trkpt>
      <trkpt lat="43.14787" lon="5.71899">
        <ele>27</ele>
        <time>2021-12-20T17:17:39+01:00</time>
      </trkpt>
      <trkpt lat="43.14817" lon="5.71943">
        <ele>38</ele>
        <time>2021-12-20T17:17:44+01:00</time>
      </trkpt>
      <trkpt lat="43.1478" lon="5.72029">
        <ele>53</ele>
        <time>2021-12-20T17:17:49+01:00</time>
      </trkpt>
      <trkpt lat="43.14687" lon="5.72072">
        <ele>52</ele>
        <time>2021-12-20T17:17:54+01:00</time>
      </trkpt>
      <trkpt lat="43.14562" lon="5.72152">
        <ele>60</ele>
        <time>2021-12-20T17:17:59+01:00</time>
      </trkpt>
      <trkpt lat="43.14483" lon="5.72179">
        <ele>62</ele>
        <time>2021-12-20T17:18:04+01:00</time>
      </trkpt>
      <trkpt lat="43.14355" lon="5.72167">
        <ele>56</ele>
        <time>2021-12-20T17:18:09+01:00</time>
      </trkpt>
      <trkpt lat="43.14312" lon="5.72181">
        <ele>59</ele>
        <time>2021-12-20T17:18:14+01:00</time>
      </trkpt>
      <trkpt lat="43.14286" lon="5.72182">
        <ele>57</ele>
        <time>2021-12-20T17:18:19+01:00</time>
      </trkpt>
      <trkpt lat="43.14262" lon="5.72207">
        <ele>64</ele>
        <time>2021-12-20T17:18:24+01:00</time>
      </trkpt>
      <trkpt lat="43.14241" lon="5.72182">
        <ele>52</ele>
        <time>2021-12-20T17:18:29+01:00</time>
      </trkpt>
      <trkpt lat="43.14219" lon="5.72197">
        <ele>56</ele>
        <time>2021-12-20T17:18:34+01:00</time>
      </trkpt>
      <trkpt lat="43.1419" lon="5.72183">
        <ele>45</ele>
        <time>2021-12-20T17:18:39+01:00</time>
      </trkpt>
      <trkpt lat="43.14136" lon="5.72224">
        <ele>44</ele>
        <time>2021-12-20T17:18:44+01:00</time>
      </trkpt>
      <trkpt lat="43.14066" lon="5.72266">
        <ele>36</ele>
        <time>2021-12-20T17:18:49+01:00</time>
      </trkpt>
      <trkpt lat="43.13996" lon="5.72386">
        <ele>44</ele>
        <time>2021-12-20T17:18:54+01:00</time>
      </trkpt>
      <trkpt lat="43.13917" lon="5.72393">
        <ele>41</ele>
        <time>2021-12-20T17:18:59+01:00</time>
      </trkpt>
      <trkpt lat="43.13829" lon="5.72471">
        <ele>39</ele>
        <time>2021-12-20T17:19:04+01:00</time>
      </trkpt>
      <trkpt lat="43.13677" lon="5.72478">
        <ele>29</ele>
        <time>2021-12-20T17:19:09+01:00</time>
      </trkpt>
      <trkpt lat="43.13653" lon="5.72549">
        <ele>12</ele>
        <time>2021-12-20T17:19:14+01:00</time>
      </trkpt>
      <trkpt lat="43.13695" lon="5.72567">
        <ele>12</ele>
        <time>2021-12-20T17:19:19+01:00</time>
      </trkpt>
      <trkpt lat="43.137" lon="5.72582">
        <ele>8</ele>
        <time>2021-12-20T17:19:24+01:00</time>
      </trkpt>
      <trkpt lat="43.1373" lon="5.72588">
        <ele>10</ele>
        <time>2021-12-20T17:19:29+01:00</time>
      </trkpt>
      <trkpt lat="43.1373" lon="5.72652">
        <ele>10</ele>
        <time>2021-12-20T17:19:34+01:00</time>
      </trkpt>
      <trkpt lat="43.13696" lon="5.72669">
        <ele>10</ele>
        <time>2021-12-20T17:19:39+01:00</time>
      </trkpt>
      <trkpt lat="43.13664" lon="5.72716">
        <ele>16</ele>
        <time>2021-12-20T17:19:44+01:00</time>
      </trkpt>
      <trkpt lat="43.13577" lon="5.72803">
        <ele>26</ele>
        <time>2021-12-20T17:19:49+01:00</time>
      </trkpt>
      <trkpt lat="43.13566" lon="5.72915">
        <ele>24</ele>
        <time>2021-12-20T17:19:54+01:00</time>
      </trkpt>
      <trkpt lat="43.13613" lon="5.72921">
        <ele>26</ele>
        <time>2021-12-20T17:19:59+01:00</time>
      </trkpt>
      <trkpt lat="43.13629" lon="5.72948">
        <ele>20</ele>
        <time>2021-12-20T17:20:04+01:00</time>
      </trkpt>
      <trkpt lat="43.13649" lon="5.72963">
        <ele>21</ele>
        <time>2021-12-20T17:20:09+01:00</time>
      </trkpt>
      <trkpt lat="43.13634" lon="5.73001">
        <ele>17</ele>
        <time>2021-12-20T17:20:14+01:00</time>
      </trkpt>
      <trkpt lat="43.13631" lon="5.73046">
        <ele>19</ele>
        <time>2021-12-20T17:20:19+01:00</time>
      </trkpt>
      <trkpt lat="43.13639" lon="5.7315">
        <ele>23</ele>
        <time>2021-12-20T17:20:24+01:00</time>
      </trkpt>
      <trkpt lat="43.13655" lon="5.73284">
        <ele>18</ele>
        <time>2021-12-20T17:20:29+01:00</time>
      </trkpt>
      <trkpt lat="43.13672" lon="5.73336">
        <ele>18</ele>
        <time>2021-12-20T17:20:34+01:00</time>
      </trkpt>
      <trkpt lat="43.13652" lon="5.7349">
        <ele>9</ele>
        <time>2021-12-20T17:20:39+01:00</time>
      </trkpt>
      <trkpt lat="43.13631" lon="5.73538">
        <ele>8</ele>
        <time>2021-12-20T17:20:44+01:00</time>
      </trkpt>
      <trkpt lat="43.13629" lon="5.73669">
        <ele>9</ele>
        <time>2021-12-20T17:20:49+01:00</time>
      </trkpt>
      <trkpt lat="43.13641" lon="5.73731">
        <ele>10</ele>
        <time>2021-12-20T17:20:54+01:00</time>
      </trkpt>
      <trkpt lat="43.13592" lon="5.73803">
        <ele>7</ele>
        <time>2021-12-20T17:20:59+01:00</time>
      </trkpt>
      <trkpt lat="43.13566" lon="5.73879">
        <ele>8</ele>
        <time>2021-12-20T17:21:04+01:00</time>
      </trkpt>
      <trkpt lat="43.13522" lon="5.73873">
        <ele>5</ele>
        <time>2021-12-20T17:21:09+01:00</time>
      </trkpt>
      <trkpt lat="43.13467" lon="5.73899">
        <ele>8</ele>
        <time>2021-12-20T17:21:14+01:00</time>
      </trkpt>
      <trkpt lat="43.13459" lon="5.74007">
        <ele>9</ele>
        <time>2021-12-20T17:21:19+01:00</time>
      </trkpt>
      <trkpt lat="43.13439" lon="5.74054">
        <ele>9</ele>
        <time>2021-12-20T17:21:24+01:00</time>
      </trkpt>
      <trkpt lat="43.13397" lon="5.7409">
        <ele>1</ele>
        <time>2021-12-20T17:21:29+01:00</time>
      </trkpt>
      <trkpt lat="43.13446" lon="5.74177">
        <ele>2</ele>
        <time>2021-12-20T17:21:34+01:00</time>
      </trkpt>
      <trkpt lat="43.13487" lon="5.74202">
        <ele>4</ele>
        <time>2021-12-20T17:21:39+01:00</time>
      </trkpt>
      <trkpt lat="43.13515" lon="5.74224">
        <ele>6</ele>
        <time>2021-12-20T17:21:44+01:00</time>
      </trkpt>
      <trkpt lat="43.13512" lon="5.74348">
        <ele>6</ele>
        <time>2021-12-20T17:21:49+01:00</time>
      </trkpt>
      <trkpt lat="43.13532" lon="5.74406">
        <ele>6</ele>
        <time>2021-12-20T17:21:54+01:00</time>
      </trkpt>
      <trkpt lat="43.1351" lon="5.74606">
        <ele>5</ele>
        <time>2021-12-20T17:21:59+01:00</time>
      </trkpt>
      <trkpt lat="43.13509" lon="5.7472">
        <ele>6</ele>
        <time>2021-12-20T17:22:04+01:00</time>
      </trkpt>
      <trkpt lat="43.13578" lon="5.7481">
        <ele>13</ele>
        <time>2021-12-20T17:22:09+01:00</time>
      </trkpt>
      <trkpt lat="43.13606" lon="5.74867">
        <ele>14</ele>
        <time>2021-12-20T17:22:14+01:00</time>
      </trkpt>
      <trkpt lat="43.13592" lon="5.75026">
        <ele>13</ele>
        <time>2021-12-20T17:22:19+01:00</time>
      </trkpt>
      <trkpt lat="43.13593" lon="5.75058">
        <ele>13</ele>
        <time>2021-12-20T17:22:24+01:00</time>
      </trkpt>
      <trkpt lat="43.1359" lon="5.75171">
        <ele>10</ele>
        <time>2021-12-20T17:22:29+01:00</time>
      </trkpt>
      <trkpt lat="43.13603" lon="5.75253">
        <ele>10</ele>
        <time>2021-12-20T17:22:34+01:00</time>
      </trkpt>
      <trkpt lat="43.13609" lon="5.75334">
        <ele>8</ele>
        <time>2021-12-20T17:22:39+01:00</time>
      </trkpt>
      <trkpt lat="43.13535" lon="5.75396">
        <ele>2</ele>
        <time>2021-12-20T17:22:44+01:00</time>
      </trkpt>
      <trkpt lat="43.13552" lon="5.75461">
        <ele>2</ele>
        <time>2021-12-20T17:22:49+01:00</time>
      </trkpt>
      <trkpt lat="43.13629" lon="5.75714">
        <ele>2</ele>
        <time>2021-12-20T17:22:54+01:00</time>
      </trkpt>
      <trkpt lat="43.13703" lon="5.76027">
        <ele>6</ele>
        <time>2021-12-20T17:22:59+01:00</time>
      </trkpt>
      <trkpt lat="43.1379" lon="5.76143">
        <ele>8</ele>
        <time>2021-12-20T17:23:04+01:00</time>
      </trkpt>
      <trkpt lat="43.13833" lon="5.76407">
        <ele>2</ele>
        <time>2021-12-20T17:23:09+01:00</time>
      </trkpt>
      <trkpt lat="43.1388" lon="5.76525">
        <ele>9</ele>
        <time>2021-12-20T17:23:14+01:00</time>
      </trkpt>
      <trkpt lat="43.13939" lon="5.76639">
        <ele>6</ele>
        <time>2021-12-20T17:23:19+01:00</time>
      </trkpt>
      <trkpt lat="43.13939" lon="5.76901">
        <ele>2</ele>
        <time>2021-12-20T17:23:24+01:00</time>
      </trkpt>
      <trkpt lat="43.13939" lon="5.76965">
        <ele>2</ele>
        <time>2021-12-20T17:23:29+01:00</time>
      </trkpt>
      <trkpt lat="43.13927" lon="5.77023">
        <ele>1</ele>
        <time>2021-12-20T17:23:34+01:00</time>
      </trkpt>
      <trkpt lat="43.13848" lon="5.77298">
        <ele>1</ele>
        <time>2021-12-20T17:23:39+01:00</time>
      </trkpt>
      <trkpt lat="43.13753" lon="5.77542">
        <ele>4</ele>
        <time>2021-12-20T17:23:44+01:00</time>
      </trkpt>
      <trkpt lat="43.1369" lon="5.77645">
        <ele>6</ele>
        <time>2021-12-20T17:23:49+01:00</time>
      </trkpt>
      <trkpt lat="43.13574" lon="5.7781">
        <ele>11</ele>
        <time>2021-12-20T17:23:54+01:00</time>
      </trkpt>
      <trkpt lat="43.13372" lon="5.7801">
        <ele>18</ele>
        <time>2021-12-20T17:23:59+01:00</time>
      </trkpt>
      <trkpt lat="43.13126" lon="5.7813">
        <ele>18</ele>
        <time>2021-12-20T17:24:04+01:00</time>
      </trkpt>
      <trkpt lat="43.12754" lon="5.78506">
        <ele>25</ele>
        <time>2021-12-20T17:24:09+01:00</time>
      </trkpt>
      <trkpt lat="43.12655" lon="5.78763">
        <ele>33</ele>
        <time>2021-12-20T17:24:14+01:00</time>
      </trkpt>
      <trkpt lat="43.12492" lon="5.78892">
        <ele>38</ele>
        <time>2021-12-20T17:24:19+01:00</time>
      </trkpt>
      <trkpt lat="43.12414" lon="5.79089">
        <ele>43</ele>
        <time>2021-12-20T17:24:24+01:00</time>
      </trkpt>
      <trkpt lat="43.12398" lon="5.79162">
        <ele>46</ele>
        <time>2021-12-20T17:24:29+01:00</time>
      </trkpt>
      <trkpt lat="43.12246" lon="5.79338">
        <ele>46</ele>
        <time>2021-12-20T17:24:34+01:00</time>
      </trkpt>
      <trkpt lat="43.12223" lon="5.79529">
        <ele>39</ele>
        <time>2021-12-20T17:24:39+01:00</time>
      </trkpt>
      <trkpt lat="43.12166" lon="5.79703">
        <ele>36</ele>
        <time>2021-12-20T17:24:44+01:00</time>
      </trkpt>
      <trkpt lat="43.12215" lon="5.79913">
        <ele>33</ele>
        <time>2021-12-20T17:24:49+01:00</time>
      </trkpt>
      <trkpt lat="43.12235" lon="5.80151">
        <ele>24</ele>
        <time>2021-12-20T17:24:54+01:00</time>
      </trkpt>
      <trkpt lat="43.12234" lon="5.80323">
        <ele>11</ele>
        <time>2021-12-20T17:24:59+01:00</time>
      </trkpt>
      <trkpt lat="43.12154" lon="5.80495">
        <ele>9</ele>
        <time>2021-12-20T17:25:04+01:00</time>
      </trkpt>
      <trkpt lat="43.12082" lon="5.80767">
        <ele>5</ele>
        <time>2021-12-20T17:25:09+01:00</time>
      </trkpt>
      <trkpt lat="43.11885" lon="5.811">
        <ele>4</ele>
        <time>2021-12-20T17:25:14+01:00</time>
      </trkpt>
      <trkpt lat="43.11866" lon="5.81263">
        <ele>4</ele>
        <time>2021-12-20T17:25:19+01:00</time>
      </trkpt>
      <trkpt lat="43.11773" lon="5.8119">
        <ele>3</ele>
        <time>2021-12-20T17:25:24+01:00</time>
      </trkpt>
      <trkpt lat="43.11285" lon="5.81134">
        <ele>1</ele>
        <time>2021-12-20T17:25:29+01:00</time>
      </trkpt>
      <trkpt lat="43.10667" lon="5.81445">
        <ele>3</ele>
        <time>2021-12-20T17:25:34+01:00</time>
      </trkpt>
      <trkpt lat="43.10368" lon="5.81926">
        <ele>9</ele>
        <time>2021-12-20T17:25:39+01:00</time>
      </trkpt>
      <trkpt lat="43.09455" lon="5.83385">
        <ele>25</ele>
        <time>2021-12-20T17:25:44+01:00</time>
      </trkpt>
      <trkpt lat="43.09402" lon="5.83827">
        <ele>29</ele>
        <time>2021-12-20T17:25:49+01:00</time>
      </trkpt>
      <trkpt lat="43.09337" lon="5.84123">
        <ele>31</ele>
        <time>2021-12-20T17:25:54+01:00</time>
      </trkpt>
      <trkpt lat="43.09348" lon="5.84477">
        <ele>35</ele>
        <time>2021-12-20T17:25:59+01:00</time>
      </trkpt>
      <trkpt lat="43.09539" lon="5.84804">
        <ele>43</ele>
        <time>2021-12-20T17:26:04+01:00</time>
      </trkpt>
      <trkpt lat="43.09763" lon="5.85125">
        <ele>45</ele>
        <time>2021-12-20T17:26:09+01:00</time>
      </trkpt>
      <trkpt lat="43.09768" lon="5.8522">
        <ele>41</ele>
        <time>2021-12-20T17:26:14+01:00</time>
      </trkpt>
      <trkpt lat="43.09872" lon="5.85535">
        <ele>35</ele>
        <time>2021-12-20T17:26:19+01:00</time>
      </trkpt>
      <trkpt lat="43.09942" lon="5.85636">
        <ele>32</ele>
        <time>2021-12-20T17:26:24+01:00</time>
      </trkpt>
      <trkpt lat="43.09959" lon="5.86256">
        <ele>61</ele>
        <time>2021-12-20T17:26:29+01:00</time>
      </trkpt>
      <trkpt lat="43.09948" lon="5.86333">
        <ele>57</ele>
        <time>2021-12-20T17:26:34+01:00</time>
      </trkpt>
      <trkpt lat="43.09951" lon="5.86443">
        <ele>51</ele>
        <time>2021-12-20T17:26:39+01:00</time>
      </trkpt>
      <trkpt lat="43.09926" lon="5.86657">
        <ele>36</ele>
        <time>2021-12-20T17:26:44+01:00</time>
      </trkpt>
      <trkpt lat="43.10141" lon="5.87275">
        <ele>10</ele>
        <time>2021-12-20T17:26:49+01:00</time>
      </trkpt>
      <trkpt lat="43.10205" lon="5.87599">
        <ele>6</ele>
        <time>2021-12-20T17:26:54+01:00</time>
      </trkpt>
      <trkpt lat="43.10139" lon="5.87756">
        <ele>5</ele>
        <time>2021-12-20T17:26:59+01:00</time>
      </trkpt>
      <trkpt lat="43.10105" lon="5.87973">
        <ele>4</ele>
        <time>2021-12-20T17:27:04+01:00</time>
      </trkpt>
      <trkpt lat="43.0995" lon="5.88299">
        <ele>5</ele>
        <time>2021-12-20T17:27:09+01:00</time>
      </trkpt>
      <trkpt lat="43.09981" lon="5.88331">
        <ele>4</ele>
        <time>2021-12-20T17:27:14+01:00</time>
      </trkpt>
      <trkpt lat="43.09931" lon="5.88423">
        <ele>4</ele>
        <time>2021-12-20T17:27:19+01:00</time>
      </trkpt>
      <trkpt lat="43.09906" lon="5.88434">
        <ele>4</ele>
        <time>2021-12-20T17:27:24+01:00</time>
      </trkpt>
      <trkpt lat="43.09886" lon="5.88771">
        <ele>5</ele>
        <time>2021-12-20T17:27:29+01:00</time>
      </trkpt>
      <trkpt lat="43.09732" lon="5.88823">
        <ele>11</ele>
        <time>2021-12-20T17:27:34+01:00</time>
      </trkpt>
    </trkseg>
  </trk>
</gpx>